<?xml version="1.0" encoding="UTF-8" standalone="no" ?><gpx xmlns="http://www.topografix.com/GPX/1/1" xmlns:gpxx="http://www.garmin.com/xmlschemas/GpxExtensions/v3" xmlns:wptx1="http://www.garmin.com/xmlschemas/WaypointExtension/v1" xmlns:gpxtpx="http://www.garmin.com/xmlschemas/TrackPointExtension/v1" creator="GuideVTT.com" version="1.1" xmlns:xsi="http://www.w3.org/2001/XMLSchema-instance" xsi:schemaLocation="http://www.topografix.com/GPX/1/1 http://www.topografix.com/GPX/1/1/gpx.xsd http://www.garmin.com/xmlschemas/GpxExtensions/v3 http://www8.garmin.com/xmlschemas/GpxExtensionsv3.xsd http://www.garmin.com/xmlschemas/WaypointExtension/v1 http://www8.garmin.com/xmlschemas/WaypointExtensionv1.xsd http://www.garmin.com/xmlschemas/TrackPointExtension/v1 http://www.garmin.com/xmlschemas/TrackPointExtensionv1.xsd">
<metadata><link href="http://www.garmin.com"><text>Garmin International</text></link><time>2013-06-22T15:13:50Z</time></metadata>
<trk><name>saillon_veysonnaz_20160828-0843.gpx</name><extensions><gpxx:TrackExtension><gpxx:DisplayColor>Cyan</gpxx:DisplayColor></gpxx:TrackExtension></extensions><trkseg>
<trkpt lat="46.17047" lon="7.19212"><ele></ele><time>2016-8-30T19:54:33Z</time></trkpt>
<trkpt lat="46.17047" lon="7.19213"><ele></ele><time>2016-8-30T19:54:36Z</time></trkpt>
<trkpt lat="46.17047" lon="7.19213"><ele></ele><time>2016-8-30T19:54:39Z</time></trkpt>
<trkpt lat="46.17047" lon="7.19213"><ele></ele><time>2016-8-30T19:54:42Z</time></trkpt>
<trkpt lat="46.17047" lon="7.19214"><ele></ele><time>2016-8-30T19:54:45Z</time></trkpt>
<trkpt lat="46.17047" lon="7.19214"><ele></ele><time>2016-8-30T19:54:48Z</time></trkpt>
<trkpt lat="46.17047" lon="7.19214"><ele></ele><time>2016-8-30T19:54:51Z</time></trkpt>
<trkpt lat="46.17047" lon="7.19214"><ele></ele><time>2016-8-30T19:54:54Z</time></trkpt>
<trkpt lat="46.17049" lon="7.19215"><ele></ele><time>2016-8-30T19:54:57Z</time></trkpt>
<trkpt lat="46.17052" lon="7.19217"><ele></ele><time>2016-8-30T19:55:0Z</time></trkpt>
<trkpt lat="46.17055" lon="7.1922"><ele></ele><time>2016-8-30T19:55:3Z</time></trkpt>
<trkpt lat="46.17056" lon="7.19229"><ele></ele><time>2016-8-30T19:55:6Z</time></trkpt>
<trkpt lat="46.17057" lon="7.19233"><ele></ele><time>2016-8-30T19:55:9Z</time></trkpt>
<trkpt lat="46.17054" lon="7.19238"><ele></ele><time>2016-8-30T19:55:12Z</time></trkpt>
<trkpt lat="46.17048" lon="7.19249"><ele></ele><time>2016-8-30T19:55:15Z</time></trkpt>
<trkpt lat="46.17042" lon="7.19259"><ele></ele><time>2016-8-30T19:55:18Z</time></trkpt>
<trkpt lat="46.17035" lon="7.1927"><ele></ele><time>2016-8-30T19:55:21Z</time></trkpt>
<trkpt lat="46.17029" lon="7.1928"><ele></ele><time>2016-8-30T19:55:24Z</time></trkpt>
<trkpt lat="46.17026" lon="7.19286"><ele></ele><time>2016-8-30T19:55:27Z</time></trkpt>
<trkpt lat="46.17023" lon="7.1929"><ele></ele><time>2016-8-30T19:55:30Z</time></trkpt>
<trkpt lat="46.17018" lon="7.19299"><ele></ele><time>2016-8-30T19:55:33Z</time></trkpt>
<trkpt lat="46.17013" lon="7.19308"><ele></ele><time>2016-8-30T19:55:36Z</time></trkpt>
<trkpt lat="46.17008" lon="7.19317"><ele></ele><time>2016-8-30T19:55:39Z</time></trkpt>
<trkpt lat="46.17003" lon="7.19326"><ele></ele><time>2016-8-30T19:55:42Z</time></trkpt>
<trkpt lat="46.16998" lon="7.19335"><ele></ele><time>2016-8-30T19:55:45Z</time></trkpt>
<trkpt lat="46.16996" lon="7.1934"><ele></ele><time>2016-8-30T19:55:48Z</time></trkpt>
<trkpt lat="46.16994" lon="7.19344"><ele></ele><time>2016-8-30T19:55:51Z</time></trkpt>
<trkpt lat="46.16991" lon="7.19351"><ele></ele><time>2016-8-30T19:55:54Z</time></trkpt>
<trkpt lat="46.16988" lon="7.19357"><ele></ele><time>2016-8-30T19:55:57Z</time></trkpt>
<trkpt lat="46.16985" lon="7.19364"><ele></ele><time>2016-8-30T19:56:0Z</time></trkpt>
<trkpt lat="46.16982" lon="7.19371"><ele></ele><time>2016-8-30T19:56:3Z</time></trkpt>
<trkpt lat="46.16979" lon="7.19378"><ele></ele><time>2016-8-30T19:56:6Z</time></trkpt>
<trkpt lat="46.16978" lon="7.19382"><ele></ele><time>2016-8-30T19:56:9Z</time></trkpt>
<trkpt lat="46.16979" lon="7.19386"><ele></ele><time>2016-8-30T19:56:12Z</time></trkpt>
<trkpt lat="46.16982" lon="7.19394"><ele></ele><time>2016-8-30T19:56:15Z</time></trkpt>
<trkpt lat="46.16988" lon="7.194"><ele></ele><time>2016-8-30T19:56:18Z</time></trkpt>
<trkpt lat="46.16995" lon="7.19405"><ele></ele><time>2016-8-30T19:56:21Z</time></trkpt>
<trkpt lat="46.17002" lon="7.19411"><ele></ele><time>2016-8-30T19:56:24Z</time></trkpt>
<trkpt lat="46.17009" lon="7.19417"><ele></ele><time>2016-8-30T19:56:27Z</time></trkpt>
<trkpt lat="46.17016" lon="7.19422"><ele></ele><time>2016-8-30T19:56:30Z</time></trkpt>
<trkpt lat="46.17023" lon="7.19428"><ele></ele><time>2016-8-30T19:56:33Z</time></trkpt>
<trkpt lat="46.17029" lon="7.19433"><ele></ele><time>2016-8-30T19:56:36Z</time></trkpt>
<trkpt lat="46.17036" lon="7.19439"><ele></ele><time>2016-8-30T19:56:39Z</time></trkpt>
<trkpt lat="46.17042" lon="7.19444"><ele></ele><time>2016-8-30T19:56:42Z</time></trkpt>
<trkpt lat="46.17048" lon="7.1945"><ele></ele><time>2016-8-30T19:56:45Z</time></trkpt>
<trkpt lat="46.17055" lon="7.19456"><ele></ele><time>2016-8-30T19:56:48Z</time></trkpt>
<trkpt lat="46.17061" lon="7.19461"><ele></ele><time>2016-8-30T19:56:51Z</time></trkpt>
<trkpt lat="46.17064" lon="7.19464"><ele></ele><time>2016-8-30T19:56:54Z</time></trkpt>
<trkpt lat="46.17067" lon="7.19467"><ele></ele><time>2016-8-30T19:56:57Z</time></trkpt>
<trkpt lat="46.17073" lon="7.19472"><ele></ele><time>2016-8-30T19:57:0Z</time></trkpt>
<trkpt lat="46.1708" lon="7.19477"><ele></ele><time>2016-8-30T19:57:3Z</time></trkpt>
<trkpt lat="46.17086" lon="7.19483"><ele></ele><time>2016-8-30T19:57:6Z</time></trkpt>
<trkpt lat="46.17092" lon="7.19488"><ele></ele><time>2016-8-30T19:57:9Z</time></trkpt>
<trkpt lat="46.17093" lon="7.19497"><ele></ele><time>2016-8-30T19:57:12Z</time></trkpt>
<trkpt lat="46.17088" lon="7.19505"><ele></ele><time>2016-8-30T19:57:15Z</time></trkpt>
<trkpt lat="46.17082" lon="7.19514"><ele></ele><time>2016-8-30T19:57:18Z</time></trkpt>
<trkpt lat="46.17077" lon="7.19522"><ele></ele><time>2016-8-30T19:57:21Z</time></trkpt>
<trkpt lat="46.17072" lon="7.19531"><ele></ele><time>2016-8-30T19:57:24Z</time></trkpt>
<trkpt lat="46.17066" lon="7.19539"><ele></ele><time>2016-8-30T19:57:27Z</time></trkpt>
<trkpt lat="46.17061" lon="7.19548"><ele></ele><time>2016-8-30T19:57:30Z</time></trkpt>
<trkpt lat="46.17056" lon="7.19557"><ele></ele><time>2016-8-30T19:57:33Z</time></trkpt>
<trkpt lat="46.17052" lon="7.19567"><ele></ele><time>2016-8-30T19:57:36Z</time></trkpt>
<trkpt lat="46.17047" lon="7.19577"><ele></ele><time>2016-8-30T19:57:39Z</time></trkpt>
<trkpt lat="46.17043" lon="7.19587"><ele></ele><time>2016-8-30T19:57:42Z</time></trkpt>
<trkpt lat="46.17038" lon="7.19596"><ele></ele><time>2016-8-30T19:57:45Z</time></trkpt>
<trkpt lat="46.17036" lon="7.19601"><ele></ele><time>2016-8-30T19:57:48Z</time></trkpt>
<trkpt lat="46.17034" lon="7.19606"><ele></ele><time>2016-8-30T19:57:51Z</time></trkpt>
<trkpt lat="46.17029" lon="7.19615"><ele></ele><time>2016-8-30T19:57:54Z</time></trkpt>
<trkpt lat="46.17025" lon="7.19624"><ele></ele><time>2016-8-30T19:57:57Z</time></trkpt>
<trkpt lat="46.1702" lon="7.19634"><ele></ele><time>2016-8-30T19:58:0Z</time></trkpt>
<trkpt lat="46.17016" lon="7.19643"><ele></ele><time>2016-8-30T19:58:3Z</time></trkpt>
<trkpt lat="46.17011" lon="7.19652"><ele></ele><time>2016-8-30T19:58:6Z</time></trkpt>
<trkpt lat="46.17009" lon="7.19657"><ele></ele><time>2016-8-30T19:58:9Z</time></trkpt>
<trkpt lat="46.17007" lon="7.19662"><ele></ele><time>2016-8-30T19:58:12Z</time></trkpt>
<trkpt lat="46.17002" lon="7.19671"><ele></ele><time>2016-8-30T19:58:15Z</time></trkpt>
<trkpt lat="46.16997" lon="7.1968"><ele></ele><time>2016-8-30T19:58:18Z</time></trkpt>
<trkpt lat="46.16993" lon="7.1969"><ele></ele><time>2016-8-30T19:58:21Z</time></trkpt>
<trkpt lat="46.16988" lon="7.19699"><ele></ele><time>2016-8-30T19:58:24Z</time></trkpt>
<trkpt lat="46.16983" lon="7.19709"><ele></ele><time>2016-8-30T19:58:27Z</time></trkpt>
<trkpt lat="46.16981" lon="7.19714"><ele></ele><time>2016-8-30T19:58:30Z</time></trkpt>
<trkpt lat="46.16978" lon="7.19719"><ele></ele><time>2016-8-30T19:58:33Z</time></trkpt>
<trkpt lat="46.16973" lon="7.1973"><ele></ele><time>2016-8-30T19:58:36Z</time></trkpt>
<trkpt lat="46.16968" lon="7.19741"><ele></ele><time>2016-8-30T19:58:39Z</time></trkpt>
<trkpt lat="46.16963" lon="7.19752"><ele></ele><time>2016-8-30T19:58:42Z</time></trkpt>
<trkpt lat="46.16958" lon="7.19763"><ele></ele><time>2016-8-30T19:58:45Z</time></trkpt>
<trkpt lat="46.16956" lon="7.19769"><ele></ele><time>2016-8-30T19:58:48Z</time></trkpt>
<trkpt lat="46.16953" lon="7.19774"><ele></ele><time>2016-8-30T19:58:51Z</time></trkpt>
<trkpt lat="46.16948" lon="7.19786"><ele></ele><time>2016-8-30T19:58:54Z</time></trkpt>
<trkpt lat="46.16943" lon="7.19797"><ele></ele><time>2016-8-30T19:58:57Z</time></trkpt>
<trkpt lat="46.16938" lon="7.19809"><ele></ele><time>2016-8-30T19:59:0Z</time></trkpt>
<trkpt lat="46.16932" lon="7.1982"><ele></ele><time>2016-8-30T19:59:3Z</time></trkpt>
<trkpt lat="46.1693" lon="7.19826"><ele></ele><time>2016-8-30T19:59:6Z</time></trkpt>
<trkpt lat="46.16927" lon="7.19831"><ele></ele><time>2016-8-30T19:59:9Z</time></trkpt>
<trkpt lat="46.16922" lon="7.19842"><ele></ele><time>2016-8-30T19:59:12Z</time></trkpt>
<trkpt lat="46.16917" lon="7.19853"><ele></ele><time>2016-8-30T19:59:15Z</time></trkpt>
<trkpt lat="46.16911" lon="7.19864"><ele></ele><time>2016-8-30T19:59:18Z</time></trkpt>
<trkpt lat="46.16906" lon="7.19875"><ele></ele><time>2016-8-30T19:59:21Z</time></trkpt>
<trkpt lat="46.16904" lon="7.1988"><ele></ele><time>2016-8-30T19:59:24Z</time></trkpt>
<trkpt lat="46.16902" lon="7.19885"><ele></ele><time>2016-8-30T19:59:27Z</time></trkpt>
<trkpt lat="46.16899" lon="7.19893"><ele></ele><time>2016-8-30T19:59:30Z</time></trkpt>
<trkpt lat="46.16895" lon="7.19902"><ele></ele><time>2016-8-30T19:59:33Z</time></trkpt>
<trkpt lat="46.16892" lon="7.19911"><ele></ele><time>2016-8-30T19:59:36Z</time></trkpt>
<trkpt lat="46.16891" lon="7.19915"><ele></ele><time>2016-8-30T19:59:39Z</time></trkpt>
<trkpt lat="46.16891" lon="7.1992"><ele></ele><time>2016-8-30T19:59:42Z</time></trkpt>
<trkpt lat="46.16892" lon="7.19924"><ele></ele><time>2016-8-30T19:59:45Z</time></trkpt>
<trkpt lat="46.16896" lon="7.19925"><ele></ele><time>2016-8-30T19:59:48Z</time></trkpt>
<trkpt lat="46.16906" lon="7.19926"><ele></ele><time>2016-8-30T19:59:51Z</time></trkpt>
<trkpt lat="46.16917" lon="7.19928"><ele></ele><time>2016-8-30T19:59:54Z</time></trkpt>
<trkpt lat="46.16927" lon="7.19929"><ele></ele><time>2016-8-30T19:59:57Z</time></trkpt>
<trkpt lat="46.16937" lon="7.1993"><ele></ele><time>2016-8-30T20:0:0Z</time></trkpt>
<trkpt lat="46.16947" lon="7.19932"><ele></ele><time>2016-8-30T20:0:3Z</time></trkpt>
<trkpt lat="46.16958" lon="7.19933"><ele></ele><time>2016-8-30T20:0:6Z</time></trkpt>
<trkpt lat="46.16968" lon="7.19934"><ele></ele><time>2016-8-30T20:0:9Z</time></trkpt>
<trkpt lat="46.16974" lon="7.19935"><ele></ele><time>2016-8-30T20:0:12Z</time></trkpt>
<trkpt lat="46.16979" lon="7.19936"><ele></ele><time>2016-8-30T20:0:15Z</time></trkpt>
<trkpt lat="46.16984" lon="7.19937"><ele></ele><time>2016-8-30T20:0:18Z</time></trkpt>
<trkpt lat="46.1699" lon="7.19937"><ele></ele><time>2016-8-30T20:0:21Z</time></trkpt>
<trkpt lat="46.17" lon="7.19939"><ele></ele><time>2016-8-30T20:0:24Z</time></trkpt>
<trkpt lat="46.17011" lon="7.1994"><ele></ele><time>2016-8-30T20:0:27Z</time></trkpt>
<trkpt lat="46.17022" lon="7.19942"><ele></ele><time>2016-8-30T20:0:30Z</time></trkpt>
<trkpt lat="46.17032" lon="7.19944"><ele></ele><time>2016-8-30T20:0:33Z</time></trkpt>
<trkpt lat="46.17043" lon="7.19945"><ele></ele><time>2016-8-30T20:0:36Z</time></trkpt>
<trkpt lat="46.17054" lon="7.19947"><ele></ele><time>2016-8-30T20:0:39Z</time></trkpt>
<trkpt lat="46.17065" lon="7.19949"><ele></ele><time>2016-8-30T20:0:42Z</time></trkpt>
<trkpt lat="46.17075" lon="7.19951"><ele></ele><time>2016-8-30T20:0:45Z</time></trkpt>
<trkpt lat="46.17081" lon="7.19952"><ele></ele><time>2016-8-30T20:0:48Z</time></trkpt>
<trkpt lat="46.17086" lon="7.19952"><ele></ele><time>2016-8-30T20:0:51Z</time></trkpt>
<trkpt lat="46.17096" lon="7.19954"><ele></ele><time>2016-8-30T20:0:54Z</time></trkpt>
<trkpt lat="46.17106" lon="7.19955"><ele></ele><time>2016-8-30T20:0:57Z</time></trkpt>
<trkpt lat="46.17116" lon="7.19957"><ele></ele><time>2016-8-30T20:1:0Z</time></trkpt>
<trkpt lat="46.17126" lon="7.19958"><ele></ele><time>2016-8-30T20:1:3Z</time></trkpt>
<trkpt lat="46.17136" lon="7.1996"><ele></ele><time>2016-8-30T20:1:6Z</time></trkpt>
<trkpt lat="46.17146" lon="7.19962"><ele></ele><time>2016-8-30T20:1:9Z</time></trkpt>
<trkpt lat="46.17157" lon="7.19964"><ele></ele><time>2016-8-30T20:1:12Z</time></trkpt>
<trkpt lat="46.17167" lon="7.19966"><ele></ele><time>2016-8-30T20:1:15Z</time></trkpt>
<trkpt lat="46.17172" lon="7.19967"><ele></ele><time>2016-8-30T20:1:18Z</time></trkpt>
<trkpt lat="46.17177" lon="7.19968"><ele></ele><time>2016-8-30T20:1:21Z</time></trkpt>
<trkpt lat="46.17187" lon="7.19969"><ele></ele><time>2016-8-30T20:1:24Z</time></trkpt>
<trkpt lat="46.17197" lon="7.1997"><ele></ele><time>2016-8-30T20:1:27Z</time></trkpt>
<trkpt lat="46.17207" lon="7.19972"><ele></ele><time>2016-8-30T20:1:30Z</time></trkpt>
<trkpt lat="46.17218" lon="7.19973"><ele></ele><time>2016-8-30T20:1:33Z</time></trkpt>
<trkpt lat="46.17228" lon="7.19975"><ele></ele><time>2016-8-30T20:1:36Z</time></trkpt>
<trkpt lat="46.17239" lon="7.19976"><ele></ele><time>2016-8-30T20:1:39Z</time></trkpt>
<trkpt lat="46.1725" lon="7.19977"><ele></ele><time>2016-8-30T20:1:42Z</time></trkpt>
<trkpt lat="46.17261" lon="7.19979"><ele></ele><time>2016-8-30T20:1:45Z</time></trkpt>
<trkpt lat="46.17266" lon="7.1998"><ele></ele><time>2016-8-30T20:1:48Z</time></trkpt>
<trkpt lat="46.17271" lon="7.19981"><ele></ele><time>2016-8-30T20:1:51Z</time></trkpt>
<trkpt lat="46.17282" lon="7.19984"><ele></ele><time>2016-8-30T20:1:54Z</time></trkpt>
<trkpt lat="46.17293" lon="7.19987"><ele></ele><time>2016-8-30T20:1:57Z</time></trkpt>
<trkpt lat="46.17304" lon="7.1999"><ele></ele><time>2016-8-30T20:2:0Z</time></trkpt>
<trkpt lat="46.17315" lon="7.19993"><ele></ele><time>2016-8-30T20:2:3Z</time></trkpt>
<trkpt lat="46.17324" lon="7.19997"><ele></ele><time>2016-8-30T20:2:6Z</time></trkpt>
<trkpt lat="46.17334" lon="7.20001"><ele></ele><time>2016-8-30T20:2:9Z</time></trkpt>
<trkpt lat="46.17343" lon="7.20006"><ele></ele><time>2016-8-30T20:2:12Z</time></trkpt>
<trkpt lat="46.17352" lon="7.2001"><ele></ele><time>2016-8-30T20:2:15Z</time></trkpt>
<trkpt lat="46.17362" lon="7.20015"><ele></ele><time>2016-8-30T20:2:18Z</time></trkpt>
<trkpt lat="46.17371" lon="7.20021"><ele></ele><time>2016-8-30T20:2:21Z</time></trkpt>
<trkpt lat="46.1738" lon="7.20027"><ele></ele><time>2016-8-30T20:2:24Z</time></trkpt>
<trkpt lat="46.1739" lon="7.20033"><ele></ele><time>2016-8-30T20:2:27Z</time></trkpt>
<trkpt lat="46.17399" lon="7.20038"><ele></ele><time>2016-8-30T20:2:30Z</time></trkpt>
<trkpt lat="46.17404" lon="7.20041"><ele></ele><time>2016-8-30T20:2:33Z</time></trkpt>
<trkpt lat="46.17409" lon="7.20045"><ele></ele><time>2016-8-30T20:2:36Z</time></trkpt>
<trkpt lat="46.17418" lon="7.20052"><ele></ele><time>2016-8-30T20:2:39Z</time></trkpt>
<trkpt lat="46.17427" lon="7.20059"><ele></ele><time>2016-8-30T20:2:42Z</time></trkpt>
<trkpt lat="46.17437" lon="7.20065"><ele></ele><time>2016-8-30T20:2:45Z</time></trkpt>
<trkpt lat="46.17446" lon="7.20072"><ele></ele><time>2016-8-30T20:2:48Z</time></trkpt>
<trkpt lat="46.17455" lon="7.2008"><ele></ele><time>2016-8-30T20:2:51Z</time></trkpt>
<trkpt lat="46.17464" lon="7.20088"><ele></ele><time>2016-8-30T20:2:54Z</time></trkpt>
<trkpt lat="46.17474" lon="7.20096"><ele></ele><time>2016-8-30T20:2:57Z</time></trkpt>
<trkpt lat="46.17483" lon="7.20104"><ele></ele><time>2016-8-30T20:3:0Z</time></trkpt>
<trkpt lat="46.17487" lon="7.20108"><ele></ele><time>2016-8-30T20:3:3Z</time></trkpt>
<trkpt lat="46.17492" lon="7.20113"><ele></ele><time>2016-8-30T20:3:6Z</time></trkpt>
<trkpt lat="46.175" lon="7.20123"><ele></ele><time>2016-8-30T20:3:9Z</time></trkpt>
<trkpt lat="46.17509" lon="7.20134"><ele></ele><time>2016-8-30T20:3:12Z</time></trkpt>
<trkpt lat="46.17518" lon="7.20144"><ele></ele><time>2016-8-30T20:3:15Z</time></trkpt>
<trkpt lat="46.17522" lon="7.20149"><ele></ele><time>2016-8-30T20:3:18Z</time></trkpt>
<trkpt lat="46.17525" lon="7.20155"><ele></ele><time>2016-8-30T20:3:21Z</time></trkpt>
<trkpt lat="46.17532" lon="7.20166"><ele></ele><time>2016-8-30T20:3:24Z</time></trkpt>
<trkpt lat="46.17539" lon="7.20177"><ele></ele><time>2016-8-30T20:3:27Z</time></trkpt>
<trkpt lat="46.17546" lon="7.20188"><ele></ele><time>2016-8-30T20:3:30Z</time></trkpt>
<trkpt lat="46.17553" lon="7.20199"><ele></ele><time>2016-8-30T20:3:33Z</time></trkpt>
<trkpt lat="46.1756" lon="7.20209"><ele></ele><time>2016-8-30T20:3:36Z</time></trkpt>
<trkpt lat="46.17568" lon="7.20219"><ele></ele><time>2016-8-30T20:3:39Z</time></trkpt>
<trkpt lat="46.17575" lon="7.2023"><ele></ele><time>2016-8-30T20:3:42Z</time></trkpt>
<trkpt lat="46.17582" lon="7.2024"><ele></ele><time>2016-8-30T20:3:45Z</time></trkpt>
<trkpt lat="46.17586" lon="7.20245"><ele></ele><time>2016-8-30T20:3:48Z</time></trkpt>
<trkpt lat="46.1759" lon="7.20251"><ele></ele><time>2016-8-30T20:3:51Z</time></trkpt>
<trkpt lat="46.17597" lon="7.20263"><ele></ele><time>2016-8-30T20:3:54Z</time></trkpt>
<trkpt lat="46.17605" lon="7.20276"><ele></ele><time>2016-8-30T20:3:57Z</time></trkpt>
<trkpt lat="46.17612" lon="7.20288"><ele></ele><time>2016-8-30T20:4:0Z</time></trkpt>
<trkpt lat="46.17616" lon="7.20294"><ele></ele><time>2016-8-30T20:4:3Z</time></trkpt>
<trkpt lat="46.17619" lon="7.20299"><ele></ele><time>2016-8-30T20:4:6Z</time></trkpt>
<trkpt lat="46.17625" lon="7.2031"><ele></ele><time>2016-8-30T20:4:9Z</time></trkpt>
<trkpt lat="46.17627" lon="7.20324"><ele></ele><time>2016-8-30T20:4:12Z</time></trkpt>
<trkpt lat="46.17634" lon="7.20335"><ele></ele><time>2016-8-30T20:4:15Z</time></trkpt>
<trkpt lat="46.17642" lon="7.20347"><ele></ele><time>2016-8-30T20:4:18Z</time></trkpt>
<trkpt lat="46.1765" lon="7.20358"><ele></ele><time>2016-8-30T20:4:21Z</time></trkpt>
<trkpt lat="46.17658" lon="7.20369"><ele></ele><time>2016-8-30T20:4:24Z</time></trkpt>
<trkpt lat="46.17661" lon="7.20375"><ele></ele><time>2016-8-30T20:4:27Z</time></trkpt>
<trkpt lat="46.17665" lon="7.20381"><ele></ele><time>2016-8-30T20:4:30Z</time></trkpt>
<trkpt lat="46.17672" lon="7.20394"><ele></ele><time>2016-8-30T20:4:33Z</time></trkpt>
<trkpt lat="46.1768" lon="7.20406"><ele></ele><time>2016-8-30T20:4:36Z</time></trkpt>
<trkpt lat="46.17687" lon="7.20419"><ele></ele><time>2016-8-30T20:4:39Z</time></trkpt>
<trkpt lat="46.17694" lon="7.20431"><ele></ele><time>2016-8-30T20:4:42Z</time></trkpt>
<trkpt lat="46.177" lon="7.20444"><ele></ele><time>2016-8-30T20:4:45Z</time></trkpt>
<trkpt lat="46.17706" lon="7.20457"><ele></ele><time>2016-8-30T20:4:48Z</time></trkpt>
<trkpt lat="46.17712" lon="7.20469"><ele></ele><time>2016-8-30T20:4:51Z</time></trkpt>
<trkpt lat="46.17717" lon="7.20482"><ele></ele><time>2016-8-30T20:4:54Z</time></trkpt>
<trkpt lat="46.1772" lon="7.20488"><ele></ele><time>2016-8-30T20:4:57Z</time></trkpt>
<trkpt lat="46.17723" lon="7.20495"><ele></ele><time>2016-8-30T20:5:0Z</time></trkpt>
<trkpt lat="46.17729" lon="7.2051"><ele></ele><time>2016-8-30T20:5:3Z</time></trkpt>
<trkpt lat="46.17734" lon="7.20524"><ele></ele><time>2016-8-30T20:5:6Z</time></trkpt>
<trkpt lat="46.1774" lon="7.20539"><ele></ele><time>2016-8-30T20:5:9Z</time></trkpt>
<trkpt lat="46.17742" lon="7.20546"><ele></ele><time>2016-8-30T20:5:12Z</time></trkpt>
<trkpt lat="46.17745" lon="7.20553"><ele></ele><time>2016-8-30T20:5:15Z</time></trkpt>
<trkpt lat="46.17751" lon="7.20568"><ele></ele><time>2016-8-30T20:5:18Z</time></trkpt>
<trkpt lat="46.17757" lon="7.20583"><ele></ele><time>2016-8-30T20:5:21Z</time></trkpt>
<trkpt lat="46.17763" lon="7.20598"><ele></ele><time>2016-8-30T20:5:24Z</time></trkpt>
<trkpt lat="46.17766" lon="7.20606"><ele></ele><time>2016-8-30T20:5:27Z</time></trkpt>
<trkpt lat="46.17768" lon="7.20613"><ele></ele><time>2016-8-30T20:5:30Z</time></trkpt>
<trkpt lat="46.17773" lon="7.20628"><ele></ele><time>2016-8-30T20:5:33Z</time></trkpt>
<trkpt lat="46.17778" lon="7.20643"><ele></ele><time>2016-8-30T20:5:36Z</time></trkpt>
<trkpt lat="46.17783" lon="7.20658"><ele></ele><time>2016-8-30T20:5:39Z</time></trkpt>
<trkpt lat="46.17786" lon="7.20665"><ele></ele><time>2016-8-30T20:5:42Z</time></trkpt>
<trkpt lat="46.17788" lon="7.20674"><ele></ele><time>2016-8-30T20:5:45Z</time></trkpt>
<trkpt lat="46.17792" lon="7.2069"><ele></ele><time>2016-8-30T20:5:48Z</time></trkpt>
<trkpt lat="46.17795" lon="7.20707"><ele></ele><time>2016-8-30T20:5:51Z</time></trkpt>
<trkpt lat="46.17799" lon="7.20724"><ele></ele><time>2016-8-30T20:5:54Z</time></trkpt>
<trkpt lat="46.17801" lon="7.20732"><ele></ele><time>2016-8-30T20:5:57Z</time></trkpt>
<trkpt lat="46.17803" lon="7.2074"><ele></ele><time>2016-8-30T20:6:0Z</time></trkpt>
<trkpt lat="46.17806" lon="7.20757"><ele></ele><time>2016-8-30T20:6:3Z</time></trkpt>
<trkpt lat="46.17809" lon="7.20773"><ele></ele><time>2016-8-30T20:6:6Z</time></trkpt>
<trkpt lat="46.17813" lon="7.20789"><ele></ele><time>2016-8-30T20:6:9Z</time></trkpt>
<trkpt lat="46.17815" lon="7.20797"><ele></ele><time>2016-8-30T20:6:12Z</time></trkpt>
<trkpt lat="46.17816" lon="7.20806"><ele></ele><time>2016-8-30T20:6:15Z</time></trkpt>
<trkpt lat="46.17819" lon="7.20823"><ele></ele><time>2016-8-30T20:6:18Z</time></trkpt>
<trkpt lat="46.17822" lon="7.2084"><ele></ele><time>2016-8-30T20:6:21Z</time></trkpt>
<trkpt lat="46.17824" lon="7.20858"><ele></ele><time>2016-8-30T20:6:24Z</time></trkpt>
<trkpt lat="46.17826" lon="7.20866"><ele></ele><time>2016-8-30T20:6:27Z</time></trkpt>
<trkpt lat="46.17827" lon="7.20875"><ele></ele><time>2016-8-30T20:6:30Z</time></trkpt>
<trkpt lat="46.17828" lon="7.20891"><ele></ele><time>2016-8-30T20:6:33Z</time></trkpt>
<trkpt lat="46.17829" lon="7.20907"><ele></ele><time>2016-8-30T20:6:36Z</time></trkpt>
<trkpt lat="46.1783" lon="7.20923"><ele></ele><time>2016-8-30T20:6:39Z</time></trkpt>
<trkpt lat="46.17832" lon="7.20939"><ele></ele><time>2016-8-30T20:6:42Z</time></trkpt>
<trkpt lat="46.17833" lon="7.20957"><ele></ele><time>2016-8-30T20:6:45Z</time></trkpt>
<trkpt lat="46.17835" lon="7.20974"><ele></ele><time>2016-8-30T20:6:48Z</time></trkpt>
<trkpt lat="46.17836" lon="7.20992"><ele></ele><time>2016-8-30T20:6:51Z</time></trkpt>
<trkpt lat="46.17838" lon="7.2101"><ele></ele><time>2016-8-30T20:6:54Z</time></trkpt>
<trkpt lat="46.17839" lon="7.21027"><ele></ele><time>2016-8-30T20:6:57Z</time></trkpt>
<trkpt lat="46.1784" lon="7.21044"><ele></ele><time>2016-8-30T20:7:0Z</time></trkpt>
<trkpt lat="46.17841" lon="7.21061"><ele></ele><time>2016-8-30T20:7:3Z</time></trkpt>
<trkpt lat="46.17841" lon="7.21078"><ele></ele><time>2016-8-30T20:7:6Z</time></trkpt>
<trkpt lat="46.17842" lon="7.21095"><ele></ele><time>2016-8-30T20:7:9Z</time></trkpt>
<trkpt lat="46.17843" lon="7.21112"><ele></ele><time>2016-8-30T20:7:12Z</time></trkpt>
<trkpt lat="46.17844" lon="7.21129"><ele></ele><time>2016-8-30T20:7:15Z</time></trkpt>
<trkpt lat="46.17845" lon="7.21146"><ele></ele><time>2016-8-30T20:7:18Z</time></trkpt>
<trkpt lat="46.17846" lon="7.21163"><ele></ele><time>2016-8-30T20:7:21Z</time></trkpt>
<trkpt lat="46.17847" lon="7.2118"><ele></ele><time>2016-8-30T20:7:24Z</time></trkpt>
<trkpt lat="46.17847" lon="7.21198"><ele></ele><time>2016-8-30T20:7:27Z</time></trkpt>
<trkpt lat="46.17848" lon="7.21215"><ele></ele><time>2016-8-30T20:7:30Z</time></trkpt>
<trkpt lat="46.17848" lon="7.21231"><ele></ele><time>2016-8-30T20:7:33Z</time></trkpt>
<trkpt lat="46.17849" lon="7.21247"><ele></ele><time>2016-8-30T20:7:36Z</time></trkpt>
<trkpt lat="46.17849" lon="7.21263"><ele></ele><time>2016-8-30T20:7:39Z</time></trkpt>
<trkpt lat="46.1785" lon="7.21279"><ele></ele><time>2016-8-30T20:7:42Z</time></trkpt>
<trkpt lat="46.1785" lon="7.21286"><ele></ele><time>2016-8-30T20:7:45Z</time></trkpt>
<trkpt lat="46.17851" lon="7.21294"><ele></ele><time>2016-8-30T20:7:48Z</time></trkpt>
<trkpt lat="46.17851" lon="7.21309"><ele></ele><time>2016-8-30T20:7:51Z</time></trkpt>
<trkpt lat="46.17852" lon="7.21323"><ele></ele><time>2016-8-30T20:7:54Z</time></trkpt>
<trkpt lat="46.17853" lon="7.21338"><ele></ele><time>2016-8-30T20:7:57Z</time></trkpt>
<trkpt lat="46.17853" lon="7.21346"><ele></ele><time>2016-8-30T20:8:0Z</time></trkpt>
<trkpt lat="46.17854" lon="7.21354"><ele></ele><time>2016-8-30T20:8:3Z</time></trkpt>
<trkpt lat="46.17856" lon="7.2137"><ele></ele><time>2016-8-30T20:8:6Z</time></trkpt>
<trkpt lat="46.17859" lon="7.21387"><ele></ele><time>2016-8-30T20:8:9Z</time></trkpt>
<trkpt lat="46.17861" lon="7.21403"><ele></ele><time>2016-8-30T20:8:12Z</time></trkpt>
<trkpt lat="46.17862" lon="7.21412"><ele></ele><time>2016-8-30T20:8:15Z</time></trkpt>
<trkpt lat="46.17864" lon="7.21422"><ele></ele><time>2016-8-30T20:8:18Z</time></trkpt>
<trkpt lat="46.17867" lon="7.21442"><ele></ele><time>2016-8-30T20:8:21Z</time></trkpt>
<trkpt lat="46.1787" lon="7.21463"><ele></ele><time>2016-8-30T20:8:24Z</time></trkpt>
<trkpt lat="46.17869" lon="7.21485"><ele></ele><time>2016-8-30T20:8:27Z</time></trkpt>
<trkpt lat="46.17868" lon="7.21507"><ele></ele><time>2016-8-30T20:8:30Z</time></trkpt>
<trkpt lat="46.17867" lon="7.2153"><ele></ele><time>2016-8-30T20:8:33Z</time></trkpt>
<trkpt lat="46.17867" lon="7.21548"><ele></ele><time>2016-8-30T20:8:36Z</time></trkpt>
<trkpt lat="46.17866" lon="7.21565"><ele></ele><time>2016-8-30T20:8:39Z</time></trkpt>
<trkpt lat="46.17866" lon="7.21583"><ele></ele><time>2016-8-30T20:8:42Z</time></trkpt>
<trkpt lat="46.17866" lon="7.21601"><ele></ele><time>2016-8-30T20:8:45Z</time></trkpt>
<trkpt lat="46.17866" lon="7.21618"><ele></ele><time>2016-8-30T20:8:48Z</time></trkpt>
<trkpt lat="46.17867" lon="7.21636"><ele></ele><time>2016-8-30T20:8:51Z</time></trkpt>
<trkpt lat="46.17868" lon="7.21653"><ele></ele><time>2016-8-30T20:8:54Z</time></trkpt>
<trkpt lat="46.17868" lon="7.21671"><ele></ele><time>2016-8-30T20:8:57Z</time></trkpt>
<trkpt lat="46.17868" lon="7.21687"><ele></ele><time>2016-8-30T20:9:0Z</time></trkpt>
<trkpt lat="46.17869" lon="7.21703"><ele></ele><time>2016-8-30T20:9:3Z</time></trkpt>
<trkpt lat="46.17869" lon="7.21718"><ele></ele><time>2016-8-30T20:9:6Z</time></trkpt>
<trkpt lat="46.17869" lon="7.21734"><ele></ele><time>2016-8-30T20:9:9Z</time></trkpt>
<trkpt lat="46.17869" lon="7.21742"><ele></ele><time>2016-8-30T20:9:12Z</time></trkpt>
<trkpt lat="46.1787" lon="7.21748"><ele></ele><time>2016-8-30T20:9:15Z</time></trkpt>
<trkpt lat="46.17872" lon="7.21761"><ele></ele><time>2016-8-30T20:9:18Z</time></trkpt>
<trkpt lat="46.17874" lon="7.21773"><ele></ele><time>2016-8-30T20:9:21Z</time></trkpt>
<trkpt lat="46.17876" lon="7.21786"><ele></ele><time>2016-8-30T20:9:24Z</time></trkpt>
<trkpt lat="46.1787" lon="7.21791"><ele></ele><time>2016-8-30T20:9:27Z</time></trkpt>
<trkpt lat="46.17867" lon="7.21793"><ele></ele><time>2016-8-30T20:9:30Z</time></trkpt>
<trkpt lat="46.17862" lon="7.21794"><ele></ele><time>2016-8-30T20:9:33Z</time></trkpt>
<trkpt lat="46.17853" lon="7.21795"><ele></ele><time>2016-8-30T20:9:36Z</time></trkpt>
<trkpt lat="46.17844" lon="7.21797"><ele></ele><time>2016-8-30T20:9:39Z</time></trkpt>
<trkpt lat="46.17834" lon="7.21798"><ele></ele><time>2016-8-30T20:9:42Z</time></trkpt>
<trkpt lat="46.17825" lon="7.218"><ele></ele><time>2016-8-30T20:9:45Z</time></trkpt>
<trkpt lat="46.1782" lon="7.218"><ele></ele><time>2016-8-30T20:9:48Z</time></trkpt>
<trkpt lat="46.17815" lon="7.21802"><ele></ele><time>2016-8-30T20:9:51Z</time></trkpt>
<trkpt lat="46.17805" lon="7.21804"><ele></ele><time>2016-8-30T20:9:54Z</time></trkpt>
<trkpt lat="46.17795" lon="7.21807"><ele></ele><time>2016-8-30T20:9:57Z</time></trkpt>
<trkpt lat="46.17784" lon="7.2181"><ele></ele><time>2016-8-30T20:10:0Z</time></trkpt>
<trkpt lat="46.17774" lon="7.21813"><ele></ele><time>2016-8-30T20:10:3Z</time></trkpt>
<trkpt lat="46.17763" lon="7.21821"><ele></ele><time>2016-8-30T20:10:6Z</time></trkpt>
<trkpt lat="46.17751" lon="7.2183"><ele></ele><time>2016-8-30T20:10:9Z</time></trkpt>
<trkpt lat="46.1774" lon="7.21838"><ele></ele><time>2016-8-30T20:10:12Z</time></trkpt>
<trkpt lat="46.17728" lon="7.21847"><ele></ele><time>2016-8-30T20:10:15Z</time></trkpt>
<trkpt lat="46.17716" lon="7.21863"><ele></ele><time>2016-8-30T20:10:18Z</time></trkpt>
<trkpt lat="46.17704" lon="7.21879"><ele></ele><time>2016-8-30T20:10:21Z</time></trkpt>
<trkpt lat="46.17691" lon="7.21896"><ele></ele><time>2016-8-30T20:10:24Z</time></trkpt>
<trkpt lat="46.17685" lon="7.21904"><ele></ele><time>2016-8-30T20:10:27Z</time></trkpt>
<trkpt lat="46.17679" lon="7.21912"><ele></ele><time>2016-8-30T20:10:30Z</time></trkpt>
<trkpt lat="46.17666" lon="7.21929"><ele></ele><time>2016-8-30T20:10:33Z</time></trkpt>
<trkpt lat="46.17653" lon="7.21945"><ele></ele><time>2016-8-30T20:10:36Z</time></trkpt>
<trkpt lat="46.17642" lon="7.2196"><ele></ele><time>2016-8-30T20:10:39Z</time></trkpt>
<trkpt lat="46.17631" lon="7.21975"><ele></ele><time>2016-8-30T20:10:42Z</time></trkpt>
<trkpt lat="46.1762" lon="7.2199"><ele></ele><time>2016-8-30T20:10:45Z</time></trkpt>
<trkpt lat="46.17615" lon="7.21997"><ele></ele><time>2016-8-30T20:10:48Z</time></trkpt>
<trkpt lat="46.17607" lon="7.22003"><ele></ele><time>2016-8-30T20:10:51Z</time></trkpt>
<trkpt lat="46.17598" lon="7.22017"><ele></ele><time>2016-8-30T20:10:54Z</time></trkpt>
<trkpt lat="46.17589" lon="7.22031"><ele></ele><time>2016-8-30T20:10:57Z</time></trkpt>
<trkpt lat="46.17584" lon="7.22038"><ele></ele><time>2016-8-30T20:11:0Z</time></trkpt>
<trkpt lat="46.1758" lon="7.22043"><ele></ele><time>2016-8-30T20:11:3Z</time></trkpt>
<trkpt lat="46.17573" lon="7.22052"><ele></ele><time>2016-8-30T20:11:6Z</time></trkpt>
<trkpt lat="46.17565" lon="7.22062"><ele></ele><time>2016-8-30T20:11:9Z</time></trkpt>
<trkpt lat="46.17557" lon="7.22071"><ele></ele><time>2016-8-30T20:11:12Z</time></trkpt>
<trkpt lat="46.17549" lon="7.22081"><ele></ele><time>2016-8-30T20:11:15Z</time></trkpt>
<trkpt lat="46.1754" lon="7.22084"><ele></ele><time>2016-8-30T20:11:18Z</time></trkpt>
<trkpt lat="46.17531" lon="7.22086"><ele></ele><time>2016-8-30T20:11:21Z</time></trkpt>
<trkpt lat="46.17522" lon="7.22089"><ele></ele><time>2016-8-30T20:11:24Z</time></trkpt>
<trkpt lat="46.17517" lon="7.2209"><ele></ele><time>2016-8-30T20:11:27Z</time></trkpt>
<trkpt lat="46.17513" lon="7.22087"><ele></ele><time>2016-8-30T20:11:30Z</time></trkpt>
<trkpt lat="46.17507" lon="7.22079"><ele></ele><time>2016-8-30T20:11:33Z</time></trkpt>
<trkpt lat="46.175" lon="7.22072"><ele></ele><time>2016-8-30T20:11:36Z</time></trkpt>
<trkpt lat="46.17494" lon="7.22064"><ele></ele><time>2016-8-30T20:11:39Z</time></trkpt>
<trkpt lat="46.17487" lon="7.22057"><ele></ele><time>2016-8-30T20:11:42Z</time></trkpt>
<trkpt lat="46.1748" lon="7.22049"><ele></ele><time>2016-8-30T20:11:45Z</time></trkpt>
<trkpt lat="46.17474" lon="7.2204"><ele></ele><time>2016-8-30T20:11:48Z</time></trkpt>
<trkpt lat="46.17468" lon="7.2203"><ele></ele><time>2016-8-30T20:11:51Z</time></trkpt>
<trkpt lat="46.17462" lon="7.2202"><ele></ele><time>2016-8-30T20:11:54Z</time></trkpt>
<trkpt lat="46.17457" lon="7.2201"><ele></ele><time>2016-8-30T20:11:57Z</time></trkpt>
<trkpt lat="46.17451" lon="7.22"><ele></ele><time>2016-8-30T20:12:0Z</time></trkpt>
<trkpt lat="46.17445" lon="7.21992"><ele></ele><time>2016-8-30T20:12:3Z</time></trkpt>
<trkpt lat="46.17442" lon="7.21988"><ele></ele><time>2016-8-30T20:12:6Z</time></trkpt>
<trkpt lat="46.17439" lon="7.21988"><ele></ele><time>2016-8-30T20:12:9Z</time></trkpt>
<trkpt lat="46.17435" lon="7.21988"><ele></ele><time>2016-8-30T20:12:12Z</time></trkpt>
<trkpt lat="46.17432" lon="7.21992"><ele></ele><time>2016-8-30T20:12:15Z</time></trkpt>
<trkpt lat="46.17426" lon="7.22001"><ele></ele><time>2016-8-30T20:12:18Z</time></trkpt>
<trkpt lat="46.1742" lon="7.2201"><ele></ele><time>2016-8-30T20:12:21Z</time></trkpt>
<trkpt lat="46.17414" lon="7.22019"><ele></ele><time>2016-8-30T20:12:24Z</time></trkpt>
<trkpt lat="46.17408" lon="7.22029"><ele></ele><time>2016-8-30T20:12:27Z</time></trkpt>
<trkpt lat="46.17405" lon="7.22036"><ele></ele><time>2016-8-30T20:12:30Z</time></trkpt>
<trkpt lat="46.17404" lon="7.2204"><ele></ele><time>2016-8-30T20:12:33Z</time></trkpt>
<trkpt lat="46.17402" lon="7.22043"><ele></ele><time>2016-8-30T20:12:36Z</time></trkpt>
<trkpt lat="46.174" lon="7.22051"><ele></ele><time>2016-8-30T20:12:39Z</time></trkpt>
<trkpt lat="46.17397" lon="7.22058"><ele></ele><time>2016-8-30T20:12:42Z</time></trkpt>
<trkpt lat="46.17394" lon="7.22065"><ele></ele><time>2016-8-30T20:12:45Z</time></trkpt>
<trkpt lat="46.17392" lon="7.22072"><ele></ele><time>2016-8-30T20:12:48Z</time></trkpt>
<trkpt lat="46.17389" lon="7.2208"><ele></ele><time>2016-8-30T20:12:51Z</time></trkpt>
<trkpt lat="46.17386" lon="7.22087"><ele></ele><time>2016-8-30T20:12:54Z</time></trkpt>
<trkpt lat="46.17384" lon="7.22093"><ele></ele><time>2016-8-30T20:12:57Z</time></trkpt>
<trkpt lat="46.17383" lon="7.22096"><ele></ele><time>2016-8-30T20:13:0Z</time></trkpt>
<trkpt lat="46.17382" lon="7.22099"><ele></ele><time>2016-8-30T20:13:3Z</time></trkpt>
<trkpt lat="46.1738" lon="7.22105"><ele></ele><time>2016-8-30T20:13:6Z</time></trkpt>
<trkpt lat="46.17378" lon="7.2211"><ele></ele><time>2016-8-30T20:13:9Z</time></trkpt>
<trkpt lat="46.17376" lon="7.22116"><ele></ele><time>2016-8-30T20:13:12Z</time></trkpt>
<trkpt lat="46.17374" lon="7.22122"><ele></ele><time>2016-8-30T20:13:15Z</time></trkpt>
<trkpt lat="46.17372" lon="7.22128"><ele></ele><time>2016-8-30T20:13:18Z</time></trkpt>
<trkpt lat="46.1737" lon="7.22134"><ele></ele><time>2016-8-30T20:13:21Z</time></trkpt>
<trkpt lat="46.17368" lon="7.2214"><ele></ele><time>2016-8-30T20:13:24Z</time></trkpt>
<trkpt lat="46.17366" lon="7.22146"><ele></ele><time>2016-8-30T20:13:27Z</time></trkpt>
<trkpt lat="46.17363" lon="7.22151"><ele></ele><time>2016-8-30T20:13:30Z</time></trkpt>
<trkpt lat="46.1736" lon="7.22157"><ele></ele><time>2016-8-30T20:13:33Z</time></trkpt>
<trkpt lat="46.17357" lon="7.22162"><ele></ele><time>2016-8-30T20:13:36Z</time></trkpt>
<trkpt lat="46.17355" lon="7.22167"><ele></ele><time>2016-8-30T20:13:39Z</time></trkpt>
<trkpt lat="46.17352" lon="7.22173"><ele></ele><time>2016-8-30T20:13:42Z</time></trkpt>
<trkpt lat="46.17349" lon="7.22178"><ele></ele><time>2016-8-30T20:13:45Z</time></trkpt>
<trkpt lat="46.17346" lon="7.22184"><ele></ele><time>2016-8-30T20:13:48Z</time></trkpt>
<trkpt lat="46.17344" lon="7.22189"><ele></ele><time>2016-8-30T20:13:51Z</time></trkpt>
<trkpt lat="46.17341" lon="7.22195"><ele></ele><time>2016-8-30T20:13:54Z</time></trkpt>
<trkpt lat="46.17338" lon="7.222"><ele></ele><time>2016-8-30T20:13:57Z</time></trkpt>
<trkpt lat="46.17335" lon="7.22205"><ele></ele><time>2016-8-30T20:14:0Z</time></trkpt>
<trkpt lat="46.17331" lon="7.2221"><ele></ele><time>2016-8-30T20:14:3Z</time></trkpt>
<trkpt lat="46.17328" lon="7.22215"><ele></ele><time>2016-8-30T20:14:6Z</time></trkpt>
<trkpt lat="46.17325" lon="7.2222"><ele></ele><time>2016-8-30T20:14:9Z</time></trkpt>
<trkpt lat="46.17321" lon="7.22225"><ele></ele><time>2016-8-30T20:14:12Z</time></trkpt>
<trkpt lat="46.17318" lon="7.2223"><ele></ele><time>2016-8-30T20:14:15Z</time></trkpt>
<trkpt lat="46.17315" lon="7.22235"><ele></ele><time>2016-8-30T20:14:18Z</time></trkpt>
<trkpt lat="46.17312" lon="7.2224"><ele></ele><time>2016-8-30T20:14:21Z</time></trkpt>
<trkpt lat="46.17308" lon="7.22245"><ele></ele><time>2016-8-30T20:14:24Z</time></trkpt>
<trkpt lat="46.17307" lon="7.22248"><ele></ele><time>2016-8-30T20:14:27Z</time></trkpt>
<trkpt lat="46.17305" lon="7.2225"><ele></ele><time>2016-8-30T20:14:30Z</time></trkpt>
<trkpt lat="46.17301" lon="7.22254"><ele></ele><time>2016-8-30T20:14:33Z</time></trkpt>
<trkpt lat="46.17298" lon="7.22258"><ele></ele><time>2016-8-30T20:14:36Z</time></trkpt>
<trkpt lat="46.17294" lon="7.22263"><ele></ele><time>2016-8-30T20:14:39Z</time></trkpt>
<trkpt lat="46.17291" lon="7.22267"><ele></ele><time>2016-8-30T20:14:42Z</time></trkpt>
<trkpt lat="46.17287" lon="7.22271"><ele></ele><time>2016-8-30T20:14:45Z</time></trkpt>
<trkpt lat="46.17284" lon="7.22275"><ele></ele><time>2016-8-30T20:14:48Z</time></trkpt>
<trkpt lat="46.1728" lon="7.2228"><ele></ele><time>2016-8-30T20:14:51Z</time></trkpt>
<trkpt lat="46.17277" lon="7.22284"><ele></ele><time>2016-8-30T20:14:54Z</time></trkpt>
<trkpt lat="46.17273" lon="7.22288"><ele></ele><time>2016-8-30T20:14:57Z</time></trkpt>
<trkpt lat="46.17271" lon="7.2229"><ele></ele><time>2016-8-30T20:15:0Z</time></trkpt>
<trkpt lat="46.1727" lon="7.22293"><ele></ele><time>2016-8-30T20:15:3Z</time></trkpt>
<trkpt lat="46.17266" lon="7.22299"><ele></ele><time>2016-8-30T20:15:6Z</time></trkpt>
<trkpt lat="46.17263" lon="7.22304"><ele></ele><time>2016-8-30T20:15:9Z</time></trkpt>
<trkpt lat="46.1726" lon="7.2231"><ele></ele><time>2016-8-30T20:15:12Z</time></trkpt>
<trkpt lat="46.17257" lon="7.22316"><ele></ele><time>2016-8-30T20:15:15Z</time></trkpt>
<trkpt lat="46.17253" lon="7.22321"><ele></ele><time>2016-8-30T20:15:18Z</time></trkpt>
<trkpt lat="46.17252" lon="7.22324"><ele></ele><time>2016-8-30T20:15:21Z</time></trkpt>
<trkpt lat="46.1725" lon="7.22327"><ele></ele><time>2016-8-30T20:15:24Z</time></trkpt>
<trkpt lat="46.17247" lon="7.22333"><ele></ele><time>2016-8-30T20:15:27Z</time></trkpt>
<trkpt lat="46.17244" lon="7.22339"><ele></ele><time>2016-8-30T20:15:30Z</time></trkpt>
<trkpt lat="46.17242" lon="7.22341"><ele></ele><time>2016-8-30T20:15:33Z</time></trkpt>
<trkpt lat="46.1724" lon="7.22344"><ele></ele><time>2016-8-30T20:15:36Z</time></trkpt>
<trkpt lat="46.17237" lon="7.22349"><ele></ele><time>2016-8-30T20:15:39Z</time></trkpt>
<trkpt lat="46.17234" lon="7.22355"><ele></ele><time>2016-8-30T20:15:42Z</time></trkpt>
<trkpt lat="46.17231" lon="7.2236"><ele></ele><time>2016-8-30T20:15:45Z</time></trkpt>
<trkpt lat="46.17228" lon="7.22365"><ele></ele><time>2016-8-30T20:15:48Z</time></trkpt>
<trkpt lat="46.17226" lon="7.22368"><ele></ele><time>2016-8-30T20:15:51Z</time></trkpt>
<trkpt lat="46.17223" lon="7.22366"><ele></ele><time>2016-8-30T20:15:54Z</time></trkpt>
<trkpt lat="46.17216" lon="7.22361"><ele></ele><time>2016-8-30T20:15:57Z</time></trkpt>
<trkpt lat="46.1721" lon="7.22356"><ele></ele><time>2016-8-30T20:16:0Z</time></trkpt>
<trkpt lat="46.17203" lon="7.22351"><ele></ele><time>2016-8-30T20:16:3Z</time></trkpt>
<trkpt lat="46.17196" lon="7.22345"><ele></ele><time>2016-8-30T20:16:6Z</time></trkpt>
<trkpt lat="46.1719" lon="7.2234"><ele></ele><time>2016-8-30T20:16:9Z</time></trkpt>
<trkpt lat="46.17183" lon="7.22335"><ele></ele><time>2016-8-30T20:16:12Z</time></trkpt>
<trkpt lat="46.17175" lon="7.22329"><ele></ele><time>2016-8-30T20:16:15Z</time></trkpt>
<trkpt lat="46.17167" lon="7.22323"><ele></ele><time>2016-8-30T20:16:18Z</time></trkpt>
<trkpt lat="46.17159" lon="7.22316"><ele></ele><time>2016-8-30T20:16:21Z</time></trkpt>
<trkpt lat="46.17151" lon="7.2231"><ele></ele><time>2016-8-30T20:16:24Z</time></trkpt>
<trkpt lat="46.17148" lon="7.22315"><ele></ele><time>2016-8-30T20:16:27Z</time></trkpt>
<trkpt lat="46.17145" lon="7.2232"><ele></ele><time>2016-8-30T20:16:30Z</time></trkpt>
<trkpt lat="46.17143" lon="7.22322"><ele></ele><time>2016-8-30T20:16:33Z</time></trkpt>
<trkpt lat="46.17142" lon="7.22324"><ele></ele><time>2016-8-30T20:16:36Z</time></trkpt>
<trkpt lat="46.1714" lon="7.22328"><ele></ele><time>2016-8-30T20:16:39Z</time></trkpt>
<trkpt lat="46.17138" lon="7.22331"><ele></ele><time>2016-8-30T20:16:42Z</time></trkpt>
<trkpt lat="46.17136" lon="7.22335"><ele></ele><time>2016-8-30T20:16:45Z</time></trkpt>
<trkpt lat="46.17135" lon="7.22339"><ele></ele><time>2016-8-30T20:16:48Z</time></trkpt>
<trkpt lat="46.17133" lon="7.22342"><ele></ele><time>2016-8-30T20:16:51Z</time></trkpt>
<trkpt lat="46.17131" lon="7.22346"><ele></ele><time>2016-8-30T20:16:54Z</time></trkpt>
<trkpt lat="46.17129" lon="7.22349"><ele></ele><time>2016-8-30T20:16:57Z</time></trkpt>
<trkpt lat="46.17127" lon="7.22353"><ele></ele><time>2016-8-30T20:17:0Z</time></trkpt>
<trkpt lat="46.17126" lon="7.22355"><ele></ele><time>2016-8-30T20:17:3Z</time></trkpt>
<trkpt lat="46.17125" lon="7.22356"><ele></ele><time>2016-8-30T20:17:6Z</time></trkpt>
<trkpt lat="46.17123" lon="7.2236"><ele></ele><time>2016-8-30T20:17:9Z</time></trkpt>
<trkpt lat="46.17121" lon="7.22364"><ele></ele><time>2016-8-30T20:17:12Z</time></trkpt>
<trkpt lat="46.17119" lon="7.22367"><ele></ele><time>2016-8-30T20:17:15Z</time></trkpt>
<trkpt lat="46.17117" lon="7.22371"><ele></ele><time>2016-8-30T20:17:18Z</time></trkpt>
<trkpt lat="46.17116" lon="7.22374"><ele></ele><time>2016-8-30T20:17:21Z</time></trkpt>
<trkpt lat="46.17111" lon="7.22373"><ele></ele><time>2016-8-30T20:17:24Z</time></trkpt>
<trkpt lat="46.17106" lon="7.22371"><ele></ele><time>2016-8-30T20:17:27Z</time></trkpt>
<trkpt lat="46.171" lon="7.22369"><ele></ele><time>2016-8-30T20:17:30Z</time></trkpt>
<trkpt lat="46.17095" lon="7.22367"><ele></ele><time>2016-8-30T20:17:33Z</time></trkpt>
<trkpt lat="46.1709" lon="7.22365"><ele></ele><time>2016-8-30T20:17:36Z</time></trkpt>
<trkpt lat="46.17085" lon="7.22363"><ele></ele><time>2016-8-30T20:17:39Z</time></trkpt>
<trkpt lat="46.1708" lon="7.22361"><ele></ele><time>2016-8-30T20:17:42Z</time></trkpt>
<trkpt lat="46.17075" lon="7.22359"><ele></ele><time>2016-8-30T20:17:45Z</time></trkpt>
<trkpt lat="46.1707" lon="7.22358"><ele></ele><time>2016-8-30T20:17:48Z</time></trkpt>
<trkpt lat="46.17063" lon="7.22355"><ele></ele><time>2016-8-30T20:17:51Z</time></trkpt>
<trkpt lat="46.1706" lon="7.22354"><ele></ele><time>2016-8-30T20:17:54Z</time></trkpt>
<trkpt lat="46.17057" lon="7.22352"><ele></ele><time>2016-8-30T20:17:57Z</time></trkpt>
<trkpt lat="46.1705" lon="7.2235"><ele></ele><time>2016-8-30T20:18:0Z</time></trkpt>
<trkpt lat="46.17044" lon="7.22347"><ele></ele><time>2016-8-30T20:18:3Z</time></trkpt>
<trkpt lat="46.17037" lon="7.22345"><ele></ele><time>2016-8-30T20:18:6Z</time></trkpt>
<trkpt lat="46.17034" lon="7.22344"><ele></ele><time>2016-8-30T20:18:9Z</time></trkpt>
<trkpt lat="46.17029" lon="7.22344"><ele></ele><time>2016-8-30T20:18:12Z</time></trkpt>
<trkpt lat="46.17018" lon="7.22345"><ele></ele><time>2016-8-30T20:18:15Z</time></trkpt>
<trkpt lat="46.17007" lon="7.22345"><ele></ele><time>2016-8-30T20:18:18Z</time></trkpt>
<trkpt lat="46.16996" lon="7.22346"><ele></ele><time>2016-8-30T20:18:21Z</time></trkpt>
<trkpt lat="46.16985" lon="7.22347"><ele></ele><time>2016-8-30T20:18:24Z</time></trkpt>
<trkpt lat="46.16972" lon="7.22347"><ele></ele><time>2016-8-30T20:18:27Z</time></trkpt>
<trkpt lat="46.1696" lon="7.22346"><ele></ele><time>2016-8-30T20:18:30Z</time></trkpt>
<trkpt lat="46.16948" lon="7.22345"><ele></ele><time>2016-8-30T20:18:33Z</time></trkpt>
<trkpt lat="46.16936" lon="7.22345"><ele></ele><time>2016-8-30T20:18:36Z</time></trkpt>
<trkpt lat="46.16925" lon="7.22341"><ele></ele><time>2016-8-30T20:18:39Z</time></trkpt>
<trkpt lat="46.1692" lon="7.22338"><ele></ele><time>2016-8-30T20:18:42Z</time></trkpt>
<trkpt lat="46.16914" lon="7.22336"><ele></ele><time>2016-8-30T20:18:45Z</time></trkpt>
<trkpt lat="46.16903" lon="7.22331"><ele></ele><time>2016-8-30T20:18:48Z</time></trkpt>
<trkpt lat="46.16892" lon="7.22327"><ele></ele><time>2016-8-30T20:18:51Z</time></trkpt>
<trkpt lat="46.16881" lon="7.22321"><ele></ele><time>2016-8-30T20:18:54Z</time></trkpt>
<trkpt lat="46.1687" lon="7.22315"><ele></ele><time>2016-8-30T20:18:57Z</time></trkpt>
<trkpt lat="46.16861" lon="7.22299"><ele></ele><time>2016-8-30T20:19:0Z</time></trkpt>
<trkpt lat="46.16856" lon="7.2228"><ele></ele><time>2016-8-30T20:19:3Z</time></trkpt>
<trkpt lat="46.16854" lon="7.22271"><ele></ele><time>2016-8-30T20:19:6Z</time></trkpt>
<trkpt lat="46.16851" lon="7.22264"><ele></ele><time>2016-8-30T20:19:9Z</time></trkpt>
<trkpt lat="46.16846" lon="7.22261"><ele></ele><time>2016-8-30T20:19:12Z</time></trkpt>
<trkpt lat="46.1684" lon="7.22261"><ele></ele><time>2016-8-30T20:19:15Z</time></trkpt>
<trkpt lat="46.16832" lon="7.22271"><ele></ele><time>2016-8-30T20:19:18Z</time></trkpt>
<trkpt lat="46.16824" lon="7.22282"><ele></ele><time>2016-8-30T20:19:21Z</time></trkpt>
<trkpt lat="46.16816" lon="7.22293"><ele></ele><time>2016-8-30T20:19:24Z</time></trkpt>
<trkpt lat="46.16808" lon="7.22304"><ele></ele><time>2016-8-30T20:19:27Z</time></trkpt>
<trkpt lat="46.16804" lon="7.22309"><ele></ele><time>2016-8-30T20:19:30Z</time></trkpt>
<trkpt lat="46.168" lon="7.22314"><ele></ele><time>2016-8-30T20:19:33Z</time></trkpt>
<trkpt lat="46.16796" lon="7.22319"><ele></ele><time>2016-8-30T20:19:36Z</time></trkpt>
<trkpt lat="46.16793" lon="7.22324"><ele></ele><time>2016-8-30T20:19:39Z</time></trkpt>
<trkpt lat="46.16785" lon="7.22334"><ele></ele><time>2016-8-30T20:19:42Z</time></trkpt>
<trkpt lat="46.16778" lon="7.22344"><ele></ele><time>2016-8-30T20:19:45Z</time></trkpt>
<trkpt lat="46.1677" lon="7.22354"><ele></ele><time>2016-8-30T20:19:48Z</time></trkpt>
<trkpt lat="46.16764" lon="7.22364"><ele></ele><time>2016-8-30T20:19:51Z</time></trkpt>
<trkpt lat="46.16759" lon="7.22374"><ele></ele><time>2016-8-30T20:19:54Z</time></trkpt>
<trkpt lat="46.16756" lon="7.22379"><ele></ele><time>2016-8-30T20:19:57Z</time></trkpt>
<trkpt lat="46.16753" lon="7.22384"><ele></ele><time>2016-8-30T20:20:0Z</time></trkpt>
<trkpt lat="46.16746" lon="7.22391"><ele></ele><time>2016-8-30T20:20:3Z</time></trkpt>
<trkpt lat="46.16739" lon="7.22398"><ele></ele><time>2016-8-30T20:20:6Z</time></trkpt>
<trkpt lat="46.16735" lon="7.22401"><ele></ele><time>2016-8-30T20:20:9Z</time></trkpt>
<trkpt lat="46.16731" lon="7.22404"><ele></ele><time>2016-8-30T20:20:12Z</time></trkpt>
<trkpt lat="46.16724" lon="7.22411"><ele></ele><time>2016-8-30T20:20:15Z</time></trkpt>
<trkpt lat="46.16721" lon="7.22415"><ele></ele><time>2016-8-30T20:20:18Z</time></trkpt>
<trkpt lat="46.16719" lon="7.22415"><ele></ele><time>2016-8-30T20:20:21Z</time></trkpt>
<trkpt lat="46.16715" lon="7.22413"><ele></ele><time>2016-8-30T20:20:24Z</time></trkpt>
<trkpt lat="46.16711" lon="7.22411"><ele></ele><time>2016-8-30T20:20:27Z</time></trkpt>
<trkpt lat="46.16707" lon="7.22409"><ele></ele><time>2016-8-30T20:20:30Z</time></trkpt>
<trkpt lat="46.16703" lon="7.22408"><ele></ele><time>2016-8-30T20:20:33Z</time></trkpt>
<trkpt lat="46.167" lon="7.22406"><ele></ele><time>2016-8-30T20:20:36Z</time></trkpt>
<trkpt lat="46.16696" lon="7.22404"><ele></ele><time>2016-8-30T20:20:39Z</time></trkpt>
<trkpt lat="46.16692" lon="7.22402"><ele></ele><time>2016-8-30T20:20:42Z</time></trkpt>
<trkpt lat="46.16688" lon="7.22401"><ele></ele><time>2016-8-30T20:20:45Z</time></trkpt>
<trkpt lat="46.16684" lon="7.22399"><ele></ele><time>2016-8-30T20:20:48Z</time></trkpt>
<trkpt lat="46.1668" lon="7.22397"><ele></ele><time>2016-8-30T20:20:51Z</time></trkpt>
<trkpt lat="46.16677" lon="7.22395"><ele></ele><time>2016-8-30T20:20:54Z</time></trkpt>
<trkpt lat="46.16673" lon="7.22394"><ele></ele><time>2016-8-30T20:20:57Z</time></trkpt>
<trkpt lat="46.1667" lon="7.22392"><ele></ele><time>2016-8-30T20:21:0Z</time></trkpt>
<trkpt lat="46.16667" lon="7.22391"><ele></ele><time>2016-8-30T20:21:3Z</time></trkpt>
<trkpt lat="46.16664" lon="7.22389"><ele></ele><time>2016-8-30T20:21:6Z</time></trkpt>
<trkpt lat="46.16661" lon="7.22388"><ele></ele><time>2016-8-30T20:21:9Z</time></trkpt>
<trkpt lat="46.16658" lon="7.22386"><ele></ele><time>2016-8-30T20:21:12Z</time></trkpt>
<trkpt lat="46.16654" lon="7.22385"><ele></ele><time>2016-8-30T20:21:15Z</time></trkpt>
<trkpt lat="46.16651" lon="7.22383"><ele></ele><time>2016-8-30T20:21:18Z</time></trkpt>
<trkpt lat="46.16648" lon="7.22382"><ele></ele><time>2016-8-30T20:21:21Z</time></trkpt>
<trkpt lat="46.16645" lon="7.2238"><ele></ele><time>2016-8-30T20:21:24Z</time></trkpt>
<trkpt lat="46.16642" lon="7.22379"><ele></ele><time>2016-8-30T20:21:27Z</time></trkpt>
<trkpt lat="46.16638" lon="7.22377"><ele></ele><time>2016-8-30T20:21:30Z</time></trkpt>
<trkpt lat="46.16635" lon="7.22376"><ele></ele><time>2016-8-30T20:21:33Z</time></trkpt>
<trkpt lat="46.16632" lon="7.22375"><ele></ele><time>2016-8-30T20:21:36Z</time></trkpt>
<trkpt lat="46.16629" lon="7.22372"><ele></ele><time>2016-8-30T20:21:39Z</time></trkpt>
<trkpt lat="46.16627" lon="7.22369"><ele></ele><time>2016-8-30T20:21:42Z</time></trkpt>
<trkpt lat="46.16625" lon="7.22367"><ele></ele><time>2016-8-30T20:21:45Z</time></trkpt>
<trkpt lat="46.16622" lon="7.22364"><ele></ele><time>2016-8-30T20:21:48Z</time></trkpt>
<trkpt lat="46.1662" lon="7.22361"><ele></ele><time>2016-8-30T20:21:51Z</time></trkpt>
<trkpt lat="46.16617" lon="7.22359"><ele></ele><time>2016-8-30T20:21:54Z</time></trkpt>
<trkpt lat="46.16615" lon="7.22356"><ele></ele><time>2016-8-30T20:21:57Z</time></trkpt>
<trkpt lat="46.16612" lon="7.22353"><ele></ele><time>2016-8-30T20:22:0Z</time></trkpt>
<trkpt lat="46.1661" lon="7.22351"><ele></ele><time>2016-8-30T20:22:3Z</time></trkpt>
<trkpt lat="46.16607" lon="7.22348"><ele></ele><time>2016-8-30T20:22:6Z</time></trkpt>
<trkpt lat="46.16606" lon="7.22347"><ele></ele><time>2016-8-30T20:22:9Z</time></trkpt>
<trkpt lat="46.16605" lon="7.22346"><ele></ele><time>2016-8-30T20:22:12Z</time></trkpt>
<trkpt lat="46.16602" lon="7.22343"><ele></ele><time>2016-8-30T20:22:15Z</time></trkpt>
<trkpt lat="46.166" lon="7.2234"><ele></ele><time>2016-8-30T20:22:18Z</time></trkpt>
<trkpt lat="46.16597" lon="7.22338"><ele></ele><time>2016-8-30T20:22:21Z</time></trkpt>
<trkpt lat="46.16595" lon="7.22335"><ele></ele><time>2016-8-30T20:22:24Z</time></trkpt>
<trkpt lat="46.16592" lon="7.22331"><ele></ele><time>2016-8-30T20:22:27Z</time></trkpt>
<trkpt lat="46.16589" lon="7.22328"><ele></ele><time>2016-8-30T20:22:30Z</time></trkpt>
<trkpt lat="46.16586" lon="7.22324"><ele></ele><time>2016-8-30T20:22:33Z</time></trkpt>
<trkpt lat="46.16583" lon="7.22321"><ele></ele><time>2016-8-30T20:22:36Z</time></trkpt>
<trkpt lat="46.1658" lon="7.22317"><ele></ele><time>2016-8-30T20:22:39Z</time></trkpt>
<trkpt lat="46.16577" lon="7.22314"><ele></ele><time>2016-8-30T20:22:42Z</time></trkpt>
<trkpt lat="46.16574" lon="7.2231"><ele></ele><time>2016-8-30T20:22:45Z</time></trkpt>
<trkpt lat="46.16571" lon="7.22306"><ele></ele><time>2016-8-30T20:22:48Z</time></trkpt>
<trkpt lat="46.16568" lon="7.22303"><ele></ele><time>2016-8-30T20:22:51Z</time></trkpt>
<trkpt lat="46.16565" lon="7.22299"><ele></ele><time>2016-8-30T20:22:54Z</time></trkpt>
<trkpt lat="46.16562" lon="7.22296"><ele></ele><time>2016-8-30T20:22:57Z</time></trkpt>
<trkpt lat="46.1656" lon="7.22292"><ele></ele><time>2016-8-30T20:23:0Z</time></trkpt>
<trkpt lat="46.16556" lon="7.22289"><ele></ele><time>2016-8-30T20:23:3Z</time></trkpt>
<trkpt lat="46.16553" lon="7.22286"><ele></ele><time>2016-8-30T20:23:6Z</time></trkpt>
<trkpt lat="46.16549" lon="7.22283"><ele></ele><time>2016-8-30T20:23:9Z</time></trkpt>
<trkpt lat="46.16546" lon="7.2228"><ele></ele><time>2016-8-30T20:23:12Z</time></trkpt>
<trkpt lat="46.16542" lon="7.22277"><ele></ele><time>2016-8-30T20:23:15Z</time></trkpt>
<trkpt lat="46.16539" lon="7.22275"><ele></ele><time>2016-8-30T20:23:18Z</time></trkpt>
<trkpt lat="46.16535" lon="7.22272"><ele></ele><time>2016-8-30T20:23:21Z</time></trkpt>
<trkpt lat="46.16532" lon="7.22269"><ele></ele><time>2016-8-30T20:23:24Z</time></trkpt>
<trkpt lat="46.16528" lon="7.22266"><ele></ele><time>2016-8-30T20:23:27Z</time></trkpt>
<trkpt lat="46.16525" lon="7.22263"><ele></ele><time>2016-8-30T20:23:30Z</time></trkpt>
<trkpt lat="46.16521" lon="7.2226"><ele></ele><time>2016-8-30T20:23:33Z</time></trkpt>
<trkpt lat="46.16519" lon="7.22258"><ele></ele><time>2016-8-30T20:23:36Z</time></trkpt>
<trkpt lat="46.16518" lon="7.22257"><ele></ele><time>2016-8-30T20:23:39Z</time></trkpt>
<trkpt lat="46.16514" lon="7.22254"><ele></ele><time>2016-8-30T20:23:42Z</time></trkpt>
<trkpt lat="46.16511" lon="7.22251"><ele></ele><time>2016-8-30T20:23:45Z</time></trkpt>
<trkpt lat="46.16508" lon="7.22247"><ele></ele><time>2016-8-30T20:23:48Z</time></trkpt>
<trkpt lat="46.16504" lon="7.22244"><ele></ele><time>2016-8-30T20:23:51Z</time></trkpt>
<trkpt lat="46.16501" lon="7.22241"><ele></ele><time>2016-8-30T20:23:54Z</time></trkpt>
<trkpt lat="46.16498" lon="7.22238"><ele></ele><time>2016-8-30T20:23:57Z</time></trkpt>
<trkpt lat="46.16494" lon="7.22235"><ele></ele><time>2016-8-30T20:24:0Z</time></trkpt>
<trkpt lat="46.16491" lon="7.22232"><ele></ele><time>2016-8-30T20:24:3Z</time></trkpt>
<trkpt lat="46.16488" lon="7.22229"><ele></ele><time>2016-8-30T20:24:6Z</time></trkpt>
<trkpt lat="46.16484" lon="7.22225"><ele></ele><time>2016-8-30T20:24:9Z</time></trkpt>
<trkpt lat="46.16481" lon="7.22222"><ele></ele><time>2016-8-30T20:24:12Z</time></trkpt>
<trkpt lat="46.16479" lon="7.22219"><ele></ele><time>2016-8-30T20:24:15Z</time></trkpt>
<trkpt lat="46.16476" lon="7.22215"><ele></ele><time>2016-8-30T20:24:18Z</time></trkpt>
<trkpt lat="46.16474" lon="7.22211"><ele></ele><time>2016-8-30T20:24:21Z</time></trkpt>
<trkpt lat="46.16471" lon="7.22207"><ele></ele><time>2016-8-30T20:24:24Z</time></trkpt>
<trkpt lat="46.16469" lon="7.22203"><ele></ele><time>2016-8-30T20:24:27Z</time></trkpt>
<trkpt lat="46.16466" lon="7.22199"><ele></ele><time>2016-8-30T20:24:30Z</time></trkpt>
<trkpt lat="46.16464" lon="7.22195"><ele></ele><time>2016-8-30T20:24:33Z</time></trkpt>
<trkpt lat="46.16461" lon="7.22191"><ele></ele><time>2016-8-30T20:24:36Z</time></trkpt>
<trkpt lat="46.16459" lon="7.22188"><ele></ele><time>2016-8-30T20:24:39Z</time></trkpt>
<trkpt lat="46.16456" lon="7.22184"><ele></ele><time>2016-8-30T20:24:42Z</time></trkpt>
<trkpt lat="46.16454" lon="7.2218"><ele></ele><time>2016-8-30T20:24:45Z</time></trkpt>
<trkpt lat="46.16451" lon="7.22176"><ele></ele><time>2016-8-30T20:24:48Z</time></trkpt>
<trkpt lat="46.1645" lon="7.22174"><ele></ele><time>2016-8-30T20:24:51Z</time></trkpt>
<trkpt lat="46.16449" lon="7.22172"><ele></ele><time>2016-8-30T20:24:54Z</time></trkpt>
<trkpt lat="46.16445" lon="7.22169"><ele></ele><time>2016-8-30T20:24:57Z</time></trkpt>
<trkpt lat="46.16442" lon="7.22166"><ele></ele><time>2016-8-30T20:25:0Z</time></trkpt>
<trkpt lat="46.1644" lon="7.22165"><ele></ele><time>2016-8-30T20:25:3Z</time></trkpt>
<trkpt lat="46.16439" lon="7.22163"><ele></ele><time>2016-8-30T20:25:6Z</time></trkpt>
<trkpt lat="46.16435" lon="7.2216"><ele></ele><time>2016-8-30T20:25:9Z</time></trkpt>
<trkpt lat="46.16432" lon="7.22157"><ele></ele><time>2016-8-30T20:25:12Z</time></trkpt>
<trkpt lat="46.16429" lon="7.22154"><ele></ele><time>2016-8-30T20:25:15Z</time></trkpt>
<trkpt lat="46.16425" lon="7.22151"><ele></ele><time>2016-8-30T20:25:18Z</time></trkpt>
<trkpt lat="46.16422" lon="7.22147"><ele></ele><time>2016-8-30T20:25:21Z</time></trkpt>
<trkpt lat="46.16419" lon="7.22144"><ele></ele><time>2016-8-30T20:25:24Z</time></trkpt>
<trkpt lat="46.16415" lon="7.22141"><ele></ele><time>2016-8-30T20:25:27Z</time></trkpt>
<trkpt lat="46.16412" lon="7.22138"><ele></ele><time>2016-8-30T20:25:30Z</time></trkpt>
<trkpt lat="46.16409" lon="7.22134"><ele></ele><time>2016-8-30T20:25:33Z</time></trkpt>
<trkpt lat="46.16407" lon="7.2213"><ele></ele><time>2016-8-30T20:25:36Z</time></trkpt>
<trkpt lat="46.16406" lon="7.22128"><ele></ele><time>2016-8-30T20:25:39Z</time></trkpt>
<trkpt lat="46.16405" lon="7.22126"><ele></ele><time>2016-8-30T20:25:42Z</time></trkpt>
<trkpt lat="46.16402" lon="7.22122"><ele></ele><time>2016-8-30T20:25:45Z</time></trkpt>
<trkpt lat="46.164" lon="7.22118"><ele></ele><time>2016-8-30T20:25:48Z</time></trkpt>
<trkpt lat="46.16397" lon="7.22113"><ele></ele><time>2016-8-30T20:25:51Z</time></trkpt>
<trkpt lat="46.16395" lon="7.22109"><ele></ele><time>2016-8-30T20:25:54Z</time></trkpt>
<trkpt lat="46.16392" lon="7.22105"><ele></ele><time>2016-8-30T20:25:57Z</time></trkpt>
<trkpt lat="46.1639" lon="7.22101"><ele></ele><time>2016-8-30T20:26:0Z</time></trkpt>
<trkpt lat="46.16388" lon="7.22097"><ele></ele><time>2016-8-30T20:26:3Z</time></trkpt>
<trkpt lat="46.16385" lon="7.22093"><ele></ele><time>2016-8-30T20:26:6Z</time></trkpt>
<trkpt lat="46.16383" lon="7.22089"><ele></ele><time>2016-8-30T20:26:9Z</time></trkpt>
<trkpt lat="46.16382" lon="7.22087"><ele></ele><time>2016-8-30T20:26:12Z</time></trkpt>
<trkpt lat="46.1638" lon="7.22085"><ele></ele><time>2016-8-30T20:26:15Z</time></trkpt>
<trkpt lat="46.16376" lon="7.22083"><ele></ele><time>2016-8-30T20:26:18Z</time></trkpt>
<trkpt lat="46.16373" lon="7.22081"><ele></ele><time>2016-8-30T20:26:21Z</time></trkpt>
<trkpt lat="46.16369" lon="7.22079"><ele></ele><time>2016-8-30T20:26:24Z</time></trkpt>
<trkpt lat="46.16366" lon="7.22076"><ele></ele><time>2016-8-30T20:26:27Z</time></trkpt>
<trkpt lat="46.16362" lon="7.22074"><ele></ele><time>2016-8-30T20:26:30Z</time></trkpt>
<trkpt lat="46.16359" lon="7.22072"><ele></ele><time>2016-8-30T20:26:33Z</time></trkpt>
<trkpt lat="46.16355" lon="7.2207"><ele></ele><time>2016-8-30T20:26:36Z</time></trkpt>
<trkpt lat="46.16352" lon="7.22068"><ele></ele><time>2016-8-30T20:26:39Z</time></trkpt>
<trkpt lat="46.16348" lon="7.22065"><ele></ele><time>2016-8-30T20:26:42Z</time></trkpt>
<trkpt lat="46.16345" lon="7.22063"><ele></ele><time>2016-8-30T20:26:45Z</time></trkpt>
<trkpt lat="46.16343" lon="7.22062"><ele></ele><time>2016-8-30T20:26:48Z</time></trkpt>
<trkpt lat="46.16341" lon="7.22061"><ele></ele><time>2016-8-30T20:26:51Z</time></trkpt>
<trkpt lat="46.1634" lon="7.2206"><ele></ele><time>2016-8-30T20:26:54Z</time></trkpt>
<trkpt lat="46.16338" lon="7.22059"><ele></ele><time>2016-8-30T20:26:57Z</time></trkpt>
<trkpt lat="46.16335" lon="7.22058"><ele></ele><time>2016-8-30T20:27:0Z</time></trkpt>
<trkpt lat="46.16331" lon="7.22057"><ele></ele><time>2016-8-30T20:27:3Z</time></trkpt>
<trkpt lat="46.16328" lon="7.22055"><ele></ele><time>2016-8-30T20:27:6Z</time></trkpt>
<trkpt lat="46.16324" lon="7.22054"><ele></ele><time>2016-8-30T20:27:9Z</time></trkpt>
<trkpt lat="46.16321" lon="7.22053"><ele></ele><time>2016-8-30T20:27:12Z</time></trkpt>
<trkpt lat="46.16318" lon="7.22052"><ele></ele><time>2016-8-30T20:27:15Z</time></trkpt>
<trkpt lat="46.16314" lon="7.2205"><ele></ele><time>2016-8-30T20:27:18Z</time></trkpt>
<trkpt lat="46.16311" lon="7.22049"><ele></ele><time>2016-8-30T20:27:21Z</time></trkpt>
<trkpt lat="46.16307" lon="7.22048"><ele></ele><time>2016-8-30T20:27:24Z</time></trkpt>
<trkpt lat="46.16306" lon="7.22047"><ele></ele><time>2016-8-30T20:27:27Z</time></trkpt>
<trkpt lat="46.16304" lon="7.22047"><ele></ele><time>2016-8-30T20:27:30Z</time></trkpt>
<trkpt lat="46.16301" lon="7.22045"><ele></ele><time>2016-8-30T20:27:33Z</time></trkpt>
<trkpt lat="46.16297" lon="7.22044"><ele></ele><time>2016-8-30T20:27:36Z</time></trkpt>
<trkpt lat="46.16295" lon="7.22043"><ele></ele><time>2016-8-30T20:27:39Z</time></trkpt>
<trkpt lat="46.16294" lon="7.22043"><ele></ele><time>2016-8-30T20:27:42Z</time></trkpt>
<trkpt lat="46.1629" lon="7.22042"><ele></ele><time>2016-8-30T20:27:45Z</time></trkpt>
<trkpt lat="46.16286" lon="7.22041"><ele></ele><time>2016-8-30T20:27:48Z</time></trkpt>
<trkpt lat="46.16282" lon="7.2204"><ele></ele><time>2016-8-30T20:27:51Z</time></trkpt>
<trkpt lat="46.16279" lon="7.22039"><ele></ele><time>2016-8-30T20:27:54Z</time></trkpt>
<trkpt lat="46.16275" lon="7.22038"><ele></ele><time>2016-8-30T20:27:57Z</time></trkpt>
<trkpt lat="46.16271" lon="7.22037"><ele></ele><time>2016-8-30T20:28:0Z</time></trkpt>
<trkpt lat="46.16268" lon="7.22036"><ele></ele><time>2016-8-30T20:28:3Z</time></trkpt>
<trkpt lat="46.16264" lon="7.22034"><ele></ele><time>2016-8-30T20:28:6Z</time></trkpt>
<trkpt lat="46.1626" lon="7.22033"><ele></ele><time>2016-8-30T20:28:9Z</time></trkpt>
<trkpt lat="46.16257" lon="7.22032"><ele></ele><time>2016-8-30T20:28:12Z</time></trkpt>
<trkpt lat="46.16253" lon="7.22031"><ele></ele><time>2016-8-30T20:28:15Z</time></trkpt>
<trkpt lat="46.16251" lon="7.22031"><ele></ele><time>2016-8-30T20:28:18Z</time></trkpt>
<trkpt lat="46.16249" lon="7.2203"><ele></ele><time>2016-8-30T20:28:21Z</time></trkpt>
<trkpt lat="46.16246" lon="7.22028"><ele></ele><time>2016-8-30T20:28:24Z</time></trkpt>
<trkpt lat="46.16243" lon="7.22025"><ele></ele><time>2016-8-30T20:28:27Z</time></trkpt>
<trkpt lat="46.1624" lon="7.22023"><ele></ele><time>2016-8-30T20:28:30Z</time></trkpt>
<trkpt lat="46.16238" lon="7.22022"><ele></ele><time>2016-8-30T20:28:33Z</time></trkpt>
<trkpt lat="46.16236" lon="7.22021"><ele></ele><time>2016-8-30T20:28:36Z</time></trkpt>
<trkpt lat="46.16233" lon="7.22019"><ele></ele><time>2016-8-30T20:28:39Z</time></trkpt>
<trkpt lat="46.1623" lon="7.22017"><ele></ele><time>2016-8-30T20:28:42Z</time></trkpt>
<trkpt lat="46.16227" lon="7.22014"><ele></ele><time>2016-8-30T20:28:45Z</time></trkpt>
<trkpt lat="46.16223" lon="7.22012"><ele></ele><time>2016-8-30T20:28:48Z</time></trkpt>
<trkpt lat="46.1622" lon="7.2201"><ele></ele><time>2016-8-30T20:28:51Z</time></trkpt>
<trkpt lat="46.16217" lon="7.22008"><ele></ele><time>2016-8-30T20:28:54Z</time></trkpt>
<trkpt lat="46.16214" lon="7.22006"><ele></ele><time>2016-8-30T20:28:57Z</time></trkpt>
<trkpt lat="46.16212" lon="7.22004"><ele></ele><time>2016-8-30T20:29:0Z</time></trkpt>
<trkpt lat="46.1621" lon="7.22003"><ele></ele><time>2016-8-30T20:29:3Z</time></trkpt>
<trkpt lat="46.16209" lon="7.22002"><ele></ele><time>2016-8-30T20:29:6Z</time></trkpt>
<trkpt lat="46.16207" lon="7.22001"><ele></ele><time>2016-8-30T20:29:9Z</time></trkpt>
<trkpt lat="46.16204" lon="7.21998"><ele></ele><time>2016-8-30T20:29:12Z</time></trkpt>
<trkpt lat="46.16201" lon="7.21996"><ele></ele><time>2016-8-30T20:29:15Z</time></trkpt>
<trkpt lat="46.16198" lon="7.21993"><ele></ele><time>2016-8-30T20:29:18Z</time></trkpt>
<trkpt lat="46.16194" lon="7.21991"><ele></ele><time>2016-8-30T20:29:21Z</time></trkpt>
<trkpt lat="46.16191" lon="7.21989"><ele></ele><time>2016-8-30T20:29:24Z</time></trkpt>
<trkpt lat="46.16188" lon="7.21986"><ele></ele><time>2016-8-30T20:29:27Z</time></trkpt>
<trkpt lat="46.16185" lon="7.21984"><ele></ele><time>2016-8-30T20:29:30Z</time></trkpt>
<trkpt lat="46.16182" lon="7.21981"><ele></ele><time>2016-8-30T20:29:33Z</time></trkpt>
<trkpt lat="46.16178" lon="7.21979"><ele></ele><time>2016-8-30T20:29:36Z</time></trkpt>
<trkpt lat="46.16175" lon="7.21976"><ele></ele><time>2016-8-30T20:29:39Z</time></trkpt>
<trkpt lat="46.16172" lon="7.21974"><ele></ele><time>2016-8-30T20:29:42Z</time></trkpt>
<trkpt lat="46.16169" lon="7.21971"><ele></ele><time>2016-8-30T20:29:45Z</time></trkpt>
<trkpt lat="46.16166" lon="7.21968"><ele></ele><time>2016-8-30T20:29:48Z</time></trkpt>
<trkpt lat="46.16163" lon="7.21965"><ele></ele><time>2016-8-30T20:29:51Z</time></trkpt>
<trkpt lat="46.1616" lon="7.21961"><ele></ele><time>2016-8-30T20:29:54Z</time></trkpt>
<trkpt lat="46.16157" lon="7.21958"><ele></ele><time>2016-8-30T20:29:57Z</time></trkpt>
<trkpt lat="46.16154" lon="7.21955"><ele></ele><time>2016-8-30T20:30:0Z</time></trkpt>
<trkpt lat="46.16152" lon="7.21953"><ele></ele><time>2016-8-30T20:30:3Z</time></trkpt>
<trkpt lat="46.16151" lon="7.21952"><ele></ele><time>2016-8-30T20:30:6Z</time></trkpt>
<trkpt lat="46.16148" lon="7.21948"><ele></ele><time>2016-8-30T20:30:9Z</time></trkpt>
<trkpt lat="46.16145" lon="7.21945"><ele></ele><time>2016-8-30T20:30:12Z</time></trkpt>
<trkpt lat="46.16142" lon="7.21942"><ele></ele><time>2016-8-30T20:30:15Z</time></trkpt>
<trkpt lat="46.16139" lon="7.21939"><ele></ele><time>2016-8-30T20:30:18Z</time></trkpt>
<trkpt lat="46.16135" lon="7.21936"><ele></ele><time>2016-8-30T20:30:21Z</time></trkpt>
<trkpt lat="46.16132" lon="7.21932"><ele></ele><time>2016-8-30T20:30:24Z</time></trkpt>
<trkpt lat="46.1613" lon="7.21929"><ele></ele><time>2016-8-30T20:30:27Z</time></trkpt>
<trkpt lat="46.16127" lon="7.21925"><ele></ele><time>2016-8-30T20:30:30Z</time></trkpt>
<trkpt lat="46.16124" lon="7.21922"><ele></ele><time>2016-8-30T20:30:33Z</time></trkpt>
<trkpt lat="46.16121" lon="7.21918"><ele></ele><time>2016-8-30T20:30:36Z</time></trkpt>
<trkpt lat="46.16118" lon="7.21914"><ele></ele><time>2016-8-30T20:30:39Z</time></trkpt>
<trkpt lat="46.16116" lon="7.21911"><ele></ele><time>2016-8-30T20:30:42Z</time></trkpt>
<trkpt lat="46.16113" lon="7.21907"><ele></ele><time>2016-8-30T20:30:45Z</time></trkpt>
<trkpt lat="46.1611" lon="7.21904"><ele></ele><time>2016-8-30T20:30:48Z</time></trkpt>
<trkpt lat="46.16107" lon="7.219"><ele></ele><time>2016-8-30T20:30:51Z</time></trkpt>
<trkpt lat="46.16104" lon="7.21897"><ele></ele><time>2016-8-30T20:30:54Z</time></trkpt>
<trkpt lat="46.16102" lon="7.21893"><ele></ele><time>2016-8-30T20:30:57Z</time></trkpt>
<trkpt lat="46.16099" lon="7.21889"><ele></ele><time>2016-8-30T20:31:0Z</time></trkpt>
<trkpt lat="46.16096" lon="7.21886"><ele></ele><time>2016-8-30T20:31:3Z</time></trkpt>
<trkpt lat="46.16093" lon="7.21883"><ele></ele><time>2016-8-30T20:31:6Z</time></trkpt>
<trkpt lat="46.16089" lon="7.2188"><ele></ele><time>2016-8-30T20:31:9Z</time></trkpt>
<trkpt lat="46.16086" lon="7.21877"><ele></ele><time>2016-8-30T20:31:12Z</time></trkpt>
<trkpt lat="46.16083" lon="7.21873"><ele></ele><time>2016-8-30T20:31:15Z</time></trkpt>
<trkpt lat="46.1608" lon="7.2187"><ele></ele><time>2016-8-30T20:31:18Z</time></trkpt>
<trkpt lat="46.16077" lon="7.21867"><ele></ele><time>2016-8-30T20:31:21Z</time></trkpt>
<trkpt lat="46.16074" lon="7.21864"><ele></ele><time>2016-8-30T20:31:24Z</time></trkpt>
<trkpt lat="46.1607" lon="7.21861"><ele></ele><time>2016-8-30T20:31:27Z</time></trkpt>
<trkpt lat="46.16067" lon="7.21857"><ele></ele><time>2016-8-30T20:31:30Z</time></trkpt>
<trkpt lat="46.16066" lon="7.21856"><ele></ele><time>2016-8-30T20:31:33Z</time></trkpt>
<trkpt lat="46.16064" lon="7.21854"><ele></ele><time>2016-8-30T20:31:36Z</time></trkpt>
<trkpt lat="46.16061" lon="7.21851"><ele></ele><time>2016-8-30T20:31:39Z</time></trkpt>
<trkpt lat="46.16058" lon="7.21848"><ele></ele><time>2016-8-30T20:31:42Z</time></trkpt>
<trkpt lat="46.16055" lon="7.21846"><ele></ele><time>2016-8-30T20:31:45Z</time></trkpt>
<trkpt lat="46.16052" lon="7.21843"><ele></ele><time>2016-8-30T20:31:48Z</time></trkpt>
<trkpt lat="46.16049" lon="7.2184"><ele></ele><time>2016-8-30T20:31:51Z</time></trkpt>
<trkpt lat="46.16046" lon="7.21837"><ele></ele><time>2016-8-30T20:31:54Z</time></trkpt>
<trkpt lat="46.16042" lon="7.21835"><ele></ele><time>2016-8-30T20:31:57Z</time></trkpt>
<trkpt lat="46.16039" lon="7.21832"><ele></ele><time>2016-8-30T20:32:0Z</time></trkpt>
<trkpt lat="46.16036" lon="7.21829"><ele></ele><time>2016-8-30T20:32:3Z</time></trkpt>
<trkpt lat="46.16033" lon="7.21827"><ele></ele><time>2016-8-30T20:32:6Z</time></trkpt>
<trkpt lat="46.1603" lon="7.21831"><ele></ele><time>2016-8-30T20:32:9Z</time></trkpt>
<trkpt lat="46.16028" lon="7.21835"><ele></ele><time>2016-8-30T20:32:12Z</time></trkpt>
<trkpt lat="46.16025" lon="7.2184"><ele></ele><time>2016-8-30T20:32:15Z</time></trkpt>
<trkpt lat="46.16024" lon="7.21842"><ele></ele><time>2016-8-30T20:32:18Z</time></trkpt>
<trkpt lat="46.16022" lon="7.21845"><ele></ele><time>2016-8-30T20:32:21Z</time></trkpt>
<trkpt lat="46.16026" lon="7.21848"><ele></ele><time>2016-8-30T20:32:24Z</time></trkpt>
<trkpt lat="46.1603" lon="7.21851"><ele></ele><time>2016-8-30T20:32:27Z</time></trkpt>
<trkpt lat="46.16035" lon="7.21854"><ele></ele><time>2016-8-30T20:32:30Z</time></trkpt>
<trkpt lat="46.16039" lon="7.21857"><ele></ele><time>2016-8-30T20:32:33Z</time></trkpt>
<trkpt lat="46.16043" lon="7.2186"><ele></ele><time>2016-8-30T20:32:36Z</time></trkpt>
<trkpt lat="46.16047" lon="7.21863"><ele></ele><time>2016-8-30T20:32:39Z</time></trkpt>
<trkpt lat="46.16051" lon="7.21866"><ele></ele><time>2016-8-30T20:32:42Z</time></trkpt>
<trkpt lat="46.16056" lon="7.21869"><ele></ele><time>2016-8-30T20:32:45Z</time></trkpt>
<trkpt lat="46.1606" lon="7.21872"><ele></ele><time>2016-8-30T20:32:48Z</time></trkpt>
<trkpt lat="46.16064" lon="7.21875"><ele></ele><time>2016-8-30T20:32:51Z</time></trkpt>
<trkpt lat="46.16067" lon="7.21879"><ele></ele><time>2016-8-30T20:32:54Z</time></trkpt>
<trkpt lat="46.1607" lon="7.21884"><ele></ele><time>2016-8-30T20:32:57Z</time></trkpt>
<trkpt lat="46.16072" lon="7.21888"><ele></ele><time>2016-8-30T20:33:0Z</time></trkpt>
<trkpt lat="46.16075" lon="7.21892"><ele></ele><time>2016-8-30T20:33:3Z</time></trkpt>
<trkpt lat="46.16077" lon="7.21897"><ele></ele><time>2016-8-30T20:33:6Z</time></trkpt>
<trkpt lat="46.16079" lon="7.21899"><ele></ele><time>2016-8-30T20:33:9Z</time></trkpt>
<trkpt lat="46.1608" lon="7.21901"><ele></ele><time>2016-8-30T20:33:12Z</time></trkpt>
<trkpt lat="46.16083" lon="7.21905"><ele></ele><time>2016-8-30T20:33:15Z</time></trkpt>
<trkpt lat="46.16085" lon="7.2191"><ele></ele><time>2016-8-30T20:33:18Z</time></trkpt>
<trkpt lat="46.16088" lon="7.21914"><ele></ele><time>2016-8-30T20:33:21Z</time></trkpt>
<trkpt lat="46.1609" lon="7.21919"><ele></ele><time>2016-8-30T20:33:24Z</time></trkpt>
<trkpt lat="46.16093" lon="7.21923"><ele></ele><time>2016-8-30T20:33:27Z</time></trkpt>
<trkpt lat="46.16094" lon="7.21925"><ele></ele><time>2016-8-30T20:33:30Z</time></trkpt>
<trkpt lat="46.16096" lon="7.21927"><ele></ele><time>2016-8-30T20:33:33Z</time></trkpt>
<trkpt lat="46.16098" lon="7.21932"><ele></ele><time>2016-8-30T20:33:36Z</time></trkpt>
<trkpt lat="46.161" lon="7.21937"><ele></ele><time>2016-8-30T20:33:39Z</time></trkpt>
<trkpt lat="46.16101" lon="7.21939"><ele></ele><time>2016-8-30T20:33:42Z</time></trkpt>
<trkpt lat="46.16103" lon="7.21942"><ele></ele><time>2016-8-30T20:33:45Z</time></trkpt>
<trkpt lat="46.16105" lon="7.21946"><ele></ele><time>2016-8-30T20:33:48Z</time></trkpt>
<trkpt lat="46.16107" lon="7.21951"><ele></ele><time>2016-8-30T20:33:51Z</time></trkpt>
<trkpt lat="46.1611" lon="7.21956"><ele></ele><time>2016-8-30T20:33:54Z</time></trkpt>
<trkpt lat="46.16112" lon="7.21961"><ele></ele><time>2016-8-30T20:33:57Z</time></trkpt>
<trkpt lat="46.16114" lon="7.21965"><ele></ele><time>2016-8-30T20:34:0Z</time></trkpt>
<trkpt lat="46.16117" lon="7.2197"><ele></ele><time>2016-8-30T20:34:3Z</time></trkpt>
<trkpt lat="46.16119" lon="7.21975"><ele></ele><time>2016-8-30T20:34:6Z</time></trkpt>
<trkpt lat="46.16121" lon="7.2198"><ele></ele><time>2016-8-30T20:34:9Z</time></trkpt>
<trkpt lat="46.16123" lon="7.21982"><ele></ele><time>2016-8-30T20:34:12Z</time></trkpt>
<trkpt lat="46.16124" lon="7.21984"><ele></ele><time>2016-8-30T20:34:15Z</time></trkpt>
<trkpt lat="46.16127" lon="7.21988"><ele></ele><time>2016-8-30T20:34:18Z</time></trkpt>
<trkpt lat="46.16129" lon="7.21992"><ele></ele><time>2016-8-30T20:34:21Z</time></trkpt>
<trkpt lat="46.16132" lon="7.21996"><ele></ele><time>2016-8-30T20:34:24Z</time></trkpt>
<trkpt lat="46.16135" lon="7.22"><ele></ele><time>2016-8-30T20:34:27Z</time></trkpt>
<trkpt lat="46.16137" lon="7.22004"><ele></ele><time>2016-8-30T20:34:30Z</time></trkpt>
<trkpt lat="46.1614" lon="7.22008"><ele></ele><time>2016-8-30T20:34:33Z</time></trkpt>
<trkpt lat="46.16143" lon="7.22012"><ele></ele><time>2016-8-30T20:34:36Z</time></trkpt>
<trkpt lat="46.16146" lon="7.22016"><ele></ele><time>2016-8-30T20:34:39Z</time></trkpt>
<trkpt lat="46.16148" lon="7.2202"><ele></ele><time>2016-8-30T20:34:42Z</time></trkpt>
<trkpt lat="46.16151" lon="7.22024"><ele></ele><time>2016-8-30T20:34:45Z</time></trkpt>
<trkpt lat="46.16154" lon="7.22028"><ele></ele><time>2016-8-30T20:34:48Z</time></trkpt>
<trkpt lat="46.16157" lon="7.22031"><ele></ele><time>2016-8-30T20:34:51Z</time></trkpt>
<trkpt lat="46.1616" lon="7.22034"><ele></ele><time>2016-8-30T20:34:54Z</time></trkpt>
<trkpt lat="46.16163" lon="7.22038"><ele></ele><time>2016-8-30T20:34:57Z</time></trkpt>
<trkpt lat="46.16167" lon="7.22041"><ele></ele><time>2016-8-30T20:35:0Z</time></trkpt>
<trkpt lat="46.1617" lon="7.22044"><ele></ele><time>2016-8-30T20:35:3Z</time></trkpt>
<trkpt lat="46.16173" lon="7.22048"><ele></ele><time>2016-8-30T20:35:6Z</time></trkpt>
<trkpt lat="46.16177" lon="7.22051"><ele></ele><time>2016-8-30T20:35:9Z</time></trkpt>
<trkpt lat="46.16178" lon="7.22053"><ele></ele><time>2016-8-30T20:35:12Z</time></trkpt>
<trkpt lat="46.1618" lon="7.22054"><ele></ele><time>2016-8-30T20:35:15Z</time></trkpt>
<trkpt lat="46.16183" lon="7.22058"><ele></ele><time>2016-8-30T20:35:18Z</time></trkpt>
<trkpt lat="46.16186" lon="7.22061"><ele></ele><time>2016-8-30T20:35:21Z</time></trkpt>
<trkpt lat="46.1619" lon="7.22064"><ele></ele><time>2016-8-30T20:35:24Z</time></trkpt>
<trkpt lat="46.16191" lon="7.22066"><ele></ele><time>2016-8-30T20:35:27Z</time></trkpt>
<trkpt lat="46.16193" lon="7.22067"><ele></ele><time>2016-8-30T20:35:30Z</time></trkpt>
<trkpt lat="46.16197" lon="7.22071"><ele></ele><time>2016-8-30T20:35:33Z</time></trkpt>
<trkpt lat="46.162" lon="7.22074"><ele></ele><time>2016-8-30T20:35:36Z</time></trkpt>
<trkpt lat="46.16204" lon="7.22077"><ele></ele><time>2016-8-30T20:35:39Z</time></trkpt>
<trkpt lat="46.16207" lon="7.2208"><ele></ele><time>2016-8-30T20:35:42Z</time></trkpt>
<trkpt lat="46.16211" lon="7.22083"><ele></ele><time>2016-8-30T20:35:45Z</time></trkpt>
<trkpt lat="46.16214" lon="7.22086"><ele></ele><time>2016-8-30T20:35:48Z</time></trkpt>
<trkpt lat="46.16216" lon="7.22088"><ele></ele><time>2016-8-30T20:35:51Z</time></trkpt>
<trkpt lat="46.16218" lon="7.2209"><ele></ele><time>2016-8-30T20:35:54Z</time></trkpt>
<trkpt lat="46.16222" lon="7.22093"><ele></ele><time>2016-8-30T20:35:57Z</time></trkpt>
<trkpt lat="46.16225" lon="7.22096"><ele></ele><time>2016-8-30T20:36:0Z</time></trkpt>
<trkpt lat="46.16229" lon="7.22099"><ele></ele><time>2016-8-30T20:36:3Z</time></trkpt>
<trkpt lat="46.1623" lon="7.22101"><ele></ele><time>2016-8-30T20:36:6Z</time></trkpt>
<trkpt lat="46.16232" lon="7.22102"><ele></ele><time>2016-8-30T20:36:9Z</time></trkpt>
<trkpt lat="46.16236" lon="7.22105"><ele></ele><time>2016-8-30T20:36:12Z</time></trkpt>
<trkpt lat="46.1624" lon="7.22109"><ele></ele><time>2016-8-30T20:36:15Z</time></trkpt>
<trkpt lat="46.16244" lon="7.22112"><ele></ele><time>2016-8-30T20:36:18Z</time></trkpt>
<trkpt lat="46.16248" lon="7.22115"><ele></ele><time>2016-8-30T20:36:21Z</time></trkpt>
<trkpt lat="46.16251" lon="7.22118"><ele></ele><time>2016-8-30T20:36:24Z</time></trkpt>
<trkpt lat="46.16255" lon="7.22121"><ele></ele><time>2016-8-30T20:36:27Z</time></trkpt>
<trkpt lat="46.16259" lon="7.22124"><ele></ele><time>2016-8-30T20:36:30Z</time></trkpt>
<trkpt lat="46.16263" lon="7.22127"><ele></ele><time>2016-8-30T20:36:33Z</time></trkpt>
<trkpt lat="46.16267" lon="7.2213"><ele></ele><time>2016-8-30T20:36:36Z</time></trkpt>
<trkpt lat="46.1627" lon="7.22133"><ele></ele><time>2016-8-30T20:36:39Z</time></trkpt>
<trkpt lat="46.16273" lon="7.22138"><ele></ele><time>2016-8-30T20:36:42Z</time></trkpt>
<trkpt lat="46.16276" lon="7.22142"><ele></ele><time>2016-8-30T20:36:45Z</time></trkpt>
<trkpt lat="46.16277" lon="7.22145"><ele></ele><time>2016-8-30T20:36:48Z</time></trkpt>
<trkpt lat="46.16279" lon="7.22147"><ele></ele><time>2016-8-30T20:36:51Z</time></trkpt>
<trkpt lat="46.16282" lon="7.22151"><ele></ele><time>2016-8-30T20:36:54Z</time></trkpt>
<trkpt lat="46.16284" lon="7.22156"><ele></ele><time>2016-8-30T20:36:57Z</time></trkpt>
<trkpt lat="46.16287" lon="7.22161"><ele></ele><time>2016-8-30T20:37:0Z</time></trkpt>
<trkpt lat="46.1629" lon="7.22165"><ele></ele><time>2016-8-30T20:37:3Z</time></trkpt>
<trkpt lat="46.16293" lon="7.2217"><ele></ele><time>2016-8-30T20:37:6Z</time></trkpt>
<trkpt lat="46.16295" lon="7.22174"><ele></ele><time>2016-8-30T20:37:9Z</time></trkpt>
<trkpt lat="46.16298" lon="7.22179"><ele></ele><time>2016-8-30T20:37:12Z</time></trkpt>
<trkpt lat="46.16301" lon="7.22183"><ele></ele><time>2016-8-30T20:37:15Z</time></trkpt>
<trkpt lat="46.16303" lon="7.22188"><ele></ele><time>2016-8-30T20:37:18Z</time></trkpt>
<trkpt lat="46.16306" lon="7.22193"><ele></ele><time>2016-8-30T20:37:21Z</time></trkpt>
<trkpt lat="46.16308" lon="7.22198"><ele></ele><time>2016-8-30T20:37:24Z</time></trkpt>
<trkpt lat="46.1631" lon="7.22204"><ele></ele><time>2016-8-30T20:37:27Z</time></trkpt>
<trkpt lat="46.16312" lon="7.22209"><ele></ele><time>2016-8-30T20:37:30Z</time></trkpt>
<trkpt lat="46.16315" lon="7.22214"><ele></ele><time>2016-8-30T20:37:33Z</time></trkpt>
<trkpt lat="46.16317" lon="7.22219"><ele></ele><time>2016-8-30T20:37:36Z</time></trkpt>
<trkpt lat="46.16319" lon="7.22224"><ele></ele><time>2016-8-30T20:37:39Z</time></trkpt>
<trkpt lat="46.1632" lon="7.22227"><ele></ele><time>2016-8-30T20:37:42Z</time></trkpt>
<trkpt lat="46.16321" lon="7.22229"><ele></ele><time>2016-8-30T20:37:45Z</time></trkpt>
<trkpt lat="46.16324" lon="7.22234"><ele></ele><time>2016-8-30T20:37:48Z</time></trkpt>
<trkpt lat="46.16326" lon="7.22239"><ele></ele><time>2016-8-30T20:37:51Z</time></trkpt>
<trkpt lat="46.16329" lon="7.22244"><ele></ele><time>2016-8-30T20:37:54Z</time></trkpt>
<trkpt lat="46.16332" lon="7.22248"><ele></ele><time>2016-8-30T20:37:57Z</time></trkpt>
<trkpt lat="46.16335" lon="7.22252"><ele></ele><time>2016-8-30T20:38:0Z</time></trkpt>
<trkpt lat="46.16338" lon="7.22257"><ele></ele><time>2016-8-30T20:38:3Z</time></trkpt>
<trkpt lat="46.16341" lon="7.22261"><ele></ele><time>2016-8-30T20:38:6Z</time></trkpt>
<trkpt lat="46.16344" lon="7.22266"><ele></ele><time>2016-8-30T20:38:9Z</time></trkpt>
<trkpt lat="46.16347" lon="7.2227"><ele></ele><time>2016-8-30T20:38:12Z</time></trkpt>
<trkpt lat="46.1635" lon="7.22274"><ele></ele><time>2016-8-30T20:38:15Z</time></trkpt>
<trkpt lat="46.16353" lon="7.22279"><ele></ele><time>2016-8-30T20:38:18Z</time></trkpt>
<trkpt lat="46.16356" lon="7.22283"><ele></ele><time>2016-8-30T20:38:21Z</time></trkpt>
<trkpt lat="46.16354" lon="7.22287"><ele></ele><time>2016-8-30T20:38:24Z</time></trkpt>
<trkpt lat="46.16352" lon="7.22292"><ele></ele><time>2016-8-30T20:38:27Z</time></trkpt>
<trkpt lat="46.16349" lon="7.22288"><ele></ele><time>2016-8-30T20:38:30Z</time></trkpt>
<trkpt lat="46.16346" lon="7.22284"><ele></ele><time>2016-8-30T20:38:33Z</time></trkpt>
<trkpt lat="46.16342" lon="7.22279"><ele></ele><time>2016-8-30T20:38:36Z</time></trkpt>
<trkpt lat="46.16339" lon="7.22275"><ele></ele><time>2016-8-30T20:38:39Z</time></trkpt>
<trkpt lat="46.16336" lon="7.22271"><ele></ele><time>2016-8-30T20:38:42Z</time></trkpt>
<trkpt lat="46.16333" lon="7.22267"><ele></ele><time>2016-8-30T20:38:45Z</time></trkpt>
<trkpt lat="46.1633" lon="7.22262"><ele></ele><time>2016-8-30T20:38:48Z</time></trkpt>
<trkpt lat="46.16328" lon="7.2226"><ele></ele><time>2016-8-30T20:38:51Z</time></trkpt>
<trkpt lat="46.16326" lon="7.22258"><ele></ele><time>2016-8-30T20:38:54Z</time></trkpt>
<trkpt lat="46.16323" lon="7.22254"><ele></ele><time>2016-8-30T20:38:57Z</time></trkpt>
<trkpt lat="46.1632" lon="7.22249"><ele></ele><time>2016-8-30T20:39:0Z</time></trkpt>
<trkpt lat="46.16318" lon="7.22247"><ele></ele><time>2016-8-30T20:39:3Z</time></trkpt>
<trkpt lat="46.16317" lon="7.22245"><ele></ele><time>2016-8-30T20:39:6Z</time></trkpt>
<trkpt lat="46.16313" lon="7.22241"><ele></ele><time>2016-8-30T20:39:9Z</time></trkpt>
<trkpt lat="46.1631" lon="7.22237"><ele></ele><time>2016-8-30T20:39:12Z</time></trkpt>
<trkpt lat="46.16307" lon="7.22233"><ele></ele><time>2016-8-30T20:39:15Z</time></trkpt>
<trkpt lat="46.16304" lon="7.22229"><ele></ele><time>2016-8-30T20:39:18Z</time></trkpt>
<trkpt lat="46.16301" lon="7.22224"><ele></ele><time>2016-8-30T20:39:21Z</time></trkpt>
<trkpt lat="46.16297" lon="7.2222"><ele></ele><time>2016-8-30T20:39:24Z</time></trkpt>
<trkpt lat="46.16294" lon="7.22216"><ele></ele><time>2016-8-30T20:39:27Z</time></trkpt>
<trkpt lat="46.16291" lon="7.22212"><ele></ele><time>2016-8-30T20:39:30Z</time></trkpt>
<trkpt lat="46.16288" lon="7.22208"><ele></ele><time>2016-8-30T20:39:33Z</time></trkpt>
<trkpt lat="46.16284" lon="7.22204"><ele></ele><time>2016-8-30T20:39:36Z</time></trkpt>
<trkpt lat="46.16281" lon="7.22201"><ele></ele><time>2016-8-30T20:39:39Z</time></trkpt>
<trkpt lat="46.16277" lon="7.22198"><ele></ele><time>2016-8-30T20:39:42Z</time></trkpt>
<trkpt lat="46.16274" lon="7.22195"><ele></ele><time>2016-8-30T20:39:45Z</time></trkpt>
<trkpt lat="46.1627" lon="7.22192"><ele></ele><time>2016-8-30T20:39:48Z</time></trkpt>
<trkpt lat="46.16267" lon="7.22189"><ele></ele><time>2016-8-30T20:39:51Z</time></trkpt>
<trkpt lat="46.16263" lon="7.22186"><ele></ele><time>2016-8-30T20:39:54Z</time></trkpt>
<trkpt lat="46.1626" lon="7.22183"><ele></ele><time>2016-8-30T20:39:57Z</time></trkpt>
<trkpt lat="46.16256" lon="7.2218"><ele></ele><time>2016-8-30T20:40:0Z</time></trkpt>
<trkpt lat="46.16254" lon="7.22178"><ele></ele><time>2016-8-30T20:40:3Z</time></trkpt>
<trkpt lat="46.16253" lon="7.22177"><ele></ele><time>2016-8-30T20:40:6Z</time></trkpt>
<trkpt lat="46.16249" lon="7.22174"><ele></ele><time>2016-8-30T20:40:9Z</time></trkpt>
<trkpt lat="46.16246" lon="7.22171"><ele></ele><time>2016-8-30T20:40:12Z</time></trkpt>
<trkpt lat="46.16244" lon="7.22169"><ele></ele><time>2016-8-30T20:40:15Z</time></trkpt>
<trkpt lat="46.16242" lon="7.22168"><ele></ele><time>2016-8-30T20:40:18Z</time></trkpt>
<trkpt lat="46.16238" lon="7.22166"><ele></ele><time>2016-8-30T20:40:21Z</time></trkpt>
<trkpt lat="46.16234" lon="7.22163"><ele></ele><time>2016-8-30T20:40:24Z</time></trkpt>
<trkpt lat="46.1623" lon="7.22161"><ele></ele><time>2016-8-30T20:40:27Z</time></trkpt>
<trkpt lat="46.16226" lon="7.22158"><ele></ele><time>2016-8-30T20:40:30Z</time></trkpt>
<trkpt lat="46.16222" lon="7.22156"><ele></ele><time>2016-8-30T20:40:33Z</time></trkpt>
<trkpt lat="46.1622" lon="7.22155"><ele></ele><time>2016-8-30T20:40:36Z</time></trkpt>
<trkpt lat="46.16218" lon="7.22153"><ele></ele><time>2016-8-30T20:40:39Z</time></trkpt>
<trkpt lat="46.16214" lon="7.22151"><ele></ele><time>2016-8-30T20:40:42Z</time></trkpt>
<trkpt lat="46.1621" lon="7.22148"><ele></ele><time>2016-8-30T20:40:45Z</time></trkpt>
<trkpt lat="46.16206" lon="7.22146"><ele></ele><time>2016-8-30T20:40:48Z</time></trkpt>
<trkpt lat="46.16202" lon="7.22144"><ele></ele><time>2016-8-30T20:40:51Z</time></trkpt>
<trkpt lat="46.16198" lon="7.22141"><ele></ele><time>2016-8-30T20:40:54Z</time></trkpt>
<trkpt lat="46.16195" lon="7.22139"><ele></ele><time>2016-8-30T20:40:57Z</time></trkpt>
<trkpt lat="46.16191" lon="7.22137"><ele></ele><time>2016-8-30T20:41:0Z</time></trkpt>
<trkpt lat="46.16187" lon="7.22135"><ele></ele><time>2016-8-30T20:41:3Z</time></trkpt>
<trkpt lat="46.16184" lon="7.22133"><ele></ele><time>2016-8-30T20:41:6Z</time></trkpt>
<trkpt lat="46.1618" lon="7.22131"><ele></ele><time>2016-8-30T20:41:9Z</time></trkpt>
<trkpt lat="46.16176" lon="7.22129"><ele></ele><time>2016-8-30T20:41:12Z</time></trkpt>
<trkpt lat="46.16173" lon="7.22127"><ele></ele><time>2016-8-30T20:41:15Z</time></trkpt>
<trkpt lat="46.16169" lon="7.22125"><ele></ele><time>2016-8-30T20:41:18Z</time></trkpt>
<trkpt lat="46.16165" lon="7.22122"><ele></ele><time>2016-8-30T20:41:21Z</time></trkpt>
<trkpt lat="46.16162" lon="7.2212"><ele></ele><time>2016-8-30T20:41:24Z</time></trkpt>
<trkpt lat="46.1616" lon="7.22119"><ele></ele><time>2016-8-30T20:41:27Z</time></trkpt>
<trkpt lat="46.16158" lon="7.22118"><ele></ele><time>2016-8-30T20:41:30Z</time></trkpt>
<trkpt lat="46.16154" lon="7.22116"><ele></ele><time>2016-8-30T20:41:33Z</time></trkpt>
<trkpt lat="46.16151" lon="7.22114"><ele></ele><time>2016-8-30T20:41:36Z</time></trkpt>
<trkpt lat="46.16149" lon="7.22113"><ele></ele><time>2016-8-30T20:41:39Z</time></trkpt>
<trkpt lat="46.16148" lon="7.22112"><ele></ele><time>2016-8-30T20:41:42Z</time></trkpt>
<trkpt lat="46.16144" lon="7.2211"><ele></ele><time>2016-8-30T20:41:45Z</time></trkpt>
<trkpt lat="46.16141" lon="7.22107"><ele></ele><time>2016-8-30T20:41:48Z</time></trkpt>
<trkpt lat="46.16137" lon="7.22105"><ele></ele><time>2016-8-30T20:41:51Z</time></trkpt>
<trkpt lat="46.16134" lon="7.22103"><ele></ele><time>2016-8-30T20:41:54Z</time></trkpt>
<trkpt lat="46.1613" lon="7.22101"><ele></ele><time>2016-8-30T20:41:57Z</time></trkpt>
<trkpt lat="46.16127" lon="7.22099"><ele></ele><time>2016-8-30T20:42:0Z</time></trkpt>
<trkpt lat="46.16123" lon="7.22097"><ele></ele><time>2016-8-30T20:42:3Z</time></trkpt>
<trkpt lat="46.1612" lon="7.22095"><ele></ele><time>2016-8-30T20:42:6Z</time></trkpt>
<trkpt lat="46.16118" lon="7.22093"><ele></ele><time>2016-8-30T20:42:9Z</time></trkpt>
<trkpt lat="46.16116" lon="7.22092"><ele></ele><time>2016-8-30T20:42:12Z</time></trkpt>
<trkpt lat="46.16113" lon="7.22089"><ele></ele><time>2016-8-30T20:42:15Z</time></trkpt>
<trkpt lat="46.16111" lon="7.22088"><ele></ele><time>2016-8-30T20:42:18Z</time></trkpt>
<trkpt lat="46.1611" lon="7.22086"><ele></ele><time>2016-8-30T20:42:21Z</time></trkpt>
<trkpt lat="46.16107" lon="7.22083"><ele></ele><time>2016-8-30T20:42:24Z</time></trkpt>
<trkpt lat="46.16103" lon="7.2208"><ele></ele><time>2016-8-30T20:42:27Z</time></trkpt>
<trkpt lat="46.161" lon="7.22077"><ele></ele><time>2016-8-30T20:42:30Z</time></trkpt>
<trkpt lat="46.16097" lon="7.22074"><ele></ele><time>2016-8-30T20:42:33Z</time></trkpt>
<trkpt lat="46.16094" lon="7.22072"><ele></ele><time>2016-8-30T20:42:36Z</time></trkpt>
<trkpt lat="46.1609" lon="7.22069"><ele></ele><time>2016-8-30T20:42:39Z</time></trkpt>
<trkpt lat="46.16087" lon="7.22066"><ele></ele><time>2016-8-30T20:42:42Z</time></trkpt>
<trkpt lat="46.16084" lon="7.22063"><ele></ele><time>2016-8-30T20:42:45Z</time></trkpt>
<trkpt lat="46.1608" lon="7.2206"><ele></ele><time>2016-8-30T20:42:48Z</time></trkpt>
<trkpt lat="46.16079" lon="7.22058"><ele></ele><time>2016-8-30T20:42:51Z</time></trkpt>
<trkpt lat="46.16077" lon="7.22057"><ele></ele><time>2016-8-30T20:42:54Z</time></trkpt>
<trkpt lat="46.16073" lon="7.22054"><ele></ele><time>2016-8-30T20:42:57Z</time></trkpt>
<trkpt lat="46.1607" lon="7.22051"><ele></ele><time>2016-8-30T20:43:0Z</time></trkpt>
<trkpt lat="46.16066" lon="7.22048"><ele></ele><time>2016-8-30T20:43:3Z</time></trkpt>
<trkpt lat="46.16063" lon="7.22045"><ele></ele><time>2016-8-30T20:43:6Z</time></trkpt>
<trkpt lat="46.16059" lon="7.22042"><ele></ele><time>2016-8-30T20:43:9Z</time></trkpt>
<trkpt lat="46.16056" lon="7.2204"><ele></ele><time>2016-8-30T20:43:12Z</time></trkpt>
<trkpt lat="46.16052" lon="7.22037"><ele></ele><time>2016-8-30T20:43:15Z</time></trkpt>
<trkpt lat="46.16048" lon="7.22034"><ele></ele><time>2016-8-30T20:43:18Z</time></trkpt>
<trkpt lat="46.16045" lon="7.22031"><ele></ele><time>2016-8-30T20:43:21Z</time></trkpt>
<trkpt lat="46.16041" lon="7.22028"><ele></ele><time>2016-8-30T20:43:24Z</time></trkpt>
<trkpt lat="46.16039" lon="7.22027"><ele></ele><time>2016-8-30T20:43:27Z</time></trkpt>
<trkpt lat="46.16038" lon="7.22025"><ele></ele><time>2016-8-30T20:43:30Z</time></trkpt>
<trkpt lat="46.16035" lon="7.22022"><ele></ele><time>2016-8-30T20:43:33Z</time></trkpt>
<trkpt lat="46.16031" lon="7.22019"><ele></ele><time>2016-8-30T20:43:36Z</time></trkpt>
<trkpt lat="46.16028" lon="7.22016"><ele></ele><time>2016-8-30T20:43:39Z</time></trkpt>
<trkpt lat="46.16025" lon="7.22013"><ele></ele><time>2016-8-30T20:43:42Z</time></trkpt>
<trkpt lat="46.16022" lon="7.2201"><ele></ele><time>2016-8-30T20:43:45Z</time></trkpt>
<trkpt lat="46.16019" lon="7.22007"><ele></ele><time>2016-8-30T20:43:48Z</time></trkpt>
<trkpt lat="46.16017" lon="7.22005"><ele></ele><time>2016-8-30T20:43:51Z</time></trkpt>
<trkpt lat="46.16016" lon="7.22004"><ele></ele><time>2016-8-30T20:43:54Z</time></trkpt>
<trkpt lat="46.16012" lon="7.22001"><ele></ele><time>2016-8-30T20:43:57Z</time></trkpt>
<trkpt lat="46.16009" lon="7.21997"><ele></ele><time>2016-8-30T20:44:0Z</time></trkpt>
<trkpt lat="46.16006" lon="7.21994"><ele></ele><time>2016-8-30T20:44:3Z</time></trkpt>
<trkpt lat="46.16003" lon="7.21991"><ele></ele><time>2016-8-30T20:44:6Z</time></trkpt>
<trkpt lat="46.16001" lon="7.2199"><ele></ele><time>2016-8-30T20:44:9Z</time></trkpt>
<trkpt lat="46.16" lon="7.21988"><ele></ele><time>2016-8-30T20:44:12Z</time></trkpt>
<trkpt lat="46.15997" lon="7.21985"><ele></ele><time>2016-8-30T20:44:15Z</time></trkpt>
<trkpt lat="46.15993" lon="7.21982"><ele></ele><time>2016-8-30T20:44:18Z</time></trkpt>
<trkpt lat="46.1599" lon="7.21979"><ele></ele><time>2016-8-30T20:44:21Z</time></trkpt>
<trkpt lat="46.15987" lon="7.21976"><ele></ele><time>2016-8-30T20:44:24Z</time></trkpt>
<trkpt lat="46.15984" lon="7.21973"><ele></ele><time>2016-8-30T20:44:27Z</time></trkpt>
<trkpt lat="46.15981" lon="7.2197"><ele></ele><time>2016-8-30T20:44:30Z</time></trkpt>
<trkpt lat="46.15978" lon="7.21967"><ele></ele><time>2016-8-30T20:44:33Z</time></trkpt>
<trkpt lat="46.15975" lon="7.21964"><ele></ele><time>2016-8-30T20:44:36Z</time></trkpt>
<trkpt lat="46.15971" lon="7.21961"><ele></ele><time>2016-8-30T20:44:39Z</time></trkpt>
<trkpt lat="46.15968" lon="7.21958"><ele></ele><time>2016-8-30T20:44:42Z</time></trkpt>
<trkpt lat="46.15965" lon="7.21955"><ele></ele><time>2016-8-30T20:44:45Z</time></trkpt>
<trkpt lat="46.15963" lon="7.21953"><ele></ele><time>2016-8-30T20:44:48Z</time></trkpt>
<trkpt lat="46.15962" lon="7.21952"><ele></ele><time>2016-8-30T20:44:51Z</time></trkpt>
<trkpt lat="46.15959" lon="7.21948"><ele></ele><time>2016-8-30T20:44:54Z</time></trkpt>
<trkpt lat="46.15956" lon="7.21945"><ele></ele><time>2016-8-30T20:44:57Z</time></trkpt>
<trkpt lat="46.15953" lon="7.21941"><ele></ele><time>2016-8-30T20:45:0Z</time></trkpt>
<trkpt lat="46.1595" lon="7.21938"><ele></ele><time>2016-8-30T20:45:3Z</time></trkpt>
<trkpt lat="46.15947" lon="7.21934"><ele></ele><time>2016-8-30T20:45:6Z</time></trkpt>
<trkpt lat="46.15944" lon="7.21931"><ele></ele><time>2016-8-30T20:45:9Z</time></trkpt>
<trkpt lat="46.15941" lon="7.21927"><ele></ele><time>2016-8-30T20:45:12Z</time></trkpt>
<trkpt lat="46.15938" lon="7.21924"><ele></ele><time>2016-8-30T20:45:15Z</time></trkpt>
<trkpt lat="46.15935" lon="7.2192"><ele></ele><time>2016-8-30T20:45:18Z</time></trkpt>
<trkpt lat="46.15932" lon="7.21917"><ele></ele><time>2016-8-30T20:45:21Z</time></trkpt>
<trkpt lat="46.15929" lon="7.21913"><ele></ele><time>2016-8-30T20:45:24Z</time></trkpt>
<trkpt lat="46.15928" lon="7.21912"><ele></ele><time>2016-8-30T20:45:27Z</time></trkpt>
<trkpt lat="46.15926" lon="7.2191"><ele></ele><time>2016-8-30T20:45:30Z</time></trkpt>
<trkpt lat="46.15924" lon="7.21907"><ele></ele><time>2016-8-30T20:45:33Z</time></trkpt>
<trkpt lat="46.15921" lon="7.21903"><ele></ele><time>2016-8-30T20:45:36Z</time></trkpt>
<trkpt lat="46.15918" lon="7.219"><ele></ele><time>2016-8-30T20:45:39Z</time></trkpt>
<trkpt lat="46.15916" lon="7.21897"><ele></ele><time>2016-8-30T20:45:42Z</time></trkpt>
<trkpt lat="46.15913" lon="7.21894"><ele></ele><time>2016-8-30T20:45:45Z</time></trkpt>
<trkpt lat="46.1591" lon="7.2189"><ele></ele><time>2016-8-30T20:45:48Z</time></trkpt>
<trkpt lat="46.15908" lon="7.21887"><ele></ele><time>2016-8-30T20:45:51Z</time></trkpt>
<trkpt lat="46.15905" lon="7.21884"><ele></ele><time>2016-8-30T20:45:54Z</time></trkpt>
<trkpt lat="46.15902" lon="7.21881"><ele></ele><time>2016-8-30T20:45:57Z</time></trkpt>
<trkpt lat="46.159" lon="7.21877"><ele></ele><time>2016-8-30T20:46:0Z</time></trkpt>
<trkpt lat="46.15898" lon="7.21876"><ele></ele><time>2016-8-30T20:46:3Z</time></trkpt>
<trkpt lat="46.15897" lon="7.21874"><ele></ele><time>2016-8-30T20:46:6Z</time></trkpt>
<trkpt lat="46.15894" lon="7.21871"><ele></ele><time>2016-8-30T20:46:9Z</time></trkpt>
<trkpt lat="46.15893" lon="7.21869"><ele></ele><time>2016-8-30T20:46:12Z</time></trkpt>
<trkpt lat="46.15889" lon="7.21867"><ele></ele><time>2016-8-30T20:46:15Z</time></trkpt>
<trkpt lat="46.15881" lon="7.21864"><ele></ele><time>2016-8-30T20:46:18Z</time></trkpt>
<trkpt lat="46.15874" lon="7.2186"><ele></ele><time>2016-8-30T20:46:21Z</time></trkpt>
<trkpt lat="46.15866" lon="7.21857"><ele></ele><time>2016-8-30T20:46:24Z</time></trkpt>
<trkpt lat="46.15858" lon="7.21853"><ele></ele><time>2016-8-30T20:46:27Z</time></trkpt>
<trkpt lat="46.1585" lon="7.2185"><ele></ele><time>2016-8-30T20:46:30Z</time></trkpt>
<trkpt lat="46.15843" lon="7.21846"><ele></ele><time>2016-8-30T20:46:33Z</time></trkpt>
<trkpt lat="46.15839" lon="7.21845"><ele></ele><time>2016-8-30T20:46:36Z</time></trkpt>
<trkpt lat="46.15839" lon="7.21841"><ele></ele><time>2016-8-30T20:46:39Z</time></trkpt>
<trkpt lat="46.15839" lon="7.21835"><ele></ele><time>2016-8-30T20:46:42Z</time></trkpt>
<trkpt lat="46.15839" lon="7.21828"><ele></ele><time>2016-8-30T20:46:45Z</time></trkpt>
<trkpt lat="46.15839" lon="7.21821"><ele></ele><time>2016-8-30T20:46:48Z</time></trkpt>
<trkpt lat="46.1584" lon="7.21818"><ele></ele><time>2016-8-30T20:46:51Z</time></trkpt>
<trkpt lat="46.1584" lon="7.21815"><ele></ele><time>2016-8-30T20:46:54Z</time></trkpt>
<trkpt lat="46.1584" lon="7.21808"><ele></ele><time>2016-8-30T20:46:57Z</time></trkpt>
<trkpt lat="46.1584" lon="7.21801"><ele></ele><time>2016-8-30T20:47:0Z</time></trkpt>
<trkpt lat="46.1584" lon="7.21795"><ele></ele><time>2016-8-30T20:47:3Z</time></trkpt>
<trkpt lat="46.15841" lon="7.21788"><ele></ele><time>2016-8-30T20:47:6Z</time></trkpt>
<trkpt lat="46.15841" lon="7.21781"><ele></ele><time>2016-8-30T20:47:9Z</time></trkpt>
<trkpt lat="46.15841" lon="7.21775"><ele></ele><time>2016-8-30T20:47:12Z</time></trkpt>
<trkpt lat="46.15841" lon="7.21768"><ele></ele><time>2016-8-30T20:47:15Z</time></trkpt>
<trkpt lat="46.15842" lon="7.21761"><ele></ele><time>2016-8-30T20:47:18Z</time></trkpt>
<trkpt lat="46.15842" lon="7.21755"><ele></ele><time>2016-8-30T20:47:21Z</time></trkpt>
<trkpt lat="46.15842" lon="7.21748"><ele></ele><time>2016-8-30T20:47:24Z</time></trkpt>
<trkpt lat="46.15842" lon="7.21744"><ele></ele><time>2016-8-30T20:47:27Z</time></trkpt>
<trkpt lat="46.15842" lon="7.21739"><ele></ele><time>2016-8-30T20:47:30Z</time></trkpt>
<trkpt lat="46.15841" lon="7.21737"><ele></ele><time>2016-8-30T20:47:33Z</time></trkpt>
<trkpt lat="46.15841" lon="7.21735"><ele></ele><time>2016-8-30T20:47:36Z</time></trkpt>
<trkpt lat="46.15841" lon="7.2173"><ele></ele><time>2016-8-30T20:47:39Z</time></trkpt>
<trkpt lat="46.15841" lon="7.21726"><ele></ele><time>2016-8-30T20:47:42Z</time></trkpt>
<trkpt lat="46.1584" lon="7.21722"><ele></ele><time>2016-8-30T20:47:45Z</time></trkpt>
<trkpt lat="46.1584" lon="7.21717"><ele></ele><time>2016-8-30T20:47:48Z</time></trkpt>
<trkpt lat="46.1584" lon="7.21713"><ele></ele><time>2016-8-30T20:47:51Z</time></trkpt>
<trkpt lat="46.1584" lon="7.21708"><ele></ele><time>2016-8-30T20:47:54Z</time></trkpt>
<trkpt lat="46.15829" lon="7.2168"><ele></ele><time>2016-8-30T20:47:57Z</time></trkpt>
<trkpt lat="46.15829" lon="7.2168"><ele></ele><time>2016-8-30T20:48:0Z</time></trkpt>
<trkpt lat="46.15818" lon="7.21656"><ele></ele><time>2016-8-30T20:48:3Z</time></trkpt>
<trkpt lat="46.15816" lon="7.21654"><ele></ele><time>2016-8-30T20:48:6Z</time></trkpt>
<trkpt lat="46.15815" lon="7.21652"><ele></ele><time>2016-8-30T20:48:9Z</time></trkpt>
<trkpt lat="46.15813" lon="7.2165"><ele></ele><time>2016-8-30T20:48:12Z</time></trkpt>
<trkpt lat="46.15812" lon="7.21648"><ele></ele><time>2016-8-30T20:48:15Z</time></trkpt>
<trkpt lat="46.1581" lon="7.21646"><ele></ele><time>2016-8-30T20:48:18Z</time></trkpt>
<trkpt lat="46.1581" lon="7.21645"><ele></ele><time>2016-8-30T20:48:21Z</time></trkpt>
<trkpt lat="46.15809" lon="7.21644"><ele></ele><time>2016-8-30T20:48:24Z</time></trkpt>
<trkpt lat="46.15807" lon="7.21642"><ele></ele><time>2016-8-30T20:48:27Z</time></trkpt>
<trkpt lat="46.15807" lon="7.21641"><ele></ele><time>2016-8-30T20:48:30Z</time></trkpt>
<trkpt lat="46.15805" lon="7.2164"><ele></ele><time>2016-8-30T20:48:33Z</time></trkpt>
<trkpt lat="46.15802" lon="7.21636"><ele></ele><time>2016-8-30T20:48:36Z</time></trkpt>
<trkpt lat="46.15799" lon="7.21632"><ele></ele><time>2016-8-30T20:48:39Z</time></trkpt>
<trkpt lat="46.15795" lon="7.21629"><ele></ele><time>2016-8-30T20:48:42Z</time></trkpt>
<trkpt lat="46.15792" lon="7.21625"><ele></ele><time>2016-8-30T20:48:45Z</time></trkpt>
<trkpt lat="46.15789" lon="7.21622"><ele></ele><time>2016-8-30T20:48:48Z</time></trkpt>
<trkpt lat="46.15786" lon="7.21618"><ele></ele><time>2016-8-30T20:48:51Z</time></trkpt>
<trkpt lat="46.15784" lon="7.21616"><ele></ele><time>2016-8-30T20:48:54Z</time></trkpt>
<trkpt lat="46.15783" lon="7.21614"><ele></ele><time>2016-8-30T20:48:57Z</time></trkpt>
<trkpt lat="46.15779" lon="7.21611"><ele></ele><time>2016-8-30T20:49:0Z</time></trkpt>
<trkpt lat="46.15776" lon="7.21607"><ele></ele><time>2016-8-30T20:49:3Z</time></trkpt>
<trkpt lat="46.15773" lon="7.21603"><ele></ele><time>2016-8-30T20:49:6Z</time></trkpt>
<trkpt lat="46.1577" lon="7.216"><ele></ele><time>2016-8-30T20:49:9Z</time></trkpt>
<trkpt lat="46.15767" lon="7.21596"><ele></ele><time>2016-8-30T20:49:12Z</time></trkpt>
<trkpt lat="46.15764" lon="7.21592"><ele></ele><time>2016-8-30T20:49:15Z</time></trkpt>
<trkpt lat="46.15761" lon="7.21589"><ele></ele><time>2016-8-30T20:49:18Z</time></trkpt>
<trkpt lat="46.15759" lon="7.21585"><ele></ele><time>2016-8-30T20:49:21Z</time></trkpt>
<trkpt lat="46.15756" lon="7.21581"><ele></ele><time>2016-8-30T20:49:24Z</time></trkpt>
<trkpt lat="46.15753" lon="7.21577"><ele></ele><time>2016-8-30T20:49:27Z</time></trkpt>
<trkpt lat="46.15751" lon="7.21574"><ele></ele><time>2016-8-30T20:49:30Z</time></trkpt>
<trkpt lat="46.15748" lon="7.2157"><ele></ele><time>2016-8-30T20:49:33Z</time></trkpt>
<trkpt lat="46.15745" lon="7.21566"><ele></ele><time>2016-8-30T20:49:36Z</time></trkpt>
<trkpt lat="46.15742" lon="7.21562"><ele></ele><time>2016-8-30T20:49:39Z</time></trkpt>
<trkpt lat="46.1574" lon="7.21559"><ele></ele><time>2016-8-30T20:49:42Z</time></trkpt>
<trkpt lat="46.15737" lon="7.21555"><ele></ele><time>2016-8-30T20:49:45Z</time></trkpt>
<trkpt lat="46.15734" lon="7.21551"><ele></ele><time>2016-8-30T20:49:48Z</time></trkpt>
<trkpt lat="46.15731" lon="7.21548"><ele></ele><time>2016-8-30T20:49:51Z</time></trkpt>
<trkpt lat="46.15729" lon="7.21546"><ele></ele><time>2016-8-30T20:49:54Z</time></trkpt>
<trkpt lat="46.15728" lon="7.21544"><ele></ele><time>2016-8-30T20:49:57Z</time></trkpt>
<trkpt lat="46.15725" lon="7.21541"><ele></ele><time>2016-8-30T20:50:0Z</time></trkpt>
<trkpt lat="46.15722" lon="7.21537"><ele></ele><time>2016-8-30T20:50:3Z</time></trkpt>
<trkpt lat="46.15719" lon="7.21534"><ele></ele><time>2016-8-30T20:50:6Z</time></trkpt>
<trkpt lat="46.15716" lon="7.2153"><ele></ele><time>2016-8-30T20:50:9Z</time></trkpt>
<trkpt lat="46.15713" lon="7.21527"><ele></ele><time>2016-8-30T20:50:12Z</time></trkpt>
<trkpt lat="46.1571" lon="7.21523"><ele></ele><time>2016-8-30T20:50:15Z</time></trkpt>
<trkpt lat="46.15707" lon="7.2152"><ele></ele><time>2016-8-30T20:50:18Z</time></trkpt>
<trkpt lat="46.15704" lon="7.21516"><ele></ele><time>2016-8-30T20:50:21Z</time></trkpt>
<trkpt lat="46.15701" lon="7.21513"><ele></ele><time>2016-8-30T20:50:24Z</time></trkpt>
<trkpt lat="46.15698" lon="7.2151"><ele></ele><time>2016-8-30T20:50:27Z</time></trkpt>
<trkpt lat="46.15694" lon="7.21507"><ele></ele><time>2016-8-30T20:50:30Z</time></trkpt>
<trkpt lat="46.15691" lon="7.21504"><ele></ele><time>2016-8-30T20:50:33Z</time></trkpt>
<trkpt lat="46.15688" lon="7.21502"><ele></ele><time>2016-8-30T20:50:36Z</time></trkpt>
<trkpt lat="46.15684" lon="7.21499"><ele></ele><time>2016-8-30T20:50:39Z</time></trkpt>
<trkpt lat="46.15681" lon="7.21496"><ele></ele><time>2016-8-30T20:50:42Z</time></trkpt>
<trkpt lat="46.15677" lon="7.21494"><ele></ele><time>2016-8-30T20:50:45Z</time></trkpt>
<trkpt lat="46.15676" lon="7.21492"><ele></ele><time>2016-8-30T20:50:48Z</time></trkpt>
<trkpt lat="46.15674" lon="7.21491"><ele></ele><time>2016-8-30T20:50:51Z</time></trkpt>
<trkpt lat="46.15671" lon="7.21488"><ele></ele><time>2016-8-30T20:50:54Z</time></trkpt>
<trkpt lat="46.15667" lon="7.21485"><ele></ele><time>2016-8-30T20:50:57Z</time></trkpt>
<trkpt lat="46.15664" lon="7.21483"><ele></ele><time>2016-8-30T20:51:0Z</time></trkpt>
<trkpt lat="46.15661" lon="7.2148"><ele></ele><time>2016-8-30T20:51:3Z</time></trkpt>
<trkpt lat="46.15657" lon="7.21477"><ele></ele><time>2016-8-30T20:51:6Z</time></trkpt>
<trkpt lat="46.15654" lon="7.21474"><ele></ele><time>2016-8-30T20:51:9Z</time></trkpt>
<trkpt lat="46.1565" lon="7.21471"><ele></ele><time>2016-8-30T20:51:12Z</time></trkpt>
<trkpt lat="46.15647" lon="7.21468"><ele></ele><time>2016-8-30T20:51:15Z</time></trkpt>
<trkpt lat="46.15644" lon="7.21466"><ele></ele><time>2016-8-30T20:51:18Z</time></trkpt>
<trkpt lat="46.1564" lon="7.21463"><ele></ele><time>2016-8-30T20:51:21Z</time></trkpt>
<trkpt lat="46.15639" lon="7.21461"><ele></ele><time>2016-8-30T20:51:24Z</time></trkpt>
<trkpt lat="46.15637" lon="7.2146"><ele></ele><time>2016-8-30T20:51:27Z</time></trkpt>
<trkpt lat="46.15633" lon="7.21457"><ele></ele><time>2016-8-30T20:51:30Z</time></trkpt>
<trkpt lat="46.1563" lon="7.21454"><ele></ele><time>2016-8-30T20:51:33Z</time></trkpt>
<trkpt lat="46.15627" lon="7.21451"><ele></ele><time>2016-8-30T20:51:36Z</time></trkpt>
<trkpt lat="46.15623" lon="7.21448"><ele></ele><time>2016-8-30T20:51:39Z</time></trkpt>
<trkpt lat="46.15622" lon="7.21447"><ele></ele><time>2016-8-30T20:51:42Z</time></trkpt>
<trkpt lat="46.1562" lon="7.21445"><ele></ele><time>2016-8-30T20:51:45Z</time></trkpt>
<trkpt lat="46.15617" lon="7.21443"><ele></ele><time>2016-8-30T20:51:48Z</time></trkpt>
<trkpt lat="46.15613" lon="7.2144"><ele></ele><time>2016-8-30T20:51:51Z</time></trkpt>
<trkpt lat="46.1561" lon="7.21437"><ele></ele><time>2016-8-30T20:51:54Z</time></trkpt>
<trkpt lat="46.15607" lon="7.21434"><ele></ele><time>2016-8-30T20:51:57Z</time></trkpt>
<trkpt lat="46.15604" lon="7.21431"><ele></ele><time>2016-8-30T20:52:0Z</time></trkpt>
<trkpt lat="46.15601" lon="7.21428"><ele></ele><time>2016-8-30T20:52:3Z</time></trkpt>
<trkpt lat="46.15597" lon="7.21425"><ele></ele><time>2016-8-30T20:52:6Z</time></trkpt>
<trkpt lat="46.15594" lon="7.21422"><ele></ele><time>2016-8-30T20:52:9Z</time></trkpt>
<trkpt lat="46.15591" lon="7.21419"><ele></ele><time>2016-8-30T20:52:12Z</time></trkpt>
<trkpt lat="46.15588" lon="7.21416"><ele></ele><time>2016-8-30T20:52:15Z</time></trkpt>
<trkpt lat="46.15584" lon="7.21413"><ele></ele><time>2016-8-30T20:52:18Z</time></trkpt>
<trkpt lat="46.15583" lon="7.21412"><ele></ele><time>2016-8-30T20:52:21Z</time></trkpt>
<trkpt lat="46.15581" lon="7.2141"><ele></ele><time>2016-8-30T20:52:24Z</time></trkpt>
<trkpt lat="46.15578" lon="7.21407"><ele></ele><time>2016-8-30T20:52:27Z</time></trkpt>
<trkpt lat="46.15575" lon="7.21404"><ele></ele><time>2016-8-30T20:52:30Z</time></trkpt>
<trkpt lat="46.15572" lon="7.214"><ele></ele><time>2016-8-30T20:52:33Z</time></trkpt>
<trkpt lat="46.15569" lon="7.21397"><ele></ele><time>2016-8-30T20:52:36Z</time></trkpt>
<trkpt lat="46.15566" lon="7.21394"><ele></ele><time>2016-8-30T20:52:39Z</time></trkpt>
<trkpt lat="46.15563" lon="7.21391"><ele></ele><time>2016-8-30T20:52:42Z</time></trkpt>
<trkpt lat="46.1556" lon="7.21387"><ele></ele><time>2016-8-30T20:52:45Z</time></trkpt>
<trkpt lat="46.15557" lon="7.21384"><ele></ele><time>2016-8-30T20:52:48Z</time></trkpt>
<trkpt lat="46.15553" lon="7.21381"><ele></ele><time>2016-8-30T20:52:51Z</time></trkpt>
<trkpt lat="46.1555" lon="7.21377"><ele></ele><time>2016-8-30T20:52:54Z</time></trkpt>
<trkpt lat="46.15547" lon="7.21374"><ele></ele><time>2016-8-30T20:52:57Z</time></trkpt>
<trkpt lat="46.15546" lon="7.21372"><ele></ele><time>2016-8-30T20:53:0Z</time></trkpt>
<trkpt lat="46.15544" lon="7.21372"><ele></ele><time>2016-8-30T20:53:3Z</time></trkpt>
<trkpt lat="46.15542" lon="7.21372"><ele></ele><time>2016-8-30T20:53:6Z</time></trkpt>
<trkpt lat="46.1554" lon="7.21372"><ele></ele><time>2016-8-30T20:53:9Z</time></trkpt>
<trkpt lat="46.15536" lon="7.21371"><ele></ele><time>2016-8-30T20:53:12Z</time></trkpt>
<trkpt lat="46.15532" lon="7.21371"><ele></ele><time>2016-8-30T20:53:15Z</time></trkpt>
<trkpt lat="46.1553" lon="7.21377"><ele></ele><time>2016-8-30T20:53:18Z</time></trkpt>
<trkpt lat="46.15529" lon="7.21384"><ele></ele><time>2016-8-30T20:53:21Z</time></trkpt>
<trkpt lat="46.15527" lon="7.2139"><ele></ele><time>2016-8-30T20:53:24Z</time></trkpt>
<trkpt lat="46.1553" lon="7.21395"><ele></ele><time>2016-8-30T20:53:27Z</time></trkpt>
<trkpt lat="46.15533" lon="7.214"><ele></ele><time>2016-8-30T20:53:30Z</time></trkpt>
<trkpt lat="46.15536" lon="7.21405"><ele></ele><time>2016-8-30T20:53:33Z</time></trkpt>
<trkpt lat="46.15538" lon="7.2141"><ele></ele><time>2016-8-30T20:53:36Z</time></trkpt>
<trkpt lat="46.15541" lon="7.21415"><ele></ele><time>2016-8-30T20:53:39Z</time></trkpt>
<trkpt lat="46.15544" lon="7.21419"><ele></ele><time>2016-8-30T20:53:42Z</time></trkpt>
<trkpt lat="46.15547" lon="7.21424"><ele></ele><time>2016-8-30T20:53:45Z</time></trkpt>
<trkpt lat="46.1555" lon="7.21429"><ele></ele><time>2016-8-30T20:53:48Z</time></trkpt>
<trkpt lat="46.15553" lon="7.21434"><ele></ele><time>2016-8-30T20:53:51Z</time></trkpt>
<trkpt lat="46.15556" lon="7.21439"><ele></ele><time>2016-8-30T20:53:54Z</time></trkpt>
<trkpt lat="46.15557" lon="7.21441"><ele></ele><time>2016-8-30T20:53:57Z</time></trkpt>
<trkpt lat="46.15558" lon="7.21443"><ele></ele><time>2016-8-30T20:54:0Z</time></trkpt>
<trkpt lat="46.1556" lon="7.21446"><ele></ele><time>2016-8-30T20:54:3Z</time></trkpt>
<trkpt lat="46.15561" lon="7.21448"><ele></ele><time>2016-8-30T20:54:6Z</time></trkpt>
<trkpt lat="46.15564" lon="7.21452"><ele></ele><time>2016-8-30T20:54:9Z</time></trkpt>
<trkpt lat="46.15566" lon="7.21457"><ele></ele><time>2016-8-30T20:54:12Z</time></trkpt>
<trkpt lat="46.15569" lon="7.21461"><ele></ele><time>2016-8-30T20:54:15Z</time></trkpt>
<trkpt lat="46.15572" lon="7.21466"><ele></ele><time>2016-8-30T20:54:18Z</time></trkpt>
<trkpt lat="46.15575" lon="7.2147"><ele></ele><time>2016-8-30T20:54:21Z</time></trkpt>
<trkpt lat="46.15577" lon="7.21474"><ele></ele><time>2016-8-30T20:54:24Z</time></trkpt>
<trkpt lat="46.1558" lon="7.21479"><ele></ele><time>2016-8-30T20:54:27Z</time></trkpt>
<trkpt lat="46.15581" lon="7.21481"><ele></ele><time>2016-8-30T20:54:30Z</time></trkpt>
<trkpt lat="46.15583" lon="7.21483"><ele></ele><time>2016-8-30T20:54:33Z</time></trkpt>
<trkpt lat="46.15585" lon="7.21488"><ele></ele><time>2016-8-30T20:54:36Z</time></trkpt>
<trkpt lat="46.15588" lon="7.21492"><ele></ele><time>2016-8-30T20:54:39Z</time></trkpt>
<trkpt lat="46.15591" lon="7.21497"><ele></ele><time>2016-8-30T20:54:42Z</time></trkpt>
<trkpt lat="46.15594" lon="7.21501"><ele></ele><time>2016-8-30T20:54:45Z</time></trkpt>
<trkpt lat="46.15596" lon="7.21506"><ele></ele><time>2016-8-30T20:54:48Z</time></trkpt>
<trkpt lat="46.15599" lon="7.21511"><ele></ele><time>2016-8-30T20:54:51Z</time></trkpt>
<trkpt lat="46.15602" lon="7.21515"><ele></ele><time>2016-8-30T20:54:54Z</time></trkpt>
<trkpt lat="46.15604" lon="7.2152"><ele></ele><time>2016-8-30T20:54:57Z</time></trkpt>
<trkpt lat="46.15607" lon="7.21524"><ele></ele><time>2016-8-30T20:55:0Z</time></trkpt>
<trkpt lat="46.1561" lon="7.21529"><ele></ele><time>2016-8-30T20:55:3Z</time></trkpt>
<trkpt lat="46.15613" lon="7.21534"><ele></ele><time>2016-8-30T20:55:6Z</time></trkpt>
<trkpt lat="46.15615" lon="7.21538"><ele></ele><time>2016-8-30T20:55:9Z</time></trkpt>
<trkpt lat="46.15618" lon="7.21543"><ele></ele><time>2016-8-30T20:55:12Z</time></trkpt>
<trkpt lat="46.1562" lon="7.21548"><ele></ele><time>2016-8-30T20:55:15Z</time></trkpt>
<trkpt lat="46.15623" lon="7.21553"><ele></ele><time>2016-8-30T20:55:18Z</time></trkpt>
<trkpt lat="46.15625" lon="7.21557"><ele></ele><time>2016-8-30T20:55:21Z</time></trkpt>
<trkpt lat="46.15628" lon="7.21562"><ele></ele><time>2016-8-30T20:55:24Z</time></trkpt>
<trkpt lat="46.1563" lon="7.21567"><ele></ele><time>2016-8-30T20:55:27Z</time></trkpt>
<trkpt lat="46.15632" lon="7.21572"><ele></ele><time>2016-8-30T20:55:30Z</time></trkpt>
<trkpt lat="46.15634" lon="7.21574"><ele></ele><time>2016-8-30T20:55:33Z</time></trkpt>
<trkpt lat="46.15635" lon="7.21577"><ele></ele><time>2016-8-30T20:55:36Z</time></trkpt>
<trkpt lat="46.15637" lon="7.21582"><ele></ele><time>2016-8-30T20:55:39Z</time></trkpt>
<trkpt lat="46.1564" lon="7.21586"><ele></ele><time>2016-8-30T20:55:42Z</time></trkpt>
<trkpt lat="46.15642" lon="7.21591"><ele></ele><time>2016-8-30T20:55:45Z</time></trkpt>
<trkpt lat="46.15644" lon="7.21596"><ele></ele><time>2016-8-30T20:55:48Z</time></trkpt>
<trkpt lat="46.15646" lon="7.21601"><ele></ele><time>2016-8-30T20:55:51Z</time></trkpt>
<trkpt lat="46.15648" lon="7.21606"><ele></ele><time>2016-8-30T20:55:54Z</time></trkpt>
<trkpt lat="46.1565" lon="7.2161"><ele></ele><time>2016-8-30T20:55:57Z</time></trkpt>
<trkpt lat="46.15652" lon="7.21615"><ele></ele><time>2016-8-30T20:56:0Z</time></trkpt>
<trkpt lat="46.15653" lon="7.2162"><ele></ele><time>2016-8-30T20:56:3Z</time></trkpt>
<trkpt lat="46.15655" lon="7.21625"><ele></ele><time>2016-8-30T20:56:6Z</time></trkpt>
<trkpt lat="46.15657" lon="7.21629"><ele></ele><time>2016-8-30T20:56:9Z</time></trkpt>
<trkpt lat="46.15659" lon="7.21634"><ele></ele><time>2016-8-30T20:56:12Z</time></trkpt>
<trkpt lat="46.15661" lon="7.21639"><ele></ele><time>2016-8-30T20:56:15Z</time></trkpt>
<trkpt lat="46.15663" lon="7.21644"><ele></ele><time>2016-8-30T20:56:18Z</time></trkpt>
<trkpt lat="46.15664" lon="7.21649"><ele></ele><time>2016-8-30T20:56:21Z</time></trkpt>
<trkpt lat="46.15666" lon="7.21653"><ele></ele><time>2016-8-30T20:56:24Z</time></trkpt>
<trkpt lat="46.15668" lon="7.21658"><ele></ele><time>2016-8-30T20:56:27Z</time></trkpt>
<trkpt lat="46.15669" lon="7.21664"><ele></ele><time>2016-8-30T20:56:30Z</time></trkpt>
<trkpt lat="46.1567" lon="7.21666"><ele></ele><time>2016-8-30T20:56:33Z</time></trkpt>
<trkpt lat="46.15671" lon="7.21669"><ele></ele><time>2016-8-30T20:56:36Z</time></trkpt>
<trkpt lat="46.15673" lon="7.21674"><ele></ele><time>2016-8-30T20:56:39Z</time></trkpt>
<trkpt lat="46.15674" lon="7.21679"><ele></ele><time>2016-8-30T20:56:42Z</time></trkpt>
<trkpt lat="46.15676" lon="7.21684"><ele></ele><time>2016-8-30T20:56:45Z</time></trkpt>
<trkpt lat="46.15677" lon="7.21689"><ele></ele><time>2016-8-30T20:56:48Z</time></trkpt>
<trkpt lat="46.15679" lon="7.21694"><ele></ele><time>2016-8-30T20:56:51Z</time></trkpt>
<trkpt lat="46.1568" lon="7.21699"><ele></ele><time>2016-8-30T20:56:54Z</time></trkpt>
<trkpt lat="46.15682" lon="7.21704"><ele></ele><time>2016-8-30T20:56:57Z</time></trkpt>
<trkpt lat="46.15684" lon="7.2171"><ele></ele><time>2016-8-30T20:57:0Z</time></trkpt>
<trkpt lat="46.15684" lon="7.21712"><ele></ele><time>2016-8-30T20:57:3Z</time></trkpt>
<trkpt lat="46.15685" lon="7.21715"><ele></ele><time>2016-8-30T20:57:6Z</time></trkpt>
<trkpt lat="46.15689" lon="7.21719"><ele></ele><time>2016-8-30T20:57:9Z</time></trkpt>
<trkpt lat="46.15692" lon="7.21723"><ele></ele><time>2016-8-30T20:57:12Z</time></trkpt>
<trkpt lat="46.15696" lon="7.21727"><ele></ele><time>2016-8-30T20:57:15Z</time></trkpt>
<trkpt lat="46.157" lon="7.21731"><ele></ele><time>2016-8-30T20:57:18Z</time></trkpt>
<trkpt lat="46.15704" lon="7.21734"><ele></ele><time>2016-8-30T20:57:21Z</time></trkpt>
<trkpt lat="46.15707" lon="7.21738"><ele></ele><time>2016-8-30T20:57:24Z</time></trkpt>
<trkpt lat="46.15711" lon="7.21742"><ele></ele><time>2016-8-30T20:57:27Z</time></trkpt>
<trkpt lat="46.15715" lon="7.21746"><ele></ele><time>2016-8-30T20:57:30Z</time></trkpt>
<trkpt lat="46.15718" lon="7.2175"><ele></ele><time>2016-8-30T20:57:33Z</time></trkpt>
<trkpt lat="46.15722" lon="7.21754"><ele></ele><time>2016-8-30T20:57:36Z</time></trkpt>
<trkpt lat="46.15726" lon="7.21758"><ele></ele><time>2016-8-30T20:57:39Z</time></trkpt>
<trkpt lat="46.15729" lon="7.21761"><ele></ele><time>2016-8-30T20:57:42Z</time></trkpt>
<trkpt lat="46.15732" lon="7.21764"><ele></ele><time>2016-8-30T20:57:45Z</time></trkpt>
<trkpt lat="46.15736" lon="7.21768"><ele></ele><time>2016-8-30T20:57:48Z</time></trkpt>
<trkpt lat="46.15739" lon="7.21771"><ele></ele><time>2016-8-30T20:57:51Z</time></trkpt>
<trkpt lat="46.15742" lon="7.21775"><ele></ele><time>2016-8-30T20:57:54Z</time></trkpt>
<trkpt lat="46.15746" lon="7.21778"><ele></ele><time>2016-8-30T20:57:57Z</time></trkpt>
<trkpt lat="46.15749" lon="7.21781"><ele></ele><time>2016-8-30T20:58:0Z</time></trkpt>
<trkpt lat="46.15753" lon="7.21785"><ele></ele><time>2016-8-30T20:58:3Z</time></trkpt>
<trkpt lat="46.15756" lon="7.21788"><ele></ele><time>2016-8-30T20:58:6Z</time></trkpt>
<trkpt lat="46.15759" lon="7.21791"><ele></ele><time>2016-8-30T20:58:9Z</time></trkpt>
<trkpt lat="46.15762" lon="7.21795"><ele></ele><time>2016-8-30T20:58:12Z</time></trkpt>
<trkpt lat="46.15765" lon="7.21799"><ele></ele><time>2016-8-30T20:58:15Z</time></trkpt>
<trkpt lat="46.15768" lon="7.21803"><ele></ele><time>2016-8-30T20:58:18Z</time></trkpt>
<trkpt lat="46.15771" lon="7.21806"><ele></ele><time>2016-8-30T20:58:21Z</time></trkpt>
<trkpt lat="46.15774" lon="7.2181"><ele></ele><time>2016-8-30T20:58:24Z</time></trkpt>
<trkpt lat="46.15777" lon="7.21814"><ele></ele><time>2016-8-30T20:58:27Z</time></trkpt>
<trkpt lat="46.1578" lon="7.21817"><ele></ele><time>2016-8-30T20:58:30Z</time></trkpt>
<trkpt lat="46.15783" lon="7.21821"><ele></ele><time>2016-8-30T20:58:33Z</time></trkpt>
<trkpt lat="46.15786" lon="7.21825"><ele></ele><time>2016-8-30T20:58:36Z</time></trkpt>
<trkpt lat="46.15789" lon="7.21828"><ele></ele><time>2016-8-30T20:58:39Z</time></trkpt>
<trkpt lat="46.15792" lon="7.21832"><ele></ele><time>2016-8-30T20:58:42Z</time></trkpt>
<trkpt lat="46.15795" lon="7.21836"><ele></ele><time>2016-8-30T20:58:45Z</time></trkpt>
<trkpt lat="46.15798" lon="7.21839"><ele></ele><time>2016-8-30T20:58:48Z</time></trkpt>
<trkpt lat="46.15802" lon="7.21842"><ele></ele><time>2016-8-30T20:58:51Z</time></trkpt>
<trkpt lat="46.15805" lon="7.21845"><ele></ele><time>2016-8-30T20:58:54Z</time></trkpt>
<trkpt lat="46.15809" lon="7.21848"><ele></ele><time>2016-8-30T20:58:57Z</time></trkpt>
<trkpt lat="46.15812" lon="7.21851"><ele></ele><time>2016-8-30T20:59:0Z</time></trkpt>
<trkpt lat="46.15816" lon="7.21854"><ele></ele><time>2016-8-30T20:59:3Z</time></trkpt>
<trkpt lat="46.1582" lon="7.21858"><ele></ele><time>2016-8-30T20:59:6Z</time></trkpt>
<trkpt lat="46.15823" lon="7.21861"><ele></ele><time>2016-8-30T20:59:9Z</time></trkpt>
<trkpt lat="46.15821" lon="7.21866"><ele></ele><time>2016-8-30T20:59:12Z</time></trkpt>
<trkpt lat="46.15818" lon="7.21871"><ele></ele><time>2016-8-30T20:59:15Z</time></trkpt>
<trkpt lat="46.15817" lon="7.21874"><ele></ele><time>2016-8-30T20:59:18Z</time></trkpt>
<trkpt lat="46.15815" lon="7.21873"><ele></ele><time>2016-8-30T20:59:21Z</time></trkpt>
<trkpt lat="46.15811" lon="7.2187"><ele></ele><time>2016-8-30T20:59:24Z</time></trkpt>
<trkpt lat="46.15807" lon="7.21867"><ele></ele><time>2016-8-30T20:59:27Z</time></trkpt>
<trkpt lat="46.15802" lon="7.21864"><ele></ele><time>2016-8-30T20:59:30Z</time></trkpt>
<trkpt lat="46.15798" lon="7.21861"><ele></ele><time>2016-8-30T20:59:33Z</time></trkpt>
<trkpt lat="46.15794" lon="7.21858"><ele></ele><time>2016-8-30T20:59:36Z</time></trkpt>
<trkpt lat="46.1579" lon="7.21855"><ele></ele><time>2016-8-30T20:59:39Z</time></trkpt>
<trkpt lat="46.15786" lon="7.21852"><ele></ele><time>2016-8-30T20:59:42Z</time></trkpt>
<trkpt lat="46.15782" lon="7.21849"><ele></ele><time>2016-8-30T20:59:45Z</time></trkpt>
<trkpt lat="46.15778" lon="7.21847"><ele></ele><time>2016-8-30T20:59:48Z</time></trkpt>
<trkpt lat="46.15776" lon="7.21845"><ele></ele><time>2016-8-30T20:59:51Z</time></trkpt>
<trkpt lat="46.15774" lon="7.21844"><ele></ele><time>2016-8-30T20:59:54Z</time></trkpt>
<trkpt lat="46.15771" lon="7.21841"><ele></ele><time>2016-8-30T20:59:57Z</time></trkpt>
<trkpt lat="46.15768" lon="7.21838"><ele></ele><time>2016-8-30T21:0:0Z</time></trkpt>
<trkpt lat="46.15764" lon="7.21835"><ele></ele><time>2016-8-30T21:0:3Z</time></trkpt>
<trkpt lat="46.15761" lon="7.21832"><ele></ele><time>2016-8-30T21:0:6Z</time></trkpt>
<trkpt lat="46.15758" lon="7.21829"><ele></ele><time>2016-8-30T21:0:9Z</time></trkpt>
<trkpt lat="46.15755" lon="7.21826"><ele></ele><time>2016-8-30T21:0:12Z</time></trkpt>
<trkpt lat="46.15752" lon="7.21823"><ele></ele><time>2016-8-30T21:0:15Z</time></trkpt>
<trkpt lat="46.15749" lon="7.2182"><ele></ele><time>2016-8-30T21:0:18Z</time></trkpt>
<trkpt lat="46.15745" lon="7.21817"><ele></ele><time>2016-8-30T21:0:21Z</time></trkpt>
<trkpt lat="46.15742" lon="7.21815"><ele></ele><time>2016-8-30T21:0:24Z</time></trkpt>
<trkpt lat="46.15739" lon="7.21812"><ele></ele><time>2016-8-30T21:0:27Z</time></trkpt>
<trkpt lat="46.15737" lon="7.2181"><ele></ele><time>2016-8-30T21:0:30Z</time></trkpt>
<trkpt lat="46.15736" lon="7.21809"><ele></ele><time>2016-8-30T21:0:33Z</time></trkpt>
<trkpt lat="46.15734" lon="7.21807"><ele></ele><time>2016-8-30T21:0:36Z</time></trkpt>
<trkpt lat="46.15732" lon="7.21805"><ele></ele><time>2016-8-30T21:0:39Z</time></trkpt>
<trkpt lat="46.15729" lon="7.21802"><ele></ele><time>2016-8-30T21:0:42Z</time></trkpt>
<trkpt lat="46.15725" lon="7.21798"><ele></ele><time>2016-8-30T21:0:45Z</time></trkpt>
<trkpt lat="46.15722" lon="7.21795"><ele></ele><time>2016-8-30T21:0:48Z</time></trkpt>
<trkpt lat="46.15719" lon="7.21792"><ele></ele><time>2016-8-30T21:0:51Z</time></trkpt>
<trkpt lat="46.15715" lon="7.21788"><ele></ele><time>2016-8-30T21:0:54Z</time></trkpt>
<trkpt lat="46.15712" lon="7.21785"><ele></ele><time>2016-8-30T21:0:57Z</time></trkpt>
<trkpt lat="46.15708" lon="7.21781"><ele></ele><time>2016-8-30T21:1:0Z</time></trkpt>
<trkpt lat="46.15705" lon="7.21778"><ele></ele><time>2016-8-30T21:1:3Z</time></trkpt>
<trkpt lat="46.15701" lon="7.21775"><ele></ele><time>2016-8-30T21:1:6Z</time></trkpt>
<trkpt lat="46.157" lon="7.21773"><ele></ele><time>2016-8-30T21:1:9Z</time></trkpt>
<trkpt lat="46.15698" lon="7.21771"><ele></ele><time>2016-8-30T21:1:12Z</time></trkpt>
<trkpt lat="46.15695" lon="7.21768"><ele></ele><time>2016-8-30T21:1:15Z</time></trkpt>
<trkpt lat="46.15692" lon="7.21765"><ele></ele><time>2016-8-30T21:1:18Z</time></trkpt>
<trkpt lat="46.15688" lon="7.21761"><ele></ele><time>2016-8-30T21:1:21Z</time></trkpt>
<trkpt lat="46.15685" lon="7.21758"><ele></ele><time>2016-8-30T21:1:24Z</time></trkpt>
<trkpt lat="46.15682" lon="7.21755"><ele></ele><time>2016-8-30T21:1:27Z</time></trkpt>
<trkpt lat="46.15679" lon="7.21752"><ele></ele><time>2016-8-30T21:1:30Z</time></trkpt>
<trkpt lat="46.15675" lon="7.21748"><ele></ele><time>2016-8-30T21:1:33Z</time></trkpt>
<trkpt lat="46.15672" lon="7.21745"><ele></ele><time>2016-8-30T21:1:36Z</time></trkpt>
<trkpt lat="46.15669" lon="7.21742"><ele></ele><time>2016-8-30T21:1:39Z</time></trkpt>
<trkpt lat="46.15666" lon="7.21738"><ele></ele><time>2016-8-30T21:1:42Z</time></trkpt>
<trkpt lat="46.15662" lon="7.21735"><ele></ele><time>2016-8-30T21:1:45Z</time></trkpt>
<trkpt lat="46.15659" lon="7.21732"><ele></ele><time>2016-8-30T21:1:48Z</time></trkpt>
<trkpt lat="46.15655" lon="7.21729"><ele></ele><time>2016-8-30T21:1:51Z</time></trkpt>
<trkpt lat="46.15652" lon="7.21726"><ele></ele><time>2016-8-30T21:1:54Z</time></trkpt>
<trkpt lat="46.15648" lon="7.21722"><ele></ele><time>2016-8-30T21:1:57Z</time></trkpt>
<trkpt lat="46.15645" lon="7.21719"><ele></ele><time>2016-8-30T21:2:0Z</time></trkpt>
<trkpt lat="46.15641" lon="7.21716"><ele></ele><time>2016-8-30T21:2:3Z</time></trkpt>
<trkpt lat="46.15638" lon="7.21713"><ele></ele><time>2016-8-30T21:2:6Z</time></trkpt>
<trkpt lat="46.15634" lon="7.2171"><ele></ele><time>2016-8-30T21:2:9Z</time></trkpt>
<trkpt lat="46.15631" lon="7.21707"><ele></ele><time>2016-8-30T21:2:12Z</time></trkpt>
<trkpt lat="46.15627" lon="7.21703"><ele></ele><time>2016-8-30T21:2:15Z</time></trkpt>
<trkpt lat="46.15624" lon="7.217"><ele></ele><time>2016-8-30T21:2:18Z</time></trkpt>
<trkpt lat="46.15621" lon="7.21696"><ele></ele><time>2016-8-30T21:2:21Z</time></trkpt>
<trkpt lat="46.15617" lon="7.21693"><ele></ele><time>2016-8-30T21:2:24Z</time></trkpt>
<trkpt lat="46.15614" lon="7.21689"><ele></ele><time>2016-8-30T21:2:27Z</time></trkpt>
<trkpt lat="46.15611" lon="7.21685"><ele></ele><time>2016-8-30T21:2:30Z</time></trkpt>
<trkpt lat="46.15608" lon="7.21681"><ele></ele><time>2016-8-30T21:2:33Z</time></trkpt>
<trkpt lat="46.15605" lon="7.21677"><ele></ele><time>2016-8-30T21:2:36Z</time></trkpt>
<trkpt lat="46.15602" lon="7.21673"><ele></ele><time>2016-8-30T21:2:39Z</time></trkpt>
<trkpt lat="46.15599" lon="7.2167"><ele></ele><time>2016-8-30T21:2:42Z</time></trkpt>
<trkpt lat="46.15596" lon="7.21666"><ele></ele><time>2016-8-30T21:2:45Z</time></trkpt>
<trkpt lat="46.15592" lon="7.21662"><ele></ele><time>2016-8-30T21:2:48Z</time></trkpt>
<trkpt lat="46.15589" lon="7.21658"><ele></ele><time>2016-8-30T21:2:51Z</time></trkpt>
<trkpt lat="46.15586" lon="7.21654"><ele></ele><time>2016-8-30T21:2:54Z</time></trkpt>
<trkpt lat="46.15584" lon="7.2165"><ele></ele><time>2016-8-30T21:2:57Z</time></trkpt>
<trkpt lat="46.15581" lon="7.21646"><ele></ele><time>2016-8-30T21:3:0Z</time></trkpt>
<trkpt lat="46.15579" lon="7.21644"><ele></ele><time>2016-8-30T21:3:3Z</time></trkpt>
<trkpt lat="46.15578" lon="7.21642"><ele></ele><time>2016-8-30T21:3:6Z</time></trkpt>
<trkpt lat="46.15575" lon="7.21639"><ele></ele><time>2016-8-30T21:3:9Z</time></trkpt>
<trkpt lat="46.15572" lon="7.21635"><ele></ele><time>2016-8-30T21:3:12Z</time></trkpt>
<trkpt lat="46.15569" lon="7.21631"><ele></ele><time>2016-8-30T21:3:15Z</time></trkpt>
<trkpt lat="46.15566" lon="7.21627"><ele></ele><time>2016-8-30T21:3:18Z</time></trkpt>
<trkpt lat="46.15564" lon="7.21623"><ele></ele><time>2016-8-30T21:3:21Z</time></trkpt>
<trkpt lat="46.15561" lon="7.21619"><ele></ele><time>2016-8-30T21:3:24Z</time></trkpt>
<trkpt lat="46.15558" lon="7.21615"><ele></ele><time>2016-8-30T21:3:27Z</time></trkpt>
<trkpt lat="46.15555" lon="7.21611"><ele></ele><time>2016-8-30T21:3:30Z</time></trkpt>
<trkpt lat="46.15552" lon="7.21607"><ele></ele><time>2016-8-30T21:3:33Z</time></trkpt>
<trkpt lat="46.15548" lon="7.21604"><ele></ele><time>2016-8-30T21:3:36Z</time></trkpt>
<trkpt lat="46.15545" lon="7.216"><ele></ele><time>2016-8-30T21:3:39Z</time></trkpt>
<trkpt lat="46.15542" lon="7.21596"><ele></ele><time>2016-8-30T21:3:42Z</time></trkpt>
<trkpt lat="46.15539" lon="7.21592"><ele></ele><time>2016-8-30T21:3:45Z</time></trkpt>
<trkpt lat="46.15535" lon="7.21588"><ele></ele><time>2016-8-30T21:3:48Z</time></trkpt>
<trkpt lat="46.15532" lon="7.21585"><ele></ele><time>2016-8-30T21:3:51Z</time></trkpt>
<trkpt lat="46.15529" lon="7.21581"><ele></ele><time>2016-8-30T21:3:54Z</time></trkpt>
<trkpt lat="46.15525" lon="7.21577"><ele></ele><time>2016-8-30T21:3:57Z</time></trkpt>
<trkpt lat="46.15522" lon="7.21573"><ele></ele><time>2016-8-30T21:4:0Z</time></trkpt>
<trkpt lat="46.1552" lon="7.21571"><ele></ele><time>2016-8-30T21:4:3Z</time></trkpt>
<trkpt lat="46.15519" lon="7.21572"><ele></ele><time>2016-8-30T21:4:6Z</time></trkpt>
<trkpt lat="46.15515" lon="7.21575"><ele></ele><time>2016-8-30T21:4:9Z</time></trkpt>
<trkpt lat="46.15511" lon="7.21577"><ele></ele><time>2016-8-30T21:4:12Z</time></trkpt>
<trkpt lat="46.15514" lon="7.21582"><ele></ele><time>2016-8-30T21:4:15Z</time></trkpt>
<trkpt lat="46.15517" lon="7.21587"><ele></ele><time>2016-8-30T21:4:18Z</time></trkpt>
<trkpt lat="46.15519" lon="7.21592"><ele></ele><time>2016-8-30T21:4:21Z</time></trkpt>
<trkpt lat="46.15522" lon="7.21597"><ele></ele><time>2016-8-30T21:4:24Z</time></trkpt>
<trkpt lat="46.15525" lon="7.21602"><ele></ele><time>2016-8-30T21:4:27Z</time></trkpt>
<trkpt lat="46.15528" lon="7.21607"><ele></ele><time>2016-8-30T21:4:30Z</time></trkpt>
<trkpt lat="46.15531" lon="7.21612"><ele></ele><time>2016-8-30T21:4:33Z</time></trkpt>
<trkpt lat="46.15533" lon="7.21616"><ele></ele><time>2016-8-30T21:4:36Z</time></trkpt>
<trkpt lat="46.15536" lon="7.21621"><ele></ele><time>2016-8-30T21:4:39Z</time></trkpt>
<trkpt lat="46.15539" lon="7.21626"><ele></ele><time>2016-8-30T21:4:42Z</time></trkpt>
<trkpt lat="46.1554" lon="7.21629"><ele></ele><time>2016-8-30T21:4:45Z</time></trkpt>
<trkpt lat="46.15541" lon="7.21631"><ele></ele><time>2016-8-30T21:4:48Z</time></trkpt>
<trkpt lat="46.15542" lon="7.21634"><ele></ele><time>2016-8-30T21:4:51Z</time></trkpt>
<trkpt lat="46.15543" lon="7.21636"><ele></ele><time>2016-8-30T21:4:54Z</time></trkpt>
<trkpt lat="46.15546" lon="7.21641"><ele></ele><time>2016-8-30T21:4:57Z</time></trkpt>
<trkpt lat="46.15548" lon="7.21646"><ele></ele><time>2016-8-30T21:5:0Z</time></trkpt>
<trkpt lat="46.1555" lon="7.21651"><ele></ele><time>2016-8-30T21:5:3Z</time></trkpt>
<trkpt lat="46.15552" lon="7.21655"><ele></ele><time>2016-8-30T21:5:6Z</time></trkpt>
<trkpt lat="46.15554" lon="7.2166"><ele></ele><time>2016-8-30T21:5:9Z</time></trkpt>
<trkpt lat="46.15556" lon="7.21665"><ele></ele><time>2016-8-30T21:5:12Z</time></trkpt>
<trkpt lat="46.15558" lon="7.2167"><ele></ele><time>2016-8-30T21:5:15Z</time></trkpt>
<trkpt lat="46.1556" lon="7.21675"><ele></ele><time>2016-8-30T21:5:18Z</time></trkpt>
<trkpt lat="46.15562" lon="7.2168"><ele></ele><time>2016-8-30T21:5:21Z</time></trkpt>
<trkpt lat="46.15564" lon="7.21685"><ele></ele><time>2016-8-30T21:5:24Z</time></trkpt>
<trkpt lat="46.15564" lon="7.21687"><ele></ele><time>2016-8-30T21:5:27Z</time></trkpt>
<trkpt lat="46.15565" lon="7.2169"><ele></ele><time>2016-8-30T21:5:30Z</time></trkpt>
<trkpt lat="46.15567" lon="7.21695"><ele></ele><time>2016-8-30T21:5:33Z</time></trkpt>
<trkpt lat="46.15568" lon="7.21699"><ele></ele><time>2016-8-30T21:5:36Z</time></trkpt>
<trkpt lat="46.15569" lon="7.21704"><ele></ele><time>2016-8-30T21:5:39Z</time></trkpt>
<trkpt lat="46.15571" lon="7.21709"><ele></ele><time>2016-8-30T21:5:42Z</time></trkpt>
<trkpt lat="46.15572" lon="7.21714"><ele></ele><time>2016-8-30T21:5:45Z</time></trkpt>
<trkpt lat="46.15574" lon="7.21719"><ele></ele><time>2016-8-30T21:5:48Z</time></trkpt>
<trkpt lat="46.15575" lon="7.21724"><ele></ele><time>2016-8-30T21:5:51Z</time></trkpt>
<trkpt lat="46.15576" lon="7.21729"><ele></ele><time>2016-8-30T21:5:54Z</time></trkpt>
<trkpt lat="46.15578" lon="7.21734"><ele></ele><time>2016-8-30T21:5:57Z</time></trkpt>
<trkpt lat="46.15579" lon="7.21739"><ele></ele><time>2016-8-30T21:6:0Z</time></trkpt>
<trkpt lat="46.15581" lon="7.21744"><ele></ele><time>2016-8-30T21:6:3Z</time></trkpt>
<trkpt lat="46.15581" lon="7.21746"><ele></ele><time>2016-8-30T21:6:6Z</time></trkpt>
<trkpt lat="46.15583" lon="7.21749"><ele></ele><time>2016-8-30T21:6:9Z</time></trkpt>
<trkpt lat="46.15585" lon="7.21753"><ele></ele><time>2016-8-30T21:6:12Z</time></trkpt>
<trkpt lat="46.15588" lon="7.21758"><ele></ele><time>2016-8-30T21:6:15Z</time></trkpt>
<trkpt lat="46.1559" lon="7.21762"><ele></ele><time>2016-8-30T21:6:18Z</time></trkpt>
<trkpt lat="46.15593" lon="7.21767"><ele></ele><time>2016-8-30T21:6:21Z</time></trkpt>
<trkpt lat="46.15594" lon="7.21769"><ele></ele><time>2016-8-30T21:6:24Z</time></trkpt>
<trkpt lat="46.15595" lon="7.21772"><ele></ele><time>2016-8-30T21:6:27Z</time></trkpt>
<trkpt lat="46.15598" lon="7.21776"><ele></ele><time>2016-8-30T21:6:30Z</time></trkpt>
<trkpt lat="46.15601" lon="7.21781"><ele></ele><time>2016-8-30T21:6:33Z</time></trkpt>
<trkpt lat="46.15603" lon="7.21785"><ele></ele><time>2016-8-30T21:6:36Z</time></trkpt>
<trkpt lat="46.15606" lon="7.2179"><ele></ele><time>2016-8-30T21:6:39Z</time></trkpt>
<trkpt lat="46.15608" lon="7.21794"><ele></ele><time>2016-8-30T21:6:42Z</time></trkpt>
<trkpt lat="46.1561" lon="7.21797"><ele></ele><time>2016-8-30T21:6:45Z</time></trkpt>
<trkpt lat="46.15611" lon="7.21799"><ele></ele><time>2016-8-30T21:6:48Z</time></trkpt>
<trkpt lat="46.15614" lon="7.21802"><ele></ele><time>2016-8-30T21:6:51Z</time></trkpt>
<trkpt lat="46.15617" lon="7.21806"><ele></ele><time>2016-8-30T21:6:54Z</time></trkpt>
<trkpt lat="46.15621" lon="7.21809"><ele></ele><time>2016-8-30T21:6:57Z</time></trkpt>
<trkpt lat="46.15624" lon="7.21813"><ele></ele><time>2016-8-30T21:7:0Z</time></trkpt>
<trkpt lat="46.15627" lon="7.21817"><ele></ele><time>2016-8-30T21:7:3Z</time></trkpt>
<trkpt lat="46.1563" lon="7.2182"><ele></ele><time>2016-8-30T21:7:6Z</time></trkpt>
<trkpt lat="46.15633" lon="7.21824"><ele></ele><time>2016-8-30T21:7:9Z</time></trkpt>
<trkpt lat="46.15636" lon="7.21827"><ele></ele><time>2016-8-30T21:7:12Z</time></trkpt>
<trkpt lat="46.15639" lon="7.21831"><ele></ele><time>2016-8-30T21:7:15Z</time></trkpt>
<trkpt lat="46.15643" lon="7.21835"><ele></ele><time>2016-8-30T21:7:18Z</time></trkpt>
<trkpt lat="46.15644" lon="7.21837"><ele></ele><time>2016-8-30T21:7:21Z</time></trkpt>
<trkpt lat="46.15646" lon="7.21838"><ele></ele><time>2016-8-30T21:7:24Z</time></trkpt>
<trkpt lat="46.15649" lon="7.21842"><ele></ele><time>2016-8-30T21:7:27Z</time></trkpt>
<trkpt lat="46.15652" lon="7.21845"><ele></ele><time>2016-8-30T21:7:30Z</time></trkpt>
<trkpt lat="46.15655" lon="7.21849"><ele></ele><time>2016-8-30T21:7:33Z</time></trkpt>
<trkpt lat="46.15658" lon="7.21852"><ele></ele><time>2016-8-30T21:7:36Z</time></trkpt>
<trkpt lat="46.15661" lon="7.21856"><ele></ele><time>2016-8-30T21:7:39Z</time></trkpt>
<trkpt lat="46.15664" lon="7.2186"><ele></ele><time>2016-8-30T21:7:42Z</time></trkpt>
<trkpt lat="46.15667" lon="7.21863"><ele></ele><time>2016-8-30T21:7:45Z</time></trkpt>
<trkpt lat="46.15668" lon="7.21865"><ele></ele><time>2016-8-30T21:7:48Z</time></trkpt>
<trkpt lat="46.1567" lon="7.21867"><ele></ele><time>2016-8-30T21:7:51Z</time></trkpt>
<trkpt lat="46.15673" lon="7.2187"><ele></ele><time>2016-8-30T21:7:54Z</time></trkpt>
<trkpt lat="46.15676" lon="7.21874"><ele></ele><time>2016-8-30T21:7:57Z</time></trkpt>
<trkpt lat="46.15679" lon="7.21877"><ele></ele><time>2016-8-30T21:8:0Z</time></trkpt>
<trkpt lat="46.15682" lon="7.21881"><ele></ele><time>2016-8-30T21:8:3Z</time></trkpt>
<trkpt lat="46.15685" lon="7.21884"><ele></ele><time>2016-8-30T21:8:6Z</time></trkpt>
<trkpt lat="46.15688" lon="7.21887"><ele></ele><time>2016-8-30T21:8:9Z</time></trkpt>
<trkpt lat="46.15692" lon="7.2189"><ele></ele><time>2016-8-30T21:8:12Z</time></trkpt>
<trkpt lat="46.15695" lon="7.21894"><ele></ele><time>2016-8-30T21:8:15Z</time></trkpt>
<trkpt lat="46.15697" lon="7.21895"><ele></ele><time>2016-8-30T21:8:18Z</time></trkpt>
<trkpt lat="46.15698" lon="7.21897"><ele></ele><time>2016-8-30T21:8:21Z</time></trkpt>
<trkpt lat="46.15702" lon="7.219"><ele></ele><time>2016-8-30T21:8:24Z</time></trkpt>
<trkpt lat="46.15705" lon="7.21903"><ele></ele><time>2016-8-30T21:8:27Z</time></trkpt>
<trkpt lat="46.15708" lon="7.21906"><ele></ele><time>2016-8-30T21:8:30Z</time></trkpt>
<trkpt lat="46.15712" lon="7.2191"><ele></ele><time>2016-8-30T21:8:33Z</time></trkpt>
<trkpt lat="46.15715" lon="7.21913"><ele></ele><time>2016-8-30T21:8:36Z</time></trkpt>
<trkpt lat="46.15718" lon="7.21916"><ele></ele><time>2016-8-30T21:8:39Z</time></trkpt>
<trkpt lat="46.1572" lon="7.21918"><ele></ele><time>2016-8-30T21:8:42Z</time></trkpt>
<trkpt lat="46.15722" lon="7.21919"><ele></ele><time>2016-8-30T21:8:45Z</time></trkpt>
<trkpt lat="46.15725" lon="7.21923"><ele></ele><time>2016-8-30T21:8:48Z</time></trkpt>
<trkpt lat="46.15728" lon="7.21926"><ele></ele><time>2016-8-30T21:8:51Z</time></trkpt>
<trkpt lat="46.15731" lon="7.2193"><ele></ele><time>2016-8-30T21:8:54Z</time></trkpt>
<trkpt lat="46.15734" lon="7.21934"><ele></ele><time>2016-8-30T21:8:57Z</time></trkpt>
<trkpt lat="46.15737" lon="7.21937"><ele></ele><time>2016-8-30T21:9:0Z</time></trkpt>
<trkpt lat="46.15741" lon="7.21941"><ele></ele><time>2016-8-30T21:9:3Z</time></trkpt>
<trkpt lat="46.15744" lon="7.21944"><ele></ele><time>2016-8-30T21:9:6Z</time></trkpt>
<trkpt lat="46.15747" lon="7.21948"><ele></ele><time>2016-8-30T21:9:9Z</time></trkpt>
<trkpt lat="46.1575" lon="7.21951"><ele></ele><time>2016-8-30T21:9:12Z</time></trkpt>
<trkpt lat="46.15753" lon="7.21955"><ele></ele><time>2016-8-30T21:9:15Z</time></trkpt>
<trkpt lat="46.15756" lon="7.21958"><ele></ele><time>2016-8-30T21:9:18Z</time></trkpt>
<trkpt lat="46.15759" lon="7.21962"><ele></ele><time>2016-8-30T21:9:21Z</time></trkpt>
<trkpt lat="46.15763" lon="7.21965"><ele></ele><time>2016-8-30T21:9:24Z</time></trkpt>
<trkpt lat="46.15766" lon="7.21968"><ele></ele><time>2016-8-30T21:9:27Z</time></trkpt>
<trkpt lat="46.15769" lon="7.21971"><ele></ele><time>2016-8-30T21:9:30Z</time></trkpt>
<trkpt lat="46.15773" lon="7.21975"><ele></ele><time>2016-8-30T21:9:33Z</time></trkpt>
<trkpt lat="46.15776" lon="7.21978"><ele></ele><time>2016-8-30T21:9:36Z</time></trkpt>
<trkpt lat="46.15779" lon="7.21981"><ele></ele><time>2016-8-30T21:9:39Z</time></trkpt>
<trkpt lat="46.15783" lon="7.21984"><ele></ele><time>2016-8-30T21:9:42Z</time></trkpt>
<trkpt lat="46.15786" lon="7.21988"><ele></ele><time>2016-8-30T21:9:45Z</time></trkpt>
<trkpt lat="46.15789" lon="7.21991"><ele></ele><time>2016-8-30T21:9:48Z</time></trkpt>
<trkpt lat="46.15792" lon="7.21994"><ele></ele><time>2016-8-30T21:9:51Z</time></trkpt>
<trkpt lat="46.15794" lon="7.21996"><ele></ele><time>2016-8-30T21:9:54Z</time></trkpt>
<trkpt lat="46.15796" lon="7.21998"><ele></ele><time>2016-8-30T21:9:57Z</time></trkpt>
<trkpt lat="46.15799" lon="7.22001"><ele></ele><time>2016-8-30T21:10:0Z</time></trkpt>
<trkpt lat="46.15802" lon="7.22005"><ele></ele><time>2016-8-30T21:10:3Z</time></trkpt>
<trkpt lat="46.15804" lon="7.22008"><ele></ele><time>2016-8-30T21:10:6Z</time></trkpt>
<trkpt lat="46.15806" lon="7.2201"><ele></ele><time>2016-8-30T21:10:9Z</time></trkpt>
<trkpt lat="46.15807" lon="7.22012"><ele></ele><time>2016-8-30T21:10:12Z</time></trkpt>
<trkpt lat="46.1581" lon="7.22016"><ele></ele><time>2016-8-30T21:10:15Z</time></trkpt>
<trkpt lat="46.15813" lon="7.22019"><ele></ele><time>2016-8-30T21:10:18Z</time></trkpt>
<trkpt lat="46.15816" lon="7.22023"><ele></ele><time>2016-8-30T21:10:21Z</time></trkpt>
<trkpt lat="46.15819" lon="7.22026"><ele></ele><time>2016-8-30T21:10:24Z</time></trkpt>
<trkpt lat="46.15822" lon="7.2203"><ele></ele><time>2016-8-30T21:10:27Z</time></trkpt>
<trkpt lat="46.15825" lon="7.22034"><ele></ele><time>2016-8-30T21:10:30Z</time></trkpt>
<trkpt lat="46.15828" lon="7.22037"><ele></ele><time>2016-8-30T21:10:33Z</time></trkpt>
<trkpt lat="46.15829" lon="7.22039"><ele></ele><time>2016-8-30T21:10:36Z</time></trkpt>
<trkpt lat="46.15831" lon="7.22041"><ele></ele><time>2016-8-30T21:10:39Z</time></trkpt>
<trkpt lat="46.15833" lon="7.22046"><ele></ele><time>2016-8-30T21:10:42Z</time></trkpt>
<trkpt lat="46.15835" lon="7.22051"><ele></ele><time>2016-8-30T21:10:45Z</time></trkpt>
<trkpt lat="46.15837" lon="7.22053"><ele></ele><time>2016-8-30T21:10:48Z</time></trkpt>
<trkpt lat="46.15838" lon="7.22056"><ele></ele><time>2016-8-30T21:10:51Z</time></trkpt>
<trkpt lat="46.1584" lon="7.2206"><ele></ele><time>2016-8-30T21:10:54Z</time></trkpt>
<trkpt lat="46.15843" lon="7.22065"><ele></ele><time>2016-8-30T21:10:57Z</time></trkpt>
<trkpt lat="46.15845" lon="7.2207"><ele></ele><time>2016-8-30T21:11:0Z</time></trkpt>
<trkpt lat="46.15847" lon="7.22075"><ele></ele><time>2016-8-30T21:11:3Z</time></trkpt>
<trkpt lat="46.1585" lon="7.22079"><ele></ele><time>2016-8-30T21:11:6Z</time></trkpt>
<trkpt lat="46.15852" lon="7.22084"><ele></ele><time>2016-8-30T21:11:9Z</time></trkpt>
<trkpt lat="46.15855" lon="7.22089"><ele></ele><time>2016-8-30T21:11:12Z</time></trkpt>
<trkpt lat="46.15857" lon="7.22094"><ele></ele><time>2016-8-30T21:11:15Z</time></trkpt>
<trkpt lat="46.1586" lon="7.22099"><ele></ele><time>2016-8-30T21:11:18Z</time></trkpt>
<trkpt lat="46.15862" lon="7.22104"><ele></ele><time>2016-8-30T21:11:21Z</time></trkpt>
<trkpt lat="46.15864" lon="7.22106"><ele></ele><time>2016-8-30T21:11:24Z</time></trkpt>
<trkpt lat="46.15865" lon="7.22109"><ele></ele><time>2016-8-30T21:11:27Z</time></trkpt>
<trkpt lat="46.15868" lon="7.22114"><ele></ele><time>2016-8-30T21:11:30Z</time></trkpt>
<trkpt lat="46.1587" lon="7.22119"><ele></ele><time>2016-8-30T21:11:33Z</time></trkpt>
<trkpt lat="46.15873" lon="7.22124"><ele></ele><time>2016-8-30T21:11:36Z</time></trkpt>
<trkpt lat="46.15876" lon="7.2213"><ele></ele><time>2016-8-30T21:11:39Z</time></trkpt>
<trkpt lat="46.15878" lon="7.22135"><ele></ele><time>2016-8-30T21:11:42Z</time></trkpt>
<trkpt lat="46.15881" lon="7.2214"><ele></ele><time>2016-8-30T21:11:45Z</time></trkpt>
<trkpt lat="46.15882" lon="7.22142"><ele></ele><time>2016-8-30T21:11:48Z</time></trkpt>
<trkpt lat="46.15882" lon="7.22144"><ele></ele><time>2016-8-30T21:11:51Z</time></trkpt>
<trkpt lat="46.1588" lon="7.22149"><ele></ele><time>2016-8-30T21:11:54Z</time></trkpt>
<trkpt lat="46.15879" lon="7.22151"><ele></ele><time>2016-8-30T21:11:57Z</time></trkpt>
<trkpt lat="46.15878" lon="7.22149"><ele></ele><time>2016-8-30T21:12:0Z</time></trkpt>
<trkpt lat="46.15875" lon="7.22145"><ele></ele><time>2016-8-30T21:12:3Z</time></trkpt>
<trkpt lat="46.15872" lon="7.22141"><ele></ele><time>2016-8-30T21:12:6Z</time></trkpt>
<trkpt lat="46.15869" lon="7.22137"><ele></ele><time>2016-8-30T21:12:9Z</time></trkpt>
<trkpt lat="46.15866" lon="7.22133"><ele></ele><time>2016-8-30T21:12:12Z</time></trkpt>
<trkpt lat="46.15863" lon="7.22129"><ele></ele><time>2016-8-30T21:12:15Z</time></trkpt>
<trkpt lat="46.1586" lon="7.22125"><ele></ele><time>2016-8-30T21:12:18Z</time></trkpt>
<trkpt lat="46.15857" lon="7.22121"><ele></ele><time>2016-8-30T21:12:21Z</time></trkpt>
<trkpt lat="46.15854" lon="7.22117"><ele></ele><time>2016-8-30T21:12:24Z</time></trkpt>
<trkpt lat="46.15851" lon="7.22113"><ele></ele><time>2016-8-30T21:12:27Z</time></trkpt>
<trkpt lat="46.15848" lon="7.22109"><ele></ele><time>2016-8-30T21:12:30Z</time></trkpt>
<trkpt lat="46.15845" lon="7.22105"><ele></ele><time>2016-8-30T21:12:33Z</time></trkpt>
<trkpt lat="46.15843" lon="7.22102"><ele></ele><time>2016-8-30T21:12:36Z</time></trkpt>
<trkpt lat="46.1584" lon="7.22098"><ele></ele><time>2016-8-30T21:12:39Z</time></trkpt>
<trkpt lat="46.15837" lon="7.22095"><ele></ele><time>2016-8-30T21:12:42Z</time></trkpt>
<trkpt lat="46.15835" lon="7.22091"><ele></ele><time>2016-8-30T21:12:45Z</time></trkpt>
<trkpt lat="46.15833" lon="7.22089"><ele></ele><time>2016-8-30T21:12:48Z</time></trkpt>
<trkpt lat="46.15832" lon="7.22087"><ele></ele><time>2016-8-30T21:12:51Z</time></trkpt>
<trkpt lat="46.1583" lon="7.22084"><ele></ele><time>2016-8-30T21:12:54Z</time></trkpt>
<trkpt lat="46.15827" lon="7.2208"><ele></ele><time>2016-8-30T21:12:57Z</time></trkpt>
<trkpt lat="46.15824" lon="7.22077"><ele></ele><time>2016-8-30T21:13:0Z</time></trkpt>
<trkpt lat="46.15822" lon="7.22073"><ele></ele><time>2016-8-30T21:13:3Z</time></trkpt>
<trkpt lat="46.15819" lon="7.22069"><ele></ele><time>2016-8-30T21:13:6Z</time></trkpt>
<trkpt lat="46.15816" lon="7.22066"><ele></ele><time>2016-8-30T21:13:9Z</time></trkpt>
<trkpt lat="46.15814" lon="7.22062"><ele></ele><time>2016-8-30T21:13:12Z</time></trkpt>
<trkpt lat="46.15813" lon="7.2206"><ele></ele><time>2016-8-30T21:13:15Z</time></trkpt>
<trkpt lat="46.15811" lon="7.22059"><ele></ele><time>2016-8-30T21:13:18Z</time></trkpt>
<trkpt lat="46.15808" lon="7.22057"><ele></ele><time>2016-8-30T21:13:21Z</time></trkpt>
<trkpt lat="46.15805" lon="7.22054"><ele></ele><time>2016-8-30T21:13:24Z</time></trkpt>
<trkpt lat="46.15803" lon="7.22053"><ele></ele><time>2016-8-30T21:13:27Z</time></trkpt>
<trkpt lat="46.15802" lon="7.22051"><ele></ele><time>2016-8-30T21:13:30Z</time></trkpt>
<trkpt lat="46.15799" lon="7.22049"><ele></ele><time>2016-8-30T21:13:33Z</time></trkpt>
<trkpt lat="46.15796" lon="7.22046"><ele></ele><time>2016-8-30T21:13:36Z</time></trkpt>
<trkpt lat="46.15792" lon="7.22044"><ele></ele><time>2016-8-30T21:13:39Z</time></trkpt>
<trkpt lat="46.15789" lon="7.22041"><ele></ele><time>2016-8-30T21:13:42Z</time></trkpt>
<trkpt lat="46.15786" lon="7.22038"><ele></ele><time>2016-8-30T21:13:45Z</time></trkpt>
<trkpt lat="46.15783" lon="7.22036"><ele></ele><time>2016-8-30T21:13:48Z</time></trkpt>
<trkpt lat="46.1578" lon="7.22033"><ele></ele><time>2016-8-30T21:13:51Z</time></trkpt>
<trkpt lat="46.15777" lon="7.22031"><ele></ele><time>2016-8-30T21:13:54Z</time></trkpt>
<trkpt lat="46.15774" lon="7.22028"><ele></ele><time>2016-8-30T21:13:57Z</time></trkpt>
<trkpt lat="46.15772" lon="7.22027"><ele></ele><time>2016-8-30T21:14:0Z</time></trkpt>
<trkpt lat="46.1577" lon="7.22026"><ele></ele><time>2016-8-30T21:14:3Z</time></trkpt>
<trkpt lat="46.15767" lon="7.22024"><ele></ele><time>2016-8-30T21:14:6Z</time></trkpt>
<trkpt lat="46.15763" lon="7.22023"><ele></ele><time>2016-8-30T21:14:9Z</time></trkpt>
<trkpt lat="46.15759" lon="7.22021"><ele></ele><time>2016-8-30T21:14:12Z</time></trkpt>
<trkpt lat="46.15755" lon="7.22019"><ele></ele><time>2016-8-30T21:14:15Z</time></trkpt>
<trkpt lat="46.15751" lon="7.22017"><ele></ele><time>2016-8-30T21:14:18Z</time></trkpt>
<trkpt lat="46.15747" lon="7.22016"><ele></ele><time>2016-8-30T21:14:21Z</time></trkpt>
<trkpt lat="46.15744" lon="7.22014"><ele></ele><time>2016-8-30T21:14:24Z</time></trkpt>
<trkpt lat="46.1574" lon="7.22012"><ele></ele><time>2016-8-30T21:14:27Z</time></trkpt>
<trkpt lat="46.15736" lon="7.22011"><ele></ele><time>2016-8-30T21:14:30Z</time></trkpt>
<trkpt lat="46.15732" lon="7.22009"><ele></ele><time>2016-8-30T21:14:33Z</time></trkpt>
<trkpt lat="46.15728" lon="7.22007"><ele></ele><time>2016-8-30T21:14:36Z</time></trkpt>
<trkpt lat="46.15724" lon="7.22007"><ele></ele><time>2016-8-30T21:14:39Z</time></trkpt>
<trkpt lat="46.15721" lon="7.22007"><ele></ele><time>2016-8-30T21:14:42Z</time></trkpt>
<trkpt lat="46.15717" lon="7.22006"><ele></ele><time>2016-8-30T21:14:45Z</time></trkpt>
<trkpt lat="46.15713" lon="7.22006"><ele></ele><time>2016-8-30T21:14:48Z</time></trkpt>
<trkpt lat="46.15709" lon="7.22006"><ele></ele><time>2016-8-30T21:14:51Z</time></trkpt>
<trkpt lat="46.15705" lon="7.22005"><ele></ele><time>2016-8-30T21:14:54Z</time></trkpt>
<trkpt lat="46.15703" lon="7.22005"><ele></ele><time>2016-8-30T21:14:57Z</time></trkpt>
<trkpt lat="46.15701" lon="7.22005"><ele></ele><time>2016-8-30T21:15:0Z</time></trkpt>
<trkpt lat="46.15697" lon="7.22005"><ele></ele><time>2016-8-30T21:15:3Z</time></trkpt>
<trkpt lat="46.15694" lon="7.22004"><ele></ele><time>2016-8-30T21:15:6Z</time></trkpt>
<trkpt lat="46.1569" lon="7.22004"><ele></ele><time>2016-8-30T21:15:9Z</time></trkpt>
<trkpt lat="46.15686" lon="7.22004"><ele></ele><time>2016-8-30T21:15:12Z</time></trkpt>
<trkpt lat="46.15682" lon="7.22003"><ele></ele><time>2016-8-30T21:15:15Z</time></trkpt>
<trkpt lat="46.15678" lon="7.22002"><ele></ele><time>2016-8-30T21:15:18Z</time></trkpt>
<trkpt lat="46.15674" lon="7.22001"><ele></ele><time>2016-8-30T21:15:21Z</time></trkpt>
<trkpt lat="46.15671" lon="7.21999"><ele></ele><time>2016-8-30T21:15:24Z</time></trkpt>
<trkpt lat="46.15667" lon="7.21998"><ele></ele><time>2016-8-30T21:15:27Z</time></trkpt>
<trkpt lat="46.15663" lon="7.21996"><ele></ele><time>2016-8-30T21:15:30Z</time></trkpt>
<trkpt lat="46.1566" lon="7.21995"><ele></ele><time>2016-8-30T21:15:33Z</time></trkpt>
<trkpt lat="46.15656" lon="7.21993"><ele></ele><time>2016-8-30T21:15:36Z</time></trkpt>
<trkpt lat="46.15652" lon="7.21992"><ele></ele><time>2016-8-30T21:15:39Z</time></trkpt>
<trkpt lat="46.15648" lon="7.21991"><ele></ele><time>2016-8-30T21:15:42Z</time></trkpt>
<trkpt lat="46.15645" lon="7.21989"><ele></ele><time>2016-8-30T21:15:45Z</time></trkpt>
<trkpt lat="46.15641" lon="7.21988"><ele></ele><time>2016-8-30T21:15:48Z</time></trkpt>
<trkpt lat="46.15637" lon="7.21986"><ele></ele><time>2016-8-30T21:15:51Z</time></trkpt>
<trkpt lat="46.15634" lon="7.21985"><ele></ele><time>2016-8-30T21:15:54Z</time></trkpt>
<trkpt lat="46.15631" lon="7.21983"><ele></ele><time>2016-8-30T21:15:57Z</time></trkpt>
<trkpt lat="46.15628" lon="7.21981"><ele></ele><time>2016-8-30T21:16:0Z</time></trkpt>
<trkpt lat="46.15624" lon="7.21979"><ele></ele><time>2016-8-30T21:16:3Z</time></trkpt>
<trkpt lat="46.15621" lon="7.21977"><ele></ele><time>2016-8-30T21:16:6Z</time></trkpt>
<trkpt lat="46.15618" lon="7.21976"><ele></ele><time>2016-8-30T21:16:9Z</time></trkpt>
<trkpt lat="46.15615" lon="7.21974"><ele></ele><time>2016-8-30T21:16:12Z</time></trkpt>
<trkpt lat="46.15611" lon="7.21972"><ele></ele><time>2016-8-30T21:16:15Z</time></trkpt>
<trkpt lat="46.15608" lon="7.2197"><ele></ele><time>2016-8-30T21:16:18Z</time></trkpt>
<trkpt lat="46.15605" lon="7.21969"><ele></ele><time>2016-8-30T21:16:21Z</time></trkpt>
<trkpt lat="46.15602" lon="7.21967"><ele></ele><time>2016-8-30T21:16:24Z</time></trkpt>
<trkpt lat="46.15598" lon="7.21965"><ele></ele><time>2016-8-30T21:16:27Z</time></trkpt>
<trkpt lat="46.15595" lon="7.21963"><ele></ele><time>2016-8-30T21:16:30Z</time></trkpt>
<trkpt lat="46.15592" lon="7.21961"><ele></ele><time>2016-8-30T21:16:33Z</time></trkpt>
<trkpt lat="46.15588" lon="7.21958"><ele></ele><time>2016-8-30T21:16:36Z</time></trkpt>
<trkpt lat="46.15585" lon="7.21956"><ele></ele><time>2016-8-30T21:16:39Z</time></trkpt>
<trkpt lat="46.15581" lon="7.21953"><ele></ele><time>2016-8-30T21:16:42Z</time></trkpt>
<trkpt lat="46.15578" lon="7.2195"><ele></ele><time>2016-8-30T21:16:45Z</time></trkpt>
<trkpt lat="46.15574" lon="7.21948"><ele></ele><time>2016-8-30T21:16:48Z</time></trkpt>
<trkpt lat="46.1557" lon="7.21945"><ele></ele><time>2016-8-30T21:16:51Z</time></trkpt>
<trkpt lat="46.15569" lon="7.21944"><ele></ele><time>2016-8-30T21:16:54Z</time></trkpt>
<trkpt lat="46.15567" lon="7.21943"><ele></ele><time>2016-8-30T21:16:57Z</time></trkpt>
<trkpt lat="46.15563" lon="7.2194"><ele></ele><time>2016-8-30T21:17:0Z</time></trkpt>
<trkpt lat="46.1556" lon="7.21938"><ele></ele><time>2016-8-30T21:17:3Z</time></trkpt>
<trkpt lat="46.15556" lon="7.21935"><ele></ele><time>2016-8-30T21:17:6Z</time></trkpt>
<trkpt lat="46.15555" lon="7.21934"><ele></ele><time>2016-8-30T21:17:9Z</time></trkpt>
<trkpt lat="46.15553" lon="7.21933"><ele></ele><time>2016-8-30T21:17:12Z</time></trkpt>
<trkpt lat="46.15549" lon="7.21931"><ele></ele><time>2016-8-30T21:17:15Z</time></trkpt>
<trkpt lat="46.15546" lon="7.2193"><ele></ele><time>2016-8-30T21:17:18Z</time></trkpt>
<trkpt lat="46.15542" lon="7.21928"><ele></ele><time>2016-8-30T21:17:21Z</time></trkpt>
<trkpt lat="46.15539" lon="7.21927"><ele></ele><time>2016-8-30T21:17:24Z</time></trkpt>
<trkpt lat="46.15535" lon="7.21925"><ele></ele><time>2016-8-30T21:17:27Z</time></trkpt>
<trkpt lat="46.15532" lon="7.21924"><ele></ele><time>2016-8-30T21:17:30Z</time></trkpt>
<trkpt lat="46.15528" lon="7.21922"><ele></ele><time>2016-8-30T21:17:33Z</time></trkpt>
<trkpt lat="46.15524" lon="7.21921"><ele></ele><time>2016-8-30T21:17:36Z</time></trkpt>
<trkpt lat="46.15521" lon="7.2192"><ele></ele><time>2016-8-30T21:17:39Z</time></trkpt>
<trkpt lat="46.15517" lon="7.21918"><ele></ele><time>2016-8-30T21:17:42Z</time></trkpt>
<trkpt lat="46.15514" lon="7.21917"><ele></ele><time>2016-8-30T21:17:45Z</time></trkpt>
<trkpt lat="46.1551" lon="7.21915"><ele></ele><time>2016-8-30T21:17:48Z</time></trkpt>
<trkpt lat="46.15507" lon="7.21913"><ele></ele><time>2016-8-30T21:17:51Z</time></trkpt>
<trkpt lat="46.15503" lon="7.2191"><ele></ele><time>2016-8-30T21:17:54Z</time></trkpt>
<trkpt lat="46.155" lon="7.21908"><ele></ele><time>2016-8-30T21:17:57Z</time></trkpt>
<trkpt lat="46.15496" lon="7.21905"><ele></ele><time>2016-8-30T21:18:0Z</time></trkpt>
<trkpt lat="46.15492" lon="7.21903"><ele></ele><time>2016-8-30T21:18:3Z</time></trkpt>
<trkpt lat="46.15489" lon="7.219"><ele></ele><time>2016-8-30T21:18:6Z</time></trkpt>
<trkpt lat="46.15485" lon="7.21898"><ele></ele><time>2016-8-30T21:18:9Z</time></trkpt>
<trkpt lat="46.15482" lon="7.21895"><ele></ele><time>2016-8-30T21:18:12Z</time></trkpt>
<trkpt lat="46.15478" lon="7.21893"><ele></ele><time>2016-8-30T21:18:15Z</time></trkpt>
<trkpt lat="46.15474" lon="7.21891"><ele></ele><time>2016-8-30T21:18:18Z</time></trkpt>
<trkpt lat="46.15471" lon="7.21888"><ele></ele><time>2016-8-30T21:18:21Z</time></trkpt>
<trkpt lat="46.15469" lon="7.21887"><ele></ele><time>2016-8-30T21:18:24Z</time></trkpt>
<trkpt lat="46.15467" lon="7.21885"><ele></ele><time>2016-8-30T21:18:27Z</time></trkpt>
<trkpt lat="46.15465" lon="7.21882"><ele></ele><time>2016-8-30T21:18:30Z</time></trkpt>
<trkpt lat="46.15462" lon="7.21879"><ele></ele><time>2016-8-30T21:18:33Z</time></trkpt>
<trkpt lat="46.15459" lon="7.21876"><ele></ele><time>2016-8-30T21:18:36Z</time></trkpt>
<trkpt lat="46.15456" lon="7.21873"><ele></ele><time>2016-8-30T21:18:39Z</time></trkpt>
<trkpt lat="46.15453" lon="7.2187"><ele></ele><time>2016-8-30T21:18:42Z</time></trkpt>
<trkpt lat="46.15452" lon="7.21868"><ele></ele><time>2016-8-30T21:18:45Z</time></trkpt>
<trkpt lat="46.1545" lon="7.21866"><ele></ele><time>2016-8-30T21:18:48Z</time></trkpt>
<trkpt lat="46.15447" lon="7.21863"><ele></ele><time>2016-8-30T21:18:51Z</time></trkpt>
<trkpt lat="46.15444" lon="7.2186"><ele></ele><time>2016-8-30T21:18:54Z</time></trkpt>
<trkpt lat="46.15442" lon="7.21857"><ele></ele><time>2016-8-30T21:18:57Z</time></trkpt>
<trkpt lat="46.15439" lon="7.21854"><ele></ele><time>2016-8-30T21:19:0Z</time></trkpt>
<trkpt lat="46.15436" lon="7.21851"><ele></ele><time>2016-8-30T21:19:3Z</time></trkpt>
<trkpt lat="46.15433" lon="7.21848"><ele></ele><time>2016-8-30T21:19:6Z</time></trkpt>
<trkpt lat="46.1543" lon="7.21844"><ele></ele><time>2016-8-30T21:19:9Z</time></trkpt>
<trkpt lat="46.15428" lon="7.2184"><ele></ele><time>2016-8-30T21:19:12Z</time></trkpt>
<trkpt lat="46.15426" lon="7.21836"><ele></ele><time>2016-8-30T21:19:15Z</time></trkpt>
<trkpt lat="46.15423" lon="7.21833"><ele></ele><time>2016-8-30T21:19:18Z</time></trkpt>
<trkpt lat="46.15422" lon="7.21831"><ele></ele><time>2016-8-30T21:19:21Z</time></trkpt>
<trkpt lat="46.15421" lon="7.21829"><ele></ele><time>2016-8-30T21:19:24Z</time></trkpt>
<trkpt lat="46.15418" lon="7.21825"><ele></ele><time>2016-8-30T21:19:27Z</time></trkpt>
<trkpt lat="46.15416" lon="7.21821"><ele></ele><time>2016-8-30T21:19:30Z</time></trkpt>
<trkpt lat="46.15413" lon="7.21817"><ele></ele><time>2016-8-30T21:19:33Z</time></trkpt>
<trkpt lat="46.15411" lon="7.21814"><ele></ele><time>2016-8-30T21:19:36Z</time></trkpt>
<trkpt lat="46.15408" lon="7.2181"><ele></ele><time>2016-8-30T21:19:39Z</time></trkpt>
<trkpt lat="46.15406" lon="7.21806"><ele></ele><time>2016-8-30T21:19:42Z</time></trkpt>
<trkpt lat="46.15403" lon="7.21802"><ele></ele><time>2016-8-30T21:19:45Z</time></trkpt>
<trkpt lat="46.15401" lon="7.21799"><ele></ele><time>2016-8-30T21:19:48Z</time></trkpt>
<trkpt lat="46.15398" lon="7.21795"><ele></ele><time>2016-8-30T21:19:51Z</time></trkpt>
<trkpt lat="46.15395" lon="7.21792"><ele></ele><time>2016-8-30T21:19:54Z</time></trkpt>
<trkpt lat="46.15392" lon="7.21788"><ele></ele><time>2016-8-30T21:19:57Z</time></trkpt>
<trkpt lat="46.15389" lon="7.21785"><ele></ele><time>2016-8-30T21:20:0Z</time></trkpt>
<trkpt lat="46.15386" lon="7.21782"><ele></ele><time>2016-8-30T21:20:3Z</time></trkpt>
<trkpt lat="46.15383" lon="7.21778"><ele></ele><time>2016-8-30T21:20:6Z</time></trkpt>
<trkpt lat="46.1538" lon="7.21775"><ele></ele><time>2016-8-30T21:20:9Z</time></trkpt>
<trkpt lat="46.15377" lon="7.21771"><ele></ele><time>2016-8-30T21:20:12Z</time></trkpt>
<trkpt lat="46.15374" lon="7.21768"><ele></ele><time>2016-8-30T21:20:15Z</time></trkpt>
<trkpt lat="46.15371" lon="7.21764"><ele></ele><time>2016-8-30T21:20:18Z</time></trkpt>
<trkpt lat="46.15368" lon="7.21761"><ele></ele><time>2016-8-30T21:20:21Z</time></trkpt>
<trkpt lat="46.15365" lon="7.21758"><ele></ele><time>2016-8-30T21:20:24Z</time></trkpt>
<trkpt lat="46.15361" lon="7.21755"><ele></ele><time>2016-8-30T21:20:27Z</time></trkpt>
<trkpt lat="46.15357" lon="7.21753"><ele></ele><time>2016-8-30T21:20:30Z</time></trkpt>
<trkpt lat="46.15352" lon="7.21751"><ele></ele><time>2016-8-30T21:20:33Z</time></trkpt>
<trkpt lat="46.15348" lon="7.21749"><ele></ele><time>2016-8-30T21:20:36Z</time></trkpt>
<trkpt lat="46.15344" lon="7.21747"><ele></ele><time>2016-8-30T21:20:39Z</time></trkpt>
<trkpt lat="46.15339" lon="7.21745"><ele></ele><time>2016-8-30T21:20:42Z</time></trkpt>
<trkpt lat="46.15335" lon="7.21743"><ele></ele><time>2016-8-30T21:20:45Z</time></trkpt>
<trkpt lat="46.1533" lon="7.21741"><ele></ele><time>2016-8-30T21:20:48Z</time></trkpt>
<trkpt lat="46.15326" lon="7.21739"><ele></ele><time>2016-8-30T21:20:51Z</time></trkpt>
<trkpt lat="46.15322" lon="7.21737"><ele></ele><time>2016-8-30T21:20:54Z</time></trkpt>
<trkpt lat="46.15315" lon="7.21736"><ele></ele><time>2016-8-30T21:20:57Z</time></trkpt>
<trkpt lat="46.15309" lon="7.21735"><ele></ele><time>2016-8-30T21:21:0Z</time></trkpt>
<trkpt lat="46.15301" lon="7.21722"><ele></ele><time>2016-8-30T21:21:3Z</time></trkpt>
<trkpt lat="46.15299" lon="7.21719"><ele></ele><time>2016-8-30T21:21:6Z</time></trkpt>
<trkpt lat="46.15298" lon="7.21715"><ele></ele><time>2016-8-30T21:21:9Z</time></trkpt>
<trkpt lat="46.15297" lon="7.21712"><ele></ele><time>2016-8-30T21:21:12Z</time></trkpt>
<trkpt lat="46.15296" lon="7.21709"><ele></ele><time>2016-8-30T21:21:15Z</time></trkpt>
<trkpt lat="46.15294" lon="7.21705"><ele></ele><time>2016-8-30T21:21:18Z</time></trkpt>
<trkpt lat="46.15293" lon="7.21702"><ele></ele><time>2016-8-30T21:21:21Z</time></trkpt>
<trkpt lat="46.15292" lon="7.21699"><ele></ele><time>2016-8-30T21:21:24Z</time></trkpt>
<trkpt lat="46.15291" lon="7.21695"><ele></ele><time>2016-8-30T21:21:27Z</time></trkpt>
<trkpt lat="46.1529" lon="7.21692"><ele></ele><time>2016-8-30T21:21:30Z</time></trkpt>
<trkpt lat="46.15288" lon="7.21688"><ele></ele><time>2016-8-30T21:21:33Z</time></trkpt>
<trkpt lat="46.15287" lon="7.21685"><ele></ele><time>2016-8-30T21:21:36Z</time></trkpt>
<trkpt lat="46.15286" lon="7.21682"><ele></ele><time>2016-8-30T21:21:39Z</time></trkpt>
<trkpt lat="46.15285" lon="7.21678"><ele></ele><time>2016-8-30T21:21:42Z</time></trkpt>
<trkpt lat="46.15284" lon="7.21675"><ele></ele><time>2016-8-30T21:21:45Z</time></trkpt>
<trkpt lat="46.15282" lon="7.21672"><ele></ele><time>2016-8-30T21:21:48Z</time></trkpt>
<trkpt lat="46.15281" lon="7.21668"><ele></ele><time>2016-8-30T21:21:51Z</time></trkpt>
<trkpt lat="46.1528" lon="7.21665"><ele></ele><time>2016-8-30T21:21:54Z</time></trkpt>
<trkpt lat="46.15279" lon="7.21661"><ele></ele><time>2016-8-30T21:21:57Z</time></trkpt>
<trkpt lat="46.15279" lon="7.21661"><ele></ele><time>2016-8-30T21:22:0Z</time></trkpt>
<trkpt lat="46.15278" lon="7.2166"><ele></ele><time>2016-8-30T21:22:3Z</time></trkpt>
<trkpt lat="46.15278" lon="7.21659"><ele></ele><time>2016-8-30T21:22:6Z</time></trkpt>
<trkpt lat="46.15278" lon="7.21659"><ele></ele><time>2016-8-30T21:22:9Z</time></trkpt>
<trkpt lat="46.15278" lon="7.21658"><ele></ele><time>2016-8-30T21:22:12Z</time></trkpt>
<trkpt lat="46.15278" lon="7.21658"><ele></ele><time>2016-8-30T21:22:15Z</time></trkpt>
<trkpt lat="46.15278" lon="7.21657"><ele></ele><time>2016-8-30T21:22:18Z</time></trkpt>
<trkpt lat="46.15265" lon="7.21628"><ele></ele><time>2016-8-30T21:22:21Z</time></trkpt>
<trkpt lat="46.15265" lon="7.21628"><ele></ele><time>2016-8-30T21:22:24Z</time></trkpt>
<trkpt lat="46.15252" lon="7.21599"><ele></ele><time>2016-8-30T21:22:27Z</time></trkpt>
<trkpt lat="46.15251" lon="7.21597"><ele></ele><time>2016-8-30T21:22:30Z</time></trkpt>
<trkpt lat="46.15249" lon="7.21594"><ele></ele><time>2016-8-30T21:22:33Z</time></trkpt>
<trkpt lat="46.15248" lon="7.21592"><ele></ele><time>2016-8-30T21:22:36Z</time></trkpt>
<trkpt lat="46.15246" lon="7.21589"><ele></ele><time>2016-8-30T21:22:39Z</time></trkpt>
<trkpt lat="46.15245" lon="7.21586"><ele></ele><time>2016-8-30T21:22:42Z</time></trkpt>
<trkpt lat="46.15243" lon="7.21584"><ele></ele><time>2016-8-30T21:22:45Z</time></trkpt>
<trkpt lat="46.15242" lon="7.21583"><ele></ele><time>2016-8-30T21:22:48Z</time></trkpt>
<trkpt lat="46.15242" lon="7.21581"><ele></ele><time>2016-8-30T21:22:51Z</time></trkpt>
<trkpt lat="46.1524" lon="7.21579"><ele></ele><time>2016-8-30T21:22:54Z</time></trkpt>
<trkpt lat="46.15239" lon="7.21576"><ele></ele><time>2016-8-30T21:22:57Z</time></trkpt>
<trkpt lat="46.15237" lon="7.21574"><ele></ele><time>2016-8-30T21:23:0Z</time></trkpt>
<trkpt lat="46.15236" lon="7.21571"><ele></ele><time>2016-8-30T21:23:3Z</time></trkpt>
<trkpt lat="46.15234" lon="7.21569"><ele></ele><time>2016-8-30T21:23:6Z</time></trkpt>
<trkpt lat="46.15233" lon="7.21567"><ele></ele><time>2016-8-30T21:23:9Z</time></trkpt>
<trkpt lat="46.15232" lon="7.21567"><ele></ele><time>2016-8-30T21:23:12Z</time></trkpt>
<trkpt lat="46.15229" lon="7.21567"><ele></ele><time>2016-8-30T21:23:15Z</time></trkpt>
<trkpt lat="46.15226" lon="7.21567"><ele></ele><time>2016-8-30T21:23:18Z</time></trkpt>
<trkpt lat="46.15224" lon="7.21567"><ele></ele><time>2016-8-30T21:23:21Z</time></trkpt>
<trkpt lat="46.15221" lon="7.21567"><ele></ele><time>2016-8-30T21:23:24Z</time></trkpt>
<trkpt lat="46.15218" lon="7.21567"><ele></ele><time>2016-8-30T21:23:27Z</time></trkpt>
<trkpt lat="46.15215" lon="7.21567"><ele></ele><time>2016-8-30T21:23:30Z</time></trkpt>
<trkpt lat="46.15212" lon="7.21567"><ele></ele><time>2016-8-30T21:23:33Z</time></trkpt>
<trkpt lat="46.15209" lon="7.21566"><ele></ele><time>2016-8-30T21:23:36Z</time></trkpt>
<trkpt lat="46.15207" lon="7.21566"><ele></ele><time>2016-8-30T21:23:39Z</time></trkpt>
<trkpt lat="46.15204" lon="7.21566"><ele></ele><time>2016-8-30T21:23:42Z</time></trkpt>
<trkpt lat="46.15202" lon="7.21566"><ele></ele><time>2016-8-30T21:23:45Z</time></trkpt>
<trkpt lat="46.15201" lon="7.21566"><ele></ele><time>2016-8-30T21:23:48Z</time></trkpt>
<trkpt lat="46.15198" lon="7.21566"><ele></ele><time>2016-8-30T21:23:51Z</time></trkpt>
<trkpt lat="46.15195" lon="7.21566"><ele></ele><time>2016-8-30T21:23:54Z</time></trkpt>
<trkpt lat="46.15193" lon="7.21566"><ele></ele><time>2016-8-30T21:23:57Z</time></trkpt>
<trkpt lat="46.1519" lon="7.21566"><ele></ele><time>2016-8-30T21:24:0Z</time></trkpt>
<trkpt lat="46.15187" lon="7.21566"><ele></ele><time>2016-8-30T21:24:3Z</time></trkpt>
<trkpt lat="46.15183" lon="7.21566"><ele></ele><time>2016-8-30T21:24:6Z</time></trkpt>
<trkpt lat="46.1518" lon="7.21567"><ele></ele><time>2016-8-30T21:24:9Z</time></trkpt>
<trkpt lat="46.15176" lon="7.21567"><ele></ele><time>2016-8-30T21:24:12Z</time></trkpt>
<trkpt lat="46.15172" lon="7.21567"><ele></ele><time>2016-8-30T21:24:15Z</time></trkpt>
<trkpt lat="46.15169" lon="7.21568"><ele></ele><time>2016-8-30T21:24:18Z</time></trkpt>
<trkpt lat="46.15167" lon="7.21568"><ele></ele><time>2016-8-30T21:24:21Z</time></trkpt>
<trkpt lat="46.15165" lon="7.21568"><ele></ele><time>2016-8-30T21:24:24Z</time></trkpt>
<trkpt lat="46.15161" lon="7.21569"><ele></ele><time>2016-8-30T21:24:27Z</time></trkpt>
<trkpt lat="46.15158" lon="7.21569"><ele></ele><time>2016-8-30T21:24:30Z</time></trkpt>
<trkpt lat="46.15154" lon="7.21569"><ele></ele><time>2016-8-30T21:24:33Z</time></trkpt>
<trkpt lat="46.1515" lon="7.2157"><ele></ele><time>2016-8-30T21:24:36Z</time></trkpt>
<trkpt lat="46.15147" lon="7.2157"><ele></ele><time>2016-8-30T21:24:39Z</time></trkpt>
<trkpt lat="46.15143" lon="7.21571"><ele></ele><time>2016-8-30T21:24:42Z</time></trkpt>
<trkpt lat="46.15141" lon="7.21571"><ele></ele><time>2016-8-30T21:24:45Z</time></trkpt>
<trkpt lat="46.1514" lon="7.2157"><ele></ele><time>2016-8-30T21:24:48Z</time></trkpt>
<trkpt lat="46.15136" lon="7.21569"><ele></ele><time>2016-8-30T21:24:51Z</time></trkpt>
<trkpt lat="46.15133" lon="7.21567"><ele></ele><time>2016-8-30T21:24:54Z</time></trkpt>
<trkpt lat="46.1513" lon="7.21565"><ele></ele><time>2016-8-30T21:24:57Z</time></trkpt>
<trkpt lat="46.15127" lon="7.21564"><ele></ele><time>2016-8-30T21:25:0Z</time></trkpt>
<trkpt lat="46.15124" lon="7.21562"><ele></ele><time>2016-8-30T21:25:3Z</time></trkpt>
<trkpt lat="46.15121" lon="7.21561"><ele></ele><time>2016-8-30T21:25:6Z</time></trkpt>
<trkpt lat="46.15118" lon="7.21559"><ele></ele><time>2016-8-30T21:25:9Z</time></trkpt>
<trkpt lat="46.15114" lon="7.21557"><ele></ele><time>2016-8-30T21:25:12Z</time></trkpt>
<trkpt lat="46.15111" lon="7.21556"><ele></ele><time>2016-8-30T21:25:15Z</time></trkpt>
<trkpt lat="46.15108" lon="7.21554"><ele></ele><time>2016-8-30T21:25:18Z</time></trkpt>
<trkpt lat="46.15105" lon="7.21552"><ele></ele><time>2016-8-30T21:25:21Z</time></trkpt>
<trkpt lat="46.15102" lon="7.21551"><ele></ele><time>2016-8-30T21:25:24Z</time></trkpt>
<trkpt lat="46.15099" lon="7.21549"><ele></ele><time>2016-8-30T21:25:27Z</time></trkpt>
<trkpt lat="46.15096" lon="7.21547"><ele></ele><time>2016-8-30T21:25:30Z</time></trkpt>
<trkpt lat="46.15093" lon="7.21545"><ele></ele><time>2016-8-30T21:25:33Z</time></trkpt>
<trkpt lat="46.1509" lon="7.21543"><ele></ele><time>2016-8-30T21:25:36Z</time></trkpt>
<trkpt lat="46.15087" lon="7.21541"><ele></ele><time>2016-8-30T21:25:39Z</time></trkpt>
<trkpt lat="46.15084" lon="7.21539"><ele></ele><time>2016-8-30T21:25:42Z</time></trkpt>
<trkpt lat="46.15081" lon="7.21537"><ele></ele><time>2016-8-30T21:25:45Z</time></trkpt>
<trkpt lat="46.15078" lon="7.21535"><ele></ele><time>2016-8-30T21:25:48Z</time></trkpt>
<trkpt lat="46.15075" lon="7.21533"><ele></ele><time>2016-8-30T21:25:51Z</time></trkpt>
<trkpt lat="46.15072" lon="7.21531"><ele></ele><time>2016-8-30T21:25:54Z</time></trkpt>
<trkpt lat="46.15069" lon="7.21529"><ele></ele><time>2016-8-30T21:25:57Z</time></trkpt>
<trkpt lat="46.15066" lon="7.21527"><ele></ele><time>2016-8-30T21:26:0Z</time></trkpt>
<trkpt lat="46.15063" lon="7.21525"><ele></ele><time>2016-8-30T21:26:3Z</time></trkpt>
<trkpt lat="46.1506" lon="7.21523"><ele></ele><time>2016-8-30T21:26:6Z</time></trkpt>
<trkpt lat="46.15057" lon="7.21521"><ele></ele><time>2016-8-30T21:26:9Z</time></trkpt>
<trkpt lat="46.15055" lon="7.21518"><ele></ele><time>2016-8-30T21:26:12Z</time></trkpt>
<trkpt lat="46.15053" lon="7.21515"><ele></ele><time>2016-8-30T21:26:15Z</time></trkpt>
<trkpt lat="46.15052" lon="7.21513"><ele></ele><time>2016-8-30T21:26:18Z</time></trkpt>
<trkpt lat="46.15051" lon="7.21512"><ele></ele><time>2016-8-30T21:26:21Z</time></trkpt>
<trkpt lat="46.15048" lon="7.21509"><ele></ele><time>2016-8-30T21:26:24Z</time></trkpt>
<trkpt lat="46.15046" lon="7.21506"><ele></ele><time>2016-8-30T21:26:27Z</time></trkpt>
<trkpt lat="46.15044" lon="7.21503"><ele></ele><time>2016-8-30T21:26:30Z</time></trkpt>
<trkpt lat="46.15041" lon="7.215"><ele></ele><time>2016-8-30T21:26:33Z</time></trkpt>
<trkpt lat="46.15038" lon="7.21499"><ele></ele><time>2016-8-30T21:26:36Z</time></trkpt>
<trkpt lat="46.15035" lon="7.21499"><ele></ele><time>2016-8-30T21:26:39Z</time></trkpt>
<trkpt lat="46.15031" lon="7.21498"><ele></ele><time>2016-8-30T21:26:42Z</time></trkpt>
<trkpt lat="46.15028" lon="7.21498"><ele></ele><time>2016-8-30T21:26:45Z</time></trkpt>
<trkpt lat="46.15024" lon="7.21497"><ele></ele><time>2016-8-30T21:26:48Z</time></trkpt>
<trkpt lat="46.15021" lon="7.21497"><ele></ele><time>2016-8-30T21:26:51Z</time></trkpt>
<trkpt lat="46.15017" lon="7.21496"><ele></ele><time>2016-8-30T21:26:54Z</time></trkpt>
<trkpt lat="46.15014" lon="7.21496"><ele></ele><time>2016-8-30T21:26:57Z</time></trkpt>
<trkpt lat="46.1501" lon="7.21495"><ele></ele><time>2016-8-30T21:27:0Z</time></trkpt>
<trkpt lat="46.15007" lon="7.21495"><ele></ele><time>2016-8-30T21:27:3Z</time></trkpt>
<trkpt lat="46.15004" lon="7.21494"><ele></ele><time>2016-8-30T21:27:6Z</time></trkpt>
<trkpt lat="46.15" lon="7.21494"><ele></ele><time>2016-8-30T21:27:9Z</time></trkpt>
<trkpt lat="46.14997" lon="7.21494"><ele></ele><time>2016-8-30T21:27:12Z</time></trkpt>
<trkpt lat="46.14993" lon="7.21493"><ele></ele><time>2016-8-30T21:27:15Z</time></trkpt>
<trkpt lat="46.14989" lon="7.21493"><ele></ele><time>2016-8-30T21:27:18Z</time></trkpt>
<trkpt lat="46.14985" lon="7.21492"><ele></ele><time>2016-8-30T21:27:21Z</time></trkpt>
<trkpt lat="46.14982" lon="7.21492"><ele></ele><time>2016-8-30T21:27:24Z</time></trkpt>
<trkpt lat="46.14978" lon="7.21492"><ele></ele><time>2016-8-30T21:27:27Z</time></trkpt>
<trkpt lat="46.14974" lon="7.21491"><ele></ele><time>2016-8-30T21:27:30Z</time></trkpt>
<trkpt lat="46.1497" lon="7.21491"><ele></ele><time>2016-8-30T21:27:33Z</time></trkpt>
<trkpt lat="46.14966" lon="7.2149"><ele></ele><time>2016-8-30T21:27:36Z</time></trkpt>
<trkpt lat="46.14963" lon="7.2149"><ele></ele><time>2016-8-30T21:27:39Z</time></trkpt>
<trkpt lat="46.14959" lon="7.2149"><ele></ele><time>2016-8-30T21:27:42Z</time></trkpt>
<trkpt lat="46.14955" lon="7.21489"><ele></ele><time>2016-8-30T21:27:45Z</time></trkpt>
<trkpt lat="46.14953" lon="7.21489"><ele></ele><time>2016-8-30T21:27:48Z</time></trkpt>
<trkpt lat="46.14951" lon="7.21489"><ele></ele><time>2016-8-30T21:27:51Z</time></trkpt>
<trkpt lat="46.14948" lon="7.21487"><ele></ele><time>2016-8-30T21:27:54Z</time></trkpt>
<trkpt lat="46.14944" lon="7.21485"><ele></ele><time>2016-8-30T21:27:57Z</time></trkpt>
<trkpt lat="46.14941" lon="7.21484"><ele></ele><time>2016-8-30T21:28:0Z</time></trkpt>
<trkpt lat="46.14938" lon="7.21482"><ele></ele><time>2016-8-30T21:28:3Z</time></trkpt>
<trkpt lat="46.14934" lon="7.2148"><ele></ele><time>2016-8-30T21:28:6Z</time></trkpt>
<trkpt lat="46.14931" lon="7.21478"><ele></ele><time>2016-8-30T21:28:9Z</time></trkpt>
<trkpt lat="46.14927" lon="7.21477"><ele></ele><time>2016-8-30T21:28:12Z</time></trkpt>
<trkpt lat="46.14924" lon="7.21475"><ele></ele><time>2016-8-30T21:28:15Z</time></trkpt>
<trkpt lat="46.1492" lon="7.21473"><ele></ele><time>2016-8-30T21:28:18Z</time></trkpt>
<trkpt lat="46.14917" lon="7.21471"><ele></ele><time>2016-8-30T21:28:21Z</time></trkpt>
<trkpt lat="46.14913" lon="7.21469"><ele></ele><time>2016-8-30T21:28:24Z</time></trkpt>
<trkpt lat="46.1491" lon="7.21468"><ele></ele><time>2016-8-30T21:28:27Z</time></trkpt>
<trkpt lat="46.14908" lon="7.21467"><ele></ele><time>2016-8-30T21:28:30Z</time></trkpt>
<trkpt lat="46.14907" lon="7.21466"><ele></ele><time>2016-8-30T21:28:33Z</time></trkpt>
<trkpt lat="46.14904" lon="7.21463"><ele></ele><time>2016-8-30T21:28:36Z</time></trkpt>
<trkpt lat="46.14901" lon="7.21461"><ele></ele><time>2016-8-30T21:28:39Z</time></trkpt>
<trkpt lat="46.14898" lon="7.21458"><ele></ele><time>2016-8-30T21:28:42Z</time></trkpt>
<trkpt lat="46.14894" lon="7.21456"><ele></ele><time>2016-8-30T21:28:45Z</time></trkpt>
<trkpt lat="46.14891" lon="7.21453"><ele></ele><time>2016-8-30T21:28:48Z</time></trkpt>
<trkpt lat="46.14888" lon="7.21451"><ele></ele><time>2016-8-30T21:28:51Z</time></trkpt>
<trkpt lat="46.14885" lon="7.21449"><ele></ele><time>2016-8-30T21:28:54Z</time></trkpt>
<trkpt lat="46.14882" lon="7.21446"><ele></ele><time>2016-8-30T21:28:57Z</time></trkpt>
<trkpt lat="46.14879" lon="7.21444"><ele></ele><time>2016-8-30T21:29:0Z</time></trkpt>
<trkpt lat="46.14876" lon="7.21441"><ele></ele><time>2016-8-30T21:29:3Z</time></trkpt>
<trkpt lat="46.14873" lon="7.21439"><ele></ele><time>2016-8-30T21:29:6Z</time></trkpt>
<trkpt lat="46.14872" lon="7.21438"><ele></ele><time>2016-8-30T21:29:9Z</time></trkpt>
<trkpt lat="46.14871" lon="7.21439"><ele></ele><time>2016-8-30T21:29:12Z</time></trkpt>
<trkpt lat="46.1487" lon="7.21443"><ele></ele><time>2016-8-30T21:29:15Z</time></trkpt>
<trkpt lat="46.14869" lon="7.21447"><ele></ele><time>2016-8-30T21:29:18Z</time></trkpt>
<trkpt lat="46.14868" lon="7.21449"><ele></ele><time>2016-8-30T21:29:21Z</time></trkpt>
<trkpt lat="46.1487" lon="7.21451"><ele></ele><time>2016-8-30T21:29:24Z</time></trkpt>
<trkpt lat="46.14872" lon="7.21455"><ele></ele><time>2016-8-30T21:29:27Z</time></trkpt>
<trkpt lat="46.14875" lon="7.21458"><ele></ele><time>2016-8-30T21:29:30Z</time></trkpt>
<trkpt lat="46.14877" lon="7.2146"><ele></ele><time>2016-8-30T21:29:33Z</time></trkpt>
<trkpt lat="46.14878" lon="7.21462"><ele></ele><time>2016-8-30T21:29:36Z</time></trkpt>
<trkpt lat="46.14881" lon="7.21466"><ele></ele><time>2016-8-30T21:29:39Z</time></trkpt>
<trkpt lat="46.14884" lon="7.21469"><ele></ele><time>2016-8-30T21:29:42Z</time></trkpt>
<trkpt lat="46.14886" lon="7.21473"><ele></ele><time>2016-8-30T21:29:45Z</time></trkpt>
<trkpt lat="46.14889" lon="7.21477"><ele></ele><time>2016-8-30T21:29:48Z</time></trkpt>
<trkpt lat="46.14892" lon="7.21481"><ele></ele><time>2016-8-30T21:29:51Z</time></trkpt>
<trkpt lat="46.14895" lon="7.21484"><ele></ele><time>2016-8-30T21:29:54Z</time></trkpt>
<trkpt lat="46.14898" lon="7.21488"><ele></ele><time>2016-8-30T21:29:57Z</time></trkpt>
<trkpt lat="46.149" lon="7.21492"><ele></ele><time>2016-8-30T21:30:0Z</time></trkpt>
<trkpt lat="46.14902" lon="7.21493"><ele></ele><time>2016-8-30T21:30:3Z</time></trkpt>
<trkpt lat="46.14903" lon="7.21495"><ele></ele><time>2016-8-30T21:30:6Z</time></trkpt>
<trkpt lat="46.14907" lon="7.21498"><ele></ele><time>2016-8-30T21:30:9Z</time></trkpt>
<trkpt lat="46.1491" lon="7.215"><ele></ele><time>2016-8-30T21:30:12Z</time></trkpt>
<trkpt lat="46.14913" lon="7.21503"><ele></ele><time>2016-8-30T21:30:15Z</time></trkpt>
<trkpt lat="46.14914" lon="7.21505"><ele></ele><time>2016-8-30T21:30:18Z</time></trkpt>
<trkpt lat="46.14916" lon="7.21506"><ele></ele><time>2016-8-30T21:30:21Z</time></trkpt>
<trkpt lat="46.14919" lon="7.21509"><ele></ele><time>2016-8-30T21:30:24Z</time></trkpt>
<trkpt lat="46.14922" lon="7.21511"><ele></ele><time>2016-8-30T21:30:27Z</time></trkpt>
<trkpt lat="46.14925" lon="7.21514"><ele></ele><time>2016-8-30T21:30:30Z</time></trkpt>
<trkpt lat="46.14928" lon="7.21517"><ele></ele><time>2016-8-30T21:30:33Z</time></trkpt>
<trkpt lat="46.14931" lon="7.2152"><ele></ele><time>2016-8-30T21:30:36Z</time></trkpt>
<trkpt lat="46.14934" lon="7.21523"><ele></ele><time>2016-8-30T21:30:39Z</time></trkpt>
<trkpt lat="46.14937" lon="7.21525"><ele></ele><time>2016-8-30T21:30:42Z</time></trkpt>
<trkpt lat="46.1494" lon="7.21528"><ele></ele><time>2016-8-30T21:30:45Z</time></trkpt>
<trkpt lat="46.14944" lon="7.2153"><ele></ele><time>2016-8-30T21:30:48Z</time></trkpt>
<trkpt lat="46.14948" lon="7.21532"><ele></ele><time>2016-8-30T21:30:51Z</time></trkpt>
<trkpt lat="46.14951" lon="7.21534"><ele></ele><time>2016-8-30T21:30:54Z</time></trkpt>
<trkpt lat="46.14955" lon="7.21536"><ele></ele><time>2016-8-30T21:30:57Z</time></trkpt>
<trkpt lat="46.14959" lon="7.21538"><ele></ele><time>2016-8-30T21:31:0Z</time></trkpt>
<trkpt lat="46.14962" lon="7.2154"><ele></ele><time>2016-8-30T21:31:3Z</time></trkpt>
<trkpt lat="46.14966" lon="7.21542"><ele></ele><time>2016-8-30T21:31:6Z</time></trkpt>
<trkpt lat="46.1497" lon="7.21545"><ele></ele><time>2016-8-30T21:31:9Z</time></trkpt>
<trkpt lat="46.14973" lon="7.21547"><ele></ele><time>2016-8-30T21:31:12Z</time></trkpt>
<trkpt lat="46.14977" lon="7.21549"><ele></ele><time>2016-8-30T21:31:15Z</time></trkpt>
<trkpt lat="46.14979" lon="7.2155"><ele></ele><time>2016-8-30T21:31:18Z</time></trkpt>
<trkpt lat="46.14981" lon="7.21551"><ele></ele><time>2016-8-30T21:31:21Z</time></trkpt>
<trkpt lat="46.14982" lon="7.21552"><ele></ele><time>2016-8-30T21:31:24Z</time></trkpt>
<trkpt lat="46.14984" lon="7.21553"><ele></ele><time>2016-8-30T21:31:27Z</time></trkpt>
<trkpt lat="46.14987" lon="7.21555"><ele></ele><time>2016-8-30T21:31:30Z</time></trkpt>
<trkpt lat="46.1499" lon="7.21556"><ele></ele><time>2016-8-30T21:31:33Z</time></trkpt>
<trkpt lat="46.14993" lon="7.21558"><ele></ele><time>2016-8-30T21:31:36Z</time></trkpt>
<trkpt lat="46.14996" lon="7.2156"><ele></ele><time>2016-8-30T21:31:39Z</time></trkpt>
<trkpt lat="46.14999" lon="7.21562"><ele></ele><time>2016-8-30T21:31:42Z</time></trkpt>
<trkpt lat="46.15003" lon="7.21564"><ele></ele><time>2016-8-30T21:31:45Z</time></trkpt>
<trkpt lat="46.15006" lon="7.21566"><ele></ele><time>2016-8-30T21:31:48Z</time></trkpt>
<trkpt lat="46.15009" lon="7.21568"><ele></ele><time>2016-8-30T21:31:51Z</time></trkpt>
<trkpt lat="46.15012" lon="7.2157"><ele></ele><time>2016-8-30T21:31:54Z</time></trkpt>
<trkpt lat="46.15015" lon="7.21572"><ele></ele><time>2016-8-30T21:31:57Z</time></trkpt>
<trkpt lat="46.15018" lon="7.21573"><ele></ele><time>2016-8-30T21:32:0Z</time></trkpt>
<trkpt lat="46.15021" lon="7.21575"><ele></ele><time>2016-8-30T21:32:3Z</time></trkpt>
<trkpt lat="46.15024" lon="7.21577"><ele></ele><time>2016-8-30T21:32:6Z</time></trkpt>
<trkpt lat="46.15027" lon="7.2158"><ele></ele><time>2016-8-30T21:32:9Z</time></trkpt>
<trkpt lat="46.1503" lon="7.21583"><ele></ele><time>2016-8-30T21:32:12Z</time></trkpt>
<trkpt lat="46.15033" lon="7.21586"><ele></ele><time>2016-8-30T21:32:15Z</time></trkpt>
<trkpt lat="46.15036" lon="7.21589"><ele></ele><time>2016-8-30T21:32:18Z</time></trkpt>
<trkpt lat="46.15038" lon="7.21592"><ele></ele><time>2016-8-30T21:32:21Z</time></trkpt>
<trkpt lat="46.15041" lon="7.21596"><ele></ele><time>2016-8-30T21:32:24Z</time></trkpt>
<trkpt lat="46.15044" lon="7.21599"><ele></ele><time>2016-8-30T21:32:27Z</time></trkpt>
<trkpt lat="46.15047" lon="7.21602"><ele></ele><time>2016-8-30T21:32:30Z</time></trkpt>
<trkpt lat="46.1505" lon="7.21605"><ele></ele><time>2016-8-30T21:32:33Z</time></trkpt>
<trkpt lat="46.15052" lon="7.21608"><ele></ele><time>2016-8-30T21:32:36Z</time></trkpt>
<trkpt lat="46.15055" lon="7.21611"><ele></ele><time>2016-8-30T21:32:39Z</time></trkpt>
<trkpt lat="46.15058" lon="7.21614"><ele></ele><time>2016-8-30T21:32:42Z</time></trkpt>
<trkpt lat="46.15061" lon="7.21617"><ele></ele><time>2016-8-30T21:32:45Z</time></trkpt>
<trkpt lat="46.15064" lon="7.2162"><ele></ele><time>2016-8-30T21:32:48Z</time></trkpt>
<trkpt lat="46.15067" lon="7.21624"><ele></ele><time>2016-8-30T21:32:51Z</time></trkpt>
<trkpt lat="46.15069" lon="7.21627"><ele></ele><time>2016-8-30T21:32:54Z</time></trkpt>
<trkpt lat="46.15071" lon="7.21629"><ele></ele><time>2016-8-30T21:32:57Z</time></trkpt>
<trkpt lat="46.15072" lon="7.2163"><ele></ele><time>2016-8-30T21:33:0Z</time></trkpt>
<trkpt lat="46.15075" lon="7.21634"><ele></ele><time>2016-8-30T21:33:3Z</time></trkpt>
<trkpt lat="46.15078" lon="7.21637"><ele></ele><time>2016-8-30T21:33:6Z</time></trkpt>
<trkpt lat="46.15081" lon="7.2164"><ele></ele><time>2016-8-30T21:33:9Z</time></trkpt>
<trkpt lat="46.15083" lon="7.21644"><ele></ele><time>2016-8-30T21:33:12Z</time></trkpt>
<trkpt lat="46.15086" lon="7.21647"><ele></ele><time>2016-8-30T21:33:15Z</time></trkpt>
<trkpt lat="46.15089" lon="7.2165"><ele></ele><time>2016-8-30T21:33:18Z</time></trkpt>
<trkpt lat="46.15092" lon="7.21654"><ele></ele><time>2016-8-30T21:33:21Z</time></trkpt>
<trkpt lat="46.15095" lon="7.21657"><ele></ele><time>2016-8-30T21:33:24Z</time></trkpt>
<trkpt lat="46.15096" lon="7.21659"><ele></ele><time>2016-8-30T21:33:27Z</time></trkpt>
<trkpt lat="46.15097" lon="7.2166"><ele></ele><time>2016-8-30T21:33:30Z</time></trkpt>
<trkpt lat="46.15101" lon="7.21664"><ele></ele><time>2016-8-30T21:33:33Z</time></trkpt>
<trkpt lat="46.15104" lon="7.21667"><ele></ele><time>2016-8-30T21:33:36Z</time></trkpt>
<trkpt lat="46.15107" lon="7.2167"><ele></ele><time>2016-8-30T21:33:39Z</time></trkpt>
<trkpt lat="46.1511" lon="7.21673"><ele></ele><time>2016-8-30T21:33:42Z</time></trkpt>
<trkpt lat="46.15114" lon="7.21677"><ele></ele><time>2016-8-30T21:33:45Z</time></trkpt>
<trkpt lat="46.15117" lon="7.2168"><ele></ele><time>2016-8-30T21:33:48Z</time></trkpt>
<trkpt lat="46.1512" lon="7.21683"><ele></ele><time>2016-8-30T21:33:51Z</time></trkpt>
<trkpt lat="46.15123" lon="7.21687"><ele></ele><time>2016-8-30T21:33:54Z</time></trkpt>
<trkpt lat="46.15126" lon="7.2169"><ele></ele><time>2016-8-30T21:33:57Z</time></trkpt>
<trkpt lat="46.1513" lon="7.21693"><ele></ele><time>2016-8-30T21:34:0Z</time></trkpt>
<trkpt lat="46.15131" lon="7.21695"><ele></ele><time>2016-8-30T21:34:3Z</time></trkpt>
<trkpt lat="46.15133" lon="7.21696"><ele></ele><time>2016-8-30T21:34:6Z</time></trkpt>
<trkpt lat="46.15135" lon="7.21701"><ele></ele><time>2016-8-30T21:34:9Z</time></trkpt>
<trkpt lat="46.15137" lon="7.21705"><ele></ele><time>2016-8-30T21:34:12Z</time></trkpt>
<trkpt lat="46.1514" lon="7.21709"><ele></ele><time>2016-8-30T21:34:15Z</time></trkpt>
<trkpt lat="46.15142" lon="7.21713"><ele></ele><time>2016-8-30T21:34:18Z</time></trkpt>
<trkpt lat="46.15144" lon="7.21717"><ele></ele><time>2016-8-30T21:34:21Z</time></trkpt>
<trkpt lat="46.15147" lon="7.21721"><ele></ele><time>2016-8-30T21:34:24Z</time></trkpt>
<trkpt lat="46.15149" lon="7.21726"><ele></ele><time>2016-8-30T21:34:27Z</time></trkpt>
<trkpt lat="46.15151" lon="7.2173"><ele></ele><time>2016-8-30T21:34:30Z</time></trkpt>
<trkpt lat="46.15154" lon="7.21734"><ele></ele><time>2016-8-30T21:34:33Z</time></trkpt>
<trkpt lat="46.15156" lon="7.21738"><ele></ele><time>2016-8-30T21:34:36Z</time></trkpt>
<trkpt lat="46.15157" lon="7.2174"><ele></ele><time>2016-8-30T21:34:39Z</time></trkpt>
<trkpt lat="46.15158" lon="7.21742"><ele></ele><time>2016-8-30T21:34:42Z</time></trkpt>
<trkpt lat="46.15161" lon="7.21747"><ele></ele><time>2016-8-30T21:34:45Z</time></trkpt>
<trkpt lat="46.15162" lon="7.21749"><ele></ele><time>2016-8-30T21:34:48Z</time></trkpt>
<trkpt lat="46.15163" lon="7.21751"><ele></ele><time>2016-8-30T21:34:51Z</time></trkpt>
<trkpt lat="46.15164" lon="7.21756"><ele></ele><time>2016-8-30T21:34:54Z</time></trkpt>
<trkpt lat="46.15166" lon="7.21761"><ele></ele><time>2016-8-30T21:34:57Z</time></trkpt>
<trkpt lat="46.15168" lon="7.21765"><ele></ele><time>2016-8-30T21:35:0Z</time></trkpt>
<trkpt lat="46.1517" lon="7.2177"><ele></ele><time>2016-8-30T21:35:3Z</time></trkpt>
<trkpt lat="46.15171" lon="7.21775"><ele></ele><time>2016-8-30T21:35:6Z</time></trkpt>
<trkpt lat="46.15173" lon="7.2178"><ele></ele><time>2016-8-30T21:35:9Z</time></trkpt>
<trkpt lat="46.15174" lon="7.21782"><ele></ele><time>2016-8-30T21:35:12Z</time></trkpt>
<trkpt lat="46.15175" lon="7.21784"><ele></ele><time>2016-8-30T21:35:15Z</time></trkpt>
<trkpt lat="46.15176" lon="7.21789"><ele></ele><time>2016-8-30T21:35:18Z</time></trkpt>
<trkpt lat="46.15178" lon="7.21794"><ele></ele><time>2016-8-30T21:35:21Z</time></trkpt>
<trkpt lat="46.1518" lon="7.21799"><ele></ele><time>2016-8-30T21:35:24Z</time></trkpt>
<trkpt lat="46.15182" lon="7.21804"><ele></ele><time>2016-8-30T21:35:27Z</time></trkpt>
<trkpt lat="46.15183" lon="7.21806"><ele></ele><time>2016-8-30T21:35:30Z</time></trkpt>
<trkpt lat="46.15184" lon="7.21808"><ele></ele><time>2016-8-30T21:35:33Z</time></trkpt>
<trkpt lat="46.15188" lon="7.21812"><ele></ele><time>2016-8-30T21:35:36Z</time></trkpt>
<trkpt lat="46.15191" lon="7.21816"><ele></ele><time>2016-8-30T21:35:39Z</time></trkpt>
<trkpt lat="46.15194" lon="7.2182"><ele></ele><time>2016-8-30T21:35:42Z</time></trkpt>
<trkpt lat="46.15198" lon="7.21824"><ele></ele><time>2016-8-30T21:35:45Z</time></trkpt>
<trkpt lat="46.15201" lon="7.21828"><ele></ele><time>2016-8-30T21:35:48Z</time></trkpt>
<trkpt lat="46.15204" lon="7.21832"><ele></ele><time>2016-8-30T21:35:51Z</time></trkpt>
<trkpt lat="46.15208" lon="7.21836"><ele></ele><time>2016-8-30T21:35:54Z</time></trkpt>
<trkpt lat="46.15211" lon="7.2184"><ele></ele><time>2016-8-30T21:35:57Z</time></trkpt>
<trkpt lat="46.15215" lon="7.21844"><ele></ele><time>2016-8-30T21:36:0Z</time></trkpt>
<trkpt lat="46.15218" lon="7.21848"><ele></ele><time>2016-8-30T21:36:3Z</time></trkpt>
<trkpt lat="46.15219" lon="7.2185"><ele></ele><time>2016-8-30T21:36:6Z</time></trkpt>
<trkpt lat="46.1522" lon="7.21851"><ele></ele><time>2016-8-30T21:36:9Z</time></trkpt>
<trkpt lat="46.15221" lon="7.21853"><ele></ele><time>2016-8-30T21:36:12Z</time></trkpt>
<trkpt lat="46.15222" lon="7.21854"><ele></ele><time>2016-8-30T21:36:15Z</time></trkpt>
<trkpt lat="46.15223" lon="7.21856"><ele></ele><time>2016-8-30T21:36:18Z</time></trkpt>
<trkpt lat="46.15224" lon="7.21857"><ele></ele><time>2016-8-30T21:36:21Z</time></trkpt>
<trkpt lat="46.15225" lon="7.21859"><ele></ele><time>2016-8-30T21:36:24Z</time></trkpt>
<trkpt lat="46.15226" lon="7.2186"><ele></ele><time>2016-8-30T21:36:27Z</time></trkpt>
<trkpt lat="46.15227" lon="7.21862"><ele></ele><time>2016-8-30T21:36:30Z</time></trkpt>
<trkpt lat="46.15228" lon="7.21863"><ele></ele><time>2016-8-30T21:36:33Z</time></trkpt>
<trkpt lat="46.15229" lon="7.21865"><ele></ele><time>2016-8-30T21:36:36Z</time></trkpt>
<trkpt lat="46.1523" lon="7.21866"><ele></ele><time>2016-8-30T21:36:39Z</time></trkpt>
<trkpt lat="46.15231" lon="7.21868"><ele></ele><time>2016-8-30T21:36:42Z</time></trkpt>
<trkpt lat="46.15232" lon="7.21869"><ele></ele><time>2016-8-30T21:36:45Z</time></trkpt>
<trkpt lat="46.15231" lon="7.21871"><ele></ele><time>2016-8-30T21:36:48Z</time></trkpt>
<trkpt lat="46.1523" lon="7.21875"><ele></ele><time>2016-8-30T21:36:51Z</time></trkpt>
<trkpt lat="46.15233" lon="7.2188"><ele></ele><time>2016-8-30T21:36:54Z</time></trkpt>
<trkpt lat="46.15235" lon="7.21884"><ele></ele><time>2016-8-30T21:36:57Z</time></trkpt>
<trkpt lat="46.15238" lon="7.21889"><ele></ele><time>2016-8-30T21:37:0Z</time></trkpt>
<trkpt lat="46.1524" lon="7.21893"><ele></ele><time>2016-8-30T21:37:3Z</time></trkpt>
<trkpt lat="46.15243" lon="7.21898"><ele></ele><time>2016-8-30T21:37:6Z</time></trkpt>
<trkpt lat="46.15246" lon="7.21902"><ele></ele><time>2016-8-30T21:37:9Z</time></trkpt>
<trkpt lat="46.15248" lon="7.21907"><ele></ele><time>2016-8-30T21:37:12Z</time></trkpt>
<trkpt lat="46.15251" lon="7.21911"><ele></ele><time>2016-8-30T21:37:15Z</time></trkpt>
<trkpt lat="46.15253" lon="7.21916"><ele></ele><time>2016-8-30T21:37:18Z</time></trkpt>
<trkpt lat="46.15256" lon="7.2192"><ele></ele><time>2016-8-30T21:37:21Z</time></trkpt>
<trkpt lat="46.15258" lon="7.21925"><ele></ele><time>2016-8-30T21:37:24Z</time></trkpt>
<trkpt lat="46.1526" lon="7.21927"><ele></ele><time>2016-8-30T21:37:27Z</time></trkpt>
<trkpt lat="46.15261" lon="7.21929"><ele></ele><time>2016-8-30T21:37:30Z</time></trkpt>
<trkpt lat="46.15264" lon="7.21934"><ele></ele><time>2016-8-30T21:37:33Z</time></trkpt>
<trkpt lat="46.15266" lon="7.21939"><ele></ele><time>2016-8-30T21:37:36Z</time></trkpt>
<trkpt lat="46.15269" lon="7.21943"><ele></ele><time>2016-8-30T21:37:39Z</time></trkpt>
<trkpt lat="46.15272" lon="7.21948"><ele></ele><time>2016-8-30T21:37:42Z</time></trkpt>
<trkpt lat="46.15274" lon="7.21953"><ele></ele><time>2016-8-30T21:37:45Z</time></trkpt>
<trkpt lat="46.15277" lon="7.21957"><ele></ele><time>2016-8-30T21:37:48Z</time></trkpt>
<trkpt lat="46.1528" lon="7.21962"><ele></ele><time>2016-8-30T21:37:51Z</time></trkpt>
<trkpt lat="46.15282" lon="7.21967"><ele></ele><time>2016-8-30T21:37:54Z</time></trkpt>
<trkpt lat="46.15285" lon="7.21971"><ele></ele><time>2016-8-30T21:37:57Z</time></trkpt>
<trkpt lat="46.15288" lon="7.21976"><ele></ele><time>2016-8-30T21:38:0Z</time></trkpt>
<trkpt lat="46.15289" lon="7.21978"><ele></ele><time>2016-8-30T21:38:3Z</time></trkpt>
<trkpt lat="46.15291" lon="7.2198"><ele></ele><time>2016-8-30T21:38:6Z</time></trkpt>
<trkpt lat="46.15292" lon="7.21982"><ele></ele><time>2016-8-30T21:38:9Z</time></trkpt>
<trkpt lat="46.15294" lon="7.21984"><ele></ele><time>2016-8-30T21:38:12Z</time></trkpt>
<trkpt lat="46.15298" lon="7.21987"><ele></ele><time>2016-8-30T21:38:15Z</time></trkpt>
<trkpt lat="46.15301" lon="7.21991"><ele></ele><time>2016-8-30T21:38:18Z</time></trkpt>
<trkpt lat="46.15305" lon="7.21994"><ele></ele><time>2016-8-30T21:38:21Z</time></trkpt>
<trkpt lat="46.15309" lon="7.21997"><ele></ele><time>2016-8-30T21:38:24Z</time></trkpt>
<trkpt lat="46.15312" lon="7.22001"><ele></ele><time>2016-8-30T21:38:27Z</time></trkpt>
<trkpt lat="46.15316" lon="7.22004"><ele></ele><time>2016-8-30T21:38:30Z</time></trkpt>
<trkpt lat="46.15319" lon="7.22008"><ele></ele><time>2016-8-30T21:38:33Z</time></trkpt>
<trkpt lat="46.15323" lon="7.22011"><ele></ele><time>2016-8-30T21:38:36Z</time></trkpt>
<trkpt lat="46.15325" lon="7.22013"><ele></ele><time>2016-8-30T21:38:39Z</time></trkpt>
<trkpt lat="46.15327" lon="7.22015"><ele></ele><time>2016-8-30T21:38:42Z</time></trkpt>
<trkpt lat="46.1533" lon="7.22017"><ele></ele><time>2016-8-30T21:38:45Z</time></trkpt>
<trkpt lat="46.15334" lon="7.2202"><ele></ele><time>2016-8-30T21:38:48Z</time></trkpt>
<trkpt lat="46.15338" lon="7.22022"><ele></ele><time>2016-8-30T21:38:51Z</time></trkpt>
<trkpt lat="46.15342" lon="7.22024"><ele></ele><time>2016-8-30T21:38:54Z</time></trkpt>
<trkpt lat="46.15345" lon="7.22027"><ele></ele><time>2016-8-30T21:38:57Z</time></trkpt>
<trkpt lat="46.15349" lon="7.22029"><ele></ele><time>2016-8-30T21:39:0Z</time></trkpt>
<trkpt lat="46.15353" lon="7.22031"><ele></ele><time>2016-8-30T21:39:3Z</time></trkpt>
<trkpt lat="46.15357" lon="7.22034"><ele></ele><time>2016-8-30T21:39:6Z</time></trkpt>
<trkpt lat="46.15361" lon="7.22036"><ele></ele><time>2016-8-30T21:39:9Z</time></trkpt>
<trkpt lat="46.15364" lon="7.22038"><ele></ele><time>2016-8-30T21:39:12Z</time></trkpt>
<trkpt lat="46.15366" lon="7.2204"><ele></ele><time>2016-8-30T21:39:15Z</time></trkpt>
<trkpt lat="46.15368" lon="7.22041"><ele></ele><time>2016-8-30T21:39:18Z</time></trkpt>
<trkpt lat="46.15371" lon="7.22044"><ele></ele><time>2016-8-30T21:39:21Z</time></trkpt>
<trkpt lat="46.15374" lon="7.22048"><ele></ele><time>2016-8-30T21:39:24Z</time></trkpt>
<trkpt lat="46.15377" lon="7.22052"><ele></ele><time>2016-8-30T21:39:27Z</time></trkpt>
<trkpt lat="46.15379" lon="7.22056"><ele></ele><time>2016-8-30T21:39:30Z</time></trkpt>
<trkpt lat="46.15382" lon="7.22059"><ele></ele><time>2016-8-30T21:39:33Z</time></trkpt>
<trkpt lat="46.15385" lon="7.22063"><ele></ele><time>2016-8-30T21:39:36Z</time></trkpt>
<trkpt lat="46.15388" lon="7.22067"><ele></ele><time>2016-8-30T21:39:39Z</time></trkpt>
<trkpt lat="46.1539" lon="7.22071"><ele></ele><time>2016-8-30T21:39:42Z</time></trkpt>
<trkpt lat="46.15393" lon="7.22074"><ele></ele><time>2016-8-30T21:39:45Z</time></trkpt>
<trkpt lat="46.15396" lon="7.22078"><ele></ele><time>2016-8-30T21:39:48Z</time></trkpt>
<trkpt lat="46.15399" lon="7.22082"><ele></ele><time>2016-8-30T21:39:51Z</time></trkpt>
<trkpt lat="46.15402" lon="7.22085"><ele></ele><time>2016-8-30T21:39:54Z</time></trkpt>
<trkpt lat="46.15404" lon="7.22089"><ele></ele><time>2016-8-30T21:39:57Z</time></trkpt>
<trkpt lat="46.15407" lon="7.22093"><ele></ele><time>2016-8-30T21:40:0Z</time></trkpt>
<trkpt lat="46.1541" lon="7.22097"><ele></ele><time>2016-8-30T21:40:3Z</time></trkpt>
<trkpt lat="46.15413" lon="7.22101"><ele></ele><time>2016-8-30T21:40:6Z</time></trkpt>
<trkpt lat="46.15416" lon="7.22105"><ele></ele><time>2016-8-30T21:40:9Z</time></trkpt>
<trkpt lat="46.15419" lon="7.22109"><ele></ele><time>2016-8-30T21:40:12Z</time></trkpt>
<trkpt lat="46.1542" lon="7.22111"><ele></ele><time>2016-8-30T21:40:15Z</time></trkpt>
<trkpt lat="46.15422" lon="7.22113"><ele></ele><time>2016-8-30T21:40:18Z</time></trkpt>
<trkpt lat="46.15424" lon="7.22116"><ele></ele><time>2016-8-30T21:40:21Z</time></trkpt>
<trkpt lat="46.15427" lon="7.2212"><ele></ele><time>2016-8-30T21:40:24Z</time></trkpt>
<trkpt lat="46.1543" lon="7.22124"><ele></ele><time>2016-8-30T21:40:27Z</time></trkpt>
<trkpt lat="46.15433" lon="7.22128"><ele></ele><time>2016-8-30T21:40:30Z</time></trkpt>
<trkpt lat="46.15434" lon="7.2213"><ele></ele><time>2016-8-30T21:40:33Z</time></trkpt>
<trkpt lat="46.15436" lon="7.22132"><ele></ele><time>2016-8-30T21:40:36Z</time></trkpt>
<trkpt lat="46.15438" lon="7.22137"><ele></ele><time>2016-8-30T21:40:39Z</time></trkpt>
<trkpt lat="46.15441" lon="7.22141"><ele></ele><time>2016-8-30T21:40:42Z</time></trkpt>
<trkpt lat="46.15443" lon="7.22146"><ele></ele><time>2016-8-30T21:40:45Z</time></trkpt>
<trkpt lat="46.15446" lon="7.2215"><ele></ele><time>2016-8-30T21:40:48Z</time></trkpt>
<trkpt lat="46.15448" lon="7.22155"><ele></ele><time>2016-8-30T21:40:51Z</time></trkpt>
<trkpt lat="46.15451" lon="7.22159"><ele></ele><time>2016-8-30T21:40:54Z</time></trkpt>
<trkpt lat="46.15453" lon="7.22164"><ele></ele><time>2016-8-30T21:40:57Z</time></trkpt>
<trkpt lat="46.15456" lon="7.22168"><ele></ele><time>2016-8-30T21:41:0Z</time></trkpt>
<trkpt lat="46.15458" lon="7.22173"><ele></ele><time>2016-8-30T21:41:3Z</time></trkpt>
<trkpt lat="46.15461" lon="7.22177"><ele></ele><time>2016-8-30T21:41:6Z</time></trkpt>
<trkpt lat="46.15463" lon="7.22182"><ele></ele><time>2016-8-30T21:41:9Z</time></trkpt>
<trkpt lat="46.15467" lon="7.22185"><ele></ele><time>2016-8-30T21:41:12Z</time></trkpt>
<trkpt lat="46.1547" lon="7.22188"><ele></ele><time>2016-8-30T21:41:15Z</time></trkpt>
<trkpt lat="46.15473" lon="7.22192"><ele></ele><time>2016-8-30T21:41:18Z</time></trkpt>
<trkpt lat="46.15476" lon="7.22195"><ele></ele><time>2016-8-30T21:41:21Z</time></trkpt>
<trkpt lat="46.15479" lon="7.22199"><ele></ele><time>2016-8-30T21:41:24Z</time></trkpt>
<trkpt lat="46.15482" lon="7.22202"><ele></ele><time>2016-8-30T21:41:27Z</time></trkpt>
<trkpt lat="46.15485" lon="7.22205"><ele></ele><time>2016-8-30T21:41:30Z</time></trkpt>
<trkpt lat="46.15489" lon="7.22209"><ele></ele><time>2016-8-30T21:41:33Z</time></trkpt>
<trkpt lat="46.15492" lon="7.22212"><ele></ele><time>2016-8-30T21:41:36Z</time></trkpt>
<trkpt lat="46.15495" lon="7.22216"><ele></ele><time>2016-8-30T21:41:39Z</time></trkpt>
<trkpt lat="46.15498" lon="7.22219"><ele></ele><time>2016-8-30T21:41:42Z</time></trkpt>
<trkpt lat="46.15499" lon="7.22221"><ele></ele><time>2016-8-30T21:41:45Z</time></trkpt>
<trkpt lat="46.15501" lon="7.22222"><ele></ele><time>2016-8-30T21:41:48Z</time></trkpt>
<trkpt lat="46.15504" lon="7.22225"><ele></ele><time>2016-8-30T21:41:51Z</time></trkpt>
<trkpt lat="46.15508" lon="7.22228"><ele></ele><time>2016-8-30T21:41:54Z</time></trkpt>
<trkpt lat="46.15511" lon="7.22231"><ele></ele><time>2016-8-30T21:41:57Z</time></trkpt>
<trkpt lat="46.15514" lon="7.22234"><ele></ele><time>2016-8-30T21:42:0Z</time></trkpt>
<trkpt lat="46.15517" lon="7.22237"><ele></ele><time>2016-8-30T21:42:3Z</time></trkpt>
<trkpt lat="46.15519" lon="7.22239"><ele></ele><time>2016-8-30T21:42:6Z</time></trkpt>
<trkpt lat="46.1552" lon="7.2224"><ele></ele><time>2016-8-30T21:42:9Z</time></trkpt>
<trkpt lat="46.15524" lon="7.22243"><ele></ele><time>2016-8-30T21:42:12Z</time></trkpt>
<trkpt lat="46.15527" lon="7.22246"><ele></ele><time>2016-8-30T21:42:15Z</time></trkpt>
<trkpt lat="46.1553" lon="7.22249"><ele></ele><time>2016-8-30T21:42:18Z</time></trkpt>
<trkpt lat="46.15533" lon="7.22252"><ele></ele><time>2016-8-30T21:42:21Z</time></trkpt>
<trkpt lat="46.15537" lon="7.22255"><ele></ele><time>2016-8-30T21:42:24Z</time></trkpt>
<trkpt lat="46.15538" lon="7.22256"><ele></ele><time>2016-8-30T21:42:27Z</time></trkpt>
<trkpt lat="46.1554" lon="7.22258"><ele></ele><time>2016-8-30T21:42:30Z</time></trkpt>
<trkpt lat="46.15542" lon="7.22262"><ele></ele><time>2016-8-30T21:42:33Z</time></trkpt>
<trkpt lat="46.15543" lon="7.22264"><ele></ele><time>2016-8-30T21:42:36Z</time></trkpt>
<trkpt lat="46.15545" lon="7.22265"><ele></ele><time>2016-8-30T21:42:39Z</time></trkpt>
<trkpt lat="46.15547" lon="7.22269"><ele></ele><time>2016-8-30T21:42:42Z</time></trkpt>
<trkpt lat="46.1555" lon="7.22272"><ele></ele><time>2016-8-30T21:42:45Z</time></trkpt>
<trkpt lat="46.15552" lon="7.22276"><ele></ele><time>2016-8-30T21:42:48Z</time></trkpt>
<trkpt lat="46.15555" lon="7.2228"><ele></ele><time>2016-8-30T21:42:51Z</time></trkpt>
<trkpt lat="46.15557" lon="7.22283"><ele></ele><time>2016-8-30T21:42:54Z</time></trkpt>
<trkpt lat="46.1556" lon="7.22287"><ele></ele><time>2016-8-30T21:42:57Z</time></trkpt>
<trkpt lat="46.15562" lon="7.2229"><ele></ele><time>2016-8-30T21:43:0Z</time></trkpt>
<trkpt lat="46.15565" lon="7.22294"><ele></ele><time>2016-8-30T21:43:3Z</time></trkpt>
<trkpt lat="46.15567" lon="7.22297"><ele></ele><time>2016-8-30T21:43:6Z</time></trkpt>
<trkpt lat="46.1557" lon="7.22301"><ele></ele><time>2016-8-30T21:43:9Z</time></trkpt>
<trkpt lat="46.15571" lon="7.22303"><ele></ele><time>2016-8-30T21:43:12Z</time></trkpt>
<trkpt lat="46.15573" lon="7.22304"><ele></ele><time>2016-8-30T21:43:15Z</time></trkpt>
<trkpt lat="46.15576" lon="7.22307"><ele></ele><time>2016-8-30T21:43:18Z</time></trkpt>
<trkpt lat="46.15579" lon="7.2231"><ele></ele><time>2016-8-30T21:43:21Z</time></trkpt>
<trkpt lat="46.15582" lon="7.22313"><ele></ele><time>2016-8-30T21:43:24Z</time></trkpt>
<trkpt lat="46.15585" lon="7.22316"><ele></ele><time>2016-8-30T21:43:27Z</time></trkpt>
<trkpt lat="46.15588" lon="7.2232"><ele></ele><time>2016-8-30T21:43:30Z</time></trkpt>
<trkpt lat="46.15591" lon="7.22323"><ele></ele><time>2016-8-30T21:43:33Z</time></trkpt>
<trkpt lat="46.15594" lon="7.22326"><ele></ele><time>2016-8-30T21:43:36Z</time></trkpt>
<trkpt lat="46.15597" lon="7.22329"><ele></ele><time>2016-8-30T21:43:39Z</time></trkpt>
<trkpt lat="46.15598" lon="7.2233"><ele></ele><time>2016-8-30T21:43:42Z</time></trkpt>
<trkpt lat="46.156" lon="7.22332"><ele></ele><time>2016-8-30T21:43:45Z</time></trkpt>
<trkpt lat="46.15603" lon="7.22335"><ele></ele><time>2016-8-30T21:43:48Z</time></trkpt>
<trkpt lat="46.15606" lon="7.22338"><ele></ele><time>2016-8-30T21:43:51Z</time></trkpt>
<trkpt lat="46.15609" lon="7.22341"><ele></ele><time>2016-8-30T21:43:54Z</time></trkpt>
<trkpt lat="46.15613" lon="7.22343"><ele></ele><time>2016-8-30T21:43:57Z</time></trkpt>
<trkpt lat="46.15618" lon="7.22345"><ele></ele><time>2016-8-30T21:44:0Z</time></trkpt>
<trkpt lat="46.15622" lon="7.22347"><ele></ele><time>2016-8-30T21:44:3Z</time></trkpt>
<trkpt lat="46.15626" lon="7.22349"><ele></ele><time>2016-8-30T21:44:6Z</time></trkpt>
<trkpt lat="46.15631" lon="7.22352"><ele></ele><time>2016-8-30T21:44:9Z</time></trkpt>
<trkpt lat="46.15635" lon="7.22354"><ele></ele><time>2016-8-30T21:44:12Z</time></trkpt>
<trkpt lat="46.1564" lon="7.22356"><ele></ele><time>2016-8-30T21:44:15Z</time></trkpt>
<trkpt lat="46.15644" lon="7.22358"><ele></ele><time>2016-8-30T21:44:18Z</time></trkpt>
<trkpt lat="46.15649" lon="7.2236"><ele></ele><time>2016-8-30T21:44:21Z</time></trkpt>
<trkpt lat="46.15653" lon="7.22362"><ele></ele><time>2016-8-30T21:44:24Z</time></trkpt>
<trkpt lat="46.15657" lon="7.22364"><ele></ele><time>2016-8-30T21:44:27Z</time></trkpt>
<trkpt lat="46.15662" lon="7.22367"><ele></ele><time>2016-8-30T21:44:30Z</time></trkpt>
<trkpt lat="46.15666" lon="7.22369"><ele></ele><time>2016-8-30T21:44:33Z</time></trkpt>
<trkpt lat="46.15671" lon="7.22371"><ele></ele><time>2016-8-30T21:44:36Z</time></trkpt>
<trkpt lat="46.15675" lon="7.22373"><ele></ele><time>2016-8-30T21:44:39Z</time></trkpt>
<trkpt lat="46.1568" lon="7.22375"><ele></ele><time>2016-8-30T21:44:42Z</time></trkpt>
<trkpt lat="46.15684" lon="7.22377"><ele></ele><time>2016-8-30T21:44:45Z</time></trkpt>
<trkpt lat="46.15688" lon="7.2238"><ele></ele><time>2016-8-30T21:44:48Z</time></trkpt>
<trkpt lat="46.15691" lon="7.22381"><ele></ele><time>2016-8-30T21:44:51Z</time></trkpt>
<trkpt lat="46.15692" lon="7.22381"><ele></ele><time>2016-8-30T21:44:54Z</time></trkpt>
<trkpt lat="46.15694" lon="7.22383"><ele></ele><time>2016-8-30T21:44:57Z</time></trkpt>
<trkpt lat="46.15697" lon="7.22385"><ele></ele><time>2016-8-30T21:45:0Z</time></trkpt>
<trkpt lat="46.15699" lon="7.22387"><ele></ele><time>2016-8-30T21:45:3Z</time></trkpt>
<trkpt lat="46.15702" lon="7.22388"><ele></ele><time>2016-8-30T21:45:6Z</time></trkpt>
<trkpt lat="46.15704" lon="7.2239"><ele></ele><time>2016-8-30T21:45:9Z</time></trkpt>
<trkpt lat="46.15707" lon="7.22392"><ele></ele><time>2016-8-30T21:45:12Z</time></trkpt>
<trkpt lat="46.15709" lon="7.22393"><ele></ele><time>2016-8-30T21:45:15Z</time></trkpt>
<trkpt lat="46.15711" lon="7.22395"><ele></ele><time>2016-8-30T21:45:18Z</time></trkpt>
<trkpt lat="46.15714" lon="7.22397"><ele></ele><time>2016-8-30T21:45:21Z</time></trkpt>
<trkpt lat="46.15716" lon="7.22398"><ele></ele><time>2016-8-30T21:45:24Z</time></trkpt>
<trkpt lat="46.15719" lon="7.224"><ele></ele><time>2016-8-30T21:45:27Z</time></trkpt>
<trkpt lat="46.15721" lon="7.22402"><ele></ele><time>2016-8-30T21:45:30Z</time></trkpt>
<trkpt lat="46.15724" lon="7.22404"><ele></ele><time>2016-8-30T21:45:33Z</time></trkpt>
<trkpt lat="46.15726" lon="7.22405"><ele></ele><time>2016-8-30T21:45:36Z</time></trkpt>
<trkpt lat="46.15729" lon="7.22407"><ele></ele><time>2016-8-30T21:45:39Z</time></trkpt>
<trkpt lat="46.15731" lon="7.22409"><ele></ele><time>2016-8-30T21:45:42Z</time></trkpt>
<trkpt lat="46.15733" lon="7.2241"><ele></ele><time>2016-8-30T21:45:45Z</time></trkpt>
<trkpt lat="46.15736" lon="7.22412"><ele></ele><time>2016-8-30T21:45:48Z</time></trkpt>
<trkpt lat="46.15738" lon="7.22414"><ele></ele><time>2016-8-30T21:45:51Z</time></trkpt>
<trkpt lat="46.1574" lon="7.22415"><ele></ele><time>2016-8-30T21:45:54Z</time></trkpt>
<trkpt lat="46.15741" lon="7.22415"><ele></ele><time>2016-8-30T21:45:57Z</time></trkpt>
<trkpt lat="46.15743" lon="7.22417"><ele></ele><time>2016-8-30T21:46:0Z</time></trkpt>
<trkpt lat="46.15744" lon="7.22418"><ele></ele><time>2016-8-30T21:46:3Z</time></trkpt>
<trkpt lat="46.15746" lon="7.2242"><ele></ele><time>2016-8-30T21:46:6Z</time></trkpt>
<trkpt lat="46.15751" lon="7.22424"><ele></ele><time>2016-8-30T21:46:9Z</time></trkpt>
<trkpt lat="46.15755" lon="7.22427"><ele></ele><time>2016-8-30T21:46:12Z</time></trkpt>
<trkpt lat="46.15759" lon="7.22431"><ele></ele><time>2016-8-30T21:46:15Z</time></trkpt>
<trkpt lat="46.15764" lon="7.22435"><ele></ele><time>2016-8-30T21:46:18Z</time></trkpt>
<trkpt lat="46.15768" lon="7.22438"><ele></ele><time>2016-8-30T21:46:21Z</time></trkpt>
<trkpt lat="46.15772" lon="7.22442"><ele></ele><time>2016-8-30T21:46:24Z</time></trkpt>
<trkpt lat="46.15777" lon="7.22446"><ele></ele><time>2016-8-30T21:46:27Z</time></trkpt>
<trkpt lat="46.15779" lon="7.22447"><ele></ele><time>2016-8-30T21:46:30Z</time></trkpt>
<trkpt lat="46.15781" lon="7.22449"><ele></ele><time>2016-8-30T21:46:33Z</time></trkpt>
<trkpt lat="46.15785" lon="7.22453"><ele></ele><time>2016-8-30T21:46:36Z</time></trkpt>
<trkpt lat="46.1579" lon="7.22457"><ele></ele><time>2016-8-30T21:46:39Z</time></trkpt>
<trkpt lat="46.15807" lon="7.22472"><ele></ele><time>2016-8-30T21:46:42Z</time></trkpt>
<trkpt lat="46.15826" lon="7.22487"><ele></ele><time>2016-8-30T21:46:45Z</time></trkpt>
<trkpt lat="46.15835" lon="7.22494"><ele></ele><time>2016-8-30T21:46:48Z</time></trkpt>
<trkpt lat="46.1584" lon="7.22497"><ele></ele><time>2016-8-30T21:46:51Z</time></trkpt>
<trkpt lat="46.1585" lon="7.22502"><ele></ele><time>2016-8-30T21:46:54Z</time></trkpt>
<trkpt lat="46.15859" lon="7.22508"><ele></ele><time>2016-8-30T21:46:57Z</time></trkpt>
<trkpt lat="46.15869" lon="7.22513"><ele></ele><time>2016-8-30T21:47:0Z</time></trkpt>
<trkpt lat="46.15871" lon="7.22513"><ele></ele><time>2016-8-30T21:47:3Z</time></trkpt>
<trkpt lat="46.15874" lon="7.22513"><ele></ele><time>2016-8-30T21:47:6Z</time></trkpt>
<trkpt lat="46.15876" lon="7.22513"><ele></ele><time>2016-8-30T21:47:9Z</time></trkpt>
<trkpt lat="46.15878" lon="7.22513"><ele></ele><time>2016-8-30T21:47:12Z</time></trkpt>
<trkpt lat="46.15879" lon="7.22513"><ele></ele><time>2016-8-30T21:47:15Z</time></trkpt>
<trkpt lat="46.15877" lon="7.22511"><ele></ele><time>2016-8-30T21:47:18Z</time></trkpt>
<trkpt lat="46.15873" lon="7.22509"><ele></ele><time>2016-8-30T21:47:21Z</time></trkpt>
<trkpt lat="46.1587" lon="7.22506"><ele></ele><time>2016-8-30T21:47:24Z</time></trkpt>
<trkpt lat="46.15868" lon="7.22505"><ele></ele><time>2016-8-30T21:47:27Z</time></trkpt>
<trkpt lat="46.15874" lon="7.22509"><ele></ele><time>2016-8-30T21:47:30Z</time></trkpt>
<trkpt lat="46.15886" lon="7.22517"><ele></ele><time>2016-8-30T21:47:33Z</time></trkpt>
<trkpt lat="46.15898" lon="7.22526"><ele></ele><time>2016-8-30T21:47:36Z</time></trkpt>
<trkpt lat="46.15891" lon="7.22502"><ele></ele><time>2016-8-30T21:47:39Z</time></trkpt>
<trkpt lat="46.15883" lon="7.22477"><ele></ele><time>2016-8-30T21:47:42Z</time></trkpt>
<trkpt lat="46.15874" lon="7.22451"><ele></ele><time>2016-8-30T21:47:45Z</time></trkpt>
<trkpt lat="46.15869" lon="7.22423"><ele></ele><time>2016-8-30T21:47:48Z</time></trkpt>
<trkpt lat="46.15872" lon="7.22459"><ele></ele><time>2016-8-30T21:47:51Z</time></trkpt>
<trkpt lat="46.15867" lon="7.22466"><ele></ele><time>2016-8-30T21:47:54Z</time></trkpt>
<trkpt lat="46.15864" lon="7.22468"><ele></ele><time>2016-8-30T21:47:57Z</time></trkpt>
<trkpt lat="46.15863" lon="7.22472"><ele></ele><time>2016-8-30T21:48:0Z</time></trkpt>
<trkpt lat="46.15863" lon="7.2248"><ele></ele><time>2016-8-30T21:48:3Z</time></trkpt>
<trkpt lat="46.15862" lon="7.22489"><ele></ele><time>2016-8-30T21:48:6Z</time></trkpt>
<trkpt lat="46.15862" lon="7.22497"><ele></ele><time>2016-8-30T21:48:9Z</time></trkpt>
<trkpt lat="46.15862" lon="7.22501"><ele></ele><time>2016-8-30T21:48:12Z</time></trkpt>
<trkpt lat="46.15864" lon="7.22507"><ele></ele><time>2016-8-30T21:48:15Z</time></trkpt>
<trkpt lat="46.1587" lon="7.22518"><ele></ele><time>2016-8-30T21:48:18Z</time></trkpt>
<trkpt lat="46.15876" lon="7.2253"><ele></ele><time>2016-8-30T21:48:21Z</time></trkpt>
<trkpt lat="46.15882" lon="7.22542"><ele></ele><time>2016-8-30T21:48:24Z</time></trkpt>
<trkpt lat="46.15888" lon="7.22553"><ele></ele><time>2016-8-30T21:48:27Z</time></trkpt>
<trkpt lat="46.15891" lon="7.22556"><ele></ele><time>2016-8-30T21:48:30Z</time></trkpt>
<trkpt lat="46.15893" lon="7.22557"><ele></ele><time>2016-8-30T21:48:33Z</time></trkpt>
<trkpt lat="46.15895" lon="7.22558"><ele></ele><time>2016-8-30T21:48:36Z</time></trkpt>
<trkpt lat="46.15898" lon="7.2256"><ele></ele><time>2016-8-30T21:48:39Z</time></trkpt>
<trkpt lat="46.15901" lon="7.22563"><ele></ele><time>2016-8-30T21:48:42Z</time></trkpt>
<trkpt lat="46.15904" lon="7.22565"><ele></ele><time>2016-8-30T21:48:45Z</time></trkpt>
<trkpt lat="46.15907" lon="7.22567"><ele></ele><time>2016-8-30T21:48:48Z</time></trkpt>
<trkpt lat="46.1591" lon="7.2257"><ele></ele><time>2016-8-30T21:48:51Z</time></trkpt>
<trkpt lat="46.15913" lon="7.22572"><ele></ele><time>2016-8-30T21:48:54Z</time></trkpt>
<trkpt lat="46.15916" lon="7.22574"><ele></ele><time>2016-8-30T21:48:57Z</time></trkpt>
<trkpt lat="46.1592" lon="7.22577"><ele></ele><time>2016-8-30T21:49:0Z</time></trkpt>
<trkpt lat="46.15923" lon="7.22579"><ele></ele><time>2016-8-30T21:49:3Z</time></trkpt>
<trkpt lat="46.15926" lon="7.22581"><ele></ele><time>2016-8-30T21:49:6Z</time></trkpt>
<trkpt lat="46.15929" lon="7.22583"><ele></ele><time>2016-8-30T21:49:9Z</time></trkpt>
<trkpt lat="46.15932" lon="7.22587"><ele></ele><time>2016-8-30T21:49:12Z</time></trkpt>
<trkpt lat="46.15934" lon="7.22591"><ele></ele><time>2016-8-30T21:49:15Z</time></trkpt>
<trkpt lat="46.15937" lon="7.22595"><ele></ele><time>2016-8-30T21:49:18Z</time></trkpt>
<trkpt lat="46.1594" lon="7.22599"><ele></ele><time>2016-8-30T21:49:21Z</time></trkpt>
<trkpt lat="46.15942" lon="7.22603"><ele></ele><time>2016-8-30T21:49:24Z</time></trkpt>
<trkpt lat="46.15945" lon="7.22607"><ele></ele><time>2016-8-30T21:49:27Z</time></trkpt>
<trkpt lat="46.15948" lon="7.22611"><ele></ele><time>2016-8-30T21:49:30Z</time></trkpt>
<trkpt lat="46.1595" lon="7.22615"><ele></ele><time>2016-8-30T21:49:33Z</time></trkpt>
<trkpt lat="46.15953" lon="7.2262"><ele></ele><time>2016-8-30T21:49:36Z</time></trkpt>
<trkpt lat="46.15956" lon="7.22624"><ele></ele><time>2016-8-30T21:49:39Z</time></trkpt>
<trkpt lat="46.15958" lon="7.22628"><ele></ele><time>2016-8-30T21:49:42Z</time></trkpt>
<trkpt lat="46.1596" lon="7.2263"><ele></ele><time>2016-8-30T21:49:45Z</time></trkpt>
<trkpt lat="46.15961" lon="7.22632"><ele></ele><time>2016-8-30T21:49:48Z</time></trkpt>
<trkpt lat="46.15964" lon="7.22635"><ele></ele><time>2016-8-30T21:49:51Z</time></trkpt>
<trkpt lat="46.15966" lon="7.22639"><ele></ele><time>2016-8-30T21:49:54Z</time></trkpt>
<trkpt lat="46.15969" lon="7.22643"><ele></ele><time>2016-8-30T21:49:57Z</time></trkpt>
<trkpt lat="46.15972" lon="7.22647"><ele></ele><time>2016-8-30T21:50:0Z</time></trkpt>
<trkpt lat="46.15974" lon="7.22651"><ele></ele><time>2016-8-30T21:50:3Z</time></trkpt>
<trkpt lat="46.15977" lon="7.22655"><ele></ele><time>2016-8-30T21:50:6Z</time></trkpt>
<trkpt lat="46.1598" lon="7.22659"><ele></ele><time>2016-8-30T21:50:9Z</time></trkpt>
<trkpt lat="46.15982" lon="7.22662"><ele></ele><time>2016-8-30T21:50:12Z</time></trkpt>
<trkpt lat="46.15985" lon="7.22666"><ele></ele><time>2016-8-30T21:50:15Z</time></trkpt>
<trkpt lat="46.15988" lon="7.2267"><ele></ele><time>2016-8-30T21:50:18Z</time></trkpt>
<trkpt lat="46.1599" lon="7.22674"><ele></ele><time>2016-8-30T21:50:21Z</time></trkpt>
<trkpt lat="46.15992" lon="7.22676"><ele></ele><time>2016-8-30T21:50:24Z</time></trkpt>
<trkpt lat="46.15993" lon="7.22678"><ele></ele><time>2016-8-30T21:50:27Z</time></trkpt>
<trkpt lat="46.15996" lon="7.22682"><ele></ele><time>2016-8-30T21:50:30Z</time></trkpt>
<trkpt lat="46.15998" lon="7.22687"><ele></ele><time>2016-8-30T21:50:33Z</time></trkpt>
<trkpt lat="46.16001" lon="7.22691"><ele></ele><time>2016-8-30T21:50:36Z</time></trkpt>
<trkpt lat="46.16004" lon="7.22696"><ele></ele><time>2016-8-30T21:50:39Z</time></trkpt>
<trkpt lat="46.16006" lon="7.227"><ele></ele><time>2016-8-30T21:50:42Z</time></trkpt>
<trkpt lat="46.16009" lon="7.22705"><ele></ele><time>2016-8-30T21:50:45Z</time></trkpt>
<trkpt lat="46.16012" lon="7.2271"><ele></ele><time>2016-8-30T21:50:48Z</time></trkpt>
<trkpt lat="46.16015" lon="7.22714"><ele></ele><time>2016-8-30T21:50:51Z</time></trkpt>
<trkpt lat="46.16017" lon="7.22719"><ele></ele><time>2016-8-30T21:50:54Z</time></trkpt>
<trkpt lat="46.1602" lon="7.22723"><ele></ele><time>2016-8-30T21:50:57Z</time></trkpt>
<trkpt lat="46.16021" lon="7.22725"><ele></ele><time>2016-8-30T21:51:0Z</time></trkpt>
<trkpt lat="46.16023" lon="7.22728"><ele></ele><time>2016-8-30T21:51:3Z</time></trkpt>
<trkpt lat="46.16025" lon="7.22732"><ele></ele><time>2016-8-30T21:51:6Z</time></trkpt>
<trkpt lat="46.16028" lon="7.22737"><ele></ele><time>2016-8-30T21:51:9Z</time></trkpt>
<trkpt lat="46.1603" lon="7.22741"><ele></ele><time>2016-8-30T21:51:12Z</time></trkpt>
<trkpt lat="46.16033" lon="7.22746"><ele></ele><time>2016-8-30T21:51:15Z</time></trkpt>
<trkpt lat="46.16035" lon="7.2275"><ele></ele><time>2016-8-30T21:51:18Z</time></trkpt>
<trkpt lat="46.16038" lon="7.22755"><ele></ele><time>2016-8-30T21:51:21Z</time></trkpt>
<trkpt lat="46.1604" lon="7.22759"><ele></ele><time>2016-8-30T21:51:24Z</time></trkpt>
<trkpt lat="46.16043" lon="7.22764"><ele></ele><time>2016-8-30T21:51:27Z</time></trkpt>
<trkpt lat="46.16045" lon="7.22768"><ele></ele><time>2016-8-30T21:51:30Z</time></trkpt>
<trkpt lat="46.16048" lon="7.22773"><ele></ele><time>2016-8-30T21:51:33Z</time></trkpt>
<trkpt lat="46.1605" lon="7.22777"><ele></ele><time>2016-8-30T21:51:36Z</time></trkpt>
<trkpt lat="46.16051" lon="7.22779"><ele></ele><time>2016-8-30T21:51:39Z</time></trkpt>
<trkpt lat="46.16052" lon="7.22781"><ele></ele><time>2016-8-30T21:51:42Z</time></trkpt>
<trkpt lat="46.16054" lon="7.22785"><ele></ele><time>2016-8-30T21:51:45Z</time></trkpt>
<trkpt lat="46.16056" lon="7.22788"><ele></ele><time>2016-8-30T21:51:48Z</time></trkpt>
<trkpt lat="46.16058" lon="7.22791"><ele></ele><time>2016-8-30T21:51:51Z</time></trkpt>
<trkpt lat="46.1606" lon="7.22794"><ele></ele><time>2016-8-30T21:51:54Z</time></trkpt>
<trkpt lat="46.16061" lon="7.22796"><ele></ele><time>2016-8-30T21:51:57Z</time></trkpt>
<trkpt lat="46.16062" lon="7.22798"><ele></ele><time>2016-8-30T21:52:0Z</time></trkpt>
<trkpt lat="46.16064" lon="7.22801"><ele></ele><time>2016-8-30T21:52:3Z</time></trkpt>
<trkpt lat="46.16065" lon="7.22804"><ele></ele><time>2016-8-30T21:52:6Z</time></trkpt>
<trkpt lat="46.16067" lon="7.22807"><ele></ele><time>2016-8-30T21:52:9Z</time></trkpt>
<trkpt lat="46.16069" lon="7.22811"><ele></ele><time>2016-8-30T21:52:12Z</time></trkpt>
<trkpt lat="46.16071" lon="7.22814"><ele></ele><time>2016-8-30T21:52:15Z</time></trkpt>
<trkpt lat="46.16073" lon="7.22817"><ele></ele><time>2016-8-30T21:52:18Z</time></trkpt>
<trkpt lat="46.16075" lon="7.2282"><ele></ele><time>2016-8-30T21:52:21Z</time></trkpt>
<trkpt lat="46.16076" lon="7.22824"><ele></ele><time>2016-8-30T21:52:24Z</time></trkpt>
<trkpt lat="46.16078" lon="7.22827"><ele></ele><time>2016-8-30T21:52:27Z</time></trkpt>
<trkpt lat="46.1608" lon="7.2283"><ele></ele><time>2016-8-30T21:52:30Z</time></trkpt>
<trkpt lat="46.16081" lon="7.22831"><ele></ele><time>2016-8-30T21:52:33Z</time></trkpt>
<trkpt lat="46.16081" lon="7.22832"><ele></ele><time>2016-8-30T21:52:36Z</time></trkpt>
<trkpt lat="46.16081" lon="7.22832"><ele></ele><time>2016-8-30T21:52:39Z</time></trkpt>
<trkpt lat="46.16103" lon="7.22864"><ele></ele><time>2016-8-30T21:52:42Z</time></trkpt>
<trkpt lat="46.16103" lon="7.22864"><ele></ele><time>2016-8-30T21:52:45Z</time></trkpt>
<trkpt lat="46.16124" lon="7.22896"><ele></ele><time>2016-8-30T21:52:48Z</time></trkpt>
<trkpt lat="46.16125" lon="7.22897"><ele></ele><time>2016-8-30T21:52:51Z</time></trkpt>
<trkpt lat="46.16125" lon="7.22897"><ele></ele><time>2016-8-30T21:52:54Z</time></trkpt>
<trkpt lat="46.16126" lon="7.22898"><ele></ele><time>2016-8-30T21:52:57Z</time></trkpt>
<trkpt lat="46.16126" lon="7.22899"><ele></ele><time>2016-8-30T21:53:0Z</time></trkpt>
<trkpt lat="46.16127" lon="7.229"><ele></ele><time>2016-8-30T21:53:3Z</time></trkpt>
<trkpt lat="46.16127" lon="7.229"><ele></ele><time>2016-8-30T21:53:6Z</time></trkpt>
<trkpt lat="46.16128" lon="7.22901"><ele></ele><time>2016-8-30T21:53:9Z</time></trkpt>
<trkpt lat="46.16128" lon="7.22902"><ele></ele><time>2016-8-30T21:53:12Z</time></trkpt>
<trkpt lat="46.16129" lon="7.22904"><ele></ele><time>2016-8-30T21:53:15Z</time></trkpt>
<trkpt lat="46.16131" lon="7.22908"><ele></ele><time>2016-8-30T21:53:18Z</time></trkpt>
<trkpt lat="46.16134" lon="7.22913"><ele></ele><time>2016-8-30T21:53:21Z</time></trkpt>
<trkpt lat="46.16136" lon="7.22918"><ele></ele><time>2016-8-30T21:53:24Z</time></trkpt>
<trkpt lat="46.16138" lon="7.22923"><ele></ele><time>2016-8-30T21:53:27Z</time></trkpt>
<trkpt lat="46.16141" lon="7.22928"><ele></ele><time>2016-8-30T21:53:30Z</time></trkpt>
<trkpt lat="46.16143" lon="7.22932"><ele></ele><time>2016-8-30T21:53:33Z</time></trkpt>
<trkpt lat="46.16145" lon="7.22937"><ele></ele><time>2016-8-30T21:53:36Z</time></trkpt>
<trkpt lat="46.16147" lon="7.22942"><ele></ele><time>2016-8-30T21:53:39Z</time></trkpt>
<trkpt lat="46.1615" lon="7.22947"><ele></ele><time>2016-8-30T21:53:42Z</time></trkpt>
<trkpt lat="46.16151" lon="7.22949"><ele></ele><time>2016-8-30T21:53:45Z</time></trkpt>
<trkpt lat="46.1615" lon="7.22951"><ele></ele><time>2016-8-30T21:53:48Z</time></trkpt>
<trkpt lat="46.16147" lon="7.22955"><ele></ele><time>2016-8-30T21:53:51Z</time></trkpt>
<trkpt lat="46.16144" lon="7.22959"><ele></ele><time>2016-8-30T21:53:54Z</time></trkpt>
<trkpt lat="46.1614" lon="7.22963"><ele></ele><time>2016-8-30T21:53:57Z</time></trkpt>
<trkpt lat="46.16137" lon="7.22967"><ele></ele><time>2016-8-30T21:54:0Z</time></trkpt>
<trkpt lat="46.16134" lon="7.22971"><ele></ele><time>2016-8-30T21:54:3Z</time></trkpt>
<trkpt lat="46.16131" lon="7.22975"><ele></ele><time>2016-8-30T21:54:6Z</time></trkpt>
<trkpt lat="46.1613" lon="7.22977"><ele></ele><time>2016-8-30T21:54:9Z</time></trkpt>
<trkpt lat="46.16128" lon="7.22979"><ele></ele><time>2016-8-30T21:54:12Z</time></trkpt>
<trkpt lat="46.16125" lon="7.22978"><ele></ele><time>2016-8-30T21:54:15Z</time></trkpt>
<trkpt lat="46.16121" lon="7.22977"><ele></ele><time>2016-8-30T21:54:18Z</time></trkpt>
<trkpt lat="46.16117" lon="7.22975"><ele></ele><time>2016-8-30T21:54:21Z</time></trkpt>
<trkpt lat="46.16114" lon="7.22974"><ele></ele><time>2016-8-30T21:54:24Z</time></trkpt>
<trkpt lat="46.1611" lon="7.22973"><ele></ele><time>2016-8-30T21:54:27Z</time></trkpt>
<trkpt lat="46.16107" lon="7.22971"><ele></ele><time>2016-8-30T21:54:30Z</time></trkpt>
<trkpt lat="46.16103" lon="7.2297"><ele></ele><time>2016-8-30T21:54:33Z</time></trkpt>
<trkpt lat="46.161" lon="7.22969"><ele></ele><time>2016-8-30T21:54:36Z</time></trkpt>
<trkpt lat="46.16096" lon="7.22967"><ele></ele><time>2016-8-30T21:54:39Z</time></trkpt>
<trkpt lat="46.16092" lon="7.22966"><ele></ele><time>2016-8-30T21:54:42Z</time></trkpt>
<trkpt lat="46.16091" lon="7.22967"><ele></ele><time>2016-8-30T21:54:45Z</time></trkpt>
<trkpt lat="46.1609" lon="7.22969"><ele></ele><time>2016-8-30T21:54:48Z</time></trkpt>
<trkpt lat="46.16088" lon="7.22971"><ele></ele><time>2016-8-30T21:54:51Z</time></trkpt>
<trkpt lat="46.16088" lon="7.22972"><ele></ele><time>2016-8-30T21:54:54Z</time></trkpt>
<trkpt lat="46.16087" lon="7.22973"><ele></ele><time>2016-8-30T21:54:57Z</time></trkpt>
<trkpt lat="46.16086" lon="7.22975"><ele></ele><time>2016-8-30T21:55:0Z</time></trkpt>
<trkpt lat="46.16085" lon="7.22977"><ele></ele><time>2016-8-30T21:55:3Z</time></trkpt>
<trkpt lat="46.16083" lon="7.22979"><ele></ele><time>2016-8-30T21:55:6Z</time></trkpt>
<trkpt lat="46.16082" lon="7.22981"><ele></ele><time>2016-8-30T21:55:9Z</time></trkpt>
<trkpt lat="46.16081" lon="7.22983"><ele></ele><time>2016-8-30T21:55:12Z</time></trkpt>
<trkpt lat="46.16063" lon="7.22981"><ele></ele><time>2016-8-30T21:55:15Z</time></trkpt>
<trkpt lat="46.16044" lon="7.2298"><ele></ele><time>2016-8-30T21:55:18Z</time></trkpt>
<trkpt lat="46.16025" lon="7.22978"><ele></ele><time>2016-8-30T21:55:21Z</time></trkpt>
<trkpt lat="46.16016" lon="7.22977"><ele></ele><time>2016-8-30T21:55:24Z</time></trkpt>
<trkpt lat="46.16015" lon="7.22984"><ele></ele><time>2016-8-30T21:55:27Z</time></trkpt>
<trkpt lat="46.16015" lon="7.22999"><ele></ele><time>2016-8-30T21:55:30Z</time></trkpt>
<trkpt lat="46.16015" lon="7.23014"><ele></ele><time>2016-8-30T21:55:33Z</time></trkpt>
<trkpt lat="46.16015" lon="7.23029"><ele></ele><time>2016-8-30T21:55:36Z</time></trkpt>
<trkpt lat="46.16015" lon="7.23044"><ele></ele><time>2016-8-30T21:55:39Z</time></trkpt>
<trkpt lat="46.16015" lon="7.23059"><ele></ele><time>2016-8-30T21:55:42Z</time></trkpt>
<trkpt lat="46.16015" lon="7.23074"><ele></ele><time>2016-8-30T21:55:45Z</time></trkpt>
<trkpt lat="46.16015" lon="7.23088"><ele></ele><time>2016-8-30T21:55:48Z</time></trkpt>
<trkpt lat="46.16014" lon="7.23103"><ele></ele><time>2016-8-30T21:55:51Z</time></trkpt>
<trkpt lat="46.16014" lon="7.23118"><ele></ele><time>2016-8-30T21:55:54Z</time></trkpt>
<trkpt lat="46.16014" lon="7.23126"><ele></ele><time>2016-8-30T21:55:57Z</time></trkpt>
<trkpt lat="46.16014" lon="7.23133"><ele></ele><time>2016-8-30T21:56:0Z</time></trkpt>
<trkpt lat="46.16014" lon="7.23148"><ele></ele><time>2016-8-30T21:56:3Z</time></trkpt>
<trkpt lat="46.16014" lon="7.23163"><ele></ele><time>2016-8-30T21:56:6Z</time></trkpt>
<trkpt lat="46.16014" lon="7.23178"><ele></ele><time>2016-8-30T21:56:9Z</time></trkpt>
<trkpt lat="46.16014" lon="7.23193"><ele></ele><time>2016-8-30T21:56:12Z</time></trkpt>
<trkpt lat="46.16014" lon="7.23208"><ele></ele><time>2016-8-30T21:56:15Z</time></trkpt>
<trkpt lat="46.16014" lon="7.23223"><ele></ele><time>2016-8-30T21:56:18Z</time></trkpt>
<trkpt lat="46.16013" lon="7.23238"><ele></ele><time>2016-8-30T21:56:21Z</time></trkpt>
<trkpt lat="46.16013" lon="7.23245"><ele></ele><time>2016-8-30T21:56:24Z</time></trkpt>
<trkpt lat="46.16011" lon="7.23246"><ele></ele><time>2016-8-30T21:56:27Z</time></trkpt>
<trkpt lat="46.16006" lon="7.23246"><ele></ele><time>2016-8-30T21:56:30Z</time></trkpt>
<trkpt lat="46.16001" lon="7.23246"><ele></ele><time>2016-8-30T21:56:33Z</time></trkpt>
<trkpt lat="46.15996" lon="7.23246"><ele></ele><time>2016-8-30T21:56:36Z</time></trkpt>
<trkpt lat="46.15991" lon="7.23247"><ele></ele><time>2016-8-30T21:56:39Z</time></trkpt>
<trkpt lat="46.15987" lon="7.23247"><ele></ele><time>2016-8-30T21:56:42Z</time></trkpt>
<trkpt lat="46.15982" lon="7.23247"><ele></ele><time>2016-8-30T21:56:45Z</time></trkpt>
<trkpt lat="46.15977" lon="7.23247"><ele></ele><time>2016-8-30T21:56:48Z</time></trkpt>
<trkpt lat="46.15972" lon="7.23248"><ele></ele><time>2016-8-30T21:56:51Z</time></trkpt>
<trkpt lat="46.15967" lon="7.23248"><ele></ele><time>2016-8-30T21:56:54Z</time></trkpt>
<trkpt lat="46.15962" lon="7.2325"><ele></ele><time>2016-8-30T21:56:57Z</time></trkpt>
<trkpt lat="46.15957" lon="7.23252"><ele></ele><time>2016-8-30T21:57:0Z</time></trkpt>
<trkpt lat="46.15952" lon="7.23255"><ele></ele><time>2016-8-30T21:57:3Z</time></trkpt>
<trkpt lat="46.15948" lon="7.23257"><ele></ele><time>2016-8-30T21:57:6Z</time></trkpt>
<trkpt lat="46.15943" lon="7.23259"><ele></ele><time>2016-8-30T21:57:9Z</time></trkpt>
<trkpt lat="46.15938" lon="7.23261"><ele></ele><time>2016-8-30T21:57:12Z</time></trkpt>
<trkpt lat="46.15933" lon="7.23264"><ele></ele><time>2016-8-30T21:57:15Z</time></trkpt>
<trkpt lat="46.15928" lon="7.23266"><ele></ele><time>2016-8-30T21:57:18Z</time></trkpt>
<trkpt lat="46.15924" lon="7.23268"><ele></ele><time>2016-8-30T21:57:21Z</time></trkpt>
<trkpt lat="46.15919" lon="7.23269"><ele></ele><time>2016-8-30T21:57:24Z</time></trkpt>
<trkpt lat="46.15914" lon="7.23269"><ele></ele><time>2016-8-30T21:57:27Z</time></trkpt>
<trkpt lat="46.15911" lon="7.2327"><ele></ele><time>2016-8-30T21:57:30Z</time></trkpt>
<trkpt lat="46.15909" lon="7.2327"><ele></ele><time>2016-8-30T21:57:33Z</time></trkpt>
<trkpt lat="46.15904" lon="7.23271"><ele></ele><time>2016-8-30T21:57:36Z</time></trkpt>
<trkpt lat="46.15899" lon="7.23271"><ele></ele><time>2016-8-30T21:57:39Z</time></trkpt>
<trkpt lat="46.15894" lon="7.23272"><ele></ele><time>2016-8-30T21:57:42Z</time></trkpt>
<trkpt lat="46.15889" lon="7.23272"><ele></ele><time>2016-8-30T21:57:45Z</time></trkpt>
<trkpt lat="46.15884" lon="7.23273"><ele></ele><time>2016-8-30T21:57:48Z</time></trkpt>
<trkpt lat="46.15879" lon="7.23273"><ele></ele><time>2016-8-30T21:57:51Z</time></trkpt>
<trkpt lat="46.15877" lon="7.23273"><ele></ele><time>2016-8-30T21:57:54Z</time></trkpt>
<trkpt lat="46.15874" lon="7.23274"><ele></ele><time>2016-8-30T21:57:57Z</time></trkpt>
<trkpt lat="46.15872" lon="7.23274"><ele></ele><time>2016-8-30T21:58:0Z</time></trkpt>
<trkpt lat="46.1587" lon="7.23274"><ele></ele><time>2016-8-30T21:58:3Z</time></trkpt>
<trkpt lat="46.15865" lon="7.23274"><ele></ele><time>2016-8-30T21:58:6Z</time></trkpt>
<trkpt lat="46.1586" lon="7.23275"><ele></ele><time>2016-8-30T21:58:9Z</time></trkpt>
<trkpt lat="46.15855" lon="7.23275"><ele></ele><time>2016-8-30T21:58:12Z</time></trkpt>
<trkpt lat="46.15851" lon="7.23276"><ele></ele><time>2016-8-30T21:58:15Z</time></trkpt>
<trkpt lat="46.15846" lon="7.23276"><ele></ele><time>2016-8-30T21:58:18Z</time></trkpt>
<trkpt lat="46.15841" lon="7.23281"><ele></ele><time>2016-8-30T21:58:21Z</time></trkpt>
<trkpt lat="46.15836" lon="7.23287"><ele></ele><time>2016-8-30T21:58:24Z</time></trkpt>
<trkpt lat="46.15827" lon="7.23299"><ele></ele><time>2016-8-30T21:58:27Z</time></trkpt>
<trkpt lat="46.15817" lon="7.23311"><ele></ele><time>2016-8-30T21:58:30Z</time></trkpt>
<trkpt lat="46.15807" lon="7.23323"><ele></ele><time>2016-8-30T21:58:33Z</time></trkpt>
<trkpt lat="46.15794" lon="7.23342"><ele></ele><time>2016-8-30T21:58:36Z</time></trkpt>
<trkpt lat="46.15787" lon="7.23351"><ele></ele><time>2016-8-30T21:58:39Z</time></trkpt>
<trkpt lat="46.15781" lon="7.23364"><ele></ele><time>2016-8-30T21:58:42Z</time></trkpt>
<trkpt lat="46.1577" lon="7.23391"><ele></ele><time>2016-8-30T21:58:45Z</time></trkpt>
<trkpt lat="46.15759" lon="7.23418"><ele></ele><time>2016-8-30T21:58:48Z</time></trkpt>
<trkpt lat="46.15755" lon="7.23434"><ele></ele><time>2016-8-30T21:58:51Z</time></trkpt>
<trkpt lat="46.15753" lon="7.2345"><ele></ele><time>2016-8-30T21:58:54Z</time></trkpt>
<trkpt lat="46.15749" lon="7.23483"><ele></ele><time>2016-8-30T21:58:57Z</time></trkpt>
<trkpt lat="46.15739" lon="7.23512"><ele></ele><time>2016-8-30T21:59:0Z</time></trkpt>
<trkpt lat="46.15732" lon="7.23524"><ele></ele><time>2016-8-30T21:59:3Z</time></trkpt>
<trkpt lat="46.15724" lon="7.23536"><ele></ele><time>2016-8-30T21:59:6Z</time></trkpt>
<trkpt lat="46.15717" lon="7.23548"><ele></ele><time>2016-8-30T21:59:9Z</time></trkpt>
<trkpt lat="46.15711" lon="7.23563"><ele></ele><time>2016-8-30T21:59:12Z</time></trkpt>
<trkpt lat="46.157" lon="7.23594"><ele></ele><time>2016-8-30T21:59:15Z</time></trkpt>
<trkpt lat="46.15683" lon="7.23617"><ele></ele><time>2016-8-30T21:59:18Z</time></trkpt>
<trkpt lat="46.15666" lon="7.23638"><ele></ele><time>2016-8-30T21:59:21Z</time></trkpt>
<trkpt lat="46.15657" lon="7.23649"><ele></ele><time>2016-8-30T21:59:24Z</time></trkpt>
<trkpt lat="46.15647" lon="7.23655"><ele></ele><time>2016-8-30T21:59:27Z</time></trkpt>
<trkpt lat="46.15631" lon="7.23674"><ele></ele><time>2016-8-30T21:59:30Z</time></trkpt>
<trkpt lat="46.15623" lon="7.23683"><ele></ele><time>2016-8-30T21:59:33Z</time></trkpt>
<trkpt lat="46.15616" lon="7.23693"><ele></ele><time>2016-8-30T21:59:36Z</time></trkpt>
<trkpt lat="46.15608" lon="7.23716"><ele></ele><time>2016-8-30T21:59:39Z</time></trkpt>
<trkpt lat="46.156" lon="7.2374"><ele></ele><time>2016-8-30T21:59:42Z</time></trkpt>
<trkpt lat="46.15598" lon="7.23769"><ele></ele><time>2016-8-30T21:59:45Z</time></trkpt>
<trkpt lat="46.15599" lon="7.23783"><ele></ele><time>2016-8-30T21:59:48Z</time></trkpt>
<trkpt lat="46.15607" lon="7.23793"><ele></ele><time>2016-8-30T21:59:51Z</time></trkpt>
<trkpt lat="46.15615" lon="7.23819"><ele></ele><time>2016-8-30T21:59:54Z</time></trkpt>
<trkpt lat="46.15619" lon="7.23831"><ele></ele><time>2016-8-30T21:59:57Z</time></trkpt>
<trkpt lat="46.1561" lon="7.23843"><ele></ele><time>2016-8-30T22:0:0Z</time></trkpt>
<trkpt lat="46.1559" lon="7.23866"><ele></ele><time>2016-8-30T22:0:3Z</time></trkpt>
<trkpt lat="46.15575" lon="7.23892"><ele></ele><time>2016-8-30T22:0:6Z</time></trkpt>
<trkpt lat="46.15568" lon="7.23905"><ele></ele><time>2016-8-30T22:0:9Z</time></trkpt>
<trkpt lat="46.15566" lon="7.23921"><ele></ele><time>2016-8-30T22:0:12Z</time></trkpt>
<trkpt lat="46.15557" lon="7.23954"><ele></ele><time>2016-8-30T22:0:15Z</time></trkpt>
<trkpt lat="46.15552" lon="7.23971"><ele></ele><time>2016-8-30T22:0:18Z</time></trkpt>
<trkpt lat="46.15546" lon="7.23985"><ele></ele><time>2016-8-30T22:0:21Z</time></trkpt>
<trkpt lat="46.15539" lon="7.23999"><ele></ele><time>2016-8-30T22:0:24Z</time></trkpt>
<trkpt lat="46.15531" lon="7.24011"><ele></ele><time>2016-8-30T22:0:27Z</time></trkpt>
<trkpt lat="46.15514" lon="7.24034"><ele></ele><time>2016-8-30T22:0:30Z</time></trkpt>
<trkpt lat="46.15503" lon="7.24065"><ele></ele><time>2016-8-30T22:0:33Z</time></trkpt>
<trkpt lat="46.15492" lon="7.24095"><ele></ele><time>2016-8-30T22:0:36Z</time></trkpt>
<trkpt lat="46.15486" lon="7.24126"><ele></ele><time>2016-8-30T22:0:39Z</time></trkpt>
<trkpt lat="46.1548" lon="7.24157"><ele></ele><time>2016-8-30T22:0:42Z</time></trkpt>
<trkpt lat="46.15477" lon="7.24187"><ele></ele><time>2016-8-30T22:0:45Z</time></trkpt>
<trkpt lat="46.15474" lon="7.24216"><ele></ele><time>2016-8-30T22:0:48Z</time></trkpt>
<trkpt lat="46.15472" lon="7.24231"><ele></ele><time>2016-8-30T22:0:51Z</time></trkpt>
<trkpt lat="46.15469" lon="7.24245"><ele></ele><time>2016-8-30T22:0:54Z</time></trkpt>
<trkpt lat="46.15465" lon="7.24258"><ele></ele><time>2016-8-30T22:0:57Z</time></trkpt>
<trkpt lat="46.1546" lon="7.24271"><ele></ele><time>2016-8-30T22:1:0Z</time></trkpt>
<trkpt lat="46.15455" lon="7.24284"><ele></ele><time>2016-8-30T22:1:3Z</time></trkpt>
<trkpt lat="46.15452" lon="7.24299"><ele></ele><time>2016-8-30T22:1:6Z</time></trkpt>
<trkpt lat="46.15449" lon="7.24315"><ele></ele><time>2016-8-30T22:1:9Z</time></trkpt>
<trkpt lat="46.15446" lon="7.24331"><ele></ele><time>2016-8-30T22:1:12Z</time></trkpt>
<trkpt lat="46.15446" lon="7.24361"><ele></ele><time>2016-8-30T22:1:15Z</time></trkpt>
<trkpt lat="46.15445" lon="7.24391"><ele></ele><time>2016-8-30T22:1:18Z</time></trkpt>
<trkpt lat="46.15445" lon="7.24407"><ele></ele><time>2016-8-30T22:1:21Z</time></trkpt>
<trkpt lat="46.15444" lon="7.24424"><ele></ele><time>2016-8-30T22:1:24Z</time></trkpt>
<trkpt lat="46.15444" lon="7.24442"><ele></ele><time>2016-8-30T22:1:27Z</time></trkpt>
<trkpt lat="46.1544" lon="7.24458"><ele></ele><time>2016-8-30T22:1:30Z</time></trkpt>
<trkpt lat="46.15441" lon="7.24492"><ele></ele><time>2016-8-30T22:1:33Z</time></trkpt>
<trkpt lat="46.15442" lon="7.24525"><ele></ele><time>2016-8-30T22:1:36Z</time></trkpt>
<trkpt lat="46.15434" lon="7.24537"><ele></ele><time>2016-8-30T22:1:39Z</time></trkpt>
<trkpt lat="46.15429" lon="7.24551"><ele></ele><time>2016-8-30T22:1:42Z</time></trkpt>
<trkpt lat="46.15414" lon="7.24574"><ele></ele><time>2016-8-30T22:1:45Z</time></trkpt>
<trkpt lat="46.15401" lon="7.24581"><ele></ele><time>2016-8-30T22:1:48Z</time></trkpt>
<trkpt lat="46.1539" lon="7.2459"><ele></ele><time>2016-8-30T22:1:51Z</time></trkpt>
<trkpt lat="46.15374" lon="7.2462"><ele></ele><time>2016-8-30T22:1:54Z</time></trkpt>
<trkpt lat="46.15371" lon="7.24654"><ele></ele><time>2016-8-30T22:1:57Z</time></trkpt>
<trkpt lat="46.15368" lon="7.24689"><ele></ele><time>2016-8-30T22:2:0Z</time></trkpt>
<trkpt lat="46.15366" lon="7.2472"><ele></ele><time>2016-8-30T22:2:3Z</time></trkpt>
<trkpt lat="46.15366" lon="7.24735"><ele></ele><time>2016-8-30T22:2:6Z</time></trkpt>
<trkpt lat="46.15362" lon="7.2475"><ele></ele><time>2016-8-30T22:2:9Z</time></trkpt>
<trkpt lat="46.15354" lon="7.24779"><ele></ele><time>2016-8-30T22:2:12Z</time></trkpt>
<trkpt lat="46.15353" lon="7.24796"><ele></ele><time>2016-8-30T22:2:15Z</time></trkpt>
<trkpt lat="46.15352" lon="7.24804"><ele></ele><time>2016-8-30T22:2:18Z</time></trkpt>
<trkpt lat="46.1536" lon="7.24826"><ele></ele><time>2016-8-30T22:2:21Z</time></trkpt>
<trkpt lat="46.1536" lon="7.24826"><ele></ele><time>2016-8-30T22:2:24Z</time></trkpt>
<trkpt lat="46.15368" lon="7.2484"><ele></ele><time>2016-8-30T22:2:27Z</time></trkpt>
<trkpt lat="46.15373" lon="7.24845"><ele></ele><time>2016-8-30T22:2:30Z</time></trkpt>
<trkpt lat="46.15379" lon="7.2485"><ele></ele><time>2016-8-30T22:2:33Z</time></trkpt>
<trkpt lat="46.15387" lon="7.24852"><ele></ele><time>2016-8-30T22:2:36Z</time></trkpt>
<trkpt lat="46.15405" lon="7.24855"><ele></ele><time>2016-8-30T22:2:39Z</time></trkpt>
<trkpt lat="46.15414" lon="7.24853"><ele></ele><time>2016-8-30T22:2:42Z</time></trkpt>
<trkpt lat="46.15419" lon="7.24848"><ele></ele><time>2016-8-30T22:2:45Z</time></trkpt>
<trkpt lat="46.15429" lon="7.24835"><ele></ele><time>2016-8-30T22:2:48Z</time></trkpt>
<trkpt lat="46.15439" lon="7.24823"><ele></ele><time>2016-8-30T22:2:51Z</time></trkpt>
<trkpt lat="46.15448" lon="7.24811"><ele></ele><time>2016-8-30T22:2:54Z</time></trkpt>
<trkpt lat="46.15457" lon="7.24799"><ele></ele><time>2016-8-30T22:2:57Z</time></trkpt>
<trkpt lat="46.15461" lon="7.24793"><ele></ele><time>2016-8-30T22:3:0Z</time></trkpt>
<trkpt lat="46.15466" lon="7.24791"><ele></ele><time>2016-8-30T22:3:3Z</time></trkpt>
<trkpt lat="46.15471" lon="7.24791"><ele></ele><time>2016-8-30T22:3:6Z</time></trkpt>
<trkpt lat="46.15476" lon="7.24795"><ele></ele><time>2016-8-30T22:3:9Z</time></trkpt>
<trkpt lat="46.15485" lon="7.24804"><ele></ele><time>2016-8-30T22:3:12Z</time></trkpt>
<trkpt lat="46.15493" lon="7.24814"><ele></ele><time>2016-8-30T22:3:15Z</time></trkpt>
<trkpt lat="46.15498" lon="7.24818"><ele></ele><time>2016-8-30T22:3:18Z</time></trkpt>
<trkpt lat="46.15502" lon="7.24819"><ele></ele><time>2016-8-30T22:3:21Z</time></trkpt>
<trkpt lat="46.15511" lon="7.24819"><ele></ele><time>2016-8-30T22:3:24Z</time></trkpt>
<trkpt lat="46.15519" lon="7.24819"><ele></ele><time>2016-8-30T22:3:27Z</time></trkpt>
<trkpt lat="46.15528" lon="7.24819"><ele></ele><time>2016-8-30T22:3:30Z</time></trkpt>
<trkpt lat="46.15531" lon="7.24815"><ele></ele><time>2016-8-30T22:3:33Z</time></trkpt>
<trkpt lat="46.15535" lon="7.24811"><ele></ele><time>2016-8-30T22:3:36Z</time></trkpt>
<trkpt lat="46.15536" lon="7.24809"><ele></ele><time>2016-8-30T22:3:39Z</time></trkpt>
<trkpt lat="46.15538" lon="7.24807"><ele></ele><time>2016-8-30T22:3:42Z</time></trkpt>
<trkpt lat="46.15541" lon="7.24802"><ele></ele><time>2016-8-30T22:3:45Z</time></trkpt>
<trkpt lat="46.15544" lon="7.24798"><ele></ele><time>2016-8-30T22:3:48Z</time></trkpt>
<trkpt lat="46.15548" lon="7.24794"><ele></ele><time>2016-8-30T22:3:51Z</time></trkpt>
<trkpt lat="46.15551" lon="7.2479"><ele></ele><time>2016-8-30T22:3:54Z</time></trkpt>
<trkpt lat="46.15554" lon="7.24786"><ele></ele><time>2016-8-30T22:3:57Z</time></trkpt>
<trkpt lat="46.15557" lon="7.24782"><ele></ele><time>2016-8-30T22:4:0Z</time></trkpt>
<trkpt lat="46.1556" lon="7.24778"><ele></ele><time>2016-8-30T22:4:3Z</time></trkpt>
<trkpt lat="46.15562" lon="7.24776"><ele></ele><time>2016-8-30T22:4:6Z</time></trkpt>
<trkpt lat="46.15564" lon="7.24774"><ele></ele><time>2016-8-30T22:4:9Z</time></trkpt>
<trkpt lat="46.15567" lon="7.2477"><ele></ele><time>2016-8-30T22:4:12Z</time></trkpt>
<trkpt lat="46.1557" lon="7.24767"><ele></ele><time>2016-8-30T22:4:15Z</time></trkpt>
<trkpt lat="46.15571" lon="7.24765"><ele></ele><time>2016-8-30T22:4:18Z</time></trkpt>
<trkpt lat="46.15573" lon="7.24764"><ele></ele><time>2016-8-30T22:4:21Z</time></trkpt>
<trkpt lat="46.15576" lon="7.2476"><ele></ele><time>2016-8-30T22:4:24Z</time></trkpt>
<trkpt lat="46.15579" lon="7.24757"><ele></ele><time>2016-8-30T22:4:27Z</time></trkpt>
<trkpt lat="46.15582" lon="7.24753"><ele></ele><time>2016-8-30T22:4:30Z</time></trkpt>
<trkpt lat="46.15585" lon="7.2475"><ele></ele><time>2016-8-30T22:4:33Z</time></trkpt>
<trkpt lat="46.15588" lon="7.24747"><ele></ele><time>2016-8-30T22:4:36Z</time></trkpt>
<trkpt lat="46.15591" lon="7.24743"><ele></ele><time>2016-8-30T22:4:39Z</time></trkpt>
<trkpt lat="46.15594" lon="7.2474"><ele></ele><time>2016-8-30T22:4:42Z</time></trkpt>
<trkpt lat="46.15596" lon="7.24738"><ele></ele><time>2016-8-30T22:4:45Z</time></trkpt>
<trkpt lat="46.15598" lon="7.24738"><ele></ele><time>2016-8-30T22:4:48Z</time></trkpt>
<trkpt lat="46.15602" lon="7.24738"><ele></ele><time>2016-8-30T22:4:51Z</time></trkpt>
<trkpt lat="46.15606" lon="7.24738"><ele></ele><time>2016-8-30T22:4:54Z</time></trkpt>
<trkpt lat="46.1561" lon="7.24738"><ele></ele><time>2016-8-30T22:4:57Z</time></trkpt>
<trkpt lat="46.15614" lon="7.24737"><ele></ele><time>2016-8-30T22:5:0Z</time></trkpt>
<trkpt lat="46.15618" lon="7.24737"><ele></ele><time>2016-8-30T22:5:3Z</time></trkpt>
<trkpt lat="46.15622" lon="7.24737"><ele></ele><time>2016-8-30T22:5:6Z</time></trkpt>
<trkpt lat="46.15626" lon="7.24737"><ele></ele><time>2016-8-30T22:5:9Z</time></trkpt>
<trkpt lat="46.1563" lon="7.24737"><ele></ele><time>2016-8-30T22:5:12Z</time></trkpt>
<trkpt lat="46.15635" lon="7.24737"><ele></ele><time>2016-8-30T22:5:15Z</time></trkpt>
<trkpt lat="46.15639" lon="7.24737"><ele></ele><time>2016-8-30T22:5:18Z</time></trkpt>
<trkpt lat="46.15641" lon="7.24737"><ele></ele><time>2016-8-30T22:5:21Z</time></trkpt>
<trkpt lat="46.15642" lon="7.24737"><ele></ele><time>2016-8-30T22:5:24Z</time></trkpt>
<trkpt lat="46.15646" lon="7.24737"><ele></ele><time>2016-8-30T22:5:27Z</time></trkpt>
<trkpt lat="46.15649" lon="7.24737"><ele></ele><time>2016-8-30T22:5:30Z</time></trkpt>
<trkpt lat="46.15651" lon="7.24737"><ele></ele><time>2016-8-30T22:5:33Z</time></trkpt>
<trkpt lat="46.15653" lon="7.24737"><ele></ele><time>2016-8-30T22:5:36Z</time></trkpt>
<trkpt lat="46.15656" lon="7.24737"><ele></ele><time>2016-8-30T22:5:39Z</time></trkpt>
<trkpt lat="46.1566" lon="7.24737"><ele></ele><time>2016-8-30T22:5:42Z</time></trkpt>
<trkpt lat="46.15663" lon="7.24737"><ele></ele><time>2016-8-30T22:5:45Z</time></trkpt>
<trkpt lat="46.15667" lon="7.24737"><ele></ele><time>2016-8-30T22:5:48Z</time></trkpt>
<trkpt lat="46.1567" lon="7.24737"><ele></ele><time>2016-8-30T22:5:51Z</time></trkpt>
<trkpt lat="46.15674" lon="7.24738"><ele></ele><time>2016-8-30T22:5:54Z</time></trkpt>
<trkpt lat="46.15676" lon="7.24738"><ele></ele><time>2016-8-30T22:5:57Z</time></trkpt>
<trkpt lat="46.15677" lon="7.24736"><ele></ele><time>2016-8-30T22:6:0Z</time></trkpt>
<trkpt lat="46.1568" lon="7.24734"><ele></ele><time>2016-8-30T22:6:3Z</time></trkpt>
<trkpt lat="46.15683" lon="7.24732"><ele></ele><time>2016-8-30T22:6:6Z</time></trkpt>
<trkpt lat="46.15687" lon="7.24729"><ele></ele><time>2016-8-30T22:6:9Z</time></trkpt>
<trkpt lat="46.1569" lon="7.24727"><ele></ele><time>2016-8-30T22:6:12Z</time></trkpt>
<trkpt lat="46.15693" lon="7.24725"><ele></ele><time>2016-8-30T22:6:15Z</time></trkpt>
<trkpt lat="46.15696" lon="7.24723"><ele></ele><time>2016-8-30T22:6:18Z</time></trkpt>
<trkpt lat="46.15699" lon="7.2472"><ele></ele><time>2016-8-30T22:6:21Z</time></trkpt>
<trkpt lat="46.15702" lon="7.24718"><ele></ele><time>2016-8-30T22:6:24Z</time></trkpt>
<trkpt lat="46.15705" lon="7.24716"><ele></ele><time>2016-8-30T22:6:27Z</time></trkpt>
<trkpt lat="46.15709" lon="7.24713"><ele></ele><time>2016-8-30T22:6:30Z</time></trkpt>
<trkpt lat="46.15712" lon="7.24711"><ele></ele><time>2016-8-30T22:6:33Z</time></trkpt>
<trkpt lat="46.15713" lon="7.2471"><ele></ele><time>2016-8-30T22:6:36Z</time></trkpt>
<trkpt lat="46.15715" lon="7.24709"><ele></ele><time>2016-8-30T22:6:39Z</time></trkpt>
<trkpt lat="46.15718" lon="7.24711"><ele></ele><time>2016-8-30T22:6:42Z</time></trkpt>
<trkpt lat="46.15722" lon="7.24713"><ele></ele><time>2016-8-30T22:6:45Z</time></trkpt>
<trkpt lat="46.15725" lon="7.24716"><ele></ele><time>2016-8-30T22:6:48Z</time></trkpt>
<trkpt lat="46.15728" lon="7.24718"><ele></ele><time>2016-8-30T22:6:51Z</time></trkpt>
<trkpt lat="46.15732" lon="7.2472"><ele></ele><time>2016-8-30T22:6:54Z</time></trkpt>
<trkpt lat="46.15735" lon="7.24723"><ele></ele><time>2016-8-30T22:6:57Z</time></trkpt>
<trkpt lat="46.15738" lon="7.24725"><ele></ele><time>2016-8-30T22:7:0Z</time></trkpt>
<trkpt lat="46.15742" lon="7.24728"><ele></ele><time>2016-8-30T22:7:3Z</time></trkpt>
<trkpt lat="46.15745" lon="7.2473"><ele></ele><time>2016-8-30T22:7:6Z</time></trkpt>
<trkpt lat="46.15748" lon="7.24733"><ele></ele><time>2016-8-30T22:7:9Z</time></trkpt>
<trkpt lat="46.15752" lon="7.24735"><ele></ele><time>2016-8-30T22:7:12Z</time></trkpt>
<trkpt lat="46.15755" lon="7.24737"><ele></ele><time>2016-8-30T22:7:15Z</time></trkpt>
<trkpt lat="46.15759" lon="7.24737"><ele></ele><time>2016-8-30T22:7:18Z</time></trkpt>
<trkpt lat="46.15762" lon="7.24736"><ele></ele><time>2016-8-30T22:7:21Z</time></trkpt>
<trkpt lat="46.15765" lon="7.24734"><ele></ele><time>2016-8-30T22:7:24Z</time></trkpt>
<trkpt lat="46.15769" lon="7.24733"><ele></ele><time>2016-8-30T22:7:27Z</time></trkpt>
<trkpt lat="46.15771" lon="7.24733"><ele></ele><time>2016-8-30T22:7:30Z</time></trkpt>
<trkpt lat="46.15772" lon="7.24732"><ele></ele><time>2016-8-30T22:7:33Z</time></trkpt>
<trkpt lat="46.15776" lon="7.24731"><ele></ele><time>2016-8-30T22:7:36Z</time></trkpt>
<trkpt lat="46.15779" lon="7.2473"><ele></ele><time>2016-8-30T22:7:39Z</time></trkpt>
<trkpt lat="46.15782" lon="7.24729"><ele></ele><time>2016-8-30T22:7:42Z</time></trkpt>
<trkpt lat="46.15786" lon="7.24728"><ele></ele><time>2016-8-30T22:7:45Z</time></trkpt>
<trkpt lat="46.15789" lon="7.24727"><ele></ele><time>2016-8-30T22:7:48Z</time></trkpt>
<trkpt lat="46.15792" lon="7.24722"><ele></ele><time>2016-8-30T22:7:51Z</time></trkpt>
<trkpt lat="46.15794" lon="7.24717"><ele></ele><time>2016-8-30T22:7:54Z</time></trkpt>
<trkpt lat="46.15797" lon="7.24712"><ele></ele><time>2016-8-30T22:7:57Z</time></trkpt>
<trkpt lat="46.15799" lon="7.24708"><ele></ele><time>2016-8-30T22:8:0Z</time></trkpt>
<trkpt lat="46.15801" lon="7.24703"><ele></ele><time>2016-8-30T22:8:3Z</time></trkpt>
<trkpt lat="46.15804" lon="7.24698"><ele></ele><time>2016-8-30T22:8:6Z</time></trkpt>
<trkpt lat="46.15806" lon="7.24693"><ele></ele><time>2016-8-30T22:8:9Z</time></trkpt>
<trkpt lat="46.15809" lon="7.24688"><ele></ele><time>2016-8-30T22:8:12Z</time></trkpt>
<trkpt lat="46.15811" lon="7.24683"><ele></ele><time>2016-8-30T22:8:15Z</time></trkpt>
<trkpt lat="46.15813" lon="7.24678"><ele></ele><time>2016-8-30T22:8:18Z</time></trkpt>
<trkpt lat="46.15816" lon="7.24674"><ele></ele><time>2016-8-30T22:8:21Z</time></trkpt>
<trkpt lat="46.1582" lon="7.24673"><ele></ele><time>2016-8-30T22:8:24Z</time></trkpt>
<trkpt lat="46.15824" lon="7.24673"><ele></ele><time>2016-8-30T22:8:27Z</time></trkpt>
<trkpt lat="46.15828" lon="7.24673"><ele></ele><time>2016-8-30T22:8:30Z</time></trkpt>
<trkpt lat="46.15832" lon="7.24674"><ele></ele><time>2016-8-30T22:8:33Z</time></trkpt>
<trkpt lat="46.15836" lon="7.24674"><ele></ele><time>2016-8-30T22:8:36Z</time></trkpt>
<trkpt lat="46.1584" lon="7.24674"><ele></ele><time>2016-8-30T22:8:39Z</time></trkpt>
<trkpt lat="46.15844" lon="7.24674"><ele></ele><time>2016-8-30T22:8:42Z</time></trkpt>
<trkpt lat="46.15849" lon="7.24674"><ele></ele><time>2016-8-30T22:8:45Z</time></trkpt>
<trkpt lat="46.15853" lon="7.24674"><ele></ele><time>2016-8-30T22:8:48Z</time></trkpt>
<trkpt lat="46.15857" lon="7.24674"><ele></ele><time>2016-8-30T22:8:51Z</time></trkpt>
<trkpt lat="46.15861" lon="7.24674"><ele></ele><time>2016-8-30T22:8:54Z</time></trkpt>
<trkpt lat="46.15863" lon="7.2467"><ele></ele><time>2016-8-30T22:8:57Z</time></trkpt>
<trkpt lat="46.15864" lon="7.24665"><ele></ele><time>2016-8-30T22:9:0Z</time></trkpt>
<trkpt lat="46.15866" lon="7.2466"><ele></ele><time>2016-8-30T22:9:3Z</time></trkpt>
<trkpt lat="46.15868" lon="7.24655"><ele></ele><time>2016-8-30T22:9:6Z</time></trkpt>
<trkpt lat="46.15869" lon="7.24651"><ele></ele><time>2016-8-30T22:9:9Z</time></trkpt>
<trkpt lat="46.15871" lon="7.24646"><ele></ele><time>2016-8-30T22:9:12Z</time></trkpt>
<trkpt lat="46.15873" lon="7.24641"><ele></ele><time>2016-8-30T22:9:15Z</time></trkpt>
<trkpt lat="46.15874" lon="7.24636"><ele></ele><time>2016-8-30T22:9:18Z</time></trkpt>
<trkpt lat="46.15876" lon="7.24632"><ele></ele><time>2016-8-30T22:9:21Z</time></trkpt>
<trkpt lat="46.15878" lon="7.24627"><ele></ele><time>2016-8-30T22:9:24Z</time></trkpt>
<trkpt lat="46.1588" lon="7.24622"><ele></ele><time>2016-8-30T22:9:27Z</time></trkpt>
<trkpt lat="46.15881" lon="7.24617"><ele></ele><time>2016-8-30T22:9:30Z</time></trkpt>
<trkpt lat="46.15882" lon="7.24615"><ele></ele><time>2016-8-30T22:9:33Z</time></trkpt>
<trkpt lat="46.15884" lon="7.24614"><ele></ele><time>2016-8-30T22:9:36Z</time></trkpt>
<trkpt lat="46.15887" lon="7.24613"><ele></ele><time>2016-8-30T22:9:39Z</time></trkpt>
<trkpt lat="46.1589" lon="7.24611"><ele></ele><time>2016-8-30T22:9:42Z</time></trkpt>
<trkpt lat="46.15893" lon="7.2461"><ele></ele><time>2016-8-30T22:9:45Z</time></trkpt>
<trkpt lat="46.15896" lon="7.24609"><ele></ele><time>2016-8-30T22:9:48Z</time></trkpt>
<trkpt lat="46.15899" lon="7.24607"><ele></ele><time>2016-8-30T22:9:51Z</time></trkpt>
<trkpt lat="46.15902" lon="7.24606"><ele></ele><time>2016-8-30T22:9:54Z</time></trkpt>
<trkpt lat="46.15906" lon="7.24604"><ele></ele><time>2016-8-30T22:9:57Z</time></trkpt>
<trkpt lat="46.15909" lon="7.24603"><ele></ele><time>2016-8-30T22:10:0Z</time></trkpt>
<trkpt lat="46.15912" lon="7.24602"><ele></ele><time>2016-8-30T22:10:3Z</time></trkpt>
<trkpt lat="46.15915" lon="7.246"><ele></ele><time>2016-8-30T22:10:6Z</time></trkpt>
<trkpt lat="46.15918" lon="7.24599"><ele></ele><time>2016-8-30T22:10:9Z</time></trkpt>
<trkpt lat="46.15921" lon="7.24597"><ele></ele><time>2016-8-30T22:10:12Z</time></trkpt>
<trkpt lat="46.15923" lon="7.24597"><ele></ele><time>2016-8-30T22:10:15Z</time></trkpt>
<trkpt lat="46.15926" lon="7.24597"><ele></ele><time>2016-8-30T22:10:18Z</time></trkpt>
<trkpt lat="46.15932" lon="7.24598"><ele></ele><time>2016-8-30T22:10:21Z</time></trkpt>
<trkpt lat="46.15935" lon="7.24598"><ele></ele><time>2016-8-30T22:10:24Z</time></trkpt>
<trkpt lat="46.15938" lon="7.24595"><ele></ele><time>2016-8-30T22:10:27Z</time></trkpt>
<trkpt lat="46.15942" lon="7.24587"><ele></ele><time>2016-8-30T22:10:30Z</time></trkpt>
<trkpt lat="46.15947" lon="7.2458"><ele></ele><time>2016-8-30T22:10:33Z</time></trkpt>
<trkpt lat="46.1595" lon="7.24576"><ele></ele><time>2016-8-30T22:10:36Z</time></trkpt>
<trkpt lat="46.15952" lon="7.24572"><ele></ele><time>2016-8-30T22:10:39Z</time></trkpt>
<trkpt lat="46.15957" lon="7.24564"><ele></ele><time>2016-8-30T22:10:42Z</time></trkpt>
<trkpt lat="46.15961" lon="7.24556"><ele></ele><time>2016-8-30T22:10:45Z</time></trkpt>
<trkpt lat="46.15966" lon="7.24549"><ele></ele><time>2016-8-30T22:10:48Z</time></trkpt>
<trkpt lat="46.15971" lon="7.24546"><ele></ele><time>2016-8-30T22:10:51Z</time></trkpt>
<trkpt lat="46.15976" lon="7.24545"><ele></ele><time>2016-8-30T22:10:54Z</time></trkpt>
<trkpt lat="46.15981" lon="7.24543"><ele></ele><time>2016-8-30T22:10:57Z</time></trkpt>
<trkpt lat="46.15986" lon="7.24541"><ele></ele><time>2016-8-30T22:11:0Z</time></trkpt>
<trkpt lat="46.15991" lon="7.24539"><ele></ele><time>2016-8-30T22:11:3Z</time></trkpt>
<trkpt lat="46.15996" lon="7.24537"><ele></ele><time>2016-8-30T22:11:6Z</time></trkpt>
<trkpt lat="46.16001" lon="7.24535"><ele></ele><time>2016-8-30T22:11:9Z</time></trkpt>
<trkpt lat="46.16006" lon="7.24533"><ele></ele><time>2016-8-30T22:11:12Z</time></trkpt>
<trkpt lat="46.16011" lon="7.24531"><ele></ele><time>2016-8-30T22:11:15Z</time></trkpt>
<trkpt lat="46.16017" lon="7.24531"><ele></ele><time>2016-8-30T22:11:18Z</time></trkpt>
<trkpt lat="46.16024" lon="7.2453"><ele></ele><time>2016-8-30T22:11:21Z</time></trkpt>
<trkpt lat="46.16031" lon="7.2453"><ele></ele><time>2016-8-30T22:11:24Z</time></trkpt>
<trkpt lat="46.16037" lon="7.24529"><ele></ele><time>2016-8-30T22:11:27Z</time></trkpt>
<trkpt lat="46.16044" lon="7.24529"><ele></ele><time>2016-8-30T22:11:30Z</time></trkpt>
<trkpt lat="46.1605" lon="7.24529"><ele></ele><time>2016-8-30T22:11:33Z</time></trkpt>
<trkpt lat="46.16057" lon="7.24528"><ele></ele><time>2016-8-30T22:11:36Z</time></trkpt>
<trkpt lat="46.1606" lon="7.24528"><ele></ele><time>2016-8-30T22:11:39Z</time></trkpt>
<trkpt lat="46.16064" lon="7.24528"><ele></ele><time>2016-8-30T22:11:42Z</time></trkpt>
<trkpt lat="46.16067" lon="7.24529"><ele></ele><time>2016-8-30T22:11:45Z</time></trkpt>
<trkpt lat="46.1607" lon="7.24529"><ele></ele><time>2016-8-30T22:11:48Z</time></trkpt>
<trkpt lat="46.16073" lon="7.24529"><ele></ele><time>2016-8-30T22:11:51Z</time></trkpt>
<trkpt lat="46.16076" lon="7.24529"><ele></ele><time>2016-8-30T22:11:54Z</time></trkpt>
<trkpt lat="46.16079" lon="7.24529"><ele></ele><time>2016-8-30T22:11:57Z</time></trkpt>
<trkpt lat="46.16082" lon="7.24529"><ele></ele><time>2016-8-30T22:12:0Z</time></trkpt>
<trkpt lat="46.16084" lon="7.2453"><ele></ele><time>2016-8-30T22:12:3Z</time></trkpt>
<trkpt lat="46.16086" lon="7.2453"><ele></ele><time>2016-8-30T22:12:6Z</time></trkpt>
<trkpt lat="46.16089" lon="7.2453"><ele></ele><time>2016-8-30T22:12:9Z</time></trkpt>
<trkpt lat="46.16092" lon="7.2453"><ele></ele><time>2016-8-30T22:12:12Z</time></trkpt>
<trkpt lat="46.16093" lon="7.2453"><ele></ele><time>2016-8-30T22:12:15Z</time></trkpt>
<trkpt lat="46.16095" lon="7.2453"><ele></ele><time>2016-8-30T22:12:18Z</time></trkpt>
<trkpt lat="46.16098" lon="7.2453"><ele></ele><time>2016-8-30T22:12:21Z</time></trkpt>
<trkpt lat="46.16101" lon="7.2453"><ele></ele><time>2016-8-30T22:12:24Z</time></trkpt>
<trkpt lat="46.16103" lon="7.24531"><ele></ele><time>2016-8-30T22:12:27Z</time></trkpt>
<trkpt lat="46.16104" lon="7.2453"><ele></ele><time>2016-8-30T22:12:30Z</time></trkpt>
<trkpt lat="46.16107" lon="7.24528"><ele></ele><time>2016-8-30T22:12:33Z</time></trkpt>
<trkpt lat="46.16109" lon="7.24527"><ele></ele><time>2016-8-30T22:12:36Z</time></trkpt>
<trkpt lat="46.16112" lon="7.24526"><ele></ele><time>2016-8-30T22:12:39Z</time></trkpt>
<trkpt lat="46.16115" lon="7.24524"><ele></ele><time>2016-8-30T22:12:42Z</time></trkpt>
<trkpt lat="46.16117" lon="7.24523"><ele></ele><time>2016-8-30T22:12:45Z</time></trkpt>
<trkpt lat="46.1612" lon="7.24521"><ele></ele><time>2016-8-30T22:12:48Z</time></trkpt>
<trkpt lat="46.16122" lon="7.2452"><ele></ele><time>2016-8-30T22:12:51Z</time></trkpt>
<trkpt lat="46.16125" lon="7.24519"><ele></ele><time>2016-8-30T22:12:54Z</time></trkpt>
<trkpt lat="46.16128" lon="7.24517"><ele></ele><time>2016-8-30T22:12:57Z</time></trkpt>
<trkpt lat="46.1613" lon="7.24516"><ele></ele><time>2016-8-30T22:13:0Z</time></trkpt>
<trkpt lat="46.16133" lon="7.24515"><ele></ele><time>2016-8-30T22:13:3Z</time></trkpt>
<trkpt lat="46.16135" lon="7.24513"><ele></ele><time>2016-8-30T22:13:6Z</time></trkpt>
<trkpt lat="46.16138" lon="7.24512"><ele></ele><time>2016-8-30T22:13:9Z</time></trkpt>
<trkpt lat="46.16141" lon="7.2451"><ele></ele><time>2016-8-30T22:13:12Z</time></trkpt>
<trkpt lat="46.16143" lon="7.24509"><ele></ele><time>2016-8-30T22:13:15Z</time></trkpt>
<trkpt lat="46.16146" lon="7.24507"><ele></ele><time>2016-8-30T22:13:18Z</time></trkpt>
<trkpt lat="46.16148" lon="7.24506"><ele></ele><time>2016-8-30T22:13:21Z</time></trkpt>
<trkpt lat="46.16149" lon="7.24505"><ele></ele><time>2016-8-30T22:13:24Z</time></trkpt>
<trkpt lat="46.16151" lon="7.24506"><ele></ele><time>2016-8-30T22:13:27Z</time></trkpt>
<trkpt lat="46.16153" lon="7.24507"><ele></ele><time>2016-8-30T22:13:30Z</time></trkpt>
<trkpt lat="46.16155" lon="7.24507"><ele></ele><time>2016-8-30T22:13:33Z</time></trkpt>
<trkpt lat="46.16157" lon="7.24508"><ele></ele><time>2016-8-30T22:13:36Z</time></trkpt>
<trkpt lat="46.1616" lon="7.24509"><ele></ele><time>2016-8-30T22:13:39Z</time></trkpt>
<trkpt lat="46.16161" lon="7.24506"><ele></ele><time>2016-8-30T22:13:42Z</time></trkpt>
<trkpt lat="46.16161" lon="7.24504"><ele></ele><time>2016-8-30T22:13:45Z</time></trkpt>
<trkpt lat="46.16163" lon="7.24503"><ele></ele><time>2016-8-30T22:13:48Z</time></trkpt>
<trkpt lat="46.16166" lon="7.24501"><ele></ele><time>2016-8-30T22:13:51Z</time></trkpt>
<trkpt lat="46.16169" lon="7.24499"><ele></ele><time>2016-8-30T22:13:54Z</time></trkpt>
<trkpt lat="46.16172" lon="7.24496"><ele></ele><time>2016-8-30T22:13:57Z</time></trkpt>
<trkpt lat="46.16175" lon="7.24494"><ele></ele><time>2016-8-30T22:14:0Z</time></trkpt>
<trkpt lat="46.16178" lon="7.24492"><ele></ele><time>2016-8-30T22:14:3Z</time></trkpt>
<trkpt lat="46.16181" lon="7.24489"><ele></ele><time>2016-8-30T22:14:6Z</time></trkpt>
<trkpt lat="46.16184" lon="7.24487"><ele></ele><time>2016-8-30T22:14:9Z</time></trkpt>
<trkpt lat="46.16187" lon="7.24485"><ele></ele><time>2016-8-30T22:14:12Z</time></trkpt>
<trkpt lat="46.16189" lon="7.24483"><ele></ele><time>2016-8-30T22:14:15Z</time></trkpt>
<trkpt lat="46.1619" lon="7.24482"><ele></ele><time>2016-8-30T22:14:18Z</time></trkpt>
<trkpt lat="46.16193" lon="7.2448"><ele></ele><time>2016-8-30T22:14:21Z</time></trkpt>
<trkpt lat="46.16196" lon="7.24478"><ele></ele><time>2016-8-30T22:14:24Z</time></trkpt>
<trkpt lat="46.16199" lon="7.24475"><ele></ele><time>2016-8-30T22:14:27Z</time></trkpt>
<trkpt lat="46.16202" lon="7.24473"><ele></ele><time>2016-8-30T22:14:30Z</time></trkpt>
<trkpt lat="46.16207" lon="7.24471"><ele></ele><time>2016-8-30T22:14:33Z</time></trkpt>
<trkpt lat="46.16211" lon="7.24468"><ele></ele><time>2016-8-30T22:14:36Z</time></trkpt>
<trkpt lat="46.16216" lon="7.24466"><ele></ele><time>2016-8-30T22:14:39Z</time></trkpt>
<trkpt lat="46.1622" lon="7.24463"><ele></ele><time>2016-8-30T22:14:42Z</time></trkpt>
<trkpt lat="46.16225" lon="7.24461"><ele></ele><time>2016-8-30T22:14:45Z</time></trkpt>
<trkpt lat="46.16229" lon="7.24458"><ele></ele><time>2016-8-30T22:14:48Z</time></trkpt>
<trkpt lat="46.16234" lon="7.24456"><ele></ele><time>2016-8-30T22:14:51Z</time></trkpt>
<trkpt lat="46.16238" lon="7.24453"><ele></ele><time>2016-8-30T22:14:54Z</time></trkpt>
<trkpt lat="46.16243" lon="7.24451"><ele></ele><time>2016-8-30T22:14:57Z</time></trkpt>
<trkpt lat="46.16245" lon="7.24449"><ele></ele><time>2016-8-30T22:15:0Z</time></trkpt>
<trkpt lat="46.16247" lon="7.24449"><ele></ele><time>2016-8-30T22:15:3Z</time></trkpt>
<trkpt lat="46.16251" lon="7.24448"><ele></ele><time>2016-8-30T22:15:6Z</time></trkpt>
<trkpt lat="46.16253" lon="7.24448"><ele></ele><time>2016-8-30T22:15:9Z</time></trkpt>
<trkpt lat="46.16255" lon="7.24448"><ele></ele><time>2016-8-30T22:15:12Z</time></trkpt>
<trkpt lat="46.16259" lon="7.24447"><ele></ele><time>2016-8-30T22:15:15Z</time></trkpt>
<trkpt lat="46.16263" lon="7.24446"><ele></ele><time>2016-8-30T22:15:18Z</time></trkpt>
<trkpt lat="46.16267" lon="7.24446"><ele></ele><time>2016-8-30T22:15:21Z</time></trkpt>
<trkpt lat="46.16271" lon="7.24445"><ele></ele><time>2016-8-30T22:15:24Z</time></trkpt>
<trkpt lat="46.16275" lon="7.24445"><ele></ele><time>2016-8-30T22:15:27Z</time></trkpt>
<trkpt lat="46.16279" lon="7.24444"><ele></ele><time>2016-8-30T22:15:30Z</time></trkpt>
<trkpt lat="46.16283" lon="7.24443"><ele></ele><time>2016-8-30T22:15:33Z</time></trkpt>
<trkpt lat="46.16287" lon="7.24443"><ele></ele><time>2016-8-30T22:15:36Z</time></trkpt>
<trkpt lat="46.16291" lon="7.24442"><ele></ele><time>2016-8-30T22:15:39Z</time></trkpt>
<trkpt lat="46.16297" lon="7.24441"><ele></ele><time>2016-8-30T22:15:42Z</time></trkpt>
<trkpt lat="46.16304" lon="7.2444"><ele></ele><time>2016-8-30T22:15:45Z</time></trkpt>
<trkpt lat="46.1631" lon="7.2444"><ele></ele><time>2016-8-30T22:15:48Z</time></trkpt>
<trkpt lat="46.16317" lon="7.24439"><ele></ele><time>2016-8-30T22:15:51Z</time></trkpt>
<trkpt lat="46.16323" lon="7.24438"><ele></ele><time>2016-8-30T22:15:54Z</time></trkpt>
<trkpt lat="46.1633" lon="7.24437"><ele></ele><time>2016-8-30T22:15:57Z</time></trkpt>
<trkpt lat="46.16336" lon="7.24436"><ele></ele><time>2016-8-30T22:16:0Z</time></trkpt>
<trkpt lat="46.1634" lon="7.24435"><ele></ele><time>2016-8-30T22:16:3Z</time></trkpt>
<trkpt lat="46.16344" lon="7.24433"><ele></ele><time>2016-8-30T22:16:6Z</time></trkpt>
<trkpt lat="46.16352" lon="7.24428"><ele></ele><time>2016-8-30T22:16:9Z</time></trkpt>
<trkpt lat="46.1636" lon="7.24423"><ele></ele><time>2016-8-30T22:16:12Z</time></trkpt>
<trkpt lat="46.16368" lon="7.24418"><ele></ele><time>2016-8-30T22:16:15Z</time></trkpt>
<trkpt lat="46.16376" lon="7.24413"><ele></ele><time>2016-8-30T22:16:18Z</time></trkpt>
<trkpt lat="46.1638" lon="7.2441"><ele></ele><time>2016-8-30T22:16:21Z</time></trkpt>
<trkpt lat="46.16385" lon="7.2441"><ele></ele><time>2016-8-30T22:16:24Z</time></trkpt>
<trkpt lat="46.16394" lon="7.2441"><ele></ele><time>2016-8-30T22:16:27Z</time></trkpt>
<trkpt lat="46.16404" lon="7.24411"><ele></ele><time>2016-8-30T22:16:30Z</time></trkpt>
<trkpt lat="46.16413" lon="7.24411"><ele></ele><time>2016-8-30T22:16:33Z</time></trkpt>
<trkpt lat="46.16422" lon="7.24411"><ele></ele><time>2016-8-30T22:16:36Z</time></trkpt>
<trkpt lat="46.16427" lon="7.24411"><ele></ele><time>2016-8-30T22:16:39Z</time></trkpt>
<trkpt lat="46.16431" lon="7.24412"><ele></ele><time>2016-8-30T22:16:42Z</time></trkpt>
<trkpt lat="46.16438" lon="7.24413"><ele></ele><time>2016-8-30T22:16:45Z</time></trkpt>
<trkpt lat="46.16445" lon="7.24414"><ele></ele><time>2016-8-30T22:16:48Z</time></trkpt>
<trkpt lat="46.16452" lon="7.24415"><ele></ele><time>2016-8-30T22:16:51Z</time></trkpt>
<trkpt lat="46.16459" lon="7.24416"><ele></ele><time>2016-8-30T22:16:54Z</time></trkpt>
<trkpt lat="46.16466" lon="7.24418"><ele></ele><time>2016-8-30T22:16:57Z</time></trkpt>
<trkpt lat="46.1647" lon="7.24418"><ele></ele><time>2016-8-30T22:17:0Z</time></trkpt>
<trkpt lat="46.16473" lon="7.24419"><ele></ele><time>2016-8-30T22:17:3Z</time></trkpt>
<trkpt lat="46.16476" lon="7.2442"><ele></ele><time>2016-8-30T22:17:6Z</time></trkpt>
<trkpt lat="46.16478" lon="7.24421"><ele></ele><time>2016-8-30T22:17:9Z</time></trkpt>
<trkpt lat="46.1648" lon="7.24422"><ele></ele><time>2016-8-30T22:17:12Z</time></trkpt>
<trkpt lat="46.16483" lon="7.24423"><ele></ele><time>2016-8-30T22:17:15Z</time></trkpt>
<trkpt lat="46.16485" lon="7.24425"><ele></ele><time>2016-8-30T22:17:18Z</time></trkpt>
<trkpt lat="46.16488" lon="7.24426"><ele></ele><time>2016-8-30T22:17:21Z</time></trkpt>
<trkpt lat="46.1649" lon="7.24427"><ele></ele><time>2016-8-30T22:17:24Z</time></trkpt>
<trkpt lat="46.16492" lon="7.24428"><ele></ele><time>2016-8-30T22:17:27Z</time></trkpt>
<trkpt lat="46.16495" lon="7.24429"><ele></ele><time>2016-8-30T22:17:30Z</time></trkpt>
<trkpt lat="46.16497" lon="7.2443"><ele></ele><time>2016-8-30T22:17:33Z</time></trkpt>
<trkpt lat="46.16498" lon="7.24431"><ele></ele><time>2016-8-30T22:17:36Z</time></trkpt>
<trkpt lat="46.16499" lon="7.24432"><ele></ele><time>2016-8-30T22:17:39Z</time></trkpt>
<trkpt lat="46.16502" lon="7.24433"><ele></ele><time>2016-8-30T22:17:42Z</time></trkpt>
<trkpt lat="46.16504" lon="7.24434"><ele></ele><time>2016-8-30T22:17:45Z</time></trkpt>
<trkpt lat="46.16507" lon="7.24435"><ele></ele><time>2016-8-30T22:17:48Z</time></trkpt>
<trkpt lat="46.16509" lon="7.24436"><ele></ele><time>2016-8-30T22:17:51Z</time></trkpt>
<trkpt lat="46.16511" lon="7.24437"><ele></ele><time>2016-8-30T22:17:54Z</time></trkpt>
<trkpt lat="46.16514" lon="7.24439"><ele></ele><time>2016-8-30T22:17:57Z</time></trkpt>
<trkpt lat="46.16516" lon="7.2444"><ele></ele><time>2016-8-30T22:18:0Z</time></trkpt>
<trkpt lat="46.16521" lon="7.2444"><ele></ele><time>2016-8-30T22:18:3Z</time></trkpt>
<trkpt lat="46.16526" lon="7.2444"><ele></ele><time>2016-8-30T22:18:6Z</time></trkpt>
<trkpt lat="46.16531" lon="7.2444"><ele></ele><time>2016-8-30T22:18:9Z</time></trkpt>
<trkpt lat="46.16536" lon="7.24441"><ele></ele><time>2016-8-30T22:18:12Z</time></trkpt>
<trkpt lat="46.16541" lon="7.24441"><ele></ele><time>2016-8-30T22:18:15Z</time></trkpt>
<trkpt lat="46.16546" lon="7.24441"><ele></ele><time>2016-8-30T22:18:18Z</time></trkpt>
<trkpt lat="46.16551" lon="7.24441"><ele></ele><time>2016-8-30T22:18:21Z</time></trkpt>
<trkpt lat="46.16556" lon="7.24441"><ele></ele><time>2016-8-30T22:18:24Z</time></trkpt>
<trkpt lat="46.16561" lon="7.24442"><ele></ele><time>2016-8-30T22:18:27Z</time></trkpt>
<trkpt lat="46.16564" lon="7.24442"><ele></ele><time>2016-8-30T22:18:30Z</time></trkpt>
<trkpt lat="46.16566" lon="7.2444"><ele></ele><time>2016-8-30T22:18:33Z</time></trkpt>
<trkpt lat="46.1657" lon="7.24434"><ele></ele><time>2016-8-30T22:18:36Z</time></trkpt>
<trkpt lat="46.16575" lon="7.24429"><ele></ele><time>2016-8-30T22:18:39Z</time></trkpt>
<trkpt lat="46.16579" lon="7.24424"><ele></ele><time>2016-8-30T22:18:42Z</time></trkpt>
<trkpt lat="46.16584" lon="7.24419"><ele></ele><time>2016-8-30T22:18:45Z</time></trkpt>
<trkpt lat="46.16588" lon="7.24414"><ele></ele><time>2016-8-30T22:18:48Z</time></trkpt>
<trkpt lat="46.16593" lon="7.24409"><ele></ele><time>2016-8-30T22:18:51Z</time></trkpt>
<trkpt lat="46.16597" lon="7.24404"><ele></ele><time>2016-8-30T22:18:54Z</time></trkpt>
<trkpt lat="46.16599" lon="7.24401"><ele></ele><time>2016-8-30T22:18:57Z</time></trkpt>
<trkpt lat="46.16602" lon="7.244"><ele></ele><time>2016-8-30T22:19:0Z</time></trkpt>
<trkpt lat="46.16609" lon="7.24399"><ele></ele><time>2016-8-30T22:19:3Z</time></trkpt>
<trkpt lat="46.16615" lon="7.24397"><ele></ele><time>2016-8-30T22:19:6Z</time></trkpt>
<trkpt lat="46.16621" lon="7.24395"><ele></ele><time>2016-8-30T22:19:9Z</time></trkpt>
<trkpt lat="46.16627" lon="7.24394"><ele></ele><time>2016-8-30T22:19:12Z</time></trkpt>
<trkpt lat="46.16633" lon="7.24392"><ele></ele><time>2016-8-30T22:19:15Z</time></trkpt>
<trkpt lat="46.16639" lon="7.2439"><ele></ele><time>2016-8-30T22:19:18Z</time></trkpt>
<trkpt lat="46.16645" lon="7.24389"><ele></ele><time>2016-8-30T22:19:21Z</time></trkpt>
<trkpt lat="46.16652" lon="7.24384"><ele></ele><time>2016-8-30T22:19:24Z</time></trkpt>
<trkpt lat="46.16658" lon="7.2438"><ele></ele><time>2016-8-30T22:19:27Z</time></trkpt>
<trkpt lat="46.16665" lon="7.24375"><ele></ele><time>2016-8-30T22:19:30Z</time></trkpt>
<trkpt lat="46.16672" lon="7.2437"><ele></ele><time>2016-8-30T22:19:33Z</time></trkpt>
<trkpt lat="46.16679" lon="7.24372"><ele></ele><time>2016-8-30T22:19:36Z</time></trkpt>
<trkpt lat="46.16687" lon="7.24374"><ele></ele><time>2016-8-30T22:19:39Z</time></trkpt>
<trkpt lat="46.16695" lon="7.24376"><ele></ele><time>2016-8-30T22:19:42Z</time></trkpt>
<trkpt lat="46.16702" lon="7.24378"><ele></ele><time>2016-8-30T22:19:45Z</time></trkpt>
<trkpt lat="46.1671" lon="7.2438"><ele></ele><time>2016-8-30T22:19:48Z</time></trkpt>
<trkpt lat="46.16718" lon="7.24381"><ele></ele><time>2016-8-30T22:19:51Z</time></trkpt>
<trkpt lat="46.16728" lon="7.24384"><ele></ele><time>2016-8-30T22:19:54Z</time></trkpt>
<trkpt lat="46.16738" lon="7.24386"><ele></ele><time>2016-8-30T22:19:57Z</time></trkpt>
<trkpt lat="46.16743" lon="7.24388"><ele></ele><time>2016-8-30T22:20:0Z</time></trkpt>
<trkpt lat="46.16748" lon="7.24386"><ele></ele><time>2016-8-30T22:20:3Z</time></trkpt>
<trkpt lat="46.16759" lon="7.24383"><ele></ele><time>2016-8-30T22:20:6Z</time></trkpt>
<trkpt lat="46.16767" lon="7.24378"><ele></ele><time>2016-8-30T22:20:9Z</time></trkpt>
<trkpt lat="46.16775" lon="7.24372"><ele></ele><time>2016-8-30T22:20:12Z</time></trkpt>
<trkpt lat="46.16782" lon="7.24367"><ele></ele><time>2016-8-30T22:20:15Z</time></trkpt>
<trkpt lat="46.16788" lon="7.24362"><ele></ele><time>2016-8-30T22:20:18Z</time></trkpt>
<trkpt lat="46.16795" lon="7.24357"><ele></ele><time>2016-8-30T22:20:21Z</time></trkpt>
<trkpt lat="46.16802" lon="7.24351"><ele></ele><time>2016-8-30T22:20:24Z</time></trkpt>
<trkpt lat="46.16805" lon="7.24349"><ele></ele><time>2016-8-30T22:20:27Z</time></trkpt>
<trkpt lat="46.16809" lon="7.24346"><ele></ele><time>2016-8-30T22:20:30Z</time></trkpt>
<trkpt lat="46.16815" lon="7.24341"><ele></ele><time>2016-8-30T22:20:33Z</time></trkpt>
<trkpt lat="46.1682" lon="7.24334"><ele></ele><time>2016-8-30T22:20:36Z</time></trkpt>
<trkpt lat="46.16825" lon="7.24327"><ele></ele><time>2016-8-30T22:20:39Z</time></trkpt>
<trkpt lat="46.1683" lon="7.2432"><ele></ele><time>2016-8-30T22:20:42Z</time></trkpt>
<trkpt lat="46.16835" lon="7.24313"><ele></ele><time>2016-8-30T22:20:45Z</time></trkpt>
<trkpt lat="46.1684" lon="7.24305"><ele></ele><time>2016-8-30T22:20:48Z</time></trkpt>
<trkpt lat="46.16842" lon="7.24302"><ele></ele><time>2016-8-30T22:20:51Z</time></trkpt>
<trkpt lat="46.16845" lon="7.24303"><ele></ele><time>2016-8-30T22:20:54Z</time></trkpt>
<trkpt lat="46.16851" lon="7.24308"><ele></ele><time>2016-8-30T22:20:57Z</time></trkpt>
<trkpt lat="46.16857" lon="7.24312"><ele></ele><time>2016-8-30T22:21:0Z</time></trkpt>
<trkpt lat="46.16862" lon="7.24317"><ele></ele><time>2016-8-30T22:21:3Z</time></trkpt>
<trkpt lat="46.16868" lon="7.24321"><ele></ele><time>2016-8-30T22:21:6Z</time></trkpt>
<trkpt lat="46.16874" lon="7.24326"><ele></ele><time>2016-8-30T22:21:9Z</time></trkpt>
<trkpt lat="46.1688" lon="7.2433"><ele></ele><time>2016-8-30T22:21:12Z</time></trkpt>
<trkpt lat="46.16883" lon="7.24333"><ele></ele><time>2016-8-30T22:21:15Z</time></trkpt>
<trkpt lat="46.16887" lon="7.24335"><ele></ele><time>2016-8-30T22:21:18Z</time></trkpt>
<trkpt lat="46.16895" lon="7.2434"><ele></ele><time>2016-8-30T22:21:21Z</time></trkpt>
<trkpt lat="46.169" lon="7.24342"><ele></ele><time>2016-8-30T22:21:24Z</time></trkpt>
<trkpt lat="46.16905" lon="7.24343"><ele></ele><time>2016-8-30T22:21:27Z</time></trkpt>
<trkpt lat="46.16916" lon="7.24343"><ele></ele><time>2016-8-30T22:21:30Z</time></trkpt>
<trkpt lat="46.16926" lon="7.24344"><ele></ele><time>2016-8-30T22:21:33Z</time></trkpt>
<trkpt lat="46.16932" lon="7.24344"><ele></ele><time>2016-8-30T22:21:36Z</time></trkpt>
<trkpt lat="46.16936" lon="7.24341"><ele></ele><time>2016-8-30T22:21:39Z</time></trkpt>
<trkpt lat="46.16945" lon="7.24335"><ele></ele><time>2016-8-30T22:21:42Z</time></trkpt>
<trkpt lat="46.16954" lon="7.24329"><ele></ele><time>2016-8-30T22:21:45Z</time></trkpt>
<trkpt lat="46.16958" lon="7.24318"><ele></ele><time>2016-8-30T22:21:48Z</time></trkpt>
<trkpt lat="46.1696" lon="7.24313"><ele></ele><time>2016-8-30T22:21:51Z</time></trkpt>
<trkpt lat="46.16958" lon="7.2431"><ele></ele><time>2016-8-30T22:21:54Z</time></trkpt>
<trkpt lat="46.16954" lon="7.24306"><ele></ele><time>2016-8-30T22:21:57Z</time></trkpt>
<trkpt lat="46.17074" lon="7.24252"><ele></ele><time>2016-8-30T22:22:0Z</time></trkpt>
<trkpt lat="46.17074" lon="7.24252"><ele></ele><time>2016-8-30T22:22:3Z</time></trkpt>
<trkpt lat="46.1702" lon="7.2427"><ele></ele><time>2016-8-30T22:22:6Z</time></trkpt>
<trkpt lat="46.1696" lon="7.2429"><ele></ele><time>2016-8-30T22:22:9Z</time></trkpt>
<trkpt lat="46.16958" lon="7.24294"><ele></ele><time>2016-8-30T22:22:12Z</time></trkpt>
<trkpt lat="46.16958" lon="7.24298"><ele></ele><time>2016-8-30T22:22:15Z</time></trkpt>
<trkpt lat="46.16957" lon="7.24301"><ele></ele><time>2016-8-30T22:22:18Z</time></trkpt>
<trkpt lat="46.16957" lon="7.24305"><ele></ele><time>2016-8-30T22:22:21Z</time></trkpt>
<trkpt lat="46.16957" lon="7.24308"><ele></ele><time>2016-8-30T22:22:24Z</time></trkpt>
<trkpt lat="46.16957" lon="7.24312"><ele></ele><time>2016-8-30T22:22:27Z</time></trkpt>
<trkpt lat="46.16957" lon="7.24315"><ele></ele><time>2016-8-30T22:22:30Z</time></trkpt>
<trkpt lat="46.1696" lon="7.24312"><ele></ele><time>2016-8-30T22:22:33Z</time></trkpt>
<trkpt lat="46.16963" lon="7.24308"><ele></ele><time>2016-8-30T22:22:36Z</time></trkpt>
<trkpt lat="46.16966" lon="7.24304"><ele></ele><time>2016-8-30T22:22:39Z</time></trkpt>
<trkpt lat="46.16969" lon="7.243"><ele></ele><time>2016-8-30T22:22:42Z</time></trkpt>
<trkpt lat="46.16972" lon="7.24297"><ele></ele><time>2016-8-30T22:22:45Z</time></trkpt>
<trkpt lat="46.16975" lon="7.24293"><ele></ele><time>2016-8-30T22:22:48Z</time></trkpt>
<trkpt lat="46.16978" lon="7.24289"><ele></ele><time>2016-8-30T22:22:51Z</time></trkpt>
<trkpt lat="46.16981" lon="7.24285"><ele></ele><time>2016-8-30T22:22:54Z</time></trkpt>
<trkpt lat="46.16988" lon="7.24287"><ele></ele><time>2016-8-30T22:22:57Z</time></trkpt>
<trkpt lat="46.16995" lon="7.2429"><ele></ele><time>2016-8-30T22:23:0Z</time></trkpt>
<trkpt lat="46.17003" lon="7.24292"><ele></ele><time>2016-8-30T22:23:3Z</time></trkpt>
<trkpt lat="46.17006" lon="7.24294"><ele></ele><time>2016-8-30T22:23:6Z</time></trkpt>
<trkpt lat="46.17009" lon="7.24298"><ele></ele><time>2016-8-30T22:23:9Z</time></trkpt>
<trkpt lat="46.17015" lon="7.24308"><ele></ele><time>2016-8-30T22:23:12Z</time></trkpt>
<trkpt lat="46.1702" lon="7.24318"><ele></ele><time>2016-8-30T22:23:15Z</time></trkpt>
<trkpt lat="46.17026" lon="7.24328"><ele></ele><time>2016-8-30T22:23:18Z</time></trkpt>
<trkpt lat="46.17029" lon="7.24333"><ele></ele><time>2016-8-30T22:23:21Z</time></trkpt>
<trkpt lat="46.17029" lon="7.2434"><ele></ele><time>2016-8-30T22:23:24Z</time></trkpt>
<trkpt lat="46.1703" lon="7.24354"><ele></ele><time>2016-8-30T22:23:27Z</time></trkpt>
<trkpt lat="46.1703" lon="7.24368"><ele></ele><time>2016-8-30T22:23:30Z</time></trkpt>
<trkpt lat="46.17031" lon="7.24383"><ele></ele><time>2016-8-30T22:23:33Z</time></trkpt>
<trkpt lat="46.17031" lon="7.24397"><ele></ele><time>2016-8-30T22:23:36Z</time></trkpt>
<trkpt lat="46.17037" lon="7.24412"><ele></ele><time>2016-8-30T22:23:39Z</time></trkpt>
<trkpt lat="46.1704" lon="7.24419"><ele></ele><time>2016-8-30T22:23:42Z</time></trkpt>
<trkpt lat="46.1704" lon="7.24428"><ele></ele><time>2016-8-30T22:23:45Z</time></trkpt>
<trkpt lat="46.1704" lon="7.24438"><ele></ele><time>2016-8-30T22:23:48Z</time></trkpt>
<trkpt lat="46.17037" lon="7.24446"><ele></ele><time>2016-8-30T22:23:51Z</time></trkpt>
<trkpt lat="46.17031" lon="7.24463"><ele></ele><time>2016-8-30T22:23:54Z</time></trkpt>
<trkpt lat="46.1703" lon="7.24483"><ele></ele><time>2016-8-30T22:23:57Z</time></trkpt>
<trkpt lat="46.17029" lon="7.24503"><ele></ele><time>2016-8-30T22:24:0Z</time></trkpt>
<trkpt lat="46.17021" lon="7.2452"><ele></ele><time>2016-8-30T22:24:3Z</time></trkpt>
<trkpt lat="46.17014" lon="7.24537"><ele></ele><time>2016-8-30T22:24:6Z</time></trkpt>
<trkpt lat="46.17006" lon="7.24554"><ele></ele><time>2016-8-30T22:24:9Z</time></trkpt>
<trkpt lat="46.17002" lon="7.24562"><ele></ele><time>2016-8-30T22:24:12Z</time></trkpt>
<trkpt lat="46.16999" lon="7.24572"><ele></ele><time>2016-8-30T22:24:15Z</time></trkpt>
<trkpt lat="46.16995" lon="7.24591"><ele></ele><time>2016-8-30T22:24:18Z</time></trkpt>
<trkpt lat="46.16992" lon="7.24601"><ele></ele><time>2016-8-30T22:24:21Z</time></trkpt>
<trkpt lat="46.16993" lon="7.24611"><ele></ele><time>2016-8-30T22:24:24Z</time></trkpt>
<trkpt lat="46.16995" lon="7.24632"><ele></ele><time>2016-8-30T22:24:27Z</time></trkpt>
<trkpt lat="46.17004" lon="7.24652"><ele></ele><time>2016-8-30T22:24:30Z</time></trkpt>
<trkpt lat="46.17014" lon="7.24673"><ele></ele><time>2016-8-30T22:24:33Z</time></trkpt>
<trkpt lat="46.17018" lon="7.24683"><ele></ele><time>2016-8-30T22:24:36Z</time></trkpt>
<trkpt lat="46.17023" lon="7.24693"><ele></ele><time>2016-8-30T22:24:39Z</time></trkpt>
<trkpt lat="46.17032" lon="7.24713"><ele></ele><time>2016-8-30T22:24:42Z</time></trkpt>
<trkpt lat="46.17031" lon="7.24734"><ele></ele><time>2016-8-30T22:24:45Z</time></trkpt>
<trkpt lat="46.17035" lon="7.24744"><ele></ele><time>2016-8-30T22:24:48Z</time></trkpt>
<trkpt lat="46.17042" lon="7.24756"><ele></ele><time>2016-8-30T22:24:51Z</time></trkpt>
<trkpt lat="46.17047" lon="7.24776"><ele></ele><time>2016-8-30T22:24:54Z</time></trkpt>
<trkpt lat="46.17052" lon="7.24796"><ele></ele><time>2016-8-30T22:24:57Z</time></trkpt>
<trkpt lat="46.17055" lon="7.24806"><ele></ele><time>2016-8-30T22:25:0Z</time></trkpt>
<trkpt lat="46.17058" lon="7.24814"><ele></ele><time>2016-8-30T22:25:3Z</time></trkpt>
<trkpt lat="46.17065" lon="7.24829"><ele></ele><time>2016-8-30T22:25:6Z</time></trkpt>
<trkpt lat="46.17072" lon="7.24843"><ele></ele><time>2016-8-30T22:25:9Z</time></trkpt>
<trkpt lat="46.1708" lon="7.24858"><ele></ele><time>2016-8-30T22:25:12Z</time></trkpt>
<trkpt lat="46.17087" lon="7.24873"><ele></ele><time>2016-8-30T22:25:15Z</time></trkpt>
<trkpt lat="46.17094" lon="7.24888"><ele></ele><time>2016-8-30T22:25:18Z</time></trkpt>
<trkpt lat="46.1713" lon="7.24902"><ele></ele><time>2016-8-30T22:25:21Z</time></trkpt>
<trkpt lat="46.17167" lon="7.24917"><ele></ele><time>2016-8-30T22:25:24Z</time></trkpt>
<trkpt lat="46.17204" lon="7.24932"><ele></ele><time>2016-8-30T22:25:27Z</time></trkpt>
<trkpt lat="46.1724" lon="7.24947"><ele></ele><time>2016-8-30T22:25:30Z</time></trkpt>
<trkpt lat="46.17258" lon="7.24954"><ele></ele><time>2016-8-30T22:25:33Z</time></trkpt>
<trkpt lat="46.17261" lon="7.24953"><ele></ele><time>2016-8-30T22:25:36Z</time></trkpt>
<trkpt lat="46.17266" lon="7.24951"><ele></ele><time>2016-8-30T22:25:39Z</time></trkpt>
<trkpt lat="46.17271" lon="7.24949"><ele></ele><time>2016-8-30T22:25:42Z</time></trkpt>
<trkpt lat="46.17275" lon="7.24947"><ele></ele><time>2016-8-30T22:25:45Z</time></trkpt>
<trkpt lat="46.1728" lon="7.24945"><ele></ele><time>2016-8-30T22:25:48Z</time></trkpt>
<trkpt lat="46.17285" lon="7.24943"><ele></ele><time>2016-8-30T22:25:51Z</time></trkpt>
<trkpt lat="46.17288" lon="7.24943"><ele></ele><time>2016-8-30T22:25:54Z</time></trkpt>
<trkpt lat="46.17294" lon="7.24944"><ele></ele><time>2016-8-30T22:25:57Z</time></trkpt>
<trkpt lat="46.17307" lon="7.24949"><ele></ele><time>2016-8-30T22:26:0Z</time></trkpt>
<trkpt lat="46.17329" lon="7.24952"><ele></ele><time>2016-8-30T22:26:3Z</time></trkpt>
<trkpt lat="46.1734" lon="7.24953"><ele></ele><time>2016-8-30T22:26:6Z</time></trkpt>
<trkpt lat="46.17351" lon="7.24957"><ele></ele><time>2016-8-30T22:26:9Z</time></trkpt>
<trkpt lat="46.17365" lon="7.24973"><ele></ele><time>2016-8-30T22:26:12Z</time></trkpt>
<trkpt lat="46.17372" lon="7.24981"><ele></ele><time>2016-8-30T22:26:15Z</time></trkpt>
<trkpt lat="46.17381" lon="7.24983"><ele></ele><time>2016-8-30T22:26:18Z</time></trkpt>
<trkpt lat="46.174" lon="7.24986"><ele></ele><time>2016-8-30T22:26:21Z</time></trkpt>
<trkpt lat="46.1741" lon="7.24987"><ele></ele><time>2016-8-30T22:26:24Z</time></trkpt>
<trkpt lat="46.17418" lon="7.24992"><ele></ele><time>2016-8-30T22:26:27Z</time></trkpt>
<trkpt lat="46.17433" lon="7.25001"><ele></ele><time>2016-8-30T22:26:30Z</time></trkpt>
<trkpt lat="46.17448" lon="7.25015"><ele></ele><time>2016-8-30T22:26:33Z</time></trkpt>
<trkpt lat="46.17463" lon="7.2503"><ele></ele><time>2016-8-30T22:26:36Z</time></trkpt>
<trkpt lat="46.17472" lon="7.25049"><ele></ele><time>2016-8-30T22:26:39Z</time></trkpt>
<trkpt lat="46.17481" lon="7.25069"><ele></ele><time>2016-8-30T22:26:42Z</time></trkpt>
<trkpt lat="46.17493" lon="7.25086"><ele></ele><time>2016-8-30T22:26:45Z</time></trkpt>
<trkpt lat="46.17499" lon="7.25094"><ele></ele><time>2016-8-30T22:26:48Z</time></trkpt>
<trkpt lat="46.17503" lon="7.25104"><ele></ele><time>2016-8-30T22:26:51Z</time></trkpt>
<trkpt lat="46.1751" lon="7.25127"><ele></ele><time>2016-8-30T22:26:54Z</time></trkpt>
<trkpt lat="46.17513" lon="7.25138"><ele></ele><time>2016-8-30T22:26:57Z</time></trkpt>
<trkpt lat="46.17515" lon="7.25149"><ele></ele><time>2016-8-30T22:27:0Z</time></trkpt>
<trkpt lat="46.17518" lon="7.25173"><ele></ele><time>2016-8-30T22:27:3Z</time></trkpt>
<trkpt lat="46.17521" lon="7.25196"><ele></ele><time>2016-8-30T22:27:6Z</time></trkpt>
<trkpt lat="46.17525" lon="7.25221"><ele></ele><time>2016-8-30T22:27:9Z</time></trkpt>
<trkpt lat="46.1753" lon="7.25248"><ele></ele><time>2016-8-30T22:27:12Z</time></trkpt>
<trkpt lat="46.17535" lon="7.25276"><ele></ele><time>2016-8-30T22:27:15Z</time></trkpt>
<trkpt lat="46.17542" lon="7.25301"><ele></ele><time>2016-8-30T22:27:18Z</time></trkpt>
<trkpt lat="46.1755" lon="7.25325"><ele></ele><time>2016-8-30T22:27:21Z</time></trkpt>
<trkpt lat="46.17554" lon="7.25337"><ele></ele><time>2016-8-30T22:27:24Z</time></trkpt>
<trkpt lat="46.17559" lon="7.25348"><ele></ele><time>2016-8-30T22:27:27Z</time></trkpt>
<trkpt lat="46.17569" lon="7.25371"><ele></ele><time>2016-8-30T22:27:30Z</time></trkpt>
<trkpt lat="46.17579" lon="7.25394"><ele></ele><time>2016-8-30T22:27:33Z</time></trkpt>
<trkpt lat="46.17588" lon="7.25416"><ele></ele><time>2016-8-30T22:27:36Z</time></trkpt>
<trkpt lat="46.17598" lon="7.25438"><ele></ele><time>2016-8-30T22:27:39Z</time></trkpt>
<trkpt lat="46.17603" lon="7.25448"><ele></ele><time>2016-8-30T22:27:42Z</time></trkpt>
<trkpt lat="46.17608" lon="7.25458"><ele></ele><time>2016-8-30T22:27:45Z</time></trkpt>
<trkpt lat="46.17618" lon="7.25477"><ele></ele><time>2016-8-30T22:27:48Z</time></trkpt>
<trkpt lat="46.17627" lon="7.25496"><ele></ele><time>2016-8-30T22:27:51Z</time></trkpt>
<trkpt lat="46.17632" lon="7.25506"><ele></ele><time>2016-8-30T22:27:54Z</time></trkpt>
<trkpt lat="46.17637" lon="7.25515"><ele></ele><time>2016-8-30T22:27:57Z</time></trkpt>
<trkpt lat="46.17646" lon="7.25534"><ele></ele><time>2016-8-30T22:28:0Z</time></trkpt>
<trkpt lat="46.17649" lon="7.25554"><ele></ele><time>2016-8-30T22:28:3Z</time></trkpt>
<trkpt lat="46.17653" lon="7.25575"><ele></ele><time>2016-8-30T22:28:6Z</time></trkpt>
<trkpt lat="46.17656" lon="7.25596"><ele></ele><time>2016-8-30T22:28:9Z</time></trkpt>
<trkpt lat="46.17657" lon="7.25606"><ele></ele><time>2016-8-30T22:28:12Z</time></trkpt>
<trkpt lat="46.17659" lon="7.25616"><ele></ele><time>2016-8-30T22:28:15Z</time></trkpt>
<trkpt lat="46.17662" lon="7.25637"><ele></ele><time>2016-8-30T22:28:18Z</time></trkpt>
<trkpt lat="46.17665" lon="7.25657"><ele></ele><time>2016-8-30T22:28:21Z</time></trkpt>
<trkpt lat="46.17668" lon="7.25677"><ele></ele><time>2016-8-30T22:28:24Z</time></trkpt>
<trkpt lat="46.17672" lon="7.25694"><ele></ele><time>2016-8-30T22:28:27Z</time></trkpt>
<trkpt lat="46.17676" lon="7.25712"><ele></ele><time>2016-8-30T22:28:30Z</time></trkpt>
<trkpt lat="46.17675" lon="7.25718"><ele></ele><time>2016-8-30T22:28:33Z</time></trkpt>
<trkpt lat="46.17675" lon="7.25723"><ele></ele><time>2016-8-30T22:28:36Z</time></trkpt>
<trkpt lat="46.17673" lon="7.25735"><ele></ele><time>2016-8-30T22:28:39Z</time></trkpt>
<trkpt lat="46.17672" lon="7.25747"><ele></ele><time>2016-8-30T22:28:42Z</time></trkpt>
<trkpt lat="46.17671" lon="7.25758"><ele></ele><time>2016-8-30T22:28:45Z</time></trkpt>
<trkpt lat="46.17672" lon="7.25766"><ele></ele><time>2016-8-30T22:28:48Z</time></trkpt>
<trkpt lat="46.17672" lon="7.25773"><ele></ele><time>2016-8-30T22:28:51Z</time></trkpt>
<trkpt lat="46.17673" lon="7.25781"><ele></ele><time>2016-8-30T22:28:54Z</time></trkpt>
<trkpt lat="46.17674" lon="7.25789"><ele></ele><time>2016-8-30T22:28:57Z</time></trkpt>
<trkpt lat="46.17674" lon="7.25792"><ele></ele><time>2016-8-30T22:29:0Z</time></trkpt>
<trkpt lat="46.17675" lon="7.25796"><ele></ele><time>2016-8-30T22:29:3Z</time></trkpt>
<trkpt lat="46.17676" lon="7.25804"><ele></ele><time>2016-8-30T22:29:6Z</time></trkpt>
<trkpt lat="46.17676" lon="7.25811"><ele></ele><time>2016-8-30T22:29:9Z</time></trkpt>
<trkpt lat="46.17677" lon="7.25819"><ele></ele><time>2016-8-30T22:29:12Z</time></trkpt>
<trkpt lat="46.17678" lon="7.25823"><ele></ele><time>2016-8-30T22:29:15Z</time></trkpt>
<trkpt lat="46.17678" lon="7.25826"><ele></ele><time>2016-8-30T22:29:18Z</time></trkpt>
<trkpt lat="46.17679" lon="7.25833"><ele></ele><time>2016-8-30T22:29:21Z</time></trkpt>
<trkpt lat="46.17679" lon="7.25841"><ele></ele><time>2016-8-30T22:29:24Z</time></trkpt>
<trkpt lat="46.1768" lon="7.25848"><ele></ele><time>2016-8-30T22:29:27Z</time></trkpt>
<trkpt lat="46.1768" lon="7.25855"><ele></ele><time>2016-8-30T22:29:30Z</time></trkpt>
<trkpt lat="46.17681" lon="7.25862"><ele></ele><time>2016-8-30T22:29:33Z</time></trkpt>
<trkpt lat="46.17681" lon="7.2587"><ele></ele><time>2016-8-30T22:29:36Z</time></trkpt>
<trkpt lat="46.17682" lon="7.25877"><ele></ele><time>2016-8-30T22:29:39Z</time></trkpt>
<trkpt lat="46.17683" lon="7.25884"><ele></ele><time>2016-8-30T22:29:42Z</time></trkpt>
<trkpt lat="46.17683" lon="7.25888"><ele></ele><time>2016-8-30T22:29:45Z</time></trkpt>
<trkpt lat="46.17684" lon="7.25891"><ele></ele><time>2016-8-30T22:29:48Z</time></trkpt>
<trkpt lat="46.17686" lon="7.25898"><ele></ele><time>2016-8-30T22:29:51Z</time></trkpt>
<trkpt lat="46.17688" lon="7.25905"><ele></ele><time>2016-8-30T22:29:54Z</time></trkpt>
<trkpt lat="46.1769" lon="7.25912"><ele></ele><time>2016-8-30T22:29:57Z</time></trkpt>
<trkpt lat="46.17692" lon="7.25919"><ele></ele><time>2016-8-30T22:30:0Z</time></trkpt>
<trkpt lat="46.17694" lon="7.25926"><ele></ele><time>2016-8-30T22:30:3Z</time></trkpt>
<trkpt lat="46.17695" lon="7.25933"><ele></ele><time>2016-8-30T22:30:6Z</time></trkpt>
<trkpt lat="46.17697" lon="7.2594"><ele></ele><time>2016-8-30T22:30:9Z</time></trkpt>
<trkpt lat="46.17699" lon="7.25947"><ele></ele><time>2016-8-30T22:30:12Z</time></trkpt>
<trkpt lat="46.177" lon="7.25951"><ele></ele><time>2016-8-30T22:30:15Z</time></trkpt>
<trkpt lat="46.17702" lon="7.25954"><ele></ele><time>2016-8-30T22:30:18Z</time></trkpt>
<trkpt lat="46.17704" lon="7.25961"><ele></ele><time>2016-8-30T22:30:21Z</time></trkpt>
<trkpt lat="46.17707" lon="7.25968"><ele></ele><time>2016-8-30T22:30:24Z</time></trkpt>
<trkpt lat="46.17709" lon="7.25975"><ele></ele><time>2016-8-30T22:30:27Z</time></trkpt>
<trkpt lat="46.17712" lon="7.25982"><ele></ele><time>2016-8-30T22:30:30Z</time></trkpt>
<trkpt lat="46.17714" lon="7.25989"><ele></ele><time>2016-8-30T22:30:33Z</time></trkpt>
<trkpt lat="46.17717" lon="7.25996"><ele></ele><time>2016-8-30T22:30:36Z</time></trkpt>
<trkpt lat="46.17719" lon="7.26003"><ele></ele><time>2016-8-30T22:30:39Z</time></trkpt>
<trkpt lat="46.17722" lon="7.2601"><ele></ele><time>2016-8-30T22:30:42Z</time></trkpt>
<trkpt lat="46.17725" lon="7.26016"><ele></ele><time>2016-8-30T22:30:45Z</time></trkpt>
<trkpt lat="46.17727" lon="7.26022"><ele></ele><time>2016-8-30T22:30:48Z</time></trkpt>
<trkpt lat="46.1773" lon="7.26029"><ele></ele><time>2016-8-30T22:30:51Z</time></trkpt>
<trkpt lat="46.17731" lon="7.26032"><ele></ele><time>2016-8-30T22:30:54Z</time></trkpt>
<trkpt lat="46.17732" lon="7.26035"><ele></ele><time>2016-8-30T22:30:57Z</time></trkpt>
<trkpt lat="46.17735" lon="7.26041"><ele></ele><time>2016-8-30T22:31:0Z</time></trkpt>
<trkpt lat="46.17738" lon="7.26048"><ele></ele><time>2016-8-30T22:31:3Z</time></trkpt>
<trkpt lat="46.1774" lon="7.26054"><ele></ele><time>2016-8-30T22:31:6Z</time></trkpt>
<trkpt lat="46.17743" lon="7.26061"><ele></ele><time>2016-8-30T22:31:9Z</time></trkpt>
<trkpt lat="46.17746" lon="7.26067"><ele></ele><time>2016-8-30T22:31:12Z</time></trkpt>
<trkpt lat="46.17749" lon="7.26073"><ele></ele><time>2016-8-30T22:31:15Z</time></trkpt>
<trkpt lat="46.17751" lon="7.2608"><ele></ele><time>2016-8-30T22:31:18Z</time></trkpt>
<trkpt lat="46.17753" lon="7.26083"><ele></ele><time>2016-8-30T22:31:21Z</time></trkpt>
<trkpt lat="46.17754" lon="7.26086"><ele></ele><time>2016-8-30T22:31:24Z</time></trkpt>
<trkpt lat="46.17757" lon="7.26092"><ele></ele><time>2016-8-30T22:31:27Z</time></trkpt>
<trkpt lat="46.1776" lon="7.26099"><ele></ele><time>2016-8-30T22:31:30Z</time></trkpt>
<trkpt lat="46.17761" lon="7.26102"><ele></ele><time>2016-8-30T22:31:33Z</time></trkpt>
<trkpt lat="46.17763" lon="7.26105"><ele></ele><time>2016-8-30T22:31:36Z</time></trkpt>
<trkpt lat="46.17766" lon="7.26112"><ele></ele><time>2016-8-30T22:31:39Z</time></trkpt>
<trkpt lat="46.17769" lon="7.26118"><ele></ele><time>2016-8-30T22:31:42Z</time></trkpt>
<trkpt lat="46.1777" lon="7.26121"><ele></ele><time>2016-8-30T22:31:45Z</time></trkpt>
<trkpt lat="46.17771" lon="7.26124"><ele></ele><time>2016-8-30T22:31:48Z</time></trkpt>
<trkpt lat="46.17773" lon="7.26131"><ele></ele><time>2016-8-30T22:31:51Z</time></trkpt>
<trkpt lat="46.17775" lon="7.26138"><ele></ele><time>2016-8-30T22:31:54Z</time></trkpt>
<trkpt lat="46.17775" lon="7.26141"><ele></ele><time>2016-8-30T22:31:57Z</time></trkpt>
<trkpt lat="46.17776" lon="7.26145"><ele></ele><time>2016-8-30T22:32:0Z</time></trkpt>
<trkpt lat="46.17778" lon="7.26151"><ele></ele><time>2016-8-30T22:32:3Z</time></trkpt>
<trkpt lat="46.17779" lon="7.26158"><ele></ele><time>2016-8-30T22:32:6Z</time></trkpt>
<trkpt lat="46.17781" lon="7.26165"><ele></ele><time>2016-8-30T22:32:9Z</time></trkpt>
<trkpt lat="46.17782" lon="7.26172"><ele></ele><time>2016-8-30T22:32:12Z</time></trkpt>
<trkpt lat="46.17786" lon="7.26213"><ele></ele><time>2016-8-30T22:32:15Z</time></trkpt>
<trkpt lat="46.17786" lon="7.26213"><ele></ele><time>2016-8-30T22:32:18Z</time></trkpt>
<trkpt lat="46.17788" lon="7.26248"><ele></ele><time>2016-8-30T22:32:21Z</time></trkpt>
<trkpt lat="46.17788" lon="7.2625"><ele></ele><time>2016-8-30T22:32:24Z</time></trkpt>
<trkpt lat="46.17788" lon="7.26251"><ele></ele><time>2016-8-30T22:32:27Z</time></trkpt>
<trkpt lat="46.17788" lon="7.26253"><ele></ele><time>2016-8-30T22:32:30Z</time></trkpt>
<trkpt lat="46.17788" lon="7.26254"><ele></ele><time>2016-8-30T22:32:33Z</time></trkpt>
<trkpt lat="46.17788" lon="7.26256"><ele></ele><time>2016-8-30T22:32:36Z</time></trkpt>
<trkpt lat="46.17788" lon="7.26257"><ele></ele><time>2016-8-30T22:32:39Z</time></trkpt>
<trkpt lat="46.17788" lon="7.26261"><ele></ele><time>2016-8-30T22:32:42Z</time></trkpt>
<trkpt lat="46.17789" lon="7.2627"><ele></ele><time>2016-8-30T22:32:45Z</time></trkpt>
<trkpt lat="46.17789" lon="7.26275"><ele></ele><time>2016-8-30T22:32:48Z</time></trkpt>
<trkpt lat="46.17789" lon="7.26279"><ele></ele><time>2016-8-30T22:32:51Z</time></trkpt>
<trkpt lat="46.17789" lon="7.26289"><ele></ele><time>2016-8-30T22:32:54Z</time></trkpt>
<trkpt lat="46.1779" lon="7.26298"><ele></ele><time>2016-8-30T22:32:57Z</time></trkpt>
<trkpt lat="46.1779" lon="7.26307"><ele></ele><time>2016-8-30T22:33:0Z</time></trkpt>
<trkpt lat="46.1779" lon="7.26316"><ele></ele><time>2016-8-30T22:33:3Z</time></trkpt>
<trkpt lat="46.17791" lon="7.26326"><ele></ele><time>2016-8-30T22:33:6Z</time></trkpt>
<trkpt lat="46.17791" lon="7.26335"><ele></ele><time>2016-8-30T22:33:9Z</time></trkpt>
<trkpt lat="46.17791" lon="7.26345"><ele></ele><time>2016-8-30T22:33:12Z</time></trkpt>
<trkpt lat="46.17791" lon="7.26354"><ele></ele><time>2016-8-30T22:33:15Z</time></trkpt>
<trkpt lat="46.17791" lon="7.26364"><ele></ele><time>2016-8-30T22:33:18Z</time></trkpt>
<trkpt lat="46.17791" lon="7.26374"><ele></ele><time>2016-8-30T22:33:21Z</time></trkpt>
<trkpt lat="46.17792" lon="7.26383"><ele></ele><time>2016-8-30T22:33:24Z</time></trkpt>
<trkpt lat="46.17792" lon="7.26393"><ele></ele><time>2016-8-30T22:33:27Z</time></trkpt>
<trkpt lat="46.17792" lon="7.26401"><ele></ele><time>2016-8-30T22:33:30Z</time></trkpt>
<trkpt lat="46.17793" lon="7.26405"><ele></ele><time>2016-8-30T22:33:33Z</time></trkpt>
<trkpt lat="46.17793" lon="7.26409"><ele></ele><time>2016-8-30T22:33:36Z</time></trkpt>
<trkpt lat="46.17793" lon="7.26418"><ele></ele><time>2016-8-30T22:33:39Z</time></trkpt>
<trkpt lat="46.17794" lon="7.26426"><ele></ele><time>2016-8-30T22:33:42Z</time></trkpt>
<trkpt lat="46.17795" lon="7.26434"><ele></ele><time>2016-8-30T22:33:45Z</time></trkpt>
<trkpt lat="46.17795" lon="7.26442"><ele></ele><time>2016-8-30T22:33:48Z</time></trkpt>
<trkpt lat="46.17795" lon="7.26447"><ele></ele><time>2016-8-30T22:33:51Z</time></trkpt>
<trkpt lat="46.17796" lon="7.26451"><ele></ele><time>2016-8-30T22:33:54Z</time></trkpt>
<trkpt lat="46.17796" lon="7.26459"><ele></ele><time>2016-8-30T22:33:57Z</time></trkpt>
<trkpt lat="46.178" lon="7.26474"><ele></ele><time>2016-8-30T22:34:0Z</time></trkpt>
<trkpt lat="46.17804" lon="7.26489"><ele></ele><time>2016-8-30T22:34:3Z</time></trkpt>
<trkpt lat="46.17808" lon="7.26504"><ele></ele><time>2016-8-30T22:34:6Z</time></trkpt>
<trkpt lat="46.17812" lon="7.26519"><ele></ele><time>2016-8-30T22:34:9Z</time></trkpt>
<trkpt lat="46.17814" lon="7.26526"><ele></ele><time>2016-8-30T22:34:12Z</time></trkpt>
<trkpt lat="46.17817" lon="7.26534"><ele></ele><time>2016-8-30T22:34:15Z</time></trkpt>
<trkpt lat="46.17822" lon="7.2655"><ele></ele><time>2016-8-30T22:34:18Z</time></trkpt>
<trkpt lat="46.17827" lon="7.26567"><ele></ele><time>2016-8-30T22:34:21Z</time></trkpt>
<trkpt lat="46.17832" lon="7.26583"><ele></ele><time>2016-8-30T22:34:24Z</time></trkpt>
<trkpt lat="46.17835" lon="7.26591"><ele></ele><time>2016-8-30T22:34:27Z</time></trkpt>
<trkpt lat="46.17836" lon="7.26596"><ele></ele><time>2016-8-30T22:34:30Z</time></trkpt>
<trkpt lat="46.1784" lon="7.26607"><ele></ele><time>2016-8-30T22:34:33Z</time></trkpt>
<trkpt lat="46.17843" lon="7.26618"><ele></ele><time>2016-8-30T22:34:36Z</time></trkpt>
<trkpt lat="46.17847" lon="7.26629"><ele></ele><time>2016-8-30T22:34:39Z</time></trkpt>
<trkpt lat="46.17849" lon="7.26634"><ele></ele><time>2016-8-30T22:34:42Z</time></trkpt>
<trkpt lat="46.1785" lon="7.26639"><ele></ele><time>2016-8-30T22:34:45Z</time></trkpt>
<trkpt lat="46.17854" lon="7.2665"><ele></ele><time>2016-8-30T22:34:48Z</time></trkpt>
<trkpt lat="46.17858" lon="7.2666"><ele></ele><time>2016-8-30T22:34:51Z</time></trkpt>
<trkpt lat="46.17863" lon="7.2667"><ele></ele><time>2016-8-30T22:34:54Z</time></trkpt>
<trkpt lat="46.17867" lon="7.2668"><ele></ele><time>2016-8-30T22:34:57Z</time></trkpt>
<trkpt lat="46.1787" lon="7.26685"><ele></ele><time>2016-8-30T22:35:0Z</time></trkpt>
<trkpt lat="46.17872" lon="7.26691"><ele></ele><time>2016-8-30T22:35:3Z</time></trkpt>
<trkpt lat="46.17877" lon="7.26701"><ele></ele><time>2016-8-30T22:35:6Z</time></trkpt>
<trkpt lat="46.17879" lon="7.26706"><ele></ele><time>2016-8-30T22:35:9Z</time></trkpt>
<trkpt lat="46.17881" lon="7.26709"><ele></ele><time>2016-8-30T22:35:12Z</time></trkpt>
<trkpt lat="46.17886" lon="7.26715"><ele></ele><time>2016-8-30T22:35:15Z</time></trkpt>
<trkpt lat="46.17891" lon="7.26721"><ele></ele><time>2016-8-30T22:35:18Z</time></trkpt>
<trkpt lat="46.17895" lon="7.26726"><ele></ele><time>2016-8-30T22:35:21Z</time></trkpt>
<trkpt lat="46.179" lon="7.26732"><ele></ele><time>2016-8-30T22:35:24Z</time></trkpt>
<trkpt lat="46.17905" lon="7.26738"><ele></ele><time>2016-8-30T22:35:27Z</time></trkpt>
<trkpt lat="46.17909" lon="7.26744"><ele></ele><time>2016-8-30T22:35:30Z</time></trkpt>
<trkpt lat="46.17914" lon="7.2675"><ele></ele><time>2016-8-30T22:35:33Z</time></trkpt>
<trkpt lat="46.17916" lon="7.26755"><ele></ele><time>2016-8-30T22:35:36Z</time></trkpt>
<trkpt lat="46.17917" lon="7.26757"><ele></ele><time>2016-8-30T22:35:39Z</time></trkpt>
<trkpt lat="46.17918" lon="7.2676"><ele></ele><time>2016-8-30T22:35:42Z</time></trkpt>
<trkpt lat="46.17919" lon="7.26765"><ele></ele><time>2016-8-30T22:35:45Z</time></trkpt>
<trkpt lat="46.17921" lon="7.2677"><ele></ele><time>2016-8-30T22:35:48Z</time></trkpt>
<trkpt lat="46.17923" lon="7.26775"><ele></ele><time>2016-8-30T22:35:51Z</time></trkpt>
<trkpt lat="46.17925" lon="7.2678"><ele></ele><time>2016-8-30T22:35:54Z</time></trkpt>
<trkpt lat="46.17927" lon="7.26785"><ele></ele><time>2016-8-30T22:35:57Z</time></trkpt>
<trkpt lat="46.17928" lon="7.2679"><ele></ele><time>2016-8-30T22:36:0Z</time></trkpt>
<trkpt lat="46.1793" lon="7.26795"><ele></ele><time>2016-8-30T22:36:3Z</time></trkpt>
<trkpt lat="46.17931" lon="7.26798"><ele></ele><time>2016-8-30T22:36:6Z</time></trkpt>
<trkpt lat="46.17932" lon="7.268"><ele></ele><time>2016-8-30T22:36:9Z</time></trkpt>
<trkpt lat="46.17934" lon="7.26805"><ele></ele><time>2016-8-30T22:36:12Z</time></trkpt>
<trkpt lat="46.17935" lon="7.26808"><ele></ele><time>2016-8-30T22:36:15Z</time></trkpt>
<trkpt lat="46.17935" lon="7.2681"><ele></ele><time>2016-8-30T22:36:18Z</time></trkpt>
<trkpt lat="46.17936" lon="7.26815"><ele></ele><time>2016-8-30T22:36:21Z</time></trkpt>
<trkpt lat="46.17937" lon="7.2682"><ele></ele><time>2016-8-30T22:36:24Z</time></trkpt>
<trkpt lat="46.17938" lon="7.26825"><ele></ele><time>2016-8-30T22:36:27Z</time></trkpt>
<trkpt lat="46.17938" lon="7.26829"><ele></ele><time>2016-8-30T22:36:30Z</time></trkpt>
<trkpt lat="46.17939" lon="7.26834"><ele></ele><time>2016-8-30T22:36:33Z</time></trkpt>
<trkpt lat="46.1794" lon="7.26839"><ele></ele><time>2016-8-30T22:36:36Z</time></trkpt>
<trkpt lat="46.17941" lon="7.26841"><ele></ele><time>2016-8-30T22:36:39Z</time></trkpt>
<trkpt lat="46.17941" lon="7.26844"><ele></ele><time>2016-8-30T22:36:42Z</time></trkpt>
<trkpt lat="46.17942" lon="7.26849"><ele></ele><time>2016-8-30T22:36:45Z</time></trkpt>
<trkpt lat="46.17943" lon="7.26853"><ele></ele><time>2016-8-30T22:36:48Z</time></trkpt>
<trkpt lat="46.17943" lon="7.26858"><ele></ele><time>2016-8-30T22:36:51Z</time></trkpt>
<trkpt lat="46.17944" lon="7.26863"><ele></ele><time>2016-8-30T22:36:54Z</time></trkpt>
<trkpt lat="46.17945" lon="7.26868"><ele></ele><time>2016-8-30T22:36:57Z</time></trkpt>
<trkpt lat="46.17946" lon="7.26873"><ele></ele><time>2016-8-30T22:37:0Z</time></trkpt>
<trkpt lat="46.17949" lon="7.26878"><ele></ele><time>2016-8-30T22:37:3Z</time></trkpt>
<trkpt lat="46.17952" lon="7.26884"><ele></ele><time>2016-8-30T22:37:6Z</time></trkpt>
<trkpt lat="46.17955" lon="7.2689"><ele></ele><time>2016-8-30T22:37:9Z</time></trkpt>
<trkpt lat="46.17958" lon="7.26896"><ele></ele><time>2016-8-30T22:37:12Z</time></trkpt>
<trkpt lat="46.17961" lon="7.26902"><ele></ele><time>2016-8-30T22:37:15Z</time></trkpt>
<trkpt lat="46.17964" lon="7.26908"><ele></ele><time>2016-8-30T22:37:18Z</time></trkpt>
<trkpt lat="46.17967" lon="7.26914"><ele></ele><time>2016-8-30T22:37:21Z</time></trkpt>
<trkpt lat="46.1797" lon="7.2692"><ele></ele><time>2016-8-30T22:37:24Z</time></trkpt>
<trkpt lat="46.17973" lon="7.26926"><ele></ele><time>2016-8-30T22:37:27Z</time></trkpt>
<trkpt lat="46.17974" lon="7.26932"><ele></ele><time>2016-8-30T22:37:30Z</time></trkpt>
<trkpt lat="46.17975" lon="7.26938"><ele></ele><time>2016-8-30T22:37:33Z</time></trkpt>
<trkpt lat="46.17976" lon="7.26944"><ele></ele><time>2016-8-30T22:37:36Z</time></trkpt>
<trkpt lat="46.17976" lon="7.26951"><ele></ele><time>2016-8-30T22:37:39Z</time></trkpt>
<trkpt lat="46.17977" lon="7.26957"><ele></ele><time>2016-8-30T22:37:42Z</time></trkpt>
<trkpt lat="46.17978" lon="7.26963"><ele></ele><time>2016-8-30T22:37:45Z</time></trkpt>
<trkpt lat="46.17979" lon="7.2697"><ele></ele><time>2016-8-30T22:37:48Z</time></trkpt>
<trkpt lat="46.17979" lon="7.26976"><ele></ele><time>2016-8-30T22:37:51Z</time></trkpt>
<trkpt lat="46.1798" lon="7.26979"><ele></ele><time>2016-8-30T22:37:54Z</time></trkpt>
<trkpt lat="46.1798" lon="7.26982"><ele></ele><time>2016-8-30T22:37:57Z</time></trkpt>
<trkpt lat="46.17981" lon="7.26988"><ele></ele><time>2016-8-30T22:38:0Z</time></trkpt>
<trkpt lat="46.17981" lon="7.26992"><ele></ele><time>2016-8-30T22:38:3Z</time></trkpt>
<trkpt lat="46.17981" lon="7.26995"><ele></ele><time>2016-8-30T22:38:6Z</time></trkpt>
<trkpt lat="46.1798" lon="7.27003"><ele></ele><time>2016-8-30T22:38:9Z</time></trkpt>
<trkpt lat="46.1798" lon="7.27011"><ele></ele><time>2016-8-30T22:38:12Z</time></trkpt>
<trkpt lat="46.17979" lon="7.27018"><ele></ele><time>2016-8-30T22:38:15Z</time></trkpt>
<trkpt lat="46.17981" lon="7.27022"><ele></ele><time>2016-8-30T22:38:18Z</time></trkpt>
<trkpt lat="46.17983" lon="7.27026"><ele></ele><time>2016-8-30T22:38:21Z</time></trkpt>
<trkpt lat="46.17986" lon="7.27034"><ele></ele><time>2016-8-30T22:38:24Z</time></trkpt>
<trkpt lat="46.1799" lon="7.27042"><ele></ele><time>2016-8-30T22:38:27Z</time></trkpt>
<trkpt lat="46.17994" lon="7.27049"><ele></ele><time>2016-8-30T22:38:30Z</time></trkpt>
<trkpt lat="46.17998" lon="7.27057"><ele></ele><time>2016-8-30T22:38:33Z</time></trkpt>
<trkpt lat="46.18001" lon="7.27065"><ele></ele><time>2016-8-30T22:38:36Z</time></trkpt>
<trkpt lat="46.18003" lon="7.27069"><ele></ele><time>2016-8-30T22:38:39Z</time></trkpt>
<trkpt lat="46.18005" lon="7.27073"><ele></ele><time>2016-8-30T22:38:42Z</time></trkpt>
<trkpt lat="46.18007" lon="7.27079"><ele></ele><time>2016-8-30T22:38:45Z</time></trkpt>
<trkpt lat="46.18008" lon="7.27084"><ele></ele><time>2016-8-30T22:38:48Z</time></trkpt>
<trkpt lat="46.18009" lon="7.2709"><ele></ele><time>2016-8-30T22:38:51Z</time></trkpt>
<trkpt lat="46.1801" lon="7.27096"><ele></ele><time>2016-8-30T22:38:54Z</time></trkpt>
<trkpt lat="46.18011" lon="7.27101"><ele></ele><time>2016-8-30T22:38:57Z</time></trkpt>
<trkpt lat="46.18013" lon="7.27107"><ele></ele><time>2016-8-30T22:39:0Z</time></trkpt>
<trkpt lat="46.18014" lon="7.27113"><ele></ele><time>2016-8-30T22:39:3Z</time></trkpt>
<trkpt lat="46.18015" lon="7.27118"><ele></ele><time>2016-8-30T22:39:6Z</time></trkpt>
<trkpt lat="46.18016" lon="7.27124"><ele></ele><time>2016-8-30T22:39:9Z</time></trkpt>
<trkpt lat="46.18017" lon="7.2713"><ele></ele><time>2016-8-30T22:39:12Z</time></trkpt>
<trkpt lat="46.18018" lon="7.27135"><ele></ele><time>2016-8-30T22:39:15Z</time></trkpt>
<trkpt lat="46.1802" lon="7.2714"><ele></ele><time>2016-8-30T22:39:18Z</time></trkpt>
<trkpt lat="46.18021" lon="7.27145"><ele></ele><time>2016-8-30T22:39:21Z</time></trkpt>
<trkpt lat="46.18022" lon="7.27149"><ele></ele><time>2016-8-30T22:39:24Z</time></trkpt>
<trkpt lat="46.18024" lon="7.27154"><ele></ele><time>2016-8-30T22:39:27Z</time></trkpt>
<trkpt lat="46.18025" lon="7.27158"><ele></ele><time>2016-8-30T22:39:30Z</time></trkpt>
<trkpt lat="46.18026" lon="7.27163"><ele></ele><time>2016-8-30T22:39:33Z</time></trkpt>
<trkpt lat="46.18027" lon="7.27168"><ele></ele><time>2016-8-30T22:39:36Z</time></trkpt>
<trkpt lat="46.18027" lon="7.27173"><ele></ele><time>2016-8-30T22:39:39Z</time></trkpt>
<trkpt lat="46.18027" lon="7.27178"><ele></ele><time>2016-8-30T22:39:42Z</time></trkpt>
<trkpt lat="46.18027" lon="7.27184"><ele></ele><time>2016-8-30T22:39:45Z</time></trkpt>
<trkpt lat="46.18027" lon="7.27189"><ele></ele><time>2016-8-30T22:39:48Z</time></trkpt>
<trkpt lat="46.18028" lon="7.27194"><ele></ele><time>2016-8-30T22:39:51Z</time></trkpt>
<trkpt lat="46.1803" lon="7.27199"><ele></ele><time>2016-8-30T22:39:54Z</time></trkpt>
<trkpt lat="46.18033" lon="7.27204"><ele></ele><time>2016-8-30T22:39:57Z</time></trkpt>
<trkpt lat="46.18036" lon="7.27209"><ele></ele><time>2016-8-30T22:40:0Z</time></trkpt>
<trkpt lat="46.18039" lon="7.27214"><ele></ele><time>2016-8-30T22:40:3Z</time></trkpt>
<trkpt lat="46.18042" lon="7.27219"><ele></ele><time>2016-8-30T22:40:6Z</time></trkpt>
<trkpt lat="46.18045" lon="7.27225"><ele></ele><time>2016-8-30T22:40:9Z</time></trkpt>
<trkpt lat="46.18048" lon="7.2723"><ele></ele><time>2016-8-30T22:40:12Z</time></trkpt>
<trkpt lat="46.18051" lon="7.27235"><ele></ele><time>2016-8-30T22:40:15Z</time></trkpt>
<trkpt lat="46.18053" lon="7.2724"><ele></ele><time>2016-8-30T22:40:18Z</time></trkpt>
<trkpt lat="46.18056" lon="7.27245"><ele></ele><time>2016-8-30T22:40:21Z</time></trkpt>
<trkpt lat="46.18059" lon="7.2725"><ele></ele><time>2016-8-30T22:40:24Z</time></trkpt>
<trkpt lat="46.18061" lon="7.27255"><ele></ele><time>2016-8-30T22:40:27Z</time></trkpt>
<trkpt lat="46.18063" lon="7.2726"><ele></ele><time>2016-8-30T22:40:30Z</time></trkpt>
<trkpt lat="46.18066" lon="7.27265"><ele></ele><time>2016-8-30T22:40:33Z</time></trkpt>
<trkpt lat="46.18068" lon="7.2727"><ele></ele><time>2016-8-30T22:40:36Z</time></trkpt>
<trkpt lat="46.18071" lon="7.27275"><ele></ele><time>2016-8-30T22:40:39Z</time></trkpt>
<trkpt lat="46.18073" lon="7.2728"><ele></ele><time>2016-8-30T22:40:42Z</time></trkpt>
<trkpt lat="46.18075" lon="7.27285"><ele></ele><time>2016-8-30T22:40:45Z</time></trkpt>
<trkpt lat="46.18078" lon="7.2729"><ele></ele><time>2016-8-30T22:40:48Z</time></trkpt>
<trkpt lat="46.1808" lon="7.27295"><ele></ele><time>2016-8-30T22:40:51Z</time></trkpt>
<trkpt lat="46.18082" lon="7.273"><ele></ele><time>2016-8-30T22:40:54Z</time></trkpt>
<trkpt lat="46.18084" lon="7.27305"><ele></ele><time>2016-8-30T22:40:57Z</time></trkpt>
<trkpt lat="46.18086" lon="7.2731"><ele></ele><time>2016-8-30T22:41:0Z</time></trkpt>
<trkpt lat="46.18088" lon="7.27314"><ele></ele><time>2016-8-30T22:41:3Z</time></trkpt>
<trkpt lat="46.1809" lon="7.27319"><ele></ele><time>2016-8-30T22:41:6Z</time></trkpt>
<trkpt lat="46.18092" lon="7.27323"><ele></ele><time>2016-8-30T22:41:9Z</time></trkpt>
<trkpt lat="46.18094" lon="7.27328"><ele></ele><time>2016-8-30T22:41:12Z</time></trkpt>
<trkpt lat="46.18096" lon="7.27333"><ele></ele><time>2016-8-30T22:41:15Z</time></trkpt>
<trkpt lat="46.18098" lon="7.27337"><ele></ele><time>2016-8-30T22:41:18Z</time></trkpt>
<trkpt lat="46.181" lon="7.27342"><ele></ele><time>2016-8-30T22:41:21Z</time></trkpt>
<trkpt lat="46.18102" lon="7.27346"><ele></ele><time>2016-8-30T22:41:24Z</time></trkpt>
<trkpt lat="46.18104" lon="7.27351"><ele></ele><time>2016-8-30T22:41:27Z</time></trkpt>
<trkpt lat="46.18105" lon="7.27353"><ele></ele><time>2016-8-30T22:41:30Z</time></trkpt>
<trkpt lat="46.18105" lon="7.27355"><ele></ele><time>2016-8-30T22:41:33Z</time></trkpt>
<trkpt lat="46.18105" lon="7.27357"><ele></ele><time>2016-8-30T22:41:36Z</time></trkpt>
<trkpt lat="46.18106" lon="7.2736"><ele></ele><time>2016-8-30T22:41:39Z</time></trkpt>
<trkpt lat="46.18106" lon="7.27364"><ele></ele><time>2016-8-30T22:41:42Z</time></trkpt>
<trkpt lat="46.18107" lon="7.27368"><ele></ele><time>2016-8-30T22:41:45Z</time></trkpt>
<trkpt lat="46.18107" lon="7.27373"><ele></ele><time>2016-8-30T22:41:48Z</time></trkpt>
<trkpt lat="46.18108" lon="7.27377"><ele></ele><time>2016-8-30T22:41:51Z</time></trkpt>
<trkpt lat="46.18109" lon="7.27381"><ele></ele><time>2016-8-30T22:41:54Z</time></trkpt>
<trkpt lat="46.18109" lon="7.27386"><ele></ele><time>2016-8-30T22:41:57Z</time></trkpt>
<trkpt lat="46.1811" lon="7.2739"><ele></ele><time>2016-8-30T22:42:0Z</time></trkpt>
<trkpt lat="46.1811" lon="7.27394"><ele></ele><time>2016-8-30T22:42:3Z</time></trkpt>
<trkpt lat="46.18111" lon="7.27399"><ele></ele><time>2016-8-30T22:42:6Z</time></trkpt>
<trkpt lat="46.18111" lon="7.27401"><ele></ele><time>2016-8-30T22:42:9Z</time></trkpt>
<trkpt lat="46.18113" lon="7.27403"><ele></ele><time>2016-8-30T22:42:12Z</time></trkpt>
<trkpt lat="46.18115" lon="7.27404"><ele></ele><time>2016-8-30T22:42:15Z</time></trkpt>
<trkpt lat="46.18116" lon="7.27406"><ele></ele><time>2016-8-30T22:42:18Z</time></trkpt>
<trkpt lat="46.1812" lon="7.27409"><ele></ele><time>2016-8-30T22:42:21Z</time></trkpt>
<trkpt lat="46.18123" lon="7.27413"><ele></ele><time>2016-8-30T22:42:24Z</time></trkpt>
<trkpt lat="46.18127" lon="7.27416"><ele></ele><time>2016-8-30T22:42:27Z</time></trkpt>
<trkpt lat="46.1813" lon="7.2742"><ele></ele><time>2016-8-30T22:42:30Z</time></trkpt>
<trkpt lat="46.18131" lon="7.27426"><ele></ele><time>2016-8-30T22:42:33Z</time></trkpt>
<trkpt lat="46.18132" lon="7.27433"><ele></ele><time>2016-8-30T22:42:36Z</time></trkpt>
<trkpt lat="46.18132" lon="7.2744"><ele></ele><time>2016-8-30T22:42:39Z</time></trkpt>
<trkpt lat="46.18133" lon="7.27447"><ele></ele><time>2016-8-30T22:42:42Z</time></trkpt>
<trkpt lat="46.18134" lon="7.27454"><ele></ele><time>2016-8-30T22:42:45Z</time></trkpt>
<trkpt lat="46.18134" lon="7.27461"><ele></ele><time>2016-8-30T22:42:48Z</time></trkpt>
<trkpt lat="46.18135" lon="7.27465"><ele></ele><time>2016-8-30T22:42:51Z</time></trkpt>
<trkpt lat="46.18135" lon="7.27468"><ele></ele><time>2016-8-30T22:42:54Z</time></trkpt>
<trkpt lat="46.18136" lon="7.27475"><ele></ele><time>2016-8-30T22:42:57Z</time></trkpt>
<trkpt lat="46.18136" lon="7.27482"><ele></ele><time>2016-8-30T22:43:0Z</time></trkpt>
<trkpt lat="46.18137" lon="7.27486"><ele></ele><time>2016-8-30T22:43:3Z</time></trkpt>
<trkpt lat="46.18137" lon="7.27489"><ele></ele><time>2016-8-30T22:43:6Z</time></trkpt>
<trkpt lat="46.18139" lon="7.27496"><ele></ele><time>2016-8-30T22:43:9Z</time></trkpt>
<trkpt lat="46.18141" lon="7.27503"><ele></ele><time>2016-8-30T22:43:12Z</time></trkpt>
<trkpt lat="46.18143" lon="7.2751"><ele></ele><time>2016-8-30T22:43:15Z</time></trkpt>
<trkpt lat="46.18145" lon="7.27517"><ele></ele><time>2016-8-30T22:43:18Z</time></trkpt>
<trkpt lat="46.18147" lon="7.27523"><ele></ele><time>2016-8-30T22:43:21Z</time></trkpt>
<trkpt lat="46.18149" lon="7.2753"><ele></ele><time>2016-8-30T22:43:24Z</time></trkpt>
<trkpt lat="46.1815" lon="7.27534"><ele></ele><time>2016-8-30T22:43:27Z</time></trkpt>
<trkpt lat="46.18151" lon="7.27537"><ele></ele><time>2016-8-30T22:43:30Z</time></trkpt>
<trkpt lat="46.18155" lon="7.27543"><ele></ele><time>2016-8-30T22:43:33Z</time></trkpt>
<trkpt lat="46.18159" lon="7.27549"><ele></ele><time>2016-8-30T22:43:36Z</time></trkpt>
<trkpt lat="46.18162" lon="7.27555"><ele></ele><time>2016-8-30T22:43:39Z</time></trkpt>
<trkpt lat="46.18166" lon="7.27561"><ele></ele><time>2016-8-30T22:43:42Z</time></trkpt>
<trkpt lat="46.18169" lon="7.27567"><ele></ele><time>2016-8-30T22:43:45Z</time></trkpt>
<trkpt lat="46.18173" lon="7.27573"><ele></ele><time>2016-8-30T22:43:48Z</time></trkpt>
<trkpt lat="46.18177" lon="7.27579"><ele></ele><time>2016-8-30T22:43:51Z</time></trkpt>
<trkpt lat="46.1818" lon="7.27585"><ele></ele><time>2016-8-30T22:43:54Z</time></trkpt>
<trkpt lat="46.18183" lon="7.27593"><ele></ele><time>2016-8-30T22:43:57Z</time></trkpt>
<trkpt lat="46.18186" lon="7.27601"><ele></ele><time>2016-8-30T22:44:0Z</time></trkpt>
<trkpt lat="46.18189" lon="7.2761"><ele></ele><time>2016-8-30T22:44:3Z</time></trkpt>
<trkpt lat="46.1819" lon="7.27614"><ele></ele><time>2016-8-30T22:44:6Z</time></trkpt>
<trkpt lat="46.18192" lon="7.27618"><ele></ele><time>2016-8-30T22:44:9Z</time></trkpt>
<trkpt lat="46.18195" lon="7.27626"><ele></ele><time>2016-8-30T22:44:12Z</time></trkpt>
<trkpt lat="46.18197" lon="7.27634"><ele></ele><time>2016-8-30T22:44:15Z</time></trkpt>
<trkpt lat="46.182" lon="7.27643"><ele></ele><time>2016-8-30T22:44:18Z</time></trkpt>
<trkpt lat="46.18202" lon="7.27647"><ele></ele><time>2016-8-30T22:44:21Z</time></trkpt>
<trkpt lat="46.18203" lon="7.27651"><ele></ele><time>2016-8-30T22:44:24Z</time></trkpt>
<trkpt lat="46.18207" lon="7.27658"><ele></ele><time>2016-8-30T22:44:27Z</time></trkpt>
<trkpt lat="46.1821" lon="7.27666"><ele></ele><time>2016-8-30T22:44:30Z</time></trkpt>
<trkpt lat="46.18213" lon="7.27673"><ele></ele><time>2016-8-30T22:44:33Z</time></trkpt>
<trkpt lat="46.18217" lon="7.27681"><ele></ele><time>2016-8-30T22:44:36Z</time></trkpt>
<trkpt lat="46.1822" lon="7.27688"><ele></ele><time>2016-8-30T22:44:39Z</time></trkpt>
<trkpt lat="46.18223" lon="7.27695"><ele></ele><time>2016-8-30T22:44:42Z</time></trkpt>
<trkpt lat="46.18226" lon="7.27703"><ele></ele><time>2016-8-30T22:44:45Z</time></trkpt>
<trkpt lat="46.18228" lon="7.27707"><ele></ele><time>2016-8-30T22:44:48Z</time></trkpt>
<trkpt lat="46.1823" lon="7.27712"><ele></ele><time>2016-8-30T22:44:51Z</time></trkpt>
<trkpt lat="46.18231" lon="7.27716"><ele></ele><time>2016-8-30T22:44:54Z</time></trkpt>
<trkpt lat="46.18233" lon="7.2772"><ele></ele><time>2016-8-30T22:44:57Z</time></trkpt>
<trkpt lat="46.18234" lon="7.27725"><ele></ele><time>2016-8-30T22:45:0Z</time></trkpt>
<trkpt lat="46.18235" lon="7.27727"><ele></ele><time>2016-8-30T22:45:3Z</time></trkpt>
<trkpt lat="46.18236" lon="7.27729"><ele></ele><time>2016-8-30T22:45:6Z</time></trkpt>
<trkpt lat="46.18237" lon="7.27733"><ele></ele><time>2016-8-30T22:45:9Z</time></trkpt>
<trkpt lat="46.18239" lon="7.27738"><ele></ele><time>2016-8-30T22:45:12Z</time></trkpt>
<trkpt lat="46.1824" lon="7.27742"><ele></ele><time>2016-8-30T22:45:15Z</time></trkpt>
<trkpt lat="46.18242" lon="7.27746"><ele></ele><time>2016-8-30T22:45:18Z</time></trkpt>
<trkpt lat="46.18243" lon="7.27751"><ele></ele><time>2016-8-30T22:45:21Z</time></trkpt>
<trkpt lat="46.18245" lon="7.27755"><ele></ele><time>2016-8-30T22:45:24Z</time></trkpt>
<trkpt lat="46.18246" lon="7.27759"><ele></ele><time>2016-8-30T22:45:27Z</time></trkpt>
<trkpt lat="46.18247" lon="7.27761"><ele></ele><time>2016-8-30T22:45:30Z</time></trkpt>
<trkpt lat="46.18248" lon="7.27763"><ele></ele><time>2016-8-30T22:45:33Z</time></trkpt>
<trkpt lat="46.1825" lon="7.27766"><ele></ele><time>2016-8-30T22:45:36Z</time></trkpt>
<trkpt lat="46.18252" lon="7.2777"><ele></ele><time>2016-8-30T22:45:39Z</time></trkpt>
<trkpt lat="46.18254" lon="7.27773"><ele></ele><time>2016-8-30T22:45:42Z</time></trkpt>
<trkpt lat="46.18255" lon="7.27776"><ele></ele><time>2016-8-30T22:45:45Z</time></trkpt>
<trkpt lat="46.18257" lon="7.2778"><ele></ele><time>2016-8-30T22:45:48Z</time></trkpt>
<trkpt lat="46.18259" lon="7.27783"><ele></ele><time>2016-8-30T22:45:51Z</time></trkpt>
<trkpt lat="46.18261" lon="7.27786"><ele></ele><time>2016-8-30T22:45:54Z</time></trkpt>
<trkpt lat="46.18262" lon="7.27788"><ele></ele><time>2016-8-30T22:45:57Z</time></trkpt>
<trkpt lat="46.18262" lon="7.2779"><ele></ele><time>2016-8-30T22:46:0Z</time></trkpt>
<trkpt lat="46.18262" lon="7.27792"><ele></ele><time>2016-8-30T22:46:3Z</time></trkpt>
<trkpt lat="46.18262" lon="7.27794"><ele></ele><time>2016-8-30T22:46:6Z</time></trkpt>
<trkpt lat="46.18263" lon="7.27799"><ele></ele><time>2016-8-30T22:46:9Z</time></trkpt>
<trkpt lat="46.18263" lon="7.27803"><ele></ele><time>2016-8-30T22:46:12Z</time></trkpt>
<trkpt lat="46.18263" lon="7.27805"><ele></ele><time>2016-8-30T22:46:15Z</time></trkpt>
<trkpt lat="46.18263" lon="7.27807"><ele></ele><time>2016-8-30T22:46:18Z</time></trkpt>
<trkpt lat="46.18263" lon="7.27811"><ele></ele><time>2016-8-30T22:46:21Z</time></trkpt>
<trkpt lat="46.18263" lon="7.27816"><ele></ele><time>2016-8-30T22:46:24Z</time></trkpt>
<trkpt lat="46.18263" lon="7.2782"><ele></ele><time>2016-8-30T22:46:27Z</time></trkpt>
<trkpt lat="46.18264" lon="7.27824"><ele></ele><time>2016-8-30T22:46:30Z</time></trkpt>
<trkpt lat="46.18264" lon="7.27828"><ele></ele><time>2016-8-30T22:46:33Z</time></trkpt>
<trkpt lat="46.18264" lon="7.27833"><ele></ele><time>2016-8-30T22:46:36Z</time></trkpt>
<trkpt lat="46.18264" lon="7.27837"><ele></ele><time>2016-8-30T22:46:39Z</time></trkpt>
<trkpt lat="46.18264" lon="7.27841"><ele></ele><time>2016-8-30T22:46:42Z</time></trkpt>
<trkpt lat="46.18264" lon="7.27845"><ele></ele><time>2016-8-30T22:46:45Z</time></trkpt>
<trkpt lat="46.18264" lon="7.2785"><ele></ele><time>2016-8-30T22:46:48Z</time></trkpt>
<trkpt lat="46.18265" lon="7.27854"><ele></ele><time>2016-8-30T22:46:51Z</time></trkpt>
<trkpt lat="46.18266" lon="7.27857"><ele></ele><time>2016-8-30T22:46:54Z</time></trkpt>
<trkpt lat="46.18268" lon="7.2786"><ele></ele><time>2016-8-30T22:46:57Z</time></trkpt>
<trkpt lat="46.1827" lon="7.27863"><ele></ele><time>2016-8-30T22:47:0Z</time></trkpt>
<trkpt lat="46.18272" lon="7.27866"><ele></ele><time>2016-8-30T22:47:3Z</time></trkpt>
<trkpt lat="46.18274" lon="7.27869"><ele></ele><time>2016-8-30T22:47:6Z</time></trkpt>
<trkpt lat="46.18276" lon="7.27873"><ele></ele><time>2016-8-30T22:47:9Z</time></trkpt>
<trkpt lat="46.18278" lon="7.27876"><ele></ele><time>2016-8-30T22:47:12Z</time></trkpt>
<trkpt lat="46.1828" lon="7.27879"><ele></ele><time>2016-8-30T22:47:15Z</time></trkpt>
<trkpt lat="46.18282" lon="7.27882"><ele></ele><time>2016-8-30T22:47:18Z</time></trkpt>
<trkpt lat="46.18284" lon="7.27885"><ele></ele><time>2016-8-30T22:47:21Z</time></trkpt>
<trkpt lat="46.18285" lon="7.27886"><ele></ele><time>2016-8-30T22:47:24Z</time></trkpt>
<trkpt lat="46.18286" lon="7.27888"><ele></ele><time>2016-8-30T22:47:27Z</time></trkpt>
<trkpt lat="46.18288" lon="7.27891"><ele></ele><time>2016-8-30T22:47:30Z</time></trkpt>
<trkpt lat="46.18289" lon="7.27894"><ele></ele><time>2016-8-30T22:47:33Z</time></trkpt>
<trkpt lat="46.18291" lon="7.27897"><ele></ele><time>2016-8-30T22:47:36Z</time></trkpt>
<trkpt lat="46.18293" lon="7.279"><ele></ele><time>2016-8-30T22:47:39Z</time></trkpt>
<trkpt lat="46.18295" lon="7.27904"><ele></ele><time>2016-8-30T22:47:42Z</time></trkpt>
<trkpt lat="46.18298" lon="7.27907"><ele></ele><time>2016-8-30T22:47:45Z</time></trkpt>
<trkpt lat="46.183" lon="7.2791"><ele></ele><time>2016-8-30T22:47:48Z</time></trkpt>
<trkpt lat="46.18303" lon="7.27914"><ele></ele><time>2016-8-30T22:47:51Z</time></trkpt>
<trkpt lat="46.18305" lon="7.27917"><ele></ele><time>2016-8-30T22:47:54Z</time></trkpt>
<trkpt lat="46.18308" lon="7.27921"><ele></ele><time>2016-8-30T22:47:57Z</time></trkpt>
<trkpt lat="46.18309" lon="7.27922"><ele></ele><time>2016-8-30T22:48:0Z</time></trkpt>
<trkpt lat="46.1831" lon="7.27924"><ele></ele><time>2016-8-30T22:48:3Z</time></trkpt>
<trkpt lat="46.18313" lon="7.27928"><ele></ele><time>2016-8-30T22:48:6Z</time></trkpt>
<trkpt lat="46.18315" lon="7.27931"><ele></ele><time>2016-8-30T22:48:9Z</time></trkpt>
<trkpt lat="46.18318" lon="7.27935"><ele></ele><time>2016-8-30T22:48:12Z</time></trkpt>
<trkpt lat="46.1832" lon="7.27938"><ele></ele><time>2016-8-30T22:48:15Z</time></trkpt>
<trkpt lat="46.18323" lon="7.27941"><ele></ele><time>2016-8-30T22:48:18Z</time></trkpt>
<trkpt lat="46.18325" lon="7.27945"><ele></ele><time>2016-8-30T22:48:21Z</time></trkpt>
<trkpt lat="46.18328" lon="7.27948"><ele></ele><time>2016-8-30T22:48:24Z</time></trkpt>
<trkpt lat="46.18329" lon="7.2795"><ele></ele><time>2016-8-30T22:48:27Z</time></trkpt>
<trkpt lat="46.1833" lon="7.27952"><ele></ele><time>2016-8-30T22:48:30Z</time></trkpt>
<trkpt lat="46.18332" lon="7.27956"><ele></ele><time>2016-8-30T22:48:33Z</time></trkpt>
<trkpt lat="46.18333" lon="7.2796"><ele></ele><time>2016-8-30T22:48:36Z</time></trkpt>
<trkpt lat="46.18335" lon="7.27964"><ele></ele><time>2016-8-30T22:48:39Z</time></trkpt>
<trkpt lat="46.18336" lon="7.27968"><ele></ele><time>2016-8-30T22:48:42Z</time></trkpt>
<trkpt lat="46.18338" lon="7.27972"><ele></ele><time>2016-8-30T22:48:45Z</time></trkpt>
<trkpt lat="46.18339" lon="7.27976"><ele></ele><time>2016-8-30T22:48:48Z</time></trkpt>
<trkpt lat="46.18341" lon="7.2798"><ele></ele><time>2016-8-30T22:48:51Z</time></trkpt>
<trkpt lat="46.18342" lon="7.27984"><ele></ele><time>2016-8-30T22:48:54Z</time></trkpt>
<trkpt lat="46.18344" lon="7.27988"><ele></ele><time>2016-8-30T22:48:57Z</time></trkpt>
<trkpt lat="46.18346" lon="7.27992"><ele></ele><time>2016-8-30T22:49:0Z</time></trkpt>
<trkpt lat="46.18347" lon="7.27996"><ele></ele><time>2016-8-30T22:49:3Z</time></trkpt>
<trkpt lat="46.18349" lon="7.28"><ele></ele><time>2016-8-30T22:49:6Z</time></trkpt>
<trkpt lat="46.1835" lon="7.28003"><ele></ele><time>2016-8-30T22:49:9Z</time></trkpt>
<trkpt lat="46.18352" lon="7.28007"><ele></ele><time>2016-8-30T22:49:12Z</time></trkpt>
<trkpt lat="46.18357" lon="7.28017"><ele></ele><time>2016-8-30T22:49:15Z</time></trkpt>
<trkpt lat="46.18363" lon="7.28027"><ele></ele><time>2016-8-30T22:49:18Z</time></trkpt>
<trkpt lat="46.18369" lon="7.28037"><ele></ele><time>2016-8-30T22:49:21Z</time></trkpt>
<trkpt lat="46.18372" lon="7.28042"><ele></ele><time>2016-8-30T22:49:24Z</time></trkpt>
<trkpt lat="46.18378" lon="7.28048"><ele></ele><time>2016-8-30T22:49:27Z</time></trkpt>
<trkpt lat="46.1839" lon="7.28061"><ele></ele><time>2016-8-30T22:49:30Z</time></trkpt>
<trkpt lat="46.18396" lon="7.28067"><ele></ele><time>2016-8-30T22:49:33Z</time></trkpt>
<trkpt lat="46.18402" lon="7.28073"><ele></ele><time>2016-8-30T22:49:36Z</time></trkpt>
<trkpt lat="46.18414" lon="7.28086"><ele></ele><time>2016-8-30T22:49:39Z</time></trkpt>
<trkpt lat="46.18429" lon="7.28097"><ele></ele><time>2016-8-30T22:49:42Z</time></trkpt>
<trkpt lat="46.18444" lon="7.28108"><ele></ele><time>2016-8-30T22:49:45Z</time></trkpt>
<trkpt lat="46.18459" lon="7.2812"><ele></ele><time>2016-8-30T22:49:48Z</time></trkpt>
<trkpt lat="46.18475" lon="7.28129"><ele></ele><time>2016-8-30T22:49:51Z</time></trkpt>
<trkpt lat="46.18492" lon="7.28139"><ele></ele><time>2016-8-30T22:49:54Z</time></trkpt>
<trkpt lat="46.18506" lon="7.28152"><ele></ele><time>2016-8-30T22:49:57Z</time></trkpt>
<trkpt lat="46.18513" lon="7.28159"><ele></ele><time>2016-8-30T22:50:0Z</time></trkpt>
<trkpt lat="46.18518" lon="7.28167"><ele></ele><time>2016-8-30T22:50:3Z</time></trkpt>
<trkpt lat="46.18528" lon="7.28183"><ele></ele><time>2016-8-30T22:50:6Z</time></trkpt>
<trkpt lat="46.18539" lon="7.28199"><ele></ele><time>2016-8-30T22:50:9Z</time></trkpt>
<trkpt lat="46.18544" lon="7.28207"><ele></ele><time>2016-8-30T22:50:12Z</time></trkpt>
<trkpt lat="46.18547" lon="7.28212"><ele></ele><time>2016-8-30T22:50:15Z</time></trkpt>
<trkpt lat="46.18552" lon="7.28221"><ele></ele><time>2016-8-30T22:50:18Z</time></trkpt>
<trkpt lat="46.18557" lon="7.2823"><ele></ele><time>2016-8-30T22:50:21Z</time></trkpt>
<trkpt lat="46.18562" lon="7.28239"><ele></ele><time>2016-8-30T22:50:24Z</time></trkpt>
<trkpt lat="46.18567" lon="7.28248"><ele></ele><time>2016-8-30T22:50:27Z</time></trkpt>
<trkpt lat="46.18569" lon="7.28252"><ele></ele><time>2016-8-30T22:50:30Z</time></trkpt>
<trkpt lat="46.18572" lon="7.28257"><ele></ele><time>2016-8-30T22:50:33Z</time></trkpt>
<trkpt lat="46.18574" lon="7.28261"><ele></ele><time>2016-8-30T22:50:36Z</time></trkpt>
<trkpt lat="46.18576" lon="7.28264"><ele></ele><time>2016-8-30T22:50:39Z</time></trkpt>
<trkpt lat="46.1858" lon="7.2827"><ele></ele><time>2016-8-30T22:50:42Z</time></trkpt>
<trkpt lat="46.18584" lon="7.28276"><ele></ele><time>2016-8-30T22:50:45Z</time></trkpt>
<trkpt lat="46.18587" lon="7.28281"><ele></ele><time>2016-8-30T22:50:48Z</time></trkpt>
<trkpt lat="46.18591" lon="7.28287"><ele></ele><time>2016-8-30T22:50:51Z</time></trkpt>
<trkpt lat="46.18595" lon="7.28293"><ele></ele><time>2016-8-30T22:50:54Z</time></trkpt>
<trkpt lat="46.18598" lon="7.28298"><ele></ele><time>2016-8-30T22:50:57Z</time></trkpt>
<trkpt lat="46.18602" lon="7.28304"><ele></ele><time>2016-8-30T22:51:0Z</time></trkpt>
<trkpt lat="46.18606" lon="7.2831"><ele></ele><time>2016-8-30T22:51:3Z</time></trkpt>
<trkpt lat="46.18611" lon="7.28317"><ele></ele><time>2016-8-30T22:51:6Z</time></trkpt>
<trkpt lat="46.18615" lon="7.28324"><ele></ele><time>2016-8-30T22:51:9Z</time></trkpt>
<trkpt lat="46.1862" lon="7.28332"><ele></ele><time>2016-8-30T22:51:12Z</time></trkpt>
<trkpt lat="46.18625" lon="7.28339"><ele></ele><time>2016-8-30T22:51:15Z</time></trkpt>
<trkpt lat="46.1863" lon="7.28346"><ele></ele><time>2016-8-30T22:51:18Z</time></trkpt>
<trkpt lat="46.18635" lon="7.28353"><ele></ele><time>2016-8-30T22:51:21Z</time></trkpt>
<trkpt lat="46.18637" lon="7.28357"><ele></ele><time>2016-8-30T22:51:24Z</time></trkpt>
<trkpt lat="46.18639" lon="7.28362"><ele></ele><time>2016-8-30T22:51:27Z</time></trkpt>
<trkpt lat="46.18644" lon="7.28371"><ele></ele><time>2016-8-30T22:51:30Z</time></trkpt>
<trkpt lat="46.18649" lon="7.2838"><ele></ele><time>2016-8-30T22:51:33Z</time></trkpt>
<trkpt lat="46.18654" lon="7.28389"><ele></ele><time>2016-8-30T22:51:36Z</time></trkpt>
<trkpt lat="46.18659" lon="7.28399"><ele></ele><time>2016-8-30T22:51:39Z</time></trkpt>
<trkpt lat="46.18663" lon="7.28408"><ele></ele><time>2016-8-30T22:51:42Z</time></trkpt>
<trkpt lat="46.18666" lon="7.28413"><ele></ele><time>2016-8-30T22:51:45Z</time></trkpt>
<trkpt lat="46.18669" lon="7.28419"><ele></ele><time>2016-8-30T22:51:48Z</time></trkpt>
<trkpt lat="46.18676" lon="7.28434"><ele></ele><time>2016-8-30T22:51:51Z</time></trkpt>
<trkpt lat="46.18682" lon="7.28449"><ele></ele><time>2016-8-30T22:51:54Z</time></trkpt>
<trkpt lat="46.18689" lon="7.28463"><ele></ele><time>2016-8-30T22:51:57Z</time></trkpt>
<trkpt lat="46.18692" lon="7.2847"><ele></ele><time>2016-8-30T22:52:0Z</time></trkpt>
<trkpt lat="46.18696" lon="7.28478"><ele></ele><time>2016-8-30T22:52:3Z</time></trkpt>
<trkpt lat="46.18703" lon="7.28494"><ele></ele><time>2016-8-30T22:52:6Z</time></trkpt>
<trkpt lat="46.1871" lon="7.2851"><ele></ele><time>2016-8-30T22:52:9Z</time></trkpt>
<trkpt lat="46.18718" lon="7.28525"><ele></ele><time>2016-8-30T22:52:12Z</time></trkpt>
<trkpt lat="46.18726" lon="7.28541"><ele></ele><time>2016-8-30T22:52:15Z</time></trkpt>
<trkpt lat="46.18734" lon="7.28556"><ele></ele><time>2016-8-30T22:52:18Z</time></trkpt>
<trkpt lat="46.18738" lon="7.28564"><ele></ele><time>2016-8-30T22:52:21Z</time></trkpt>
<trkpt lat="46.18744" lon="7.2857"><ele></ele><time>2016-8-30T22:52:24Z</time></trkpt>
<trkpt lat="46.18755" lon="7.2858"><ele></ele><time>2016-8-30T22:52:27Z</time></trkpt>
<trkpt lat="46.18766" lon="7.28591"><ele></ele><time>2016-8-30T22:52:30Z</time></trkpt>
<trkpt lat="46.18777" lon="7.28602"><ele></ele><time>2016-8-30T22:52:33Z</time></trkpt>
<trkpt lat="46.18787" lon="7.28615"><ele></ele><time>2016-8-30T22:52:36Z</time></trkpt>
<trkpt lat="46.18797" lon="7.28627"><ele></ele><time>2016-8-30T22:52:39Z</time></trkpt>
<trkpt lat="46.18805" lon="7.28647"><ele></ele><time>2016-8-30T22:52:42Z</time></trkpt>
<trkpt lat="46.18808" lon="7.28657"><ele></ele><time>2016-8-30T22:52:45Z</time></trkpt>
<trkpt lat="46.18813" lon="7.28665"><ele></ele><time>2016-8-30T22:52:48Z</time></trkpt>
<trkpt lat="46.18823" lon="7.28681"><ele></ele><time>2016-8-30T22:52:51Z</time></trkpt>
<trkpt lat="46.18833" lon="7.28696"><ele></ele><time>2016-8-30T22:52:54Z</time></trkpt>
<trkpt lat="46.1884" lon="7.2871"><ele></ele><time>2016-8-30T22:52:57Z</time></trkpt>
<trkpt lat="46.18846" lon="7.28724"><ele></ele><time>2016-8-30T22:53:0Z</time></trkpt>
<trkpt lat="46.18851" lon="7.28729"><ele></ele><time>2016-8-30T22:53:3Z</time></trkpt>
<trkpt lat="46.18851" lon="7.28735"><ele></ele><time>2016-8-30T22:53:6Z</time></trkpt>
<trkpt lat="46.18857" lon="7.28745"><ele></ele><time>2016-8-30T22:53:9Z</time></trkpt>
<trkpt lat="46.18861" lon="7.28749"><ele></ele><time>2016-8-30T22:53:12Z</time></trkpt>
<trkpt lat="46.18863" lon="7.28755"><ele></ele><time>2016-8-30T22:53:15Z</time></trkpt>
<trkpt lat="46.18862" lon="7.2876"><ele></ele><time>2016-8-30T22:53:18Z</time></trkpt>
<trkpt lat="46.18861" lon="7.28763"><ele></ele><time>2016-8-30T22:53:21Z</time></trkpt>
<trkpt lat="46.18861" lon="7.28765"><ele></ele><time>2016-8-30T22:53:24Z</time></trkpt>
<trkpt lat="46.18859" lon="7.2877"><ele></ele><time>2016-8-30T22:53:27Z</time></trkpt>
<trkpt lat="46.18858" lon="7.28775"><ele></ele><time>2016-8-30T22:53:30Z</time></trkpt>
<trkpt lat="46.18857" lon="7.2878"><ele></ele><time>2016-8-30T22:53:33Z</time></trkpt>
<trkpt lat="46.18855" lon="7.28786"><ele></ele><time>2016-8-30T22:53:36Z</time></trkpt>
<trkpt lat="46.18854" lon="7.28791"><ele></ele><time>2016-8-30T22:53:39Z</time></trkpt>
<trkpt lat="46.18853" lon="7.28796"><ele></ele><time>2016-8-30T22:53:42Z</time></trkpt>
<trkpt lat="46.18851" lon="7.28801"><ele></ele><time>2016-8-30T22:53:45Z</time></trkpt>
<trkpt lat="46.1885" lon="7.28806"><ele></ele><time>2016-8-30T22:53:48Z</time></trkpt>
<trkpt lat="46.18849" lon="7.28811"><ele></ele><time>2016-8-30T22:53:51Z</time></trkpt>
<trkpt lat="46.18848" lon="7.28816"><ele></ele><time>2016-8-30T22:53:54Z</time></trkpt>
<trkpt lat="46.18847" lon="7.28821"><ele></ele><time>2016-8-30T22:53:57Z</time></trkpt>
<trkpt lat="46.18847" lon="7.28825"><ele></ele><time>2016-8-30T22:54:0Z</time></trkpt>
<trkpt lat="46.18847" lon="7.2883"><ele></ele><time>2016-8-30T22:54:3Z</time></trkpt>
<trkpt lat="46.18847" lon="7.28834"><ele></ele><time>2016-8-30T22:54:6Z</time></trkpt>
<trkpt lat="46.18847" lon="7.28839"><ele></ele><time>2016-8-30T22:54:9Z</time></trkpt>
<trkpt lat="46.18847" lon="7.28844"><ele></ele><time>2016-8-30T22:54:12Z</time></trkpt>
<trkpt lat="46.18847" lon="7.28848"><ele></ele><time>2016-8-30T22:54:15Z</time></trkpt>
<trkpt lat="46.18847" lon="7.28853"><ele></ele><time>2016-8-30T22:54:18Z</time></trkpt>
<trkpt lat="46.18847" lon="7.28857"><ele></ele><time>2016-8-30T22:54:21Z</time></trkpt>
<trkpt lat="46.18846" lon="7.2886"><ele></ele><time>2016-8-30T22:54:24Z</time></trkpt>
<trkpt lat="46.18846" lon="7.28862"><ele></ele><time>2016-8-30T22:54:27Z</time></trkpt>
<trkpt lat="46.18846" lon="7.28867"><ele></ele><time>2016-8-30T22:54:30Z</time></trkpt>
<trkpt lat="46.18846" lon="7.28871"><ele></ele><time>2016-8-30T22:54:33Z</time></trkpt>
<trkpt lat="46.18846" lon="7.28876"><ele></ele><time>2016-8-30T22:54:36Z</time></trkpt>
<trkpt lat="46.18846" lon="7.2888"><ele></ele><time>2016-8-30T22:54:39Z</time></trkpt>
<trkpt lat="46.18846" lon="7.28883"><ele></ele><time>2016-8-30T22:54:42Z</time></trkpt>
<trkpt lat="46.18847" lon="7.28886"><ele></ele><time>2016-8-30T22:54:45Z</time></trkpt>
<trkpt lat="46.18849" lon="7.28892"><ele></ele><time>2016-8-30T22:54:48Z</time></trkpt>
<trkpt lat="46.18851" lon="7.28898"><ele></ele><time>2016-8-30T22:54:51Z</time></trkpt>
<trkpt lat="46.18853" lon="7.28904"><ele></ele><time>2016-8-30T22:54:54Z</time></trkpt>
<trkpt lat="46.18855" lon="7.2891"><ele></ele><time>2016-8-30T22:54:57Z</time></trkpt>
<trkpt lat="46.18857" lon="7.28916"><ele></ele><time>2016-8-30T22:55:0Z</time></trkpt>
<trkpt lat="46.18859" lon="7.28922"><ele></ele><time>2016-8-30T22:55:3Z</time></trkpt>
<trkpt lat="46.18861" lon="7.28928"><ele></ele><time>2016-8-30T22:55:6Z</time></trkpt>
<trkpt lat="46.18863" lon="7.28934"><ele></ele><time>2016-8-30T22:55:9Z</time></trkpt>
<trkpt lat="46.18865" lon="7.28938"><ele></ele><time>2016-8-30T22:55:12Z</time></trkpt>
<trkpt lat="46.18867" lon="7.28942"><ele></ele><time>2016-8-30T22:55:15Z</time></trkpt>
<trkpt lat="46.18868" lon="7.28945"><ele></ele><time>2016-8-30T22:55:18Z</time></trkpt>
<trkpt lat="46.1887" lon="7.28949"><ele></ele><time>2016-8-30T22:55:21Z</time></trkpt>
<trkpt lat="46.18872" lon="7.28952"><ele></ele><time>2016-8-30T22:55:24Z</time></trkpt>
<trkpt lat="46.18874" lon="7.28956"><ele></ele><time>2016-8-30T22:55:27Z</time></trkpt>
<trkpt lat="46.18875" lon="7.2896"><ele></ele><time>2016-8-30T22:55:30Z</time></trkpt>
<trkpt lat="46.18877" lon="7.28963"><ele></ele><time>2016-8-30T22:55:33Z</time></trkpt>
<trkpt lat="46.18879" lon="7.28967"><ele></ele><time>2016-8-30T22:55:36Z</time></trkpt>
<trkpt lat="46.18881" lon="7.2897"><ele></ele><time>2016-8-30T22:55:39Z</time></trkpt>
<trkpt lat="46.18882" lon="7.28974"><ele></ele><time>2016-8-30T22:55:42Z</time></trkpt>
<trkpt lat="46.18884" lon="7.28978"><ele></ele><time>2016-8-30T22:55:45Z</time></trkpt>
<trkpt lat="46.18886" lon="7.28981"><ele></ele><time>2016-8-30T22:55:48Z</time></trkpt>
<trkpt lat="46.18887" lon="7.28983"><ele></ele><time>2016-8-30T22:55:51Z</time></trkpt>
<trkpt lat="46.18886" lon="7.28984"><ele></ele><time>2016-8-30T22:55:54Z</time></trkpt>
<trkpt lat="46.18885" lon="7.28987"><ele></ele><time>2016-8-30T22:55:57Z</time></trkpt>
<trkpt lat="46.18884" lon="7.2899"><ele></ele><time>2016-8-30T22:56:0Z</time></trkpt>
<trkpt lat="46.18883" lon="7.28993"><ele></ele><time>2016-8-30T22:56:3Z</time></trkpt>
<trkpt lat="46.18881" lon="7.28996"><ele></ele><time>2016-8-30T22:56:6Z</time></trkpt>
<trkpt lat="46.1888" lon="7.28999"><ele></ele><time>2016-8-30T22:56:9Z</time></trkpt>
<trkpt lat="46.18879" lon="7.29001"><ele></ele><time>2016-8-30T22:56:12Z</time></trkpt>
<trkpt lat="46.18877" lon="7.29004"><ele></ele><time>2016-8-30T22:56:15Z</time></trkpt>
<trkpt lat="46.18876" lon="7.29007"><ele></ele><time>2016-8-30T22:56:18Z</time></trkpt>
<trkpt lat="46.18875" lon="7.2901"><ele></ele><time>2016-8-30T22:56:21Z</time></trkpt>
<trkpt lat="46.18874" lon="7.29013"><ele></ele><time>2016-8-30T22:56:24Z</time></trkpt>
<trkpt lat="46.18872" lon="7.29016"><ele></ele><time>2016-8-30T22:56:27Z</time></trkpt>
<trkpt lat="46.18871" lon="7.29018"><ele></ele><time>2016-8-30T22:56:30Z</time></trkpt>
<trkpt lat="46.1887" lon="7.29021"><ele></ele><time>2016-8-30T22:56:33Z</time></trkpt>
<trkpt lat="46.18868" lon="7.29024"><ele></ele><time>2016-8-30T22:56:36Z</time></trkpt>
<trkpt lat="46.18867" lon="7.29027"><ele></ele><time>2016-8-30T22:56:39Z</time></trkpt>
<trkpt lat="46.18866" lon="7.2903"><ele></ele><time>2016-8-30T22:56:42Z</time></trkpt>
<trkpt lat="46.18865" lon="7.29033"><ele></ele><time>2016-8-30T22:56:45Z</time></trkpt>
<trkpt lat="46.18863" lon="7.29035"><ele></ele><time>2016-8-30T22:56:48Z</time></trkpt>
<trkpt lat="46.18862" lon="7.29038"><ele></ele><time>2016-8-30T22:56:51Z</time></trkpt>
<trkpt lat="46.1886" lon="7.29041"><ele></ele><time>2016-8-30T22:56:54Z</time></trkpt>
<trkpt lat="46.18859" lon="7.29044"><ele></ele><time>2016-8-30T22:56:57Z</time></trkpt>
<trkpt lat="46.18857" lon="7.29046"><ele></ele><time>2016-8-30T22:57:0Z</time></trkpt>
<trkpt lat="46.18856" lon="7.29049"><ele></ele><time>2016-8-30T22:57:3Z</time></trkpt>
<trkpt lat="46.18854" lon="7.29052"><ele></ele><time>2016-8-30T22:57:6Z</time></trkpt>
<trkpt lat="46.18853" lon="7.29055"><ele></ele><time>2016-8-30T22:57:9Z</time></trkpt>
<trkpt lat="46.18851" lon="7.29057"><ele></ele><time>2016-8-30T22:57:12Z</time></trkpt>
<trkpt lat="46.1885" lon="7.2906"><ele></ele><time>2016-8-30T22:57:15Z</time></trkpt>
<trkpt lat="46.18848" lon="7.29063"><ele></ele><time>2016-8-30T22:57:18Z</time></trkpt>
<trkpt lat="46.18847" lon="7.29065"><ele></ele><time>2016-8-30T22:57:21Z</time></trkpt>
<trkpt lat="46.18845" lon="7.29068"><ele></ele><time>2016-8-30T22:57:24Z</time></trkpt>
<trkpt lat="46.18845" lon="7.29069"><ele></ele><time>2016-8-30T22:57:27Z</time></trkpt>
<trkpt lat="46.18844" lon="7.29071"><ele></ele><time>2016-8-30T22:57:30Z</time></trkpt>
<trkpt lat="46.18842" lon="7.29073"><ele></ele><time>2016-8-30T22:57:33Z</time></trkpt>
<trkpt lat="46.18841" lon="7.29076"><ele></ele><time>2016-8-30T22:57:36Z</time></trkpt>
<trkpt lat="46.18839" lon="7.29079"><ele></ele><time>2016-8-30T22:57:39Z</time></trkpt>
<trkpt lat="46.18838" lon="7.29082"><ele></ele><time>2016-8-30T22:57:42Z</time></trkpt>
<trkpt lat="46.18836" lon="7.29084"><ele></ele><time>2016-8-30T22:57:45Z</time></trkpt>
<trkpt lat="46.18835" lon="7.29087"><ele></ele><time>2016-8-30T22:57:48Z</time></trkpt>
<trkpt lat="46.18833" lon="7.2909"><ele></ele><time>2016-8-30T22:57:51Z</time></trkpt>
<trkpt lat="46.18834" lon="7.29095"><ele></ele><time>2016-8-30T22:57:54Z</time></trkpt>
<trkpt lat="46.18834" lon="7.291"><ele></ele><time>2016-8-30T22:57:57Z</time></trkpt>
<trkpt lat="46.18834" lon="7.29106"><ele></ele><time>2016-8-30T22:58:0Z</time></trkpt>
<trkpt lat="46.18834" lon="7.29108"><ele></ele><time>2016-8-30T22:58:3Z</time></trkpt>
<trkpt lat="46.18834" lon="7.29111"><ele></ele><time>2016-8-30T22:58:6Z</time></trkpt>
<trkpt lat="46.18834" lon="7.29117"><ele></ele><time>2016-8-30T22:58:9Z</time></trkpt>
<trkpt lat="46.18835" lon="7.29122"><ele></ele><time>2016-8-30T22:58:12Z</time></trkpt>
<trkpt lat="46.18835" lon="7.29125"><ele></ele><time>2016-8-30T22:58:15Z</time></trkpt>
<trkpt lat="46.18835" lon="7.29128"><ele></ele><time>2016-8-30T22:58:18Z</time></trkpt>
<trkpt lat="46.18835" lon="7.29133"><ele></ele><time>2016-8-30T22:58:21Z</time></trkpt>
<trkpt lat="46.18835" lon="7.29138"><ele></ele><time>2016-8-30T22:58:24Z</time></trkpt>
<trkpt lat="46.18836" lon="7.29144"><ele></ele><time>2016-8-30T22:58:27Z</time></trkpt>
<trkpt lat="46.18836" lon="7.29149"><ele></ele><time>2016-8-30T22:58:30Z</time></trkpt>
<trkpt lat="46.18836" lon="7.29155"><ele></ele><time>2016-8-30T22:58:33Z</time></trkpt>
<trkpt lat="46.18836" lon="7.2916"><ele></ele><time>2016-8-30T22:58:36Z</time></trkpt>
<trkpt lat="46.18839" lon="7.29165"><ele></ele><time>2016-8-30T22:58:39Z</time></trkpt>
<trkpt lat="46.18841" lon="7.2917"><ele></ele><time>2016-8-30T22:58:42Z</time></trkpt>
<trkpt lat="46.18843" lon="7.29175"><ele></ele><time>2016-8-30T22:58:45Z</time></trkpt>
<trkpt lat="46.18846" lon="7.2918"><ele></ele><time>2016-8-30T22:58:48Z</time></trkpt>
<trkpt lat="46.18848" lon="7.29185"><ele></ele><time>2016-8-30T22:58:51Z</time></trkpt>
<trkpt lat="46.18851" lon="7.2919"><ele></ele><time>2016-8-30T22:58:54Z</time></trkpt>
<trkpt lat="46.18853" lon="7.29195"><ele></ele><time>2016-8-30T22:58:57Z</time></trkpt>
<trkpt lat="46.18856" lon="7.292"><ele></ele><time>2016-8-30T22:59:0Z</time></trkpt>
<trkpt lat="46.18858" lon="7.29205"><ele></ele><time>2016-8-30T22:59:3Z</time></trkpt>
<trkpt lat="46.18859" lon="7.29208"><ele></ele><time>2016-8-30T22:59:6Z</time></trkpt>
<trkpt lat="46.18859" lon="7.2921"><ele></ele><time>2016-8-30T22:59:9Z</time></trkpt>
<trkpt lat="46.18859" lon="7.29215"><ele></ele><time>2016-8-30T22:59:12Z</time></trkpt>
<trkpt lat="46.1886" lon="7.2922"><ele></ele><time>2016-8-30T22:59:15Z</time></trkpt>
<trkpt lat="46.1886" lon="7.29225"><ele></ele><time>2016-8-30T22:59:18Z</time></trkpt>
<trkpt lat="46.1886" lon="7.2923"><ele></ele><time>2016-8-30T22:59:21Z</time></trkpt>
<trkpt lat="46.1886" lon="7.29235"><ele></ele><time>2016-8-30T22:59:24Z</time></trkpt>
<trkpt lat="46.1886" lon="7.2924"><ele></ele><time>2016-8-30T22:59:27Z</time></trkpt>
<trkpt lat="46.1886" lon="7.29245"><ele></ele><time>2016-8-30T22:59:30Z</time></trkpt>
<trkpt lat="46.1886" lon="7.29247"><ele></ele><time>2016-8-30T22:59:33Z</time></trkpt>
<trkpt lat="46.1886" lon="7.2925"><ele></ele><time>2016-8-30T22:59:36Z</time></trkpt>
<trkpt lat="46.18861" lon="7.29255"><ele></ele><time>2016-8-30T22:59:39Z</time></trkpt>
<trkpt lat="46.18861" lon="7.29257"><ele></ele><time>2016-8-30T22:59:42Z</time></trkpt>
<trkpt lat="46.18861" lon="7.29259"><ele></ele><time>2016-8-30T22:59:45Z</time></trkpt>
<trkpt lat="46.18862" lon="7.29264"><ele></ele><time>2016-8-30T22:59:48Z</time></trkpt>
<trkpt lat="46.18862" lon="7.29268"><ele></ele><time>2016-8-30T22:59:51Z</time></trkpt>
<trkpt lat="46.18863" lon="7.29272"><ele></ele><time>2016-8-30T22:59:54Z</time></trkpt>
<trkpt lat="46.18864" lon="7.29276"><ele></ele><time>2016-8-30T22:59:57Z</time></trkpt>
<trkpt lat="46.18865" lon="7.2928"><ele></ele><time>2016-8-30T23:0:0Z</time></trkpt>
<trkpt lat="46.18866" lon="7.29284"><ele></ele><time>2016-8-30T23:0:3Z</time></trkpt>
<trkpt lat="46.18866" lon="7.29289"><ele></ele><time>2016-8-30T23:0:6Z</time></trkpt>
<trkpt lat="46.18867" lon="7.29293"><ele></ele><time>2016-8-30T23:0:9Z</time></trkpt>
<trkpt lat="46.18868" lon="7.29297"><ele></ele><time>2016-8-30T23:0:12Z</time></trkpt>
<trkpt lat="46.18869" lon="7.29301"><ele></ele><time>2016-8-30T23:0:15Z</time></trkpt>
<trkpt lat="46.18869" lon="7.29305"><ele></ele><time>2016-8-30T23:0:18Z</time></trkpt>
<trkpt lat="46.1887" lon="7.29309"><ele></ele><time>2016-8-30T23:0:21Z</time></trkpt>
<trkpt lat="46.18871" lon="7.29314"><ele></ele><time>2016-8-30T23:0:24Z</time></trkpt>
<trkpt lat="46.18872" lon="7.29318"><ele></ele><time>2016-8-30T23:0:27Z</time></trkpt>
<trkpt lat="46.18872" lon="7.29322"><ele></ele><time>2016-8-30T23:0:30Z</time></trkpt>
<trkpt lat="46.18873" lon="7.29325"><ele></ele><time>2016-8-30T23:0:33Z</time></trkpt>
<trkpt lat="46.18874" lon="7.29329"><ele></ele><time>2016-8-30T23:0:36Z</time></trkpt>
<trkpt lat="46.18875" lon="7.29333"><ele></ele><time>2016-8-30T23:0:39Z</time></trkpt>
<trkpt lat="46.18876" lon="7.29336"><ele></ele><time>2016-8-30T23:0:42Z</time></trkpt>
<trkpt lat="46.18877" lon="7.2934"><ele></ele><time>2016-8-30T23:0:45Z</time></trkpt>
<trkpt lat="46.18878" lon="7.29343"><ele></ele><time>2016-8-30T23:0:48Z</time></trkpt>
<trkpt lat="46.18879" lon="7.29347"><ele></ele><time>2016-8-30T23:0:51Z</time></trkpt>
<trkpt lat="46.1888" lon="7.2935"><ele></ele><time>2016-8-30T23:0:54Z</time></trkpt>
<trkpt lat="46.18881" lon="7.29354"><ele></ele><time>2016-8-30T23:0:57Z</time></trkpt>
<trkpt lat="46.18882" lon="7.29357"><ele></ele><time>2016-8-30T23:1:0Z</time></trkpt>
<trkpt lat="46.18883" lon="7.29361"><ele></ele><time>2016-8-30T23:1:3Z</time></trkpt>
<trkpt lat="46.18884" lon="7.29364"><ele></ele><time>2016-8-30T23:1:6Z</time></trkpt>
<trkpt lat="46.18885" lon="7.29368"><ele></ele><time>2016-8-30T23:1:9Z</time></trkpt>
<trkpt lat="46.18886" lon="7.29371"><ele></ele><time>2016-8-30T23:1:12Z</time></trkpt>
<trkpt lat="46.18887" lon="7.29375"><ele></ele><time>2016-8-30T23:1:15Z</time></trkpt>
<trkpt lat="46.18887" lon="7.29378"><ele></ele><time>2016-8-30T23:1:18Z</time></trkpt>
<trkpt lat="46.18888" lon="7.2938"><ele></ele><time>2016-8-30T23:1:21Z</time></trkpt>
<trkpt lat="46.18888" lon="7.29382"><ele></ele><time>2016-8-30T23:1:24Z</time></trkpt>
<trkpt lat="46.18889" lon="7.29384"><ele></ele><time>2016-8-30T23:1:27Z</time></trkpt>
<trkpt lat="46.18889" lon="7.29385"><ele></ele><time>2016-8-30T23:1:30Z</time></trkpt>
<trkpt lat="46.18889" lon="7.29389"><ele></ele><time>2016-8-30T23:1:33Z</time></trkpt>
<trkpt lat="46.18889" lon="7.29392"><ele></ele><time>2016-8-30T23:1:36Z</time></trkpt>
<trkpt lat="46.18889" lon="7.29396"><ele></ele><time>2016-8-30T23:1:39Z</time></trkpt>
<trkpt lat="46.18889" lon="7.29399"><ele></ele><time>2016-8-30T23:1:42Z</time></trkpt>
<trkpt lat="46.18889" lon="7.29402"><ele></ele><time>2016-8-30T23:1:45Z</time></trkpt>
<trkpt lat="46.18889" lon="7.29406"><ele></ele><time>2016-8-30T23:1:48Z</time></trkpt>
<trkpt lat="46.18889" lon="7.29409"><ele></ele><time>2016-8-30T23:1:51Z</time></trkpt>
<trkpt lat="46.18889" lon="7.29413"><ele></ele><time>2016-8-30T23:1:54Z</time></trkpt>
<trkpt lat="46.18889" lon="7.29416"><ele></ele><time>2016-8-30T23:1:57Z</time></trkpt>
<trkpt lat="46.18889" lon="7.2942"><ele></ele><time>2016-8-30T23:2:0Z</time></trkpt>
<trkpt lat="46.18888" lon="7.29423"><ele></ele><time>2016-8-30T23:2:3Z</time></trkpt>
<trkpt lat="46.18888" lon="7.29426"><ele></ele><time>2016-8-30T23:2:6Z</time></trkpt>
<trkpt lat="46.18888" lon="7.2943"><ele></ele><time>2016-8-30T23:2:9Z</time></trkpt>
<trkpt lat="46.18888" lon="7.29433"><ele></ele><time>2016-8-30T23:2:12Z</time></trkpt>
<trkpt lat="46.18888" lon="7.29437"><ele></ele><time>2016-8-30T23:2:15Z</time></trkpt>
<trkpt lat="46.18888" lon="7.29438"><ele></ele><time>2016-8-30T23:2:18Z</time></trkpt>
<trkpt lat="46.18888" lon="7.2944"><ele></ele><time>2016-8-30T23:2:21Z</time></trkpt>
<trkpt lat="46.18888" lon="7.29444"><ele></ele><time>2016-8-30T23:2:24Z</time></trkpt>
<trkpt lat="46.18888" lon="7.29447"><ele></ele><time>2016-8-30T23:2:27Z</time></trkpt>
<trkpt lat="46.18888" lon="7.29449"><ele></ele><time>2016-8-30T23:2:30Z</time></trkpt>
<trkpt lat="46.18888" lon="7.2945"><ele></ele><time>2016-8-30T23:2:33Z</time></trkpt>
<trkpt lat="46.18888" lon="7.29454"><ele></ele><time>2016-8-30T23:2:36Z</time></trkpt>
<trkpt lat="46.18888" lon="7.29457"><ele></ele><time>2016-8-30T23:2:39Z</time></trkpt>
<trkpt lat="46.18888" lon="7.2946"><ele></ele><time>2016-8-30T23:2:42Z</time></trkpt>
<trkpt lat="46.18888" lon="7.29464"><ele></ele><time>2016-8-30T23:2:45Z</time></trkpt>
<trkpt lat="46.18888" lon="7.29467"><ele></ele><time>2016-8-30T23:2:48Z</time></trkpt>
<trkpt lat="46.18888" lon="7.2947"><ele></ele><time>2016-8-30T23:2:51Z</time></trkpt>
<trkpt lat="46.18887" lon="7.29467"><ele></ele><time>2016-8-30T23:2:54Z</time></trkpt>
<trkpt lat="46.18885" lon="7.29464"><ele></ele><time>2016-8-30T23:2:57Z</time></trkpt>
<trkpt lat="46.18883" lon="7.29461"><ele></ele><time>2016-8-30T23:3:0Z</time></trkpt>
<trkpt lat="46.18882" lon="7.29457"><ele></ele><time>2016-8-30T23:3:3Z</time></trkpt>
<trkpt lat="46.1888" lon="7.29454"><ele></ele><time>2016-8-30T23:3:6Z</time></trkpt>
<trkpt lat="46.18879" lon="7.2945"><ele></ele><time>2016-8-30T23:3:9Z</time></trkpt>
<trkpt lat="46.18877" lon="7.29447"><ele></ele><time>2016-8-30T23:3:12Z</time></trkpt>
<trkpt lat="46.18875" lon="7.29444"><ele></ele><time>2016-8-30T23:3:15Z</time></trkpt>
<trkpt lat="46.18874" lon="7.2944"><ele></ele><time>2016-8-30T23:3:18Z</time></trkpt>
<trkpt lat="46.18872" lon="7.29437"><ele></ele><time>2016-8-30T23:3:21Z</time></trkpt>
<trkpt lat="46.1887" lon="7.29433"><ele></ele><time>2016-8-30T23:3:24Z</time></trkpt>
<trkpt lat="46.18869" lon="7.2943"><ele></ele><time>2016-8-30T23:3:27Z</time></trkpt>
<trkpt lat="46.18867" lon="7.29427"><ele></ele><time>2016-8-30T23:3:30Z</time></trkpt>
<trkpt lat="46.18866" lon="7.29423"><ele></ele><time>2016-8-30T23:3:33Z</time></trkpt>
<trkpt lat="46.18864" lon="7.2942"><ele></ele><time>2016-8-30T23:3:36Z</time></trkpt>
<trkpt lat="46.18862" lon="7.29416"><ele></ele><time>2016-8-30T23:3:39Z</time></trkpt>
<trkpt lat="46.18862" lon="7.29415"><ele></ele><time>2016-8-30T23:3:42Z</time></trkpt>
<trkpt lat="46.18862" lon="7.29415"><ele></ele><time>2016-8-30T23:3:45Z</time></trkpt>
<trkpt lat="46.18861" lon="7.29414"><ele></ele><time>2016-8-30T23:3:48Z</time></trkpt>
<trkpt lat="46.18861" lon="7.29413"><ele></ele><time>2016-8-30T23:3:51Z</time></trkpt>
<trkpt lat="46.1886" lon="7.29412"><ele></ele><time>2016-8-30T23:3:54Z</time></trkpt>
<trkpt lat="46.1886" lon="7.29411"><ele></ele><time>2016-8-30T23:3:57Z</time></trkpt>
<trkpt lat="46.1886" lon="7.2941"><ele></ele><time>2016-8-30T23:4:0Z</time></trkpt>
<trkpt lat="46.18868" lon="7.29417"><ele></ele><time>2016-8-30T23:4:3Z</time></trkpt>
<trkpt lat="46.18877" lon="7.29425"><ele></ele><time>2016-8-30T23:4:6Z</time></trkpt>
<trkpt lat="46.18877" lon="7.29428"><ele></ele><time>2016-8-30T23:4:9Z</time></trkpt>
<trkpt lat="46.18877" lon="7.2943"><ele></ele><time>2016-8-30T23:4:12Z</time></trkpt>
<trkpt lat="46.18877" lon="7.29432"><ele></ele><time>2016-8-30T23:4:15Z</time></trkpt>
<trkpt lat="46.18878" lon="7.29435"><ele></ele><time>2016-8-30T23:4:18Z</time></trkpt>
<trkpt lat="46.18878" lon="7.29438"><ele></ele><time>2016-8-30T23:4:21Z</time></trkpt>
<trkpt lat="46.18878" lon="7.29441"><ele></ele><time>2016-8-30T23:4:24Z</time></trkpt>
<trkpt lat="46.18878" lon="7.29445"><ele></ele><time>2016-8-30T23:4:27Z</time></trkpt>
<trkpt lat="46.18878" lon="7.29448"><ele></ele><time>2016-8-30T23:4:30Z</time></trkpt>
<trkpt lat="46.18878" lon="7.29451"><ele></ele><time>2016-8-30T23:4:33Z</time></trkpt>
<trkpt lat="46.18878" lon="7.29454"><ele></ele><time>2016-8-30T23:4:36Z</time></trkpt>
<trkpt lat="46.18878" lon="7.29458"><ele></ele><time>2016-8-30T23:4:39Z</time></trkpt>
<trkpt lat="46.18878" lon="7.29461"><ele></ele><time>2016-8-30T23:4:42Z</time></trkpt>
<trkpt lat="46.18879" lon="7.29464"><ele></ele><time>2016-8-30T23:4:45Z</time></trkpt>
<trkpt lat="46.18879" lon="7.29467"><ele></ele><time>2016-8-30T23:4:48Z</time></trkpt>
<trkpt lat="46.18879" lon="7.2947"><ele></ele><time>2016-8-30T23:4:51Z</time></trkpt>
<trkpt lat="46.18879" lon="7.29474"><ele></ele><time>2016-8-30T23:4:54Z</time></trkpt>
<trkpt lat="46.18879" lon="7.29477"><ele></ele><time>2016-8-30T23:4:57Z</time></trkpt>
<trkpt lat="46.18879" lon="7.2948"><ele></ele><time>2016-8-30T23:5:0Z</time></trkpt>
<trkpt lat="46.18879" lon="7.29483"><ele></ele><time>2016-8-30T23:5:3Z</time></trkpt>
<trkpt lat="46.18879" lon="7.29487"><ele></ele><time>2016-8-30T23:5:6Z</time></trkpt>
<trkpt lat="46.18878" lon="7.29493"><ele></ele><time>2016-8-30T23:5:9Z</time></trkpt>
<trkpt lat="46.18876" lon="7.29499"><ele></ele><time>2016-8-30T23:5:12Z</time></trkpt>
<trkpt lat="46.18874" lon="7.29505"><ele></ele><time>2016-8-30T23:5:15Z</time></trkpt>
<trkpt lat="46.18873" lon="7.29511"><ele></ele><time>2016-8-30T23:5:18Z</time></trkpt>
<trkpt lat="46.18871" lon="7.29517"><ele></ele><time>2016-8-30T23:5:21Z</time></trkpt>
<trkpt lat="46.18869" lon="7.29523"><ele></ele><time>2016-8-30T23:5:24Z</time></trkpt>
<trkpt lat="46.18868" lon="7.29529"><ele></ele><time>2016-8-30T23:5:27Z</time></trkpt>
<trkpt lat="46.18866" lon="7.29535"><ele></ele><time>2016-8-30T23:5:30Z</time></trkpt>
<trkpt lat="46.18864" lon="7.29541"><ele></ele><time>2016-8-30T23:5:33Z</time></trkpt>
<trkpt lat="46.18863" lon="7.29544"><ele></ele><time>2016-8-30T23:5:36Z</time></trkpt>
<trkpt lat="46.18863" lon="7.29547"><ele></ele><time>2016-8-30T23:5:39Z</time></trkpt>
<trkpt lat="46.18864" lon="7.29553"><ele></ele><time>2016-8-30T23:5:42Z</time></trkpt>
<trkpt lat="46.18865" lon="7.29559"><ele></ele><time>2016-8-30T23:5:45Z</time></trkpt>
<trkpt lat="46.18865" lon="7.29565"><ele></ele><time>2016-8-30T23:5:48Z</time></trkpt>
<trkpt lat="46.18864" lon="7.29572"><ele></ele><time>2016-8-30T23:5:51Z</time></trkpt>
<trkpt lat="46.18862" lon="7.29579"><ele></ele><time>2016-8-30T23:5:54Z</time></trkpt>
<trkpt lat="46.1886" lon="7.29586"><ele></ele><time>2016-8-30T23:5:57Z</time></trkpt>
<trkpt lat="46.18859" lon="7.29592"><ele></ele><time>2016-8-30T23:6:0Z</time></trkpt>
<trkpt lat="46.18857" lon="7.29599"><ele></ele><time>2016-8-30T23:6:3Z</time></trkpt>
<trkpt lat="46.18855" lon="7.29606"><ele></ele><time>2016-8-30T23:6:6Z</time></trkpt>
<trkpt lat="46.18854" lon="7.29612"><ele></ele><time>2016-8-30T23:6:9Z</time></trkpt>
<trkpt lat="46.18852" lon="7.29619"><ele></ele><time>2016-8-30T23:6:12Z</time></trkpt>
<trkpt lat="46.18851" lon="7.29626"><ele></ele><time>2016-8-30T23:6:15Z</time></trkpt>
<trkpt lat="46.1885" lon="7.29629"><ele></ele><time>2016-8-30T23:6:18Z</time></trkpt>
<trkpt lat="46.18849" lon="7.29633"><ele></ele><time>2016-8-30T23:6:21Z</time></trkpt>
<trkpt lat="46.18847" lon="7.29642"><ele></ele><time>2016-8-30T23:6:24Z</time></trkpt>
<trkpt lat="46.18844" lon="7.2965"><ele></ele><time>2016-8-30T23:6:27Z</time></trkpt>
<trkpt lat="46.18842" lon="7.29658"><ele></ele><time>2016-8-30T23:6:30Z</time></trkpt>
<trkpt lat="46.1884" lon="7.29667"><ele></ele><time>2016-8-30T23:6:33Z</time></trkpt>
<trkpt lat="46.18838" lon="7.29675"><ele></ele><time>2016-8-30T23:6:36Z</time></trkpt>
<trkpt lat="46.18836" lon="7.29683"><ele></ele><time>2016-8-30T23:6:39Z</time></trkpt>
<trkpt lat="46.18834" lon="7.29691"><ele></ele><time>2016-8-30T23:6:42Z</time></trkpt>
<trkpt lat="46.1883" lon="7.29698"><ele></ele><time>2016-8-30T23:6:45Z</time></trkpt>
<trkpt lat="46.18826" lon="7.29705"><ele></ele><time>2016-8-30T23:6:48Z</time></trkpt>
<trkpt lat="46.18819" lon="7.29705"><ele></ele><time>2016-8-30T23:6:51Z</time></trkpt>
<trkpt lat="46.18812" lon="7.29706"><ele></ele><time>2016-8-30T23:6:54Z</time></trkpt>
<trkpt lat="46.18805" lon="7.29706"><ele></ele><time>2016-8-30T23:6:57Z</time></trkpt>
<trkpt lat="46.18799" lon="7.29707"><ele></ele><time>2016-8-30T23:7:0Z</time></trkpt>
<trkpt lat="46.18792" lon="7.29707"><ele></ele><time>2016-8-30T23:7:3Z</time></trkpt>
<trkpt lat="46.18785" lon="7.29707"><ele></ele><time>2016-8-30T23:7:6Z</time></trkpt>
<trkpt lat="46.18778" lon="7.29708"><ele></ele><time>2016-8-30T23:7:9Z</time></trkpt>
<trkpt lat="46.18771" lon="7.2971"><ele></ele><time>2016-8-30T23:7:12Z</time></trkpt>
<trkpt lat="46.18765" lon="7.29712"><ele></ele><time>2016-8-30T23:7:15Z</time></trkpt>
<trkpt lat="46.18758" lon="7.29714"><ele></ele><time>2016-8-30T23:7:18Z</time></trkpt>
<trkpt lat="46.18751" lon="7.29716"><ele></ele><time>2016-8-30T23:7:21Z</time></trkpt>
<trkpt lat="46.18745" lon="7.29718"><ele></ele><time>2016-8-30T23:7:24Z</time></trkpt>
<trkpt lat="46.18738" lon="7.2972"><ele></ele><time>2016-8-30T23:7:27Z</time></trkpt>
<trkpt lat="46.18731" lon="7.29723"><ele></ele><time>2016-8-30T23:7:30Z</time></trkpt>
<trkpt lat="46.18729" lon="7.2972"><ele></ele><time>2016-8-30T23:7:33Z</time></trkpt>
<trkpt lat="46.18727" lon="7.29716"><ele></ele><time>2016-8-30T23:7:36Z</time></trkpt>
<trkpt lat="46.18725" lon="7.29713"><ele></ele><time>2016-8-30T23:7:39Z</time></trkpt>
<trkpt lat="46.18722" lon="7.2971"><ele></ele><time>2016-8-30T23:7:42Z</time></trkpt>
<trkpt lat="46.1872" lon="7.29707"><ele></ele><time>2016-8-30T23:7:45Z</time></trkpt>
<trkpt lat="46.18718" lon="7.29703"><ele></ele><time>2016-8-30T23:7:48Z</time></trkpt>
<trkpt lat="46.18716" lon="7.297"><ele></ele><time>2016-8-30T23:7:51Z</time></trkpt>
<trkpt lat="46.18714" lon="7.29697"><ele></ele><time>2016-8-30T23:7:54Z</time></trkpt>
<trkpt lat="46.18711" lon="7.29694"><ele></ele><time>2016-8-30T23:7:57Z</time></trkpt>
<trkpt lat="46.18709" lon="7.2969"><ele></ele><time>2016-8-30T23:8:0Z</time></trkpt>
<trkpt lat="46.18707" lon="7.29687"><ele></ele><time>2016-8-30T23:8:3Z</time></trkpt>
<trkpt lat="46.18705" lon="7.29684"><ele></ele><time>2016-8-30T23:8:6Z</time></trkpt>
<trkpt lat="46.18703" lon="7.29681"><ele></ele><time>2016-8-30T23:8:9Z</time></trkpt>
<trkpt lat="46.18701" lon="7.29678"><ele></ele><time>2016-8-30T23:8:12Z</time></trkpt>
<trkpt lat="46.187" lon="7.29676"><ele></ele><time>2016-8-30T23:8:15Z</time></trkpt>
<trkpt lat="46.18698" lon="7.29676"><ele></ele><time>2016-8-30T23:8:18Z</time></trkpt>
<trkpt lat="46.18695" lon="7.29678"><ele></ele><time>2016-8-30T23:8:21Z</time></trkpt>
<trkpt lat="46.18692" lon="7.29679"><ele></ele><time>2016-8-30T23:8:24Z</time></trkpt>
<trkpt lat="46.18689" lon="7.2968"><ele></ele><time>2016-8-30T23:8:27Z</time></trkpt>
<trkpt lat="46.18685" lon="7.29682"><ele></ele><time>2016-8-30T23:8:30Z</time></trkpt>
<trkpt lat="46.18684" lon="7.29682"><ele></ele><time>2016-8-30T23:8:33Z</time></trkpt>
<trkpt lat="46.18682" lon="7.29683"><ele></ele><time>2016-8-30T23:8:36Z</time></trkpt>
<trkpt lat="46.18679" lon="7.29684"><ele></ele><time>2016-8-30T23:8:39Z</time></trkpt>
<trkpt lat="46.18676" lon="7.29686"><ele></ele><time>2016-8-30T23:8:42Z</time></trkpt>
<trkpt lat="46.18673" lon="7.29687"><ele></ele><time>2016-8-30T23:8:45Z</time></trkpt>
<trkpt lat="46.1867" lon="7.29688"><ele></ele><time>2016-8-30T23:8:48Z</time></trkpt>
<trkpt lat="46.18667" lon="7.2969"><ele></ele><time>2016-8-30T23:8:51Z</time></trkpt>
<trkpt lat="46.18664" lon="7.29692"><ele></ele><time>2016-8-30T23:8:54Z</time></trkpt>
<trkpt lat="46.18662" lon="7.29695"><ele></ele><time>2016-8-30T23:8:57Z</time></trkpt>
<trkpt lat="46.1866" lon="7.29697"><ele></ele><time>2016-8-30T23:9:0Z</time></trkpt>
<trkpt lat="46.18657" lon="7.297"><ele></ele><time>2016-8-30T23:9:3Z</time></trkpt>
<trkpt lat="46.18655" lon="7.29702"><ele></ele><time>2016-8-30T23:9:6Z</time></trkpt>
<trkpt lat="46.18653" lon="7.29705"><ele></ele><time>2016-8-30T23:9:9Z</time></trkpt>
<trkpt lat="46.1865" lon="7.29708"><ele></ele><time>2016-8-30T23:9:12Z</time></trkpt>
<trkpt lat="46.18648" lon="7.2971"><ele></ele><time>2016-8-30T23:9:15Z</time></trkpt>
<trkpt lat="46.18646" lon="7.29713"><ele></ele><time>2016-8-30T23:9:18Z</time></trkpt>
<trkpt lat="46.18643" lon="7.29715"><ele></ele><time>2016-8-30T23:9:21Z</time></trkpt>
<trkpt lat="46.18641" lon="7.29718"><ele></ele><time>2016-8-30T23:9:24Z</time></trkpt>
<trkpt lat="46.18639" lon="7.2972"><ele></ele><time>2016-8-30T23:9:27Z</time></trkpt>
<trkpt lat="46.18637" lon="7.29723"><ele></ele><time>2016-8-30T23:9:30Z</time></trkpt>
<trkpt lat="46.18635" lon="7.29724"><ele></ele><time>2016-8-30T23:9:33Z</time></trkpt>
<trkpt lat="46.18634" lon="7.29725"><ele></ele><time>2016-8-30T23:9:36Z</time></trkpt>
<trkpt lat="46.18632" lon="7.29728"><ele></ele><time>2016-8-30T23:9:39Z</time></trkpt>
<trkpt lat="46.18631" lon="7.29729"><ele></ele><time>2016-8-30T23:9:42Z</time></trkpt>
<trkpt lat="46.18629" lon="7.29731"><ele></ele><time>2016-8-30T23:9:45Z</time></trkpt>
<trkpt lat="46.18626" lon="7.29735"><ele></ele><time>2016-8-30T23:9:48Z</time></trkpt>
<trkpt lat="46.18623" lon="7.29738"><ele></ele><time>2016-8-30T23:9:51Z</time></trkpt>
<trkpt lat="46.18619" lon="7.29742"><ele></ele><time>2016-8-30T23:9:54Z</time></trkpt>
<trkpt lat="46.18616" lon="7.29745"><ele></ele><time>2016-8-30T23:9:57Z</time></trkpt>
<trkpt lat="46.18613" lon="7.29749"><ele></ele><time>2016-8-30T23:10:0Z</time></trkpt>
<trkpt lat="46.1861" lon="7.29753"><ele></ele><time>2016-8-30T23:10:3Z</time></trkpt>
<trkpt lat="46.18606" lon="7.29756"><ele></ele><time>2016-8-30T23:10:6Z</time></trkpt>
<trkpt lat="46.18603" lon="7.2976"><ele></ele><time>2016-8-30T23:10:9Z</time></trkpt>
<trkpt lat="46.186" lon="7.29763"><ele></ele><time>2016-8-30T23:10:12Z</time></trkpt>
<trkpt lat="46.18597" lon="7.29767"><ele></ele><time>2016-8-30T23:10:15Z</time></trkpt>
<trkpt lat="46.18595" lon="7.29769"><ele></ele><time>2016-8-30T23:10:18Z</time></trkpt>
<trkpt lat="46.18593" lon="7.2977"><ele></ele><time>2016-8-30T23:10:21Z</time></trkpt>
<trkpt lat="46.18589" lon="7.29773"><ele></ele><time>2016-8-30T23:10:24Z</time></trkpt>
<trkpt lat="46.18586" lon="7.29777"><ele></ele><time>2016-8-30T23:10:27Z</time></trkpt>
<trkpt lat="46.18582" lon="7.2978"><ele></ele><time>2016-8-30T23:10:30Z</time></trkpt>
<trkpt lat="46.18578" lon="7.29783"><ele></ele><time>2016-8-30T23:10:33Z</time></trkpt>
<trkpt lat="46.18574" lon="7.29786"><ele></ele><time>2016-8-30T23:10:36Z</time></trkpt>
<trkpt lat="46.1857" lon="7.29789"><ele></ele><time>2016-8-30T23:10:39Z</time></trkpt>
<trkpt lat="46.18567" lon="7.29792"><ele></ele><time>2016-8-30T23:10:42Z</time></trkpt>
<trkpt lat="46.18563" lon="7.29795"><ele></ele><time>2016-8-30T23:10:45Z</time></trkpt>
<trkpt lat="46.18559" lon="7.29798"><ele></ele><time>2016-8-30T23:10:48Z</time></trkpt>
<trkpt lat="46.18557" lon="7.29796"><ele></ele><time>2016-8-30T23:10:51Z</time></trkpt>
<trkpt lat="46.18556" lon="7.29793"><ele></ele><time>2016-8-30T23:10:54Z</time></trkpt>
<trkpt lat="46.18554" lon="7.2979"><ele></ele><time>2016-8-30T23:10:57Z</time></trkpt>
<trkpt lat="46.18552" lon="7.29787"><ele></ele><time>2016-8-30T23:11:0Z</time></trkpt>
<trkpt lat="46.1855" lon="7.29785"><ele></ele><time>2016-8-30T23:11:3Z</time></trkpt>
<trkpt lat="46.18549" lon="7.29782"><ele></ele><time>2016-8-30T23:11:6Z</time></trkpt>
<trkpt lat="46.18547" lon="7.29779"><ele></ele><time>2016-8-30T23:11:9Z</time></trkpt>
<trkpt lat="46.18545" lon="7.29776"><ele></ele><time>2016-8-30T23:11:12Z</time></trkpt>
<trkpt lat="46.18543" lon="7.29774"><ele></ele><time>2016-8-30T23:11:15Z</time></trkpt>
<trkpt lat="46.18542" lon="7.29771"><ele></ele><time>2016-8-30T23:11:18Z</time></trkpt>
<trkpt lat="46.1854" lon="7.29768"><ele></ele><time>2016-8-30T23:11:21Z</time></trkpt>
<trkpt lat="46.18538" lon="7.29765"><ele></ele><time>2016-8-30T23:11:24Z</time></trkpt>
<trkpt lat="46.18536" lon="7.29763"><ele></ele><time>2016-8-30T23:11:27Z</time></trkpt>
<trkpt lat="46.18535" lon="7.2976"><ele></ele><time>2016-8-30T23:11:30Z</time></trkpt>
<trkpt lat="46.18533" lon="7.29757"><ele></ele><time>2016-8-30T23:11:33Z</time></trkpt>
<trkpt lat="46.18531" lon="7.29754"><ele></ele><time>2016-8-30T23:11:36Z</time></trkpt>
<trkpt lat="46.1853" lon="7.29752"><ele></ele><time>2016-8-30T23:11:39Z</time></trkpt>
<trkpt lat="46.18529" lon="7.2975"><ele></ele><time>2016-8-30T23:11:42Z</time></trkpt>
<trkpt lat="46.18528" lon="7.29749"><ele></ele><time>2016-8-30T23:11:45Z</time></trkpt>
<trkpt lat="46.18526" lon="7.29747"><ele></ele><time>2016-8-30T23:11:48Z</time></trkpt>
<trkpt lat="46.18524" lon="7.29744"><ele></ele><time>2016-8-30T23:11:51Z</time></trkpt>
<trkpt lat="46.18522" lon="7.29742"><ele></ele><time>2016-8-30T23:11:54Z</time></trkpt>
<trkpt lat="46.1852" lon="7.29739"><ele></ele><time>2016-8-30T23:11:57Z</time></trkpt>
<trkpt lat="46.18518" lon="7.29737"><ele></ele><time>2016-8-30T23:12:0Z</time></trkpt>
<trkpt lat="46.18517" lon="7.29734"><ele></ele><time>2016-8-30T23:12:3Z</time></trkpt>
<trkpt lat="46.18515" lon="7.29731"><ele></ele><time>2016-8-30T23:12:6Z</time></trkpt>
<trkpt lat="46.18513" lon="7.29729"><ele></ele><time>2016-8-30T23:12:9Z</time></trkpt>
<trkpt lat="46.18512" lon="7.29728"><ele></ele><time>2016-8-30T23:12:12Z</time></trkpt>
<trkpt lat="46.18511" lon="7.29726"><ele></ele><time>2016-8-30T23:12:15Z</time></trkpt>
<trkpt lat="46.18509" lon="7.29724"><ele></ele><time>2016-8-30T23:12:18Z</time></trkpt>
<trkpt lat="46.18507" lon="7.29721"><ele></ele><time>2016-8-30T23:12:21Z</time></trkpt>
<trkpt lat="46.18505" lon="7.29719"><ele></ele><time>2016-8-30T23:12:24Z</time></trkpt>
<trkpt lat="46.18503" lon="7.29716"><ele></ele><time>2016-8-30T23:12:27Z</time></trkpt>
<trkpt lat="46.18502" lon="7.29714"><ele></ele><time>2016-8-30T23:12:30Z</time></trkpt>
<trkpt lat="46.185" lon="7.29711"><ele></ele><time>2016-8-30T23:12:33Z</time></trkpt>
<trkpt lat="46.18498" lon="7.29709"><ele></ele><time>2016-8-30T23:12:36Z</time></trkpt>
<trkpt lat="46.18496" lon="7.29706"><ele></ele><time>2016-8-30T23:12:39Z</time></trkpt>
<trkpt lat="46.18495" lon="7.29705"><ele></ele><time>2016-8-30T23:12:42Z</time></trkpt>
<trkpt lat="46.18494" lon="7.29704"><ele></ele><time>2016-8-30T23:12:45Z</time></trkpt>
<trkpt lat="46.18491" lon="7.29702"><ele></ele><time>2016-8-30T23:12:48Z</time></trkpt>
<trkpt lat="46.18489" lon="7.297"><ele></ele><time>2016-8-30T23:12:51Z</time></trkpt>
<trkpt lat="46.18487" lon="7.29698"><ele></ele><time>2016-8-30T23:12:54Z</time></trkpt>
<trkpt lat="46.18484" lon="7.29696"><ele></ele><time>2016-8-30T23:12:57Z</time></trkpt>
<trkpt lat="46.18482" lon="7.29693"><ele></ele><time>2016-8-30T23:13:0Z</time></trkpt>
<trkpt lat="46.18479" lon="7.29691"><ele></ele><time>2016-8-30T23:13:3Z</time></trkpt>
<trkpt lat="46.18477" lon="7.29689"><ele></ele><time>2016-8-30T23:13:6Z</time></trkpt>
<trkpt lat="46.18474" lon="7.29687"><ele></ele><time>2016-8-30T23:13:9Z</time></trkpt>
<trkpt lat="46.18472" lon="7.29685"><ele></ele><time>2016-8-30T23:13:12Z</time></trkpt>
<trkpt lat="46.18469" lon="7.29683"><ele></ele><time>2016-8-30T23:13:15Z</time></trkpt>
<trkpt lat="46.18467" lon="7.29681"><ele></ele><time>2016-8-30T23:13:18Z</time></trkpt>
<trkpt lat="46.18465" lon="7.29679"><ele></ele><time>2016-8-30T23:13:21Z</time></trkpt>
<trkpt lat="46.18462" lon="7.29677"><ele></ele><time>2016-8-30T23:13:24Z</time></trkpt>
<trkpt lat="46.1846" lon="7.29674"><ele></ele><time>2016-8-30T23:13:27Z</time></trkpt>
<trkpt lat="46.18457" lon="7.29672"><ele></ele><time>2016-8-30T23:13:30Z</time></trkpt>
<trkpt lat="46.18456" lon="7.29671"><ele></ele><time>2016-8-30T23:13:33Z</time></trkpt>
<trkpt lat="46.18455" lon="7.2967"><ele></ele><time>2016-8-30T23:13:36Z</time></trkpt>
<trkpt lat="46.18453" lon="7.29668"><ele></ele><time>2016-8-30T23:13:39Z</time></trkpt>
<trkpt lat="46.18451" lon="7.29665"><ele></ele><time>2016-8-30T23:13:42Z</time></trkpt>
<trkpt lat="46.1845" lon="7.29664"><ele></ele><time>2016-8-30T23:13:45Z</time></trkpt>
<trkpt lat="46.18449" lon="7.29663"><ele></ele><time>2016-8-30T23:13:48Z</time></trkpt>
<trkpt lat="46.18447" lon="7.2966"><ele></ele><time>2016-8-30T23:13:51Z</time></trkpt>
<trkpt lat="46.18446" lon="7.29658"><ele></ele><time>2016-8-30T23:13:54Z</time></trkpt>
<trkpt lat="46.18444" lon="7.29655"><ele></ele><time>2016-8-30T23:13:57Z</time></trkpt>
<trkpt lat="46.18442" lon="7.29653"><ele></ele><time>2016-8-30T23:14:0Z</time></trkpt>
<trkpt lat="46.1844" lon="7.2965"><ele></ele><time>2016-8-30T23:14:3Z</time></trkpt>
<trkpt lat="46.18438" lon="7.29648"><ele></ele><time>2016-8-30T23:14:6Z</time></trkpt>
<trkpt lat="46.18436" lon="7.29645"><ele></ele><time>2016-8-30T23:14:9Z</time></trkpt>
<trkpt lat="46.18434" lon="7.29643"><ele></ele><time>2016-8-30T23:14:12Z</time></trkpt>
<trkpt lat="46.18432" lon="7.2964"><ele></ele><time>2016-8-30T23:14:15Z</time></trkpt>
<trkpt lat="46.1843" lon="7.29638"><ele></ele><time>2016-8-30T23:14:18Z</time></trkpt>
<trkpt lat="46.18428" lon="7.29635"><ele></ele><time>2016-8-30T23:14:21Z</time></trkpt>
<trkpt lat="46.18427" lon="7.29633"><ele></ele><time>2016-8-30T23:14:24Z</time></trkpt>
<trkpt lat="46.18425" lon="7.29631"><ele></ele><time>2016-8-30T23:14:27Z</time></trkpt>
<trkpt lat="46.18423" lon="7.29628"><ele></ele><time>2016-8-30T23:14:30Z</time></trkpt>
<trkpt lat="46.18422" lon="7.29627"><ele></ele><time>2016-8-30T23:14:33Z</time></trkpt>
<trkpt lat="46.18421" lon="7.29626"><ele></ele><time>2016-8-30T23:14:36Z</time></trkpt>
<trkpt lat="46.18419" lon="7.29625"><ele></ele><time>2016-8-30T23:14:39Z</time></trkpt>
<trkpt lat="46.18417" lon="7.29623"><ele></ele><time>2016-8-30T23:14:42Z</time></trkpt>
<trkpt lat="46.18415" lon="7.29622"><ele></ele><time>2016-8-30T23:14:45Z</time></trkpt>
<trkpt lat="46.18413" lon="7.2962"><ele></ele><time>2016-8-30T23:14:48Z</time></trkpt>
<trkpt lat="46.18411" lon="7.29619"><ele></ele><time>2016-8-30T23:14:51Z</time></trkpt>
<trkpt lat="46.18409" lon="7.29617"><ele></ele><time>2016-8-30T23:14:54Z</time></trkpt>
<trkpt lat="46.18407" lon="7.29616"><ele></ele><time>2016-8-30T23:14:57Z</time></trkpt>
<trkpt lat="46.18405" lon="7.29614"><ele></ele><time>2016-8-30T23:15:0Z</time></trkpt>
<trkpt lat="46.18403" lon="7.29613"><ele></ele><time>2016-8-30T23:15:3Z</time></trkpt>
<trkpt lat="46.18401" lon="7.29611"><ele></ele><time>2016-8-30T23:15:6Z</time></trkpt>
<trkpt lat="46.18399" lon="7.2961"><ele></ele><time>2016-8-30T23:15:9Z</time></trkpt>
<trkpt lat="46.18397" lon="7.29608"><ele></ele><time>2016-8-30T23:15:12Z</time></trkpt>
<trkpt lat="46.18395" lon="7.29607"><ele></ele><time>2016-8-30T23:15:15Z</time></trkpt>
<trkpt lat="46.18393" lon="7.29605"><ele></ele><time>2016-8-30T23:15:18Z</time></trkpt>
<trkpt lat="46.18391" lon="7.29604"><ele></ele><time>2016-8-30T23:15:21Z</time></trkpt>
<trkpt lat="46.18389" lon="7.29603"><ele></ele><time>2016-8-30T23:15:24Z</time></trkpt>
<trkpt lat="46.18387" lon="7.29601"><ele></ele><time>2016-8-30T23:15:27Z</time></trkpt>
<trkpt lat="46.18386" lon="7.296"><ele></ele><time>2016-8-30T23:15:30Z</time></trkpt>
<trkpt lat="46.18385" lon="7.296"><ele></ele><time>2016-8-30T23:15:33Z</time></trkpt>
<trkpt lat="46.18383" lon="7.29598"><ele></ele><time>2016-8-30T23:15:36Z</time></trkpt>
<trkpt lat="46.18381" lon="7.29597"><ele></ele><time>2016-8-30T23:15:39Z</time></trkpt>
<trkpt lat="46.18379" lon="7.29594"><ele></ele><time>2016-8-30T23:15:42Z</time></trkpt>
<trkpt lat="46.18377" lon="7.29592"><ele></ele><time>2016-8-30T23:15:45Z</time></trkpt>
<trkpt lat="46.18375" lon="7.2959"><ele></ele><time>2016-8-30T23:15:48Z</time></trkpt>
<trkpt lat="46.18374" lon="7.29588"><ele></ele><time>2016-8-30T23:15:51Z</time></trkpt>
<trkpt lat="46.18373" lon="7.29587"><ele></ele><time>2016-8-30T23:15:54Z</time></trkpt>
<trkpt lat="46.18372" lon="7.29585"><ele></ele><time>2016-8-30T23:15:57Z</time></trkpt>
<trkpt lat="46.1837" lon="7.29583"><ele></ele><time>2016-8-30T23:16:0Z</time></trkpt>
<trkpt lat="46.18368" lon="7.2958"><ele></ele><time>2016-8-30T23:16:3Z</time></trkpt>
<trkpt lat="46.18366" lon="7.29578"><ele></ele><time>2016-8-30T23:16:6Z</time></trkpt>
<trkpt lat="46.18364" lon="7.29576"><ele></ele><time>2016-8-30T23:16:9Z</time></trkpt>
<trkpt lat="46.18362" lon="7.29573"><ele></ele><time>2016-8-30T23:16:12Z</time></trkpt>
<trkpt lat="46.18361" lon="7.29571"><ele></ele><time>2016-8-30T23:16:15Z</time></trkpt>
<trkpt lat="46.18359" lon="7.29568"><ele></ele><time>2016-8-30T23:16:18Z</time></trkpt>
<trkpt lat="46.18357" lon="7.29566"><ele></ele><time>2016-8-30T23:16:21Z</time></trkpt>
<trkpt lat="46.18356" lon="7.29565"><ele></ele><time>2016-8-30T23:16:24Z</time></trkpt>
<trkpt lat="46.18355" lon="7.29565"><ele></ele><time>2016-8-30T23:16:27Z</time></trkpt>
<trkpt lat="46.18352" lon="7.29565"><ele></ele><time>2016-8-30T23:16:30Z</time></trkpt>
<trkpt lat="46.1835" lon="7.29565"><ele></ele><time>2016-8-30T23:16:33Z</time></trkpt>
<trkpt lat="46.18347" lon="7.29565"><ele></ele><time>2016-8-30T23:16:36Z</time></trkpt>
<trkpt lat="46.18344" lon="7.29565"><ele></ele><time>2016-8-30T23:16:39Z</time></trkpt>
<trkpt lat="46.18342" lon="7.29565"><ele></ele><time>2016-8-30T23:16:42Z</time></trkpt>
<trkpt lat="46.18339" lon="7.29565"><ele></ele><time>2016-8-30T23:16:45Z</time></trkpt>
<trkpt lat="46.18337" lon="7.29565"><ele></ele><time>2016-8-30T23:16:48Z</time></trkpt>
<trkpt lat="46.18334" lon="7.29565"><ele></ele><time>2016-8-30T23:16:51Z</time></trkpt>
<trkpt lat="46.18332" lon="7.29565"><ele></ele><time>2016-8-30T23:16:54Z</time></trkpt>
<trkpt lat="46.18329" lon="7.29565"><ele></ele><time>2016-8-30T23:16:57Z</time></trkpt>
<trkpt lat="46.18327" lon="7.29565"><ele></ele><time>2016-8-30T23:17:0Z</time></trkpt>
<trkpt lat="46.18324" lon="7.29565"><ele></ele><time>2016-8-30T23:17:3Z</time></trkpt>
<trkpt lat="46.18322" lon="7.29565"><ele></ele><time>2016-8-30T23:17:6Z</time></trkpt>
<trkpt lat="46.18319" lon="7.29565"><ele></ele><time>2016-8-30T23:17:9Z</time></trkpt>
<trkpt lat="46.18316" lon="7.29565"><ele></ele><time>2016-8-30T23:17:12Z</time></trkpt>
<trkpt lat="46.18314" lon="7.29565"><ele></ele><time>2016-8-30T23:17:15Z</time></trkpt>
<trkpt lat="46.18311" lon="7.29566"><ele></ele><time>2016-8-30T23:17:18Z</time></trkpt>
<trkpt lat="46.1831" lon="7.29566"><ele></ele><time>2016-8-30T23:17:21Z</time></trkpt>
<trkpt lat="46.18309" lon="7.29565"><ele></ele><time>2016-8-30T23:17:24Z</time></trkpt>
<trkpt lat="46.18307" lon="7.29563"><ele></ele><time>2016-8-30T23:17:27Z</time></trkpt>
<trkpt lat="46.18304" lon="7.29562"><ele></ele><time>2016-8-30T23:17:30Z</time></trkpt>
<trkpt lat="46.18302" lon="7.2956"><ele></ele><time>2016-8-30T23:17:33Z</time></trkpt>
<trkpt lat="46.183" lon="7.29559"><ele></ele><time>2016-8-30T23:17:36Z</time></trkpt>
<trkpt lat="46.18298" lon="7.29557"><ele></ele><time>2016-8-30T23:17:39Z</time></trkpt>
<trkpt lat="46.18296" lon="7.29556"><ele></ele><time>2016-8-30T23:17:42Z</time></trkpt>
<trkpt lat="46.18293" lon="7.29554"><ele></ele><time>2016-8-30T23:17:45Z</time></trkpt>
<trkpt lat="46.18291" lon="7.29553"><ele></ele><time>2016-8-30T23:17:48Z</time></trkpt>
<trkpt lat="46.18291" lon="7.29548"><ele></ele><time>2016-8-30T23:17:51Z</time></trkpt>
<trkpt lat="46.18291" lon="7.29544"><ele></ele><time>2016-8-30T23:17:54Z</time></trkpt>
<trkpt lat="46.18291" lon="7.29539"><ele></ele><time>2016-8-30T23:17:57Z</time></trkpt>
<trkpt lat="46.18291" lon="7.29534"><ele></ele><time>2016-8-30T23:18:0Z</time></trkpt>
<trkpt lat="46.18291" lon="7.29532"><ele></ele><time>2016-8-30T23:18:3Z</time></trkpt>
<trkpt lat="46.18293" lon="7.29527"><ele></ele><time>2016-8-30T23:18:6Z</time></trkpt>
<trkpt lat="46.18298" lon="7.29517"><ele></ele><time>2016-8-30T23:18:9Z</time></trkpt>
<trkpt lat="46.18303" lon="7.29507"><ele></ele><time>2016-8-30T23:18:12Z</time></trkpt>
<trkpt lat="46.18306" lon="7.29502"><ele></ele><time>2016-8-30T23:18:15Z</time></trkpt>
<trkpt lat="46.18308" lon="7.29497"><ele></ele><time>2016-8-30T23:18:18Z</time></trkpt>
<trkpt lat="46.18314" lon="7.29487"><ele></ele><time>2016-8-30T23:18:21Z</time></trkpt>
<trkpt lat="46.18319" lon="7.29477"><ele></ele><time>2016-8-30T23:18:24Z</time></trkpt>
<trkpt lat="46.18323" lon="7.29472"><ele></ele><time>2016-8-30T23:18:27Z</time></trkpt>
<trkpt lat="46.18327" lon="7.29467"><ele></ele><time>2016-8-30T23:18:30Z</time></trkpt>
<trkpt lat="46.18336" lon="7.29457"><ele></ele><time>2016-8-30T23:18:33Z</time></trkpt>
<trkpt lat="46.18344" lon="7.29447"><ele></ele><time>2016-8-30T23:18:36Z</time></trkpt>
<trkpt lat="46.18349" lon="7.29444"><ele></ele><time>2016-8-30T23:18:39Z</time></trkpt>
<trkpt lat="46.18353" lon="7.2944"><ele></ele><time>2016-8-30T23:18:42Z</time></trkpt>
<trkpt lat="46.18351" lon="7.29434"><ele></ele><time>2016-8-30T23:18:45Z</time></trkpt>
<trkpt lat="46.18348" lon="7.29429"><ele></ele><time>2016-8-30T23:18:48Z</time></trkpt>
<trkpt lat="46.18345" lon="7.29423"><ele></ele><time>2016-8-30T23:18:51Z</time></trkpt>
<trkpt lat="46.18342" lon="7.29417"><ele></ele><time>2016-8-30T23:18:54Z</time></trkpt>
<trkpt lat="46.18341" lon="7.29423"><ele></ele><time>2016-8-30T23:18:57Z</time></trkpt>
<trkpt lat="46.18339" lon="7.29429"><ele></ele><time>2016-8-30T23:19:0Z</time></trkpt>
<trkpt lat="46.18338" lon="7.29436"><ele></ele><time>2016-8-30T23:19:3Z</time></trkpt>
<trkpt lat="46.18337" lon="7.29442"><ele></ele><time>2016-8-30T23:19:6Z</time></trkpt>
<trkpt lat="46.18334" lon="7.29445"><ele></ele><time>2016-8-30T23:19:9Z</time></trkpt>
<trkpt lat="46.18331" lon="7.29448"><ele></ele><time>2016-8-30T23:19:12Z</time></trkpt>
<trkpt lat="46.18328" lon="7.29451"><ele></ele><time>2016-8-30T23:19:15Z</time></trkpt>
<trkpt lat="46.18325" lon="7.29454"><ele></ele><time>2016-8-30T23:19:18Z</time></trkpt>
<trkpt lat="46.18322" lon="7.29457"><ele></ele><time>2016-8-30T23:19:21Z</time></trkpt>
<trkpt lat="46.18319" lon="7.2946"><ele></ele><time>2016-8-30T23:19:24Z</time></trkpt>
<trkpt lat="46.18316" lon="7.29463"><ele></ele><time>2016-8-30T23:19:27Z</time></trkpt>
<trkpt lat="46.18313" lon="7.29465"><ele></ele><time>2016-8-30T23:19:30Z</time></trkpt>
<trkpt lat="46.1831" lon="7.29468"><ele></ele><time>2016-8-30T23:19:33Z</time></trkpt>
<trkpt lat="46.18307" lon="7.29471"><ele></ele><time>2016-8-30T23:19:36Z</time></trkpt>
<trkpt lat="46.18305" lon="7.29473"><ele></ele><time>2016-8-30T23:19:39Z</time></trkpt>
<trkpt lat="46.18304" lon="7.29469"><ele></ele><time>2016-8-30T23:19:42Z</time></trkpt>
<trkpt lat="46.18301" lon="7.2946"><ele></ele><time>2016-8-30T23:19:45Z</time></trkpt>
<trkpt lat="46.18299" lon="7.29452"><ele></ele><time>2016-8-30T23:19:48Z</time></trkpt>
<trkpt lat="46.18296" lon="7.29443"><ele></ele><time>2016-8-30T23:19:51Z</time></trkpt>
<trkpt lat="46.18294" lon="7.29434"><ele></ele><time>2016-8-30T23:19:54Z</time></trkpt>
<trkpt lat="46.18291" lon="7.29426"><ele></ele><time>2016-8-30T23:19:57Z</time></trkpt>
<trkpt lat="46.18289" lon="7.29417"><ele></ele><time>2016-8-30T23:20:0Z</time></trkpt>
<trkpt lat="46.18288" lon="7.29412"><ele></ele><time>2016-8-30T23:20:3Z</time></trkpt>
<trkpt lat="46.18288" lon="7.29408"><ele></ele><time>2016-8-30T23:20:6Z</time></trkpt>
<trkpt lat="46.1829" lon="7.29399"><ele></ele><time>2016-8-30T23:20:9Z</time></trkpt>
<trkpt lat="46.1829" lon="7.29395"><ele></ele><time>2016-8-30T23:20:12Z</time></trkpt>
<trkpt lat="46.18291" lon="7.29391"><ele></ele><time>2016-8-30T23:20:15Z</time></trkpt>
<trkpt lat="46.18292" lon="7.29386"><ele></ele><time>2016-8-30T23:20:18Z</time></trkpt>
<trkpt lat="46.18291" lon="7.29382"><ele></ele><time>2016-8-30T23:20:21Z</time></trkpt>
<trkpt lat="46.18289" lon="7.29372"><ele></ele><time>2016-8-30T23:20:24Z</time></trkpt>
<trkpt lat="46.18287" lon="7.29363"><ele></ele><time>2016-8-30T23:20:27Z</time></trkpt>
<trkpt lat="46.18285" lon="7.29354"><ele></ele><time>2016-8-30T23:20:30Z</time></trkpt>
<trkpt lat="46.18283" lon="7.29344"><ele></ele><time>2016-8-30T23:20:33Z</time></trkpt>
<trkpt lat="46.18281" lon="7.29335"><ele></ele><time>2016-8-30T23:20:36Z</time></trkpt>
<trkpt lat="46.18279" lon="7.29326"><ele></ele><time>2016-8-30T23:20:39Z</time></trkpt>
<trkpt lat="46.18278" lon="7.29321"><ele></ele><time>2016-8-30T23:20:42Z</time></trkpt>
<trkpt lat="46.18277" lon="7.29315"><ele></ele><time>2016-8-30T23:20:45Z</time></trkpt>
<trkpt lat="46.18276" lon="7.29304"><ele></ele><time>2016-8-30T23:20:48Z</time></trkpt>
<trkpt lat="46.18274" lon="7.29293"><ele></ele><time>2016-8-30T23:20:51Z</time></trkpt>
<trkpt lat="46.18273" lon="7.29287"><ele></ele><time>2016-8-30T23:20:54Z</time></trkpt>
<trkpt lat="46.18272" lon="7.29281"><ele></ele><time>2016-8-30T23:20:57Z</time></trkpt>
<trkpt lat="46.1827" lon="7.2927"><ele></ele><time>2016-8-30T23:21:0Z</time></trkpt>
<trkpt lat="46.18268" lon="7.29258"><ele></ele><time>2016-8-30T23:21:3Z</time></trkpt>
<trkpt lat="46.18267" lon="7.29253"><ele></ele><time>2016-8-30T23:21:6Z</time></trkpt>
<trkpt lat="46.18266" lon="7.29247"><ele></ele><time>2016-8-30T23:21:9Z</time></trkpt>
<trkpt lat="46.18264" lon="7.29237"><ele></ele><time>2016-8-30T23:21:12Z</time></trkpt>
<trkpt lat="46.18261" lon="7.29226"><ele></ele><time>2016-8-30T23:21:15Z</time></trkpt>
<trkpt lat="46.18259" lon="7.29216"><ele></ele><time>2016-8-30T23:21:18Z</time></trkpt>
<trkpt lat="46.18253" lon="7.2921"><ele></ele><time>2016-8-30T23:21:21Z</time></trkpt>
<trkpt lat="46.18247" lon="7.29205"><ele></ele><time>2016-8-30T23:21:24Z</time></trkpt>
<trkpt lat="46.18243" lon="7.29203"><ele></ele><time>2016-8-30T23:21:27Z</time></trkpt>
<trkpt lat="46.18241" lon="7.29204"><ele></ele><time>2016-8-30T23:21:30Z</time></trkpt>
<trkpt lat="46.18237" lon="7.29208"><ele></ele><time>2016-8-30T23:21:33Z</time></trkpt>
<trkpt lat="46.18235" lon="7.29209"><ele></ele><time>2016-8-30T23:21:36Z</time></trkpt>
<trkpt lat="46.18233" lon="7.29211"><ele></ele><time>2016-8-30T23:21:39Z</time></trkpt>
<trkpt lat="46.18229" lon="7.29215"><ele></ele><time>2016-8-30T23:21:42Z</time></trkpt>
<trkpt lat="46.18224" lon="7.29218"><ele></ele><time>2016-8-30T23:21:45Z</time></trkpt>
<trkpt lat="46.18222" lon="7.2922"><ele></ele><time>2016-8-30T23:21:48Z</time></trkpt>
<trkpt lat="46.18222" lon="7.29219"><ele></ele><time>2016-8-30T23:21:51Z</time></trkpt>
<trkpt lat="46.18221" lon="7.29216"><ele></ele><time>2016-8-30T23:21:54Z</time></trkpt>
<trkpt lat="46.1822" lon="7.29213"><ele></ele><time>2016-8-30T23:21:57Z</time></trkpt>
<trkpt lat="46.18219" lon="7.2921"><ele></ele><time>2016-8-30T23:22:0Z</time></trkpt>
<trkpt lat="46.18218" lon="7.29207"><ele></ele><time>2016-8-30T23:22:3Z</time></trkpt>
<trkpt lat="46.18217" lon="7.29205"><ele></ele><time>2016-8-30T23:22:6Z</time></trkpt>
<trkpt lat="46.18218" lon="7.29205"><ele></ele><time>2016-8-30T23:22:9Z</time></trkpt>
<trkpt lat="46.18221" lon="7.29205"><ele></ele><time>2016-8-30T23:22:12Z</time></trkpt>
<trkpt lat="46.18222" lon="7.29209"><ele></ele><time>2016-8-30T23:22:15Z</time></trkpt>
<trkpt lat="46.18223" lon="7.29211"><ele></ele><time>2016-8-30T23:22:18Z</time></trkpt>
<trkpt lat="46.18223" lon="7.29212"><ele></ele><time>2016-8-30T23:22:21Z</time></trkpt>
<trkpt lat="46.18223" lon="7.29212"><ele></ele><time>2016-8-30T23:22:24Z</time></trkpt>
<trkpt lat="46.18223" lon="7.29212"><ele></ele><time>2016-8-30T23:22:27Z</time></trkpt>
<trkpt lat="46.18223" lon="7.29212"><ele></ele><time>2016-8-30T23:22:30Z</time></trkpt>
<trkpt lat="46.18225" lon="7.29227"><ele></ele><time>2016-8-30T23:22:33Z</time></trkpt>
<trkpt lat="46.18226" lon="7.29227"><ele></ele><time>2016-8-30T23:22:36Z</time></trkpt>
<trkpt lat="46.18227" lon="7.29228"><ele></ele><time>2016-8-30T23:22:39Z</time></trkpt>
<trkpt lat="46.18227" lon="7.29228"><ele></ele><time>2016-8-30T23:22:42Z</time></trkpt>
<trkpt lat="46.18228" lon="7.29228"><ele></ele><time>2016-8-30T23:22:45Z</time></trkpt>
<trkpt lat="46.18228" lon="7.29228"><ele></ele><time>2016-8-30T23:22:48Z</time></trkpt>
<trkpt lat="46.18229" lon="7.29227"><ele></ele><time>2016-8-30T23:22:51Z</time></trkpt>
<trkpt lat="46.18231" lon="7.29224"><ele></ele><time>2016-8-30T23:22:54Z</time></trkpt>
<trkpt lat="46.18233" lon="7.29222"><ele></ele><time>2016-8-30T23:22:57Z</time></trkpt>
<trkpt lat="46.18235" lon="7.29219"><ele></ele><time>2016-8-30T23:23:0Z</time></trkpt>
<trkpt lat="46.18237" lon="7.29216"><ele></ele><time>2016-8-30T23:23:3Z</time></trkpt>
<trkpt lat="46.18239" lon="7.29213"><ele></ele><time>2016-8-30T23:23:6Z</time></trkpt>
<trkpt lat="46.18241" lon="7.29211"><ele></ele><time>2016-8-30T23:23:9Z</time></trkpt>
<trkpt lat="46.18243" lon="7.29208"><ele></ele><time>2016-8-30T23:23:12Z</time></trkpt>
<trkpt lat="46.18245" lon="7.29205"><ele></ele><time>2016-8-30T23:23:15Z</time></trkpt>
<trkpt lat="46.18247" lon="7.29203"><ele></ele><time>2016-8-30T23:23:18Z</time></trkpt>
<trkpt lat="46.18249" lon="7.292"><ele></ele><time>2016-8-30T23:23:21Z</time></trkpt>
<trkpt lat="46.1825" lon="7.29198"><ele></ele><time>2016-8-30T23:23:24Z</time></trkpt>
<trkpt lat="46.18252" lon="7.29201"><ele></ele><time>2016-8-30T23:23:27Z</time></trkpt>
<trkpt lat="46.18255" lon="7.29207"><ele></ele><time>2016-8-30T23:23:30Z</time></trkpt>
<trkpt lat="46.18257" lon="7.29213"><ele></ele><time>2016-8-30T23:23:33Z</time></trkpt>
<trkpt lat="46.1826" lon="7.29219"><ele></ele><time>2016-8-30T23:23:36Z</time></trkpt>
<trkpt lat="46.18261" lon="7.29231"><ele></ele><time>2016-8-30T23:23:39Z</time></trkpt>
<trkpt lat="46.18262" lon="7.29244"><ele></ele><time>2016-8-30T23:23:42Z</time></trkpt>
<trkpt lat="46.18263" lon="7.29256"><ele></ele><time>2016-8-30T23:23:45Z</time></trkpt>
<trkpt lat="46.18264" lon="7.29269"><ele></ele><time>2016-8-30T23:23:48Z</time></trkpt>
<trkpt lat="46.18265" lon="7.29281"><ele></ele><time>2016-8-30T23:23:51Z</time></trkpt>
<trkpt lat="46.18265" lon="7.29287"><ele></ele><time>2016-8-30T23:23:54Z</time></trkpt>
<trkpt lat="46.18267" lon="7.29295"><ele></ele><time>2016-8-30T23:23:57Z</time></trkpt>
<trkpt lat="46.1827" lon="7.29311"><ele></ele><time>2016-8-30T23:24:0Z</time></trkpt>
<trkpt lat="46.18273" lon="7.29327"><ele></ele><time>2016-8-30T23:24:3Z</time></trkpt>
<trkpt lat="46.18274" lon="7.29335"><ele></ele><time>2016-8-30T23:24:6Z</time></trkpt>
<trkpt lat="46.18277" lon="7.29341"><ele></ele><time>2016-8-30T23:24:9Z</time></trkpt>
<trkpt lat="46.18283" lon="7.29354"><ele></ele><time>2016-8-30T23:24:12Z</time></trkpt>
<trkpt lat="46.18286" lon="7.2936"><ele></ele><time>2016-8-30T23:24:15Z</time></trkpt>
<trkpt lat="46.18287" lon="7.29368"><ele></ele><time>2016-8-30T23:24:18Z</time></trkpt>
<trkpt lat="46.1829" lon="7.29383"><ele></ele><time>2016-8-30T23:24:21Z</time></trkpt>
<trkpt lat="46.18293" lon="7.29398"><ele></ele><time>2016-8-30T23:24:24Z</time></trkpt>
<trkpt lat="46.18292" lon="7.29411"><ele></ele><time>2016-8-30T23:24:27Z</time></trkpt>
<trkpt lat="46.18291" lon="7.29423"><ele></ele><time>2016-8-30T23:24:30Z</time></trkpt>
<trkpt lat="46.18298" lon="7.29436"><ele></ele><time>2016-8-30T23:24:33Z</time></trkpt>
<trkpt lat="46.18304" lon="7.2945"><ele></ele><time>2016-8-30T23:24:36Z</time></trkpt>
<trkpt lat="46.18305" lon="7.29466"><ele></ele><time>2016-8-30T23:24:39Z</time></trkpt>
<trkpt lat="46.18306" lon="7.29482"><ele></ele><time>2016-8-30T23:24:42Z</time></trkpt>
<trkpt lat="46.18307" lon="7.2949"><ele></ele><time>2016-8-30T23:24:45Z</time></trkpt>
<trkpt lat="46.18305" lon="7.29494"><ele></ele><time>2016-8-30T23:24:48Z</time></trkpt>
<trkpt lat="46.183" lon="7.29502"><ele></ele><time>2016-8-30T23:24:51Z</time></trkpt>
<trkpt lat="46.18295" lon="7.2951"><ele></ele><time>2016-8-30T23:24:54Z</time></trkpt>
<trkpt lat="46.18291" lon="7.29518"><ele></ele><time>2016-8-30T23:24:57Z</time></trkpt>
<trkpt lat="46.18286" lon="7.29526"><ele></ele><time>2016-8-30T23:25:0Z</time></trkpt>
<trkpt lat="46.18284" lon="7.29531"><ele></ele><time>2016-8-30T23:25:3Z</time></trkpt>
<trkpt lat="46.18281" lon="7.29531"><ele></ele><time>2016-8-30T23:25:6Z</time></trkpt>
<trkpt lat="46.18277" lon="7.29531"><ele></ele><time>2016-8-30T23:25:9Z</time></trkpt>
<trkpt lat="46.18274" lon="7.29532"><ele></ele><time>2016-8-30T23:25:12Z</time></trkpt>
<trkpt lat="46.18267" lon="7.29532"><ele></ele><time>2016-8-30T23:25:15Z</time></trkpt>
<trkpt lat="46.1826" lon="7.29533"><ele></ele><time>2016-8-30T23:25:18Z</time></trkpt>
<trkpt lat="46.18257" lon="7.29533"><ele></ele><time>2016-8-30T23:25:21Z</time></trkpt>
<trkpt lat="46.18255" lon="7.29531"><ele></ele><time>2016-8-30T23:25:24Z</time></trkpt>
<trkpt lat="46.1825" lon="7.29527"><ele></ele><time>2016-8-30T23:25:27Z</time></trkpt>
<trkpt lat="46.18246" lon="7.29522"><ele></ele><time>2016-8-30T23:25:30Z</time></trkpt>
<trkpt lat="46.18242" lon="7.29517"><ele></ele><time>2016-8-30T23:25:33Z</time></trkpt>
<trkpt lat="46.18237" lon="7.29513"><ele></ele><time>2016-8-30T23:25:36Z</time></trkpt>
<trkpt lat="46.18235" lon="7.29511"><ele></ele><time>2016-8-30T23:25:39Z</time></trkpt>
<trkpt lat="46.18233" lon="7.29508"><ele></ele><time>2016-8-30T23:25:42Z</time></trkpt>
<trkpt lat="46.18228" lon="7.29504"><ele></ele><time>2016-8-30T23:25:45Z</time></trkpt>
<trkpt lat="46.18224" lon="7.29499"><ele></ele><time>2016-8-30T23:25:48Z</time></trkpt>
<trkpt lat="46.1822" lon="7.29495"><ele></ele><time>2016-8-30T23:25:51Z</time></trkpt>
<trkpt lat="46.18215" lon="7.29492"><ele></ele><time>2016-8-30T23:25:54Z</time></trkpt>
<trkpt lat="46.18211" lon="7.29489"><ele></ele><time>2016-8-30T23:25:57Z</time></trkpt>
<trkpt lat="46.18207" lon="7.29486"><ele></ele><time>2016-8-30T23:26:0Z</time></trkpt>
<trkpt lat="46.18203" lon="7.29483"><ele></ele><time>2016-8-30T23:26:3Z</time></trkpt>
<trkpt lat="46.18199" lon="7.2948"><ele></ele><time>2016-8-30T23:26:6Z</time></trkpt>
<trkpt lat="46.18195" lon="7.29477"><ele></ele><time>2016-8-30T23:26:9Z</time></trkpt>
<trkpt lat="46.18191" lon="7.29474"><ele></ele><time>2016-8-30T23:26:12Z</time></trkpt>
<trkpt lat="46.18187" lon="7.29471"><ele></ele><time>2016-8-30T23:26:15Z</time></trkpt>
<trkpt lat="46.18183" lon="7.29468"><ele></ele><time>2016-8-30T23:26:18Z</time></trkpt>
<trkpt lat="46.18179" lon="7.29465"><ele></ele><time>2016-8-30T23:26:21Z</time></trkpt>
<trkpt lat="46.18177" lon="7.29464"><ele></ele><time>2016-8-30T23:26:24Z</time></trkpt>
<trkpt lat="46.18175" lon="7.29464"><ele></ele><time>2016-8-30T23:26:27Z</time></trkpt>
<trkpt lat="46.18172" lon="7.29463"><ele></ele><time>2016-8-30T23:26:30Z</time></trkpt>
<trkpt lat="46.18169" lon="7.29462"><ele></ele><time>2016-8-30T23:26:33Z</time></trkpt>
<trkpt lat="46.18165" lon="7.29461"><ele></ele><time>2016-8-30T23:26:36Z</time></trkpt>
<trkpt lat="46.18162" lon="7.29461"><ele></ele><time>2016-8-30T23:26:39Z</time></trkpt>
<trkpt lat="46.18158" lon="7.2946"><ele></ele><time>2016-8-30T23:26:42Z</time></trkpt>
<trkpt lat="46.18155" lon="7.29459"><ele></ele><time>2016-8-30T23:26:45Z</time></trkpt>
<trkpt lat="46.18152" lon="7.29458"><ele></ele><time>2016-8-30T23:26:48Z</time></trkpt>
<trkpt lat="46.18148" lon="7.29457"><ele></ele><time>2016-8-30T23:26:51Z</time></trkpt>
<trkpt lat="46.18145" lon="7.29456"><ele></ele><time>2016-8-30T23:26:54Z</time></trkpt>
<trkpt lat="46.18141" lon="7.29455"><ele></ele><time>2016-8-30T23:26:57Z</time></trkpt>
<trkpt lat="46.18138" lon="7.29455"><ele></ele><time>2016-8-30T23:27:0Z</time></trkpt>
<trkpt lat="46.18135" lon="7.29454"><ele></ele><time>2016-8-30T23:27:3Z</time></trkpt>
<trkpt lat="46.18133" lon="7.29453"><ele></ele><time>2016-8-30T23:27:6Z</time></trkpt>
<trkpt lat="46.18131" lon="7.29453"><ele></ele><time>2016-8-30T23:27:9Z</time></trkpt>
<trkpt lat="46.18126" lon="7.29454"><ele></ele><time>2016-8-30T23:27:12Z</time></trkpt>
<trkpt lat="46.18122" lon="7.29454"><ele></ele><time>2016-8-30T23:27:15Z</time></trkpt>
<trkpt lat="46.1812" lon="7.29455"><ele></ele><time>2016-8-30T23:27:18Z</time></trkpt>
<trkpt lat="46.18118" lon="7.29455"><ele></ele><time>2016-8-30T23:27:21Z</time></trkpt>
<trkpt lat="46.18113" lon="7.29455"><ele></ele><time>2016-8-30T23:27:24Z</time></trkpt>
<trkpt lat="46.18109" lon="7.29456"><ele></ele><time>2016-8-30T23:27:27Z</time></trkpt>
<trkpt lat="46.18107" lon="7.29456"><ele></ele><time>2016-8-30T23:27:30Z</time></trkpt>
<trkpt lat="46.18104" lon="7.29456"><ele></ele><time>2016-8-30T23:27:33Z</time></trkpt>
<trkpt lat="46.181" lon="7.29457"><ele></ele><time>2016-8-30T23:27:36Z</time></trkpt>
<trkpt lat="46.18096" lon="7.29457"><ele></ele><time>2016-8-30T23:27:39Z</time></trkpt>
<trkpt lat="46.18091" lon="7.29458"><ele></ele><time>2016-8-30T23:27:42Z</time></trkpt>
<trkpt lat="46.18087" lon="7.29458"><ele></ele><time>2016-8-30T23:27:45Z</time></trkpt>
<trkpt lat="46.18082" lon="7.2946"><ele></ele><time>2016-8-30T23:27:48Z</time></trkpt>
<trkpt lat="46.18078" lon="7.29462"><ele></ele><time>2016-8-30T23:27:51Z</time></trkpt>
<trkpt lat="46.18073" lon="7.29465"><ele></ele><time>2016-8-30T23:27:54Z</time></trkpt>
<trkpt lat="46.18068" lon="7.29467"><ele></ele><time>2016-8-30T23:27:57Z</time></trkpt>
<trkpt lat="46.18064" lon="7.29469"><ele></ele><time>2016-8-30T23:28:0Z</time></trkpt>
<trkpt lat="46.18059" lon="7.29471"><ele></ele><time>2016-8-30T23:28:3Z</time></trkpt>
<trkpt lat="46.18055" lon="7.29473"><ele></ele><time>2016-8-30T23:28:6Z</time></trkpt>
<trkpt lat="46.1805" lon="7.29475"><ele></ele><time>2016-8-30T23:28:9Z</time></trkpt>
<trkpt lat="46.18046" lon="7.29477"><ele></ele><time>2016-8-30T23:28:12Z</time></trkpt>
<trkpt lat="46.18043" lon="7.29478"><ele></ele><time>2016-8-30T23:28:15Z</time></trkpt>
<trkpt lat="46.18041" lon="7.29481"><ele></ele><time>2016-8-30T23:28:18Z</time></trkpt>
<trkpt lat="46.18038" lon="7.29485"><ele></ele><time>2016-8-30T23:28:21Z</time></trkpt>
<trkpt lat="46.18034" lon="7.29489"><ele></ele><time>2016-8-30T23:28:24Z</time></trkpt>
<trkpt lat="46.18032" lon="7.29491"><ele></ele><time>2016-8-30T23:28:27Z</time></trkpt>
<trkpt lat="46.1803" lon="7.29494"><ele></ele><time>2016-8-30T23:28:30Z</time></trkpt>
<trkpt lat="46.18027" lon="7.29498"><ele></ele><time>2016-8-30T23:28:33Z</time></trkpt>
<trkpt lat="46.18023" lon="7.29502"><ele></ele><time>2016-8-30T23:28:36Z</time></trkpt>
<trkpt lat="46.18019" lon="7.29507"><ele></ele><time>2016-8-30T23:28:39Z</time></trkpt>
<trkpt lat="46.18015" lon="7.29511"><ele></ele><time>2016-8-30T23:28:42Z</time></trkpt>
<trkpt lat="46.18008" lon="7.2952"><ele></ele><time>2016-8-30T23:28:45Z</time></trkpt>
<trkpt lat="46.17995" lon="7.29562"><ele></ele><time>2016-8-30T23:28:48Z</time></trkpt>
<trkpt lat="46.17996" lon="7.29588"><ele></ele><time>2016-8-30T23:28:51Z</time></trkpt>
<trkpt lat="46.17998" lon="7.29632"><ele></ele><time>2016-8-30T23:28:54Z</time></trkpt>
<trkpt lat="46.17996" lon="7.29683"><ele></ele><time>2016-8-30T23:28:57Z</time></trkpt>
<trkpt lat="46.17996" lon="7.29709"><ele></ele><time>2016-8-30T23:29:0Z</time></trkpt>
<trkpt lat="46.17993" lon="7.29736"><ele></ele><time>2016-8-30T23:29:3Z</time></trkpt>
<trkpt lat="46.17991" lon="7.29763"><ele></ele><time>2016-8-30T23:29:6Z</time></trkpt>
<trkpt lat="46.1799" lon="7.29777"><ele></ele><time>2016-8-30T23:29:9Z</time></trkpt>
<trkpt lat="46.17991" lon="7.2979"><ele></ele><time>2016-8-30T23:29:12Z</time></trkpt>
<trkpt lat="46.17992" lon="7.29815"><ele></ele><time>2016-8-30T23:29:15Z</time></trkpt>
<trkpt lat="46.17994" lon="7.29839"><ele></ele><time>2016-8-30T23:29:18Z</time></trkpt>
<trkpt lat="46.17995" lon="7.29852"><ele></ele><time>2016-8-30T23:29:21Z</time></trkpt>
<trkpt lat="46.17996" lon="7.29864"><ele></ele><time>2016-8-30T23:29:24Z</time></trkpt>
<trkpt lat="46.17998" lon="7.29888"><ele></ele><time>2016-8-30T23:29:27Z</time></trkpt>
<trkpt lat="46.18001" lon="7.29911"><ele></ele><time>2016-8-30T23:29:30Z</time></trkpt>
<trkpt lat="46.18002" lon="7.29923"><ele></ele><time>2016-8-30T23:29:33Z</time></trkpt>
<trkpt lat="46.18004" lon="7.29936"><ele></ele><time>2016-8-30T23:29:36Z</time></trkpt>
<trkpt lat="46.1801" lon="7.29962"><ele></ele><time>2016-8-30T23:29:39Z</time></trkpt>
<trkpt lat="46.18016" lon="7.29987"><ele></ele><time>2016-8-30T23:29:42Z</time></trkpt>
<trkpt lat="46.18024" lon="7.30016"><ele></ele><time>2016-8-30T23:29:45Z</time></trkpt>
<trkpt lat="46.18031" lon="7.30044"><ele></ele><time>2016-8-30T23:29:48Z</time></trkpt>
<trkpt lat="46.18034" lon="7.30061"><ele></ele><time>2016-8-30T23:29:51Z</time></trkpt>
<trkpt lat="46.18036" lon="7.30078"><ele></ele><time>2016-8-30T23:29:54Z</time></trkpt>
<trkpt lat="46.1804" lon="7.30112"><ele></ele><time>2016-8-30T23:29:57Z</time></trkpt>
<trkpt lat="46.18045" lon="7.3015"><ele></ele><time>2016-8-30T23:30:0Z</time></trkpt>
<trkpt lat="46.1805" lon="7.30187"><ele></ele><time>2016-8-30T23:30:3Z</time></trkpt>
<trkpt lat="46.18055" lon="7.30227"><ele></ele><time>2016-8-30T23:30:6Z</time></trkpt>
<trkpt lat="46.1806" lon="7.30267"><ele></ele><time>2016-8-30T23:30:9Z</time></trkpt>
<trkpt lat="46.18065" lon="7.3031"><ele></ele><time>2016-8-30T23:30:12Z</time></trkpt>
<trkpt lat="46.18067" lon="7.30332"><ele></ele><time>2016-8-30T23:30:15Z</time></trkpt>
<trkpt lat="46.18069" lon="7.3035"><ele></ele><time>2016-8-30T23:30:18Z</time></trkpt>
<trkpt lat="46.18073" lon="7.30385"><ele></ele><time>2016-8-30T23:30:21Z</time></trkpt>
<trkpt lat="46.18075" lon="7.30403"><ele></ele><time>2016-8-30T23:30:24Z</time></trkpt>
<trkpt lat="46.18078" lon="7.30417"><ele></ele><time>2016-8-30T23:30:27Z</time></trkpt>
<trkpt lat="46.18084" lon="7.30444"><ele></ele><time>2016-8-30T23:30:30Z</time></trkpt>
<trkpt lat="46.18088" lon="7.30457"><ele></ele><time>2016-8-30T23:30:33Z</time></trkpt>
<trkpt lat="46.18088" lon="7.30467"><ele></ele><time>2016-8-30T23:30:36Z</time></trkpt>
<trkpt lat="46.18088" lon="7.30487"><ele></ele><time>2016-8-30T23:30:39Z</time></trkpt>
<trkpt lat="46.18088" lon="7.30507"><ele></ele><time>2016-8-30T23:30:42Z</time></trkpt>
<trkpt lat="46.18089" lon="7.30527"><ele></ele><time>2016-8-30T23:30:45Z</time></trkpt>
<trkpt lat="46.18088" lon="7.30544"><ele></ele><time>2016-8-30T23:30:48Z</time></trkpt>
<trkpt lat="46.18087" lon="7.30561"><ele></ele><time>2016-8-30T23:30:51Z</time></trkpt>
<trkpt lat="46.18087" lon="7.30577"><ele></ele><time>2016-8-30T23:30:54Z</time></trkpt>
<trkpt lat="46.18086" lon="7.30594"><ele></ele><time>2016-8-30T23:30:57Z</time></trkpt>
<trkpt lat="46.18086" lon="7.30607"><ele></ele><time>2016-8-30T23:31:0Z</time></trkpt>
<trkpt lat="46.18086" lon="7.30613"><ele></ele><time>2016-8-30T23:31:3Z</time></trkpt>
<trkpt lat="46.18086" lon="7.3062"><ele></ele><time>2016-8-30T23:31:6Z</time></trkpt>
<trkpt lat="46.18086" lon="7.30632"><ele></ele><time>2016-8-30T23:31:9Z</time></trkpt>
<trkpt lat="46.18085" lon="7.30645"><ele></ele><time>2016-8-30T23:31:12Z</time></trkpt>
<trkpt lat="46.18085" lon="7.30652"><ele></ele><time>2016-8-30T23:31:15Z</time></trkpt>
<trkpt lat="46.18085" lon="7.30657"><ele></ele><time>2016-8-30T23:31:18Z</time></trkpt>
<trkpt lat="46.18083" lon="7.30666"><ele></ele><time>2016-8-30T23:31:21Z</time></trkpt>
<trkpt lat="46.18081" lon="7.30676"><ele></ele><time>2016-8-30T23:31:24Z</time></trkpt>
<trkpt lat="46.1808" lon="7.30685"><ele></ele><time>2016-8-30T23:31:27Z</time></trkpt>
<trkpt lat="46.18078" lon="7.30695"><ele></ele><time>2016-8-30T23:31:30Z</time></trkpt>
<trkpt lat="46.18077" lon="7.307"><ele></ele><time>2016-8-30T23:31:33Z</time></trkpt>
<trkpt lat="46.18076" lon="7.30704"><ele></ele><time>2016-8-30T23:31:36Z</time></trkpt>
<trkpt lat="46.18075" lon="7.30714"><ele></ele><time>2016-8-30T23:31:39Z</time></trkpt>
<trkpt lat="46.18074" lon="7.30719"><ele></ele><time>2016-8-30T23:31:42Z</time></trkpt>
<trkpt lat="46.18074" lon="7.30723"><ele></ele><time>2016-8-30T23:31:45Z</time></trkpt>
<trkpt lat="46.18074" lon="7.30728"><ele></ele><time>2016-8-30T23:31:48Z</time></trkpt>
<trkpt lat="46.18074" lon="7.30732"><ele></ele><time>2016-8-30T23:31:51Z</time></trkpt>
<trkpt lat="46.18073" lon="7.30742"><ele></ele><time>2016-8-30T23:31:54Z</time></trkpt>
<trkpt lat="46.18073" lon="7.30751"><ele></ele><time>2016-8-30T23:31:57Z</time></trkpt>
<trkpt lat="46.18072" lon="7.30787"><ele></ele><time>2016-8-30T23:32:0Z</time></trkpt>
<trkpt lat="46.18068" lon="7.30825"><ele></ele><time>2016-8-30T23:32:3Z</time></trkpt>
<trkpt lat="46.18066" lon="7.30841"><ele></ele><time>2016-8-30T23:32:6Z</time></trkpt>
<trkpt lat="46.18065" lon="7.30848"><ele></ele><time>2016-8-30T23:32:9Z</time></trkpt>
<trkpt lat="46.18064" lon="7.30852"><ele></ele><time>2016-8-30T23:32:12Z</time></trkpt>
<trkpt lat="46.18064" lon="7.30855"><ele></ele><time>2016-8-30T23:32:15Z</time></trkpt>
<trkpt lat="46.18062" lon="7.30861"><ele></ele><time>2016-8-30T23:32:18Z</time></trkpt>
<trkpt lat="46.18061" lon="7.30867"><ele></ele><time>2016-8-30T23:32:21Z</time></trkpt>
<trkpt lat="46.1806" lon="7.30873"><ele></ele><time>2016-8-30T23:32:24Z</time></trkpt>
<trkpt lat="46.18059" lon="7.30878"><ele></ele><time>2016-8-30T23:32:27Z</time></trkpt>
<trkpt lat="46.18058" lon="7.30881"><ele></ele><time>2016-8-30T23:32:30Z</time></trkpt>
<trkpt lat="46.18058" lon="7.30884"><ele></ele><time>2016-8-30T23:32:33Z</time></trkpt>
<trkpt lat="46.18057" lon="7.3089"><ele></ele><time>2016-8-30T23:32:36Z</time></trkpt>
<trkpt lat="46.18055" lon="7.30896"><ele></ele><time>2016-8-30T23:32:39Z</time></trkpt>
<trkpt lat="46.18054" lon="7.30902"><ele></ele><time>2016-8-30T23:32:42Z</time></trkpt>
<trkpt lat="46.18053" lon="7.30907"><ele></ele><time>2016-8-30T23:32:45Z</time></trkpt>
<trkpt lat="46.18052" lon="7.30913"><ele></ele><time>2016-8-30T23:32:48Z</time></trkpt>
<trkpt lat="46.18051" lon="7.30916"><ele></ele><time>2016-8-30T23:32:51Z</time></trkpt>
<trkpt lat="46.18051" lon="7.30919"><ele></ele><time>2016-8-30T23:32:54Z</time></trkpt>
<trkpt lat="46.18049" lon="7.30925"><ele></ele><time>2016-8-30T23:32:57Z</time></trkpt>
<trkpt lat="46.18048" lon="7.30928"><ele></ele><time>2016-8-30T23:33:0Z</time></trkpt>
<trkpt lat="46.18048" lon="7.3093"><ele></ele><time>2016-8-30T23:33:3Z</time></trkpt>
<trkpt lat="46.18046" lon="7.30936"><ele></ele><time>2016-8-30T23:33:6Z</time></trkpt>
<trkpt lat="46.18045" lon="7.30942"><ele></ele><time>2016-8-30T23:33:9Z</time></trkpt>
<trkpt lat="46.18043" lon="7.30948"><ele></ele><time>2016-8-30T23:33:12Z</time></trkpt>
<trkpt lat="46.18042" lon="7.30953"><ele></ele><time>2016-8-30T23:33:15Z</time></trkpt>
<trkpt lat="46.18041" lon="7.30959"><ele></ele><time>2016-8-30T23:33:18Z</time></trkpt>
<trkpt lat="46.18039" lon="7.30965"><ele></ele><time>2016-8-30T23:33:21Z</time></trkpt>
<trkpt lat="46.18038" lon="7.30971"><ele></ele><time>2016-8-30T23:33:24Z</time></trkpt>
<trkpt lat="46.18037" lon="7.30974"><ele></ele><time>2016-8-30T23:33:27Z</time></trkpt>
<trkpt lat="46.18036" lon="7.30977"><ele></ele><time>2016-8-30T23:33:30Z</time></trkpt>
<trkpt lat="46.18036" lon="7.30979"><ele></ele><time>2016-8-30T23:33:33Z</time></trkpt>
<trkpt lat="46.18034" lon="7.30982"><ele></ele><time>2016-8-30T23:33:36Z</time></trkpt>
<trkpt lat="46.18032" lon="7.30987"><ele></ele><time>2016-8-30T23:33:39Z</time></trkpt>
<trkpt lat="46.1803" lon="7.30992"><ele></ele><time>2016-8-30T23:33:42Z</time></trkpt>
<trkpt lat="46.18027" lon="7.30997"><ele></ele><time>2016-8-30T23:33:45Z</time></trkpt>
<trkpt lat="46.18025" lon="7.31002"><ele></ele><time>2016-8-30T23:33:48Z</time></trkpt>
<trkpt lat="46.18022" lon="7.31007"><ele></ele><time>2016-8-30T23:33:51Z</time></trkpt>
<trkpt lat="46.1802" lon="7.31012"><ele></ele><time>2016-8-30T23:33:54Z</time></trkpt>
<trkpt lat="46.18019" lon="7.31015"><ele></ele><time>2016-8-30T23:33:57Z</time></trkpt>
<trkpt lat="46.18017" lon="7.31017"><ele></ele><time>2016-8-30T23:34:0Z</time></trkpt>
<trkpt lat="46.18015" lon="7.31022"><ele></ele><time>2016-8-30T23:34:3Z</time></trkpt>
<trkpt lat="46.18013" lon="7.31027"><ele></ele><time>2016-8-30T23:34:6Z</time></trkpt>
<trkpt lat="46.1801" lon="7.31032"><ele></ele><time>2016-8-30T23:34:9Z</time></trkpt>
<trkpt lat="46.18009" lon="7.31035"><ele></ele><time>2016-8-30T23:34:12Z</time></trkpt>
<trkpt lat="46.18007" lon="7.31036"><ele></ele><time>2016-8-30T23:34:15Z</time></trkpt>
<trkpt lat="46.18004" lon="7.3104"><ele></ele><time>2016-8-30T23:34:18Z</time></trkpt>
<trkpt lat="46.18001" lon="7.31044"><ele></ele><time>2016-8-30T23:34:21Z</time></trkpt>
<trkpt lat="46.17998" lon="7.31047"><ele></ele><time>2016-8-30T23:34:24Z</time></trkpt>
<trkpt lat="46.17997" lon="7.31049"><ele></ele><time>2016-8-30T23:34:27Z</time></trkpt>
<trkpt lat="46.17995" lon="7.31051"><ele></ele><time>2016-8-30T23:34:30Z</time></trkpt>
<trkpt lat="46.17992" lon="7.31055"><ele></ele><time>2016-8-30T23:34:33Z</time></trkpt>
<trkpt lat="46.17989" lon="7.31058"><ele></ele><time>2016-8-30T23:34:36Z</time></trkpt>
<trkpt lat="46.17986" lon="7.31062"><ele></ele><time>2016-8-30T23:34:39Z</time></trkpt>
<trkpt lat="46.17983" lon="7.31066"><ele></ele><time>2016-8-30T23:34:42Z</time></trkpt>
<trkpt lat="46.17979" lon="7.31069"><ele></ele><time>2016-8-30T23:34:45Z</time></trkpt>
<trkpt lat="46.17976" lon="7.31073"><ele></ele><time>2016-8-30T23:34:48Z</time></trkpt>
<trkpt lat="46.17973" lon="7.31077"><ele></ele><time>2016-8-30T23:34:51Z</time></trkpt>
<trkpt lat="46.17972" lon="7.31081"><ele></ele><time>2016-8-30T23:34:54Z</time></trkpt>
<trkpt lat="46.17971" lon="7.31086"><ele></ele><time>2016-8-30T23:34:57Z</time></trkpt>
<trkpt lat="46.17969" lon="7.31091"><ele></ele><time>2016-8-30T23:35:0Z</time></trkpt>
<trkpt lat="46.17958" lon="7.31133"><ele></ele><time>2016-8-30T23:35:3Z</time></trkpt>
<trkpt lat="46.17957" lon="7.31138"><ele></ele><time>2016-8-30T23:35:6Z</time></trkpt>
<trkpt lat="46.17955" lon="7.31143"><ele></ele><time>2016-8-30T23:35:9Z</time></trkpt>
<trkpt lat="46.17954" lon="7.31147"><ele></ele><time>2016-8-30T23:35:12Z</time></trkpt>
<trkpt lat="46.17952" lon="7.31152"><ele></ele><time>2016-8-30T23:35:15Z</time></trkpt>
<trkpt lat="46.1795" lon="7.31156"><ele></ele><time>2016-8-30T23:35:18Z</time></trkpt>
<trkpt lat="46.17949" lon="7.31161"><ele></ele><time>2016-8-30T23:35:21Z</time></trkpt>
<trkpt lat="46.17947" lon="7.31166"><ele></ele><time>2016-8-30T23:35:24Z</time></trkpt>
<trkpt lat="46.17946" lon="7.3117"><ele></ele><time>2016-8-30T23:35:27Z</time></trkpt>
<trkpt lat="46.17944" lon="7.31175"><ele></ele><time>2016-8-30T23:35:30Z</time></trkpt>
<trkpt lat="46.17942" lon="7.3118"><ele></ele><time>2016-8-30T23:35:33Z</time></trkpt>
<trkpt lat="46.17941" lon="7.31184"><ele></ele><time>2016-8-30T23:35:36Z</time></trkpt>
<trkpt lat="46.17939" lon="7.31189"><ele></ele><time>2016-8-30T23:35:39Z</time></trkpt>
<trkpt lat="46.17938" lon="7.31193"><ele></ele><time>2016-8-30T23:35:42Z</time></trkpt>
<trkpt lat="46.17936" lon="7.31198"><ele></ele><time>2016-8-30T23:35:45Z</time></trkpt>
<trkpt lat="46.17933" lon="7.31203"><ele></ele><time>2016-8-30T23:35:48Z</time></trkpt>
<trkpt lat="46.17931" lon="7.31207"><ele></ele><time>2016-8-30T23:35:51Z</time></trkpt>
<trkpt lat="46.17928" lon="7.31211"><ele></ele><time>2016-8-30T23:35:54Z</time></trkpt>
<trkpt lat="46.17925" lon="7.31216"><ele></ele><time>2016-8-30T23:35:57Z</time></trkpt>
<trkpt lat="46.17923" lon="7.3122"><ele></ele><time>2016-8-30T23:36:0Z</time></trkpt>
<trkpt lat="46.17921" lon="7.31223"><ele></ele><time>2016-8-30T23:36:3Z</time></trkpt>
<trkpt lat="46.1792" lon="7.31225"><ele></ele><time>2016-8-30T23:36:6Z</time></trkpt>
<trkpt lat="46.17917" lon="7.31229"><ele></ele><time>2016-8-30T23:36:9Z</time></trkpt>
<trkpt lat="46.17915" lon="7.31234"><ele></ele><time>2016-8-30T23:36:12Z</time></trkpt>
<trkpt lat="46.17912" lon="7.31238"><ele></ele><time>2016-8-30T23:36:15Z</time></trkpt>
<trkpt lat="46.17909" lon="7.31243"><ele></ele><time>2016-8-30T23:36:18Z</time></trkpt>
<trkpt lat="46.17906" lon="7.31247"><ele></ele><time>2016-8-30T23:36:21Z</time></trkpt>
<trkpt lat="46.17903" lon="7.31249"><ele></ele><time>2016-8-30T23:36:24Z</time></trkpt>
<trkpt lat="46.17899" lon="7.31251"><ele></ele><time>2016-8-30T23:36:27Z</time></trkpt>
<trkpt lat="46.17896" lon="7.31253"><ele></ele><time>2016-8-30T23:36:30Z</time></trkpt>
<trkpt lat="46.17892" lon="7.31255"><ele></ele><time>2016-8-30T23:36:33Z</time></trkpt>
<trkpt lat="46.17888" lon="7.31257"><ele></ele><time>2016-8-30T23:36:36Z</time></trkpt>
<trkpt lat="46.17887" lon="7.31258"><ele></ele><time>2016-8-30T23:36:39Z</time></trkpt>
<trkpt lat="46.17885" lon="7.31259"><ele></ele><time>2016-8-30T23:36:42Z</time></trkpt>
<trkpt lat="46.17881" lon="7.31261"><ele></ele><time>2016-8-30T23:36:45Z</time></trkpt>
<trkpt lat="46.17878" lon="7.31263"><ele></ele><time>2016-8-30T23:36:48Z</time></trkpt>
<trkpt lat="46.17874" lon="7.31265"><ele></ele><time>2016-8-30T23:36:51Z</time></trkpt>
<trkpt lat="46.1787" lon="7.31267"><ele></ele><time>2016-8-30T23:36:54Z</time></trkpt>
<trkpt lat="46.17867" lon="7.31269"><ele></ele><time>2016-8-30T23:36:57Z</time></trkpt>
<trkpt lat="46.17863" lon="7.31273"><ele></ele><time>2016-8-30T23:37:0Z</time></trkpt>
<trkpt lat="46.1786" lon="7.31277"><ele></ele><time>2016-8-30T23:37:3Z</time></trkpt>
<trkpt lat="46.17857" lon="7.31282"><ele></ele><time>2016-8-30T23:37:6Z</time></trkpt>
<trkpt lat="46.17854" lon="7.31286"><ele></ele><time>2016-8-30T23:37:9Z</time></trkpt>
<trkpt lat="46.17851" lon="7.3129"><ele></ele><time>2016-8-30T23:37:12Z</time></trkpt>
<trkpt lat="46.17849" lon="7.31293"><ele></ele><time>2016-8-30T23:37:15Z</time></trkpt>
<trkpt lat="46.17847" lon="7.31295"><ele></ele><time>2016-8-30T23:37:18Z</time></trkpt>
<trkpt lat="46.17844" lon="7.31299"><ele></ele><time>2016-8-30T23:37:21Z</time></trkpt>
<trkpt lat="46.17841" lon="7.31303"><ele></ele><time>2016-8-30T23:37:24Z</time></trkpt>
<trkpt lat="46.17839" lon="7.31306"><ele></ele><time>2016-8-30T23:37:27Z</time></trkpt>
<trkpt lat="46.17838" lon="7.31308"><ele></ele><time>2016-8-30T23:37:30Z</time></trkpt>
<trkpt lat="46.17834" lon="7.31312"><ele></ele><time>2016-8-30T23:37:33Z</time></trkpt>
<trkpt lat="46.17833" lon="7.31314"><ele></ele><time>2016-8-30T23:37:36Z</time></trkpt>
<trkpt lat="46.17831" lon="7.31316"><ele></ele><time>2016-8-30T23:37:39Z</time></trkpt>
<trkpt lat="46.17827" lon="7.31319"><ele></ele><time>2016-8-30T23:37:42Z</time></trkpt>
<trkpt lat="46.17823" lon="7.31321"><ele></ele><time>2016-8-30T23:37:45Z</time></trkpt>
<trkpt lat="46.17819" lon="7.31324"><ele></ele><time>2016-8-30T23:37:48Z</time></trkpt>
<trkpt lat="46.17815" lon="7.31327"><ele></ele><time>2016-8-30T23:37:51Z</time></trkpt>
<trkpt lat="46.17811" lon="7.31329"><ele></ele><time>2016-8-30T23:37:54Z</time></trkpt>
<trkpt lat="46.17807" lon="7.31332"><ele></ele><time>2016-8-30T23:37:57Z</time></trkpt>
<trkpt lat="46.17803" lon="7.31335"><ele></ele><time>2016-8-30T23:38:0Z</time></trkpt>
<trkpt lat="46.17799" lon="7.31337"><ele></ele><time>2016-8-30T23:38:3Z</time></trkpt>
<trkpt lat="46.17795" lon="7.3134"><ele></ele><time>2016-8-30T23:38:6Z</time></trkpt>
<trkpt lat="46.17791" lon="7.31343"><ele></ele><time>2016-8-30T23:38:9Z</time></trkpt>
<trkpt lat="46.17788" lon="7.31345"><ele></ele><time>2016-8-30T23:38:12Z</time></trkpt>
<trkpt lat="46.17785" lon="7.31348"><ele></ele><time>2016-8-30T23:38:15Z</time></trkpt>
<trkpt lat="46.17782" lon="7.31351"><ele></ele><time>2016-8-30T23:38:18Z</time></trkpt>
<trkpt lat="46.17779" lon="7.31353"><ele></ele><time>2016-8-30T23:38:21Z</time></trkpt>
<trkpt lat="46.17776" lon="7.31356"><ele></ele><time>2016-8-30T23:38:24Z</time></trkpt>
<trkpt lat="46.17772" lon="7.31358"><ele></ele><time>2016-8-30T23:38:27Z</time></trkpt>
<trkpt lat="46.17769" lon="7.31361"><ele></ele><time>2016-8-30T23:38:30Z</time></trkpt>
<trkpt lat="46.17751" lon="7.31372"><ele></ele><time>2016-8-30T23:38:33Z</time></trkpt>
<trkpt lat="46.17751" lon="7.31372"><ele></ele><time>2016-8-30T23:38:36Z</time></trkpt>
<trkpt lat="46.17734" lon="7.31381"><ele></ele><time>2016-8-30T23:38:39Z</time></trkpt>
<trkpt lat="46.17728" lon="7.31386"><ele></ele><time>2016-8-30T23:38:42Z</time></trkpt>
<trkpt lat="46.17721" lon="7.31391"><ele></ele><time>2016-8-30T23:38:45Z</time></trkpt>
<trkpt lat="46.17715" lon="7.31396"><ele></ele><time>2016-8-30T23:38:48Z</time></trkpt>
<trkpt lat="46.17709" lon="7.31401"><ele></ele><time>2016-8-30T23:38:51Z</time></trkpt>
<trkpt lat="46.17699" lon="7.31408"><ele></ele><time>2016-8-30T23:38:54Z</time></trkpt>
<trkpt lat="46.1769" lon="7.31415"><ele></ele><time>2016-8-30T23:38:57Z</time></trkpt>
<trkpt lat="46.17685" lon="7.31418"><ele></ele><time>2016-8-30T23:39:0Z</time></trkpt>
<trkpt lat="46.1768" lon="7.31419"><ele></ele><time>2016-8-30T23:39:3Z</time></trkpt>
<trkpt lat="46.17671" lon="7.31419"><ele></ele><time>2016-8-30T23:39:6Z</time></trkpt>
<trkpt lat="46.17661" lon="7.3142"><ele></ele><time>2016-8-30T23:39:9Z</time></trkpt>
<trkpt lat="46.17652" lon="7.31421"><ele></ele><time>2016-8-30T23:39:12Z</time></trkpt>
<trkpt lat="46.17646" lon="7.3142"><ele></ele><time>2016-8-30T23:39:15Z</time></trkpt>
<trkpt lat="46.1764" lon="7.31419"><ele></ele><time>2016-8-30T23:39:18Z</time></trkpt>
<trkpt lat="46.17634" lon="7.31417"><ele></ele><time>2016-8-30T23:39:21Z</time></trkpt>
<trkpt lat="46.17627" lon="7.31419"><ele></ele><time>2016-8-30T23:39:24Z</time></trkpt>
<trkpt lat="46.1762" lon="7.31422"><ele></ele><time>2016-8-30T23:39:27Z</time></trkpt>
<trkpt lat="46.17612" lon="7.31424"><ele></ele><time>2016-8-30T23:39:30Z</time></trkpt>
<trkpt lat="46.17597" lon="7.31429"><ele></ele><time>2016-8-30T23:39:33Z</time></trkpt>
<trkpt lat="46.1759" lon="7.31432"><ele></ele><time>2016-8-30T23:39:36Z</time></trkpt>
<trkpt lat="46.17581" lon="7.31433"><ele></ele><time>2016-8-30T23:39:39Z</time></trkpt>
<trkpt lat="46.17564" lon="7.31437"><ele></ele><time>2016-8-30T23:39:42Z</time></trkpt>
<trkpt lat="46.17546" lon="7.31441"><ele></ele><time>2016-8-30T23:39:45Z</time></trkpt>
<trkpt lat="46.17537" lon="7.31442"><ele></ele><time>2016-8-30T23:39:48Z</time></trkpt>
<trkpt lat="46.17527" lon="7.31442"><ele></ele><time>2016-8-30T23:39:51Z</time></trkpt>
<trkpt lat="46.17508" lon="7.31442"><ele></ele><time>2016-8-30T23:39:54Z</time></trkpt>
<trkpt lat="46.17488" lon="7.31442"><ele></ele><time>2016-8-30T23:39:57Z</time></trkpt>
<trkpt lat="46.17478" lon="7.31443"><ele></ele><time>2016-8-30T23:40:0Z</time></trkpt>
<trkpt lat="46.17468" lon="7.31444"><ele></ele><time>2016-8-30T23:40:3Z</time></trkpt>
<trkpt lat="46.17447" lon="7.31446"><ele></ele><time>2016-8-30T23:40:6Z</time></trkpt>
<trkpt lat="46.17427" lon="7.31457"><ele></ele><time>2016-8-30T23:40:9Z</time></trkpt>
<trkpt lat="46.17417" lon="7.31463"><ele></ele><time>2016-8-30T23:40:12Z</time></trkpt>
<trkpt lat="46.17407" lon="7.31468"><ele></ele><time>2016-8-30T23:40:15Z</time></trkpt>
<trkpt lat="46.17384" lon="7.31473"><ele></ele><time>2016-8-30T23:40:18Z</time></trkpt>
<trkpt lat="46.1736" lon="7.31469"><ele></ele><time>2016-8-30T23:40:21Z</time></trkpt>
<trkpt lat="46.17349" lon="7.31467"><ele></ele><time>2016-8-30T23:40:24Z</time></trkpt>
<trkpt lat="46.17337" lon="7.31465"><ele></ele><time>2016-8-30T23:40:27Z</time></trkpt>
<trkpt lat="46.17315" lon="7.31473"><ele></ele><time>2016-8-30T23:40:30Z</time></trkpt>
<trkpt lat="46.17293" lon="7.31482"><ele></ele><time>2016-8-30T23:40:33Z</time></trkpt>
<trkpt lat="46.17281" lon="7.31482"><ele></ele><time>2016-8-30T23:40:36Z</time></trkpt>
<trkpt lat="46.17269" lon="7.31479"><ele></ele><time>2016-8-30T23:40:39Z</time></trkpt>
<trkpt lat="46.17245" lon="7.31473"><ele></ele><time>2016-8-30T23:40:42Z</time></trkpt>
<trkpt lat="46.17233" lon="7.3147"><ele></ele><time>2016-8-30T23:40:45Z</time></trkpt>
<trkpt lat="46.1722" lon="7.31468"><ele></ele><time>2016-8-30T23:40:48Z</time></trkpt>
<trkpt lat="46.17206" lon="7.31465"><ele></ele><time>2016-8-30T23:40:51Z</time></trkpt>
<trkpt lat="46.17193" lon="7.31463"><ele></ele><time>2016-8-30T23:40:54Z</time></trkpt>
<trkpt lat="46.17179" lon="7.3146"><ele></ele><time>2016-8-30T23:40:57Z</time></trkpt>
<trkpt lat="46.17167" lon="7.31458"><ele></ele><time>2016-8-30T23:41:0Z</time></trkpt>
<trkpt lat="46.17142" lon="7.31454"><ele></ele><time>2016-8-30T23:41:3Z</time></trkpt>
<trkpt lat="46.17129" lon="7.31452"><ele></ele><time>2016-8-30T23:41:6Z</time></trkpt>
<trkpt lat="46.17122" lon="7.31452"><ele></ele><time>2016-8-30T23:41:9Z</time></trkpt>
<trkpt lat="46.17115" lon="7.31452"><ele></ele><time>2016-8-30T23:41:12Z</time></trkpt>
<trkpt lat="46.17115" lon="7.31456"><ele></ele><time>2016-8-30T23:41:15Z</time></trkpt>
<trkpt lat="46.17117" lon="7.31462"><ele></ele><time>2016-8-30T23:41:18Z</time></trkpt>
<trkpt lat="46.17123" lon="7.31465"><ele></ele><time>2016-8-30T23:41:21Z</time></trkpt>
<trkpt lat="46.17136" lon="7.31471"><ele></ele><time>2016-8-30T23:41:24Z</time></trkpt>
<trkpt lat="46.1715" lon="7.31476"><ele></ele><time>2016-8-30T23:41:27Z</time></trkpt>
<trkpt lat="46.17166" lon="7.31491"><ele></ele><time>2016-8-30T23:41:30Z</time></trkpt>
<trkpt lat="46.17183" lon="7.31505"><ele></ele><time>2016-8-30T23:41:33Z</time></trkpt>
<trkpt lat="46.17191" lon="7.31513"><ele></ele><time>2016-8-30T23:41:36Z</time></trkpt>
<trkpt lat="46.17201" lon="7.31519"><ele></ele><time>2016-8-30T23:41:39Z</time></trkpt>
<trkpt lat="46.17211" lon="7.31524"><ele></ele><time>2016-8-30T23:41:42Z</time></trkpt>
<trkpt lat="46.17221" lon="7.3153"><ele></ele><time>2016-8-30T23:41:45Z</time></trkpt>
<trkpt lat="46.17232" lon="7.31536"><ele></ele><time>2016-8-30T23:41:48Z</time></trkpt>
<trkpt lat="46.17243" lon="7.31541"><ele></ele><time>2016-8-30T23:41:51Z</time></trkpt>
<trkpt lat="46.17266" lon="7.31549"><ele></ele><time>2016-8-30T23:41:54Z</time></trkpt>
<trkpt lat="46.17277" lon="7.31554"><ele></ele><time>2016-8-30T23:41:57Z</time></trkpt>
<trkpt lat="46.1729" lon="7.31558"><ele></ele><time>2016-8-30T23:42:0Z</time></trkpt>
<trkpt lat="46.17315" lon="7.31566"><ele></ele><time>2016-8-30T23:42:3Z</time></trkpt>
<trkpt lat="46.17327" lon="7.3157"><ele></ele><time>2016-8-30T23:42:6Z</time></trkpt>
<trkpt lat="46.17341" lon="7.31576"><ele></ele><time>2016-8-30T23:42:9Z</time></trkpt>
<trkpt lat="46.17368" lon="7.31587"><ele></ele><time>2016-8-30T23:42:12Z</time></trkpt>
<trkpt lat="46.17382" lon="7.31593"><ele></ele><time>2016-8-30T23:42:15Z</time></trkpt>
<trkpt lat="46.17397" lon="7.31599"><ele></ele><time>2016-8-30T23:42:18Z</time></trkpt>
<trkpt lat="46.17426" lon="7.3161"><ele></ele><time>2016-8-30T23:42:21Z</time></trkpt>
<trkpt lat="46.17456" lon="7.31616"><ele></ele><time>2016-8-30T23:42:24Z</time></trkpt>
<trkpt lat="46.17471" lon="7.31619"><ele></ele><time>2016-8-30T23:42:27Z</time></trkpt>
<trkpt lat="46.17487" lon="7.31623"><ele></ele><time>2016-8-30T23:42:30Z</time></trkpt>
<trkpt lat="46.17504" lon="7.31626"><ele></ele><time>2016-8-30T23:42:33Z</time></trkpt>
<trkpt lat="46.1752" lon="7.3163"><ele></ele><time>2016-8-30T23:42:36Z</time></trkpt>
<trkpt lat="46.17548" lon="7.3164"><ele></ele><time>2016-8-30T23:42:39Z</time></trkpt>
<trkpt lat="46.17562" lon="7.31645"><ele></ele><time>2016-8-30T23:42:42Z</time></trkpt>
<trkpt lat="46.17575" lon="7.31651"><ele></ele><time>2016-8-30T23:42:45Z</time></trkpt>
<trkpt lat="46.17588" lon="7.31658"><ele></ele><time>2016-8-30T23:42:48Z</time></trkpt>
<trkpt lat="46.17602" lon="7.31665"><ele></ele><time>2016-8-30T23:42:51Z</time></trkpt>
<trkpt lat="46.17615" lon="7.31672"><ele></ele><time>2016-8-30T23:42:54Z</time></trkpt>
<trkpt lat="46.17629" lon="7.31678"><ele></ele><time>2016-8-30T23:42:57Z</time></trkpt>
<trkpt lat="46.17657" lon="7.3169"><ele></ele><time>2016-8-30T23:43:0Z</time></trkpt>
<trkpt lat="46.17671" lon="7.31696"><ele></ele><time>2016-8-30T23:43:3Z</time></trkpt>
<trkpt lat="46.17686" lon="7.317"><ele></ele><time>2016-8-30T23:43:6Z</time></trkpt>
<trkpt lat="46.17718" lon="7.31706"><ele></ele><time>2016-8-30T23:43:9Z</time></trkpt>
<trkpt lat="46.17738" lon="7.31711"><ele></ele><time>2016-8-30T23:43:12Z</time></trkpt>
<trkpt lat="46.17758" lon="7.31717"><ele></ele><time>2016-8-30T23:43:15Z</time></trkpt>
<trkpt lat="46.17763" lon="7.3172"><ele></ele><time>2016-8-30T23:43:18Z</time></trkpt>
<trkpt lat="46.17761" lon="7.31724"><ele></ele><time>2016-8-30T23:43:21Z</time></trkpt>
<trkpt lat="46.17758" lon="7.31728"><ele></ele><time>2016-8-30T23:43:24Z</time></trkpt>
<trkpt lat="46.17752" lon="7.31729"><ele></ele><time>2016-8-30T23:43:27Z</time></trkpt>
<trkpt lat="46.17739" lon="7.3173"><ele></ele><time>2016-8-30T23:43:30Z</time></trkpt>
<trkpt lat="46.17726" lon="7.31732"><ele></ele><time>2016-8-30T23:43:33Z</time></trkpt>
<trkpt lat="46.17714" lon="7.31734"><ele></ele><time>2016-8-30T23:43:36Z</time></trkpt>
<trkpt lat="46.17708" lon="7.31735"><ele></ele><time>2016-8-30T23:43:39Z</time></trkpt>
<trkpt lat="46.17702" lon="7.31738"><ele></ele><time>2016-8-30T23:43:42Z</time></trkpt>
<trkpt lat="46.1769" lon="7.31744"><ele></ele><time>2016-8-30T23:43:45Z</time></trkpt>
<trkpt lat="46.17676" lon="7.31749"><ele></ele><time>2016-8-30T23:43:48Z</time></trkpt>
<trkpt lat="46.17661" lon="7.31753"><ele></ele><time>2016-8-30T23:43:51Z</time></trkpt>
<trkpt lat="46.17646" lon="7.31758"><ele></ele><time>2016-8-30T23:43:54Z</time></trkpt>
<trkpt lat="46.17639" lon="7.3176"><ele></ele><time>2016-8-30T23:43:57Z</time></trkpt>
<trkpt lat="46.1763" lon="7.31763"><ele></ele><time>2016-8-30T23:44:0Z</time></trkpt>
<trkpt lat="46.17611" lon="7.31768"><ele></ele><time>2016-8-30T23:44:3Z</time></trkpt>
<trkpt lat="46.17592" lon="7.3177"><ele></ele><time>2016-8-30T23:44:6Z</time></trkpt>
<trkpt lat="46.17572" lon="7.31773"><ele></ele><time>2016-8-30T23:44:9Z</time></trkpt>
<trkpt lat="46.17563" lon="7.31774"><ele></ele><time>2016-8-30T23:44:12Z</time></trkpt>
<trkpt lat="46.17557" lon="7.31776"><ele></ele><time>2016-8-30T23:44:15Z</time></trkpt>
<trkpt lat="46.17547" lon="7.3178"><ele></ele><time>2016-8-30T23:44:18Z</time></trkpt>
<trkpt lat="46.17542" lon="7.31782"><ele></ele><time>2016-8-30T23:44:21Z</time></trkpt>
<trkpt lat="46.17537" lon="7.31782"><ele></ele><time>2016-8-30T23:44:24Z</time></trkpt>
<trkpt lat="46.17531" lon="7.31782"><ele></ele><time>2016-8-30T23:44:27Z</time></trkpt>
<trkpt lat="46.17526" lon="7.31784"><ele></ele><time>2016-8-30T23:44:30Z</time></trkpt>
<trkpt lat="46.17521" lon="7.31787"><ele></ele><time>2016-8-30T23:44:33Z</time></trkpt>
<trkpt lat="46.17513" lon="7.31783"><ele></ele><time>2016-8-30T23:44:36Z</time></trkpt>
<trkpt lat="46.17499" lon="7.31776"><ele></ele><time>2016-8-30T23:44:39Z</time></trkpt>
<trkpt lat="46.17491" lon="7.31772"><ele></ele><time>2016-8-30T23:44:42Z</time></trkpt>
<trkpt lat="46.17484" lon="7.31768"><ele></ele><time>2016-8-30T23:44:45Z</time></trkpt>
<trkpt lat="46.17465" lon="7.31768"><ele></ele><time>2016-8-30T23:44:48Z</time></trkpt>
<trkpt lat="46.17455" lon="7.31768"><ele></ele><time>2016-8-30T23:44:51Z</time></trkpt>
<trkpt lat="46.17446" lon="7.31773"><ele></ele><time>2016-8-30T23:44:54Z</time></trkpt>
<trkpt lat="46.17438" lon="7.31783"><ele></ele><time>2016-8-30T23:44:57Z</time></trkpt>
<trkpt lat="46.1743" lon="7.31795"><ele></ele><time>2016-8-30T23:45:0Z</time></trkpt>
<trkpt lat="46.17414" lon="7.31818"><ele></ele><time>2016-8-30T23:45:3Z</time></trkpt>
<trkpt lat="46.17394" lon="7.31834"><ele></ele><time>2016-8-30T23:45:6Z</time></trkpt>
<trkpt lat="46.17373" lon="7.31849"><ele></ele><time>2016-8-30T23:45:9Z</time></trkpt>
<trkpt lat="46.17358" lon="7.31851"><ele></ele><time>2016-8-30T23:45:12Z</time></trkpt>
<trkpt lat="46.17347" lon="7.31843"><ele></ele><time>2016-8-30T23:45:15Z</time></trkpt>
<trkpt lat="46.17337" lon="7.31834"><ele></ele><time>2016-8-30T23:45:18Z</time></trkpt>
<trkpt lat="46.17327" lon="7.31826"><ele></ele><time>2016-8-30T23:45:21Z</time></trkpt>
<trkpt lat="46.17319" lon="7.31823"><ele></ele><time>2016-8-30T23:45:24Z</time></trkpt>
<trkpt lat="46.17311" lon="7.3182"><ele></ele><time>2016-8-30T23:45:27Z</time></trkpt>
<trkpt lat="46.17304" lon="7.31817"><ele></ele><time>2016-8-30T23:45:30Z</time></trkpt>
<trkpt lat="46.17296" lon="7.31814"><ele></ele><time>2016-8-30T23:45:33Z</time></trkpt>
<trkpt lat="46.17288" lon="7.31811"><ele></ele><time>2016-8-30T23:45:36Z</time></trkpt>
<trkpt lat="46.17281" lon="7.31809"><ele></ele><time>2016-8-30T23:45:39Z</time></trkpt>
<trkpt lat="46.17273" lon="7.3181"><ele></ele><time>2016-8-30T23:45:42Z</time></trkpt>
<trkpt lat="46.17265" lon="7.31811"><ele></ele><time>2016-8-30T23:45:45Z</time></trkpt>
<trkpt lat="46.17257" lon="7.31812"><ele></ele><time>2016-8-30T23:45:48Z</time></trkpt>
<trkpt lat="46.17249" lon="7.31814"><ele></ele><time>2016-8-30T23:45:51Z</time></trkpt>
<trkpt lat="46.17241" lon="7.31815"><ele></ele><time>2016-8-30T23:45:54Z</time></trkpt>
<trkpt lat="46.17237" lon="7.31816"><ele></ele><time>2016-8-30T23:45:57Z</time></trkpt>
<trkpt lat="46.17231" lon="7.3182"><ele></ele><time>2016-8-30T23:46:0Z</time></trkpt>
<trkpt lat="46.17219" lon="7.31828"><ele></ele><time>2016-8-30T23:46:3Z</time></trkpt>
<trkpt lat="46.17207" lon="7.31837"><ele></ele><time>2016-8-30T23:46:6Z</time></trkpt>
<trkpt lat="46.17194" lon="7.3184"><ele></ele><time>2016-8-30T23:46:9Z</time></trkpt>
<trkpt lat="46.17182" lon="7.31842"><ele></ele><time>2016-8-30T23:46:12Z</time></trkpt>
<trkpt lat="46.1717" lon="7.31844"><ele></ele><time>2016-8-30T23:46:15Z</time></trkpt>
<trkpt lat="46.17158" lon="7.31846"><ele></ele><time>2016-8-30T23:46:18Z</time></trkpt>
<trkpt lat="46.17147" lon="7.31847"><ele></ele><time>2016-8-30T23:46:21Z</time></trkpt>
<trkpt lat="46.17136" lon="7.31849"><ele></ele><time>2016-8-30T23:46:24Z</time></trkpt>
<trkpt lat="46.17125" lon="7.31851"><ele></ele><time>2016-8-30T23:46:27Z</time></trkpt>
<trkpt lat="46.17114" lon="7.31852"><ele></ele><time>2016-8-30T23:46:30Z</time></trkpt>
<trkpt lat="46.17108" lon="7.31853"><ele></ele><time>2016-8-30T23:46:33Z</time></trkpt>
<trkpt lat="46.17103" lon="7.31853"><ele></ele><time>2016-8-30T23:46:36Z</time></trkpt>
<trkpt lat="46.17091" lon="7.31853"><ele></ele><time>2016-8-30T23:46:39Z</time></trkpt>
<trkpt lat="46.17082" lon="7.31844"><ele></ele><time>2016-8-30T23:46:42Z</time></trkpt>
<trkpt lat="46.17073" lon="7.31835"><ele></ele><time>2016-8-30T23:46:45Z</time></trkpt>
<trkpt lat="46.17064" lon="7.31825"><ele></ele><time>2016-8-30T23:46:48Z</time></trkpt>
<trkpt lat="46.17055" lon="7.31816"><ele></ele><time>2016-8-30T23:46:51Z</time></trkpt>
<trkpt lat="46.17041" lon="7.31804"><ele></ele><time>2016-8-30T23:46:54Z</time></trkpt>
<trkpt lat="46.17028" lon="7.31793"><ele></ele><time>2016-8-30T23:46:57Z</time></trkpt>
<trkpt lat="46.17019" lon="7.31791"><ele></ele><time>2016-8-30T23:47:0Z</time></trkpt>
<trkpt lat="46.1701" lon="7.3179"><ele></ele><time>2016-8-30T23:47:3Z</time></trkpt>
<trkpt lat="46.17002" lon="7.31788"><ele></ele><time>2016-8-30T23:47:6Z</time></trkpt>
<trkpt lat="46.16993" lon="7.31792"><ele></ele><time>2016-8-30T23:47:9Z</time></trkpt>
<trkpt lat="46.1698" lon="7.31807"><ele></ele><time>2016-8-30T23:47:12Z</time></trkpt>
<trkpt lat="46.16968" lon="7.31822"><ele></ele><time>2016-8-30T23:47:15Z</time></trkpt>
<trkpt lat="46.16961" lon="7.3183"><ele></ele><time>2016-8-30T23:47:18Z</time></trkpt>
<trkpt lat="46.16953" lon="7.31832"><ele></ele><time>2016-8-30T23:47:21Z</time></trkpt>
<trkpt lat="46.16935" lon="7.31836"><ele></ele><time>2016-8-30T23:47:24Z</time></trkpt>
<trkpt lat="46.16918" lon="7.3184"><ele></ele><time>2016-8-30T23:47:27Z</time></trkpt>
<trkpt lat="46.16909" lon="7.31842"><ele></ele><time>2016-8-30T23:47:30Z</time></trkpt>
<trkpt lat="46.16901" lon="7.31843"><ele></ele><time>2016-8-30T23:47:33Z</time></trkpt>
<trkpt lat="46.16893" lon="7.31843"><ele></ele><time>2016-8-30T23:47:36Z</time></trkpt>
<trkpt lat="46.16886" lon="7.31844"><ele></ele><time>2016-8-30T23:47:39Z</time></trkpt>
<trkpt lat="46.1687" lon="7.31844"><ele></ele><time>2016-8-30T23:47:42Z</time></trkpt>
<trkpt lat="46.16862" lon="7.31844"><ele></ele><time>2016-8-30T23:47:45Z</time></trkpt>
<trkpt lat="46.16857" lon="7.31843"><ele></ele><time>2016-8-30T23:47:48Z</time></trkpt>
<trkpt lat="46.16846" lon="7.31839"><ele></ele><time>2016-8-30T23:47:51Z</time></trkpt>
<trkpt lat="46.16835" lon="7.31835"><ele></ele><time>2016-8-30T23:47:54Z</time></trkpt>
<trkpt lat="46.1683" lon="7.31833"><ele></ele><time>2016-8-30T23:47:57Z</time></trkpt>
<trkpt lat="46.16825" lon="7.31835"><ele></ele><time>2016-8-30T23:48:0Z</time></trkpt>
<trkpt lat="46.16819" lon="7.31837"><ele></ele><time>2016-8-30T23:48:3Z</time></trkpt>
<trkpt lat="46.16814" lon="7.31839"><ele></ele><time>2016-8-30T23:48:6Z</time></trkpt>
<trkpt lat="46.16803" lon="7.31843"><ele></ele><time>2016-8-30T23:48:9Z</time></trkpt>
<trkpt lat="46.16792" lon="7.31847"><ele></ele><time>2016-8-30T23:48:12Z</time></trkpt>
<trkpt lat="46.16786" lon="7.31844"><ele></ele><time>2016-8-30T23:48:15Z</time></trkpt>
<trkpt lat="46.16782" lon="7.31847"><ele></ele><time>2016-8-30T23:48:18Z</time></trkpt>
<trkpt lat="46.16774" lon="7.31853"><ele></ele><time>2016-8-30T23:48:21Z</time></trkpt>
<trkpt lat="46.16766" lon="7.31859"><ele></ele><time>2016-8-30T23:48:24Z</time></trkpt>
<trkpt lat="46.16758" lon="7.31866"><ele></ele><time>2016-8-30T23:48:27Z</time></trkpt>
<trkpt lat="46.1675" lon="7.31872"><ele></ele><time>2016-8-30T23:48:30Z</time></trkpt>
<trkpt lat="46.16746" lon="7.31875"><ele></ele><time>2016-8-30T23:48:33Z</time></trkpt>
<trkpt lat="46.16743" lon="7.31878"><ele></ele><time>2016-8-30T23:48:36Z</time></trkpt>
<trkpt lat="46.16737" lon="7.31884"><ele></ele><time>2016-8-30T23:48:39Z</time></trkpt>
<trkpt lat="46.1673" lon="7.31886"><ele></ele><time>2016-8-30T23:48:42Z</time></trkpt>
<trkpt lat="46.16727" lon="7.31888"><ele></ele><time>2016-8-30T23:48:45Z</time></trkpt>
<trkpt lat="46.16723" lon="7.31891"><ele></ele><time>2016-8-30T23:48:48Z</time></trkpt>
<trkpt lat="46.16718" lon="7.31894"><ele></ele><time>2016-8-30T23:48:51Z</time></trkpt>
<trkpt lat="46.16714" lon="7.31898"><ele></ele><time>2016-8-30T23:48:54Z</time></trkpt>
<trkpt lat="46.16709" lon="7.31901"><ele></ele><time>2016-8-30T23:48:57Z</time></trkpt>
<trkpt lat="46.16705" lon="7.31905"><ele></ele><time>2016-8-30T23:49:0Z</time></trkpt>
<trkpt lat="46.167" lon="7.31908"><ele></ele><time>2016-8-30T23:49:3Z</time></trkpt>
<trkpt lat="46.16696" lon="7.31912"><ele></ele><time>2016-8-30T23:49:6Z</time></trkpt>
<trkpt lat="46.16691" lon="7.31915"><ele></ele><time>2016-8-30T23:49:9Z</time></trkpt>
<trkpt lat="46.16689" lon="7.31917"><ele></ele><time>2016-8-30T23:49:12Z</time></trkpt>
<trkpt lat="46.16688" lon="7.31916"><ele></ele><time>2016-8-30T23:49:15Z</time></trkpt>
<trkpt lat="46.16685" lon="7.31915"><ele></ele><time>2016-8-30T23:49:18Z</time></trkpt>
<trkpt lat="46.16682" lon="7.31913"><ele></ele><time>2016-8-30T23:49:21Z</time></trkpt>
<trkpt lat="46.16681" lon="7.31912"><ele></ele><time>2016-8-30T23:49:24Z</time></trkpt>
<trkpt lat="46.16679" lon="7.31911"><ele></ele><time>2016-8-30T23:49:27Z</time></trkpt>
<trkpt lat="46.16676" lon="7.3191"><ele></ele><time>2016-8-30T23:49:30Z</time></trkpt>
<trkpt lat="46.16674" lon="7.31908"><ele></ele><time>2016-8-30T23:49:33Z</time></trkpt>
<trkpt lat="46.16671" lon="7.31906"><ele></ele><time>2016-8-30T23:49:36Z</time></trkpt>
<trkpt lat="46.16668" lon="7.31905"><ele></ele><time>2016-8-30T23:49:39Z</time></trkpt>
<trkpt lat="46.16665" lon="7.31903"><ele></ele><time>2016-8-30T23:49:42Z</time></trkpt>
<trkpt lat="46.16662" lon="7.31901"><ele></ele><time>2016-8-30T23:49:45Z</time></trkpt>
<trkpt lat="46.1666" lon="7.319"><ele></ele><time>2016-8-30T23:49:48Z</time></trkpt>
<trkpt lat="46.16658" lon="7.31899"><ele></ele><time>2016-8-30T23:49:51Z</time></trkpt>
<trkpt lat="46.16657" lon="7.31898"><ele></ele><time>2016-8-30T23:49:54Z</time></trkpt>
<trkpt lat="46.16654" lon="7.31896"><ele></ele><time>2016-8-30T23:49:57Z</time></trkpt>
<trkpt lat="46.16651" lon="7.31895"><ele></ele><time>2016-8-30T23:50:0Z</time></trkpt>
<trkpt lat="46.16648" lon="7.31893"><ele></ele><time>2016-8-30T23:50:3Z</time></trkpt>
<trkpt lat="46.16647" lon="7.31892"><ele></ele><time>2016-8-30T23:50:6Z</time></trkpt>
<trkpt lat="46.16646" lon="7.31892"><ele></ele><time>2016-8-30T23:50:9Z</time></trkpt>
<trkpt lat="46.16643" lon="7.31892"><ele></ele><time>2016-8-30T23:50:12Z</time></trkpt>
<trkpt lat="46.1664" lon="7.31891"><ele></ele><time>2016-8-30T23:50:15Z</time></trkpt>
<trkpt lat="46.16637" lon="7.31891"><ele></ele><time>2016-8-30T23:50:18Z</time></trkpt>
<trkpt lat="46.16635" lon="7.31891"><ele></ele><time>2016-8-30T23:50:21Z</time></trkpt>
<trkpt lat="46.16632" lon="7.31891"><ele></ele><time>2016-8-30T23:50:24Z</time></trkpt>
<trkpt lat="46.16629" lon="7.3189"><ele></ele><time>2016-8-30T23:50:27Z</time></trkpt>
<trkpt lat="46.16626" lon="7.3189"><ele></ele><time>2016-8-30T23:50:30Z</time></trkpt>
<trkpt lat="46.16624" lon="7.3189"><ele></ele><time>2016-8-30T23:50:33Z</time></trkpt>
<trkpt lat="46.16621" lon="7.31889"><ele></ele><time>2016-8-30T23:50:36Z</time></trkpt>
<trkpt lat="46.1662" lon="7.31889"><ele></ele><time>2016-8-30T23:50:39Z</time></trkpt>
<trkpt lat="46.16618" lon="7.31889"><ele></ele><time>2016-8-30T23:50:42Z</time></trkpt>
<trkpt lat="46.16617" lon="7.31889"><ele></ele><time>2016-8-30T23:50:45Z</time></trkpt>
<trkpt lat="46.16616" lon="7.31891"><ele></ele><time>2016-8-30T23:50:48Z</time></trkpt>
<trkpt lat="46.16616" lon="7.31894"><ele></ele><time>2016-8-30T23:50:51Z</time></trkpt>
<trkpt lat="46.16615" lon="7.31898"><ele></ele><time>2016-8-30T23:50:54Z</time></trkpt>
<trkpt lat="46.16615" lon="7.31902"><ele></ele><time>2016-8-30T23:50:57Z</time></trkpt>
<trkpt lat="46.16614" lon="7.31905"><ele></ele><time>2016-8-30T23:51:0Z</time></trkpt>
<trkpt lat="46.16613" lon="7.31909"><ele></ele><time>2016-8-30T23:51:3Z</time></trkpt>
<trkpt lat="46.16613" lon="7.31913"><ele></ele><time>2016-8-30T23:51:6Z</time></trkpt>
<trkpt lat="46.16613" lon="7.31915"><ele></ele><time>2016-8-30T23:51:9Z</time></trkpt>
<trkpt lat="46.16613" lon="7.31916"><ele></ele><time>2016-8-30T23:51:12Z</time></trkpt>
<trkpt lat="46.16614" lon="7.31919"><ele></ele><time>2016-8-30T23:51:15Z</time></trkpt>
<trkpt lat="46.16615" lon="7.31922"><ele></ele><time>2016-8-30T23:51:18Z</time></trkpt>
<trkpt lat="46.16617" lon="7.31925"><ele></ele><time>2016-8-30T23:51:21Z</time></trkpt>
<trkpt lat="46.16618" lon="7.31928"><ele></ele><time>2016-8-30T23:51:24Z</time></trkpt>
<trkpt lat="46.16619" lon="7.31931"><ele></ele><time>2016-8-30T23:51:27Z</time></trkpt>
<trkpt lat="46.1662" lon="7.31933"><ele></ele><time>2016-8-30T23:51:30Z</time></trkpt>
<trkpt lat="46.1662" lon="7.31934"><ele></ele><time>2016-8-30T23:51:33Z</time></trkpt>
<trkpt lat="46.16621" lon="7.31937"><ele></ele><time>2016-8-30T23:51:36Z</time></trkpt>
<trkpt lat="46.16622" lon="7.3194"><ele></ele><time>2016-8-30T23:51:39Z</time></trkpt>
<trkpt lat="46.16624" lon="7.31943"><ele></ele><time>2016-8-30T23:51:42Z</time></trkpt>
<trkpt lat="46.16625" lon="7.31946"><ele></ele><time>2016-8-30T23:51:45Z</time></trkpt>
<trkpt lat="46.16626" lon="7.31949"><ele></ele><time>2016-8-30T23:51:48Z</time></trkpt>
<trkpt lat="46.16627" lon="7.31952"><ele></ele><time>2016-8-30T23:51:51Z</time></trkpt>
<trkpt lat="46.16628" lon="7.31955"><ele></ele><time>2016-8-30T23:51:54Z</time></trkpt>
<trkpt lat="46.1663" lon="7.31959"><ele></ele><time>2016-8-30T23:51:57Z</time></trkpt>
<trkpt lat="46.16631" lon="7.31962"><ele></ele><time>2016-8-30T23:52:0Z</time></trkpt>
<trkpt lat="46.16632" lon="7.31965"><ele></ele><time>2016-8-30T23:52:3Z</time></trkpt>
<trkpt lat="46.16633" lon="7.31968"><ele></ele><time>2016-8-30T23:52:6Z</time></trkpt>
<trkpt lat="46.16634" lon="7.31971"><ele></ele><time>2016-8-30T23:52:9Z</time></trkpt>
<trkpt lat="46.16635" lon="7.31972"><ele></ele><time>2016-8-30T23:52:12Z</time></trkpt>
<trkpt lat="46.16637" lon="7.31974"><ele></ele><time>2016-8-30T23:52:15Z</time></trkpt>
<trkpt lat="46.1664" lon="7.31979"><ele></ele><time>2016-8-30T23:52:18Z</time></trkpt>
<trkpt lat="46.16644" lon="7.31984"><ele></ele><time>2016-8-30T23:52:21Z</time></trkpt>
<trkpt lat="46.16648" lon="7.31989"><ele></ele><time>2016-8-30T23:52:24Z</time></trkpt>
<trkpt lat="46.1665" lon="7.31991"><ele></ele><time>2016-8-30T23:52:27Z</time></trkpt>
<trkpt lat="46.16657" lon="7.31995"><ele></ele><time>2016-8-30T23:52:30Z</time></trkpt>
<trkpt lat="46.16672" lon="7.32002"><ele></ele><time>2016-8-30T23:52:33Z</time></trkpt>
<trkpt lat="46.16687" lon="7.32009"><ele></ele><time>2016-8-30T23:52:36Z</time></trkpt>
<trkpt lat="46.16706" lon="7.32011"><ele></ele><time>2016-8-30T23:52:39Z</time></trkpt>
<trkpt lat="46.16725" lon="7.32013"><ele></ele><time>2016-8-30T23:52:42Z</time></trkpt>
<trkpt lat="46.16734" lon="7.32009"><ele></ele><time>2016-8-30T23:52:45Z</time></trkpt>
<trkpt lat="46.16743" lon="7.32004"><ele></ele><time>2016-8-30T23:52:48Z</time></trkpt>
<trkpt lat="46.16753" lon="7.31998"><ele></ele><time>2016-8-30T23:52:51Z</time></trkpt>
<trkpt lat="46.1676" lon="7.31993"><ele></ele><time>2016-8-30T23:52:54Z</time></trkpt>
<trkpt lat="46.16776" lon="7.31981"><ele></ele><time>2016-8-30T23:52:57Z</time></trkpt>
<trkpt lat="46.16783" lon="7.31976"><ele></ele><time>2016-8-30T23:53:0Z</time></trkpt>
<trkpt lat="46.16793" lon="7.31972"><ele></ele><time>2016-8-30T23:53:3Z</time></trkpt>
<trkpt lat="46.16805" lon="7.31972"><ele></ele><time>2016-8-30T23:53:6Z</time></trkpt>
<trkpt lat="46.16816" lon="7.31978"><ele></ele><time>2016-8-30T23:53:9Z</time></trkpt>
<trkpt lat="46.16837" lon="7.32"><ele></ele><time>2016-8-30T23:53:12Z</time></trkpt>
<trkpt lat="46.16858" lon="7.32022"><ele></ele><time>2016-8-30T23:53:15Z</time></trkpt>
<trkpt lat="46.16876" lon="7.32051"><ele></ele><time>2016-8-30T23:53:18Z</time></trkpt>
<trkpt lat="46.16895" lon="7.32079"><ele></ele><time>2016-8-30T23:53:21Z</time></trkpt>
<trkpt lat="46.16915" lon="7.32109"><ele></ele><time>2016-8-30T23:53:24Z</time></trkpt>
<trkpt lat="46.16936" lon="7.32139"><ele></ele><time>2016-8-30T23:53:27Z</time></trkpt>
<trkpt lat="46.16943" lon="7.32154"><ele></ele><time>2016-8-30T23:53:30Z</time></trkpt>
<trkpt lat="46.16945" lon="7.32166"><ele></ele><time>2016-8-30T23:53:33Z</time></trkpt>
<trkpt lat="46.16948" lon="7.3219"><ele></ele><time>2016-8-30T23:53:36Z</time></trkpt>
<trkpt lat="46.16951" lon="7.32213"><ele></ele><time>2016-8-30T23:53:39Z</time></trkpt>
<trkpt lat="46.16953" lon="7.32225"><ele></ele><time>2016-8-30T23:53:42Z</time></trkpt>
<trkpt lat="46.16954" lon="7.32228"><ele></ele><time>2016-8-30T23:53:45Z</time></trkpt>
<trkpt lat="46.16957" lon="7.32233"><ele></ele><time>2016-8-30T23:53:48Z</time></trkpt>
<trkpt lat="46.16961" lon="7.32237"><ele></ele><time>2016-8-30T23:53:51Z</time></trkpt>
<trkpt lat="46.16964" lon="7.32242"><ele></ele><time>2016-8-30T23:53:54Z</time></trkpt>
<trkpt lat="46.16967" lon="7.32246"><ele></ele><time>2016-8-30T23:53:57Z</time></trkpt>
<trkpt lat="46.1697" lon="7.32251"><ele></ele><time>2016-8-30T23:54:0Z</time></trkpt>
<trkpt lat="46.16973" lon="7.32255"><ele></ele><time>2016-8-30T23:54:3Z</time></trkpt>
<trkpt lat="46.16976" lon="7.3226"><ele></ele><time>2016-8-30T23:54:6Z</time></trkpt>
<trkpt lat="46.16979" lon="7.32264"><ele></ele><time>2016-8-30T23:54:9Z</time></trkpt>
<trkpt lat="46.16982" lon="7.32268"><ele></ele><time>2016-8-30T23:54:12Z</time></trkpt>
<trkpt lat="46.16985" lon="7.32273"><ele></ele><time>2016-8-30T23:54:15Z</time></trkpt>
<trkpt lat="46.16986" lon="7.32275"><ele></ele><time>2016-8-30T23:54:18Z</time></trkpt>
<trkpt lat="46.16986" lon="7.32277"><ele></ele><time>2016-8-30T23:54:21Z</time></trkpt>
<trkpt lat="46.16987" lon="7.32281"><ele></ele><time>2016-8-30T23:54:24Z</time></trkpt>
<trkpt lat="46.16988" lon="7.32286"><ele></ele><time>2016-8-30T23:54:27Z</time></trkpt>
<trkpt lat="46.16989" lon="7.3229"><ele></ele><time>2016-8-30T23:54:30Z</time></trkpt>
<trkpt lat="46.1699" lon="7.32294"><ele></ele><time>2016-8-30T23:54:33Z</time></trkpt>
<trkpt lat="46.16991" lon="7.32298"><ele></ele><time>2016-8-30T23:54:36Z</time></trkpt>
<trkpt lat="46.16992" lon="7.32302"><ele></ele><time>2016-8-30T23:54:39Z</time></trkpt>
<trkpt lat="46.16993" lon="7.32307"><ele></ele><time>2016-8-30T23:54:42Z</time></trkpt>
<trkpt lat="46.16994" lon="7.32311"><ele></ele><time>2016-8-30T23:54:45Z</time></trkpt>
<trkpt lat="46.16995" lon="7.32315"><ele></ele><time>2016-8-30T23:54:48Z</time></trkpt>
<trkpt lat="46.16996" lon="7.32319"><ele></ele><time>2016-8-30T23:54:51Z</time></trkpt>
<trkpt lat="46.16997" lon="7.32323"><ele></ele><time>2016-8-30T23:54:54Z</time></trkpt>
<trkpt lat="46.16998" lon="7.32328"><ele></ele><time>2016-8-30T23:54:57Z</time></trkpt>
<trkpt lat="46.16999" lon="7.32332"><ele></ele><time>2016-8-30T23:55:0Z</time></trkpt>
<trkpt lat="46.16999" lon="7.32334"><ele></ele><time>2016-8-30T23:55:3Z</time></trkpt>
<trkpt lat="46.16999" lon="7.32336"><ele></ele><time>2016-8-30T23:55:6Z</time></trkpt>
<trkpt lat="46.17001" lon="7.3234"><ele></ele><time>2016-8-30T23:55:9Z</time></trkpt>
<trkpt lat="46.17002" lon="7.32345"><ele></ele><time>2016-8-30T23:55:12Z</time></trkpt>
<trkpt lat="46.17002" lon="7.32347"><ele></ele><time>2016-8-30T23:55:15Z</time></trkpt>
<trkpt lat="46.17003" lon="7.32349"><ele></ele><time>2016-8-30T23:55:18Z</time></trkpt>
<trkpt lat="46.17004" lon="7.32353"><ele></ele><time>2016-8-30T23:55:21Z</time></trkpt>
<trkpt lat="46.17005" lon="7.32358"><ele></ele><time>2016-8-30T23:55:24Z</time></trkpt>
<trkpt lat="46.17006" lon="7.32362"><ele></ele><time>2016-8-30T23:55:27Z</time></trkpt>
<trkpt lat="46.17007" lon="7.32367"><ele></ele><time>2016-8-30T23:55:30Z</time></trkpt>
<trkpt lat="46.17008" lon="7.32371"><ele></ele><time>2016-8-30T23:55:33Z</time></trkpt>
<trkpt lat="46.17009" lon="7.32375"><ele></ele><time>2016-8-30T23:55:36Z</time></trkpt>
<trkpt lat="46.1701" lon="7.3238"><ele></ele><time>2016-8-30T23:55:39Z</time></trkpt>
<trkpt lat="46.17011" lon="7.32382"><ele></ele><time>2016-8-30T23:55:42Z</time></trkpt>
<trkpt lat="46.17011" lon="7.32384"><ele></ele><time>2016-8-30T23:55:45Z</time></trkpt>
<trkpt lat="46.17012" lon="7.32388"><ele></ele><time>2016-8-30T23:55:48Z</time></trkpt>
<trkpt lat="46.17013" lon="7.32393"><ele></ele><time>2016-8-30T23:55:51Z</time></trkpt>
<trkpt lat="46.17014" lon="7.32397"><ele></ele><time>2016-8-30T23:55:54Z</time></trkpt>
<trkpt lat="46.17015" lon="7.32399"><ele></ele><time>2016-8-30T23:55:57Z</time></trkpt>
<trkpt lat="46.17015" lon="7.32401"><ele></ele><time>2016-8-30T23:56:0Z</time></trkpt>
<trkpt lat="46.17016" lon="7.32404"><ele></ele><time>2016-8-30T23:56:3Z</time></trkpt>
<trkpt lat="46.17017" lon="7.32407"><ele></ele><time>2016-8-30T23:56:6Z</time></trkpt>
<trkpt lat="46.17017" lon="7.3241"><ele></ele><time>2016-8-30T23:56:9Z</time></trkpt>
<trkpt lat="46.17018" lon="7.32413"><ele></ele><time>2016-8-30T23:56:12Z</time></trkpt>
<trkpt lat="46.17019" lon="7.32416"><ele></ele><time>2016-8-30T23:56:15Z</time></trkpt>
<trkpt lat="46.17019" lon="7.3242"><ele></ele><time>2016-8-30T23:56:18Z</time></trkpt>
<trkpt lat="46.1702" lon="7.32423"><ele></ele><time>2016-8-30T23:56:21Z</time></trkpt>
<trkpt lat="46.17021" lon="7.32426"><ele></ele><time>2016-8-30T23:56:24Z</time></trkpt>
<trkpt lat="46.17021" lon="7.32429"><ele></ele><time>2016-8-30T23:56:27Z</time></trkpt>
<trkpt lat="46.17022" lon="7.32432"><ele></ele><time>2016-8-30T23:56:30Z</time></trkpt>
<trkpt lat="46.17023" lon="7.32435"><ele></ele><time>2016-8-30T23:56:33Z</time></trkpt>
<trkpt lat="46.17024" lon="7.32438"><ele></ele><time>2016-8-30T23:56:36Z</time></trkpt>
<trkpt lat="46.17024" lon="7.32441"><ele></ele><time>2016-8-30T23:56:39Z</time></trkpt>
<trkpt lat="46.17025" lon="7.32444"><ele></ele><time>2016-8-30T23:56:42Z</time></trkpt>
<trkpt lat="46.17026" lon="7.32448"><ele></ele><time>2016-8-30T23:56:45Z</time></trkpt>
<trkpt lat="46.17026" lon="7.32451"><ele></ele><time>2016-8-30T23:56:48Z</time></trkpt>
<trkpt lat="46.17027" lon="7.32454"><ele></ele><time>2016-8-30T23:56:51Z</time></trkpt>
<trkpt lat="46.17028" lon="7.32457"><ele></ele><time>2016-8-30T23:56:54Z</time></trkpt>
<trkpt lat="46.17029" lon="7.3246"><ele></ele><time>2016-8-30T23:56:57Z</time></trkpt>
<trkpt lat="46.17029" lon="7.32462"><ele></ele><time>2016-8-30T23:57:0Z</time></trkpt>
<trkpt lat="46.17029" lon="7.32463"><ele></ele><time>2016-8-30T23:57:3Z</time></trkpt>
<trkpt lat="46.1703" lon="7.32467"><ele></ele><time>2016-8-30T23:57:6Z</time></trkpt>
<trkpt lat="46.1703" lon="7.32471"><ele></ele><time>2016-8-30T23:57:9Z</time></trkpt>
<trkpt lat="46.17031" lon="7.32475"><ele></ele><time>2016-8-30T23:57:12Z</time></trkpt>
<trkpt lat="46.17031" lon="7.32476"><ele></ele><time>2016-8-30T23:57:15Z</time></trkpt>
<trkpt lat="46.17031" lon="7.32478"><ele></ele><time>2016-8-30T23:57:18Z</time></trkpt>
<trkpt lat="46.17032" lon="7.32482"><ele></ele><time>2016-8-30T23:57:21Z</time></trkpt>
<trkpt lat="46.17033" lon="7.32486"><ele></ele><time>2016-8-30T23:57:24Z</time></trkpt>
<trkpt lat="46.17033" lon="7.3249"><ele></ele><time>2016-8-30T23:57:27Z</time></trkpt>
<trkpt lat="46.17034" lon="7.32493"><ele></ele><time>2016-8-30T23:57:30Z</time></trkpt>
<trkpt lat="46.17034" lon="7.32497"><ele></ele><time>2016-8-30T23:57:33Z</time></trkpt>
<trkpt lat="46.17035" lon="7.32501"><ele></ele><time>2016-8-30T23:57:36Z</time></trkpt>
<trkpt lat="46.17035" lon="7.32504"><ele></ele><time>2016-8-30T23:57:39Z</time></trkpt>
<trkpt lat="46.17036" lon="7.32508"><ele></ele><time>2016-8-30T23:57:42Z</time></trkpt>
<trkpt lat="46.17037" lon="7.32512"><ele></ele><time>2016-8-30T23:57:45Z</time></trkpt>
<trkpt lat="46.17037" lon="7.32516"><ele></ele><time>2016-8-30T23:57:48Z</time></trkpt>
<trkpt lat="46.17038" lon="7.32519"><ele></ele><time>2016-8-30T23:57:51Z</time></trkpt>
<trkpt lat="46.17038" lon="7.32523"><ele></ele><time>2016-8-30T23:57:54Z</time></trkpt>
<trkpt lat="46.17039" lon="7.32525"><ele></ele><time>2016-8-30T23:57:57Z</time></trkpt>
<trkpt lat="46.1704" lon="7.32526"><ele></ele><time>2016-8-30T23:58:0Z</time></trkpt>
<trkpt lat="46.17042" lon="7.32528"><ele></ele><time>2016-8-30T23:58:3Z</time></trkpt>
<trkpt lat="46.17045" lon="7.3253"><ele></ele><time>2016-8-30T23:58:6Z</time></trkpt>
<trkpt lat="46.17047" lon="7.32532"><ele></ele><time>2016-8-30T23:58:9Z</time></trkpt>
<trkpt lat="46.1705" lon="7.32534"><ele></ele><time>2016-8-30T23:58:12Z</time></trkpt>
<trkpt lat="46.17052" lon="7.32536"><ele></ele><time>2016-8-30T23:58:15Z</time></trkpt>
<trkpt lat="46.17054" lon="7.32538"><ele></ele><time>2016-8-30T23:58:18Z</time></trkpt>
<trkpt lat="46.17057" lon="7.32541"><ele></ele><time>2016-8-30T23:58:21Z</time></trkpt>
<trkpt lat="46.17059" lon="7.32543"><ele></ele><time>2016-8-30T23:58:24Z</time></trkpt>
<trkpt lat="46.17062" lon="7.32545"><ele></ele><time>2016-8-30T23:58:27Z</time></trkpt>
<trkpt lat="46.17064" lon="7.32547"><ele></ele><time>2016-8-30T23:58:30Z</time></trkpt>
<trkpt lat="46.17067" lon="7.32549"><ele></ele><time>2016-8-30T23:58:33Z</time></trkpt>
<trkpt lat="46.17069" lon="7.32551"><ele></ele><time>2016-8-30T23:58:36Z</time></trkpt>
<trkpt lat="46.17072" lon="7.32553"><ele></ele><time>2016-8-30T23:58:39Z</time></trkpt>
<trkpt lat="46.17074" lon="7.32555"><ele></ele><time>2016-8-30T23:58:42Z</time></trkpt>
<trkpt lat="46.17077" lon="7.32557"><ele></ele><time>2016-8-30T23:58:45Z</time></trkpt>
<trkpt lat="46.17078" lon="7.32558"><ele></ele><time>2016-8-30T23:58:48Z</time></trkpt>
<trkpt lat="46.17079" lon="7.32559"><ele></ele><time>2016-8-30T23:58:51Z</time></trkpt>
<trkpt lat="46.17082" lon="7.32562"><ele></ele><time>2016-8-30T23:58:54Z</time></trkpt>
<trkpt lat="46.17084" lon="7.32564"><ele></ele><time>2016-8-30T23:58:57Z</time></trkpt>
<trkpt lat="46.17087" lon="7.32567"><ele></ele><time>2016-8-30T23:59:0Z</time></trkpt>
<trkpt lat="46.1709" lon="7.32569"><ele></ele><time>2016-8-30T23:59:3Z</time></trkpt>
<trkpt lat="46.17091" lon="7.3257"><ele></ele><time>2016-8-30T23:59:6Z</time></trkpt>
<trkpt lat="46.17092" lon="7.32572"><ele></ele><time>2016-8-30T23:59:9Z</time></trkpt>
<trkpt lat="46.17095" lon="7.32574"><ele></ele><time>2016-8-30T23:59:12Z</time></trkpt>
<trkpt lat="46.17098" lon="7.32577"><ele></ele><time>2016-8-30T23:59:15Z</time></trkpt>
<trkpt lat="46.17099" lon="7.32578"><ele></ele><time>2016-8-30T23:59:18Z</time></trkpt>
<trkpt lat="46.171" lon="7.32579"><ele></ele><time>2016-8-30T23:59:21Z</time></trkpt>
<trkpt lat="46.17103" lon="7.32581"><ele></ele><time>2016-8-30T23:59:24Z</time></trkpt>
<trkpt lat="46.17106" lon="7.32584"><ele></ele><time>2016-8-30T23:59:27Z</time></trkpt>
<trkpt lat="46.17108" lon="7.32586"><ele></ele><time>2016-8-30T23:59:30Z</time></trkpt>
<trkpt lat="46.17111" lon="7.32589"><ele></ele><time>2016-8-30T23:59:33Z</time></trkpt>
<trkpt lat="46.17114" lon="7.32591"><ele></ele><time>2016-8-30T23:59:36Z</time></trkpt>
<trkpt lat="46.17116" lon="7.32594"><ele></ele><time>2016-8-30T23:59:39Z</time></trkpt>
<trkpt lat="46.17119" lon="7.32596"><ele></ele><time>2016-8-30T23:59:42Z</time></trkpt>
<trkpt lat="46.17122" lon="7.32598"><ele></ele><time>2016-8-30T23:59:45Z</time></trkpt>
<trkpt lat="46.17124" lon="7.32601"><ele></ele><time>2016-8-30T23:59:48Z</time></trkpt>
<trkpt lat="46.17127" lon="7.32603"><ele></ele><time>2016-8-30T23:59:51Z</time></trkpt>
<trkpt lat="46.17128" lon="7.32604"><ele></ele><time>2016-8-30T23:59:54Z</time></trkpt>
<trkpt lat="46.17129" lon="7.32605"><ele></ele><time>2016-8-30T23:59:57Z</time></trkpt>
<trkpt lat="46.17132" lon="7.32608"><ele></ele><time>2016-8-31T0:0:0Z</time></trkpt>
<trkpt lat="46.17135" lon="7.3261"><ele></ele><time>2016-8-31T0:0:3Z</time></trkpt>
<trkpt lat="46.17137" lon="7.32612"><ele></ele><time>2016-8-31T0:0:6Z</time></trkpt>
<trkpt lat="46.1714" lon="7.32615"><ele></ele><time>2016-8-31T0:0:9Z</time></trkpt>
<trkpt lat="46.17143" lon="7.32617"><ele></ele><time>2016-8-31T0:0:12Z</time></trkpt>
<trkpt lat="46.17145" lon="7.32619"><ele></ele><time>2016-8-31T0:0:15Z</time></trkpt>
<trkpt lat="46.17148" lon="7.32622"><ele></ele><time>2016-8-31T0:0:18Z</time></trkpt>
<trkpt lat="46.17151" lon="7.32624"><ele></ele><time>2016-8-31T0:0:21Z</time></trkpt>
<trkpt lat="46.17153" lon="7.32626"><ele></ele><time>2016-8-31T0:0:24Z</time></trkpt>
<trkpt lat="46.17156" lon="7.32629"><ele></ele><time>2016-8-31T0:0:27Z</time></trkpt>
<trkpt lat="46.17157" lon="7.3263"><ele></ele><time>2016-8-31T0:0:30Z</time></trkpt>
<trkpt lat="46.17158" lon="7.32631"><ele></ele><time>2016-8-31T0:0:33Z</time></trkpt>
<trkpt lat="46.17161" lon="7.32633"><ele></ele><time>2016-8-31T0:0:36Z</time></trkpt>
<trkpt lat="46.17163" lon="7.32635"><ele></ele><time>2016-8-31T0:0:39Z</time></trkpt>
<trkpt lat="46.17165" lon="7.32637"><ele></ele><time>2016-8-31T0:0:42Z</time></trkpt>
<trkpt lat="46.17168" lon="7.32638"><ele></ele><time>2016-8-31T0:0:45Z</time></trkpt>
<trkpt lat="46.1717" lon="7.3264"><ele></ele><time>2016-8-31T0:0:48Z</time></trkpt>
<trkpt lat="46.17172" lon="7.32642"><ele></ele><time>2016-8-31T0:0:51Z</time></trkpt>
<trkpt lat="46.17174" lon="7.32644"><ele></ele><time>2016-8-31T0:0:54Z</time></trkpt>
<trkpt lat="46.17177" lon="7.32646"><ele></ele><time>2016-8-31T0:0:57Z</time></trkpt>
<trkpt lat="46.17179" lon="7.32648"><ele></ele><time>2016-8-31T0:1:0Z</time></trkpt>
<trkpt lat="46.17181" lon="7.3265"><ele></ele><time>2016-8-31T0:1:3Z</time></trkpt>
<trkpt lat="46.17182" lon="7.3265"><ele></ele><time>2016-8-31T0:1:6Z</time></trkpt>
<trkpt lat="46.17183" lon="7.32651"><ele></ele><time>2016-8-31T0:1:9Z</time></trkpt>
<trkpt lat="46.17186" lon="7.32653"><ele></ele><time>2016-8-31T0:1:12Z</time></trkpt>
<trkpt lat="46.17188" lon="7.32655"><ele></ele><time>2016-8-31T0:1:15Z</time></trkpt>
<trkpt lat="46.1719" lon="7.32657"><ele></ele><time>2016-8-31T0:1:18Z</time></trkpt>
<trkpt lat="46.17193" lon="7.32659"><ele></ele><time>2016-8-31T0:1:21Z</time></trkpt>
<trkpt lat="46.17195" lon="7.32661"><ele></ele><time>2016-8-31T0:1:24Z</time></trkpt>
<trkpt lat="46.17197" lon="7.32663"><ele></ele><time>2016-8-31T0:1:27Z</time></trkpt>
<trkpt lat="46.17198" lon="7.32663"><ele></ele><time>2016-8-31T0:1:30Z</time></trkpt>
<trkpt lat="46.17199" lon="7.32665"><ele></ele><time>2016-8-31T0:1:33Z</time></trkpt>
<trkpt lat="46.172" lon="7.32669"><ele></ele><time>2016-8-31T0:1:36Z</time></trkpt>
<trkpt lat="46.17202" lon="7.32672"><ele></ele><time>2016-8-31T0:1:39Z</time></trkpt>
<trkpt lat="46.17203" lon="7.32676"><ele></ele><time>2016-8-31T0:1:42Z</time></trkpt>
<trkpt lat="46.17204" lon="7.32678"><ele></ele><time>2016-8-31T0:1:45Z</time></trkpt>
<trkpt lat="46.17204" lon="7.32679"><ele></ele><time>2016-8-31T0:1:48Z</time></trkpt>
<trkpt lat="46.17206" lon="7.32683"><ele></ele><time>2016-8-31T0:1:51Z</time></trkpt>
<trkpt lat="46.17207" lon="7.32687"><ele></ele><time>2016-8-31T0:1:54Z</time></trkpt>
<trkpt lat="46.17209" lon="7.3269"><ele></ele><time>2016-8-31T0:1:57Z</time></trkpt>
<trkpt lat="46.1721" lon="7.32694"><ele></ele><time>2016-8-31T0:2:0Z</time></trkpt>
<trkpt lat="46.17211" lon="7.32697"><ele></ele><time>2016-8-31T0:2:3Z</time></trkpt>
<trkpt lat="46.17213" lon="7.32701"><ele></ele><time>2016-8-31T0:2:6Z</time></trkpt>
<trkpt lat="46.17214" lon="7.32704"><ele></ele><time>2016-8-31T0:2:9Z</time></trkpt>
<trkpt lat="46.17216" lon="7.32708"><ele></ele><time>2016-8-31T0:2:12Z</time></trkpt>
<trkpt lat="46.17216" lon="7.3271"><ele></ele><time>2016-8-31T0:2:15Z</time></trkpt>
<trkpt lat="46.17217" lon="7.32712"><ele></ele><time>2016-8-31T0:2:18Z</time></trkpt>
<trkpt lat="46.17218" lon="7.32715"><ele></ele><time>2016-8-31T0:2:21Z</time></trkpt>
<trkpt lat="46.1722" lon="7.32719"><ele></ele><time>2016-8-31T0:2:24Z</time></trkpt>
<trkpt lat="46.17221" lon="7.32721"><ele></ele><time>2016-8-31T0:2:27Z</time></trkpt>
<trkpt lat="46.17221" lon="7.32722"><ele></ele><time>2016-8-31T0:2:30Z</time></trkpt>
<trkpt lat="46.17222" lon="7.32726"><ele></ele><time>2016-8-31T0:2:33Z</time></trkpt>
<trkpt lat="46.17223" lon="7.32729"><ele></ele><time>2016-8-31T0:2:36Z</time></trkpt>
<trkpt lat="46.17224" lon="7.32733"><ele></ele><time>2016-8-31T0:2:39Z</time></trkpt>
<trkpt lat="46.17225" lon="7.32736"><ele></ele><time>2016-8-31T0:2:42Z</time></trkpt>
<trkpt lat="46.17226" lon="7.32739"><ele></ele><time>2016-8-31T0:2:45Z</time></trkpt>
<trkpt lat="46.17227" lon="7.32743"><ele></ele><time>2016-8-31T0:2:48Z</time></trkpt>
<trkpt lat="46.17228" lon="7.32746"><ele></ele><time>2016-8-31T0:2:51Z</time></trkpt>
<trkpt lat="46.17229" lon="7.3275"><ele></ele><time>2016-8-31T0:2:54Z</time></trkpt>
<trkpt lat="46.1723" lon="7.32753"><ele></ele><time>2016-8-31T0:2:57Z</time></trkpt>
<trkpt lat="46.17231" lon="7.32757"><ele></ele><time>2016-8-31T0:3:0Z</time></trkpt>
<trkpt lat="46.17232" lon="7.3276"><ele></ele><time>2016-8-31T0:3:3Z</time></trkpt>
<trkpt lat="46.17233" lon="7.32763"><ele></ele><time>2016-8-31T0:3:6Z</time></trkpt>
<trkpt lat="46.17234" lon="7.32767"><ele></ele><time>2016-8-31T0:3:9Z</time></trkpt>
<trkpt lat="46.17235" lon="7.3277"><ele></ele><time>2016-8-31T0:3:12Z</time></trkpt>
<trkpt lat="46.17236" lon="7.32774"><ele></ele><time>2016-8-31T0:3:15Z</time></trkpt>
<trkpt lat="46.17237" lon="7.32777"><ele></ele><time>2016-8-31T0:3:18Z</time></trkpt>
<trkpt lat="46.17238" lon="7.32781"><ele></ele><time>2016-8-31T0:3:21Z</time></trkpt>
<trkpt lat="46.17239" lon="7.32784"><ele></ele><time>2016-8-31T0:3:24Z</time></trkpt>
<trkpt lat="46.17241" lon="7.32787"><ele></ele><time>2016-8-31T0:3:27Z</time></trkpt>
<trkpt lat="46.17243" lon="7.32789"><ele></ele><time>2016-8-31T0:3:30Z</time></trkpt>
<trkpt lat="46.17244" lon="7.32792"><ele></ele><time>2016-8-31T0:3:33Z</time></trkpt>
<trkpt lat="46.17246" lon="7.32795"><ele></ele><time>2016-8-31T0:3:36Z</time></trkpt>
<trkpt lat="46.17248" lon="7.32798"><ele></ele><time>2016-8-31T0:3:39Z</time></trkpt>
<trkpt lat="46.17249" lon="7.32801"><ele></ele><time>2016-8-31T0:3:42Z</time></trkpt>
<trkpt lat="46.17251" lon="7.32804"><ele></ele><time>2016-8-31T0:3:45Z</time></trkpt>
<trkpt lat="46.17252" lon="7.32807"><ele></ele><time>2016-8-31T0:3:48Z</time></trkpt>
<trkpt lat="46.17254" lon="7.3281"><ele></ele><time>2016-8-31T0:3:51Z</time></trkpt>
<trkpt lat="46.17256" lon="7.32813"><ele></ele><time>2016-8-31T0:3:54Z</time></trkpt>
<trkpt lat="46.17257" lon="7.32816"><ele></ele><time>2016-8-31T0:3:57Z</time></trkpt>
<trkpt lat="46.17259" lon="7.32819"><ele></ele><time>2016-8-31T0:4:0Z</time></trkpt>
<trkpt lat="46.17261" lon="7.32822"><ele></ele><time>2016-8-31T0:4:3Z</time></trkpt>
<trkpt lat="46.17262" lon="7.32825"><ele></ele><time>2016-8-31T0:4:6Z</time></trkpt>
<trkpt lat="46.17264" lon="7.32827"><ele></ele><time>2016-8-31T0:4:9Z</time></trkpt>
<trkpt lat="46.17266" lon="7.3283"><ele></ele><time>2016-8-31T0:4:12Z</time></trkpt>
<trkpt lat="46.17266" lon="7.32832"><ele></ele><time>2016-8-31T0:4:15Z</time></trkpt>
<trkpt lat="46.17267" lon="7.32834"><ele></ele><time>2016-8-31T0:4:18Z</time></trkpt>
<trkpt lat="46.17268" lon="7.32836"><ele></ele><time>2016-8-31T0:4:21Z</time></trkpt>
<trkpt lat="46.17268" lon="7.32838"><ele></ele><time>2016-8-31T0:4:24Z</time></trkpt>
<trkpt lat="46.17269" lon="7.32842"><ele></ele><time>2016-8-31T0:4:27Z</time></trkpt>
<trkpt lat="46.17271" lon="7.32846"><ele></ele><time>2016-8-31T0:4:30Z</time></trkpt>
<trkpt lat="46.17272" lon="7.3285"><ele></ele><time>2016-8-31T0:4:33Z</time></trkpt>
<trkpt lat="46.17273" lon="7.32854"><ele></ele><time>2016-8-31T0:4:36Z</time></trkpt>
<trkpt lat="46.17274" lon="7.32858"><ele></ele><time>2016-8-31T0:4:39Z</time></trkpt>
<trkpt lat="46.17276" lon="7.32861"><ele></ele><time>2016-8-31T0:4:42Z</time></trkpt>
<trkpt lat="46.17277" lon="7.32865"><ele></ele><time>2016-8-31T0:4:45Z</time></trkpt>
<trkpt lat="46.17278" lon="7.32869"><ele></ele><time>2016-8-31T0:4:48Z</time></trkpt>
<trkpt lat="46.17279" lon="7.32873"><ele></ele><time>2016-8-31T0:4:51Z</time></trkpt>
<trkpt lat="46.1728" lon="7.32877"><ele></ele><time>2016-8-31T0:4:54Z</time></trkpt>
<trkpt lat="46.17282" lon="7.32881"><ele></ele><time>2016-8-31T0:4:57Z</time></trkpt>
<trkpt lat="46.17283" lon="7.32885"><ele></ele><time>2016-8-31T0:5:0Z</time></trkpt>
<trkpt lat="46.17284" lon="7.32889"><ele></ele><time>2016-8-31T0:5:3Z</time></trkpt>
<trkpt lat="46.17285" lon="7.32891"><ele></ele><time>2016-8-31T0:5:6Z</time></trkpt>
<trkpt lat="46.17285" lon="7.32894"><ele></ele><time>2016-8-31T0:5:9Z</time></trkpt>
<trkpt lat="46.17285" lon="7.32899"><ele></ele><time>2016-8-31T0:5:12Z</time></trkpt>
<trkpt lat="46.17286" lon="7.32904"><ele></ele><time>2016-8-31T0:5:15Z</time></trkpt>
<trkpt lat="46.17286" lon="7.32909"><ele></ele><time>2016-8-31T0:5:18Z</time></trkpt>
<trkpt lat="46.17287" lon="7.32914"><ele></ele><time>2016-8-31T0:5:21Z</time></trkpt>
<trkpt lat="46.17287" lon="7.32919"><ele></ele><time>2016-8-31T0:5:24Z</time></trkpt>
<trkpt lat="46.17288" lon="7.32924"><ele></ele><time>2016-8-31T0:5:27Z</time></trkpt>
<trkpt lat="46.17288" lon="7.32929"><ele></ele><time>2016-8-31T0:5:30Z</time></trkpt>
<trkpt lat="46.17289" lon="7.32932"><ele></ele><time>2016-8-31T0:5:33Z</time></trkpt>
<trkpt lat="46.17289" lon="7.32934"><ele></ele><time>2016-8-31T0:5:36Z</time></trkpt>
<trkpt lat="46.17289" lon="7.32939"><ele></ele><time>2016-8-31T0:5:39Z</time></trkpt>
<trkpt lat="46.1729" lon="7.32944"><ele></ele><time>2016-8-31T0:5:42Z</time></trkpt>
<trkpt lat="46.1729" lon="7.32949"><ele></ele><time>2016-8-31T0:5:45Z</time></trkpt>
<trkpt lat="46.17291" lon="7.32954"><ele></ele><time>2016-8-31T0:5:48Z</time></trkpt>
<trkpt lat="46.17291" lon="7.32957"><ele></ele><time>2016-8-31T0:5:51Z</time></trkpt>
<trkpt lat="46.17291" lon="7.3296"><ele></ele><time>2016-8-31T0:5:54Z</time></trkpt>
<trkpt lat="46.17292" lon="7.32965"><ele></ele><time>2016-8-31T0:5:57Z</time></trkpt>
<trkpt lat="46.17293" lon="7.3297"><ele></ele><time>2016-8-31T0:6:0Z</time></trkpt>
<trkpt lat="46.17294" lon="7.32975"><ele></ele><time>2016-8-31T0:6:3Z</time></trkpt>
<trkpt lat="46.17295" lon="7.3298"><ele></ele><time>2016-8-31T0:6:6Z</time></trkpt>
<trkpt lat="46.17295" lon="7.32986"><ele></ele><time>2016-8-31T0:6:9Z</time></trkpt>
<trkpt lat="46.17296" lon="7.32988"><ele></ele><time>2016-8-31T0:6:12Z</time></trkpt>
<trkpt lat="46.17296" lon="7.32991"><ele></ele><time>2016-8-31T0:6:15Z</time></trkpt>
<trkpt lat="46.17297" lon="7.32996"><ele></ele><time>2016-8-31T0:6:18Z</time></trkpt>
<trkpt lat="46.17298" lon="7.33001"><ele></ele><time>2016-8-31T0:6:21Z</time></trkpt>
<trkpt lat="46.17299" lon="7.33006"><ele></ele><time>2016-8-31T0:6:24Z</time></trkpt>
<trkpt lat="46.173" lon="7.33012"><ele></ele><time>2016-8-31T0:6:27Z</time></trkpt>
<trkpt lat="46.173" lon="7.33017"><ele></ele><time>2016-8-31T0:6:30Z</time></trkpt>
<trkpt lat="46.17301" lon="7.33022"><ele></ele><time>2016-8-31T0:6:33Z</time></trkpt>
<trkpt lat="46.17302" lon="7.33027"><ele></ele><time>2016-8-31T0:6:36Z</time></trkpt>
<trkpt lat="46.17303" lon="7.33029"><ele></ele><time>2016-8-31T0:6:39Z</time></trkpt>
<trkpt lat="46.17303" lon="7.33032"><ele></ele><time>2016-8-31T0:6:42Z</time></trkpt>
<trkpt lat="46.17304" lon="7.33037"><ele></ele><time>2016-8-31T0:6:45Z</time></trkpt>
<trkpt lat="46.17305" lon="7.33041"><ele></ele><time>2016-8-31T0:6:48Z</time></trkpt>
<trkpt lat="46.17305" lon="7.33044"><ele></ele><time>2016-8-31T0:6:51Z</time></trkpt>
<trkpt lat="46.17306" lon="7.33046"><ele></ele><time>2016-8-31T0:6:54Z</time></trkpt>
<trkpt lat="46.17306" lon="7.33051"><ele></ele><time>2016-8-31T0:6:57Z</time></trkpt>
<trkpt lat="46.17307" lon="7.33056"><ele></ele><time>2016-8-31T0:7:0Z</time></trkpt>
<trkpt lat="46.17308" lon="7.33061"><ele></ele><time>2016-8-31T0:7:3Z</time></trkpt>
<trkpt lat="46.17309" lon="7.33066"><ele></ele><time>2016-8-31T0:7:6Z</time></trkpt>
<trkpt lat="46.1731" lon="7.33071"><ele></ele><time>2016-8-31T0:7:9Z</time></trkpt>
<trkpt lat="46.17311" lon="7.33076"><ele></ele><time>2016-8-31T0:7:12Z</time></trkpt>
<trkpt lat="46.17312" lon="7.3308"><ele></ele><time>2016-8-31T0:7:15Z</time></trkpt>
<trkpt lat="46.17312" lon="7.33085"><ele></ele><time>2016-8-31T0:7:18Z</time></trkpt>
<trkpt lat="46.17312" lon="7.33091"><ele></ele><time>2016-8-31T0:7:21Z</time></trkpt>
<trkpt lat="46.17313" lon="7.33097"><ele></ele><time>2016-8-31T0:7:24Z</time></trkpt>
<trkpt lat="46.17313" lon="7.33103"><ele></ele><time>2016-8-31T0:7:27Z</time></trkpt>
<trkpt lat="46.17313" lon="7.33108"><ele></ele><time>2016-8-31T0:7:30Z</time></trkpt>
<trkpt lat="46.17313" lon="7.33114"><ele></ele><time>2016-8-31T0:7:33Z</time></trkpt>
<trkpt lat="46.17313" lon="7.3312"><ele></ele><time>2016-8-31T0:7:36Z</time></trkpt>
<trkpt lat="46.17313" lon="7.33126"><ele></ele><time>2016-8-31T0:7:39Z</time></trkpt>
<trkpt lat="46.17313" lon="7.33132"><ele></ele><time>2016-8-31T0:7:42Z</time></trkpt>
<trkpt lat="46.17313" lon="7.33137"><ele></ele><time>2016-8-31T0:7:45Z</time></trkpt>
<trkpt lat="46.17313" lon="7.33143"><ele></ele><time>2016-8-31T0:7:48Z</time></trkpt>
<trkpt lat="46.17313" lon="7.33149"><ele></ele><time>2016-8-31T0:7:51Z</time></trkpt>
<trkpt lat="46.17313" lon="7.33152"><ele></ele><time>2016-8-31T0:7:54Z</time></trkpt>
<trkpt lat="46.17314" lon="7.33154"><ele></ele><time>2016-8-31T0:7:57Z</time></trkpt>
<trkpt lat="46.17316" lon="7.33158"><ele></ele><time>2016-8-31T0:8:0Z</time></trkpt>
<trkpt lat="46.17316" lon="7.3316"><ele></ele><time>2016-8-31T0:8:3Z</time></trkpt>
<trkpt lat="46.17317" lon="7.33162"><ele></ele><time>2016-8-31T0:8:6Z</time></trkpt>
<trkpt lat="46.17319" lon="7.33167"><ele></ele><time>2016-8-31T0:8:9Z</time></trkpt>
<trkpt lat="46.17321" lon="7.33171"><ele></ele><time>2016-8-31T0:8:12Z</time></trkpt>
<trkpt lat="46.17323" lon="7.33175"><ele></ele><time>2016-8-31T0:8:15Z</time></trkpt>
<trkpt lat="46.17324" lon="7.33179"><ele></ele><time>2016-8-31T0:8:18Z</time></trkpt>
<trkpt lat="46.17325" lon="7.33181"><ele></ele><time>2016-8-31T0:8:21Z</time></trkpt>
<trkpt lat="46.17327" lon="7.3318"><ele></ele><time>2016-8-31T0:8:24Z</time></trkpt>
<trkpt lat="46.17329" lon="7.33176"><ele></ele><time>2016-8-31T0:8:27Z</time></trkpt>
<trkpt lat="46.17331" lon="7.33172"><ele></ele><time>2016-8-31T0:8:30Z</time></trkpt>
<trkpt lat="46.17334" lon="7.33168"><ele></ele><time>2016-8-31T0:8:33Z</time></trkpt>
<trkpt lat="46.17336" lon="7.33165"><ele></ele><time>2016-8-31T0:8:36Z</time></trkpt>
<trkpt lat="46.17338" lon="7.33161"><ele></ele><time>2016-8-31T0:8:39Z</time></trkpt>
<trkpt lat="46.17341" lon="7.33157"><ele></ele><time>2016-8-31T0:8:42Z</time></trkpt>
<trkpt lat="46.17343" lon="7.33153"><ele></ele><time>2016-8-31T0:8:45Z</time></trkpt>
<trkpt lat="46.17346" lon="7.3315"><ele></ele><time>2016-8-31T0:8:48Z</time></trkpt>
<trkpt lat="46.17348" lon="7.33146"><ele></ele><time>2016-8-31T0:8:51Z</time></trkpt>
<trkpt lat="46.1735" lon="7.33142"><ele></ele><time>2016-8-31T0:8:54Z</time></trkpt>
<trkpt lat="46.17353" lon="7.33138"><ele></ele><time>2016-8-31T0:8:57Z</time></trkpt>
<trkpt lat="46.17355" lon="7.33134"><ele></ele><time>2016-8-31T0:9:0Z</time></trkpt>
<trkpt lat="46.17356" lon="7.33132"><ele></ele><time>2016-8-31T0:9:3Z</time></trkpt>
<trkpt lat="46.17358" lon="7.33131"><ele></ele><time>2016-8-31T0:9:6Z</time></trkpt>
<trkpt lat="46.17362" lon="7.33127"><ele></ele><time>2016-8-31T0:9:9Z</time></trkpt>
<trkpt lat="46.17365" lon="7.33124"><ele></ele><time>2016-8-31T0:9:12Z</time></trkpt>
<trkpt lat="46.17369" lon="7.3312"><ele></ele><time>2016-8-31T0:9:15Z</time></trkpt>
<trkpt lat="46.17371" lon="7.33118"><ele></ele><time>2016-8-31T0:9:18Z</time></trkpt>
<trkpt lat="46.17373" lon="7.33116"><ele></ele><time>2016-8-31T0:9:21Z</time></trkpt>
<trkpt lat="46.17376" lon="7.33113"><ele></ele><time>2016-8-31T0:9:24Z</time></trkpt>
<trkpt lat="46.1738" lon="7.33109"><ele></ele><time>2016-8-31T0:9:27Z</time></trkpt>
<trkpt lat="46.17384" lon="7.33106"><ele></ele><time>2016-8-31T0:9:30Z</time></trkpt>
<trkpt lat="46.17387" lon="7.33102"><ele></ele><time>2016-8-31T0:9:33Z</time></trkpt>
<trkpt lat="46.17391" lon="7.33099"><ele></ele><time>2016-8-31T0:9:36Z</time></trkpt>
<trkpt lat="46.17395" lon="7.33095"><ele></ele><time>2016-8-31T0:9:39Z</time></trkpt>
<trkpt lat="46.17398" lon="7.33092"><ele></ele><time>2016-8-31T0:9:42Z</time></trkpt>
<trkpt lat="46.17402" lon="7.33089"><ele></ele><time>2016-8-31T0:9:45Z</time></trkpt>
<trkpt lat="46.17406" lon="7.33086"><ele></ele><time>2016-8-31T0:9:48Z</time></trkpt>
<trkpt lat="46.17409" lon="7.33083"><ele></ele><time>2016-8-31T0:9:51Z</time></trkpt>
<trkpt lat="46.17411" lon="7.33081"><ele></ele><time>2016-8-31T0:9:54Z</time></trkpt>
<trkpt lat="46.17413" lon="7.33083"><ele></ele><time>2016-8-31T0:9:57Z</time></trkpt>
<trkpt lat="46.17416" lon="7.33086"><ele></ele><time>2016-8-31T0:10:0Z</time></trkpt>
<trkpt lat="46.17419" lon="7.3309"><ele></ele><time>2016-8-31T0:10:3Z</time></trkpt>
<trkpt lat="46.17422" lon="7.33094"><ele></ele><time>2016-8-31T0:10:6Z</time></trkpt>
<trkpt lat="46.17426" lon="7.33098"><ele></ele><time>2016-8-31T0:10:9Z</time></trkpt>
<trkpt lat="46.17429" lon="7.33101"><ele></ele><time>2016-8-31T0:10:12Z</time></trkpt>
<trkpt lat="46.17432" lon="7.33105"><ele></ele><time>2016-8-31T0:10:15Z</time></trkpt>
<trkpt lat="46.17435" lon="7.33109"><ele></ele><time>2016-8-31T0:10:18Z</time></trkpt>
<trkpt lat="46.17437" lon="7.33111"><ele></ele><time>2016-8-31T0:10:21Z</time></trkpt>
<trkpt lat="46.17438" lon="7.33113"><ele></ele><time>2016-8-31T0:10:24Z</time></trkpt>
<trkpt lat="46.17441" lon="7.33117"><ele></ele><time>2016-8-31T0:10:27Z</time></trkpt>
<trkpt lat="46.17445" lon="7.3312"><ele></ele><time>2016-8-31T0:10:30Z</time></trkpt>
<trkpt lat="46.17448" lon="7.33124"><ele></ele><time>2016-8-31T0:10:33Z</time></trkpt>
<trkpt lat="46.17452" lon="7.33126"><ele></ele><time>2016-8-31T0:10:36Z</time></trkpt>
<trkpt lat="46.17455" lon="7.33127"><ele></ele><time>2016-8-31T0:10:39Z</time></trkpt>
<trkpt lat="46.17459" lon="7.33128"><ele></ele><time>2016-8-31T0:10:42Z</time></trkpt>
<trkpt lat="46.17463" lon="7.3313"><ele></ele><time>2016-8-31T0:10:45Z</time></trkpt>
<trkpt lat="46.17467" lon="7.33131"><ele></ele><time>2016-8-31T0:10:48Z</time></trkpt>
<trkpt lat="46.17471" lon="7.33132"><ele></ele><time>2016-8-31T0:10:51Z</time></trkpt>
<trkpt lat="46.17474" lon="7.33134"><ele></ele><time>2016-8-31T0:10:54Z</time></trkpt>
<trkpt lat="46.17476" lon="7.33135"><ele></ele><time>2016-8-31T0:10:57Z</time></trkpt>
<trkpt lat="46.17478" lon="7.33135"><ele></ele><time>2016-8-31T0:11:0Z</time></trkpt>
<trkpt lat="46.17482" lon="7.33137"><ele></ele><time>2016-8-31T0:11:3Z</time></trkpt>
<trkpt lat="46.17486" lon="7.33138"><ele></ele><time>2016-8-31T0:11:6Z</time></trkpt>
<trkpt lat="46.1749" lon="7.33139"><ele></ele><time>2016-8-31T0:11:9Z</time></trkpt>
<trkpt lat="46.17492" lon="7.3314"><ele></ele><time>2016-8-31T0:11:12Z</time></trkpt>
<trkpt lat="46.17493" lon="7.33139"><ele></ele><time>2016-8-31T0:11:15Z</time></trkpt>
<trkpt lat="46.17497" lon="7.33138"><ele></ele><time>2016-8-31T0:11:18Z</time></trkpt>
<trkpt lat="46.175" lon="7.33136"><ele></ele><time>2016-8-31T0:11:21Z</time></trkpt>
<trkpt lat="46.17504" lon="7.33135"><ele></ele><time>2016-8-31T0:11:24Z</time></trkpt>
<trkpt lat="46.17507" lon="7.33133"><ele></ele><time>2016-8-31T0:11:27Z</time></trkpt>
<trkpt lat="46.17511" lon="7.33132"><ele></ele><time>2016-8-31T0:11:30Z</time></trkpt>
<trkpt lat="46.17514" lon="7.33131"><ele></ele><time>2016-8-31T0:11:33Z</time></trkpt>
<trkpt lat="46.17518" lon="7.33129"><ele></ele><time>2016-8-31T0:11:36Z</time></trkpt>
<trkpt lat="46.17522" lon="7.33128"><ele></ele><time>2016-8-31T0:11:39Z</time></trkpt>
<trkpt lat="46.17525" lon="7.33126"><ele></ele><time>2016-8-31T0:11:42Z</time></trkpt>
<trkpt lat="46.17529" lon="7.33125"><ele></ele><time>2016-8-31T0:11:45Z</time></trkpt>
<trkpt lat="46.17532" lon="7.33123"><ele></ele><time>2016-8-31T0:11:48Z</time></trkpt>
<trkpt lat="46.17536" lon="7.33122"><ele></ele><time>2016-8-31T0:11:51Z</time></trkpt>
<trkpt lat="46.17539" lon="7.33123"><ele></ele><time>2016-8-31T0:11:54Z</time></trkpt>
<trkpt lat="46.17543" lon="7.33125"><ele></ele><time>2016-8-31T0:11:57Z</time></trkpt>
<trkpt lat="46.17545" lon="7.33126"><ele></ele><time>2016-8-31T0:12:0Z</time></trkpt>
<trkpt lat="46.17547" lon="7.33127"><ele></ele><time>2016-8-31T0:12:3Z</time></trkpt>
<trkpt lat="46.17549" lon="7.33128"><ele></ele><time>2016-8-31T0:12:6Z</time></trkpt>
<trkpt lat="46.17551" lon="7.33129"><ele></ele><time>2016-8-31T0:12:9Z</time></trkpt>
<trkpt lat="46.17555" lon="7.3313"><ele></ele><time>2016-8-31T0:12:12Z</time></trkpt>
<trkpt lat="46.17559" lon="7.33132"><ele></ele><time>2016-8-31T0:12:15Z</time></trkpt>
<trkpt lat="46.17562" lon="7.33134"><ele></ele><time>2016-8-31T0:12:18Z</time></trkpt>
<trkpt lat="46.17566" lon="7.33136"><ele></ele><time>2016-8-31T0:12:21Z</time></trkpt>
<trkpt lat="46.1757" lon="7.33138"><ele></ele><time>2016-8-31T0:12:24Z</time></trkpt>
<trkpt lat="46.17574" lon="7.33139"><ele></ele><time>2016-8-31T0:12:27Z</time></trkpt>
<trkpt lat="46.17578" lon="7.33141"><ele></ele><time>2016-8-31T0:12:30Z</time></trkpt>
<trkpt lat="46.1758" lon="7.33142"><ele></ele><time>2016-8-31T0:12:33Z</time></trkpt>
<trkpt lat="46.17581" lon="7.33143"><ele></ele><time>2016-8-31T0:12:36Z</time></trkpt>
<trkpt lat="46.17585" lon="7.33144"><ele></ele><time>2016-8-31T0:12:39Z</time></trkpt>
<trkpt lat="46.17587" lon="7.33144"><ele></ele><time>2016-8-31T0:12:42Z</time></trkpt>
<trkpt lat="46.17589" lon="7.33145"><ele></ele><time>2016-8-31T0:12:45Z</time></trkpt>
<trkpt lat="46.17592" lon="7.33146"><ele></ele><time>2016-8-31T0:12:48Z</time></trkpt>
<trkpt lat="46.17596" lon="7.33147"><ele></ele><time>2016-8-31T0:12:51Z</time></trkpt>
<trkpt lat="46.176" lon="7.33148"><ele></ele><time>2016-8-31T0:12:54Z</time></trkpt>
<trkpt lat="46.17603" lon="7.33149"><ele></ele><time>2016-8-31T0:12:57Z</time></trkpt>
<trkpt lat="46.17607" lon="7.3315"><ele></ele><time>2016-8-31T0:13:0Z</time></trkpt>
<trkpt lat="46.17611" lon="7.33152"><ele></ele><time>2016-8-31T0:13:3Z</time></trkpt>
<trkpt lat="46.17614" lon="7.33153"><ele></ele><time>2016-8-31T0:13:6Z</time></trkpt>
<trkpt lat="46.17618" lon="7.33154"><ele></ele><time>2016-8-31T0:13:9Z</time></trkpt>
<trkpt lat="46.17622" lon="7.33155"><ele></ele><time>2016-8-31T0:13:12Z</time></trkpt>
<trkpt lat="46.17625" lon="7.33156"><ele></ele><time>2016-8-31T0:13:15Z</time></trkpt>
<trkpt lat="46.17626" lon="7.33157"><ele></ele><time>2016-8-31T0:13:18Z</time></trkpt>
<trkpt lat="46.17628" lon="7.33158"><ele></ele><time>2016-8-31T0:13:21Z</time></trkpt>
<trkpt lat="46.1763" lon="7.33161"><ele></ele><time>2016-8-31T0:13:24Z</time></trkpt>
<trkpt lat="46.17632" lon="7.33163"><ele></ele><time>2016-8-31T0:13:27Z</time></trkpt>
<trkpt lat="46.17634" lon="7.33165"><ele></ele><time>2016-8-31T0:13:30Z</time></trkpt>
<trkpt lat="46.17636" lon="7.33168"><ele></ele><time>2016-8-31T0:13:33Z</time></trkpt>
<trkpt lat="46.17639" lon="7.3317"><ele></ele><time>2016-8-31T0:13:36Z</time></trkpt>
<trkpt lat="46.17641" lon="7.33172"><ele></ele><time>2016-8-31T0:13:39Z</time></trkpt>
<trkpt lat="46.17643" lon="7.33175"><ele></ele><time>2016-8-31T0:13:42Z</time></trkpt>
<trkpt lat="46.17645" lon="7.33177"><ele></ele><time>2016-8-31T0:13:45Z</time></trkpt>
<trkpt lat="46.17647" lon="7.33179"><ele></ele><time>2016-8-31T0:13:48Z</time></trkpt>
<trkpt lat="46.1765" lon="7.33182"><ele></ele><time>2016-8-31T0:13:51Z</time></trkpt>
<trkpt lat="46.17652" lon="7.33184"><ele></ele><time>2016-8-31T0:13:54Z</time></trkpt>
<trkpt lat="46.17654" lon="7.33186"><ele></ele><time>2016-8-31T0:13:57Z</time></trkpt>
<trkpt lat="46.17656" lon="7.33189"><ele></ele><time>2016-8-31T0:14:0Z</time></trkpt>
<trkpt lat="46.17658" lon="7.33191"><ele></ele><time>2016-8-31T0:14:3Z</time></trkpt>
<trkpt lat="46.17661" lon="7.33193"><ele></ele><time>2016-8-31T0:14:6Z</time></trkpt>
<trkpt lat="46.17662" lon="7.33194"><ele></ele><time>2016-8-31T0:14:9Z</time></trkpt>
<trkpt lat="46.17663" lon="7.33196"><ele></ele><time>2016-8-31T0:14:12Z</time></trkpt>
<trkpt lat="46.17665" lon="7.332"><ele></ele><time>2016-8-31T0:14:15Z</time></trkpt>
<trkpt lat="46.17667" lon="7.33204"><ele></ele><time>2016-8-31T0:14:18Z</time></trkpt>
<trkpt lat="46.17669" lon="7.33208"><ele></ele><time>2016-8-31T0:14:21Z</time></trkpt>
<trkpt lat="46.17671" lon="7.33212"><ele></ele><time>2016-8-31T0:14:24Z</time></trkpt>
<trkpt lat="46.17673" lon="7.33216"><ele></ele><time>2016-8-31T0:14:27Z</time></trkpt>
<trkpt lat="46.17675" lon="7.3322"><ele></ele><time>2016-8-31T0:14:30Z</time></trkpt>
<trkpt lat="46.17676" lon="7.33222"><ele></ele><time>2016-8-31T0:14:33Z</time></trkpt>
<trkpt lat="46.17677" lon="7.33223"><ele></ele><time>2016-8-31T0:14:36Z</time></trkpt>
<trkpt lat="46.17679" lon="7.33227"><ele></ele><time>2016-8-31T0:14:39Z</time></trkpt>
<trkpt lat="46.17681" lon="7.33231"><ele></ele><time>2016-8-31T0:14:42Z</time></trkpt>
<trkpt lat="46.17683" lon="7.33235"><ele></ele><time>2016-8-31T0:14:45Z</time></trkpt>
<trkpt lat="46.17685" lon="7.33239"><ele></ele><time>2016-8-31T0:14:48Z</time></trkpt>
<trkpt lat="46.17687" lon="7.33243"><ele></ele><time>2016-8-31T0:14:51Z</time></trkpt>
<trkpt lat="46.17689" lon="7.33247"><ele></ele><time>2016-8-31T0:14:54Z</time></trkpt>
<trkpt lat="46.1769" lon="7.33249"><ele></ele><time>2016-8-31T0:14:57Z</time></trkpt>
<trkpt lat="46.17691" lon="7.33251"><ele></ele><time>2016-8-31T0:15:0Z</time></trkpt>
<trkpt lat="46.17693" lon="7.33254"><ele></ele><time>2016-8-31T0:15:3Z</time></trkpt>
<trkpt lat="46.17696" lon="7.33258"><ele></ele><time>2016-8-31T0:15:6Z</time></trkpt>
<trkpt lat="46.17698" lon="7.33262"><ele></ele><time>2016-8-31T0:15:9Z</time></trkpt>
<trkpt lat="46.177" lon="7.33266"><ele></ele><time>2016-8-31T0:15:12Z</time></trkpt>
<trkpt lat="46.17703" lon="7.33269"><ele></ele><time>2016-8-31T0:15:15Z</time></trkpt>
<trkpt lat="46.17705" lon="7.33273"><ele></ele><time>2016-8-31T0:15:18Z</time></trkpt>
<trkpt lat="46.17708" lon="7.33277"><ele></ele><time>2016-8-31T0:15:21Z</time></trkpt>
<trkpt lat="46.1771" lon="7.3328"><ele></ele><time>2016-8-31T0:15:24Z</time></trkpt>
<trkpt lat="46.17712" lon="7.33284"><ele></ele><time>2016-8-31T0:15:27Z</time></trkpt>
<trkpt lat="46.17715" lon="7.33288"><ele></ele><time>2016-8-31T0:15:30Z</time></trkpt>
<trkpt lat="46.17717" lon="7.33292"><ele></ele><time>2016-8-31T0:15:33Z</time></trkpt>
<trkpt lat="46.1772" lon="7.33295"><ele></ele><time>2016-8-31T0:15:36Z</time></trkpt>
<trkpt lat="46.17721" lon="7.33297"><ele></ele><time>2016-8-31T0:15:39Z</time></trkpt>
<trkpt lat="46.17722" lon="7.33299"><ele></ele><time>2016-8-31T0:15:42Z</time></trkpt>
<trkpt lat="46.17725" lon="7.33301"><ele></ele><time>2016-8-31T0:15:45Z</time></trkpt>
<trkpt lat="46.17728" lon="7.33303"><ele></ele><time>2016-8-31T0:15:48Z</time></trkpt>
<trkpt lat="46.17731" lon="7.33306"><ele></ele><time>2016-8-31T0:15:51Z</time></trkpt>
<trkpt lat="46.17734" lon="7.33308"><ele></ele><time>2016-8-31T0:15:54Z</time></trkpt>
<trkpt lat="46.17737" lon="7.3331"><ele></ele><time>2016-8-31T0:15:57Z</time></trkpt>
<trkpt lat="46.1774" lon="7.33313"><ele></ele><time>2016-8-31T0:16:0Z</time></trkpt>
<trkpt lat="46.17743" lon="7.33315"><ele></ele><time>2016-8-31T0:16:3Z</time></trkpt>
<trkpt lat="46.17746" lon="7.33317"><ele></ele><time>2016-8-31T0:16:6Z</time></trkpt>
<trkpt lat="46.17749" lon="7.3332"><ele></ele><time>2016-8-31T0:16:9Z</time></trkpt>
<trkpt lat="46.17752" lon="7.33322"><ele></ele><time>2016-8-31T0:16:12Z</time></trkpt>
<trkpt lat="46.17755" lon="7.33324"><ele></ele><time>2016-8-31T0:16:15Z</time></trkpt>
<trkpt lat="46.17758" lon="7.33327"><ele></ele><time>2016-8-31T0:16:18Z</time></trkpt>
<trkpt lat="46.17761" lon="7.33329"><ele></ele><time>2016-8-31T0:16:21Z</time></trkpt>
<trkpt lat="46.17764" lon="7.33332"><ele></ele><time>2016-8-31T0:16:24Z</time></trkpt>
<trkpt lat="46.17768" lon="7.33335"><ele></ele><time>2016-8-31T0:16:27Z</time></trkpt>
<trkpt lat="46.17771" lon="7.33339"><ele></ele><time>2016-8-31T0:16:30Z</time></trkpt>
<trkpt lat="46.17774" lon="7.33342"><ele></ele><time>2016-8-31T0:16:33Z</time></trkpt>
<trkpt lat="46.17778" lon="7.33345"><ele></ele><time>2016-8-31T0:16:36Z</time></trkpt>
<trkpt lat="46.17781" lon="7.33349"><ele></ele><time>2016-8-31T0:16:39Z</time></trkpt>
<trkpt lat="46.17784" lon="7.33352"><ele></ele><time>2016-8-31T0:16:42Z</time></trkpt>
<trkpt lat="46.17786" lon="7.33354"><ele></ele><time>2016-8-31T0:16:45Z</time></trkpt>
<trkpt lat="46.17787" lon="7.33355"><ele></ele><time>2016-8-31T0:16:48Z</time></trkpt>
<trkpt lat="46.17791" lon="7.33359"><ele></ele><time>2016-8-31T0:16:51Z</time></trkpt>
<trkpt lat="46.17794" lon="7.33362"><ele></ele><time>2016-8-31T0:16:54Z</time></trkpt>
<trkpt lat="46.17797" lon="7.33365"><ele></ele><time>2016-8-31T0:16:57Z</time></trkpt>
<trkpt lat="46.17799" lon="7.33367"><ele></ele><time>2016-8-31T0:17:0Z</time></trkpt>
<trkpt lat="46.17801" lon="7.33367"><ele></ele><time>2016-8-31T0:17:3Z</time></trkpt>
<trkpt lat="46.17804" lon="7.33368"><ele></ele><time>2016-8-31T0:17:6Z</time></trkpt>
<trkpt lat="46.17808" lon="7.33369"><ele></ele><time>2016-8-31T0:17:9Z</time></trkpt>
<trkpt lat="46.17811" lon="7.3337"><ele></ele><time>2016-8-31T0:17:12Z</time></trkpt>
<trkpt lat="46.17815" lon="7.33371"><ele></ele><time>2016-8-31T0:17:15Z</time></trkpt>
<trkpt lat="46.17819" lon="7.33372"><ele></ele><time>2016-8-31T0:17:18Z</time></trkpt>
<trkpt lat="46.17822" lon="7.33373"><ele></ele><time>2016-8-31T0:17:21Z</time></trkpt>
<trkpt lat="46.17824" lon="7.33373"><ele></ele><time>2016-8-31T0:17:24Z</time></trkpt>
<trkpt lat="46.17826" lon="7.33374"><ele></ele><time>2016-8-31T0:17:27Z</time></trkpt>
<trkpt lat="46.17829" lon="7.33375"><ele></ele><time>2016-8-31T0:17:30Z</time></trkpt>
<trkpt lat="46.17833" lon="7.33376"><ele></ele><time>2016-8-31T0:17:33Z</time></trkpt>
<trkpt lat="46.17837" lon="7.33377"><ele></ele><time>2016-8-31T0:17:36Z</time></trkpt>
<trkpt lat="46.1784" lon="7.33378"><ele></ele><time>2016-8-31T0:17:39Z</time></trkpt>
<trkpt lat="46.17844" lon="7.33379"><ele></ele><time>2016-8-31T0:17:42Z</time></trkpt>
<trkpt lat="46.17846" lon="7.33383"><ele></ele><time>2016-8-31T0:17:45Z</time></trkpt>
<trkpt lat="46.17847" lon="7.33389"><ele></ele><time>2016-8-31T0:17:48Z</time></trkpt>
<trkpt lat="46.17849" lon="7.33394"><ele></ele><time>2016-8-31T0:17:51Z</time></trkpt>
<trkpt lat="46.17851" lon="7.33399"><ele></ele><time>2016-8-31T0:17:54Z</time></trkpt>
<trkpt lat="46.17853" lon="7.33404"><ele></ele><time>2016-8-31T0:17:57Z</time></trkpt>
<trkpt lat="46.17854" lon="7.33409"><ele></ele><time>2016-8-31T0:18:0Z</time></trkpt>
<trkpt lat="46.17856" lon="7.33414"><ele></ele><time>2016-8-31T0:18:3Z</time></trkpt>
<trkpt lat="46.17858" lon="7.3342"><ele></ele><time>2016-8-31T0:18:6Z</time></trkpt>
<trkpt lat="46.17859" lon="7.33425"><ele></ele><time>2016-8-31T0:18:9Z</time></trkpt>
<trkpt lat="46.17861" lon="7.3343"><ele></ele><time>2016-8-31T0:18:12Z</time></trkpt>
<trkpt lat="46.17863" lon="7.33435"><ele></ele><time>2016-8-31T0:18:15Z</time></trkpt>
<trkpt lat="46.17864" lon="7.33438"><ele></ele><time>2016-8-31T0:18:18Z</time></trkpt>
<trkpt lat="46.17864" lon="7.3344"><ele></ele><time>2016-8-31T0:18:21Z</time></trkpt>
<trkpt lat="46.17863" lon="7.33445"><ele></ele><time>2016-8-31T0:18:24Z</time></trkpt>
<trkpt lat="46.17863" lon="7.3345"><ele></ele><time>2016-8-31T0:18:27Z</time></trkpt>
<trkpt lat="46.17862" lon="7.33453"><ele></ele><time>2016-8-31T0:18:30Z</time></trkpt>
<trkpt lat="46.17862" lon="7.33455"><ele></ele><time>2016-8-31T0:18:33Z</time></trkpt>
<trkpt lat="46.17861" lon="7.3346"><ele></ele><time>2016-8-31T0:18:36Z</time></trkpt>
<trkpt lat="46.17861" lon="7.33465"><ele></ele><time>2016-8-31T0:18:39Z</time></trkpt>
<trkpt lat="46.1786" lon="7.3347"><ele></ele><time>2016-8-31T0:18:42Z</time></trkpt>
<trkpt lat="46.1786" lon="7.33475"><ele></ele><time>2016-8-31T0:18:45Z</time></trkpt>
<trkpt lat="46.17859" lon="7.3348"><ele></ele><time>2016-8-31T0:18:48Z</time></trkpt>
<trkpt lat="46.17859" lon="7.33485"><ele></ele><time>2016-8-31T0:18:51Z</time></trkpt>
<trkpt lat="46.17858" lon="7.3349"><ele></ele><time>2016-8-31T0:18:54Z</time></trkpt>
<trkpt lat="46.17858" lon="7.33495"><ele></ele><time>2016-8-31T0:18:57Z</time></trkpt>
<trkpt lat="46.17857" lon="7.335"><ele></ele><time>2016-8-31T0:19:0Z</time></trkpt>
<trkpt lat="46.17857" lon="7.33503"><ele></ele><time>2016-8-31T0:19:3Z</time></trkpt>
<trkpt lat="46.17857" lon="7.33505"><ele></ele><time>2016-8-31T0:19:6Z</time></trkpt>
<trkpt lat="46.17857" lon="7.3351"><ele></ele><time>2016-8-31T0:19:9Z</time></trkpt>
<trkpt lat="46.17857" lon="7.33515"><ele></ele><time>2016-8-31T0:19:12Z</time></trkpt>
<trkpt lat="46.17856" lon="7.3352"><ele></ele><time>2016-8-31T0:19:15Z</time></trkpt>
<trkpt lat="46.17856" lon="7.33524"><ele></ele><time>2016-8-31T0:19:18Z</time></trkpt>
<trkpt lat="46.17856" lon="7.33529"><ele></ele><time>2016-8-31T0:19:21Z</time></trkpt>
<trkpt lat="46.17856" lon="7.33534"><ele></ele><time>2016-8-31T0:19:24Z</time></trkpt>
<trkpt lat="46.17856" lon="7.33539"><ele></ele><time>2016-8-31T0:19:27Z</time></trkpt>
<trkpt lat="46.17856" lon="7.33544"><ele></ele><time>2016-8-31T0:19:30Z</time></trkpt>
<trkpt lat="46.17856" lon="7.33548"><ele></ele><time>2016-8-31T0:19:33Z</time></trkpt>
<trkpt lat="46.17856" lon="7.33553"><ele></ele><time>2016-8-31T0:19:36Z</time></trkpt>
<trkpt lat="46.17855" lon="7.33558"><ele></ele><time>2016-8-31T0:19:39Z</time></trkpt>
<trkpt lat="46.17855" lon="7.33563"><ele></ele><time>2016-8-31T0:19:42Z</time></trkpt>
<trkpt lat="46.17855" lon="7.33565"><ele></ele><time>2016-8-31T0:19:45Z</time></trkpt>
<trkpt lat="46.17855" lon="7.33568"><ele></ele><time>2016-8-31T0:19:48Z</time></trkpt>
<trkpt lat="46.17855" lon="7.33572"><ele></ele><time>2016-8-31T0:19:51Z</time></trkpt>
<trkpt lat="46.17855" lon="7.33576"><ele></ele><time>2016-8-31T0:19:54Z</time></trkpt>
<trkpt lat="46.17854" lon="7.3358"><ele></ele><time>2016-8-31T0:19:57Z</time></trkpt>
<trkpt lat="46.17854" lon="7.33584"><ele></ele><time>2016-8-31T0:20:0Z</time></trkpt>
<trkpt lat="46.17854" lon="7.33588"><ele></ele><time>2016-8-31T0:20:3Z</time></trkpt>
<trkpt lat="46.17853" lon="7.33593"><ele></ele><time>2016-8-31T0:20:6Z</time></trkpt>
<trkpt lat="46.17853" lon="7.33597"><ele></ele><time>2016-8-31T0:20:9Z</time></trkpt>
<trkpt lat="46.17853" lon="7.33601"><ele></ele><time>2016-8-31T0:20:12Z</time></trkpt>
<trkpt lat="46.17852" lon="7.33605"><ele></ele><time>2016-8-31T0:20:15Z</time></trkpt>
<trkpt lat="46.17852" lon="7.33609"><ele></ele><time>2016-8-31T0:20:18Z</time></trkpt>
<trkpt lat="46.17852" lon="7.33614"><ele></ele><time>2016-8-31T0:20:21Z</time></trkpt>
<trkpt lat="46.17851" lon="7.33618"><ele></ele><time>2016-8-31T0:20:24Z</time></trkpt>
<trkpt lat="46.17851" lon="7.33622"><ele></ele><time>2016-8-31T0:20:27Z</time></trkpt>
<trkpt lat="46.17851" lon="7.33626"><ele></ele><time>2016-8-31T0:20:30Z</time></trkpt>
<trkpt lat="46.1785" lon="7.3363"><ele></ele><time>2016-8-31T0:20:33Z</time></trkpt>
<trkpt lat="46.1785" lon="7.33632"><ele></ele><time>2016-8-31T0:20:36Z</time></trkpt>
<trkpt lat="46.1785" lon="7.33635"><ele></ele><time>2016-8-31T0:20:39Z</time></trkpt>
<trkpt lat="46.1785" lon="7.3364"><ele></ele><time>2016-8-31T0:20:42Z</time></trkpt>
<trkpt lat="46.1785" lon="7.33645"><ele></ele><time>2016-8-31T0:20:45Z</time></trkpt>
<trkpt lat="46.17851" lon="7.3365"><ele></ele><time>2016-8-31T0:20:48Z</time></trkpt>
<trkpt lat="46.17851" lon="7.33655"><ele></ele><time>2016-8-31T0:20:51Z</time></trkpt>
<trkpt lat="46.17851" lon="7.3366"><ele></ele><time>2016-8-31T0:20:54Z</time></trkpt>
<trkpt lat="46.17851" lon="7.33666"><ele></ele><time>2016-8-31T0:20:57Z</time></trkpt>
<trkpt lat="46.17851" lon="7.33671"><ele></ele><time>2016-8-31T0:21:0Z</time></trkpt>
<trkpt lat="46.17851" lon="7.33676"><ele></ele><time>2016-8-31T0:21:3Z</time></trkpt>
<trkpt lat="46.17851" lon="7.33681"><ele></ele><time>2016-8-31T0:21:6Z</time></trkpt>
<trkpt lat="46.17851" lon="7.33686"><ele></ele><time>2016-8-31T0:21:9Z</time></trkpt>
<trkpt lat="46.17851" lon="7.33691"><ele></ele><time>2016-8-31T0:21:12Z</time></trkpt>
<trkpt lat="46.17851" lon="7.33696"><ele></ele><time>2016-8-31T0:21:15Z</time></trkpt>
<trkpt lat="46.17851" lon="7.33699"><ele></ele><time>2016-8-31T0:21:18Z</time></trkpt>
<trkpt lat="46.17851" lon="7.33701"><ele></ele><time>2016-8-31T0:21:21Z</time></trkpt>
<trkpt lat="46.17851" lon="7.33703"><ele></ele><time>2016-8-31T0:21:24Z</time></trkpt>
<trkpt lat="46.17851" lon="7.33706"><ele></ele><time>2016-8-31T0:21:27Z</time></trkpt>
<trkpt lat="46.17851" lon="7.3371"><ele></ele><time>2016-8-31T0:21:30Z</time></trkpt>
<trkpt lat="46.1785" lon="7.33715"><ele></ele><time>2016-8-31T0:21:33Z</time></trkpt>
<trkpt lat="46.1785" lon="7.33719"><ele></ele><time>2016-8-31T0:21:36Z</time></trkpt>
<trkpt lat="46.1785" lon="7.33724"><ele></ele><time>2016-8-31T0:21:39Z</time></trkpt>
<trkpt lat="46.17849" lon="7.33728"><ele></ele><time>2016-8-31T0:21:42Z</time></trkpt>
<trkpt lat="46.17849" lon="7.33733"><ele></ele><time>2016-8-31T0:21:45Z</time></trkpt>
<trkpt lat="46.17849" lon="7.33738"><ele></ele><time>2016-8-31T0:21:48Z</time></trkpt>
<trkpt lat="46.17848" lon="7.33742"><ele></ele><time>2016-8-31T0:21:51Z</time></trkpt>
<trkpt lat="46.17848" lon="7.33747"><ele></ele><time>2016-8-31T0:21:54Z</time></trkpt>
<trkpt lat="46.17847" lon="7.33751"><ele></ele><time>2016-8-31T0:21:57Z</time></trkpt>
<trkpt lat="46.17847" lon="7.33756"><ele></ele><time>2016-8-31T0:22:0Z</time></trkpt>
<trkpt lat="46.17847" lon="7.3376"><ele></ele><time>2016-8-31T0:22:3Z</time></trkpt>
<trkpt lat="46.17846" lon="7.33765"><ele></ele><time>2016-8-31T0:22:6Z</time></trkpt>
<trkpt lat="46.17846" lon="7.33769"><ele></ele><time>2016-8-31T0:22:9Z</time></trkpt>
<trkpt lat="46.17846" lon="7.33773"><ele></ele><time>2016-8-31T0:22:12Z</time></trkpt>
<trkpt lat="46.17845" lon="7.33777"><ele></ele><time>2016-8-31T0:22:15Z</time></trkpt>
<trkpt lat="46.17845" lon="7.33781"><ele></ele><time>2016-8-31T0:22:18Z</time></trkpt>
<trkpt lat="46.17844" lon="7.33785"><ele></ele><time>2016-8-31T0:22:21Z</time></trkpt>
<trkpt lat="46.17844" lon="7.33789"><ele></ele><time>2016-8-31T0:22:24Z</time></trkpt>
<trkpt lat="46.17843" lon="7.33793"><ele></ele><time>2016-8-31T0:22:27Z</time></trkpt>
<trkpt lat="46.17843" lon="7.33797"><ele></ele><time>2016-8-31T0:22:30Z</time></trkpt>
<trkpt lat="46.17842" lon="7.33801"><ele></ele><time>2016-8-31T0:22:33Z</time></trkpt>
<trkpt lat="46.17842" lon="7.33803"><ele></ele><time>2016-8-31T0:22:36Z</time></trkpt>
<trkpt lat="46.17842" lon="7.33805"><ele></ele><time>2016-8-31T0:22:39Z</time></trkpt>
<trkpt lat="46.17841" lon="7.33809"><ele></ele><time>2016-8-31T0:22:42Z</time></trkpt>
<trkpt lat="46.17841" lon="7.33813"><ele></ele><time>2016-8-31T0:22:45Z</time></trkpt>
<trkpt lat="46.1784" lon="7.33817"><ele></ele><time>2016-8-31T0:22:48Z</time></trkpt>
<trkpt lat="46.1784" lon="7.33821"><ele></ele><time>2016-8-31T0:22:51Z</time></trkpt>
<trkpt lat="46.1784" lon="7.33825"><ele></ele><time>2016-8-31T0:22:54Z</time></trkpt>
<trkpt lat="46.17839" lon="7.33829"><ele></ele><time>2016-8-31T0:22:57Z</time></trkpt>
<trkpt lat="46.17839" lon="7.33835"><ele></ele><time>2016-8-31T0:23:0Z</time></trkpt>
<trkpt lat="46.17839" lon="7.3384"><ele></ele><time>2016-8-31T0:23:3Z</time></trkpt>
<trkpt lat="46.17839" lon="7.33845"><ele></ele><time>2016-8-31T0:23:6Z</time></trkpt>
<trkpt lat="46.17839" lon="7.3385"><ele></ele><time>2016-8-31T0:23:9Z</time></trkpt>
<trkpt lat="46.17839" lon="7.33855"><ele></ele><time>2016-8-31T0:23:12Z</time></trkpt>
<trkpt lat="46.17839" lon="7.3386"><ele></ele><time>2016-8-31T0:23:15Z</time></trkpt>
<trkpt lat="46.17839" lon="7.33865"><ele></ele><time>2016-8-31T0:23:18Z</time></trkpt>
<trkpt lat="46.17839" lon="7.33871"><ele></ele><time>2016-8-31T0:23:21Z</time></trkpt>
<trkpt lat="46.17839" lon="7.33876"><ele></ele><time>2016-8-31T0:23:24Z</time></trkpt>
<trkpt lat="46.17839" lon="7.33881"><ele></ele><time>2016-8-31T0:23:27Z</time></trkpt>
<trkpt lat="46.17839" lon="7.33886"><ele></ele><time>2016-8-31T0:23:30Z</time></trkpt>
<trkpt lat="46.17839" lon="7.33891"><ele></ele><time>2016-8-31T0:23:33Z</time></trkpt>
<trkpt lat="46.17839" lon="7.33896"><ele></ele><time>2016-8-31T0:23:36Z</time></trkpt>
<trkpt lat="46.17839" lon="7.33901"><ele></ele><time>2016-8-31T0:23:39Z</time></trkpt>
<trkpt lat="46.17838" lon="7.33906"><ele></ele><time>2016-8-31T0:23:42Z</time></trkpt>
<trkpt lat="46.17838" lon="7.3391"><ele></ele><time>2016-8-31T0:23:45Z</time></trkpt>
<trkpt lat="46.17837" lon="7.33915"><ele></ele><time>2016-8-31T0:23:48Z</time></trkpt>
<trkpt lat="46.17837" lon="7.3392"><ele></ele><time>2016-8-31T0:23:51Z</time></trkpt>
<trkpt lat="46.17836" lon="7.33925"><ele></ele><time>2016-8-31T0:23:54Z</time></trkpt>
<trkpt lat="46.17835" lon="7.33929"><ele></ele><time>2016-8-31T0:23:57Z</time></trkpt>
<trkpt lat="46.17835" lon="7.33934"><ele></ele><time>2016-8-31T0:24:0Z</time></trkpt>
<trkpt lat="46.17834" lon="7.33939"><ele></ele><time>2016-8-31T0:24:3Z</time></trkpt>
<trkpt lat="46.17834" lon="7.33944"><ele></ele><time>2016-8-31T0:24:6Z</time></trkpt>
<trkpt lat="46.17833" lon="7.33948"><ele></ele><time>2016-8-31T0:24:9Z</time></trkpt>
<trkpt lat="46.17833" lon="7.33951"><ele></ele><time>2016-8-31T0:24:12Z</time></trkpt>
<trkpt lat="46.17833" lon="7.33953"><ele></ele><time>2016-8-31T0:24:15Z</time></trkpt>
<trkpt lat="46.17832" lon="7.33958"><ele></ele><time>2016-8-31T0:24:18Z</time></trkpt>
<trkpt lat="46.17832" lon="7.3396"><ele></ele><time>2016-8-31T0:24:21Z</time></trkpt>
<trkpt lat="46.17832" lon="7.33963"><ele></ele><time>2016-8-31T0:24:24Z</time></trkpt>
<trkpt lat="46.17832" lon="7.33967"><ele></ele><time>2016-8-31T0:24:27Z</time></trkpt>
<trkpt lat="46.17831" lon="7.33972"><ele></ele><time>2016-8-31T0:24:30Z</time></trkpt>
<trkpt lat="46.17831" lon="7.33976"><ele></ele><time>2016-8-31T0:24:33Z</time></trkpt>
<trkpt lat="46.17831" lon="7.33981"><ele></ele><time>2016-8-31T0:24:36Z</time></trkpt>
<trkpt lat="46.17831" lon="7.33985"><ele></ele><time>2016-8-31T0:24:39Z</time></trkpt>
<trkpt lat="46.17831" lon="7.3399"><ele></ele><time>2016-8-31T0:24:42Z</time></trkpt>
<trkpt lat="46.17831" lon="7.33995"><ele></ele><time>2016-8-31T0:24:45Z</time></trkpt>
<trkpt lat="46.17831" lon="7.33999"><ele></ele><time>2016-8-31T0:24:48Z</time></trkpt>
<trkpt lat="46.17831" lon="7.34004"><ele></ele><time>2016-8-31T0:24:51Z</time></trkpt>
<trkpt lat="46.1783" lon="7.34008"><ele></ele><time>2016-8-31T0:24:54Z</time></trkpt>
<trkpt lat="46.1783" lon="7.34013"><ele></ele><time>2016-8-31T0:24:57Z</time></trkpt>
<trkpt lat="46.1783" lon="7.34017"><ele></ele><time>2016-8-31T0:25:0Z</time></trkpt>
<trkpt lat="46.1783" lon="7.34022"><ele></ele><time>2016-8-31T0:25:3Z</time></trkpt>
<trkpt lat="46.1783" lon="7.34026"><ele></ele><time>2016-8-31T0:25:6Z</time></trkpt>
<trkpt lat="46.1783" lon="7.34031"><ele></ele><time>2016-8-31T0:25:9Z</time></trkpt>
<trkpt lat="46.17829" lon="7.34036"><ele></ele><time>2016-8-31T0:25:12Z</time></trkpt>
<trkpt lat="46.17829" lon="7.3404"><ele></ele><time>2016-8-31T0:25:15Z</time></trkpt>
<trkpt lat="46.17828" lon="7.34045"><ele></ele><time>2016-8-31T0:25:18Z</time></trkpt>
<trkpt lat="46.17828" lon="7.34047"><ele></ele><time>2016-8-31T0:25:21Z</time></trkpt>
<trkpt lat="46.17828" lon="7.3405"><ele></ele><time>2016-8-31T0:25:24Z</time></trkpt>
<trkpt lat="46.17828" lon="7.34054"><ele></ele><time>2016-8-31T0:25:27Z</time></trkpt>
<trkpt lat="46.17827" lon="7.34059"><ele></ele><time>2016-8-31T0:25:30Z</time></trkpt>
<trkpt lat="46.17827" lon="7.34063"><ele></ele><time>2016-8-31T0:25:33Z</time></trkpt>
<trkpt lat="46.17826" lon="7.34068"><ele></ele><time>2016-8-31T0:25:36Z</time></trkpt>
<trkpt lat="46.17826" lon="7.34073"><ele></ele><time>2016-8-31T0:25:39Z</time></trkpt>
<trkpt lat="46.17826" lon="7.34077"><ele></ele><time>2016-8-31T0:25:42Z</time></trkpt>
<trkpt lat="46.17825" lon="7.34082"><ele></ele><time>2016-8-31T0:25:45Z</time></trkpt>
<trkpt lat="46.17825" lon="7.34086"><ele></ele><time>2016-8-31T0:25:48Z</time></trkpt>
<trkpt lat="46.17825" lon="7.34089"><ele></ele><time>2016-8-31T0:25:51Z</time></trkpt>
<trkpt lat="46.17825" lon="7.34091"><ele></ele><time>2016-8-31T0:25:54Z</time></trkpt>
<trkpt lat="46.17825" lon="7.34095"><ele></ele><time>2016-8-31T0:25:57Z</time></trkpt>
<trkpt lat="46.17825" lon="7.341"><ele></ele><time>2016-8-31T0:26:0Z</time></trkpt>
<trkpt lat="46.17825" lon="7.34104"><ele></ele><time>2016-8-31T0:26:3Z</time></trkpt>
<trkpt lat="46.17826" lon="7.34109"><ele></ele><time>2016-8-31T0:26:6Z</time></trkpt>
<trkpt lat="46.17826" lon="7.34113"><ele></ele><time>2016-8-31T0:26:9Z</time></trkpt>
<trkpt lat="46.17826" lon="7.34118"><ele></ele><time>2016-8-31T0:26:12Z</time></trkpt>
<trkpt lat="46.17826" lon="7.34122"><ele></ele><time>2016-8-31T0:26:15Z</time></trkpt>
<trkpt lat="46.17826" lon="7.34127"><ele></ele><time>2016-8-31T0:26:18Z</time></trkpt>
<trkpt lat="46.17826" lon="7.34131"><ele></ele><time>2016-8-31T0:26:21Z</time></trkpt>
<trkpt lat="46.17827" lon="7.34136"><ele></ele><time>2016-8-31T0:26:24Z</time></trkpt>
<trkpt lat="46.17816" lon="7.34168"><ele></ele><time>2016-8-31T0:26:27Z</time></trkpt>
<trkpt lat="46.17816" lon="7.34168"><ele></ele><time>2016-8-31T0:26:30Z</time></trkpt>
<trkpt lat="46.17805" lon="7.34196"><ele></ele><time>2016-8-31T0:26:33Z</time></trkpt>
<trkpt lat="46.17804" lon="7.34197"><ele></ele><time>2016-8-31T0:26:36Z</time></trkpt>
<trkpt lat="46.17804" lon="7.34199"><ele></ele><time>2016-8-31T0:26:39Z</time></trkpt>
<trkpt lat="46.17803" lon="7.342"><ele></ele><time>2016-8-31T0:26:42Z</time></trkpt>
<trkpt lat="46.17802" lon="7.34201"><ele></ele><time>2016-8-31T0:26:45Z</time></trkpt>
<trkpt lat="46.17802" lon="7.34202"><ele></ele><time>2016-8-31T0:26:48Z</time></trkpt>
<trkpt lat="46.17801" lon="7.34204"><ele></ele><time>2016-8-31T0:26:51Z</time></trkpt>
<trkpt lat="46.17801" lon="7.34205"><ele></ele><time>2016-8-31T0:26:54Z</time></trkpt>
<trkpt lat="46.178" lon="7.34206"><ele></ele><time>2016-8-31T0:26:57Z</time></trkpt>
<trkpt lat="46.178" lon="7.34206"><ele></ele><time>2016-8-31T0:27:0Z</time></trkpt>
<trkpt lat="46.17799" lon="7.34207"><ele></ele><time>2016-8-31T0:27:3Z</time></trkpt>
<trkpt lat="46.17799" lon="7.34209"><ele></ele><time>2016-8-31T0:27:6Z</time></trkpt>
<trkpt lat="46.17798" lon="7.3421"><ele></ele><time>2016-8-31T0:27:9Z</time></trkpt>
<trkpt lat="46.17797" lon="7.34211"><ele></ele><time>2016-8-31T0:27:12Z</time></trkpt>
<trkpt lat="46.17797" lon="7.34212"><ele></ele><time>2016-8-31T0:27:15Z</time></trkpt>
<trkpt lat="46.17796" lon="7.34213"><ele></ele><time>2016-8-31T0:27:18Z</time></trkpt>
<trkpt lat="46.17795" lon="7.34214"><ele></ele><time>2016-8-31T0:27:21Z</time></trkpt>
<trkpt lat="46.17795" lon="7.34216"><ele></ele><time>2016-8-31T0:27:24Z</time></trkpt>
<trkpt lat="46.17794" lon="7.34216"><ele></ele><time>2016-8-31T0:27:27Z</time></trkpt>
<trkpt lat="46.17796" lon="7.34212"><ele></ele><time>2016-8-31T0:27:30Z</time></trkpt>
<trkpt lat="46.17799" lon="7.34203"><ele></ele><time>2016-8-31T0:27:33Z</time></trkpt>
<trkpt lat="46.17801" lon="7.34199"><ele></ele><time>2016-8-31T0:27:36Z</time></trkpt>
<trkpt lat="46.17802" lon="7.34194"><ele></ele><time>2016-8-31T0:27:39Z</time></trkpt>
<trkpt lat="46.17806" lon="7.34185"><ele></ele><time>2016-8-31T0:27:42Z</time></trkpt>
<trkpt lat="46.17809" lon="7.34176"><ele></ele><time>2016-8-31T0:27:45Z</time></trkpt>
<trkpt lat="46.17813" lon="7.34168"><ele></ele><time>2016-8-31T0:27:48Z</time></trkpt>
<trkpt lat="46.17816" lon="7.34159"><ele></ele><time>2016-8-31T0:27:51Z</time></trkpt>
<trkpt lat="46.17814" lon="7.3415"><ele></ele><time>2016-8-31T0:27:54Z</time></trkpt>
<trkpt lat="46.17812" lon="7.34142"><ele></ele><time>2016-8-31T0:27:57Z</time></trkpt>
<trkpt lat="46.17811" lon="7.34134"><ele></ele><time>2016-8-31T0:28:0Z</time></trkpt>
<trkpt lat="46.17809" lon="7.34126"><ele></ele><time>2016-8-31T0:28:3Z</time></trkpt>
<trkpt lat="46.17807" lon="7.34118"><ele></ele><time>2016-8-31T0:28:6Z</time></trkpt>
<trkpt lat="46.17805" lon="7.3411"><ele></ele><time>2016-8-31T0:28:9Z</time></trkpt>
<trkpt lat="46.17803" lon="7.34102"><ele></ele><time>2016-8-31T0:28:12Z</time></trkpt>
<trkpt lat="46.17801" lon="7.34094"><ele></ele><time>2016-8-31T0:28:15Z</time></trkpt>
<trkpt lat="46.178" lon="7.34087"><ele></ele><time>2016-8-31T0:28:18Z</time></trkpt>
<trkpt lat="46.17799" lon="7.34081"><ele></ele><time>2016-8-31T0:28:21Z</time></trkpt>
<trkpt lat="46.17798" lon="7.34074"><ele></ele><time>2016-8-31T0:28:24Z</time></trkpt>
<trkpt lat="46.17797" lon="7.34068"><ele></ele><time>2016-8-31T0:28:27Z</time></trkpt>
<trkpt lat="46.17796" lon="7.34061"><ele></ele><time>2016-8-31T0:28:30Z</time></trkpt>
<trkpt lat="46.17795" lon="7.34055"><ele></ele><time>2016-8-31T0:28:33Z</time></trkpt>
<trkpt lat="46.17795" lon="7.34048"><ele></ele><time>2016-8-31T0:28:36Z</time></trkpt>
<trkpt lat="46.17794" lon="7.34042"><ele></ele><time>2016-8-31T0:28:39Z</time></trkpt>
<trkpt lat="46.17793" lon="7.34035"><ele></ele><time>2016-8-31T0:28:42Z</time></trkpt>
<trkpt lat="46.17792" lon="7.34028"><ele></ele><time>2016-8-31T0:28:45Z</time></trkpt>
<trkpt lat="46.17792" lon="7.34023"><ele></ele><time>2016-8-31T0:28:48Z</time></trkpt>
<trkpt lat="46.17792" lon="7.34017"><ele></ele><time>2016-8-31T0:28:51Z</time></trkpt>
<trkpt lat="46.17792" lon="7.34012"><ele></ele><time>2016-8-31T0:28:54Z</time></trkpt>
<trkpt lat="46.17792" lon="7.34006"><ele></ele><time>2016-8-31T0:28:57Z</time></trkpt>
<trkpt lat="46.17792" lon="7.34"><ele></ele><time>2016-8-31T0:29:0Z</time></trkpt>
<trkpt lat="46.17792" lon="7.33995"><ele></ele><time>2016-8-31T0:29:3Z</time></trkpt>
<trkpt lat="46.17792" lon="7.33989"><ele></ele><time>2016-8-31T0:29:6Z</time></trkpt>
<trkpt lat="46.17792" lon="7.33983"><ele></ele><time>2016-8-31T0:29:9Z</time></trkpt>
<trkpt lat="46.17792" lon="7.33978"><ele></ele><time>2016-8-31T0:29:12Z</time></trkpt>
<trkpt lat="46.17789" lon="7.33973"><ele></ele><time>2016-8-31T0:29:15Z</time></trkpt>
<trkpt lat="46.17787" lon="7.33968"><ele></ele><time>2016-8-31T0:29:18Z</time></trkpt>
<trkpt lat="46.17784" lon="7.33963"><ele></ele><time>2016-8-31T0:29:21Z</time></trkpt>
<trkpt lat="46.17782" lon="7.33958"><ele></ele><time>2016-8-31T0:29:24Z</time></trkpt>
<trkpt lat="46.17779" lon="7.33953"><ele></ele><time>2016-8-31T0:29:27Z</time></trkpt>
<trkpt lat="46.17777" lon="7.33948"><ele></ele><time>2016-8-31T0:29:30Z</time></trkpt>
<trkpt lat="46.17774" lon="7.33943"><ele></ele><time>2016-8-31T0:29:33Z</time></trkpt>
<trkpt lat="46.17772" lon="7.33939"><ele></ele><time>2016-8-31T0:29:36Z</time></trkpt>
<trkpt lat="46.17769" lon="7.33934"><ele></ele><time>2016-8-31T0:29:39Z</time></trkpt>
<trkpt lat="46.17767" lon="7.33929"><ele></ele><time>2016-8-31T0:29:42Z</time></trkpt>
<trkpt lat="46.17764" lon="7.33924"><ele></ele><time>2016-8-31T0:29:45Z</time></trkpt>
<trkpt lat="46.17764" lon="7.33918"><ele></ele><time>2016-8-31T0:29:48Z</time></trkpt>
<trkpt lat="46.17764" lon="7.33911"><ele></ele><time>2016-8-31T0:29:51Z</time></trkpt>
<trkpt lat="46.17764" lon="7.33905"><ele></ele><time>2016-8-31T0:29:54Z</time></trkpt>
<trkpt lat="46.17765" lon="7.33899"><ele></ele><time>2016-8-31T0:29:57Z</time></trkpt>
<trkpt lat="46.17765" lon="7.33892"><ele></ele><time>2016-8-31T0:30:0Z</time></trkpt>
<trkpt lat="46.17765" lon="7.33886"><ele></ele><time>2016-8-31T0:30:3Z</time></trkpt>
<trkpt lat="46.17765" lon="7.3388"><ele></ele><time>2016-8-31T0:30:6Z</time></trkpt>
<trkpt lat="46.17765" lon="7.33877"><ele></ele><time>2016-8-31T0:30:9Z</time></trkpt>
<trkpt lat="46.17766" lon="7.33873"><ele></ele><time>2016-8-31T0:30:12Z</time></trkpt>
<trkpt lat="46.17766" lon="7.33867"><ele></ele><time>2016-8-31T0:30:15Z</time></trkpt>
<trkpt lat="46.17764" lon="7.33862"><ele></ele><time>2016-8-31T0:30:18Z</time></trkpt>
<trkpt lat="46.17763" lon="7.33856"><ele></ele><time>2016-8-31T0:30:21Z</time></trkpt>
<trkpt lat="46.17762" lon="7.33851"><ele></ele><time>2016-8-31T0:30:24Z</time></trkpt>
<trkpt lat="46.1776" lon="7.33846"><ele></ele><time>2016-8-31T0:30:27Z</time></trkpt>
<trkpt lat="46.17759" lon="7.33841"><ele></ele><time>2016-8-31T0:30:30Z</time></trkpt>
<trkpt lat="46.17758" lon="7.33835"><ele></ele><time>2016-8-31T0:30:33Z</time></trkpt>
<trkpt lat="46.17756" lon="7.3383"><ele></ele><time>2016-8-31T0:30:36Z</time></trkpt>
<trkpt lat="46.17755" lon="7.33825"><ele></ele><time>2016-8-31T0:30:39Z</time></trkpt>
<trkpt lat="46.17753" lon="7.33819"><ele></ele><time>2016-8-31T0:30:42Z</time></trkpt>
<trkpt lat="46.17752" lon="7.33814"><ele></ele><time>2016-8-31T0:30:45Z</time></trkpt>
<trkpt lat="46.17751" lon="7.33809"><ele></ele><time>2016-8-31T0:30:48Z</time></trkpt>
<trkpt lat="46.1775" lon="7.33806"><ele></ele><time>2016-8-31T0:30:51Z</time></trkpt>
<trkpt lat="46.1775" lon="7.33803"><ele></ele><time>2016-8-31T0:30:54Z</time></trkpt>
<trkpt lat="46.17749" lon="7.33797"><ele></ele><time>2016-8-31T0:30:57Z</time></trkpt>
<trkpt lat="46.17748" lon="7.33791"><ele></ele><time>2016-8-31T0:31:0Z</time></trkpt>
<trkpt lat="46.17747" lon="7.33785"><ele></ele><time>2016-8-31T0:31:3Z</time></trkpt>
<trkpt lat="46.17747" lon="7.33779"><ele></ele><time>2016-8-31T0:31:6Z</time></trkpt>
<trkpt lat="46.17746" lon="7.33773"><ele></ele><time>2016-8-31T0:31:9Z</time></trkpt>
<trkpt lat="46.17745" lon="7.33767"><ele></ele><time>2016-8-31T0:31:12Z</time></trkpt>
<trkpt lat="46.17744" lon="7.33761"><ele></ele><time>2016-8-31T0:31:15Z</time></trkpt>
<trkpt lat="46.17744" lon="7.33755"><ele></ele><time>2016-8-31T0:31:18Z</time></trkpt>
<trkpt lat="46.17743" lon="7.33749"><ele></ele><time>2016-8-31T0:31:21Z</time></trkpt>
<trkpt lat="46.17742" lon="7.33743"><ele></ele><time>2016-8-31T0:31:24Z</time></trkpt>
<trkpt lat="46.17742" lon="7.3374"><ele></ele><time>2016-8-31T0:31:27Z</time></trkpt>
<trkpt lat="46.17742" lon="7.33737"><ele></ele><time>2016-8-31T0:31:30Z</time></trkpt>
<trkpt lat="46.17743" lon="7.3373"><ele></ele><time>2016-8-31T0:31:33Z</time></trkpt>
<trkpt lat="46.17744" lon="7.33724"><ele></ele><time>2016-8-31T0:31:36Z</time></trkpt>
<trkpt lat="46.17745" lon="7.33717"><ele></ele><time>2016-8-31T0:31:39Z</time></trkpt>
<trkpt lat="46.17746" lon="7.3371"><ele></ele><time>2016-8-31T0:31:42Z</time></trkpt>
<trkpt lat="46.17747" lon="7.33704"><ele></ele><time>2016-8-31T0:31:45Z</time></trkpt>
<trkpt lat="46.17748" lon="7.33697"><ele></ele><time>2016-8-31T0:31:48Z</time></trkpt>
<trkpt lat="46.17748" lon="7.3369"><ele></ele><time>2016-8-31T0:31:51Z</time></trkpt>
<trkpt lat="46.17749" lon="7.33683"><ele></ele><time>2016-8-31T0:31:54Z</time></trkpt>
<trkpt lat="46.17747" lon="7.33679"><ele></ele><time>2016-8-31T0:31:57Z</time></trkpt>
<trkpt lat="46.17744" lon="7.33674"><ele></ele><time>2016-8-31T0:32:0Z</time></trkpt>
<trkpt lat="46.17741" lon="7.3367"><ele></ele><time>2016-8-31T0:32:3Z</time></trkpt>
<trkpt lat="46.17738" lon="7.33665"><ele></ele><time>2016-8-31T0:32:6Z</time></trkpt>
<trkpt lat="46.17735" lon="7.3366"><ele></ele><time>2016-8-31T0:32:9Z</time></trkpt>
<trkpt lat="46.17732" lon="7.33656"><ele></ele><time>2016-8-31T0:32:12Z</time></trkpt>
<trkpt lat="46.17729" lon="7.33651"><ele></ele><time>2016-8-31T0:32:15Z</time></trkpt>
<trkpt lat="46.17726" lon="7.33647"><ele></ele><time>2016-8-31T0:32:18Z</time></trkpt>
<trkpt lat="46.17724" lon="7.33642"><ele></ele><time>2016-8-31T0:32:21Z</time></trkpt>
<trkpt lat="46.17721" lon="7.33638"><ele></ele><time>2016-8-31T0:32:24Z</time></trkpt>
<trkpt lat="46.17719" lon="7.33635"><ele></ele><time>2016-8-31T0:32:27Z</time></trkpt>
<trkpt lat="46.17718" lon="7.33632"><ele></ele><time>2016-8-31T0:32:30Z</time></trkpt>
<trkpt lat="46.17717" lon="7.33626"><ele></ele><time>2016-8-31T0:32:33Z</time></trkpt>
<trkpt lat="46.17715" lon="7.33619"><ele></ele><time>2016-8-31T0:32:36Z</time></trkpt>
<trkpt lat="46.17714" lon="7.33613"><ele></ele><time>2016-8-31T0:32:39Z</time></trkpt>
<trkpt lat="46.17712" lon="7.33606"><ele></ele><time>2016-8-31T0:32:42Z</time></trkpt>
<trkpt lat="46.1771" lon="7.336"><ele></ele><time>2016-8-31T0:32:45Z</time></trkpt>
<trkpt lat="46.17709" lon="7.33593"><ele></ele><time>2016-8-31T0:32:48Z</time></trkpt>
<trkpt lat="46.17707" lon="7.33587"><ele></ele><time>2016-8-31T0:32:51Z</time></trkpt>
<trkpt lat="46.17706" lon="7.3358"><ele></ele><time>2016-8-31T0:32:54Z</time></trkpt>
<trkpt lat="46.17704" lon="7.33574"><ele></ele><time>2016-8-31T0:32:57Z</time></trkpt>
<trkpt lat="46.17701" lon="7.3357"><ele></ele><time>2016-8-31T0:33:0Z</time></trkpt>
<trkpt lat="46.17698" lon="7.33567"><ele></ele><time>2016-8-31T0:33:3Z</time></trkpt>
<trkpt lat="46.17694" lon="7.33564"><ele></ele><time>2016-8-31T0:33:6Z</time></trkpt>
<trkpt lat="46.17691" lon="7.3356"><ele></ele><time>2016-8-31T0:33:9Z</time></trkpt>
<trkpt lat="46.17689" lon="7.33558"><ele></ele><time>2016-8-31T0:33:12Z</time></trkpt>
<trkpt lat="46.17688" lon="7.33557"><ele></ele><time>2016-8-31T0:33:15Z</time></trkpt>
<trkpt lat="46.17685" lon="7.33553"><ele></ele><time>2016-8-31T0:33:18Z</time></trkpt>
<trkpt lat="46.17681" lon="7.3355"><ele></ele><time>2016-8-31T0:33:21Z</time></trkpt>
<trkpt lat="46.17678" lon="7.33546"><ele></ele><time>2016-8-31T0:33:24Z</time></trkpt>
<trkpt lat="46.17675" lon="7.33543"><ele></ele><time>2016-8-31T0:33:27Z</time></trkpt>
<trkpt lat="46.17672" lon="7.3354"><ele></ele><time>2016-8-31T0:33:30Z</time></trkpt>
<trkpt lat="46.1767" lon="7.33538"><ele></ele><time>2016-8-31T0:33:33Z</time></trkpt>
<trkpt lat="46.17668" lon="7.33536"><ele></ele><time>2016-8-31T0:33:36Z</time></trkpt>
<trkpt lat="46.17667" lon="7.33535"><ele></ele><time>2016-8-31T0:33:39Z</time></trkpt>
<trkpt lat="46.17665" lon="7.33533"><ele></ele><time>2016-8-31T0:33:42Z</time></trkpt>
<trkpt lat="46.17662" lon="7.33529"><ele></ele><time>2016-8-31T0:33:45Z</time></trkpt>
<trkpt lat="46.1766" lon="7.33527"><ele></ele><time>2016-8-31T0:33:48Z</time></trkpt>
<trkpt lat="46.17659" lon="7.33526"><ele></ele><time>2016-8-31T0:33:51Z</time></trkpt>
<trkpt lat="46.17655" lon="7.33522"><ele></ele><time>2016-8-31T0:33:54Z</time></trkpt>
<trkpt lat="46.17652" lon="7.33518"><ele></ele><time>2016-8-31T0:33:57Z</time></trkpt>
<trkpt lat="46.17649" lon="7.33515"><ele></ele><time>2016-8-31T0:34:0Z</time></trkpt>
<trkpt lat="46.17646" lon="7.33511"><ele></ele><time>2016-8-31T0:34:3Z</time></trkpt>
<trkpt lat="46.17642" lon="7.33508"><ele></ele><time>2016-8-31T0:34:6Z</time></trkpt>
<trkpt lat="46.17639" lon="7.33504"><ele></ele><time>2016-8-31T0:34:9Z</time></trkpt>
<trkpt lat="46.17636" lon="7.335"><ele></ele><time>2016-8-31T0:34:12Z</time></trkpt>
<trkpt lat="46.17633" lon="7.33497"><ele></ele><time>2016-8-31T0:34:15Z</time></trkpt>
<trkpt lat="46.17629" lon="7.33493"><ele></ele><time>2016-8-31T0:34:18Z</time></trkpt>
<trkpt lat="46.17625" lon="7.33491"><ele></ele><time>2016-8-31T0:34:21Z</time></trkpt>
<trkpt lat="46.17623" lon="7.33489"><ele></ele><time>2016-8-31T0:34:24Z</time></trkpt>
<trkpt lat="46.17621" lon="7.33488"><ele></ele><time>2016-8-31T0:34:27Z</time></trkpt>
<trkpt lat="46.17617" lon="7.33485"><ele></ele><time>2016-8-31T0:34:30Z</time></trkpt>
<trkpt lat="46.17613" lon="7.33483"><ele></ele><time>2016-8-31T0:34:33Z</time></trkpt>
<trkpt lat="46.17609" lon="7.3348"><ele></ele><time>2016-8-31T0:34:36Z</time></trkpt>
<trkpt lat="46.17605" lon="7.33478"><ele></ele><time>2016-8-31T0:34:39Z</time></trkpt>
<trkpt lat="46.17601" lon="7.33475"><ele></ele><time>2016-8-31T0:34:42Z</time></trkpt>
<trkpt lat="46.17596" lon="7.33473"><ele></ele><time>2016-8-31T0:34:45Z</time></trkpt>
<trkpt lat="46.17592" lon="7.3347"><ele></ele><time>2016-8-31T0:34:48Z</time></trkpt>
<trkpt lat="46.17588" lon="7.33467"><ele></ele><time>2016-8-31T0:34:51Z</time></trkpt>
<trkpt lat="46.17586" lon="7.33466"><ele></ele><time>2016-8-31T0:34:54Z</time></trkpt>
<trkpt lat="46.17584" lon="7.33466"><ele></ele><time>2016-8-31T0:34:57Z</time></trkpt>
<trkpt lat="46.17582" lon="7.33466"><ele></ele><time>2016-8-31T0:35:0Z</time></trkpt>
<trkpt lat="46.1758" lon="7.33465"><ele></ele><time>2016-8-31T0:35:3Z</time></trkpt>
<trkpt lat="46.17575" lon="7.33465"><ele></ele><time>2016-8-31T0:35:6Z</time></trkpt>
<trkpt lat="46.17571" lon="7.33465"><ele></ele><time>2016-8-31T0:35:9Z</time></trkpt>
<trkpt lat="46.17567" lon="7.33464"><ele></ele><time>2016-8-31T0:35:12Z</time></trkpt>
<trkpt lat="46.17562" lon="7.33464"><ele></ele><time>2016-8-31T0:35:15Z</time></trkpt>
<trkpt lat="46.17558" lon="7.33464"><ele></ele><time>2016-8-31T0:35:18Z</time></trkpt>
<trkpt lat="46.17554" lon="7.33463"><ele></ele><time>2016-8-31T0:35:21Z</time></trkpt>
<trkpt lat="46.17549" lon="7.33463"><ele></ele><time>2016-8-31T0:35:24Z</time></trkpt>
<trkpt lat="46.17545" lon="7.33463"><ele></ele><time>2016-8-31T0:35:27Z</time></trkpt>
<trkpt lat="46.17541" lon="7.33462"><ele></ele><time>2016-8-31T0:35:30Z</time></trkpt>
<trkpt lat="46.17536" lon="7.33463"><ele></ele><time>2016-8-31T0:35:33Z</time></trkpt>
<trkpt lat="46.17531" lon="7.33464"><ele></ele><time>2016-8-31T0:35:36Z</time></trkpt>
<trkpt lat="46.17527" lon="7.33465"><ele></ele><time>2016-8-31T0:35:39Z</time></trkpt>
<trkpt lat="46.17522" lon="7.33466"><ele></ele><time>2016-8-31T0:35:42Z</time></trkpt>
<trkpt lat="46.17518" lon="7.33467"><ele></ele><time>2016-8-31T0:35:45Z</time></trkpt>
<trkpt lat="46.17513" lon="7.33468"><ele></ele><time>2016-8-31T0:35:48Z</time></trkpt>
<trkpt lat="46.17509" lon="7.33469"><ele></ele><time>2016-8-31T0:35:51Z</time></trkpt>
<trkpt lat="46.17504" lon="7.3347"><ele></ele><time>2016-8-31T0:35:54Z</time></trkpt>
<trkpt lat="46.17499" lon="7.33471"><ele></ele><time>2016-8-31T0:35:57Z</time></trkpt>
<trkpt lat="46.17495" lon="7.33472"><ele></ele><time>2016-8-31T0:36:0Z</time></trkpt>
<trkpt lat="46.17491" lon="7.33474"><ele></ele><time>2016-8-31T0:36:3Z</time></trkpt>
<trkpt lat="46.17487" lon="7.33477"><ele></ele><time>2016-8-31T0:36:6Z</time></trkpt>
<trkpt lat="46.17483" lon="7.33479"><ele></ele><time>2016-8-31T0:36:9Z</time></trkpt>
<trkpt lat="46.17481" lon="7.3348"><ele></ele><time>2016-8-31T0:36:12Z</time></trkpt>
<trkpt lat="46.17479" lon="7.33481"><ele></ele><time>2016-8-31T0:36:15Z</time></trkpt>
<trkpt lat="46.17477" lon="7.33482"><ele></ele><time>2016-8-31T0:36:18Z</time></trkpt>
<trkpt lat="46.17475" lon="7.33483"><ele></ele><time>2016-8-31T0:36:21Z</time></trkpt>
<trkpt lat="46.17472" lon="7.33486"><ele></ele><time>2016-8-31T0:36:24Z</time></trkpt>
<trkpt lat="46.17468" lon="7.33488"><ele></ele><time>2016-8-31T0:36:27Z</time></trkpt>
<trkpt lat="46.17464" lon="7.3349"><ele></ele><time>2016-8-31T0:36:30Z</time></trkpt>
<trkpt lat="46.1746" lon="7.33492"><ele></ele><time>2016-8-31T0:36:33Z</time></trkpt>
<trkpt lat="46.17456" lon="7.33495"><ele></ele><time>2016-8-31T0:36:36Z</time></trkpt>
<trkpt lat="46.17452" lon="7.33497"><ele></ele><time>2016-8-31T0:36:39Z</time></trkpt>
<trkpt lat="46.17448" lon="7.33497"><ele></ele><time>2016-8-31T0:36:42Z</time></trkpt>
<trkpt lat="46.17444" lon="7.33497"><ele></ele><time>2016-8-31T0:36:45Z</time></trkpt>
<trkpt lat="46.1744" lon="7.33497"><ele></ele><time>2016-8-31T0:36:48Z</time></trkpt>
<trkpt lat="46.17436" lon="7.33497"><ele></ele><time>2016-8-31T0:36:51Z</time></trkpt>
<trkpt lat="46.17432" lon="7.33497"><ele></ele><time>2016-8-31T0:36:54Z</time></trkpt>
<trkpt lat="46.17428" lon="7.33497"><ele></ele><time>2016-8-31T0:36:57Z</time></trkpt>
<trkpt lat="46.17424" lon="7.33497"><ele></ele><time>2016-8-31T0:37:0Z</time></trkpt>
<trkpt lat="46.1742" lon="7.33497"><ele></ele><time>2016-8-31T0:37:3Z</time></trkpt>
<trkpt lat="46.17416" lon="7.33497"><ele></ele><time>2016-8-31T0:37:6Z</time></trkpt>
<trkpt lat="46.17412" lon="7.33497"><ele></ele><time>2016-8-31T0:37:9Z</time></trkpt>
<trkpt lat="46.17408" lon="7.33497"><ele></ele><time>2016-8-31T0:37:12Z</time></trkpt>
<trkpt lat="46.17406" lon="7.33497"><ele></ele><time>2016-8-31T0:37:15Z</time></trkpt>
<trkpt lat="46.17404" lon="7.33496"><ele></ele><time>2016-8-31T0:37:18Z</time></trkpt>
<trkpt lat="46.174" lon="7.33493"><ele></ele><time>2016-8-31T0:37:21Z</time></trkpt>
<trkpt lat="46.17397" lon="7.33491"><ele></ele><time>2016-8-31T0:37:24Z</time></trkpt>
<trkpt lat="46.17393" lon="7.33488"><ele></ele><time>2016-8-31T0:37:27Z</time></trkpt>
<trkpt lat="46.17389" lon="7.33486"><ele></ele><time>2016-8-31T0:37:30Z</time></trkpt>
<trkpt lat="46.17385" lon="7.33483"><ele></ele><time>2016-8-31T0:37:33Z</time></trkpt>
<trkpt lat="46.17383" lon="7.33482"><ele></ele><time>2016-8-31T0:37:36Z</time></trkpt>
<trkpt lat="46.17381" lon="7.33481"><ele></ele><time>2016-8-31T0:37:39Z</time></trkpt>
<trkpt lat="46.17378" lon="7.33478"><ele></ele><time>2016-8-31T0:37:42Z</time></trkpt>
<trkpt lat="46.17374" lon="7.33476"><ele></ele><time>2016-8-31T0:37:45Z</time></trkpt>
<trkpt lat="46.17372" lon="7.33475"><ele></ele><time>2016-8-31T0:37:48Z</time></trkpt>
<trkpt lat="46.17372" lon="7.33477"><ele></ele><time>2016-8-31T0:37:51Z</time></trkpt>
<trkpt lat="46.17371" lon="7.33483"><ele></ele><time>2016-8-31T0:37:54Z</time></trkpt>
<trkpt lat="46.17371" lon="7.33486"><ele></ele><time>2016-8-31T0:37:57Z</time></trkpt>
<trkpt lat="46.17372" lon="7.33487"><ele></ele><time>2016-8-31T0:38:0Z</time></trkpt>
<trkpt lat="46.17375" lon="7.3349"><ele></ele><time>2016-8-31T0:38:3Z</time></trkpt>
<trkpt lat="46.17378" lon="7.33492"><ele></ele><time>2016-8-31T0:38:6Z</time></trkpt>
<trkpt lat="46.1738" lon="7.33494"><ele></ele><time>2016-8-31T0:38:9Z</time></trkpt>
<trkpt lat="46.17383" lon="7.33496"><ele></ele><time>2016-8-31T0:38:12Z</time></trkpt>
<trkpt lat="46.17385" lon="7.33499"><ele></ele><time>2016-8-31T0:38:15Z</time></trkpt>
<trkpt lat="46.17388" lon="7.33501"><ele></ele><time>2016-8-31T0:38:18Z</time></trkpt>
<trkpt lat="46.17391" lon="7.33503"><ele></ele><time>2016-8-31T0:38:21Z</time></trkpt>
<trkpt lat="46.17393" lon="7.33505"><ele></ele><time>2016-8-31T0:38:24Z</time></trkpt>
<trkpt lat="46.17396" lon="7.33508"><ele></ele><time>2016-8-31T0:38:27Z</time></trkpt>
<trkpt lat="46.17399" lon="7.3351"><ele></ele><time>2016-8-31T0:38:30Z</time></trkpt>
<trkpt lat="46.17401" lon="7.33512"><ele></ele><time>2016-8-31T0:38:33Z</time></trkpt>
<trkpt lat="46.17404" lon="7.33514"><ele></ele><time>2016-8-31T0:38:36Z</time></trkpt>
<trkpt lat="46.17406" lon="7.33517"><ele></ele><time>2016-8-31T0:38:39Z</time></trkpt>
<trkpt lat="46.17409" lon="7.33519"><ele></ele><time>2016-8-31T0:38:42Z</time></trkpt>
<trkpt lat="46.1741" lon="7.3352"><ele></ele><time>2016-8-31T0:38:45Z</time></trkpt>
<trkpt lat="46.17412" lon="7.3352"><ele></ele><time>2016-8-31T0:38:48Z</time></trkpt>
<trkpt lat="46.17416" lon="7.33521"><ele></ele><time>2016-8-31T0:38:51Z</time></trkpt>
<trkpt lat="46.17419" lon="7.33521"><ele></ele><time>2016-8-31T0:38:54Z</time></trkpt>
<trkpt lat="46.17423" lon="7.33522"><ele></ele><time>2016-8-31T0:38:57Z</time></trkpt>
<trkpt lat="46.17426" lon="7.33522"><ele></ele><time>2016-8-31T0:39:0Z</time></trkpt>
<trkpt lat="46.1743" lon="7.33523"><ele></ele><time>2016-8-31T0:39:3Z</time></trkpt>
<trkpt lat="46.17433" lon="7.33523"><ele></ele><time>2016-8-31T0:39:6Z</time></trkpt>
<trkpt lat="46.17437" lon="7.33524"><ele></ele><time>2016-8-31T0:39:9Z</time></trkpt>
<trkpt lat="46.1744" lon="7.33524"><ele></ele><time>2016-8-31T0:39:12Z</time></trkpt>
<trkpt lat="46.17444" lon="7.33525"><ele></ele><time>2016-8-31T0:39:15Z</time></trkpt>
<trkpt lat="46.17447" lon="7.33525"><ele></ele><time>2016-8-31T0:39:18Z</time></trkpt>
<trkpt lat="46.17451" lon="7.33526"><ele></ele><time>2016-8-31T0:39:21Z</time></trkpt>
<trkpt lat="46.17455" lon="7.33526"><ele></ele><time>2016-8-31T0:39:24Z</time></trkpt>
<trkpt lat="46.17456" lon="7.33526"><ele></ele><time>2016-8-31T0:39:27Z</time></trkpt>
<trkpt lat="46.17458" lon="7.33526"><ele></ele><time>2016-8-31T0:39:30Z</time></trkpt>
<trkpt lat="46.1746" lon="7.33526"><ele></ele><time>2016-8-31T0:39:33Z</time></trkpt>
<trkpt lat="46.17462" lon="7.33526"><ele></ele><time>2016-8-31T0:39:36Z</time></trkpt>
<trkpt lat="46.17466" lon="7.33526"><ele></ele><time>2016-8-31T0:39:39Z</time></trkpt>
<trkpt lat="46.17469" lon="7.33525"><ele></ele><time>2016-8-31T0:39:42Z</time></trkpt>
<trkpt lat="46.17473" lon="7.33525"><ele></ele><time>2016-8-31T0:39:45Z</time></trkpt>
<trkpt lat="46.17477" lon="7.33525"><ele></ele><time>2016-8-31T0:39:48Z</time></trkpt>
<trkpt lat="46.1748" lon="7.33525"><ele></ele><time>2016-8-31T0:39:51Z</time></trkpt>
<trkpt lat="46.17484" lon="7.33524"><ele></ele><time>2016-8-31T0:39:54Z</time></trkpt>
<trkpt lat="46.17488" lon="7.33524"><ele></ele><time>2016-8-31T0:39:57Z</time></trkpt>
<trkpt lat="46.17491" lon="7.33524"><ele></ele><time>2016-8-31T0:40:0Z</time></trkpt>
<trkpt lat="46.17495" lon="7.33524"><ele></ele><time>2016-8-31T0:40:3Z</time></trkpt>
<trkpt lat="46.17499" lon="7.33523"><ele></ele><time>2016-8-31T0:40:6Z</time></trkpt>
<trkpt lat="46.17502" lon="7.33523"><ele></ele><time>2016-8-31T0:40:9Z</time></trkpt>
<trkpt lat="46.17506" lon="7.33523"><ele></ele><time>2016-8-31T0:40:12Z</time></trkpt>
<trkpt lat="46.17509" lon="7.33523"><ele></ele><time>2016-8-31T0:40:15Z</time></trkpt>
<trkpt lat="46.17512" lon="7.33524"><ele></ele><time>2016-8-31T0:40:18Z</time></trkpt>
<trkpt lat="46.17516" lon="7.33524"><ele></ele><time>2016-8-31T0:40:21Z</time></trkpt>
<trkpt lat="46.17519" lon="7.33524"><ele></ele><time>2016-8-31T0:40:24Z</time></trkpt>
<trkpt lat="46.17522" lon="7.33524"><ele></ele><time>2016-8-31T0:40:27Z</time></trkpt>
<trkpt lat="46.17526" lon="7.33524"><ele></ele><time>2016-8-31T0:40:30Z</time></trkpt>
<trkpt lat="46.17529" lon="7.33525"><ele></ele><time>2016-8-31T0:40:33Z</time></trkpt>
<trkpt lat="46.17532" lon="7.33525"><ele></ele><time>2016-8-31T0:40:36Z</time></trkpt>
<trkpt lat="46.17536" lon="7.33525"><ele></ele><time>2016-8-31T0:40:39Z</time></trkpt>
<trkpt lat="46.17539" lon="7.33525"><ele></ele><time>2016-8-31T0:40:42Z</time></trkpt>
<trkpt lat="46.17542" lon="7.33525"><ele></ele><time>2016-8-31T0:40:45Z</time></trkpt>
<trkpt lat="46.17546" lon="7.33526"><ele></ele><time>2016-8-31T0:40:48Z</time></trkpt>
<trkpt lat="46.17547" lon="7.33526"><ele></ele><time>2016-8-31T0:40:51Z</time></trkpt>
<trkpt lat="46.17548" lon="7.33527"><ele></ele><time>2016-8-31T0:40:54Z</time></trkpt>
<trkpt lat="46.1755" lon="7.33531"><ele></ele><time>2016-8-31T0:40:57Z</time></trkpt>
<trkpt lat="46.17552" lon="7.33535"><ele></ele><time>2016-8-31T0:41:0Z</time></trkpt>
<trkpt lat="46.17553" lon="7.33539"><ele></ele><time>2016-8-31T0:41:3Z</time></trkpt>
<trkpt lat="46.17555" lon="7.33543"><ele></ele><time>2016-8-31T0:41:6Z</time></trkpt>
<trkpt lat="46.17557" lon="7.33547"><ele></ele><time>2016-8-31T0:41:9Z</time></trkpt>
<trkpt lat="46.17559" lon="7.33552"><ele></ele><time>2016-8-31T0:41:12Z</time></trkpt>
<trkpt lat="46.1756" lon="7.33556"><ele></ele><time>2016-8-31T0:41:15Z</time></trkpt>
<trkpt lat="46.17562" lon="7.3356"><ele></ele><time>2016-8-31T0:41:18Z</time></trkpt>
<trkpt lat="46.17564" lon="7.33564"><ele></ele><time>2016-8-31T0:41:21Z</time></trkpt>
<trkpt lat="46.17565" lon="7.33568"><ele></ele><time>2016-8-31T0:41:24Z</time></trkpt>
<trkpt lat="46.17567" lon="7.33572"><ele></ele><time>2016-8-31T0:41:27Z</time></trkpt>
<trkpt lat="46.17569" lon="7.33576"><ele></ele><time>2016-8-31T0:41:30Z</time></trkpt>
<trkpt lat="46.1757" lon="7.3358"><ele></ele><time>2016-8-31T0:41:33Z</time></trkpt>
<trkpt lat="46.17571" lon="7.33582"><ele></ele><time>2016-8-31T0:41:36Z</time></trkpt>
<trkpt lat="46.17572" lon="7.33583"><ele></ele><time>2016-8-31T0:41:39Z</time></trkpt>
<trkpt lat="46.17574" lon="7.33587"><ele></ele><time>2016-8-31T0:41:42Z</time></trkpt>
<trkpt lat="46.17574" lon="7.33589"><ele></ele><time>2016-8-31T0:41:45Z</time></trkpt>
<trkpt lat="46.17575" lon="7.3359"><ele></ele><time>2016-8-31T0:41:48Z</time></trkpt>
<trkpt lat="46.17577" lon="7.33594"><ele></ele><time>2016-8-31T0:41:51Z</time></trkpt>
<trkpt lat="46.17578" lon="7.33597"><ele></ele><time>2016-8-31T0:41:54Z</time></trkpt>
<trkpt lat="46.1758" lon="7.33601"><ele></ele><time>2016-8-31T0:41:57Z</time></trkpt>
<trkpt lat="46.17581" lon="7.33604"><ele></ele><time>2016-8-31T0:42:0Z</time></trkpt>
<trkpt lat="46.17583" lon="7.33608"><ele></ele><time>2016-8-31T0:42:3Z</time></trkpt>
<trkpt lat="46.17585" lon="7.33611"><ele></ele><time>2016-8-31T0:42:6Z</time></trkpt>
<trkpt lat="46.17586" lon="7.33615"><ele></ele><time>2016-8-31T0:42:9Z</time></trkpt>
<trkpt lat="46.17588" lon="7.33618"><ele></ele><time>2016-8-31T0:42:12Z</time></trkpt>
<trkpt lat="46.17589" lon="7.33621"><ele></ele><time>2016-8-31T0:42:15Z</time></trkpt>
<trkpt lat="46.17591" lon="7.33625"><ele></ele><time>2016-8-31T0:42:18Z</time></trkpt>
<trkpt lat="46.17592" lon="7.33627"><ele></ele><time>2016-8-31T0:42:21Z</time></trkpt>
<trkpt lat="46.17592" lon="7.33628"><ele></ele><time>2016-8-31T0:42:24Z</time></trkpt>
<trkpt lat="46.17594" lon="7.33632"><ele></ele><time>2016-8-31T0:42:27Z</time></trkpt>
<trkpt lat="46.17595" lon="7.33635"><ele></ele><time>2016-8-31T0:42:30Z</time></trkpt>
<trkpt lat="46.17596" lon="7.33637"><ele></ele><time>2016-8-31T0:42:33Z</time></trkpt>
<trkpt lat="46.17597" lon="7.33639"><ele></ele><time>2016-8-31T0:42:36Z</time></trkpt>
<trkpt lat="46.17598" lon="7.33644"><ele></ele><time>2016-8-31T0:42:39Z</time></trkpt>
<trkpt lat="46.17599" lon="7.33648"><ele></ele><time>2016-8-31T0:42:42Z</time></trkpt>
<trkpt lat="46.17599" lon="7.33652"><ele></ele><time>2016-8-31T0:42:45Z</time></trkpt>
<trkpt lat="46.176" lon="7.33657"><ele></ele><time>2016-8-31T0:42:48Z</time></trkpt>
<trkpt lat="46.17601" lon="7.33661"><ele></ele><time>2016-8-31T0:42:51Z</time></trkpt>
<trkpt lat="46.17602" lon="7.33666"><ele></ele><time>2016-8-31T0:42:54Z</time></trkpt>
<trkpt lat="46.17603" lon="7.3367"><ele></ele><time>2016-8-31T0:42:57Z</time></trkpt>
<trkpt lat="46.17604" lon="7.33675"><ele></ele><time>2016-8-31T0:43:0Z</time></trkpt>
<trkpt lat="46.17605" lon="7.33679"><ele></ele><time>2016-8-31T0:43:3Z</time></trkpt>
<trkpt lat="46.17606" lon="7.33684"><ele></ele><time>2016-8-31T0:43:6Z</time></trkpt>
<trkpt lat="46.17607" lon="7.33688"><ele></ele><time>2016-8-31T0:43:9Z</time></trkpt>
<trkpt lat="46.17607" lon="7.33692"><ele></ele><time>2016-8-31T0:43:12Z</time></trkpt>
<trkpt lat="46.17608" lon="7.33697"><ele></ele><time>2016-8-31T0:43:15Z</time></trkpt>
<trkpt lat="46.17609" lon="7.33701"><ele></ele><time>2016-8-31T0:43:18Z</time></trkpt>
<trkpt lat="46.1761" lon="7.33706"><ele></ele><time>2016-8-31T0:43:21Z</time></trkpt>
<trkpt lat="46.1761" lon="7.3371"><ele></ele><time>2016-8-31T0:43:24Z</time></trkpt>
<trkpt lat="46.1761" lon="7.33715"><ele></ele><time>2016-8-31T0:43:27Z</time></trkpt>
<trkpt lat="46.17611" lon="7.3372"><ele></ele><time>2016-8-31T0:43:30Z</time></trkpt>
<trkpt lat="46.17611" lon="7.33724"><ele></ele><time>2016-8-31T0:43:33Z</time></trkpt>
<trkpt lat="46.17611" lon="7.33729"><ele></ele><time>2016-8-31T0:43:36Z</time></trkpt>
<trkpt lat="46.17612" lon="7.33733"><ele></ele><time>2016-8-31T0:43:39Z</time></trkpt>
<trkpt lat="46.17612" lon="7.33738"><ele></ele><time>2016-8-31T0:43:42Z</time></trkpt>
<trkpt lat="46.17612" lon="7.33742"><ele></ele><time>2016-8-31T0:43:45Z</time></trkpt>
<trkpt lat="46.17613" lon="7.33747"><ele></ele><time>2016-8-31T0:43:48Z</time></trkpt>
<trkpt lat="46.17613" lon="7.33752"><ele></ele><time>2016-8-31T0:43:51Z</time></trkpt>
<trkpt lat="46.17613" lon="7.33756"><ele></ele><time>2016-8-31T0:43:54Z</time></trkpt>
<trkpt lat="46.17614" lon="7.33761"><ele></ele><time>2016-8-31T0:43:57Z</time></trkpt>
<trkpt lat="46.17614" lon="7.33765"><ele></ele><time>2016-8-31T0:44:0Z</time></trkpt>
<trkpt lat="46.17614" lon="7.33768"><ele></ele><time>2016-8-31T0:44:3Z</time></trkpt>
<trkpt lat="46.17614" lon="7.3377"><ele></ele><time>2016-8-31T0:44:6Z</time></trkpt>
<trkpt lat="46.17614" lon="7.33774"><ele></ele><time>2016-8-31T0:44:9Z</time></trkpt>
<trkpt lat="46.17614" lon="7.33776"><ele></ele><time>2016-8-31T0:44:12Z</time></trkpt>
<trkpt lat="46.17614" lon="7.33779"><ele></ele><time>2016-8-31T0:44:15Z</time></trkpt>
<trkpt lat="46.17614" lon="7.33783"><ele></ele><time>2016-8-31T0:44:18Z</time></trkpt>
<trkpt lat="46.17615" lon="7.33787"><ele></ele><time>2016-8-31T0:44:21Z</time></trkpt>
<trkpt lat="46.17615" lon="7.33791"><ele></ele><time>2016-8-31T0:44:24Z</time></trkpt>
<trkpt lat="46.17615" lon="7.33796"><ele></ele><time>2016-8-31T0:44:27Z</time></trkpt>
<trkpt lat="46.17615" lon="7.338"><ele></ele><time>2016-8-31T0:44:30Z</time></trkpt>
<trkpt lat="46.17615" lon="7.33804"><ele></ele><time>2016-8-31T0:44:33Z</time></trkpt>
<trkpt lat="46.17615" lon="7.33809"><ele></ele><time>2016-8-31T0:44:36Z</time></trkpt>
<trkpt lat="46.17615" lon="7.33813"><ele></ele><time>2016-8-31T0:44:39Z</time></trkpt>
<trkpt lat="46.17615" lon="7.33817"><ele></ele><time>2016-8-31T0:44:42Z</time></trkpt>
<trkpt lat="46.17615" lon="7.33822"><ele></ele><time>2016-8-31T0:44:45Z</time></trkpt>
<trkpt lat="46.17615" lon="7.33824"><ele></ele><time>2016-8-31T0:44:48Z</time></trkpt>
<trkpt lat="46.17616" lon="7.33826"><ele></ele><time>2016-8-31T0:44:51Z</time></trkpt>
<trkpt lat="46.17616" lon="7.3383"><ele></ele><time>2016-8-31T0:44:54Z</time></trkpt>
<trkpt lat="46.17616" lon="7.33835"><ele></ele><time>2016-8-31T0:44:57Z</time></trkpt>
<trkpt lat="46.17616" lon="7.33839"><ele></ele><time>2016-8-31T0:45:0Z</time></trkpt>
<trkpt lat="46.17616" lon="7.33843"><ele></ele><time>2016-8-31T0:45:3Z</time></trkpt>
<trkpt lat="46.17616" lon="7.33847"><ele></ele><time>2016-8-31T0:45:6Z</time></trkpt>
<trkpt lat="46.17617" lon="7.33852"><ele></ele><time>2016-8-31T0:45:9Z</time></trkpt>
<trkpt lat="46.17617" lon="7.33856"><ele></ele><time>2016-8-31T0:45:12Z</time></trkpt>
<trkpt lat="46.17617" lon="7.3386"><ele></ele><time>2016-8-31T0:45:15Z</time></trkpt>
<trkpt lat="46.17617" lon="7.33865"><ele></ele><time>2016-8-31T0:45:18Z</time></trkpt>
<trkpt lat="46.17618" lon="7.33869"><ele></ele><time>2016-8-31T0:45:21Z</time></trkpt>
<trkpt lat="46.17618" lon="7.33871"><ele></ele><time>2016-8-31T0:45:24Z</time></trkpt>
<trkpt lat="46.17618" lon="7.33873"><ele></ele><time>2016-8-31T0:45:27Z</time></trkpt>
<trkpt lat="46.17618" lon="7.33878"><ele></ele><time>2016-8-31T0:45:30Z</time></trkpt>
<trkpt lat="46.17618" lon="7.33882"><ele></ele><time>2016-8-31T0:45:33Z</time></trkpt>
<trkpt lat="46.17618" lon="7.33886"><ele></ele><time>2016-8-31T0:45:36Z</time></trkpt>
<trkpt lat="46.17619" lon="7.3389"><ele></ele><time>2016-8-31T0:45:39Z</time></trkpt>
<trkpt lat="46.17619" lon="7.33895"><ele></ele><time>2016-8-31T0:45:42Z</time></trkpt>
<trkpt lat="46.17619" lon="7.33899"><ele></ele><time>2016-8-31T0:45:45Z</time></trkpt>
<trkpt lat="46.17619" lon="7.33901"><ele></ele><time>2016-8-31T0:45:48Z</time></trkpt>
<trkpt lat="46.17619" lon="7.33903"><ele></ele><time>2016-8-31T0:45:51Z</time></trkpt>
<trkpt lat="46.17619" lon="7.33907"><ele></ele><time>2016-8-31T0:45:54Z</time></trkpt>
<trkpt lat="46.17618" lon="7.33911"><ele></ele><time>2016-8-31T0:45:57Z</time></trkpt>
<trkpt lat="46.17618" lon="7.33915"><ele></ele><time>2016-8-31T0:46:0Z</time></trkpt>
<trkpt lat="46.17618" lon="7.33917"><ele></ele><time>2016-8-31T0:46:3Z</time></trkpt>
<trkpt lat="46.17618" lon="7.33919"><ele></ele><time>2016-8-31T0:46:6Z</time></trkpt>
<trkpt lat="46.17617" lon="7.33923"><ele></ele><time>2016-8-31T0:46:9Z</time></trkpt>
<trkpt lat="46.17617" lon="7.33926"><ele></ele><time>2016-8-31T0:46:12Z</time></trkpt>
<trkpt lat="46.17616" lon="7.3393"><ele></ele><time>2016-8-31T0:46:15Z</time></trkpt>
<trkpt lat="46.17616" lon="7.33934"><ele></ele><time>2016-8-31T0:46:18Z</time></trkpt>
<trkpt lat="46.17616" lon="7.33938"><ele></ele><time>2016-8-31T0:46:21Z</time></trkpt>
<trkpt lat="46.17615" lon="7.33942"><ele></ele><time>2016-8-31T0:46:24Z</time></trkpt>
<trkpt lat="46.17615" lon="7.33946"><ele></ele><time>2016-8-31T0:46:27Z</time></trkpt>
<trkpt lat="46.17614" lon="7.3395"><ele></ele><time>2016-8-31T0:46:30Z</time></trkpt>
<trkpt lat="46.17614" lon="7.33953"><ele></ele><time>2016-8-31T0:46:33Z</time></trkpt>
<trkpt lat="46.17614" lon="7.33957"><ele></ele><time>2016-8-31T0:46:36Z</time></trkpt>
<trkpt lat="46.17613" lon="7.33959"><ele></ele><time>2016-8-31T0:46:39Z</time></trkpt>
<trkpt lat="46.17613" lon="7.33961"><ele></ele><time>2016-8-31T0:46:42Z</time></trkpt>
<trkpt lat="46.17613" lon="7.33965"><ele></ele><time>2016-8-31T0:46:45Z</time></trkpt>
<trkpt lat="46.17613" lon="7.33967"><ele></ele><time>2016-8-31T0:46:48Z</time></trkpt>
<trkpt lat="46.17612" lon="7.33969"><ele></ele><time>2016-8-31T0:46:51Z</time></trkpt>
<trkpt lat="46.17611" lon="7.33972"><ele></ele><time>2016-8-31T0:46:54Z</time></trkpt>
<trkpt lat="46.1761" lon="7.33976"><ele></ele><time>2016-8-31T0:46:57Z</time></trkpt>
<trkpt lat="46.17609" lon="7.33977"><ele></ele><time>2016-8-31T0:47:0Z</time></trkpt>
<trkpt lat="46.17609" lon="7.33979"><ele></ele><time>2016-8-31T0:47:3Z</time></trkpt>
<trkpt lat="46.17609" lon="7.33983"><ele></ele><time>2016-8-31T0:47:6Z</time></trkpt>
<trkpt lat="46.17608" lon="7.33987"><ele></ele><time>2016-8-31T0:47:9Z</time></trkpt>
<trkpt lat="46.17608" lon="7.33991"><ele></ele><time>2016-8-31T0:47:12Z</time></trkpt>
<trkpt lat="46.17608" lon="7.33994"><ele></ele><time>2016-8-31T0:47:15Z</time></trkpt>
<trkpt lat="46.17607" lon="7.33998"><ele></ele><time>2016-8-31T0:47:18Z</time></trkpt>
<trkpt lat="46.17607" lon="7.34"><ele></ele><time>2016-8-31T0:47:21Z</time></trkpt>
<trkpt lat="46.17607" lon="7.34002"><ele></ele><time>2016-8-31T0:47:24Z</time></trkpt>
<trkpt lat="46.17607" lon="7.34006"><ele></ele><time>2016-8-31T0:47:27Z</time></trkpt>
<trkpt lat="46.17606" lon="7.3401"><ele></ele><time>2016-8-31T0:47:30Z</time></trkpt>
<trkpt lat="46.17606" lon="7.34014"><ele></ele><time>2016-8-31T0:47:33Z</time></trkpt>
<trkpt lat="46.17606" lon="7.34017"><ele></ele><time>2016-8-31T0:47:36Z</time></trkpt>
<trkpt lat="46.17605" lon="7.34021"><ele></ele><time>2016-8-31T0:47:39Z</time></trkpt>
<trkpt lat="46.17605" lon="7.34025"><ele></ele><time>2016-8-31T0:47:42Z</time></trkpt>
<trkpt lat="46.17604" lon="7.34029"><ele></ele><time>2016-8-31T0:47:45Z</time></trkpt>
<trkpt lat="46.17604" lon="7.34033"><ele></ele><time>2016-8-31T0:47:48Z</time></trkpt>
<trkpt lat="46.17604" lon="7.34037"><ele></ele><time>2016-8-31T0:47:51Z</time></trkpt>
<trkpt lat="46.17603" lon="7.3404"><ele></ele><time>2016-8-31T0:47:54Z</time></trkpt>
<trkpt lat="46.17603" lon="7.34042"><ele></ele><time>2016-8-31T0:47:57Z</time></trkpt>
<trkpt lat="46.17603" lon="7.34044"><ele></ele><time>2016-8-31T0:48:0Z</time></trkpt>
<trkpt lat="46.17603" lon="7.34048"><ele></ele><time>2016-8-31T0:48:3Z</time></trkpt>
<trkpt lat="46.17603" lon="7.34052"><ele></ele><time>2016-8-31T0:48:6Z</time></trkpt>
<trkpt lat="46.17603" lon="7.34056"><ele></ele><time>2016-8-31T0:48:9Z</time></trkpt>
<trkpt lat="46.17603" lon="7.3406"><ele></ele><time>2016-8-31T0:48:12Z</time></trkpt>
<trkpt lat="46.17603" lon="7.34064"><ele></ele><time>2016-8-31T0:48:15Z</time></trkpt>
<trkpt lat="46.17603" lon="7.34068"><ele></ele><time>2016-8-31T0:48:18Z</time></trkpt>
<trkpt lat="46.17603" lon="7.34072"><ele></ele><time>2016-8-31T0:48:21Z</time></trkpt>
<trkpt lat="46.17603" lon="7.34076"><ele></ele><time>2016-8-31T0:48:24Z</time></trkpt>
<trkpt lat="46.17602" lon="7.3408"><ele></ele><time>2016-8-31T0:48:27Z</time></trkpt>
<trkpt lat="46.17602" lon="7.34084"><ele></ele><time>2016-8-31T0:48:30Z</time></trkpt>
<trkpt lat="46.17602" lon="7.34088"><ele></ele><time>2016-8-31T0:48:33Z</time></trkpt>
<trkpt lat="46.17602" lon="7.3409"><ele></ele><time>2016-8-31T0:48:36Z</time></trkpt>
<trkpt lat="46.17602" lon="7.34092"><ele></ele><time>2016-8-31T0:48:39Z</time></trkpt>
<trkpt lat="46.17602" lon="7.34096"><ele></ele><time>2016-8-31T0:48:42Z</time></trkpt>
<trkpt lat="46.17602" lon="7.341"><ele></ele><time>2016-8-31T0:48:45Z</time></trkpt>
<trkpt lat="46.17602" lon="7.34104"><ele></ele><time>2016-8-31T0:48:48Z</time></trkpt>
<trkpt lat="46.17602" lon="7.34107"><ele></ele><time>2016-8-31T0:48:51Z</time></trkpt>
<trkpt lat="46.17602" lon="7.34111"><ele></ele><time>2016-8-31T0:48:54Z</time></trkpt>
<trkpt lat="46.17601" lon="7.34115"><ele></ele><time>2016-8-31T0:48:57Z</time></trkpt>
<trkpt lat="46.17601" lon="7.34119"><ele></ele><time>2016-8-31T0:49:0Z</time></trkpt>
<trkpt lat="46.176" lon="7.34123"><ele></ele><time>2016-8-31T0:49:3Z</time></trkpt>
<trkpt lat="46.176" lon="7.34127"><ele></ele><time>2016-8-31T0:49:6Z</time></trkpt>
<trkpt lat="46.176" lon="7.34131"><ele></ele><time>2016-8-31T0:49:9Z</time></trkpt>
<trkpt lat="46.17599" lon="7.34135"><ele></ele><time>2016-8-31T0:49:12Z</time></trkpt>
<trkpt lat="46.17599" lon="7.34139"><ele></ele><time>2016-8-31T0:49:15Z</time></trkpt>
<trkpt lat="46.17598" lon="7.34143"><ele></ele><time>2016-8-31T0:49:18Z</time></trkpt>
<trkpt lat="46.17598" lon="7.34147"><ele></ele><time>2016-8-31T0:49:21Z</time></trkpt>
<trkpt lat="46.17598" lon="7.34151"><ele></ele><time>2016-8-31T0:49:24Z</time></trkpt>
<trkpt lat="46.17597" lon="7.34155"><ele></ele><time>2016-8-31T0:49:27Z</time></trkpt>
<trkpt lat="46.17597" lon="7.34159"><ele></ele><time>2016-8-31T0:49:30Z</time></trkpt>
<trkpt lat="46.17596" lon="7.34163"><ele></ele><time>2016-8-31T0:49:33Z</time></trkpt>
<trkpt lat="46.17596" lon="7.34167"><ele></ele><time>2016-8-31T0:49:36Z</time></trkpt>
<trkpt lat="46.17596" lon="7.34171"><ele></ele><time>2016-8-31T0:49:39Z</time></trkpt>
<trkpt lat="46.17595" lon="7.34173"><ele></ele><time>2016-8-31T0:49:42Z</time></trkpt>
<trkpt lat="46.17595" lon="7.34175"><ele></ele><time>2016-8-31T0:49:45Z</time></trkpt>
<trkpt lat="46.17595" lon="7.34177"><ele></ele><time>2016-8-31T0:49:48Z</time></trkpt>
<trkpt lat="46.17595" lon="7.34179"><ele></ele><time>2016-8-31T0:49:51Z</time></trkpt>
<trkpt lat="46.17595" lon="7.34183"><ele></ele><time>2016-8-31T0:49:54Z</time></trkpt>
<trkpt lat="46.17595" lon="7.34187"><ele></ele><time>2016-8-31T0:49:57Z</time></trkpt>
<trkpt lat="46.17595" lon="7.34191"><ele></ele><time>2016-8-31T0:50:0Z</time></trkpt>
<trkpt lat="46.17593" lon="7.34195"><ele></ele><time>2016-8-31T0:50:3Z</time></trkpt>
<trkpt lat="46.17592" lon="7.34198"><ele></ele><time>2016-8-31T0:50:6Z</time></trkpt>
<trkpt lat="46.1759" lon="7.34201"><ele></ele><time>2016-8-31T0:50:9Z</time></trkpt>
<trkpt lat="46.17589" lon="7.34205"><ele></ele><time>2016-8-31T0:50:12Z</time></trkpt>
<trkpt lat="46.17588" lon="7.34206"><ele></ele><time>2016-8-31T0:50:15Z</time></trkpt>
<trkpt lat="46.17588" lon="7.34213"><ele></ele><time>2016-8-31T0:50:18Z</time></trkpt>
<trkpt lat="46.17587" lon="7.34219"><ele></ele><time>2016-8-31T0:50:21Z</time></trkpt>
<trkpt lat="46.17591" lon="7.34227"><ele></ele><time>2016-8-31T0:50:24Z</time></trkpt>
<trkpt lat="46.17599" lon="7.34243"><ele></ele><time>2016-8-31T0:50:27Z</time></trkpt>
<trkpt lat="46.17606" lon="7.34259"><ele></ele><time>2016-8-31T0:50:30Z</time></trkpt>
<trkpt lat="46.1761" lon="7.34267"><ele></ele><time>2016-8-31T0:50:33Z</time></trkpt>
<trkpt lat="46.17615" lon="7.34273"><ele></ele><time>2016-8-31T0:50:36Z</time></trkpt>
<trkpt lat="46.17621" lon="7.34279"><ele></ele><time>2016-8-31T0:50:39Z</time></trkpt>
<trkpt lat="46.17621" lon="7.34286"><ele></ele><time>2016-8-31T0:50:42Z</time></trkpt>
<trkpt lat="46.17628" lon="7.34302"><ele></ele><time>2016-8-31T0:50:45Z</time></trkpt>
<trkpt lat="46.17628" lon="7.34313"><ele></ele><time>2016-8-31T0:50:48Z</time></trkpt>
<trkpt lat="46.17625" lon="7.3432"><ele></ele><time>2016-8-31T0:50:51Z</time></trkpt>
<trkpt lat="46.17628" lon="7.34336"><ele></ele><time>2016-8-31T0:50:54Z</time></trkpt>
<trkpt lat="46.1763" lon="7.34352"><ele></ele><time>2016-8-31T0:50:57Z</time></trkpt>
<trkpt lat="46.17637" lon="7.34367"><ele></ele><time>2016-8-31T0:51:0Z</time></trkpt>
<trkpt lat="46.17639" lon="7.34385"><ele></ele><time>2016-8-31T0:51:3Z</time></trkpt>
<trkpt lat="46.1764" lon="7.34394"><ele></ele><time>2016-8-31T0:51:6Z</time></trkpt>
<trkpt lat="46.17638" lon="7.34406"><ele></ele><time>2016-8-31T0:51:9Z</time></trkpt>
<trkpt lat="46.17635" lon="7.34419"><ele></ele><time>2016-8-31T0:51:12Z</time></trkpt>
<trkpt lat="46.17637" lon="7.34434"><ele></ele><time>2016-8-31T0:51:15Z</time></trkpt>
<trkpt lat="46.17641" lon="7.34462"><ele></ele><time>2016-8-31T0:51:18Z</time></trkpt>
<trkpt lat="46.17637" lon="7.34477"><ele></ele><time>2016-8-31T0:51:21Z</time></trkpt>
<trkpt lat="46.17637" lon="7.34493"><ele></ele><time>2016-8-31T0:51:24Z</time></trkpt>
<trkpt lat="46.17638" lon="7.34526"><ele></ele><time>2016-8-31T0:51:27Z</time></trkpt>
<trkpt lat="46.17633" lon="7.34537"><ele></ele><time>2016-8-31T0:51:30Z</time></trkpt>
<trkpt lat="46.17632" lon="7.34551"><ele></ele><time>2016-8-31T0:51:33Z</time></trkpt>
<trkpt lat="46.1763" lon="7.3458"><ele></ele><time>2016-8-31T0:51:36Z</time></trkpt>
<trkpt lat="46.17629" lon="7.34609"><ele></ele><time>2016-8-31T0:51:39Z</time></trkpt>
<trkpt lat="46.17632" lon="7.34634"><ele></ele><time>2016-8-31T0:51:42Z</time></trkpt>
<trkpt lat="46.17637" lon="7.34659"><ele></ele><time>2016-8-31T0:51:45Z</time></trkpt>
<trkpt lat="46.17642" lon="7.34681"><ele></ele><time>2016-8-31T0:51:48Z</time></trkpt>
<trkpt lat="46.1764" lon="7.34705"><ele></ele><time>2016-8-31T0:51:51Z</time></trkpt>
<trkpt lat="46.17638" lon="7.3473"><ele></ele><time>2016-8-31T0:51:54Z</time></trkpt>
<trkpt lat="46.17639" lon="7.34747"><ele></ele><time>2016-8-31T0:51:57Z</time></trkpt>
<trkpt lat="46.17639" lon="7.34763"><ele></ele><time>2016-8-31T0:52:0Z</time></trkpt>
<trkpt lat="46.17638" lon="7.34779"><ele></ele><time>2016-8-31T0:52:3Z</time></trkpt>
<trkpt lat="46.17641" lon="7.34796"><ele></ele><time>2016-8-31T0:52:6Z</time></trkpt>
<trkpt lat="46.17646" lon="7.34812"><ele></ele><time>2016-8-31T0:52:9Z</time></trkpt>
<trkpt lat="46.17647" lon="7.34824"><ele></ele><time>2016-8-31T0:52:12Z</time></trkpt>
<trkpt lat="46.17648" lon="7.34835"><ele></ele><time>2016-8-31T0:52:15Z</time></trkpt>
<trkpt lat="46.17649" lon="7.34847"><ele></ele><time>2016-8-31T0:52:18Z</time></trkpt>
<trkpt lat="46.1765" lon="7.34858"><ele></ele><time>2016-8-31T0:52:21Z</time></trkpt>
<trkpt lat="46.17647" lon="7.34868"><ele></ele><time>2016-8-31T0:52:24Z</time></trkpt>
<trkpt lat="46.17641" lon="7.34888"><ele></ele><time>2016-8-31T0:52:27Z</time></trkpt>
<trkpt lat="46.17638" lon="7.34897"><ele></ele><time>2016-8-31T0:52:30Z</time></trkpt>
<trkpt lat="46.17635" lon="7.34907"><ele></ele><time>2016-8-31T0:52:33Z</time></trkpt>
<trkpt lat="46.17625" lon="7.34925"><ele></ele><time>2016-8-31T0:52:36Z</time></trkpt>
<trkpt lat="46.17615" lon="7.34944"><ele></ele><time>2016-8-31T0:52:39Z</time></trkpt>
<trkpt lat="46.1761" lon="7.34953"><ele></ele><time>2016-8-31T0:52:42Z</time></trkpt>
<trkpt lat="46.17609" lon="7.3496"><ele></ele><time>2016-8-31T0:52:45Z</time></trkpt>
<trkpt lat="46.17608" lon="7.34974"><ele></ele><time>2016-8-31T0:52:48Z</time></trkpt>
<trkpt lat="46.17612" lon="7.34981"><ele></ele><time>2016-8-31T0:52:51Z</time></trkpt>
<trkpt lat="46.17614" lon="7.34985"><ele></ele><time>2016-8-31T0:52:54Z</time></trkpt>
<trkpt lat="46.17617" lon="7.34984"><ele></ele><time>2016-8-31T0:52:57Z</time></trkpt>
<trkpt lat="46.17622" lon="7.34982"><ele></ele><time>2016-8-31T0:53:0Z</time></trkpt>
<trkpt lat="46.1762" lon="7.34979"><ele></ele><time>2016-8-31T0:53:3Z</time></trkpt>
<trkpt lat="46.17619" lon="7.34977"><ele></ele><time>2016-8-31T0:53:6Z</time></trkpt>
<trkpt lat="46.17617" lon="7.34975"><ele></ele><time>2016-8-31T0:53:9Z</time></trkpt>
<trkpt lat="46.17616" lon="7.34974"><ele></ele><time>2016-8-31T0:53:12Z</time></trkpt>
<trkpt lat="46.17615" lon="7.34973"><ele></ele><time>2016-8-31T0:53:15Z</time></trkpt>
<trkpt lat="46.17613" lon="7.34971"><ele></ele><time>2016-8-31T0:53:18Z</time></trkpt>
<trkpt lat="46.17611" lon="7.34969"><ele></ele><time>2016-8-31T0:53:21Z</time></trkpt>
<trkpt lat="46.17614" lon="7.34967"><ele></ele><time>2016-8-31T0:53:24Z</time></trkpt>
<trkpt lat="46.17617" lon="7.34964"><ele></ele><time>2016-8-31T0:53:27Z</time></trkpt>
<trkpt lat="46.17624" lon="7.3496"><ele></ele><time>2016-8-31T0:53:30Z</time></trkpt>
<trkpt lat="46.17631" lon="7.34956"><ele></ele><time>2016-8-31T0:53:33Z</time></trkpt>
<trkpt lat="46.17638" lon="7.34951"><ele></ele><time>2016-8-31T0:53:36Z</time></trkpt>
<trkpt lat="46.17652" lon="7.34945"><ele></ele><time>2016-8-31T0:53:39Z</time></trkpt>
<trkpt lat="46.17666" lon="7.34938"><ele></ele><time>2016-8-31T0:53:42Z</time></trkpt>
<trkpt lat="46.17679" lon="7.34936"><ele></ele><time>2016-8-31T0:53:45Z</time></trkpt>
<trkpt lat="46.17691" lon="7.34934"><ele></ele><time>2016-8-31T0:53:48Z</time></trkpt>
<trkpt lat="46.17704" lon="7.34932"><ele></ele><time>2016-8-31T0:53:51Z</time></trkpt>
<trkpt lat="46.17714" lon="7.34937"><ele></ele><time>2016-8-31T0:53:54Z</time></trkpt>
<trkpt lat="46.17724" lon="7.34942"><ele></ele><time>2016-8-31T0:53:57Z</time></trkpt>
<trkpt lat="46.17729" lon="7.34945"><ele></ele><time>2016-8-31T0:54:0Z</time></trkpt>
<trkpt lat="46.17735" lon="7.34943"><ele></ele><time>2016-8-31T0:54:3Z</time></trkpt>
<trkpt lat="46.17741" lon="7.3494"><ele></ele><time>2016-8-31T0:54:6Z</time></trkpt>
<trkpt lat="46.17745" lon="7.34933"><ele></ele><time>2016-8-31T0:54:9Z</time></trkpt>
<trkpt lat="46.17751" lon="7.34916"><ele></ele><time>2016-8-31T0:54:12Z</time></trkpt>
<trkpt lat="46.17754" lon="7.34908"><ele></ele><time>2016-8-31T0:54:15Z</time></trkpt>
<trkpt lat="46.1776" lon="7.34903"><ele></ele><time>2016-8-31T0:54:18Z</time></trkpt>
<trkpt lat="46.17773" lon="7.34894"><ele></ele><time>2016-8-31T0:54:21Z</time></trkpt>
<trkpt lat="46.17787" lon="7.34885"><ele></ele><time>2016-8-31T0:54:24Z</time></trkpt>
<trkpt lat="46.17793" lon="7.34881"><ele></ele><time>2016-8-31T0:54:27Z</time></trkpt>
<trkpt lat="46.17801" lon="7.34879"><ele></ele><time>2016-8-31T0:54:30Z</time></trkpt>
<trkpt lat="46.17807" lon="7.34883"><ele></ele><time>2016-8-31T0:54:33Z</time></trkpt>
<trkpt lat="46.17815" lon="7.34883"><ele></ele><time>2016-8-31T0:54:36Z</time></trkpt>
<trkpt lat="46.17832" lon="7.3488"><ele></ele><time>2016-8-31T0:54:39Z</time></trkpt>
<trkpt lat="46.1784" lon="7.34879"><ele></ele><time>2016-8-31T0:54:42Z</time></trkpt>
<trkpt lat="46.17847" lon="7.34877"><ele></ele><time>2016-8-31T0:54:45Z</time></trkpt>
<trkpt lat="46.17853" lon="7.34875"><ele></ele><time>2016-8-31T0:54:48Z</time></trkpt>
<trkpt lat="46.17859" lon="7.3488"><ele></ele><time>2016-8-31T0:54:51Z</time></trkpt>
<trkpt lat="46.17866" lon="7.34885"><ele></ele><time>2016-8-31T0:54:54Z</time></trkpt>
<trkpt lat="46.17872" lon="7.34891"><ele></ele><time>2016-8-31T0:54:57Z</time></trkpt>
<trkpt lat="46.17884" lon="7.34902"><ele></ele><time>2016-8-31T0:55:0Z</time></trkpt>
<trkpt lat="46.1789" lon="7.34907"><ele></ele><time>2016-8-31T0:55:3Z</time></trkpt>
<trkpt lat="46.17898" lon="7.34907"><ele></ele><time>2016-8-31T0:55:6Z</time></trkpt>
<trkpt lat="46.17914" lon="7.34906"><ele></ele><time>2016-8-31T0:55:9Z</time></trkpt>
<trkpt lat="46.1793" lon="7.34905"><ele></ele><time>2016-8-31T0:55:12Z</time></trkpt>
<trkpt lat="46.17938" lon="7.34904"><ele></ele><time>2016-8-31T0:55:15Z</time></trkpt>
<trkpt lat="46.17947" lon="7.34903"><ele></ele><time>2016-8-31T0:55:18Z</time></trkpt>
<trkpt lat="46.17965" lon="7.349"><ele></ele><time>2016-8-31T0:55:21Z</time></trkpt>
<trkpt lat="46.17974" lon="7.34899"><ele></ele><time>2016-8-31T0:55:24Z</time></trkpt>
<trkpt lat="46.17983" lon="7.34894"><ele></ele><time>2016-8-31T0:55:27Z</time></trkpt>
<trkpt lat="46.17991" lon="7.34889"><ele></ele><time>2016-8-31T0:55:30Z</time></trkpt>
<trkpt lat="46.17998" lon="7.3488"><ele></ele><time>2016-8-31T0:55:33Z</time></trkpt>
<trkpt lat="46.18004" lon="7.3487"><ele></ele><time>2016-8-31T0:55:36Z</time></trkpt>
<trkpt lat="46.18009" lon="7.34858"><ele></ele><time>2016-8-31T0:55:39Z</time></trkpt>
<trkpt lat="46.18017" lon="7.34834"><ele></ele><time>2016-8-31T0:55:42Z</time></trkpt>
<trkpt lat="46.18021" lon="7.34821"><ele></ele><time>2016-8-31T0:55:45Z</time></trkpt>
<trkpt lat="46.18027" lon="7.34812"><ele></ele><time>2016-8-31T0:55:48Z</time></trkpt>
<trkpt lat="46.18038" lon="7.34793"><ele></ele><time>2016-8-31T0:55:51Z</time></trkpt>
<trkpt lat="46.18044" lon="7.34783"><ele></ele><time>2016-8-31T0:55:54Z</time></trkpt>
<trkpt lat="46.18048" lon="7.34772"><ele></ele><time>2016-8-31T0:55:57Z</time></trkpt>
<trkpt lat="46.18051" lon="7.34761"><ele></ele><time>2016-8-31T0:56:0Z</time></trkpt>
<trkpt lat="46.18056" lon="7.34752"><ele></ele><time>2016-8-31T0:56:3Z</time></trkpt>
<trkpt lat="46.18062" lon="7.34733"><ele></ele><time>2016-8-31T0:56:6Z</time></trkpt>
<trkpt lat="46.18069" lon="7.34725"><ele></ele><time>2016-8-31T0:56:9Z</time></trkpt>
<trkpt lat="46.18073" lon="7.34722"><ele></ele><time>2016-8-31T0:56:12Z</time></trkpt>
<trkpt lat="46.18077" lon="7.34719"><ele></ele><time>2016-8-31T0:56:15Z</time></trkpt>
<trkpt lat="46.18086" lon="7.34715"><ele></ele><time>2016-8-31T0:56:18Z</time></trkpt>
<trkpt lat="46.18091" lon="7.34713"><ele></ele><time>2016-8-31T0:56:21Z</time></trkpt>
<trkpt lat="46.18094" lon="7.34708"><ele></ele><time>2016-8-31T0:56:24Z</time></trkpt>
<trkpt lat="46.181" lon="7.34698"><ele></ele><time>2016-8-31T0:56:27Z</time></trkpt>
<trkpt lat="46.18105" lon="7.34687"><ele></ele><time>2016-8-31T0:56:30Z</time></trkpt>
<trkpt lat="46.18108" lon="7.34682"><ele></ele><time>2016-8-31T0:56:33Z</time></trkpt>
<trkpt lat="46.18111" lon="7.34677"><ele></ele><time>2016-8-31T0:56:36Z</time></trkpt>
<trkpt lat="46.18117" lon="7.34666"><ele></ele><time>2016-8-31T0:56:39Z</time></trkpt>
<trkpt lat="46.18119" lon="7.34661"><ele></ele><time>2016-8-31T0:56:42Z</time></trkpt>
<trkpt lat="46.18122" lon="7.34659"><ele></ele><time>2016-8-31T0:56:45Z</time></trkpt>
<trkpt lat="46.18124" lon="7.34657"><ele></ele><time>2016-8-31T0:56:48Z</time></trkpt>
<trkpt lat="46.18126" lon="7.34656"><ele></ele><time>2016-8-31T0:56:51Z</time></trkpt>
<trkpt lat="46.1813" lon="7.34653"><ele></ele><time>2016-8-31T0:56:54Z</time></trkpt>
<trkpt lat="46.18134" lon="7.34649"><ele></ele><time>2016-8-31T0:56:57Z</time></trkpt>
<trkpt lat="46.18139" lon="7.34646"><ele></ele><time>2016-8-31T0:57:0Z</time></trkpt>
<trkpt lat="46.18143" lon="7.34643"><ele></ele><time>2016-8-31T0:57:3Z</time></trkpt>
<trkpt lat="46.18145" lon="7.34641"><ele></ele><time>2016-8-31T0:57:6Z</time></trkpt>
<trkpt lat="46.18147" lon="7.3464"><ele></ele><time>2016-8-31T0:57:9Z</time></trkpt>
<trkpt lat="46.18151" lon="7.34637"><ele></ele><time>2016-8-31T0:57:12Z</time></trkpt>
<trkpt lat="46.18155" lon="7.34633"><ele></ele><time>2016-8-31T0:57:15Z</time></trkpt>
<trkpt lat="46.1816" lon="7.3463"><ele></ele><time>2016-8-31T0:57:18Z</time></trkpt>
<trkpt lat="46.18164" lon="7.34627"><ele></ele><time>2016-8-31T0:57:21Z</time></trkpt>
<trkpt lat="46.18175" lon="7.34614"><ele></ele><time>2016-8-31T0:57:24Z</time></trkpt>
<trkpt lat="46.18186" lon="7.34601"><ele></ele><time>2016-8-31T0:57:27Z</time></trkpt>
<trkpt lat="46.18197" lon="7.34587"><ele></ele><time>2016-8-31T0:57:30Z</time></trkpt>
<trkpt lat="46.18203" lon="7.34581"><ele></ele><time>2016-8-31T0:57:33Z</time></trkpt>
<trkpt lat="46.18207" lon="7.34571"><ele></ele><time>2016-8-31T0:57:36Z</time></trkpt>
<trkpt lat="46.18216" lon="7.34552"><ele></ele><time>2016-8-31T0:57:39Z</time></trkpt>
<trkpt lat="46.18225" lon="7.34533"><ele></ele><time>2016-8-31T0:57:42Z</time></trkpt>
<trkpt lat="46.18229" lon="7.34523"><ele></ele><time>2016-8-31T0:57:45Z</time></trkpt>
<trkpt lat="46.18235" lon="7.34515"><ele></ele><time>2016-8-31T0:57:48Z</time></trkpt>
<trkpt lat="46.18246" lon="7.34497"><ele></ele><time>2016-8-31T0:57:51Z</time></trkpt>
<trkpt lat="46.18258" lon="7.3448"><ele></ele><time>2016-8-31T0:57:54Z</time></trkpt>
<trkpt lat="46.18263" lon="7.34471"><ele></ele><time>2016-8-31T0:57:57Z</time></trkpt>
<trkpt lat="46.18268" lon="7.34461"><ele></ele><time>2016-8-31T0:58:0Z</time></trkpt>
<trkpt lat="46.18276" lon="7.34441"><ele></ele><time>2016-8-31T0:58:3Z</time></trkpt>
<trkpt lat="46.18285" lon="7.3442"><ele></ele><time>2016-8-31T0:58:6Z</time></trkpt>
<trkpt lat="46.1829" lon="7.34409"><ele></ele><time>2016-8-31T0:58:9Z</time></trkpt>
<trkpt lat="46.18291" lon="7.34398"><ele></ele><time>2016-8-31T0:58:12Z</time></trkpt>
<trkpt lat="46.18292" lon="7.34386"><ele></ele><time>2016-8-31T0:58:15Z</time></trkpt>
<trkpt lat="46.18296" lon="7.34378"><ele></ele><time>2016-8-31T0:58:18Z</time></trkpt>
<trkpt lat="46.18299" lon="7.34368"><ele></ele><time>2016-8-31T0:58:21Z</time></trkpt>
<trkpt lat="46.183" lon="7.34357"><ele></ele><time>2016-8-31T0:58:24Z</time></trkpt>
<trkpt lat="46.1831" lon="7.3434"><ele></ele><time>2016-8-31T0:58:27Z</time></trkpt>
<trkpt lat="46.18321" lon="7.34323"><ele></ele><time>2016-8-31T0:58:30Z</time></trkpt>
<trkpt lat="46.18335" lon="7.34311"><ele></ele><time>2016-8-31T0:58:33Z</time></trkpt>
<trkpt lat="46.18342" lon="7.34305"><ele></ele><time>2016-8-31T0:58:36Z</time></trkpt>
<trkpt lat="46.18352" lon="7.34301"><ele></ele><time>2016-8-31T0:58:39Z</time></trkpt>
<trkpt lat="46.18371" lon="7.34281"><ele></ele><time>2016-8-31T0:58:42Z</time></trkpt>
<trkpt lat="46.18384" lon="7.34253"><ele></ele><time>2016-8-31T0:58:45Z</time></trkpt>
<trkpt lat="46.18397" lon="7.34225"><ele></ele><time>2016-8-31T0:58:48Z</time></trkpt>
<trkpt lat="46.18401" lon="7.34214"><ele></ele><time>2016-8-31T0:58:51Z</time></trkpt>
<trkpt lat="46.18406" lon="7.34204"><ele></ele><time>2016-8-31T0:58:54Z</time></trkpt>
<trkpt lat="46.18414" lon="7.34191"><ele></ele><time>2016-8-31T0:58:57Z</time></trkpt>
<trkpt lat="46.18422" lon="7.34179"><ele></ele><time>2016-8-31T0:59:0Z</time></trkpt>
<trkpt lat="46.18429" lon="7.34166"><ele></ele><time>2016-8-31T0:59:3Z</time></trkpt>
<trkpt lat="46.18437" lon="7.34154"><ele></ele><time>2016-8-31T0:59:6Z</time></trkpt>
<trkpt lat="46.18444" lon="7.34145"><ele></ele><time>2016-8-31T0:59:9Z</time></trkpt>
<trkpt lat="46.1845" lon="7.34136"><ele></ele><time>2016-8-31T0:59:12Z</time></trkpt>
<trkpt lat="46.18457" lon="7.34128"><ele></ele><time>2016-8-31T0:59:15Z</time></trkpt>
<trkpt lat="46.1846" lon="7.34123"><ele></ele><time>2016-8-31T0:59:18Z</time></trkpt>
<trkpt lat="46.18463" lon="7.34119"><ele></ele><time>2016-8-31T0:59:21Z</time></trkpt>
<trkpt lat="46.18469" lon="7.34111"><ele></ele><time>2016-8-31T0:59:24Z</time></trkpt>
<trkpt lat="46.18472" lon="7.34106"><ele></ele><time>2016-8-31T0:59:27Z</time></trkpt>
<trkpt lat="46.18474" lon="7.34105"><ele></ele><time>2016-8-31T0:59:30Z</time></trkpt>
<trkpt lat="46.18478" lon="7.34102"><ele></ele><time>2016-8-31T0:59:33Z</time></trkpt>
<trkpt lat="46.18481" lon="7.34099"><ele></ele><time>2016-8-31T0:59:36Z</time></trkpt>
<trkpt lat="46.18485" lon="7.34097"><ele></ele><time>2016-8-31T0:59:39Z</time></trkpt>
<trkpt lat="46.18488" lon="7.34094"><ele></ele><time>2016-8-31T0:59:42Z</time></trkpt>
<trkpt lat="46.18492" lon="7.34091"><ele></ele><time>2016-8-31T0:59:45Z</time></trkpt>
<trkpt lat="46.18494" lon="7.3409"><ele></ele><time>2016-8-31T0:59:48Z</time></trkpt>
<trkpt lat="46.18495" lon="7.34089"><ele></ele><time>2016-8-31T0:59:51Z</time></trkpt>
<trkpt lat="46.18499" lon="7.34086"><ele></ele><time>2016-8-31T0:59:54Z</time></trkpt>
<trkpt lat="46.18503" lon="7.34083"><ele></ele><time>2016-8-31T0:59:57Z</time></trkpt>
<trkpt lat="46.18506" lon="7.34081"><ele></ele><time>2016-8-31T1:0:0Z</time></trkpt>
<trkpt lat="46.1851" lon="7.34078"><ele></ele><time>2016-8-31T1:0:3Z</time></trkpt>
<trkpt lat="46.18513" lon="7.34075"><ele></ele><time>2016-8-31T1:0:6Z</time></trkpt>
<trkpt lat="46.18516" lon="7.34073"><ele></ele><time>2016-8-31T1:0:9Z</time></trkpt>
<trkpt lat="46.1852" lon="7.3407"><ele></ele><time>2016-8-31T1:0:12Z</time></trkpt>
<trkpt lat="46.18523" lon="7.34068"><ele></ele><time>2016-8-31T1:0:15Z</time></trkpt>
<trkpt lat="46.18526" lon="7.34065"><ele></ele><time>2016-8-31T1:0:18Z</time></trkpt>
<trkpt lat="46.18529" lon="7.34063"><ele></ele><time>2016-8-31T1:0:21Z</time></trkpt>
<trkpt lat="46.18532" lon="7.34061"><ele></ele><time>2016-8-31T1:0:24Z</time></trkpt>
<trkpt lat="46.18536" lon="7.34058"><ele></ele><time>2016-8-31T1:0:27Z</time></trkpt>
<trkpt lat="46.18539" lon="7.34056"><ele></ele><time>2016-8-31T1:0:30Z</time></trkpt>
<trkpt lat="46.18542" lon="7.34053"><ele></ele><time>2016-8-31T1:0:33Z</time></trkpt>
<trkpt lat="46.18545" lon="7.34051"><ele></ele><time>2016-8-31T1:0:36Z</time></trkpt>
<trkpt lat="46.18549" lon="7.34049"><ele></ele><time>2016-8-31T1:0:39Z</time></trkpt>
<trkpt lat="46.18552" lon="7.34046"><ele></ele><time>2016-8-31T1:0:42Z</time></trkpt>
<trkpt lat="46.18555" lon="7.34044"><ele></ele><time>2016-8-31T1:0:45Z</time></trkpt>
<trkpt lat="46.18564" lon="7.34037"><ele></ele><time>2016-8-31T1:0:48Z</time></trkpt>
<trkpt lat="46.18574" lon="7.3403"><ele></ele><time>2016-8-31T1:0:51Z</time></trkpt>
<trkpt lat="46.18579" lon="7.34027"><ele></ele><time>2016-8-31T1:0:54Z</time></trkpt>
<trkpt lat="46.18582" lon="7.3402"><ele></ele><time>2016-8-31T1:0:57Z</time></trkpt>
<trkpt lat="46.18586" lon="7.34013"><ele></ele><time>2016-8-31T1:1:0Z</time></trkpt>
<trkpt lat="46.18589" lon="7.34006"><ele></ele><time>2016-8-31T1:1:3Z</time></trkpt>
<trkpt lat="46.18592" lon="7.33999"><ele></ele><time>2016-8-31T1:1:6Z</time></trkpt>
<trkpt lat="46.18596" lon="7.33997"><ele></ele><time>2016-8-31T1:1:9Z</time></trkpt>
<trkpt lat="46.18603" lon="7.33988"><ele></ele><time>2016-8-31T1:1:12Z</time></trkpt>
<trkpt lat="46.18607" lon="7.33984"><ele></ele><time>2016-8-31T1:1:15Z</time></trkpt>
<trkpt lat="46.18611" lon="7.3398"><ele></ele><time>2016-8-31T1:1:18Z</time></trkpt>
<trkpt lat="46.18619" lon="7.33974"><ele></ele><time>2016-8-31T1:1:21Z</time></trkpt>
<trkpt lat="46.18627" lon="7.33968"><ele></ele><time>2016-8-31T1:1:24Z</time></trkpt>
<trkpt lat="46.18635" lon="7.33962"><ele></ele><time>2016-8-31T1:1:27Z</time></trkpt>
<trkpt lat="46.18639" lon="7.33958"><ele></ele><time>2016-8-31T1:1:30Z</time></trkpt>
<trkpt lat="46.18643" lon="7.33959"><ele></ele><time>2016-8-31T1:1:33Z</time></trkpt>
<trkpt lat="46.18649" lon="7.3396"><ele></ele><time>2016-8-31T1:1:36Z</time></trkpt>
<trkpt lat="46.18655" lon="7.33961"><ele></ele><time>2016-8-31T1:1:39Z</time></trkpt>
<trkpt lat="46.18662" lon="7.33962"><ele></ele><time>2016-8-31T1:1:42Z</time></trkpt>
<trkpt lat="46.18665" lon="7.33962"><ele></ele><time>2016-8-31T1:1:45Z</time></trkpt>
<trkpt lat="46.18669" lon="7.33962"><ele></ele><time>2016-8-31T1:1:48Z</time></trkpt>
<trkpt lat="46.18678" lon="7.33959"><ele></ele><time>2016-8-31T1:1:51Z</time></trkpt>
<trkpt lat="46.18687" lon="7.33957"><ele></ele><time>2016-8-31T1:1:54Z</time></trkpt>
<trkpt lat="46.18695" lon="7.33955"><ele></ele><time>2016-8-31T1:1:57Z</time></trkpt>
<trkpt lat="46.18704" lon="7.33953"><ele></ele><time>2016-8-31T1:2:0Z</time></trkpt>
<trkpt lat="46.18712" lon="7.33951"><ele></ele><time>2016-8-31T1:2:3Z</time></trkpt>
<trkpt lat="46.18717" lon="7.3395"><ele></ele><time>2016-8-31T1:2:6Z</time></trkpt>
<trkpt lat="46.18726" lon="7.33947"><ele></ele><time>2016-8-31T1:2:9Z</time></trkpt>
<trkpt lat="46.18745" lon="7.33941"><ele></ele><time>2016-8-31T1:2:12Z</time></trkpt>
<trkpt lat="46.18765" lon="7.33936"><ele></ele><time>2016-8-31T1:2:15Z</time></trkpt>
<trkpt lat="46.18774" lon="7.33932"><ele></ele><time>2016-8-31T1:2:18Z</time></trkpt>
<trkpt lat="46.18781" lon="7.33925"><ele></ele><time>2016-8-31T1:2:21Z</time></trkpt>
<trkpt lat="46.18795" lon="7.3391"><ele></ele><time>2016-8-31T1:2:24Z</time></trkpt>
<trkpt lat="46.18808" lon="7.33895"><ele></ele><time>2016-8-31T1:2:27Z</time></trkpt>
<trkpt lat="46.18815" lon="7.33884"><ele></ele><time>2016-8-31T1:2:30Z</time></trkpt>
<trkpt lat="46.18824" lon="7.33876"><ele></ele><time>2016-8-31T1:2:33Z</time></trkpt>
<trkpt lat="46.18843" lon="7.33871"><ele></ele><time>2016-8-31T1:2:36Z</time></trkpt>
<trkpt lat="46.18852" lon="7.33869"><ele></ele><time>2016-8-31T1:2:39Z</time></trkpt>
<trkpt lat="46.18861" lon="7.33867"><ele></ele><time>2016-8-31T1:2:42Z</time></trkpt>
<trkpt lat="46.1887" lon="7.33864"><ele></ele><time>2016-8-31T1:2:45Z</time></trkpt>
<trkpt lat="46.18879" lon="7.33863"><ele></ele><time>2016-8-31T1:2:48Z</time></trkpt>
<trkpt lat="46.18888" lon="7.33862"><ele></ele><time>2016-8-31T1:2:51Z</time></trkpt>
<trkpt lat="46.18896" lon="7.33858"><ele></ele><time>2016-8-31T1:2:54Z</time></trkpt>
<trkpt lat="46.18911" lon="7.3385"><ele></ele><time>2016-8-31T1:2:57Z</time></trkpt>
<trkpt lat="46.18927" lon="7.33842"><ele></ele><time>2016-8-31T1:3:0Z</time></trkpt>
<trkpt lat="46.18934" lon="7.33838"><ele></ele><time>2016-8-31T1:3:3Z</time></trkpt>
<trkpt lat="46.18943" lon="7.33837"><ele></ele><time>2016-8-31T1:3:6Z</time></trkpt>
<trkpt lat="46.18959" lon="7.33834"><ele></ele><time>2016-8-31T1:3:9Z</time></trkpt>
<trkpt lat="46.18976" lon="7.33841"><ele></ele><time>2016-8-31T1:3:12Z</time></trkpt>
<trkpt lat="46.18994" lon="7.33849"><ele></ele><time>2016-8-31T1:3:15Z</time></trkpt>
<trkpt lat="46.19002" lon="7.33852"><ele></ele><time>2016-8-31T1:3:18Z</time></trkpt>
<trkpt lat="46.1901" lon="7.33856"><ele></ele><time>2016-8-31T1:3:21Z</time></trkpt>
<trkpt lat="46.19026" lon="7.33863"><ele></ele><time>2016-8-31T1:3:24Z</time></trkpt>
<trkpt lat="46.19033" lon="7.33866"><ele></ele><time>2016-8-31T1:3:27Z</time></trkpt>
<trkpt lat="46.1904" lon="7.33867"><ele></ele><time>2016-8-31T1:3:30Z</time></trkpt>
<trkpt lat="46.19054" lon="7.33867"><ele></ele><time>2016-8-31T1:3:33Z</time></trkpt>
<trkpt lat="46.19068" lon="7.33867"><ele></ele><time>2016-8-31T1:3:36Z</time></trkpt>
<trkpt lat="46.19075" lon="7.33868"><ele></ele><time>2016-8-31T1:3:39Z</time></trkpt>
<trkpt lat="46.19082" lon="7.33865"><ele></ele><time>2016-8-31T1:3:42Z</time></trkpt>
<trkpt lat="46.19095" lon="7.3386"><ele></ele><time>2016-8-31T1:3:45Z</time></trkpt>
<trkpt lat="46.19108" lon="7.33854"><ele></ele><time>2016-8-31T1:3:48Z</time></trkpt>
<trkpt lat="46.1912" lon="7.33856"><ele></ele><time>2016-8-31T1:3:51Z</time></trkpt>
<trkpt lat="46.19133" lon="7.33859"><ele></ele><time>2016-8-31T1:3:54Z</time></trkpt>
<trkpt lat="46.19145" lon="7.33862"><ele></ele><time>2016-8-31T1:3:57Z</time></trkpt>
<trkpt lat="46.19158" lon="7.33864"><ele></ele><time>2016-8-31T1:4:0Z</time></trkpt>
<trkpt lat="46.19171" lon="7.33868"><ele></ele><time>2016-8-31T1:4:3Z</time></trkpt>
<trkpt lat="46.19184" lon="7.33872"><ele></ele><time>2016-8-31T1:4:6Z</time></trkpt>
<trkpt lat="46.19198" lon="7.33876"><ele></ele><time>2016-8-31T1:4:9Z</time></trkpt>
<trkpt lat="46.19204" lon="7.33879"><ele></ele><time>2016-8-31T1:4:12Z</time></trkpt>
<trkpt lat="46.1921" lon="7.33881"><ele></ele><time>2016-8-31T1:4:15Z</time></trkpt>
<trkpt lat="46.19222" lon="7.33885"><ele></ele><time>2016-8-31T1:4:18Z</time></trkpt>
<trkpt lat="46.19233" lon="7.33889"><ele></ele><time>2016-8-31T1:4:21Z</time></trkpt>
<trkpt lat="46.19245" lon="7.33893"><ele></ele><time>2016-8-31T1:4:24Z</time></trkpt>
<trkpt lat="46.1925" lon="7.33895"><ele></ele><time>2016-8-31T1:4:27Z</time></trkpt>
<trkpt lat="46.19254" lon="7.33895"><ele></ele><time>2016-8-31T1:4:30Z</time></trkpt>
<trkpt lat="46.19259" lon="7.33897"><ele></ele><time>2016-8-31T1:4:33Z</time></trkpt>
<trkpt lat="46.19265" lon="7.33898"><ele></ele><time>2016-8-31T1:4:36Z</time></trkpt>
<trkpt lat="46.19271" lon="7.33899"><ele></ele><time>2016-8-31T1:4:39Z</time></trkpt>
<trkpt lat="46.19276" lon="7.33901"><ele></ele><time>2016-8-31T1:4:42Z</time></trkpt>
<trkpt lat="46.19282" lon="7.33902"><ele></ele><time>2016-8-31T1:4:45Z</time></trkpt>
<trkpt lat="46.19288" lon="7.33904"><ele></ele><time>2016-8-31T1:4:48Z</time></trkpt>
<trkpt lat="46.19293" lon="7.33905"><ele></ele><time>2016-8-31T1:4:51Z</time></trkpt>
<trkpt lat="46.19296" lon="7.33906"><ele></ele><time>2016-8-31T1:4:54Z</time></trkpt>
<trkpt lat="46.19298" lon="7.33906"><ele></ele><time>2016-8-31T1:4:57Z</time></trkpt>
<trkpt lat="46.19301" lon="7.33908"><ele></ele><time>2016-8-31T1:5:0Z</time></trkpt>
<trkpt lat="46.19303" lon="7.33908"><ele></ele><time>2016-8-31T1:5:3Z</time></trkpt>
<trkpt lat="46.19304" lon="7.33909"><ele></ele><time>2016-8-31T1:5:6Z</time></trkpt>
<trkpt lat="46.19307" lon="7.3391"><ele></ele><time>2016-8-31T1:5:9Z</time></trkpt>
<trkpt lat="46.19311" lon="7.33911"><ele></ele><time>2016-8-31T1:5:12Z</time></trkpt>
<trkpt lat="46.19312" lon="7.33912"><ele></ele><time>2016-8-31T1:5:15Z</time></trkpt>
<trkpt lat="46.19314" lon="7.33912"><ele></ele><time>2016-8-31T1:5:18Z</time></trkpt>
<trkpt lat="46.19317" lon="7.33914"><ele></ele><time>2016-8-31T1:5:21Z</time></trkpt>
<trkpt lat="46.1932" lon="7.33915"><ele></ele><time>2016-8-31T1:5:24Z</time></trkpt>
<trkpt lat="46.19324" lon="7.33916"><ele></ele><time>2016-8-31T1:5:27Z</time></trkpt>
<trkpt lat="46.19327" lon="7.33917"><ele></ele><time>2016-8-31T1:5:30Z</time></trkpt>
<trkpt lat="46.1933" lon="7.33918"><ele></ele><time>2016-8-31T1:5:33Z</time></trkpt>
<trkpt lat="46.19333" lon="7.3392"><ele></ele><time>2016-8-31T1:5:36Z</time></trkpt>
<trkpt lat="46.19337" lon="7.33921"><ele></ele><time>2016-8-31T1:5:39Z</time></trkpt>
<trkpt lat="46.1934" lon="7.33922"><ele></ele><time>2016-8-31T1:5:42Z</time></trkpt>
<trkpt lat="46.19341" lon="7.33923"><ele></ele><time>2016-8-31T1:5:45Z</time></trkpt>
<trkpt lat="46.19344" lon="7.33924"><ele></ele><time>2016-8-31T1:5:48Z</time></trkpt>
<trkpt lat="46.19348" lon="7.33927"><ele></ele><time>2016-8-31T1:5:51Z</time></trkpt>
<trkpt lat="46.19353" lon="7.3393"><ele></ele><time>2016-8-31T1:5:54Z</time></trkpt>
<trkpt lat="46.19357" lon="7.33933"><ele></ele><time>2016-8-31T1:5:57Z</time></trkpt>
<trkpt lat="46.19362" lon="7.33936"><ele></ele><time>2016-8-31T1:6:0Z</time></trkpt>
<trkpt lat="46.19366" lon="7.33945"><ele></ele><time>2016-8-31T1:6:3Z</time></trkpt>
<trkpt lat="46.1937" lon="7.33954"><ele></ele><time>2016-8-31T1:6:6Z</time></trkpt>
<trkpt lat="46.19371" lon="7.33964"><ele></ele><time>2016-8-31T1:6:9Z</time></trkpt>
<trkpt lat="46.19372" lon="7.33974"><ele></ele><time>2016-8-31T1:6:12Z</time></trkpt>
<trkpt lat="46.19377" lon="7.3398"><ele></ele><time>2016-8-31T1:6:15Z</time></trkpt>
<trkpt lat="46.19383" lon="7.33986"><ele></ele><time>2016-8-31T1:6:18Z</time></trkpt>
<trkpt lat="46.19388" lon="7.33991"><ele></ele><time>2016-8-31T1:6:21Z</time></trkpt>
<trkpt lat="46.19393" lon="7.33997"><ele></ele><time>2016-8-31T1:6:24Z</time></trkpt>
<trkpt lat="46.19398" lon="7.34003"><ele></ele><time>2016-8-31T1:6:27Z</time></trkpt>
<trkpt lat="46.19404" lon="7.34008"><ele></ele><time>2016-8-31T1:6:30Z</time></trkpt>
<trkpt lat="46.19409" lon="7.34014"><ele></ele><time>2016-8-31T1:6:33Z</time></trkpt>
<trkpt lat="46.19416" lon="7.34022"><ele></ele><time>2016-8-31T1:6:36Z</time></trkpt>
<trkpt lat="46.1942" lon="7.34032"><ele></ele><time>2016-8-31T1:6:39Z</time></trkpt>
<trkpt lat="46.19425" lon="7.34042"><ele></ele><time>2016-8-31T1:6:42Z</time></trkpt>
<trkpt lat="46.19432" lon="7.34053"><ele></ele><time>2016-8-31T1:6:45Z</time></trkpt>
<trkpt lat="46.1944" lon="7.34063"><ele></ele><time>2016-8-31T1:6:48Z</time></trkpt>
<trkpt lat="46.19448" lon="7.34074"><ele></ele><time>2016-8-31T1:6:51Z</time></trkpt>
<trkpt lat="46.19454" lon="7.34089"><ele></ele><time>2016-8-31T1:6:54Z</time></trkpt>
<trkpt lat="46.19464" lon="7.34101"><ele></ele><time>2016-8-31T1:6:57Z</time></trkpt>
<trkpt lat="46.19469" lon="7.34107"><ele></ele><time>2016-8-31T1:7:0Z</time></trkpt>
<trkpt lat="46.19474" lon="7.34111"><ele></ele><time>2016-8-31T1:7:3Z</time></trkpt>
<trkpt lat="46.1948" lon="7.34115"><ele></ele><time>2016-8-31T1:7:6Z</time></trkpt>
<trkpt lat="46.19483" lon="7.34121"><ele></ele><time>2016-8-31T1:7:9Z</time></trkpt>
<trkpt lat="46.19489" lon="7.34135"><ele></ele><time>2016-8-31T1:7:12Z</time></trkpt>
<trkpt lat="46.19495" lon="7.34148"><ele></ele><time>2016-8-31T1:7:15Z</time></trkpt>
<trkpt lat="46.19501" lon="7.34162"><ele></ele><time>2016-8-31T1:7:18Z</time></trkpt>
<trkpt lat="46.19504" lon="7.34169"><ele></ele><time>2016-8-31T1:7:21Z</time></trkpt>
<trkpt lat="46.19506" lon="7.34176"><ele></ele><time>2016-8-31T1:7:24Z</time></trkpt>
<trkpt lat="46.1951" lon="7.34191"><ele></ele><time>2016-8-31T1:7:27Z</time></trkpt>
<trkpt lat="46.19516" lon="7.34198"><ele></ele><time>2016-8-31T1:7:30Z</time></trkpt>
<trkpt lat="46.19519" lon="7.34201"><ele></ele><time>2016-8-31T1:7:33Z</time></trkpt>
<trkpt lat="46.1952" lon="7.342"><ele></ele><time>2016-8-31T1:7:36Z</time></trkpt>
<trkpt lat="46.19522" lon="7.34195"><ele></ele><time>2016-8-31T1:7:39Z</time></trkpt>
<trkpt lat="46.19524" lon="7.34186"><ele></ele><time>2016-8-31T1:7:42Z</time></trkpt>
<trkpt lat="46.19524" lon="7.34182"><ele></ele><time>2016-8-31T1:7:45Z</time></trkpt>
<trkpt lat="46.19525" lon="7.34181"><ele></ele><time>2016-8-31T1:7:48Z</time></trkpt>
<trkpt lat="46.19525" lon="7.3418"><ele></ele><time>2016-8-31T1:7:51Z</time></trkpt>
<trkpt lat="46.19526" lon="7.3418"><ele></ele><time>2016-8-31T1:7:54Z</time></trkpt>
<trkpt lat="46.19526" lon="7.34179"><ele></ele><time>2016-8-31T1:7:57Z</time></trkpt>
<trkpt lat="46.19526" lon="7.34179"><ele></ele><time>2016-8-31T1:8:0Z</time></trkpt>
<trkpt lat="46.19526" lon="7.34179"><ele></ele><time>2016-8-31T1:8:3Z</time></trkpt>
<trkpt lat="46.19526" lon="7.34179"><ele></ele><time>2016-8-31T1:8:6Z</time></trkpt>
<trkpt lat="46.19526" lon="7.34179"><ele></ele><time>2016-8-31T1:8:9Z</time></trkpt>
<trkpt lat="46.19526" lon="7.34179"><ele></ele><time>2016-8-31T1:8:12Z</time></trkpt>
<trkpt lat="46.19526" lon="7.34179"><ele></ele><time>2016-8-31T1:8:15Z</time></trkpt>
<trkpt lat="46.19526" lon="7.34179"><ele></ele><time>2016-8-31T1:8:18Z</time></trkpt>
<trkpt lat="46.19526" lon="7.3418"><ele></ele><time>2016-8-31T1:8:21Z</time></trkpt>
<trkpt lat="46.19526" lon="7.3418"><ele></ele><time>2016-8-31T1:8:24Z</time></trkpt>
<trkpt lat="46.19526" lon="7.3418"><ele></ele><time>2016-8-31T1:8:27Z</time></trkpt>
<trkpt lat="46.19524" lon="7.34195"><ele></ele><time>2016-8-31T1:8:30Z</time></trkpt>
<trkpt lat="46.19523" lon="7.34195"><ele></ele><time>2016-8-31T1:8:33Z</time></trkpt>
<trkpt lat="46.19523" lon="7.34195"><ele></ele><time>2016-8-31T1:8:36Z</time></trkpt>
<trkpt lat="46.19522" lon="7.34196"><ele></ele><time>2016-8-31T1:8:39Z</time></trkpt>
<trkpt lat="46.19522" lon="7.34198"><ele></ele><time>2016-8-31T1:8:42Z</time></trkpt>
<trkpt lat="46.19521" lon="7.34199"><ele></ele><time>2016-8-31T1:8:45Z</time></trkpt>
<trkpt lat="46.19521" lon="7.34201"><ele></ele><time>2016-8-31T1:8:48Z</time></trkpt>
<trkpt lat="46.1952" lon="7.34202"><ele></ele><time>2016-8-31T1:8:51Z</time></trkpt>
<trkpt lat="46.19519" lon="7.34204"><ele></ele><time>2016-8-31T1:8:54Z</time></trkpt>
<trkpt lat="46.19519" lon="7.34205"><ele></ele><time>2016-8-31T1:8:57Z</time></trkpt>
<trkpt lat="46.19519" lon="7.34206"><ele></ele><time>2016-8-31T1:9:0Z</time></trkpt>
<trkpt lat="46.19518" lon="7.34207"><ele></ele><time>2016-8-31T1:9:3Z</time></trkpt>
<trkpt lat="46.19518" lon="7.34208"><ele></ele><time>2016-8-31T1:9:6Z</time></trkpt>
<trkpt lat="46.19517" lon="7.3421"><ele></ele><time>2016-8-31T1:9:9Z</time></trkpt>
<trkpt lat="46.19517" lon="7.34211"><ele></ele><time>2016-8-31T1:9:12Z</time></trkpt>
<trkpt lat="46.19516" lon="7.34213"><ele></ele><time>2016-8-31T1:9:15Z</time></trkpt>
<trkpt lat="46.19516" lon="7.34214"><ele></ele><time>2016-8-31T1:9:18Z</time></trkpt>
<trkpt lat="46.19516" lon="7.34215"><ele></ele><time>2016-8-31T1:9:21Z</time></trkpt>
<trkpt lat="46.19515" lon="7.34216"><ele></ele><time>2016-8-31T1:9:24Z</time></trkpt>
<trkpt lat="46.19514" lon="7.34218"><ele></ele><time>2016-8-31T1:9:27Z</time></trkpt>
<trkpt lat="46.19515" lon="7.3422"><ele></ele><time>2016-8-31T1:9:30Z</time></trkpt>
<trkpt lat="46.19516" lon="7.34223"><ele></ele><time>2016-8-31T1:9:33Z</time></trkpt>
<trkpt lat="46.19517" lon="7.34225"><ele></ele><time>2016-8-31T1:9:36Z</time></trkpt>
<trkpt lat="46.19518" lon="7.34228"><ele></ele><time>2016-8-31T1:9:39Z</time></trkpt>
<trkpt lat="46.19519" lon="7.34231"><ele></ele><time>2016-8-31T1:9:42Z</time></trkpt>
<trkpt lat="46.1952" lon="7.34234"><ele></ele><time>2016-8-31T1:9:45Z</time></trkpt>
<trkpt lat="46.19521" lon="7.34237"><ele></ele><time>2016-8-31T1:9:48Z</time></trkpt>
<trkpt lat="46.19521" lon="7.3424"><ele></ele><time>2016-8-31T1:9:51Z</time></trkpt>
<trkpt lat="46.19522" lon="7.34243"><ele></ele><time>2016-8-31T1:9:54Z</time></trkpt>
<trkpt lat="46.19523" lon="7.34245"><ele></ele><time>2016-8-31T1:9:57Z</time></trkpt>
<trkpt lat="46.19524" lon="7.34248"><ele></ele><time>2016-8-31T1:10:0Z</time></trkpt>
<trkpt lat="46.19525" lon="7.34251"><ele></ele><time>2016-8-31T1:10:3Z</time></trkpt>
<trkpt lat="46.19526" lon="7.34254"><ele></ele><time>2016-8-31T1:10:6Z</time></trkpt>
<trkpt lat="46.19527" lon="7.34257"><ele></ele><time>2016-8-31T1:10:9Z</time></trkpt>
<trkpt lat="46.19529" lon="7.34261"><ele></ele><time>2016-8-31T1:10:12Z</time></trkpt>
<trkpt lat="46.19529" lon="7.34263"><ele></ele><time>2016-8-31T1:10:15Z</time></trkpt>
<trkpt lat="46.1953" lon="7.34266"><ele></ele><time>2016-8-31T1:10:18Z</time></trkpt>
<trkpt lat="46.19531" lon="7.34268"><ele></ele><time>2016-8-31T1:10:21Z</time></trkpt>
<trkpt lat="46.19532" lon="7.34271"><ele></ele><time>2016-8-31T1:10:24Z</time></trkpt>
<trkpt lat="46.19533" lon="7.34274"><ele></ele><time>2016-8-31T1:10:27Z</time></trkpt>
<trkpt lat="46.19534" lon="7.34277"><ele></ele><time>2016-8-31T1:10:30Z</time></trkpt>
<trkpt lat="46.19535" lon="7.3428"><ele></ele><time>2016-8-31T1:10:33Z</time></trkpt>
<trkpt lat="46.19536" lon="7.34284"><ele></ele><time>2016-8-31T1:10:36Z</time></trkpt>
<trkpt lat="46.19537" lon="7.34288"><ele></ele><time>2016-8-31T1:10:39Z</time></trkpt>
<trkpt lat="46.19538" lon="7.34291"><ele></ele><time>2016-8-31T1:10:42Z</time></trkpt>
<trkpt lat="46.19539" lon="7.34295"><ele></ele><time>2016-8-31T1:10:45Z</time></trkpt>
<trkpt lat="46.19541" lon="7.34302"><ele></ele><time>2016-8-31T1:10:48Z</time></trkpt>
<trkpt lat="46.19542" lon="7.34305"><ele></ele><time>2016-8-31T1:10:51Z</time></trkpt>
<trkpt lat="46.19544" lon="7.34309"><ele></ele><time>2016-8-31T1:10:54Z</time></trkpt>
<trkpt lat="46.19545" lon="7.34312"><ele></ele><time>2016-8-31T1:10:57Z</time></trkpt>
<trkpt lat="46.19546" lon="7.34316"><ele></ele><time>2016-8-31T1:11:0Z</time></trkpt>
<trkpt lat="46.19547" lon="7.34319"><ele></ele><time>2016-8-31T1:11:3Z</time></trkpt>
<trkpt lat="46.19548" lon="7.34323"><ele></ele><time>2016-8-31T1:11:6Z</time></trkpt>
<trkpt lat="46.19549" lon="7.34326"><ele></ele><time>2016-8-31T1:11:9Z</time></trkpt>
<trkpt lat="46.19552" lon="7.34331"><ele></ele><time>2016-8-31T1:11:12Z</time></trkpt>
<trkpt lat="46.19556" lon="7.34336"><ele></ele><time>2016-8-31T1:11:15Z</time></trkpt>
<trkpt lat="46.1956" lon="7.34341"><ele></ele><time>2016-8-31T1:11:18Z</time></trkpt>
<trkpt lat="46.19564" lon="7.34346"><ele></ele><time>2016-8-31T1:11:21Z</time></trkpt>
<trkpt lat="46.19566" lon="7.34354"><ele></ele><time>2016-8-31T1:11:24Z</time></trkpt>
<trkpt lat="46.19568" lon="7.34363"><ele></ele><time>2016-8-31T1:11:27Z</time></trkpt>
<trkpt lat="46.19571" lon="7.34373"><ele></ele><time>2016-8-31T1:11:30Z</time></trkpt>
<trkpt lat="46.19573" lon="7.34382"><ele></ele><time>2016-8-31T1:11:33Z</time></trkpt>
<trkpt lat="46.19575" lon="7.34391"><ele></ele><time>2016-8-31T1:11:36Z</time></trkpt>
<trkpt lat="46.19577" lon="7.344"><ele></ele><time>2016-8-31T1:11:39Z</time></trkpt>
<trkpt lat="46.1958" lon="7.34409"><ele></ele><time>2016-8-31T1:11:42Z</time></trkpt>
<trkpt lat="46.1958" lon="7.34414"><ele></ele><time>2016-8-31T1:11:45Z</time></trkpt>
<trkpt lat="46.1958" lon="7.34418"><ele></ele><time>2016-8-31T1:11:48Z</time></trkpt>
<trkpt lat="46.1958" lon="7.34422"><ele></ele><time>2016-8-31T1:11:51Z</time></trkpt>
<trkpt lat="46.19579" lon="7.34428"><ele></ele><time>2016-8-31T1:11:54Z</time></trkpt>
<trkpt lat="46.19577" lon="7.34433"><ele></ele><time>2016-8-31T1:11:57Z</time></trkpt>
<trkpt lat="46.19576" lon="7.34439"><ele></ele><time>2016-8-31T1:12:0Z</time></trkpt>
<trkpt lat="46.19575" lon="7.34444"><ele></ele><time>2016-8-31T1:12:3Z</time></trkpt>
<trkpt lat="46.19574" lon="7.34447"><ele></ele><time>2016-8-31T1:12:6Z</time></trkpt>
<trkpt lat="46.19574" lon="7.3445"><ele></ele><time>2016-8-31T1:12:9Z</time></trkpt>
<trkpt lat="46.19572" lon="7.34455"><ele></ele><time>2016-8-31T1:12:12Z</time></trkpt>
<trkpt lat="46.19571" lon="7.34461"><ele></ele><time>2016-8-31T1:12:15Z</time></trkpt>
<trkpt lat="46.1957" lon="7.34467"><ele></ele><time>2016-8-31T1:12:18Z</time></trkpt>
<trkpt lat="46.19568" lon="7.34472"><ele></ele><time>2016-8-31T1:12:21Z</time></trkpt>
<trkpt lat="46.19567" lon="7.34478"><ele></ele><time>2016-8-31T1:12:24Z</time></trkpt>
<trkpt lat="46.19566" lon="7.34483"><ele></ele><time>2016-8-31T1:12:27Z</time></trkpt>
<trkpt lat="46.19565" lon="7.34486"><ele></ele><time>2016-8-31T1:12:30Z</time></trkpt>
<trkpt lat="46.19565" lon="7.34488"><ele></ele><time>2016-8-31T1:12:33Z</time></trkpt>
<trkpt lat="46.19564" lon="7.34494"><ele></ele><time>2016-8-31T1:12:36Z</time></trkpt>
<trkpt lat="46.19564" lon="7.34497"><ele></ele><time>2016-8-31T1:12:39Z</time></trkpt>
<trkpt lat="46.19563" lon="7.34499"><ele></ele><time>2016-8-31T1:12:42Z</time></trkpt>
<trkpt lat="46.19563" lon="7.34505"><ele></ele><time>2016-8-31T1:12:45Z</time></trkpt>
<trkpt lat="46.19562" lon="7.3451"><ele></ele><time>2016-8-31T1:12:48Z</time></trkpt>
<trkpt lat="46.19561" lon="7.34515"><ele></ele><time>2016-8-31T1:12:51Z</time></trkpt>
<trkpt lat="46.1956" lon="7.34521"><ele></ele><time>2016-8-31T1:12:54Z</time></trkpt>
<trkpt lat="46.19559" lon="7.34526"><ele></ele><time>2016-8-31T1:12:57Z</time></trkpt>
<trkpt lat="46.19559" lon="7.34531"><ele></ele><time>2016-8-31T1:13:0Z</time></trkpt>
<trkpt lat="46.19558" lon="7.34537"><ele></ele><time>2016-8-31T1:13:3Z</time></trkpt>
<trkpt lat="46.19557" lon="7.34542"><ele></ele><time>2016-8-31T1:13:6Z</time></trkpt>
<trkpt lat="46.19556" lon="7.34547"><ele></ele><time>2016-8-31T1:13:9Z</time></trkpt>
<trkpt lat="46.19556" lon="7.3455"><ele></ele><time>2016-8-31T1:13:12Z</time></trkpt>
<trkpt lat="46.19556" lon="7.34553"><ele></ele><time>2016-8-31T1:13:15Z</time></trkpt>
<trkpt lat="46.19556" lon="7.34558"><ele></ele><time>2016-8-31T1:13:18Z</time></trkpt>
<trkpt lat="46.19557" lon="7.34563"><ele></ele><time>2016-8-31T1:13:21Z</time></trkpt>
<trkpt lat="46.19557" lon="7.34569"><ele></ele><time>2016-8-31T1:13:24Z</time></trkpt>
<trkpt lat="46.19557" lon="7.34574"><ele></ele><time>2016-8-31T1:13:27Z</time></trkpt>
<trkpt lat="46.19557" lon="7.34579"><ele></ele><time>2016-8-31T1:13:30Z</time></trkpt>
<trkpt lat="46.19558" lon="7.34584"><ele></ele><time>2016-8-31T1:13:33Z</time></trkpt>
<trkpt lat="46.19558" lon="7.3459"><ele></ele><time>2016-8-31T1:13:36Z</time></trkpt>
<trkpt lat="46.19558" lon="7.34595"><ele></ele><time>2016-8-31T1:13:39Z</time></trkpt>
<trkpt lat="46.19558" lon="7.346"><ele></ele><time>2016-8-31T1:13:42Z</time></trkpt>
<trkpt lat="46.19559" lon="7.34606"><ele></ele><time>2016-8-31T1:13:45Z</time></trkpt>
<trkpt lat="46.19559" lon="7.34611"><ele></ele><time>2016-8-31T1:13:48Z</time></trkpt>
<trkpt lat="46.19559" lon="7.34616"><ele></ele><time>2016-8-31T1:13:51Z</time></trkpt>
<trkpt lat="46.19559" lon="7.34622"><ele></ele><time>2016-8-31T1:13:54Z</time></trkpt>
<trkpt lat="46.19559" lon="7.34628"><ele></ele><time>2016-8-31T1:13:57Z</time></trkpt>
<trkpt lat="46.19559" lon="7.34634"><ele></ele><time>2016-8-31T1:14:0Z</time></trkpt>
<trkpt lat="46.19559" lon="7.34639"><ele></ele><time>2016-8-31T1:14:3Z</time></trkpt>
<trkpt lat="46.19559" lon="7.34645"><ele></ele><time>2016-8-31T1:14:6Z</time></trkpt>
<trkpt lat="46.19559" lon="7.34648"><ele></ele><time>2016-8-31T1:14:9Z</time></trkpt>
<trkpt lat="46.19558" lon="7.34651"><ele></ele><time>2016-8-31T1:14:12Z</time></trkpt>
<trkpt lat="46.19558" lon="7.34657"><ele></ele><time>2016-8-31T1:14:15Z</time></trkpt>
<trkpt lat="46.19558" lon="7.34663"><ele></ele><time>2016-8-31T1:14:18Z</time></trkpt>
<trkpt lat="46.19558" lon="7.34668"><ele></ele><time>2016-8-31T1:14:21Z</time></trkpt>
<trkpt lat="46.19558" lon="7.34674"><ele></ele><time>2016-8-31T1:14:24Z</time></trkpt>
<trkpt lat="46.19558" lon="7.3468"><ele></ele><time>2016-8-31T1:14:27Z</time></trkpt>
<trkpt lat="46.19558" lon="7.34683"><ele></ele><time>2016-8-31T1:14:30Z</time></trkpt>
<trkpt lat="46.19558" lon="7.34685"><ele></ele><time>2016-8-31T1:14:33Z</time></trkpt>
<trkpt lat="46.19559" lon="7.3469"><ele></ele><time>2016-8-31T1:14:36Z</time></trkpt>
<trkpt lat="46.1956" lon="7.34695"><ele></ele><time>2016-8-31T1:14:39Z</time></trkpt>
<trkpt lat="46.19561" lon="7.347"><ele></ele><time>2016-8-31T1:14:42Z</time></trkpt>
<trkpt lat="46.19561" lon="7.34705"><ele></ele><time>2016-8-31T1:14:45Z</time></trkpt>
<trkpt lat="46.19562" lon="7.3471"><ele></ele><time>2016-8-31T1:14:48Z</time></trkpt>
<trkpt lat="46.19563" lon="7.34715"><ele></ele><time>2016-8-31T1:14:51Z</time></trkpt>
<trkpt lat="46.19563" lon="7.3472"><ele></ele><time>2016-8-31T1:14:54Z</time></trkpt>
<trkpt lat="46.19564" lon="7.34725"><ele></ele><time>2016-8-31T1:14:57Z</time></trkpt>
<trkpt lat="46.19565" lon="7.3473"><ele></ele><time>2016-8-31T1:15:0Z</time></trkpt>
<trkpt lat="46.19566" lon="7.34735"><ele></ele><time>2016-8-31T1:15:3Z</time></trkpt>
<trkpt lat="46.19566" lon="7.3474"><ele></ele><time>2016-8-31T1:15:6Z</time></trkpt>
<trkpt lat="46.19567" lon="7.34745"><ele></ele><time>2016-8-31T1:15:9Z</time></trkpt>
<trkpt lat="46.19568" lon="7.34747"><ele></ele><time>2016-8-31T1:15:12Z</time></trkpt>
<trkpt lat="46.1957" lon="7.34754"><ele></ele><time>2016-8-31T1:15:15Z</time></trkpt>
<trkpt lat="46.19573" lon="7.34762"><ele></ele><time>2016-8-31T1:15:18Z</time></trkpt>
<trkpt lat="46.19576" lon="7.3477"><ele></ele><time>2016-8-31T1:15:21Z</time></trkpt>
<trkpt lat="46.19582" lon="7.34786"><ele></ele><time>2016-8-31T1:15:24Z</time></trkpt>
<trkpt lat="46.19588" lon="7.34802"><ele></ele><time>2016-8-31T1:15:27Z</time></trkpt>
<trkpt lat="46.19591" lon="7.34808"><ele></ele><time>2016-8-31T1:15:30Z</time></trkpt>
<trkpt lat="46.19595" lon="7.34813"><ele></ele><time>2016-8-31T1:15:33Z</time></trkpt>
<trkpt lat="46.19599" lon="7.34818"><ele></ele><time>2016-8-31T1:15:36Z</time></trkpt>
<trkpt lat="46.19601" lon="7.34825"><ele></ele><time>2016-8-31T1:15:39Z</time></trkpt>
<trkpt lat="46.19604" lon="7.3484"><ele></ele><time>2016-8-31T1:15:42Z</time></trkpt>
<trkpt lat="46.19606" lon="7.34847"><ele></ele><time>2016-8-31T1:15:45Z</time></trkpt>
<trkpt lat="46.19609" lon="7.34851"><ele></ele><time>2016-8-31T1:15:48Z</time></trkpt>
<trkpt lat="46.19615" lon="7.34857"><ele></ele><time>2016-8-31T1:15:51Z</time></trkpt>
<trkpt lat="46.1962" lon="7.34863"><ele></ele><time>2016-8-31T1:15:54Z</time></trkpt>
<trkpt lat="46.19626" lon="7.34869"><ele></ele><time>2016-8-31T1:15:57Z</time></trkpt>
<trkpt lat="46.19631" lon="7.34869"><ele></ele><time>2016-8-31T1:16:0Z</time></trkpt>
<trkpt lat="46.19636" lon="7.34869"><ele></ele><time>2016-8-31T1:16:3Z</time></trkpt>
<trkpt lat="46.19641" lon="7.3487"><ele></ele><time>2016-8-31T1:16:6Z</time></trkpt>
<trkpt lat="46.19645" lon="7.34878"><ele></ele><time>2016-8-31T1:16:9Z</time></trkpt>
<trkpt lat="46.19646" lon="7.34892"><ele></ele><time>2016-8-31T1:16:12Z</time></trkpt>
<trkpt lat="46.19648" lon="7.34906"><ele></ele><time>2016-8-31T1:16:15Z</time></trkpt>
<trkpt lat="46.19649" lon="7.34921"><ele></ele><time>2016-8-31T1:16:18Z</time></trkpt>
<trkpt lat="46.1965" lon="7.34935"><ele></ele><time>2016-8-31T1:16:21Z</time></trkpt>
<trkpt lat="46.19652" lon="7.34945"><ele></ele><time>2016-8-31T1:16:24Z</time></trkpt>
<trkpt lat="46.19654" lon="7.34954"><ele></ele><time>2016-8-31T1:16:27Z</time></trkpt>
<trkpt lat="46.19656" lon="7.34963"><ele></ele><time>2016-8-31T1:16:30Z</time></trkpt>
<trkpt lat="46.19657" lon="7.34973"><ele></ele><time>2016-8-31T1:16:33Z</time></trkpt>
<trkpt lat="46.19659" lon="7.34982"><ele></ele><time>2016-8-31T1:16:36Z</time></trkpt>
<trkpt lat="46.1966" lon="7.34987"><ele></ele><time>2016-8-31T1:16:39Z</time></trkpt>
<trkpt lat="46.19661" lon="7.34992"><ele></ele><time>2016-8-31T1:16:42Z</time></trkpt>
<trkpt lat="46.19663" lon="7.35001"><ele></ele><time>2016-8-31T1:16:45Z</time></trkpt>
<trkpt lat="46.19667" lon="7.35007"><ele></ele><time>2016-8-31T1:16:48Z</time></trkpt>
<trkpt lat="46.19669" lon="7.3501"><ele></ele><time>2016-8-31T1:16:51Z</time></trkpt>
<trkpt lat="46.19671" lon="7.35013"><ele></ele><time>2016-8-31T1:16:54Z</time></trkpt>
<trkpt lat="46.19675" lon="7.35019"><ele></ele><time>2016-8-31T1:16:57Z</time></trkpt>
<trkpt lat="46.19679" lon="7.35025"><ele></ele><time>2016-8-31T1:17:0Z</time></trkpt>
<trkpt lat="46.19683" lon="7.35031"><ele></ele><time>2016-8-31T1:17:3Z</time></trkpt>
<trkpt lat="46.19687" lon="7.35037"><ele></ele><time>2016-8-31T1:17:6Z</time></trkpt>
<trkpt lat="46.19692" lon="7.35043"><ele></ele><time>2016-8-31T1:17:9Z</time></trkpt>
<trkpt lat="46.19696" lon="7.35049"><ele></ele><time>2016-8-31T1:17:12Z</time></trkpt>
<trkpt lat="46.197" lon="7.35053"><ele></ele><time>2016-8-31T1:17:15Z</time></trkpt>
<trkpt lat="46.19704" lon="7.35057"><ele></ele><time>2016-8-31T1:17:18Z</time></trkpt>
<trkpt lat="46.19708" lon="7.35061"><ele></ele><time>2016-8-31T1:17:21Z</time></trkpt>
<trkpt lat="46.19712" lon="7.35066"><ele></ele><time>2016-8-31T1:17:24Z</time></trkpt>
<trkpt lat="46.19716" lon="7.3507"><ele></ele><time>2016-8-31T1:17:27Z</time></trkpt>
<trkpt lat="46.1972" lon="7.35074"><ele></ele><time>2016-8-31T1:17:30Z</time></trkpt>
<trkpt lat="46.19724" lon="7.35078"><ele></ele><time>2016-8-31T1:17:33Z</time></trkpt>
<trkpt lat="46.19728" lon="7.35082"><ele></ele><time>2016-8-31T1:17:36Z</time></trkpt>
<trkpt lat="46.19732" lon="7.35087"><ele></ele><time>2016-8-31T1:17:39Z</time></trkpt>
<trkpt lat="46.19736" lon="7.3509"><ele></ele><time>2016-8-31T1:17:42Z</time></trkpt>
<trkpt lat="46.1974" lon="7.35093"><ele></ele><time>2016-8-31T1:17:45Z</time></trkpt>
<trkpt lat="46.19743" lon="7.35097"><ele></ele><time>2016-8-31T1:17:48Z</time></trkpt>
<trkpt lat="46.19747" lon="7.351"><ele></ele><time>2016-8-31T1:17:51Z</time></trkpt>
<trkpt lat="46.19751" lon="7.35103"><ele></ele><time>2016-8-31T1:17:54Z</time></trkpt>
<trkpt lat="46.19754" lon="7.35107"><ele></ele><time>2016-8-31T1:17:57Z</time></trkpt>
<trkpt lat="46.19756" lon="7.35102"><ele></ele><time>2016-8-31T1:18:0Z</time></trkpt>
<trkpt lat="46.19758" lon="7.35096"><ele></ele><time>2016-8-31T1:18:3Z</time></trkpt>
<trkpt lat="46.19759" lon="7.35091"><ele></ele><time>2016-8-31T1:18:6Z</time></trkpt>
<trkpt lat="46.19759" lon="7.35085"><ele></ele><time>2016-8-31T1:18:9Z</time></trkpt>
<trkpt lat="46.19758" lon="7.35079"><ele></ele><time>2016-8-31T1:18:12Z</time></trkpt>
<trkpt lat="46.19757" lon="7.35066"><ele></ele><time>2016-8-31T1:18:15Z</time></trkpt>
<trkpt lat="46.19756" lon="7.35053"><ele></ele><time>2016-8-31T1:18:18Z</time></trkpt>
<trkpt lat="46.19755" lon="7.35047"><ele></ele><time>2016-8-31T1:18:21Z</time></trkpt>
<trkpt lat="46.19753" lon="7.35042"><ele></ele><time>2016-8-31T1:18:24Z</time></trkpt>
<trkpt lat="46.19752" lon="7.35038"><ele></ele><time>2016-8-31T1:18:27Z</time></trkpt>
<trkpt lat="46.19751" lon="7.35037"><ele></ele><time>2016-8-31T1:18:30Z</time></trkpt>
<trkpt lat="46.19752" lon="7.35036"><ele></ele><time>2016-8-31T1:18:33Z</time></trkpt>
<trkpt lat="46.19752" lon="7.35035"><ele></ele><time>2016-8-31T1:18:36Z</time></trkpt>
<trkpt lat="46.19753" lon="7.35034"><ele></ele><time>2016-8-31T1:18:39Z</time></trkpt>
<trkpt lat="46.19753" lon="7.35033"><ele></ele><time>2016-8-31T1:18:42Z</time></trkpt>
<trkpt lat="46.19754" lon="7.35033"><ele></ele><time>2016-8-31T1:18:45Z</time></trkpt>
<trkpt lat="46.19754" lon="7.35032"><ele></ele><time>2016-8-31T1:18:48Z</time></trkpt>
<trkpt lat="46.19754" lon="7.35031"><ele></ele><time>2016-8-31T1:18:51Z</time></trkpt>
<trkpt lat="46.19755" lon="7.3503"><ele></ele><time>2016-8-31T1:18:54Z</time></trkpt>
<trkpt lat="46.19755" lon="7.35029"><ele></ele><time>2016-8-31T1:18:57Z</time></trkpt>
<trkpt lat="46.19755" lon="7.35029"><ele></ele><time>2016-8-31T1:19:0Z</time></trkpt>
<trkpt lat="46.19756" lon="7.35028"><ele></ele><time>2016-8-31T1:19:3Z</time></trkpt>
<trkpt lat="46.19756" lon="7.35028"><ele></ele><time>2016-8-31T1:19:6Z</time></trkpt>
<trkpt lat="46.19756" lon="7.35025"><ele></ele><time>2016-8-31T1:19:9Z</time></trkpt>
<trkpt lat="46.19756" lon="7.35017"><ele></ele><time>2016-8-31T1:19:12Z</time></trkpt>
<trkpt lat="46.19757" lon="7.3501"><ele></ele><time>2016-8-31T1:19:15Z</time></trkpt>
<trkpt lat="46.19757" lon="7.35003"><ele></ele><time>2016-8-31T1:19:18Z</time></trkpt>
<trkpt lat="46.19757" lon="7.34996"><ele></ele><time>2016-8-31T1:19:21Z</time></trkpt>
<trkpt lat="46.19757" lon="7.34992"><ele></ele><time>2016-8-31T1:19:24Z</time></trkpt>
<trkpt lat="46.1976" lon="7.34995"><ele></ele><time>2016-8-31T1:19:27Z</time></trkpt>
<trkpt lat="46.19765" lon="7.35001"><ele></ele><time>2016-8-31T1:19:30Z</time></trkpt>
<trkpt lat="46.19771" lon="7.35008"><ele></ele><time>2016-8-31T1:19:33Z</time></trkpt>
<trkpt lat="46.19774" lon="7.35011"><ele></ele><time>2016-8-31T1:19:36Z</time></trkpt>
<trkpt lat="46.19775" lon="7.35016"><ele></ele><time>2016-8-31T1:19:39Z</time></trkpt>
<trkpt lat="46.19779" lon="7.35027"><ele></ele><time>2016-8-31T1:19:42Z</time></trkpt>
<trkpt lat="46.19781" lon="7.35032"><ele></ele><time>2016-8-31T1:19:45Z</time></trkpt>
<trkpt lat="46.19782" lon="7.35037"><ele></ele><time>2016-8-31T1:19:48Z</time></trkpt>
<trkpt lat="46.19786" lon="7.35048"><ele></ele><time>2016-8-31T1:19:51Z</time></trkpt>
<trkpt lat="46.19788" lon="7.35053"><ele></ele><time>2016-8-31T1:19:54Z</time></trkpt>
<trkpt lat="46.19791" lon="7.35057"><ele></ele><time>2016-8-31T1:19:57Z</time></trkpt>
<trkpt lat="46.19794" lon="7.35061"><ele></ele><time>2016-8-31T1:20:0Z</time></trkpt>
<trkpt lat="46.19798" lon="7.35065"><ele></ele><time>2016-8-31T1:20:3Z</time></trkpt>
<trkpt lat="46.19804" lon="7.35073"><ele></ele><time>2016-8-31T1:20:6Z</time></trkpt>
<trkpt lat="46.1981" lon="7.35089"><ele></ele><time>2016-8-31T1:20:9Z</time></trkpt>
<trkpt lat="46.19816" lon="7.35105"><ele></ele><time>2016-8-31T1:20:12Z</time></trkpt>
<trkpt lat="46.19822" lon="7.35121"><ele></ele><time>2016-8-31T1:20:15Z</time></trkpt>
<trkpt lat="46.19828" lon="7.35137"><ele></ele><time>2016-8-31T1:20:18Z</time></trkpt>
<trkpt lat="46.19835" lon="7.35157"><ele></ele><time>2016-8-31T1:20:21Z</time></trkpt>
<trkpt lat="46.19841" lon="7.35168"><ele></ele><time>2016-8-31T1:20:24Z</time></trkpt>
<trkpt lat="46.19853" lon="7.35186"><ele></ele><time>2016-8-31T1:20:27Z</time></trkpt>
<trkpt lat="46.19859" lon="7.35195"><ele></ele><time>2016-8-31T1:20:30Z</time></trkpt>
<trkpt lat="46.19865" lon="7.35204"><ele></ele><time>2016-8-31T1:20:33Z</time></trkpt>
<trkpt lat="46.19872" lon="7.3522"><ele></ele><time>2016-8-31T1:20:36Z</time></trkpt>
<trkpt lat="46.19878" lon="7.35236"><ele></ele><time>2016-8-31T1:20:39Z</time></trkpt>
<trkpt lat="46.19884" lon="7.3524"><ele></ele><time>2016-8-31T1:20:42Z</time></trkpt>
<trkpt lat="46.1989" lon="7.35244"><ele></ele><time>2016-8-31T1:20:45Z</time></trkpt>
<trkpt lat="46.19902" lon="7.35251"><ele></ele><time>2016-8-31T1:20:48Z</time></trkpt>
<trkpt lat="46.19914" lon="7.35259"><ele></ele><time>2016-8-31T1:20:51Z</time></trkpt>
<trkpt lat="46.19923" lon="7.35275"><ele></ele><time>2016-8-31T1:20:54Z</time></trkpt>
<trkpt lat="46.19932" lon="7.35292"><ele></ele><time>2016-8-31T1:20:57Z</time></trkpt>
<trkpt lat="46.19943" lon="7.35306"><ele></ele><time>2016-8-31T1:21:0Z</time></trkpt>
<trkpt lat="46.19949" lon="7.35313"><ele></ele><time>2016-8-31T1:21:3Z</time></trkpt>
<trkpt lat="46.19955" lon="7.35318"><ele></ele><time>2016-8-31T1:21:6Z</time></trkpt>
<trkpt lat="46.1996" lon="7.35322"><ele></ele><time>2016-8-31T1:21:9Z</time></trkpt>
<trkpt lat="46.19966" lon="7.35323"><ele></ele><time>2016-8-31T1:21:12Z</time></trkpt>
<trkpt lat="46.19978" lon="7.35324"><ele></ele><time>2016-8-31T1:21:15Z</time></trkpt>
<trkpt lat="46.19984" lon="7.35325"><ele></ele><time>2016-8-31T1:21:18Z</time></trkpt>
<trkpt lat="46.19992" lon="7.35329"><ele></ele><time>2016-8-31T1:21:21Z</time></trkpt>
<trkpt lat="46.20001" lon="7.35341"><ele></ele><time>2016-8-31T1:21:24Z</time></trkpt>
<trkpt lat="46.20002" lon="7.35358"><ele></ele><time>2016-8-31T1:21:27Z</time></trkpt>
<trkpt lat="46.20003" lon="7.35375"><ele></ele><time>2016-8-31T1:21:30Z</time></trkpt>
<trkpt lat="46.20004" lon="7.35393"><ele></ele><time>2016-8-31T1:21:33Z</time></trkpt>
<trkpt lat="46.20004" lon="7.35401"><ele></ele><time>2016-8-31T1:21:36Z</time></trkpt>
<trkpt lat="46.20005" lon="7.3541"><ele></ele><time>2016-8-31T1:21:39Z</time></trkpt>
<trkpt lat="46.20005" lon="7.35415"><ele></ele><time>2016-8-31T1:21:42Z</time></trkpt>
<trkpt lat="46.20005" lon="7.3542"><ele></ele><time>2016-8-31T1:21:45Z</time></trkpt>
<trkpt lat="46.20006" lon="7.35424"><ele></ele><time>2016-8-31T1:21:48Z</time></trkpt>
<trkpt lat="46.20006" lon="7.35429"><ele></ele><time>2016-8-31T1:21:51Z</time></trkpt>
<trkpt lat="46.20008" lon="7.35426"><ele></ele><time>2016-8-31T1:21:54Z</time></trkpt>
<trkpt lat="46.2001" lon="7.35423"><ele></ele><time>2016-8-31T1:21:57Z</time></trkpt>
<trkpt lat="46.20011" lon="7.3542"><ele></ele><time>2016-8-31T1:22:0Z</time></trkpt>
<trkpt lat="46.20013" lon="7.35417"><ele></ele><time>2016-8-31T1:22:3Z</time></trkpt>
<trkpt lat="46.20014" lon="7.35415"><ele></ele><time>2016-8-31T1:22:6Z</time></trkpt>
<trkpt lat="46.20014" lon="7.35409"><ele></ele><time>2016-8-31T1:22:9Z</time></trkpt>
<trkpt lat="46.20014" lon="7.35402"><ele></ele><time>2016-8-31T1:22:12Z</time></trkpt>
<trkpt lat="46.20017" lon="7.35396"><ele></ele><time>2016-8-31T1:22:15Z</time></trkpt>
<trkpt lat="46.2002" lon="7.3539"><ele></ele><time>2016-8-31T1:22:18Z</time></trkpt>
<trkpt lat="46.20023" lon="7.35384"><ele></ele><time>2016-8-31T1:22:21Z</time></trkpt>
<trkpt lat="46.20027" lon="7.35369"><ele></ele><time>2016-8-31T1:22:24Z</time></trkpt>
<trkpt lat="46.2003" lon="7.35353"><ele></ele><time>2016-8-31T1:22:27Z</time></trkpt>
<trkpt lat="46.20032" lon="7.35346"><ele></ele><time>2016-8-31T1:22:30Z</time></trkpt>
<trkpt lat="46.20034" lon="7.35338"><ele></ele><time>2016-8-31T1:22:33Z</time></trkpt>
<trkpt lat="46.20035" lon="7.35324"><ele></ele><time>2016-8-31T1:22:36Z</time></trkpt>
<trkpt lat="46.20034" lon="7.35319"><ele></ele><time>2016-8-31T1:22:39Z</time></trkpt>
<trkpt lat="46.20033" lon="7.35317"><ele></ele><time>2016-8-31T1:22:42Z</time></trkpt>
<trkpt lat="46.20034" lon="7.35316"><ele></ele><time>2016-8-31T1:22:45Z</time></trkpt>
<trkpt lat="46.20036" lon="7.35316"><ele></ele><time>2016-8-31T1:22:48Z</time></trkpt>
<trkpt lat="46.20041" lon="7.3532"><ele></ele><time>2016-8-31T1:22:51Z</time></trkpt>
<trkpt lat="46.2005" lon="7.3533"><ele></ele><time>2016-8-31T1:22:54Z</time></trkpt>
<trkpt lat="46.20059" lon="7.3534"><ele></ele><time>2016-8-31T1:22:57Z</time></trkpt>
<trkpt lat="46.20064" lon="7.35345"><ele></ele><time>2016-8-31T1:23:0Z</time></trkpt>
<trkpt lat="46.20065" lon="7.35351"><ele></ele><time>2016-8-31T1:23:3Z</time></trkpt>
<trkpt lat="46.20065" lon="7.35364"><ele></ele><time>2016-8-31T1:23:6Z</time></trkpt>
<trkpt lat="46.20066" lon="7.35376"><ele></ele><time>2016-8-31T1:23:9Z</time></trkpt>
<trkpt lat="46.20066" lon="7.35383"><ele></ele><time>2016-8-31T1:23:12Z</time></trkpt>
<trkpt lat="46.20069" lon="7.3539"><ele></ele><time>2016-8-31T1:23:15Z</time></trkpt>
<trkpt lat="46.20074" lon="7.35405"><ele></ele><time>2016-8-31T1:23:18Z</time></trkpt>
<trkpt lat="46.20077" lon="7.35413"><ele></ele><time>2016-8-31T1:23:21Z</time></trkpt>
<trkpt lat="46.20081" lon="7.35416"><ele></ele><time>2016-8-31T1:23:24Z</time></trkpt>
<trkpt lat="46.20089" lon="7.35422"><ele></ele><time>2016-8-31T1:23:27Z</time></trkpt>
<trkpt lat="46.20098" lon="7.35427"><ele></ele><time>2016-8-31T1:23:30Z</time></trkpt>
<trkpt lat="46.20106" lon="7.35432"><ele></ele><time>2016-8-31T1:23:33Z</time></trkpt>
<trkpt lat="46.20114" lon="7.35437"><ele></ele><time>2016-8-31T1:23:36Z</time></trkpt>
<trkpt lat="46.20121" lon="7.35449"><ele></ele><time>2016-8-31T1:23:39Z</time></trkpt>
<trkpt lat="46.20124" lon="7.35456"><ele></ele><time>2016-8-31T1:23:42Z</time></trkpt>
<trkpt lat="46.20129" lon="7.35459"><ele></ele><time>2016-8-31T1:23:45Z</time></trkpt>
<trkpt lat="46.20141" lon="7.35464"><ele></ele><time>2016-8-31T1:23:48Z</time></trkpt>
<trkpt lat="46.20151" lon="7.35461"><ele></ele><time>2016-8-31T1:23:51Z</time></trkpt>
<trkpt lat="46.20162" lon="7.35457"><ele></ele><time>2016-8-31T1:23:54Z</time></trkpt>
<trkpt lat="46.20172" lon="7.35453"><ele></ele><time>2016-8-31T1:23:57Z</time></trkpt>
<trkpt lat="46.20177" lon="7.35452"><ele></ele><time>2016-8-31T1:24:0Z</time></trkpt>
<trkpt lat="46.20182" lon="7.35456"><ele></ele><time>2016-8-31T1:24:3Z</time></trkpt>
<trkpt lat="46.20191" lon="7.35467"><ele></ele><time>2016-8-31T1:24:6Z</time></trkpt>
<trkpt lat="46.202" lon="7.35478"><ele></ele><time>2016-8-31T1:24:9Z</time></trkpt>
<trkpt lat="46.20205" lon="7.35484"><ele></ele><time>2016-8-31T1:24:12Z</time></trkpt>
<trkpt lat="46.20209" lon="7.35489"><ele></ele><time>2016-8-31T1:24:15Z</time></trkpt>
<trkpt lat="46.20214" lon="7.35495"><ele></ele><time>2016-8-31T1:24:18Z</time></trkpt>
<trkpt lat="46.20217" lon="7.35502"><ele></ele><time>2016-8-31T1:24:21Z</time></trkpt>
<trkpt lat="46.20223" lon="7.35516"><ele></ele><time>2016-8-31T1:24:24Z</time></trkpt>
<trkpt lat="46.20226" lon="7.35522"><ele></ele><time>2016-8-31T1:24:27Z</time></trkpt>
<trkpt lat="46.20229" lon="7.35529"><ele></ele><time>2016-8-31T1:24:30Z</time></trkpt>
<trkpt lat="46.20235" lon="7.35543"><ele></ele><time>2016-8-31T1:24:33Z</time></trkpt>
<trkpt lat="46.20238" lon="7.3555"><ele></ele><time>2016-8-31T1:24:36Z</time></trkpt>
<trkpt lat="46.2024" lon="7.35556"><ele></ele><time>2016-8-31T1:24:39Z</time></trkpt>
<trkpt lat="46.20244" lon="7.35566"><ele></ele><time>2016-8-31T1:24:42Z</time></trkpt>
<trkpt lat="46.20248" lon="7.35577"><ele></ele><time>2016-8-31T1:24:45Z</time></trkpt>
<trkpt lat="46.2025" lon="7.35582"><ele></ele><time>2016-8-31T1:24:48Z</time></trkpt>
<trkpt lat="46.20252" lon="7.35588"><ele></ele><time>2016-8-31T1:24:51Z</time></trkpt>
<trkpt lat="46.20256" lon="7.35598"><ele></ele><time>2016-8-31T1:24:54Z</time></trkpt>
<trkpt lat="46.20258" lon="7.35603"><ele></ele><time>2016-8-31T1:24:57Z</time></trkpt>
<trkpt lat="46.20258" lon="7.35601"><ele></ele><time>2016-8-31T1:25:0Z</time></trkpt>
<trkpt lat="46.20257" lon="7.35593"><ele></ele><time>2016-8-31T1:25:3Z</time></trkpt>
<trkpt lat="46.20256" lon="7.35586"><ele></ele><time>2016-8-31T1:25:6Z</time></trkpt>
<trkpt lat="46.20255" lon="7.35578"><ele></ele><time>2016-8-31T1:25:9Z</time></trkpt>
<trkpt lat="46.20254" lon="7.35571"><ele></ele><time>2016-8-31T1:25:12Z</time></trkpt>
<trkpt lat="46.20253" lon="7.35563"><ele></ele><time>2016-8-31T1:25:15Z</time></trkpt>
<trkpt lat="46.20252" lon="7.35556"><ele></ele><time>2016-8-31T1:25:18Z</time></trkpt>
<trkpt lat="46.20251" lon="7.35548"><ele></ele><time>2016-8-31T1:25:21Z</time></trkpt>
<trkpt lat="46.2025" lon="7.35541"><ele></ele><time>2016-8-31T1:25:24Z</time></trkpt>
<trkpt lat="46.20248" lon="7.35536"><ele></ele><time>2016-8-31T1:25:27Z</time></trkpt>
<trkpt lat="46.20247" lon="7.35532"><ele></ele><time>2016-8-31T1:25:30Z</time></trkpt>
<trkpt lat="46.20244" lon="7.35522"><ele></ele><time>2016-8-31T1:25:33Z</time></trkpt>
<trkpt lat="46.20242" lon="7.35513"><ele></ele><time>2016-8-31T1:25:36Z</time></trkpt>
<trkpt lat="46.2024" lon="7.35509"><ele></ele><time>2016-8-31T1:25:39Z</time></trkpt>
<trkpt lat="46.20239" lon="7.35504"><ele></ele><time>2016-8-31T1:25:42Z</time></trkpt>
<trkpt lat="46.20236" lon="7.35495"><ele></ele><time>2016-8-31T1:25:45Z</time></trkpt>
<trkpt lat="46.20234" lon="7.35486"><ele></ele><time>2016-8-31T1:25:48Z</time></trkpt>
<trkpt lat="46.20231" lon="7.35477"><ele></ele><time>2016-8-31T1:25:51Z</time></trkpt>
<trkpt lat="46.20227" lon="7.35469"><ele></ele><time>2016-8-31T1:25:54Z</time></trkpt>
<trkpt lat="46.20222" lon="7.35462"><ele></ele><time>2016-8-31T1:25:57Z</time></trkpt>
<trkpt lat="46.20218" lon="7.35455"><ele></ele><time>2016-8-31T1:26:0Z</time></trkpt>
<trkpt lat="46.20213" lon="7.35448"><ele></ele><time>2016-8-31T1:26:3Z</time></trkpt>
<trkpt lat="46.20209" lon="7.3544"><ele></ele><time>2016-8-31T1:26:6Z</time></trkpt>
<trkpt lat="46.20204" lon="7.35433"><ele></ele><time>2016-8-31T1:26:9Z</time></trkpt>
<trkpt lat="46.20203" lon="7.35425"><ele></ele><time>2016-8-31T1:26:12Z</time></trkpt>
<trkpt lat="46.20202" lon="7.35421"><ele></ele><time>2016-8-31T1:26:15Z</time></trkpt>
<trkpt lat="46.20199" lon="7.35418"><ele></ele><time>2016-8-31T1:26:18Z</time></trkpt>
<trkpt lat="46.20192" lon="7.35414"><ele></ele><time>2016-8-31T1:26:21Z</time></trkpt>
<trkpt lat="46.20185" lon="7.35409"><ele></ele><time>2016-8-31T1:26:24Z</time></trkpt>
<trkpt lat="46.20178" lon="7.35405"><ele></ele><time>2016-8-31T1:26:27Z</time></trkpt>
<trkpt lat="46.20171" lon="7.354"><ele></ele><time>2016-8-31T1:26:30Z</time></trkpt>
<trkpt lat="46.20164" lon="7.35396"><ele></ele><time>2016-8-31T1:26:33Z</time></trkpt>
<trkpt lat="46.20157" lon="7.35391"><ele></ele><time>2016-8-31T1:26:36Z</time></trkpt>
<trkpt lat="46.20149" lon="7.3538"><ele></ele><time>2016-8-31T1:26:39Z</time></trkpt>
<trkpt lat="46.20146" lon="7.35374"><ele></ele><time>2016-8-31T1:26:42Z</time></trkpt>
<trkpt lat="46.20146" lon="7.35369"><ele></ele><time>2016-8-31T1:26:45Z</time></trkpt>
<trkpt lat="46.20146" lon="7.35364"><ele></ele><time>2016-8-31T1:26:48Z</time></trkpt>
<trkpt lat="46.20148" lon="7.35358"><ele></ele><time>2016-8-31T1:26:51Z</time></trkpt>
<trkpt lat="46.20152" lon="7.35348"><ele></ele><time>2016-8-31T1:26:54Z</time></trkpt>
<trkpt lat="46.20154" lon="7.35343"><ele></ele><time>2016-8-31T1:26:57Z</time></trkpt>
<trkpt lat="46.20156" lon="7.35338"><ele></ele><time>2016-8-31T1:27:0Z</time></trkpt>
<trkpt lat="46.2016" lon="7.35327"><ele></ele><time>2016-8-31T1:27:3Z</time></trkpt>
<trkpt lat="46.20165" lon="7.35317"><ele></ele><time>2016-8-31T1:27:6Z</time></trkpt>
<trkpt lat="46.20161" lon="7.35301"><ele></ele><time>2016-8-31T1:27:9Z</time></trkpt>
<trkpt lat="46.20157" lon="7.3529"><ele></ele><time>2016-8-31T1:27:12Z</time></trkpt>
<trkpt lat="46.20155" lon="7.35285"><ele></ele><time>2016-8-31T1:27:15Z</time></trkpt>
<trkpt lat="46.20151" lon="7.3528"><ele></ele><time>2016-8-31T1:27:18Z</time></trkpt>
<trkpt lat="46.20142" lon="7.3527"><ele></ele><time>2016-8-31T1:27:21Z</time></trkpt>
<trkpt lat="46.20133" lon="7.3526"><ele></ele><time>2016-8-31T1:27:24Z</time></trkpt>
<trkpt lat="46.20129" lon="7.35255"><ele></ele><time>2016-8-31T1:27:27Z</time></trkpt>
<trkpt lat="46.20124" lon="7.3525"><ele></ele><time>2016-8-31T1:27:30Z</time></trkpt>
<trkpt lat="46.2012" lon="7.35245"><ele></ele><time>2016-8-31T1:27:33Z</time></trkpt>
<trkpt lat="46.20121" lon="7.35241"><ele></ele><time>2016-8-31T1:27:36Z</time></trkpt>
<trkpt lat="46.2012" lon="7.35238"><ele></ele><time>2016-8-31T1:27:39Z</time></trkpt>
<trkpt lat="46.20124" lon="7.35239"><ele></ele><time>2016-8-31T1:27:42Z</time></trkpt>
<trkpt lat="46.20132" lon="7.35242"><ele></ele><time>2016-8-31T1:27:45Z</time></trkpt>
<trkpt lat="46.2014" lon="7.35245"><ele></ele><time>2016-8-31T1:27:48Z</time></trkpt>
<trkpt lat="46.20149" lon="7.35252"><ele></ele><time>2016-8-31T1:27:51Z</time></trkpt>
<trkpt lat="46.20159" lon="7.3526"><ele></ele><time>2016-8-31T1:27:54Z</time></trkpt>
<trkpt lat="46.20168" lon="7.35267"><ele></ele><time>2016-8-31T1:27:57Z</time></trkpt>
<trkpt lat="46.20177" lon="7.35275"><ele></ele><time>2016-8-31T1:28:0Z</time></trkpt>
<trkpt lat="46.20182" lon="7.35279"><ele></ele><time>2016-8-31T1:28:3Z</time></trkpt>
<trkpt lat="46.20186" lon="7.35282"><ele></ele><time>2016-8-31T1:28:6Z</time></trkpt>
<trkpt lat="46.20192" lon="7.35289"><ele></ele><time>2016-8-31T1:28:9Z</time></trkpt>
<trkpt lat="46.20193" lon="7.35299"><ele></ele><time>2016-8-31T1:28:12Z</time></trkpt>
<trkpt lat="46.20192" lon="7.3531"><ele></ele><time>2016-8-31T1:28:15Z</time></trkpt>
<trkpt lat="46.20192" lon="7.3532"><ele></ele><time>2016-8-31T1:28:18Z</time></trkpt>
<trkpt lat="46.20192" lon="7.35326"><ele></ele><time>2016-8-31T1:28:21Z</time></trkpt>
<trkpt lat="46.20192" lon="7.35329"><ele></ele><time>2016-8-31T1:28:24Z</time></trkpt>
<trkpt lat="46.20192" lon="7.35337"><ele></ele><time>2016-8-31T1:28:27Z</time></trkpt>
<trkpt lat="46.20191" lon="7.35344"><ele></ele><time>2016-8-31T1:28:30Z</time></trkpt>
<trkpt lat="46.20195" lon="7.35345"><ele></ele><time>2016-8-31T1:28:33Z</time></trkpt>
<trkpt lat="46.20197" lon="7.35344"><ele></ele><time>2016-8-31T1:28:36Z</time></trkpt>
<trkpt lat="46.20198" lon="7.35343"><ele></ele><time>2016-8-31T1:28:39Z</time></trkpt>
<trkpt lat="46.20199" lon="7.35342"><ele></ele><time>2016-8-31T1:28:42Z</time></trkpt>
<trkpt lat="46.20199" lon="7.35341"><ele></ele><time>2016-8-31T1:28:45Z</time></trkpt>
<trkpt lat="46.20201" lon="7.35338"><ele></ele><time>2016-8-31T1:28:48Z</time></trkpt>
<trkpt lat="46.20202" lon="7.35336"><ele></ele><time>2016-8-31T1:28:51Z</time></trkpt>
<trkpt lat="46.20203" lon="7.35335"><ele></ele><time>2016-8-31T1:28:54Z</time></trkpt>
<trkpt lat="46.20203" lon="7.35333"><ele></ele><time>2016-8-31T1:28:57Z</time></trkpt>
<trkpt lat="46.20205" lon="7.35331"><ele></ele><time>2016-8-31T1:29:0Z</time></trkpt>
<trkpt lat="46.20206" lon="7.35328"><ele></ele><time>2016-8-31T1:29:3Z</time></trkpt>
<trkpt lat="46.20207" lon="7.35326"><ele></ele><time>2016-8-31T1:29:6Z</time></trkpt>
<trkpt lat="46.2021" lon="7.3533"><ele></ele><time>2016-8-31T1:29:9Z</time></trkpt>
<trkpt lat="46.20212" lon="7.35334"><ele></ele><time>2016-8-31T1:29:12Z</time></trkpt>
<trkpt lat="46.20214" lon="7.35327"><ele></ele><time>2016-8-31T1:29:15Z</time></trkpt>
<trkpt lat="46.20216" lon="7.35319"><ele></ele><time>2016-8-31T1:29:18Z</time></trkpt>
<trkpt lat="46.20217" lon="7.35316"><ele></ele><time>2016-8-31T1:29:21Z</time></trkpt>
<trkpt lat="46.2022" lon="7.35316"><ele></ele><time>2016-8-31T1:29:24Z</time></trkpt>
<trkpt lat="46.20224" lon="7.35318"><ele></ele><time>2016-8-31T1:29:27Z</time></trkpt>
<trkpt lat="46.20227" lon="7.35323"><ele></ele><time>2016-8-31T1:29:30Z</time></trkpt>
<trkpt lat="46.20229" lon="7.35325"><ele></ele><time>2016-8-31T1:29:33Z</time></trkpt>
<trkpt lat="46.20247" lon="7.35314"><ele></ele><time>2016-8-31T1:29:36Z</time></trkpt>
<trkpt lat="46.20247" lon="7.35314"><ele></ele><time>2016-8-31T1:29:39Z</time></trkpt>
<trkpt lat="46.20263" lon="7.353"><ele></ele><time>2016-8-31T1:29:42Z</time></trkpt>
<trkpt lat="46.20266" lon="7.35299"><ele></ele><time>2016-8-31T1:29:45Z</time></trkpt>
<trkpt lat="46.20272" lon="7.35307"><ele></ele><time>2016-8-31T1:29:48Z</time></trkpt>
<trkpt lat="46.20279" lon="7.35317"><ele></ele><time>2016-8-31T1:29:51Z</time></trkpt>
<trkpt lat="46.20285" lon="7.35326"><ele></ele><time>2016-8-31T1:29:54Z</time></trkpt>
<trkpt lat="46.20291" lon="7.35336"><ele></ele><time>2016-8-31T1:29:57Z</time></trkpt>
<trkpt lat="46.20298" lon="7.35345"><ele></ele><time>2016-8-31T1:30:0Z</time></trkpt>
<trkpt lat="46.20302" lon="7.3535"><ele></ele><time>2016-8-31T1:30:3Z</time></trkpt>
<trkpt lat="46.20306" lon="7.35354"><ele></ele><time>2016-8-31T1:30:6Z</time></trkpt>
<trkpt lat="46.20315" lon="7.35364"><ele></ele><time>2016-8-31T1:30:9Z</time></trkpt>
<trkpt lat="46.20324" lon="7.35373"><ele></ele><time>2016-8-31T1:30:12Z</time></trkpt>
<trkpt lat="46.20328" lon="7.35378"><ele></ele><time>2016-8-31T1:30:15Z</time></trkpt>
<trkpt lat="46.20333" lon="7.35378"><ele></ele><time>2016-8-31T1:30:18Z</time></trkpt>
<trkpt lat="46.20338" lon="7.35377"><ele></ele><time>2016-8-31T1:30:21Z</time></trkpt>
<trkpt lat="46.20341" lon="7.35373"><ele></ele><time>2016-8-31T1:30:24Z</time></trkpt>
<trkpt lat="46.20335" lon="7.35361"><ele></ele><time>2016-8-31T1:30:27Z</time></trkpt>
<trkpt lat="46.20328" lon="7.35348"><ele></ele><time>2016-8-31T1:30:30Z</time></trkpt>
<trkpt lat="46.20322" lon="7.35335"><ele></ele><time>2016-8-31T1:30:33Z</time></trkpt>
<trkpt lat="46.20319" lon="7.35329"><ele></ele><time>2016-8-31T1:30:36Z</time></trkpt>
<trkpt lat="46.20316" lon="7.35322"><ele></ele><time>2016-8-31T1:30:39Z</time></trkpt>
<trkpt lat="46.20312" lon="7.35316"><ele></ele><time>2016-8-31T1:30:42Z</time></trkpt>
<trkpt lat="46.20308" lon="7.35305"><ele></ele><time>2016-8-31T1:30:45Z</time></trkpt>
<trkpt lat="46.20304" lon="7.35293"><ele></ele><time>2016-8-31T1:30:48Z</time></trkpt>
<trkpt lat="46.20301" lon="7.35283"><ele></ele><time>2016-8-31T1:30:51Z</time></trkpt>
<trkpt lat="46.20299" lon="7.35272"><ele></ele><time>2016-8-31T1:30:54Z</time></trkpt>
<trkpt lat="46.20297" lon="7.35262"><ele></ele><time>2016-8-31T1:30:57Z</time></trkpt>
<trkpt lat="46.20293" lon="7.35241"><ele></ele><time>2016-8-31T1:31:0Z</time></trkpt>
<trkpt lat="46.2029" lon="7.35231"><ele></ele><time>2016-8-31T1:31:3Z</time></trkpt>
<trkpt lat="46.2029" lon="7.35212"><ele></ele><time>2016-8-31T1:31:6Z</time></trkpt>
<trkpt lat="46.2029" lon="7.35192"><ele></ele><time>2016-8-31T1:31:9Z</time></trkpt>
<trkpt lat="46.20292" lon="7.3519"><ele></ele><time>2016-8-31T1:31:12Z</time></trkpt>
<trkpt lat="46.20278" lon="7.35196"><ele></ele><time>2016-8-31T1:31:15Z</time></trkpt>
<trkpt lat="46.20284" lon="7.35244"><ele></ele><time>2016-8-31T1:31:18Z</time></trkpt>
<trkpt lat="46.20288" lon="7.35257"><ele></ele><time>2016-8-31T1:31:21Z</time></trkpt>
<trkpt lat="46.20295" lon="7.35268"><ele></ele><time>2016-8-31T1:31:24Z</time></trkpt>
<trkpt lat="46.20298" lon="7.35274"><ele></ele><time>2016-8-31T1:31:27Z</time></trkpt>
<trkpt lat="46.20305" lon="7.3529"><ele></ele><time>2016-8-31T1:31:30Z</time></trkpt>
<trkpt lat="46.20307" lon="7.3529"><ele></ele><time>2016-8-31T1:31:33Z</time></trkpt>
<trkpt lat="46.20309" lon="7.35293"><ele></ele><time>2016-8-31T1:31:36Z</time></trkpt>
<trkpt lat="46.20315" lon="7.35302"><ele></ele><time>2016-8-31T1:31:39Z</time></trkpt>
<trkpt lat="46.20318" lon="7.35307"><ele></ele><time>2016-8-31T1:31:42Z</time></trkpt>
<trkpt lat="46.20321" lon="7.35311"><ele></ele><time>2016-8-31T1:31:45Z</time></trkpt>
<trkpt lat="46.20327" lon="7.35321"><ele></ele><time>2016-8-31T1:31:48Z</time></trkpt>
<trkpt lat="46.2033" lon="7.35325"><ele></ele><time>2016-8-31T1:31:51Z</time></trkpt>
<trkpt lat="46.20349" lon="7.35313"><ele></ele><time>2016-8-31T1:31:54Z</time></trkpt>
<trkpt lat="46.20354" lon="7.35312"><ele></ele><time>2016-8-31T1:31:57Z</time></trkpt>
<trkpt lat="46.20356" lon="7.35313"><ele></ele><time>2016-8-31T1:32:0Z</time></trkpt>
<trkpt lat="46.20361" lon="7.35315"><ele></ele><time>2016-8-31T1:32:3Z</time></trkpt>
<trkpt lat="46.20366" lon="7.35317"><ele></ele><time>2016-8-31T1:32:6Z</time></trkpt>
<trkpt lat="46.20371" lon="7.35319"><ele></ele><time>2016-8-31T1:32:9Z</time></trkpt>
<trkpt lat="46.20376" lon="7.35321"><ele></ele><time>2016-8-31T1:32:12Z</time></trkpt>
<trkpt lat="46.20381" lon="7.35323"><ele></ele><time>2016-8-31T1:32:15Z</time></trkpt>
<trkpt lat="46.20386" lon="7.35325"><ele></ele><time>2016-8-31T1:32:18Z</time></trkpt>
<trkpt lat="46.20391" lon="7.35327"><ele></ele><time>2016-8-31T1:32:21Z</time></trkpt>
<trkpt lat="46.20394" lon="7.35328"><ele></ele><time>2016-8-31T1:32:24Z</time></trkpt>
<trkpt lat="46.20396" lon="7.35329"><ele></ele><time>2016-8-31T1:32:27Z</time></trkpt>
<trkpt lat="46.20402" lon="7.35332"><ele></ele><time>2016-8-31T1:32:30Z</time></trkpt>
<trkpt lat="46.20407" lon="7.35336"><ele></ele><time>2016-8-31T1:32:33Z</time></trkpt>
<trkpt lat="46.2041" lon="7.35338"><ele></ele><time>2016-8-31T1:32:36Z</time></trkpt>
<trkpt lat="46.20413" lon="7.3534"><ele></ele><time>2016-8-31T1:32:39Z</time></trkpt>
<trkpt lat="46.20418" lon="7.35343"><ele></ele><time>2016-8-31T1:32:42Z</time></trkpt>
<trkpt lat="46.20424" lon="7.35347"><ele></ele><time>2016-8-31T1:32:45Z</time></trkpt>
<trkpt lat="46.20427" lon="7.35349"><ele></ele><time>2016-8-31T1:32:48Z</time></trkpt>
<trkpt lat="46.2043" lon="7.3535"><ele></ele><time>2016-8-31T1:32:51Z</time></trkpt>
<trkpt lat="46.20431" lon="7.35348"><ele></ele><time>2016-8-31T1:32:54Z</time></trkpt>
<trkpt lat="46.20432" lon="7.35346"><ele></ele><time>2016-8-31T1:32:57Z</time></trkpt>
<trkpt lat="46.20433" lon="7.35344"><ele></ele><time>2016-8-31T1:33:0Z</time></trkpt>
<trkpt lat="46.20434" lon="7.35343"><ele></ele><time>2016-8-31T1:33:3Z</time></trkpt>
<trkpt lat="46.20435" lon="7.3534"><ele></ele><time>2016-8-31T1:33:6Z</time></trkpt>
<trkpt lat="46.20436" lon="7.35338"><ele></ele><time>2016-8-31T1:33:9Z</time></trkpt>
<trkpt lat="46.20437" lon="7.35335"><ele></ele><time>2016-8-31T1:33:12Z</time></trkpt>
<trkpt lat="46.20438" lon="7.35332"><ele></ele><time>2016-8-31T1:33:15Z</time></trkpt>
<trkpt lat="46.20439" lon="7.35329"><ele></ele><time>2016-8-31T1:33:18Z</time></trkpt>
<trkpt lat="46.20441" lon="7.35327"><ele></ele><time>2016-8-31T1:33:21Z</time></trkpt>
<trkpt lat="46.20441" lon="7.35325"><ele></ele><time>2016-8-31T1:33:24Z</time></trkpt>
<trkpt lat="46.20443" lon="7.35326"><ele></ele><time>2016-8-31T1:33:27Z</time></trkpt>
<trkpt lat="46.20447" lon="7.35329"><ele></ele><time>2016-8-31T1:33:30Z</time></trkpt>
<trkpt lat="46.20451" lon="7.35332"><ele></ele><time>2016-8-31T1:33:33Z</time></trkpt>
<trkpt lat="46.20454" lon="7.35335"><ele></ele><time>2016-8-31T1:33:36Z</time></trkpt>
<trkpt lat="46.20456" lon="7.35336"><ele></ele><time>2016-8-31T1:33:39Z</time></trkpt>
<trkpt lat="46.20458" lon="7.35337"><ele></ele><time>2016-8-31T1:33:42Z</time></trkpt>
<trkpt lat="46.20462" lon="7.3534"><ele></ele><time>2016-8-31T1:33:45Z</time></trkpt>
<trkpt lat="46.20466" lon="7.35343"><ele></ele><time>2016-8-31T1:33:48Z</time></trkpt>
<trkpt lat="46.20468" lon="7.35344"><ele></ele><time>2016-8-31T1:33:51Z</time></trkpt>
<trkpt lat="46.2047" lon="7.35345"><ele></ele><time>2016-8-31T1:33:54Z</time></trkpt>
<trkpt lat="46.20473" lon="7.35348"><ele></ele><time>2016-8-31T1:33:57Z</time></trkpt>
<trkpt lat="46.20477" lon="7.35351"><ele></ele><time>2016-8-31T1:34:0Z</time></trkpt>
<trkpt lat="46.20481" lon="7.35353"><ele></ele><time>2016-8-31T1:34:3Z</time></trkpt>
<trkpt lat="46.20483" lon="7.35355"><ele></ele><time>2016-8-31T1:34:6Z</time></trkpt>
<trkpt lat="46.20485" lon="7.35358"><ele></ele><time>2016-8-31T1:34:9Z</time></trkpt>
<trkpt lat="46.2049" lon="7.35366"><ele></ele><time>2016-8-31T1:34:12Z</time></trkpt>
<trkpt lat="46.20494" lon="7.35373"><ele></ele><time>2016-8-31T1:34:15Z</time></trkpt>
<trkpt lat="46.20498" lon="7.3538"><ele></ele><time>2016-8-31T1:34:18Z</time></trkpt>
<trkpt lat="46.205" lon="7.35387"><ele></ele><time>2016-8-31T1:34:21Z</time></trkpt>
<trkpt lat="46.205" lon="7.35394"><ele></ele><time>2016-8-31T1:34:24Z</time></trkpt>
<trkpt lat="46.20501" lon="7.35401"><ele></ele><time>2016-8-31T1:34:27Z</time></trkpt>
<trkpt lat="46.20502" lon="7.35408"><ele></ele><time>2016-8-31T1:34:30Z</time></trkpt>
<trkpt lat="46.20503" lon="7.35415"><ele></ele><time>2016-8-31T1:34:33Z</time></trkpt>
<trkpt lat="46.20504" lon="7.35422"><ele></ele><time>2016-8-31T1:34:36Z</time></trkpt>
<trkpt lat="46.20505" lon="7.35429"><ele></ele><time>2016-8-31T1:34:39Z</time></trkpt>
<trkpt lat="46.20506" lon="7.35436"><ele></ele><time>2016-8-31T1:34:42Z</time></trkpt>
<trkpt lat="46.20507" lon="7.35443"><ele></ele><time>2016-8-31T1:34:45Z</time></trkpt>
<trkpt lat="46.20507" lon="7.35446"><ele></ele><time>2016-8-31T1:34:48Z</time></trkpt>
<trkpt lat="46.20508" lon="7.35449"><ele></ele><time>2016-8-31T1:34:51Z</time></trkpt>
<trkpt lat="46.20508" lon="7.35455"><ele></ele><time>2016-8-31T1:34:54Z</time></trkpt>
<trkpt lat="46.20509" lon="7.35461"><ele></ele><time>2016-8-31T1:34:57Z</time></trkpt>
<trkpt lat="46.2051" lon="7.35467"><ele></ele><time>2016-8-31T1:35:0Z</time></trkpt>
<trkpt lat="46.20511" lon="7.35472"><ele></ele><time>2016-8-31T1:35:3Z</time></trkpt>
<trkpt lat="46.20511" lon="7.35478"><ele></ele><time>2016-8-31T1:35:6Z</time></trkpt>
<trkpt lat="46.20512" lon="7.35484"><ele></ele><time>2016-8-31T1:35:9Z</time></trkpt>
<trkpt lat="46.20513" lon="7.3549"><ele></ele><time>2016-8-31T1:35:12Z</time></trkpt>
<trkpt lat="46.20516" lon="7.35494"><ele></ele><time>2016-8-31T1:35:15Z</time></trkpt>
<trkpt lat="46.2052" lon="7.35498"><ele></ele><time>2016-8-31T1:35:18Z</time></trkpt>
<trkpt lat="46.2052" lon="7.35492"><ele></ele><time>2016-8-31T1:35:21Z</time></trkpt>
<trkpt lat="46.2052" lon="7.35485"><ele></ele><time>2016-8-31T1:35:24Z</time></trkpt>
<trkpt lat="46.2052" lon="7.35478"><ele></ele><time>2016-8-31T1:35:27Z</time></trkpt>
<trkpt lat="46.20521" lon="7.35472"><ele></ele><time>2016-8-31T1:35:30Z</time></trkpt>
<trkpt lat="46.20521" lon="7.35465"><ele></ele><time>2016-8-31T1:35:33Z</time></trkpt>
<trkpt lat="46.20521" lon="7.35458"><ele></ele><time>2016-8-31T1:35:36Z</time></trkpt>
<trkpt lat="46.20521" lon="7.35451"><ele></ele><time>2016-8-31T1:35:39Z</time></trkpt>
<trkpt lat="46.20521" lon="7.35444"><ele></ele><time>2016-8-31T1:35:42Z</time></trkpt>
<trkpt lat="46.20522" lon="7.35438"><ele></ele><time>2016-8-31T1:35:45Z</time></trkpt>
<trkpt lat="46.20522" lon="7.35434"><ele></ele><time>2016-8-31T1:35:48Z</time></trkpt>
<trkpt lat="46.20522" lon="7.35433"><ele></ele><time>2016-8-31T1:35:51Z</time></trkpt>
<trkpt lat="46.20522" lon="7.35432"><ele></ele><time>2016-8-31T1:35:54Z</time></trkpt>
<trkpt lat="46.20522" lon="7.35431"><ele></ele><time>2016-8-31T1:35:57Z</time></trkpt>
<trkpt lat="46.20522" lon="7.35429"><ele></ele><time>2016-8-31T1:36:0Z</time></trkpt>
<trkpt lat="46.20523" lon="7.35428"><ele></ele><time>2016-8-31T1:36:3Z</time></trkpt>
<trkpt lat="46.20523" lon="7.35426"><ele></ele><time>2016-8-31T1:36:6Z</time></trkpt>
<trkpt lat="46.20532" lon="7.35388"><ele></ele><time>2016-8-31T1:36:9Z</time></trkpt>
<trkpt lat="46.20532" lon="7.35388"><ele></ele><time>2016-8-31T1:36:12Z</time></trkpt>
<trkpt lat="46.20541" lon="7.35352"><ele></ele><time>2016-8-31T1:36:15Z</time></trkpt>
<trkpt lat="46.20543" lon="7.35349"><ele></ele><time>2016-8-31T1:36:18Z</time></trkpt>
<trkpt lat="46.20538" lon="7.3534"><ele></ele><time>2016-8-31T1:36:21Z</time></trkpt>
<trkpt lat="46.20539" lon="7.35332"><ele></ele><time>2016-8-31T1:36:24Z</time></trkpt>
<trkpt lat="46.20541" lon="7.35323"><ele></ele><time>2016-8-31T1:36:27Z</time></trkpt>
<trkpt lat="46.20534" lon="7.35305"><ele></ele><time>2016-8-31T1:36:30Z</time></trkpt>
<trkpt lat="46.20528" lon="7.35286"><ele></ele><time>2016-8-31T1:36:33Z</time></trkpt>
<trkpt lat="46.20521" lon="7.35268"><ele></ele><time>2016-8-31T1:36:36Z</time></trkpt>
<trkpt lat="46.20518" lon="7.35258"><ele></ele><time>2016-8-31T1:36:39Z</time></trkpt>
<trkpt lat="46.20514" lon="7.35245"><ele></ele><time>2016-8-31T1:36:42Z</time></trkpt>
<trkpt lat="46.20507" lon="7.35217"><ele></ele><time>2016-8-31T1:36:45Z</time></trkpt>
<trkpt lat="46.20503" lon="7.35203"><ele></ele><time>2016-8-31T1:36:48Z</time></trkpt>
<trkpt lat="46.20503" lon="7.35188"><ele></ele><time>2016-8-31T1:36:51Z</time></trkpt>
<trkpt lat="46.20503" lon="7.35156"><ele></ele><time>2016-8-31T1:36:54Z</time></trkpt>
<trkpt lat="46.20502" lon="7.35124"><ele></ele><time>2016-8-31T1:36:57Z</time></trkpt>
<trkpt lat="46.20503" lon="7.35095"><ele></ele><time>2016-8-31T1:37:0Z</time></trkpt>
<trkpt lat="46.20503" lon="7.35065"><ele></ele><time>2016-8-31T1:37:3Z</time></trkpt>
<trkpt lat="46.20503" lon="7.3505"><ele></ele><time>2016-8-31T1:37:6Z</time></trkpt>
<trkpt lat="46.20504" lon="7.35035"><ele></ele><time>2016-8-31T1:37:9Z</time></trkpt>
<trkpt lat="46.20505" lon="7.3502"><ele></ele><time>2016-8-31T1:37:12Z</time></trkpt>
<trkpt lat="46.20506" lon="7.35004"><ele></ele><time>2016-8-31T1:37:15Z</time></trkpt>
<trkpt lat="46.20508" lon="7.34974"><ele></ele><time>2016-8-31T1:37:18Z</time></trkpt>
<trkpt lat="46.20509" lon="7.3494"><ele></ele><time>2016-8-31T1:37:21Z</time></trkpt>
<trkpt lat="46.2051" lon="7.34923"><ele></ele><time>2016-8-31T1:37:24Z</time></trkpt>
<trkpt lat="46.20511" lon="7.34905"><ele></ele><time>2016-8-31T1:37:27Z</time></trkpt>
<trkpt lat="46.2051" lon="7.34868"><ele></ele><time>2016-8-31T1:37:30Z</time></trkpt>
<trkpt lat="46.20509" lon="7.34831"><ele></ele><time>2016-8-31T1:37:33Z</time></trkpt>
<trkpt lat="46.20509" lon="7.34813"><ele></ele><time>2016-8-31T1:37:36Z</time></trkpt>
<trkpt lat="46.20509" lon="7.34794"><ele></ele><time>2016-8-31T1:37:39Z</time></trkpt>
<trkpt lat="46.20509" lon="7.34758"><ele></ele><time>2016-8-31T1:37:42Z</time></trkpt>
<trkpt lat="46.20502" lon="7.34727"><ele></ele><time>2016-8-31T1:37:45Z</time></trkpt>
<trkpt lat="46.20499" lon="7.34712"><ele></ele><time>2016-8-31T1:37:48Z</time></trkpt>
<trkpt lat="46.20495" lon="7.34697"><ele></ele><time>2016-8-31T1:37:51Z</time></trkpt>
<trkpt lat="46.2049" lon="7.3466"><ele></ele><time>2016-8-31T1:37:54Z</time></trkpt>
<trkpt lat="46.20485" lon="7.34622"><ele></ele><time>2016-8-31T1:37:57Z</time></trkpt>
<trkpt lat="46.2048" lon="7.34604"><ele></ele><time>2016-8-31T1:38:0Z</time></trkpt>
<trkpt lat="46.20474" lon="7.34586"><ele></ele><time>2016-8-31T1:38:3Z</time></trkpt>
<trkpt lat="46.20462" lon="7.34549"><ele></ele><time>2016-8-31T1:38:6Z</time></trkpt>
<trkpt lat="46.20451" lon="7.34513"><ele></ele><time>2016-8-31T1:38:9Z</time></trkpt>
<trkpt lat="46.20439" lon="7.34477"><ele></ele><time>2016-8-31T1:38:12Z</time></trkpt>
<trkpt lat="46.20433" lon="7.3446"><ele></ele><time>2016-8-31T1:38:15Z</time></trkpt>
<trkpt lat="46.2043" lon="7.34441"><ele></ele><time>2016-8-31T1:38:18Z</time></trkpt>
<trkpt lat="46.20428" lon="7.34421"><ele></ele><time>2016-8-31T1:38:21Z</time></trkpt>
<trkpt lat="46.20425" lon="7.3442"><ele></ele><time>2016-8-31T1:38:24Z</time></trkpt>
<trkpt lat="46.20424" lon="7.34427"><ele></ele><time>2016-8-31T1:38:27Z</time></trkpt>
<trkpt lat="46.20423" lon="7.3443"><ele></ele><time>2016-8-31T1:38:30Z</time></trkpt>
<trkpt lat="46.20429" lon="7.34433"><ele></ele><time>2016-8-31T1:38:33Z</time></trkpt>
<trkpt lat="46.20435" lon="7.34435"><ele></ele><time>2016-8-31T1:38:36Z</time></trkpt>
<trkpt lat="46.20437" lon="7.34433"><ele></ele><time>2016-8-31T1:38:39Z</time></trkpt>
<trkpt lat="46.20445" lon="7.34447"><ele></ele><time>2016-8-31T1:38:42Z</time></trkpt>
<trkpt lat="46.20454" lon="7.34461"><ele></ele><time>2016-8-31T1:38:45Z</time></trkpt>
<trkpt lat="46.20462" lon="7.34476"><ele></ele><time>2016-8-31T1:38:48Z</time></trkpt>
<trkpt lat="46.20466" lon="7.34483"><ele></ele><time>2016-8-31T1:38:51Z</time></trkpt>
<trkpt lat="46.20473" lon="7.34494"><ele></ele><time>2016-8-31T1:38:54Z</time></trkpt>
<trkpt lat="46.20487" lon="7.34516"><ele></ele><time>2016-8-31T1:38:57Z</time></trkpt>
<trkpt lat="46.20495" lon="7.34528"><ele></ele><time>2016-8-31T1:39:0Z</time></trkpt>
<trkpt lat="46.20502" lon="7.34539"><ele></ele><time>2016-8-31T1:39:3Z</time></trkpt>
<trkpt lat="46.20517" lon="7.34565"><ele></ele><time>2016-8-31T1:39:6Z</time></trkpt>
<trkpt lat="46.20531" lon="7.34591"><ele></ele><time>2016-8-31T1:39:9Z</time></trkpt>
<trkpt lat="46.20548" lon="7.3462"><ele></ele><time>2016-8-31T1:39:12Z</time></trkpt>
<trkpt lat="46.20564" lon="7.34649"><ele></ele><time>2016-8-31T1:39:15Z</time></trkpt>
<trkpt lat="46.20572" lon="7.34665"><ele></ele><time>2016-8-31T1:39:18Z</time></trkpt>
<trkpt lat="46.2058" lon="7.34681"><ele></ele><time>2016-8-31T1:39:21Z</time></trkpt>
<trkpt lat="46.20595" lon="7.34716"><ele></ele><time>2016-8-31T1:39:24Z</time></trkpt>
<trkpt lat="46.20602" lon="7.34733"><ele></ele><time>2016-8-31T1:39:27Z</time></trkpt>
<trkpt lat="46.20608" lon="7.3475"><ele></ele><time>2016-8-31T1:39:30Z</time></trkpt>
<trkpt lat="46.20618" lon="7.34783"><ele></ele><time>2016-8-31T1:39:33Z</time></trkpt>
<trkpt lat="46.20623" lon="7.348"><ele></ele><time>2016-8-31T1:39:36Z</time></trkpt>
<trkpt lat="46.20629" lon="7.34816"><ele></ele><time>2016-8-31T1:39:39Z</time></trkpt>
<trkpt lat="46.20639" lon="7.34848"><ele></ele><time>2016-8-31T1:39:42Z</time></trkpt>
<trkpt lat="46.20645" lon="7.34864"><ele></ele><time>2016-8-31T1:39:45Z</time></trkpt>
<trkpt lat="46.2065" lon="7.34878"><ele></ele><time>2016-8-31T1:39:48Z</time></trkpt>
<trkpt lat="46.20662" lon="7.34905"><ele></ele><time>2016-8-31T1:39:51Z</time></trkpt>
<trkpt lat="46.20668" lon="7.34918"><ele></ele><time>2016-8-31T1:39:54Z</time></trkpt>
<trkpt lat="46.20673" lon="7.34932"><ele></ele><time>2016-8-31T1:39:57Z</time></trkpt>
<trkpt lat="46.2068" lon="7.34949"><ele></ele><time>2016-8-31T1:40:0Z</time></trkpt>
<trkpt lat="46.20686" lon="7.34966"><ele></ele><time>2016-8-31T1:40:3Z</time></trkpt>
<trkpt lat="46.20689" lon="7.34975"><ele></ele><time>2016-8-31T1:40:6Z</time></trkpt>
<trkpt lat="46.20692" lon="7.34984"><ele></ele><time>2016-8-31T1:40:9Z</time></trkpt>
<trkpt lat="46.20695" lon="7.34992"><ele></ele><time>2016-8-31T1:40:12Z</time></trkpt>
<trkpt lat="46.20695" lon="7.34984"><ele></ele><time>2016-8-31T1:40:15Z</time></trkpt>
<trkpt lat="46.20699" lon="7.34991"><ele></ele><time>2016-8-31T1:40:18Z</time></trkpt>
<trkpt lat="46.20701" lon="7.34986"><ele></ele><time>2016-8-31T1:40:21Z</time></trkpt>
<trkpt lat="46.20703" lon="7.34979"><ele></ele><time>2016-8-31T1:40:24Z</time></trkpt>
<trkpt lat="46.20704" lon="7.34971"><ele></ele><time>2016-8-31T1:40:27Z</time></trkpt>
<trkpt lat="46.20708" lon="7.34956"><ele></ele><time>2016-8-31T1:40:30Z</time></trkpt>
<trkpt lat="46.20711" lon="7.34941"><ele></ele><time>2016-8-31T1:40:33Z</time></trkpt>
<trkpt lat="46.20715" lon="7.34926"><ele></ele><time>2016-8-31T1:40:36Z</time></trkpt>
<trkpt lat="46.20716" lon="7.34908"><ele></ele><time>2016-8-31T1:40:39Z</time></trkpt>
<trkpt lat="46.20717" lon="7.3489"><ele></ele><time>2016-8-31T1:40:42Z</time></trkpt>
<trkpt lat="46.20718" lon="7.34872"><ele></ele><time>2016-8-31T1:40:45Z</time></trkpt>
<trkpt lat="46.20718" lon="7.34863"><ele></ele><time>2016-8-31T1:40:48Z</time></trkpt>
<trkpt lat="46.20717" lon="7.34854"><ele></ele><time>2016-8-31T1:40:51Z</time></trkpt>
<trkpt lat="46.20716" lon="7.34838"><ele></ele><time>2016-8-31T1:40:54Z</time></trkpt>
<trkpt lat="46.20715" lon="7.34829"><ele></ele><time>2016-8-31T1:40:57Z</time></trkpt>
<trkpt lat="46.20714" lon="7.34823"><ele></ele><time>2016-8-31T1:41:0Z</time></trkpt>
<trkpt lat="46.20711" lon="7.34812"><ele></ele><time>2016-8-31T1:41:3Z</time></trkpt>
<trkpt lat="46.2071" lon="7.34807"><ele></ele><time>2016-8-31T1:41:6Z</time></trkpt>
<trkpt lat="46.20708" lon="7.34801"><ele></ele><time>2016-8-31T1:41:9Z</time></trkpt>
<trkpt lat="46.20705" lon="7.3479"><ele></ele><time>2016-8-31T1:41:12Z</time></trkpt>
<trkpt lat="46.20704" lon="7.34785"><ele></ele><time>2016-8-31T1:41:15Z</time></trkpt>
<trkpt lat="46.20704" lon="7.34779"><ele></ele><time>2016-8-31T1:41:18Z</time></trkpt>
<trkpt lat="46.20704" lon="7.34768"><ele></ele><time>2016-8-31T1:41:21Z</time></trkpt>
<trkpt lat="46.20704" lon="7.34758"><ele></ele><time>2016-8-31T1:41:24Z</time></trkpt>
<trkpt lat="46.20704" lon="7.34752"><ele></ele><time>2016-8-31T1:41:27Z</time></trkpt>
<trkpt lat="46.20705" lon="7.34747"><ele></ele><time>2016-8-31T1:41:30Z</time></trkpt>
<trkpt lat="46.20706" lon="7.34737"><ele></ele><time>2016-8-31T1:41:33Z</time></trkpt>
<trkpt lat="46.20708" lon="7.34726"><ele></ele><time>2016-8-31T1:41:36Z</time></trkpt>
<trkpt lat="46.20709" lon="7.34721"><ele></ele><time>2016-8-31T1:41:39Z</time></trkpt>
<trkpt lat="46.20709" lon="7.34716"><ele></ele><time>2016-8-31T1:41:42Z</time></trkpt>
<trkpt lat="46.20711" lon="7.34705"><ele></ele><time>2016-8-31T1:41:45Z</time></trkpt>
<trkpt lat="46.20713" lon="7.34695"><ele></ele><time>2016-8-31T1:41:48Z</time></trkpt>
<trkpt lat="46.20713" lon="7.3469"><ele></ele><time>2016-8-31T1:41:51Z</time></trkpt>
<trkpt lat="46.20714" lon="7.34685"><ele></ele><time>2016-8-31T1:41:54Z</time></trkpt>
<trkpt lat="46.20714" lon="7.34673"><ele></ele><time>2016-8-31T1:41:57Z</time></trkpt>
<trkpt lat="46.20714" lon="7.34661"><ele></ele><time>2016-8-31T1:42:0Z</time></trkpt>
<trkpt lat="46.20714" lon="7.34655"><ele></ele><time>2016-8-31T1:42:3Z</time></trkpt>
<trkpt lat="46.20716" lon="7.34649"><ele></ele><time>2016-8-31T1:42:6Z</time></trkpt>
<trkpt lat="46.20719" lon="7.3464"><ele></ele><time>2016-8-31T1:42:9Z</time></trkpt>
<trkpt lat="46.20721" lon="7.34635"><ele></ele><time>2016-8-31T1:42:12Z</time></trkpt>
<trkpt lat="46.20727" lon="7.3463"><ele></ele><time>2016-8-31T1:42:15Z</time></trkpt>
<trkpt lat="46.20727" lon="7.34627"><ele></ele><time>2016-8-31T1:42:18Z</time></trkpt>
<trkpt lat="46.20725" lon="7.34623"><ele></ele><time>2016-8-31T1:42:21Z</time></trkpt>
<trkpt lat="46.20724" lon="7.3462"><ele></ele><time>2016-8-31T1:42:24Z</time></trkpt>
<trkpt lat="46.20723" lon="7.34617"><ele></ele><time>2016-8-31T1:42:27Z</time></trkpt>
<trkpt lat="46.20721" lon="7.34613"><ele></ele><time>2016-8-31T1:42:30Z</time></trkpt>
<trkpt lat="46.2072" lon="7.3461"><ele></ele><time>2016-8-31T1:42:33Z</time></trkpt>
<trkpt lat="46.20718" lon="7.34606"><ele></ele><time>2016-8-31T1:42:36Z</time></trkpt>
<trkpt lat="46.20717" lon="7.34603"><ele></ele><time>2016-8-31T1:42:39Z</time></trkpt>
<trkpt lat="46.20716" lon="7.346"><ele></ele><time>2016-8-31T1:42:42Z</time></trkpt>
<trkpt lat="46.20714" lon="7.34596"><ele></ele><time>2016-8-31T1:42:45Z</time></trkpt>
<trkpt lat="46.20713" lon="7.34593"><ele></ele><time>2016-8-31T1:42:48Z</time></trkpt>
<trkpt lat="46.20712" lon="7.3459"><ele></ele><time>2016-8-31T1:42:51Z</time></trkpt>
<trkpt lat="46.2071" lon="7.34586"><ele></ele><time>2016-8-31T1:42:54Z</time></trkpt>
<trkpt lat="46.20711" lon="7.34578"><ele></ele><time>2016-8-31T1:42:57Z</time></trkpt>
<trkpt lat="46.20711" lon="7.3457"><ele></ele><time>2016-8-31T1:43:0Z</time></trkpt>
<trkpt lat="46.20711" lon="7.34561"><ele></ele><time>2016-8-31T1:43:3Z</time></trkpt>
<trkpt lat="46.20711" lon="7.34557"><ele></ele><time>2016-8-31T1:43:6Z</time></trkpt>
<trkpt lat="46.20711" lon="7.34553"><ele></ele><time>2016-8-31T1:43:9Z</time></trkpt>
<trkpt lat="46.20712" lon="7.34549"><ele></ele><time>2016-8-31T1:43:12Z</time></trkpt>
<trkpt lat="46.20708" lon="7.34551"><ele></ele><time>2016-8-31T1:43:15Z</time></trkpt>
<trkpt lat="46.207" lon="7.34558"><ele></ele><time>2016-8-31T1:43:18Z</time></trkpt>
<trkpt lat="46.20707" lon="7.34567"><ele></ele><time>2016-8-31T1:43:21Z</time></trkpt>
<trkpt lat="46.20715" lon="7.34576"><ele></ele><time>2016-8-31T1:43:24Z</time></trkpt>
<trkpt lat="46.20723" lon="7.34584"><ele></ele><time>2016-8-31T1:43:27Z</time></trkpt>
<trkpt lat="46.20731" lon="7.34593"><ele></ele><time>2016-8-31T1:43:30Z</time></trkpt>
<trkpt lat="46.20735" lon="7.346"><ele></ele><time>2016-8-31T1:43:33Z</time></trkpt>
<trkpt lat="46.20739" lon="7.34608"><ele></ele><time>2016-8-31T1:43:36Z</time></trkpt>
<trkpt lat="46.20747" lon="7.34625"><ele></ele><time>2016-8-31T1:43:39Z</time></trkpt>
<trkpt lat="46.20751" lon="7.34634"><ele></ele><time>2016-8-31T1:43:42Z</time></trkpt>
<trkpt lat="46.20754" lon="7.34642"><ele></ele><time>2016-8-31T1:43:45Z</time></trkpt>
<trkpt lat="46.20758" lon="7.34651"><ele></ele><time>2016-8-31T1:43:48Z</time></trkpt>
<trkpt lat="46.20763" lon="7.34661"><ele></ele><time>2016-8-31T1:43:51Z</time></trkpt>
<trkpt lat="46.20772" lon="7.34681"><ele></ele><time>2016-8-31T1:43:54Z</time></trkpt>
<trkpt lat="46.20781" lon="7.34701"><ele></ele><time>2016-8-31T1:43:57Z</time></trkpt>
<trkpt lat="46.20785" lon="7.34711"><ele></ele><time>2016-8-31T1:44:0Z</time></trkpt>
<trkpt lat="46.20791" lon="7.34724"><ele></ele><time>2016-8-31T1:44:3Z</time></trkpt>
<trkpt lat="46.20803" lon="7.34748"><ele></ele><time>2016-8-31T1:44:6Z</time></trkpt>
<trkpt lat="46.20815" lon="7.34773"><ele></ele><time>2016-8-31T1:44:9Z</time></trkpt>
<trkpt lat="46.20827" lon="7.348"><ele></ele><time>2016-8-31T1:44:12Z</time></trkpt>
<trkpt lat="46.20838" lon="7.34827"><ele></ele><time>2016-8-31T1:44:15Z</time></trkpt>
<trkpt lat="46.20843" lon="7.3484"><ele></ele><time>2016-8-31T1:44:18Z</time></trkpt>
<trkpt lat="46.20849" lon="7.34851"><ele></ele><time>2016-8-31T1:44:21Z</time></trkpt>
<trkpt lat="46.20861" lon="7.34873"><ele></ele><time>2016-8-31T1:44:24Z</time></trkpt>
<trkpt lat="46.20867" lon="7.34884"><ele></ele><time>2016-8-31T1:44:27Z</time></trkpt>
<trkpt lat="46.20873" lon="7.34895"><ele></ele><time>2016-8-31T1:44:30Z</time></trkpt>
<trkpt lat="46.20885" lon="7.34916"><ele></ele><time>2016-8-31T1:44:33Z</time></trkpt>
<trkpt lat="46.20897" lon="7.34937"><ele></ele><time>2016-8-31T1:44:36Z</time></trkpt>
<trkpt lat="46.20903" lon="7.34947"><ele></ele><time>2016-8-31T1:44:39Z</time></trkpt>
<trkpt lat="46.20906" lon="7.34956"><ele></ele><time>2016-8-31T1:44:42Z</time></trkpt>
<trkpt lat="46.20911" lon="7.34972"><ele></ele><time>2016-8-31T1:44:45Z</time></trkpt>
<trkpt lat="46.20917" lon="7.34989"><ele></ele><time>2016-8-31T1:44:48Z</time></trkpt>
<trkpt lat="46.20919" lon="7.34997"><ele></ele><time>2016-8-31T1:44:51Z</time></trkpt>
<trkpt lat="46.2092" lon="7.35013"><ele></ele><time>2016-8-31T1:44:54Z</time></trkpt>
<trkpt lat="46.2092" lon="7.35003"><ele></ele><time>2016-8-31T1:44:57Z</time></trkpt>
<trkpt lat="46.20923" lon="7.35003"><ele></ele><time>2016-8-31T1:45:0Z</time></trkpt>
<trkpt lat="46.20928" lon="7.35005"><ele></ele><time>2016-8-31T1:45:3Z</time></trkpt>
<trkpt lat="46.20923" lon="7.35004"><ele></ele><time>2016-8-31T1:45:6Z</time></trkpt>
<trkpt lat="46.20926" lon="7.35005"><ele></ele><time>2016-8-31T1:45:9Z</time></trkpt>
<trkpt lat="46.2093" lon="7.35013"><ele></ele><time>2016-8-31T1:45:12Z</time></trkpt>
<trkpt lat="46.20933" lon="7.35021"><ele></ele><time>2016-8-31T1:45:15Z</time></trkpt>
<trkpt lat="46.20936" lon="7.35029"><ele></ele><time>2016-8-31T1:45:18Z</time></trkpt>
<trkpt lat="46.20938" lon="7.35046"><ele></ele><time>2016-8-31T1:45:21Z</time></trkpt>
<trkpt lat="46.20938" lon="7.35062"><ele></ele><time>2016-8-31T1:45:24Z</time></trkpt>
<trkpt lat="46.20943" lon="7.3508"><ele></ele><time>2016-8-31T1:45:27Z</time></trkpt>
<trkpt lat="46.20945" lon="7.3509"><ele></ele><time>2016-8-31T1:45:30Z</time></trkpt>
<trkpt lat="46.20951" lon="7.35098"><ele></ele><time>2016-8-31T1:45:33Z</time></trkpt>
<trkpt lat="46.20962" lon="7.35116"><ele></ele><time>2016-8-31T1:45:36Z</time></trkpt>
<trkpt lat="46.20968" lon="7.35125"><ele></ele><time>2016-8-31T1:45:39Z</time></trkpt>
<trkpt lat="46.20976" lon="7.35132"><ele></ele><time>2016-8-31T1:45:42Z</time></trkpt>
<trkpt lat="46.20985" lon="7.35139"><ele></ele><time>2016-8-31T1:45:45Z</time></trkpt>
<trkpt lat="46.20992" lon="7.3515"><ele></ele><time>2016-8-31T1:45:48Z</time></trkpt>
<trkpt lat="46.20999" lon="7.35162"><ele></ele><time>2016-8-31T1:45:51Z</time></trkpt>
<trkpt lat="46.21006" lon="7.35174"><ele></ele><time>2016-8-31T1:45:54Z</time></trkpt>
<trkpt lat="46.21021" lon="7.35198"><ele></ele><time>2016-8-31T1:45:57Z</time></trkpt>
<trkpt lat="46.21038" lon="7.35222"><ele></ele><time>2016-8-31T1:46:0Z</time></trkpt>
<trkpt lat="46.21046" lon="7.35234"><ele></ele><time>2016-8-31T1:46:3Z</time></trkpt>
<trkpt lat="46.21055" lon="7.35246"><ele></ele><time>2016-8-31T1:46:6Z</time></trkpt>
<trkpt lat="46.21071" lon="7.35275"><ele></ele><time>2016-8-31T1:46:9Z</time></trkpt>
<trkpt lat="46.21083" lon="7.35312"><ele></ele><time>2016-8-31T1:46:12Z</time></trkpt>
<trkpt lat="46.21089" lon="7.3535"><ele></ele><time>2016-8-31T1:46:15Z</time></trkpt>
<trkpt lat="46.21092" lon="7.3537"><ele></ele><time>2016-8-31T1:46:18Z</time></trkpt>
<trkpt lat="46.21098" lon="7.35387"><ele></ele><time>2016-8-31T1:46:21Z</time></trkpt>
<trkpt lat="46.21116" lon="7.35417"><ele></ele><time>2016-8-31T1:46:24Z</time></trkpt>
<trkpt lat="46.21135" lon="7.35446"><ele></ele><time>2016-8-31T1:46:27Z</time></trkpt>
<trkpt lat="46.21154" lon="7.35475"><ele></ele><time>2016-8-31T1:46:30Z</time></trkpt>
<trkpt lat="46.21174" lon="7.35504"><ele></ele><time>2016-8-31T1:46:33Z</time></trkpt>
<trkpt lat="46.2119" lon="7.35531"><ele></ele><time>2016-8-31T1:46:36Z</time></trkpt>
<trkpt lat="46.21205" lon="7.35557"><ele></ele><time>2016-8-31T1:46:39Z</time></trkpt>
<trkpt lat="46.21209" lon="7.35561"><ele></ele><time>2016-8-31T1:46:42Z</time></trkpt>
<trkpt lat="46.21209" lon="7.3556"><ele></ele><time>2016-8-31T1:46:45Z</time></trkpt>
<trkpt lat="46.21214" lon="7.35559"><ele></ele><time>2016-8-31T1:46:48Z</time></trkpt>
<trkpt lat="46.21216" lon="7.35559"><ele></ele><time>2016-8-31T1:46:51Z</time></trkpt>
<trkpt lat="46.21216" lon="7.35545"><ele></ele><time>2016-8-31T1:46:54Z</time></trkpt>
<trkpt lat="46.21215" lon="7.35529"><ele></ele><time>2016-8-31T1:46:57Z</time></trkpt>
<trkpt lat="46.21214" lon="7.35513"><ele></ele><time>2016-8-31T1:47:0Z</time></trkpt>
<trkpt lat="46.21207" lon="7.3549"><ele></ele><time>2016-8-31T1:47:3Z</time></trkpt>
<trkpt lat="46.21199" lon="7.35468"><ele></ele><time>2016-8-31T1:47:6Z</time></trkpt>
<trkpt lat="46.21191" lon="7.35445"><ele></ele><time>2016-8-31T1:47:9Z</time></trkpt>
<trkpt lat="46.21183" lon="7.3542"><ele></ele><time>2016-8-31T1:47:12Z</time></trkpt>
<trkpt lat="46.21179" lon="7.35407"><ele></ele><time>2016-8-31T1:47:15Z</time></trkpt>
<trkpt lat="46.21176" lon="7.35397"><ele></ele><time>2016-8-31T1:47:18Z</time></trkpt>
<trkpt lat="46.21168" lon="7.35378"><ele></ele><time>2016-8-31T1:47:21Z</time></trkpt>
<trkpt lat="46.2116" lon="7.3536"><ele></ele><time>2016-8-31T1:47:24Z</time></trkpt>
<trkpt lat="46.21158" lon="7.3534"><ele></ele><time>2016-8-31T1:47:27Z</time></trkpt>
<trkpt lat="46.21158" lon="7.3533"><ele></ele><time>2016-8-31T1:47:30Z</time></trkpt>
<trkpt lat="46.21159" lon="7.35328"><ele></ele><time>2016-8-31T1:47:33Z</time></trkpt>
<trkpt lat="46.21158" lon="7.35317"><ele></ele><time>2016-8-31T1:47:36Z</time></trkpt>
<trkpt lat="46.21157" lon="7.35306"><ele></ele><time>2016-8-31T1:47:39Z</time></trkpt>
<trkpt lat="46.21162" lon="7.35296"><ele></ele><time>2016-8-31T1:47:42Z</time></trkpt>
<trkpt lat="46.21167" lon="7.35286"><ele></ele><time>2016-8-31T1:47:45Z</time></trkpt>
<trkpt lat="46.2117" lon="7.35281"><ele></ele><time>2016-8-31T1:47:48Z</time></trkpt>
<trkpt lat="46.21173" lon="7.35275"><ele></ele><time>2016-8-31T1:47:51Z</time></trkpt>
<trkpt lat="46.21175" lon="7.3528"><ele></ele><time>2016-8-31T1:47:54Z</time></trkpt>
<trkpt lat="46.21177" lon="7.35286"><ele></ele><time>2016-8-31T1:47:57Z</time></trkpt>
<trkpt lat="46.21178" lon="7.35289"><ele></ele><time>2016-8-31T1:48:0Z</time></trkpt>
<trkpt lat="46.21179" lon="7.35292"><ele></ele><time>2016-8-31T1:48:3Z</time></trkpt>
<trkpt lat="46.21181" lon="7.35298"><ele></ele><time>2016-8-31T1:48:6Z</time></trkpt>
<trkpt lat="46.21198" lon="7.35311"><ele></ele><time>2016-8-31T1:48:9Z</time></trkpt>
<trkpt lat="46.21198" lon="7.35311"><ele></ele><time>2016-8-31T1:48:12Z</time></trkpt>
<trkpt lat="46.21213" lon="7.35318"><ele></ele><time>2016-8-31T1:48:15Z</time></trkpt>
<trkpt lat="46.2122" lon="7.35317"><ele></ele><time>2016-8-31T1:48:18Z</time></trkpt>
<trkpt lat="46.21224" lon="7.35316"><ele></ele><time>2016-8-31T1:48:21Z</time></trkpt>
<trkpt lat="46.21229" lon="7.3532"><ele></ele><time>2016-8-31T1:48:24Z</time></trkpt>
<trkpt lat="46.2124" lon="7.35328"><ele></ele><time>2016-8-31T1:48:27Z</time></trkpt>
<trkpt lat="46.21246" lon="7.35332"><ele></ele><time>2016-8-31T1:48:30Z</time></trkpt>
<trkpt lat="46.21253" lon="7.3534"><ele></ele><time>2016-8-31T1:48:33Z</time></trkpt>
<trkpt lat="46.21259" lon="7.35348"><ele></ele><time>2016-8-31T1:48:36Z</time></trkpt>
<trkpt lat="46.21266" lon="7.35356"><ele></ele><time>2016-8-31T1:48:39Z</time></trkpt>
<trkpt lat="46.2128" lon="7.35373"><ele></ele><time>2016-8-31T1:48:42Z</time></trkpt>
<trkpt lat="46.21293" lon="7.35386"><ele></ele><time>2016-8-31T1:48:45Z</time></trkpt>
<trkpt lat="46.21299" lon="7.35392"><ele></ele><time>2016-8-31T1:48:48Z</time></trkpt>
<trkpt lat="46.21304" lon="7.35396"><ele></ele><time>2016-8-31T1:48:51Z</time></trkpt>
<trkpt lat="46.21313" lon="7.35404"><ele></ele><time>2016-8-31T1:48:54Z</time></trkpt>
<trkpt lat="46.21323" lon="7.35412"><ele></ele><time>2016-8-31T1:48:57Z</time></trkpt>
<trkpt lat="46.21332" lon="7.3542"><ele></ele><time>2016-8-31T1:49:0Z</time></trkpt>
<trkpt lat="46.21337" lon="7.35424"><ele></ele><time>2016-8-31T1:49:3Z</time></trkpt>
<trkpt lat="46.21339" lon="7.3543"><ele></ele><time>2016-8-31T1:49:6Z</time></trkpt>
<trkpt lat="46.21342" lon="7.35436"><ele></ele><time>2016-8-31T1:49:9Z</time></trkpt>
<trkpt lat="46.21344" lon="7.35443"><ele></ele><time>2016-8-31T1:49:12Z</time></trkpt>
<trkpt lat="46.21346" lon="7.35449"><ele></ele><time>2016-8-31T1:49:15Z</time></trkpt>
<trkpt lat="46.21345" lon="7.35457"><ele></ele><time>2016-8-31T1:49:18Z</time></trkpt>
<trkpt lat="46.21343" lon="7.35472"><ele></ele><time>2016-8-31T1:49:21Z</time></trkpt>
<trkpt lat="46.21342" lon="7.3548"><ele></ele><time>2016-8-31T1:49:24Z</time></trkpt>
<trkpt lat="46.21343" lon="7.35488"><ele></ele><time>2016-8-31T1:49:27Z</time></trkpt>
<trkpt lat="46.21345" lon="7.35504"><ele></ele><time>2016-8-31T1:49:30Z</time></trkpt>
<trkpt lat="46.21347" lon="7.35513"><ele></ele><time>2016-8-31T1:49:33Z</time></trkpt>
<trkpt lat="46.2135" lon="7.35521"><ele></ele><time>2016-8-31T1:49:36Z</time></trkpt>
<trkpt lat="46.21358" lon="7.35537"><ele></ele><time>2016-8-31T1:49:39Z</time></trkpt>
<trkpt lat="46.21367" lon="7.35549"><ele></ele><time>2016-8-31T1:49:42Z</time></trkpt>
<trkpt lat="46.21376" lon="7.3556"><ele></ele><time>2016-8-31T1:49:45Z</time></trkpt>
<trkpt lat="46.21385" lon="7.35571"><ele></ele><time>2016-8-31T1:49:48Z</time></trkpt>
<trkpt lat="46.2139" lon="7.35577"><ele></ele><time>2016-8-31T1:49:51Z</time></trkpt>
<trkpt lat="46.21392" lon="7.35584"><ele></ele><time>2016-8-31T1:49:54Z</time></trkpt>
<trkpt lat="46.21394" lon="7.35598"><ele></ele><time>2016-8-31T1:49:57Z</time></trkpt>
<trkpt lat="46.21396" lon="7.35613"><ele></ele><time>2016-8-31T1:50:0Z</time></trkpt>
<trkpt lat="46.21401" lon="7.35629"><ele></ele><time>2016-8-31T1:50:3Z</time></trkpt>
<trkpt lat="46.21407" lon="7.35646"><ele></ele><time>2016-8-31T1:50:6Z</time></trkpt>
<trkpt lat="46.2141" lon="7.35654"><ele></ele><time>2016-8-31T1:50:9Z</time></trkpt>
<trkpt lat="46.21413" lon="7.3566"><ele></ele><time>2016-8-31T1:50:12Z</time></trkpt>
<trkpt lat="46.21421" lon="7.35671"><ele></ele><time>2016-8-31T1:50:15Z</time></trkpt>
<trkpt lat="46.21429" lon="7.35682"><ele></ele><time>2016-8-31T1:50:18Z</time></trkpt>
<trkpt lat="46.21432" lon="7.35698"><ele></ele><time>2016-8-31T1:50:21Z</time></trkpt>
<trkpt lat="46.21434" lon="7.35715"><ele></ele><time>2016-8-31T1:50:24Z</time></trkpt>
<trkpt lat="46.21436" lon="7.35724"><ele></ele><time>2016-8-31T1:50:27Z</time></trkpt>
<trkpt lat="46.21437" lon="7.35732"><ele></ele><time>2016-8-31T1:50:30Z</time></trkpt>
<trkpt lat="46.21438" lon="7.35741"><ele></ele><time>2016-8-31T1:50:33Z</time></trkpt>
<trkpt lat="46.21441" lon="7.35745"><ele></ele><time>2016-8-31T1:50:36Z</time></trkpt>
<trkpt lat="46.21447" lon="7.35753"><ele></ele><time>2016-8-31T1:50:39Z</time></trkpt>
<trkpt lat="46.21454" lon="7.35761"><ele></ele><time>2016-8-31T1:50:42Z</time></trkpt>
<trkpt lat="46.21459" lon="7.35774"><ele></ele><time>2016-8-31T1:50:45Z</time></trkpt>
<trkpt lat="46.21464" lon="7.35788"><ele></ele><time>2016-8-31T1:50:48Z</time></trkpt>
<trkpt lat="46.2147" lon="7.35801"><ele></ele><time>2016-8-31T1:50:51Z</time></trkpt>
<trkpt lat="46.21475" lon="7.35815"><ele></ele><time>2016-8-31T1:50:54Z</time></trkpt>
<trkpt lat="46.21478" lon="7.35821"><ele></ele><time>2016-8-31T1:50:57Z</time></trkpt>
<trkpt lat="46.21481" lon="7.35829"><ele></ele><time>2016-8-31T1:51:0Z</time></trkpt>
<trkpt lat="46.21486" lon="7.35846"><ele></ele><time>2016-8-31T1:51:3Z</time></trkpt>
<trkpt lat="46.21492" lon="7.35863"><ele></ele><time>2016-8-31T1:51:6Z</time></trkpt>
<trkpt lat="46.21495" lon="7.35871"><ele></ele><time>2016-8-31T1:51:9Z</time></trkpt>
<trkpt lat="46.21498" lon="7.35879"><ele></ele><time>2016-8-31T1:51:12Z</time></trkpt>
<trkpt lat="46.21503" lon="7.35897"><ele></ele><time>2016-8-31T1:51:15Z</time></trkpt>
<trkpt lat="46.21508" lon="7.35914"><ele></ele><time>2016-8-31T1:51:18Z</time></trkpt>
<trkpt lat="46.21511" lon="7.3592"><ele></ele><time>2016-8-31T1:51:21Z</time></trkpt>
<trkpt lat="46.21513" lon="7.35928"><ele></ele><time>2016-8-31T1:51:24Z</time></trkpt>
<trkpt lat="46.21516" lon="7.35945"><ele></ele><time>2016-8-31T1:51:27Z</time></trkpt>
<trkpt lat="46.21518" lon="7.35961"><ele></ele><time>2016-8-31T1:51:30Z</time></trkpt>
<trkpt lat="46.2152" lon="7.35977"><ele></ele><time>2016-8-31T1:51:33Z</time></trkpt>
<trkpt lat="46.21527" lon="7.35993"><ele></ele><time>2016-8-31T1:51:36Z</time></trkpt>
<trkpt lat="46.21533" lon="7.3601"><ele></ele><time>2016-8-31T1:51:39Z</time></trkpt>
<trkpt lat="46.2154" lon="7.36026"><ele></ele><time>2016-8-31T1:51:42Z</time></trkpt>
<trkpt lat="46.21543" lon="7.36034"><ele></ele><time>2016-8-31T1:51:45Z</time></trkpt>
<trkpt lat="46.21546" lon="7.36042"><ele></ele><time>2016-8-31T1:51:48Z</time></trkpt>
<trkpt lat="46.21552" lon="7.36057"><ele></ele><time>2016-8-31T1:51:51Z</time></trkpt>
<trkpt lat="46.2156" lon="7.36064"><ele></ele><time>2016-8-31T1:51:54Z</time></trkpt>
<trkpt lat="46.21568" lon="7.3607"><ele></ele><time>2016-8-31T1:51:57Z</time></trkpt>
<trkpt lat="46.2157" lon="7.3607"><ele></ele><time>2016-8-31T1:52:0Z</time></trkpt>
<trkpt lat="46.21573" lon="7.36069"><ele></ele><time>2016-8-31T1:52:3Z</time></trkpt>
<trkpt lat="46.21578" lon="7.36071"><ele></ele><time>2016-8-31T1:52:6Z</time></trkpt>
<trkpt lat="46.21581" lon="7.36072"><ele></ele><time>2016-8-31T1:52:9Z</time></trkpt>
<trkpt lat="46.21582" lon="7.3607"><ele></ele><time>2016-8-31T1:52:12Z</time></trkpt>
<trkpt lat="46.21582" lon="7.36067"><ele></ele><time>2016-8-31T1:52:15Z</time></trkpt>
<trkpt lat="46.21582" lon="7.36064"><ele></ele><time>2016-8-31T1:52:18Z</time></trkpt>
<trkpt lat="46.21583" lon="7.36058"><ele></ele><time>2016-8-31T1:52:21Z</time></trkpt>
<trkpt lat="46.21583" lon="7.36056"><ele></ele><time>2016-8-31T1:52:24Z</time></trkpt>
<trkpt lat="46.21586" lon="7.36054"><ele></ele><time>2016-8-31T1:52:27Z</time></trkpt>
<trkpt lat="46.21589" lon="7.36053"><ele></ele><time>2016-8-31T1:52:30Z</time></trkpt>
<trkpt lat="46.21592" lon="7.36052"><ele></ele><time>2016-8-31T1:52:33Z</time></trkpt>
<trkpt lat="46.21595" lon="7.3605"><ele></ele><time>2016-8-31T1:52:36Z</time></trkpt>
<trkpt lat="46.21598" lon="7.36054"><ele></ele><time>2016-8-31T1:52:39Z</time></trkpt>
<trkpt lat="46.21605" lon="7.36064"><ele></ele><time>2016-8-31T1:52:42Z</time></trkpt>
<trkpt lat="46.21611" lon="7.36074"><ele></ele><time>2016-8-31T1:52:45Z</time></trkpt>
<trkpt lat="46.21617" lon="7.36083"><ele></ele><time>2016-8-31T1:52:48Z</time></trkpt>
<trkpt lat="46.21623" lon="7.36093"><ele></ele><time>2016-8-31T1:52:51Z</time></trkpt>
<trkpt lat="46.21626" lon="7.36098"><ele></ele><time>2016-8-31T1:52:54Z</time></trkpt>
<trkpt lat="46.21629" lon="7.36105"><ele></ele><time>2016-8-31T1:52:57Z</time></trkpt>
<trkpt lat="46.21635" lon="7.36119"><ele></ele><time>2016-8-31T1:53:0Z</time></trkpt>
<trkpt lat="46.21641" lon="7.36132"><ele></ele><time>2016-8-31T1:53:3Z</time></trkpt>
<trkpt lat="46.21641" lon="7.36138"><ele></ele><time>2016-8-31T1:53:6Z</time></trkpt>
<trkpt lat="46.21637" lon="7.36145"><ele></ele><time>2016-8-31T1:53:9Z</time></trkpt>
<trkpt lat="46.21639" lon="7.36153"><ele></ele><time>2016-8-31T1:53:12Z</time></trkpt>
<trkpt lat="46.2164" lon="7.36157"><ele></ele><time>2016-8-31T1:53:15Z</time></trkpt>
<trkpt lat="46.21644" lon="7.36163"><ele></ele><time>2016-8-31T1:53:18Z</time></trkpt>
<trkpt lat="46.21652" lon="7.36177"><ele></ele><time>2016-8-31T1:53:21Z</time></trkpt>
<trkpt lat="46.21651" lon="7.3615"><ele></ele><time>2016-8-31T1:53:24Z</time></trkpt>
<trkpt lat="46.21649" lon="7.3612"><ele></ele><time>2016-8-31T1:53:27Z</time></trkpt>
<trkpt lat="46.21641" lon="7.36105"><ele></ele><time>2016-8-31T1:53:30Z</time></trkpt>
<trkpt lat="46.21642" lon="7.36098"><ele></ele><time>2016-8-31T1:53:33Z</time></trkpt>
<trkpt lat="46.21644" lon="7.36092"><ele></ele><time>2016-8-31T1:53:36Z</time></trkpt>
<trkpt lat="46.21645" lon="7.36094"><ele></ele><time>2016-8-31T1:53:39Z</time></trkpt>
<trkpt lat="46.21647" lon="7.36099"><ele></ele><time>2016-8-31T1:53:42Z</time></trkpt>
<trkpt lat="46.21649" lon="7.36105"><ele></ele><time>2016-8-31T1:53:45Z</time></trkpt>
<trkpt lat="46.21651" lon="7.3611"><ele></ele><time>2016-8-31T1:53:48Z</time></trkpt>
<trkpt lat="46.21653" lon="7.36116"><ele></ele><time>2016-8-31T1:53:51Z</time></trkpt>
<trkpt lat="46.21655" lon="7.36121"><ele></ele><time>2016-8-31T1:53:54Z</time></trkpt>
<trkpt lat="46.21656" lon="7.36127"><ele></ele><time>2016-8-31T1:53:57Z</time></trkpt>
<trkpt lat="46.21658" lon="7.36132"><ele></ele><time>2016-8-31T1:54:0Z</time></trkpt>
<trkpt lat="46.2166" lon="7.36138"><ele></ele><time>2016-8-31T1:54:3Z</time></trkpt>
<trkpt lat="46.21661" lon="7.36141"><ele></ele><time>2016-8-31T1:54:6Z</time></trkpt>
<trkpt lat="46.21666" lon="7.36147"><ele></ele><time>2016-8-31T1:54:9Z</time></trkpt>
<trkpt lat="46.21676" lon="7.36162"><ele></ele><time>2016-8-31T1:54:12Z</time></trkpt>
<trkpt lat="46.21692" lon="7.36177"><ele></ele><time>2016-8-31T1:54:15Z</time></trkpt>
<trkpt lat="46.21709" lon="7.36192"><ele></ele><time>2016-8-31T1:54:18Z</time></trkpt>
<trkpt lat="46.21718" lon="7.362"><ele></ele><time>2016-8-31T1:54:21Z</time></trkpt>
<trkpt lat="46.21723" lon="7.36206"><ele></ele><time>2016-8-31T1:54:24Z</time></trkpt>
<trkpt lat="46.21728" lon="7.36213"><ele></ele><time>2016-8-31T1:54:27Z</time></trkpt>
<trkpt lat="46.21733" lon="7.36219"><ele></ele><time>2016-8-31T1:54:30Z</time></trkpt>
<trkpt lat="46.21743" lon="7.36231"><ele></ele><time>2016-8-31T1:54:33Z</time></trkpt>
<trkpt lat="46.21752" lon="7.36244"><ele></ele><time>2016-8-31T1:54:36Z</time></trkpt>
<trkpt lat="46.21757" lon="7.36251"><ele></ele><time>2016-8-31T1:54:39Z</time></trkpt>
<trkpt lat="46.21762" lon="7.36259"><ele></ele><time>2016-8-31T1:54:42Z</time></trkpt>
<trkpt lat="46.21771" lon="7.36274"><ele></ele><time>2016-8-31T1:54:45Z</time></trkpt>
<trkpt lat="46.21776" lon="7.36282"><ele></ele><time>2016-8-31T1:54:48Z</time></trkpt>
<trkpt lat="46.21775" lon="7.36294"><ele></ele><time>2016-8-31T1:54:51Z</time></trkpt>
<trkpt lat="46.21778" lon="7.3631"><ele></ele><time>2016-8-31T1:54:54Z</time></trkpt>
<trkpt lat="46.21782" lon="7.36324"><ele></ele><time>2016-8-31T1:54:57Z</time></trkpt>
<trkpt lat="46.21786" lon="7.36339"><ele></ele><time>2016-8-31T1:55:0Z</time></trkpt>
<trkpt lat="46.21791" lon="7.36354"><ele></ele><time>2016-8-31T1:55:3Z</time></trkpt>
<trkpt lat="46.21793" lon="7.36361"><ele></ele><time>2016-8-31T1:55:6Z</time></trkpt>
<trkpt lat="46.21795" lon="7.36368"><ele></ele><time>2016-8-31T1:55:9Z</time></trkpt>
<trkpt lat="46.21801" lon="7.36381"><ele></ele><time>2016-8-31T1:55:12Z</time></trkpt>
<trkpt lat="46.21806" lon="7.36395"><ele></ele><time>2016-8-31T1:55:15Z</time></trkpt>
<trkpt lat="46.21812" lon="7.36408"><ele></ele><time>2016-8-31T1:55:18Z</time></trkpt>
<trkpt lat="46.21814" lon="7.36415"><ele></ele><time>2016-8-31T1:55:21Z</time></trkpt>
<trkpt lat="46.21816" lon="7.36426"><ele></ele><time>2016-8-31T1:55:24Z</time></trkpt>
<trkpt lat="46.21819" lon="7.36448"><ele></ele><time>2016-8-31T1:55:27Z</time></trkpt>
<trkpt lat="46.21822" lon="7.36471"><ele></ele><time>2016-8-31T1:55:30Z</time></trkpt>
<trkpt lat="46.21823" lon="7.36483"><ele></ele><time>2016-8-31T1:55:33Z</time></trkpt>
<trkpt lat="46.21824" lon="7.36491"><ele></ele><time>2016-8-31T1:55:36Z</time></trkpt>
<trkpt lat="46.21825" lon="7.36499"><ele></ele><time>2016-8-31T1:55:39Z</time></trkpt>
<trkpt lat="46.21827" lon="7.36506"><ele></ele><time>2016-8-31T1:55:42Z</time></trkpt>
<trkpt lat="46.21831" lon="7.3652"><ele></ele><time>2016-8-31T1:55:45Z</time></trkpt>
<trkpt lat="46.21835" lon="7.36534"><ele></ele><time>2016-8-31T1:55:48Z</time></trkpt>
<trkpt lat="46.21837" lon="7.3654"><ele></ele><time>2016-8-31T1:55:51Z</time></trkpt>
<trkpt lat="46.21838" lon="7.36543"><ele></ele><time>2016-8-31T1:55:54Z</time></trkpt>
<trkpt lat="46.2184" lon="7.36548"><ele></ele><time>2016-8-31T1:55:57Z</time></trkpt>
<trkpt lat="46.21842" lon="7.36552"><ele></ele><time>2016-8-31T1:56:0Z</time></trkpt>
<trkpt lat="46.21844" lon="7.36557"><ele></ele><time>2016-8-31T1:56:3Z</time></trkpt>
<trkpt lat="46.21846" lon="7.36562"><ele></ele><time>2016-8-31T1:56:6Z</time></trkpt>
<trkpt lat="46.21848" lon="7.36566"><ele></ele><time>2016-8-31T1:56:9Z</time></trkpt>
<trkpt lat="46.2185" lon="7.36571"><ele></ele><time>2016-8-31T1:56:12Z</time></trkpt>
<trkpt lat="46.21852" lon="7.36575"><ele></ele><time>2016-8-31T1:56:15Z</time></trkpt>
<trkpt lat="46.21854" lon="7.3658"><ele></ele><time>2016-8-31T1:56:18Z</time></trkpt>
<trkpt lat="46.21855" lon="7.36582"><ele></ele><time>2016-8-31T1:56:21Z</time></trkpt>
<trkpt lat="46.21856" lon="7.36585"><ele></ele><time>2016-8-31T1:56:24Z</time></trkpt>
<trkpt lat="46.21858" lon="7.36589"><ele></ele><time>2016-8-31T1:56:27Z</time></trkpt>
<trkpt lat="46.21861" lon="7.36594"><ele></ele><time>2016-8-31T1:56:30Z</time></trkpt>
<trkpt lat="46.21862" lon="7.36596"><ele></ele><time>2016-8-31T1:56:33Z</time></trkpt>
<trkpt lat="46.21863" lon="7.36599"><ele></ele><time>2016-8-31T1:56:36Z</time></trkpt>
<trkpt lat="46.21864" lon="7.36605"><ele></ele><time>2016-8-31T1:56:39Z</time></trkpt>
<trkpt lat="46.21866" lon="7.36611"><ele></ele><time>2016-8-31T1:56:42Z</time></trkpt>
<trkpt lat="46.21868" lon="7.36617"><ele></ele><time>2016-8-31T1:56:45Z</time></trkpt>
<trkpt lat="46.21872" lon="7.36629"><ele></ele><time>2016-8-31T1:56:48Z</time></trkpt>
<trkpt lat="46.21876" lon="7.36641"><ele></ele><time>2016-8-31T1:56:51Z</time></trkpt>
<trkpt lat="46.21879" lon="7.36653"><ele></ele><time>2016-8-31T1:56:54Z</time></trkpt>
<trkpt lat="46.21883" lon="7.36665"><ele></ele><time>2016-8-31T1:56:57Z</time></trkpt>
<trkpt lat="46.21887" lon="7.36677"><ele></ele><time>2016-8-31T1:57:0Z</time></trkpt>
<trkpt lat="46.21889" lon="7.36683"><ele></ele><time>2016-8-31T1:57:3Z</time></trkpt>
<trkpt lat="46.21892" lon="7.3669"><ele></ele><time>2016-8-31T1:57:6Z</time></trkpt>
<trkpt lat="46.21899" lon="7.36706"><ele></ele><time>2016-8-31T1:57:9Z</time></trkpt>
<trkpt lat="46.21907" lon="7.36721"><ele></ele><time>2016-8-31T1:57:12Z</time></trkpt>
<trkpt lat="46.21914" lon="7.36737"><ele></ele><time>2016-8-31T1:57:15Z</time></trkpt>
<trkpt lat="46.21917" lon="7.36744"><ele></ele><time>2016-8-31T1:57:18Z</time></trkpt>
<trkpt lat="46.21923" lon="7.36754"><ele></ele><time>2016-8-31T1:57:21Z</time></trkpt>
<trkpt lat="46.21935" lon="7.36773"><ele></ele><time>2016-8-31T1:57:24Z</time></trkpt>
<trkpt lat="46.21946" lon="7.36793"><ele></ele><time>2016-8-31T1:57:27Z</time></trkpt>
<trkpt lat="46.21954" lon="7.36815"><ele></ele><time>2016-8-31T1:57:30Z</time></trkpt>
<trkpt lat="46.21962" lon="7.36838"><ele></ele><time>2016-8-31T1:57:33Z</time></trkpt>
<trkpt lat="46.2197" lon="7.36861"><ele></ele><time>2016-8-31T1:57:36Z</time></trkpt>
<trkpt lat="46.21974" lon="7.36885"><ele></ele><time>2016-8-31T1:57:39Z</time></trkpt>
<trkpt lat="46.21978" lon="7.36908"><ele></ele><time>2016-8-31T1:57:42Z</time></trkpt>
<trkpt lat="46.21982" lon="7.36932"><ele></ele><time>2016-8-31T1:57:45Z</time></trkpt>
<trkpt lat="46.21984" lon="7.36951"><ele></ele><time>2016-8-31T1:57:48Z</time></trkpt>
<trkpt lat="46.21981" lon="7.36963"><ele></ele><time>2016-8-31T1:57:51Z</time></trkpt>
<trkpt lat="46.21979" lon="7.36975"><ele></ele><time>2016-8-31T1:57:54Z</time></trkpt>
<trkpt lat="46.21973" lon="7.36999"><ele></ele><time>2016-8-31T1:57:57Z</time></trkpt>
<trkpt lat="46.2197" lon="7.37012"><ele></ele><time>2016-8-31T1:58:0Z</time></trkpt>
<trkpt lat="46.21971" lon="7.37016"><ele></ele><time>2016-8-31T1:58:3Z</time></trkpt>
<trkpt lat="46.21971" lon="7.37019"><ele></ele><time>2016-8-31T1:58:6Z</time></trkpt>
<trkpt lat="46.21972" lon="7.37022"><ele></ele><time>2016-8-31T1:58:9Z</time></trkpt>
<trkpt lat="46.21983" lon="7.37036"><ele></ele><time>2016-8-31T1:58:12Z</time></trkpt>
<trkpt lat="46.21994" lon="7.3705"><ele></ele><time>2016-8-31T1:58:15Z</time></trkpt>
<trkpt lat="46.22005" lon="7.37064"><ele></ele><time>2016-8-31T1:58:18Z</time></trkpt>
<trkpt lat="46.22013" lon="7.37079"><ele></ele><time>2016-8-31T1:58:21Z</time></trkpt>
<trkpt lat="46.2202" lon="7.37093"><ele></ele><time>2016-8-31T1:58:24Z</time></trkpt>
<trkpt lat="46.22023" lon="7.371"><ele></ele><time>2016-8-31T1:58:27Z</time></trkpt>
<trkpt lat="46.22031" lon="7.37105"><ele></ele><time>2016-8-31T1:58:30Z</time></trkpt>
<trkpt lat="46.22049" lon="7.37113"><ele></ele><time>2016-8-31T1:58:33Z</time></trkpt>
<trkpt lat="46.22066" lon="7.37121"><ele></ele><time>2016-8-31T1:58:36Z</time></trkpt>
<trkpt lat="46.22075" lon="7.37129"><ele></ele><time>2016-8-31T1:58:39Z</time></trkpt>
<trkpt lat="46.22079" lon="7.37133"><ele></ele><time>2016-8-31T1:58:42Z</time></trkpt>
<trkpt lat="46.22083" lon="7.37133"><ele></ele><time>2016-8-31T1:58:45Z</time></trkpt>
<trkpt lat="46.22088" lon="7.37137"><ele></ele><time>2016-8-31T1:58:48Z</time></trkpt>
<trkpt lat="46.22092" lon="7.37142"><ele></ele><time>2016-8-31T1:58:51Z</time></trkpt>
<trkpt lat="46.22102" lon="7.37153"><ele></ele><time>2016-8-31T1:58:54Z</time></trkpt>
<trkpt lat="46.22112" lon="7.37163"><ele></ele><time>2016-8-31T1:58:57Z</time></trkpt>
<trkpt lat="46.22116" lon="7.37168"><ele></ele><time>2016-8-31T1:59:0Z</time></trkpt>
<trkpt lat="46.22122" lon="7.37177"><ele></ele><time>2016-8-31T1:59:3Z</time></trkpt>
<trkpt lat="46.22134" lon="7.37196"><ele></ele><time>2016-8-31T1:59:6Z</time></trkpt>
<trkpt lat="46.2214" lon="7.37206"><ele></ele><time>2016-8-31T1:59:9Z</time></trkpt>
<trkpt lat="46.22145" lon="7.3721"><ele></ele><time>2016-8-31T1:59:12Z</time></trkpt>
<trkpt lat="46.2215" lon="7.37213"><ele></ele><time>2016-8-31T1:59:15Z</time></trkpt>
<trkpt lat="46.22158" lon="7.37214"><ele></ele><time>2016-8-31T1:59:18Z</time></trkpt>
<trkpt lat="46.22174" lon="7.37215"><ele></ele><time>2016-8-31T1:59:21Z</time></trkpt>
<trkpt lat="46.2219" lon="7.37215"><ele></ele><time>2016-8-31T1:59:24Z</time></trkpt>
<trkpt lat="46.22198" lon="7.37216"><ele></ele><time>2016-8-31T1:59:27Z</time></trkpt>
<trkpt lat="46.2221" lon="7.37216"><ele></ele><time>2016-8-31T1:59:30Z</time></trkpt>
<trkpt lat="46.22235" lon="7.37217"><ele></ele><time>2016-8-31T1:59:33Z</time></trkpt>
<trkpt lat="46.22247" lon="7.37218"><ele></ele><time>2016-8-31T1:59:36Z</time></trkpt>
<trkpt lat="46.22259" lon="7.37216"><ele></ele><time>2016-8-31T1:59:39Z</time></trkpt>
<trkpt lat="46.22282" lon="7.37213"><ele></ele><time>2016-8-31T1:59:42Z</time></trkpt>
<trkpt lat="46.22293" lon="7.37211"><ele></ele><time>2016-8-31T1:59:45Z</time></trkpt>
<trkpt lat="46.22302" lon="7.37209"><ele></ele><time>2016-8-31T1:59:48Z</time></trkpt>
<trkpt lat="46.2231" lon="7.37207"><ele></ele><time>2016-8-31T1:59:51Z</time></trkpt>
<trkpt lat="46.22319" lon="7.372"><ele></ele><time>2016-8-31T1:59:54Z</time></trkpt>
<trkpt lat="46.22338" lon="7.37195"><ele></ele><time>2016-8-31T1:59:57Z</time></trkpt>
<trkpt lat="46.22357" lon="7.3719"><ele></ele><time>2016-8-31T2:0:0Z</time></trkpt>
<trkpt lat="46.22367" lon="7.37187"><ele></ele><time>2016-8-31T2:0:3Z</time></trkpt>
<trkpt lat="46.22373" lon="7.37185"><ele></ele><time>2016-8-31T2:0:6Z</time></trkpt>
<trkpt lat="46.22386" lon="7.3718"><ele></ele><time>2016-8-31T2:0:9Z</time></trkpt>
<trkpt lat="46.22393" lon="7.37178"><ele></ele><time>2016-8-31T2:0:12Z</time></trkpt>
<trkpt lat="46.22399" lon="7.37176"><ele></ele><time>2016-8-31T2:0:15Z</time></trkpt>
<trkpt lat="46.22405" lon="7.37174"><ele></ele><time>2016-8-31T2:0:18Z</time></trkpt>
<trkpt lat="46.22408" lon="7.37177"><ele></ele><time>2016-8-31T2:0:21Z</time></trkpt>
<trkpt lat="46.22414" lon="7.37186"><ele></ele><time>2016-8-31T2:0:24Z</time></trkpt>
<trkpt lat="46.22419" lon="7.37195"><ele></ele><time>2016-8-31T2:0:27Z</time></trkpt>
<trkpt lat="46.22424" lon="7.37204"><ele></ele><time>2016-8-31T2:0:30Z</time></trkpt>
<trkpt lat="46.2243" lon="7.37213"><ele></ele><time>2016-8-31T2:0:33Z</time></trkpt>
<trkpt lat="46.22435" lon="7.37222"><ele></ele><time>2016-8-31T2:0:36Z</time></trkpt>
<trkpt lat="46.22441" lon="7.37231"><ele></ele><time>2016-8-31T2:0:39Z</time></trkpt>
<trkpt lat="46.22447" lon="7.3724"><ele></ele><time>2016-8-31T2:0:42Z</time></trkpt>
<trkpt lat="46.22453" lon="7.37249"><ele></ele><time>2016-8-31T2:0:45Z</time></trkpt>
<trkpt lat="46.22456" lon="7.37253"><ele></ele><time>2016-8-31T2:0:48Z</time></trkpt>
<trkpt lat="46.22459" lon="7.37256"><ele></ele><time>2016-8-31T2:0:51Z</time></trkpt>
<trkpt lat="46.22467" lon="7.37263"><ele></ele><time>2016-8-31T2:0:54Z</time></trkpt>
<trkpt lat="46.22475" lon="7.37269"><ele></ele><time>2016-8-31T2:0:57Z</time></trkpt>
<trkpt lat="46.22483" lon="7.37275"><ele></ele><time>2016-8-31T2:1:0Z</time></trkpt>
<trkpt lat="46.22491" lon="7.37282"><ele></ele><time>2016-8-31T2:1:3Z</time></trkpt>
<trkpt lat="46.22495" lon="7.37285"><ele></ele><time>2016-8-31T2:1:6Z</time></trkpt>
<trkpt lat="46.22499" lon="7.37288"><ele></ele><time>2016-8-31T2:1:9Z</time></trkpt>
<trkpt lat="46.22506" lon="7.37293"><ele></ele><time>2016-8-31T2:1:12Z</time></trkpt>
<trkpt lat="46.22514" lon="7.37299"><ele></ele><time>2016-8-31T2:1:15Z</time></trkpt>
<trkpt lat="46.22521" lon="7.37304"><ele></ele><time>2016-8-31T2:1:18Z</time></trkpt>
<trkpt lat="46.22529" lon="7.3731"><ele></ele><time>2016-8-31T2:1:21Z</time></trkpt>
<trkpt lat="46.22533" lon="7.37312"><ele></ele><time>2016-8-31T2:1:24Z</time></trkpt>
<trkpt lat="46.22535" lon="7.37317"><ele></ele><time>2016-8-31T2:1:27Z</time></trkpt>
<trkpt lat="46.2254" lon="7.37327"><ele></ele><time>2016-8-31T2:1:30Z</time></trkpt>
<trkpt lat="46.22544" lon="7.37337"><ele></ele><time>2016-8-31T2:1:33Z</time></trkpt>
<trkpt lat="46.22548" lon="7.3734"><ele></ele><time>2016-8-31T2:1:36Z</time></trkpt>
<trkpt lat="46.22553" lon="7.37339"><ele></ele><time>2016-8-31T2:1:39Z</time></trkpt>
<trkpt lat="46.22563" lon="7.37337"><ele></ele><time>2016-8-31T2:1:42Z</time></trkpt>
<trkpt lat="46.22573" lon="7.37334"><ele></ele><time>2016-8-31T2:1:45Z</time></trkpt>
<trkpt lat="46.22584" lon="7.37332"><ele></ele><time>2016-8-31T2:1:48Z</time></trkpt>
<trkpt lat="46.22594" lon="7.3733"><ele></ele><time>2016-8-31T2:1:51Z</time></trkpt>
<trkpt lat="46.22602" lon="7.37321"><ele></ele><time>2016-8-31T2:1:54Z</time></trkpt>
<trkpt lat="46.22603" lon="7.37309"><ele></ele><time>2016-8-31T2:1:57Z</time></trkpt>
<trkpt lat="46.22601" lon="7.37319"><ele></ele><time>2016-8-31T2:2:0Z</time></trkpt>
<trkpt lat="46.22599" lon="7.3732"><ele></ele><time>2016-8-31T2:2:3Z</time></trkpt>
<trkpt lat="46.22609" lon="7.37298"><ele></ele><time>2016-8-31T2:2:6Z</time></trkpt>
<trkpt lat="46.22607" lon="7.37315"><ele></ele><time>2016-8-31T2:2:9Z</time></trkpt>
<trkpt lat="46.22606" lon="7.37317"><ele></ele><time>2016-8-31T2:2:12Z</time></trkpt>
<trkpt lat="46.22607" lon="7.37317"><ele></ele><time>2016-8-31T2:2:15Z</time></trkpt>
<trkpt lat="46.22617" lon="7.37307"><ele></ele><time>2016-8-31T2:2:18Z</time></trkpt>
<trkpt lat="46.2262" lon="7.37309"><ele></ele><time>2016-8-31T2:2:21Z</time></trkpt>
<trkpt lat="46.22621" lon="7.37314"><ele></ele><time>2016-8-31T2:2:24Z</time></trkpt>
<trkpt lat="46.2262" lon="7.37317"><ele></ele><time>2016-8-31T2:2:27Z</time></trkpt>
<trkpt lat="46.22618" lon="7.37321"><ele></ele><time>2016-8-31T2:2:30Z</time></trkpt>
<trkpt lat="46.22615" lon="7.37321"><ele></ele><time>2016-8-31T2:2:33Z</time></trkpt>
<trkpt lat="46.22613" lon="7.37321"><ele></ele><time>2016-8-31T2:2:36Z</time></trkpt>
<trkpt lat="46.22612" lon="7.37318"><ele></ele><time>2016-8-31T2:2:39Z</time></trkpt>
<trkpt lat="46.22612" lon="7.37313"><ele></ele><time>2016-8-31T2:2:42Z</time></trkpt>
<trkpt lat="46.22616" lon="7.37312"><ele></ele><time>2016-8-31T2:2:45Z</time></trkpt>
<trkpt lat="46.2262" lon="7.37312"><ele></ele><time>2016-8-31T2:2:48Z</time></trkpt>
<trkpt lat="46.22623" lon="7.37312"><ele></ele><time>2016-8-31T2:2:51Z</time></trkpt>
<trkpt lat="46.22624" lon="7.37315"><ele></ele><time>2016-8-31T2:2:54Z</time></trkpt>
<trkpt lat="46.22626" lon="7.37319"><ele></ele><time>2016-8-31T2:2:57Z</time></trkpt>
<trkpt lat="46.22626" lon="7.37324"><ele></ele><time>2016-8-31T2:3:0Z</time></trkpt>
<trkpt lat="46.22626" lon="7.37331"><ele></ele><time>2016-8-31T2:3:3Z</time></trkpt>
<trkpt lat="46.22622" lon="7.37353"><ele></ele><time>2016-8-31T2:3:6Z</time></trkpt>
<trkpt lat="46.22606" lon="7.37342"><ele></ele><time>2016-8-31T2:3:9Z</time></trkpt>
<trkpt lat="46.22615" lon="7.37346"><ele></ele><time>2016-8-31T2:3:12Z</time></trkpt>
<trkpt lat="46.22606" lon="7.3731"><ele></ele><time>2016-8-31T2:3:15Z</time></trkpt>
<trkpt lat="46.22605" lon="7.37309"><ele></ele><time>2016-8-31T2:3:18Z</time></trkpt>
<trkpt lat="46.22605" lon="7.37316"><ele></ele><time>2016-8-31T2:3:21Z</time></trkpt>
<trkpt lat="46.22611" lon="7.37308"><ele></ele><time>2016-8-31T2:3:24Z</time></trkpt>
<trkpt lat="46.22611" lon="7.37308"><ele></ele><time>2016-8-31T2:3:27Z</time></trkpt>
<trkpt lat="46.22616" lon="7.37297"><ele></ele><time>2016-8-31T2:3:30Z</time></trkpt>
<trkpt lat="46.22626" lon="7.37287"><ele></ele><time>2016-8-31T2:3:33Z</time></trkpt>
<trkpt lat="46.22636" lon="7.37277"><ele></ele><time>2016-8-31T2:3:36Z</time></trkpt>
<trkpt lat="46.22646" lon="7.37268"><ele></ele><time>2016-8-31T2:3:39Z</time></trkpt>
<trkpt lat="46.22655" lon="7.3726"><ele></ele><time>2016-8-31T2:3:42Z</time></trkpt>
<trkpt lat="46.22664" lon="7.37252"><ele></ele><time>2016-8-31T2:3:45Z</time></trkpt>
<trkpt lat="46.22674" lon="7.37244"><ele></ele><time>2016-8-31T2:3:48Z</time></trkpt>
<trkpt lat="46.22683" lon="7.37235"><ele></ele><time>2016-8-31T2:3:51Z</time></trkpt>
<trkpt lat="46.22687" lon="7.37231"><ele></ele><time>2016-8-31T2:3:54Z</time></trkpt>
<trkpt lat="46.22693" lon="7.37227"><ele></ele><time>2016-8-31T2:3:57Z</time></trkpt>
<trkpt lat="46.22704" lon="7.37219"><ele></ele><time>2016-8-31T2:4:0Z</time></trkpt>
<trkpt lat="46.22715" lon="7.3721"><ele></ele><time>2016-8-31T2:4:3Z</time></trkpt>
<trkpt lat="46.22726" lon="7.37202"><ele></ele><time>2016-8-31T2:4:6Z</time></trkpt>
<trkpt lat="46.22731" lon="7.37198"><ele></ele><time>2016-8-31T2:4:9Z</time></trkpt>
<trkpt lat="46.22737" lon="7.37194"><ele></ele><time>2016-8-31T2:4:12Z</time></trkpt>
<trkpt lat="46.22748" lon="7.37186"><ele></ele><time>2016-8-31T2:4:15Z</time></trkpt>
<trkpt lat="46.22758" lon="7.37179"><ele></ele><time>2016-8-31T2:4:18Z</time></trkpt>
<trkpt lat="46.22769" lon="7.37171"><ele></ele><time>2016-8-31T2:4:21Z</time></trkpt>
<trkpt lat="46.22774" lon="7.37167"><ele></ele><time>2016-8-31T2:4:24Z</time></trkpt>
<trkpt lat="46.22779" lon="7.37165"><ele></ele><time>2016-8-31T2:4:27Z</time></trkpt>
<trkpt lat="46.22788" lon="7.3716"><ele></ele><time>2016-8-31T2:4:30Z</time></trkpt>
<trkpt lat="46.22796" lon="7.37162"><ele></ele><time>2016-8-31T2:4:33Z</time></trkpt>
<trkpt lat="46.22805" lon="7.37163"><ele></ele><time>2016-8-31T2:4:36Z</time></trkpt>
<trkpt lat="46.22809" lon="7.37164"><ele></ele><time>2016-8-31T2:4:39Z</time></trkpt>
<trkpt lat="46.22812" lon="7.37159"><ele></ele><time>2016-8-31T2:4:42Z</time></trkpt>
<trkpt lat="46.22814" lon="7.37152"><ele></ele><time>2016-8-31T2:4:45Z</time></trkpt>
<trkpt lat="46.22813" lon="7.37151"><ele></ele><time>2016-8-31T2:4:48Z</time></trkpt>
<trkpt lat="46.22811" lon="7.37149"><ele></ele><time>2016-8-31T2:4:51Z</time></trkpt>
<trkpt lat="46.22812" lon="7.37141"><ele></ele><time>2016-8-31T2:4:54Z</time></trkpt>
<trkpt lat="46.22814" lon="7.37122"><ele></ele><time>2016-8-31T2:4:57Z</time></trkpt>
<trkpt lat="46.22817" lon="7.37103"><ele></ele><time>2016-8-31T2:5:0Z</time></trkpt>
<trkpt lat="46.22818" lon="7.37094"><ele></ele><time>2016-8-31T2:5:3Z</time></trkpt>
<trkpt lat="46.2282" lon="7.37087"><ele></ele><time>2016-8-31T2:5:6Z</time></trkpt>
<trkpt lat="46.22823" lon="7.37073"><ele></ele><time>2016-8-31T2:5:9Z</time></trkpt>
<trkpt lat="46.22827" lon="7.37059"><ele></ele><time>2016-8-31T2:5:12Z</time></trkpt>
<trkpt lat="46.22831" lon="7.37046"><ele></ele><time>2016-8-31T2:5:15Z</time></trkpt>
<trkpt lat="46.22834" lon="7.37032"><ele></ele><time>2016-8-31T2:5:18Z</time></trkpt>
<trkpt lat="46.22838" lon="7.37018"><ele></ele><time>2016-8-31T2:5:21Z</time></trkpt>
<trkpt lat="46.22843" lon="7.37004"><ele></ele><time>2016-8-31T2:5:24Z</time></trkpt>
<trkpt lat="46.22847" lon="7.3699"><ele></ele><time>2016-8-31T2:5:27Z</time></trkpt>
<trkpt lat="46.22852" lon="7.36976"><ele></ele><time>2016-8-31T2:5:30Z</time></trkpt>
<trkpt lat="46.22857" lon="7.36962"><ele></ele><time>2016-8-31T2:5:33Z</time></trkpt>
<trkpt lat="46.22859" lon="7.36955"><ele></ele><time>2016-8-31T2:5:36Z</time></trkpt>
<trkpt lat="46.22862" lon="7.36947"><ele></ele><time>2016-8-31T2:5:39Z</time></trkpt>
<trkpt lat="46.22867" lon="7.36932"><ele></ele><time>2016-8-31T2:5:42Z</time></trkpt>
<trkpt lat="46.22873" lon="7.36917"><ele></ele><time>2016-8-31T2:5:45Z</time></trkpt>
<trkpt lat="46.22878" lon="7.36902"><ele></ele><time>2016-8-31T2:5:48Z</time></trkpt>
<trkpt lat="46.22873" lon="7.369"><ele></ele><time>2016-8-31T2:5:51Z</time></trkpt>
<trkpt lat="46.22873" lon="7.36897"><ele></ele><time>2016-8-31T2:5:54Z</time></trkpt>
<trkpt lat="46.22899" lon="7.36898"><ele></ele><time>2016-8-31T2:5:57Z</time></trkpt>
<trkpt lat="46.22912" lon="7.36907"><ele></ele><time>2016-8-31T2:6:0Z</time></trkpt>
<trkpt lat="46.22922" lon="7.36917"><ele></ele><time>2016-8-31T2:6:3Z</time></trkpt>
<trkpt lat="46.22931" lon="7.36927"><ele></ele><time>2016-8-31T2:6:6Z</time></trkpt>
<trkpt lat="46.22941" lon="7.3693"><ele></ele><time>2016-8-31T2:6:9Z</time></trkpt>
<trkpt lat="46.22952" lon="7.36932"><ele></ele><time>2016-8-31T2:6:12Z</time></trkpt>
<trkpt lat="46.22961" lon="7.36932"><ele></ele><time>2016-8-31T2:6:15Z</time></trkpt>
<trkpt lat="46.22971" lon="7.36932"><ele></ele><time>2016-8-31T2:6:18Z</time></trkpt>
<trkpt lat="46.22981" lon="7.36931"><ele></ele><time>2016-8-31T2:6:21Z</time></trkpt>
<trkpt lat="46.22991" lon="7.36931"><ele></ele><time>2016-8-31T2:6:24Z</time></trkpt>
<trkpt lat="46.23" lon="7.36931"><ele></ele><time>2016-8-31T2:6:27Z</time></trkpt>
<trkpt lat="46.2301" lon="7.3693"><ele></ele><time>2016-8-31T2:6:30Z</time></trkpt>
<trkpt lat="46.2302" lon="7.3693"><ele></ele><time>2016-8-31T2:6:33Z</time></trkpt>
<trkpt lat="46.23029" lon="7.3693"><ele></ele><time>2016-8-31T2:6:36Z</time></trkpt>
<trkpt lat="46.23039" lon="7.3693"><ele></ele><time>2016-8-31T2:6:39Z</time></trkpt>
<trkpt lat="46.23044" lon="7.3693"><ele></ele><time>2016-8-31T2:6:42Z</time></trkpt>
<trkpt lat="46.23048" lon="7.36931"><ele></ele><time>2016-8-31T2:6:45Z</time></trkpt>
<trkpt lat="46.23058" lon="7.36933"><ele></ele><time>2016-8-31T2:6:48Z</time></trkpt>
<trkpt lat="46.23068" lon="7.36936"><ele></ele><time>2016-8-31T2:6:51Z</time></trkpt>
<trkpt lat="46.23077" lon="7.36938"><ele></ele><time>2016-8-31T2:6:54Z</time></trkpt>
<trkpt lat="46.23087" lon="7.3694"><ele></ele><time>2016-8-31T2:6:57Z</time></trkpt>
<trkpt lat="46.23092" lon="7.36941"><ele></ele><time>2016-8-31T2:7:0Z</time></trkpt>
<trkpt lat="46.23097" lon="7.36942"><ele></ele><time>2016-8-31T2:7:3Z</time></trkpt>
<trkpt lat="46.23107" lon="7.36945"><ele></ele><time>2016-8-31T2:7:6Z</time></trkpt>
<trkpt lat="46.23117" lon="7.36947"><ele></ele><time>2016-8-31T2:7:9Z</time></trkpt>
<trkpt lat="46.23128" lon="7.36949"><ele></ele><time>2016-8-31T2:7:12Z</time></trkpt>
<trkpt lat="46.23138" lon="7.36951"><ele></ele><time>2016-8-31T2:7:15Z</time></trkpt>
<trkpt lat="46.23147" lon="7.36953"><ele></ele><time>2016-8-31T2:7:18Z</time></trkpt>
<trkpt lat="46.23156" lon="7.36955"><ele></ele><time>2016-8-31T2:7:21Z</time></trkpt>
<trkpt lat="46.23166" lon="7.36956"><ele></ele><time>2016-8-31T2:7:24Z</time></trkpt>
<trkpt lat="46.23175" lon="7.36958"><ele></ele><time>2016-8-31T2:7:27Z</time></trkpt>
<trkpt lat="46.23184" lon="7.3696"><ele></ele><time>2016-8-31T2:7:30Z</time></trkpt>
<trkpt lat="46.23193" lon="7.36962"><ele></ele><time>2016-8-31T2:7:33Z</time></trkpt>
<trkpt lat="46.23202" lon="7.36964"><ele></ele><time>2016-8-31T2:7:36Z</time></trkpt>
<trkpt lat="46.23211" lon="7.36966"><ele></ele><time>2016-8-31T2:7:39Z</time></trkpt>
<trkpt lat="46.23219" lon="7.36968"><ele></ele><time>2016-8-31T2:7:42Z</time></trkpt>
<trkpt lat="46.23228" lon="7.3697"><ele></ele><time>2016-8-31T2:7:45Z</time></trkpt>
<trkpt lat="46.23236" lon="7.36973"><ele></ele><time>2016-8-31T2:7:48Z</time></trkpt>
<trkpt lat="46.23243" lon="7.36976"><ele></ele><time>2016-8-31T2:7:51Z</time></trkpt>
<trkpt lat="46.2325" lon="7.36979"><ele></ele><time>2016-8-31T2:7:54Z</time></trkpt>
<trkpt lat="46.23257" lon="7.36982"><ele></ele><time>2016-8-31T2:7:57Z</time></trkpt>
<trkpt lat="46.23263" lon="7.3698"><ele></ele><time>2016-8-31T2:8:0Z</time></trkpt>
<trkpt lat="46.2327" lon="7.36978"><ele></ele><time>2016-8-31T2:8:3Z</time></trkpt>
<trkpt lat="46.23277" lon="7.36981"><ele></ele><time>2016-8-31T2:8:6Z</time></trkpt>
<trkpt lat="46.23284" lon="7.36984"><ele></ele><time>2016-8-31T2:8:9Z</time></trkpt>
<trkpt lat="46.23291" lon="7.36987"><ele></ele><time>2016-8-31T2:8:12Z</time></trkpt>
<trkpt lat="46.23299" lon="7.3699"><ele></ele><time>2016-8-31T2:8:15Z</time></trkpt>
<trkpt lat="46.23306" lon="7.36993"><ele></ele><time>2016-8-31T2:8:18Z</time></trkpt>
<trkpt lat="46.23298" lon="7.36989"><ele></ele><time>2016-8-31T2:8:21Z</time></trkpt>
<trkpt lat="46.23289" lon="7.36985"><ele></ele><time>2016-8-31T2:8:24Z</time></trkpt>
<trkpt lat="46.2328" lon="7.36981"><ele></ele><time>2016-8-31T2:8:27Z</time></trkpt>
<trkpt lat="46.23271" lon="7.36976"><ele></ele><time>2016-8-31T2:8:30Z</time></trkpt>
<trkpt lat="46.23262" lon="7.36972"><ele></ele><time>2016-8-31T2:8:33Z</time></trkpt>
<trkpt lat="46.2326" lon="7.36971"><ele></ele><time>2016-8-31T2:8:36Z</time></trkpt>
<trkpt lat="46.2326" lon="7.36969"><ele></ele><time>2016-8-31T2:8:39Z</time></trkpt>
<trkpt lat="46.2326" lon="7.36964"><ele></ele><time>2016-8-31T2:8:42Z</time></trkpt>
<trkpt lat="46.23261" lon="7.36959"><ele></ele><time>2016-8-31T2:8:45Z</time></trkpt>
<trkpt lat="46.23261" lon="7.36956"><ele></ele><time>2016-8-31T2:8:48Z</time></trkpt>
<trkpt lat="46.23264" lon="7.36957"><ele></ele><time>2016-8-31T2:8:51Z</time></trkpt>
<trkpt lat="46.2327" lon="7.36959"><ele></ele><time>2016-8-31T2:8:54Z</time></trkpt>
<trkpt lat="46.23276" lon="7.36961"><ele></ele><time>2016-8-31T2:8:57Z</time></trkpt>
<trkpt lat="46.23282" lon="7.36964"><ele></ele><time>2016-8-31T2:9:0Z</time></trkpt>
<trkpt lat="46.23288" lon="7.36966"><ele></ele><time>2016-8-31T2:9:3Z</time></trkpt>
<trkpt lat="46.23294" lon="7.36968"><ele></ele><time>2016-8-31T2:9:6Z</time></trkpt>
<trkpt lat="46.23307" lon="7.3696"><ele></ele><time>2016-8-31T2:9:9Z</time></trkpt>
<trkpt lat="46.23307" lon="7.3696"><ele></ele><time>2016-8-31T2:9:12Z</time></trkpt>
<trkpt lat="46.23314" lon="7.3695"><ele></ele><time>2016-8-31T2:9:15Z</time></trkpt>
<trkpt lat="46.23317" lon="7.36938"><ele></ele><time>2016-8-31T2:9:18Z</time></trkpt>
<trkpt lat="46.23319" lon="7.36927"><ele></ele><time>2016-8-31T2:9:21Z</time></trkpt>
<trkpt lat="46.23322" lon="7.36916"><ele></ele><time>2016-8-31T2:9:24Z</time></trkpt>
<trkpt lat="46.23324" lon="7.3691"><ele></ele><time>2016-8-31T2:9:27Z</time></trkpt>
<trkpt lat="46.23324" lon="7.36909"><ele></ele><time>2016-8-31T2:9:30Z</time></trkpt>
<trkpt lat="46.23325" lon="7.36907"><ele></ele><time>2016-8-31T2:9:33Z</time></trkpt>
<trkpt lat="46.23326" lon="7.36905"><ele></ele><time>2016-8-31T2:9:36Z</time></trkpt>
<trkpt lat="46.23327" lon="7.36903"><ele></ele><time>2016-8-31T2:9:39Z</time></trkpt>
<trkpt lat="46.2332" lon="7.36898"><ele></ele><time>2016-8-31T2:9:42Z</time></trkpt>
<trkpt lat="46.23313" lon="7.36893"><ele></ele><time>2016-8-31T2:9:45Z</time></trkpt>
<trkpt lat="46.23305" lon="7.36888"><ele></ele><time>2016-8-31T2:9:48Z</time></trkpt>
<trkpt lat="46.23298" lon="7.36884"><ele></ele><time>2016-8-31T2:9:51Z</time></trkpt>
<trkpt lat="46.2329" lon="7.36879"><ele></ele><time>2016-8-31T2:9:54Z</time></trkpt>
<trkpt lat="46.23283" lon="7.36874"><ele></ele><time>2016-8-31T2:9:57Z</time></trkpt>
<trkpt lat="46.23276" lon="7.36867"><ele></ele><time>2016-8-31T2:10:0Z</time></trkpt>
<trkpt lat="46.23269" lon="7.3686"><ele></ele><time>2016-8-31T2:10:3Z</time></trkpt>
<trkpt lat="46.23262" lon="7.36854"><ele></ele><time>2016-8-31T2:10:6Z</time></trkpt>
<trkpt lat="46.23255" lon="7.36847"><ele></ele><time>2016-8-31T2:10:9Z</time></trkpt>
<trkpt lat="46.23248" lon="7.3684"><ele></ele><time>2016-8-31T2:10:12Z</time></trkpt>
<trkpt lat="46.23241" lon="7.36833"><ele></ele><time>2016-8-31T2:10:15Z</time></trkpt>
<trkpt lat="46.23237" lon="7.36823"><ele></ele><time>2016-8-31T2:10:18Z</time></trkpt>
<trkpt lat="46.23234" lon="7.36813"><ele></ele><time>2016-8-31T2:10:21Z</time></trkpt>
<trkpt lat="46.23232" lon="7.36808"><ele></ele><time>2016-8-31T2:10:24Z</time></trkpt>
<trkpt lat="46.23254" lon="7.36745"><ele></ele><time>2016-8-31T2:10:27Z</time></trkpt>
<trkpt lat="46.23256" lon="7.36724"><ele></ele><time>2016-8-31T2:10:30Z</time></trkpt>
<trkpt lat="46.23255" lon="7.36713"><ele></ele><time>2016-8-31T2:10:33Z</time></trkpt>
<trkpt lat="46.23254" lon="7.36702"><ele></ele><time>2016-8-31T2:10:36Z</time></trkpt>
<trkpt lat="46.23252" lon="7.3669"><ele></ele><time>2016-8-31T2:10:39Z</time></trkpt>
<trkpt lat="46.23252" lon="7.36685"><ele></ele><time>2016-8-31T2:10:42Z</time></trkpt>
<trkpt lat="46.23251" lon="7.36679"><ele></ele><time>2016-8-31T2:10:45Z</time></trkpt>
<trkpt lat="46.2325" lon="7.36668"><ele></ele><time>2016-8-31T2:10:48Z</time></trkpt>
<trkpt lat="46.23249" lon="7.36659"><ele></ele><time>2016-8-31T2:10:51Z</time></trkpt>
<trkpt lat="46.23249" lon="7.3665"><ele></ele><time>2016-8-31T2:10:54Z</time></trkpt>
<trkpt lat="46.23249" lon="7.36642"><ele></ele><time>2016-8-31T2:10:57Z</time></trkpt>
<trkpt lat="46.23248" lon="7.36633"><ele></ele><time>2016-8-31T2:11:0Z</time></trkpt>
<trkpt lat="46.23248" lon="7.36624"><ele></ele><time>2016-8-31T2:11:3Z</time></trkpt>
<trkpt lat="46.23248" lon="7.36616"><ele></ele><time>2016-8-31T2:11:6Z</time></trkpt>
<trkpt lat="46.23247" lon="7.36607"><ele></ele><time>2016-8-31T2:11:9Z</time></trkpt>
<trkpt lat="46.23247" lon="7.36602"><ele></ele><time>2016-8-31T2:11:12Z</time></trkpt>
<trkpt lat="46.23247" lon="7.36598"><ele></ele><time>2016-8-31T2:11:15Z</time></trkpt>
<trkpt lat="46.23246" lon="7.36589"><ele></ele><time>2016-8-31T2:11:18Z</time></trkpt>
<trkpt lat="46.23246" lon="7.3658"><ele></ele><time>2016-8-31T2:11:21Z</time></trkpt>
<trkpt lat="46.23245" lon="7.36571"><ele></ele><time>2016-8-31T2:11:24Z</time></trkpt>
<trkpt lat="46.23245" lon="7.36562"><ele></ele><time>2016-8-31T2:11:27Z</time></trkpt>
<trkpt lat="46.23244" lon="7.36553"><ele></ele><time>2016-8-31T2:11:30Z</time></trkpt>
<trkpt lat="46.23244" lon="7.36548"><ele></ele><time>2016-8-31T2:11:33Z</time></trkpt>
<trkpt lat="46.23243" lon="7.36544"><ele></ele><time>2016-8-31T2:11:36Z</time></trkpt>
<trkpt lat="46.23242" lon="7.36536"><ele></ele><time>2016-8-31T2:11:39Z</time></trkpt>
<trkpt lat="46.23241" lon="7.36532"><ele></ele><time>2016-8-31T2:11:42Z</time></trkpt>
<trkpt lat="46.23241" lon="7.36528"><ele></ele><time>2016-8-31T2:11:45Z</time></trkpt>
<trkpt lat="46.23239" lon="7.3652"><ele></ele><time>2016-8-31T2:11:48Z</time></trkpt>
<trkpt lat="46.23238" lon="7.36512"><ele></ele><time>2016-8-31T2:11:51Z</time></trkpt>
<trkpt lat="46.23236" lon="7.36504"><ele></ele><time>2016-8-31T2:11:54Z</time></trkpt>
<trkpt lat="46.23235" lon="7.36496"><ele></ele><time>2016-8-31T2:11:57Z</time></trkpt>
<trkpt lat="46.23234" lon="7.36488"><ele></ele><time>2016-8-31T2:12:0Z</time></trkpt>
<trkpt lat="46.23233" lon="7.36484"><ele></ele><time>2016-8-31T2:12:3Z</time></trkpt>
<trkpt lat="46.23228" lon="7.36458"><ele></ele><time>2016-8-31T2:12:6Z</time></trkpt>
<trkpt lat="46.23216" lon="7.364"><ele></ele><time>2016-8-31T2:12:9Z</time></trkpt>
<trkpt lat="46.2321" lon="7.36398"><ele></ele><time>2016-8-31T2:12:12Z</time></trkpt>
<trkpt lat="46.2321" lon="7.36407"><ele></ele><time>2016-8-31T2:12:15Z</time></trkpt>
<trkpt lat="46.23239" lon="7.36462"><ele></ele><time>2016-8-31T2:12:18Z</time></trkpt>
<trkpt lat="46.23245" lon="7.3646"><ele></ele><time>2016-8-31T2:12:21Z</time></trkpt>
<trkpt lat="46.23249" lon="7.36454"><ele></ele><time>2016-8-31T2:12:24Z</time></trkpt>
<trkpt lat="46.23254" lon="7.36448"><ele></ele><time>2016-8-31T2:12:27Z</time></trkpt>
<trkpt lat="46.23258" lon="7.36442"><ele></ele><time>2016-8-31T2:12:30Z</time></trkpt>
<trkpt lat="46.23262" lon="7.36436"><ele></ele><time>2016-8-31T2:12:33Z</time></trkpt>
<trkpt lat="46.23266" lon="7.3643"><ele></ele><time>2016-8-31T2:12:36Z</time></trkpt>
<trkpt lat="46.23271" lon="7.36424"><ele></ele><time>2016-8-31T2:12:39Z</time></trkpt>
<trkpt lat="46.23273" lon="7.36421"><ele></ele><time>2016-8-31T2:12:42Z</time></trkpt>
<trkpt lat="46.23273" lon="7.36418"><ele></ele><time>2016-8-31T2:12:45Z</time></trkpt>
<trkpt lat="46.23273" lon="7.36411"><ele></ele><time>2016-8-31T2:12:48Z</time></trkpt>
<trkpt lat="46.23273" lon="7.36405"><ele></ele><time>2016-8-31T2:12:51Z</time></trkpt>
<trkpt lat="46.23273" lon="7.36398"><ele></ele><time>2016-8-31T2:12:54Z</time></trkpt>
<trkpt lat="46.23272" lon="7.36392"><ele></ele><time>2016-8-31T2:12:57Z</time></trkpt>
<trkpt lat="46.23272" lon="7.36385"><ele></ele><time>2016-8-31T2:13:0Z</time></trkpt>
<trkpt lat="46.23272" lon="7.36379"><ele></ele><time>2016-8-31T2:13:3Z</time></trkpt>
<trkpt lat="46.23272" lon="7.36372"><ele></ele><time>2016-8-31T2:13:6Z</time></trkpt>
<trkpt lat="46.23272" lon="7.36366"><ele></ele><time>2016-8-31T2:13:9Z</time></trkpt>
<trkpt lat="46.23272" lon="7.36359"><ele></ele><time>2016-8-31T2:13:12Z</time></trkpt>
<trkpt lat="46.23272" lon="7.36356"><ele></ele><time>2016-8-31T2:13:15Z</time></trkpt>
<trkpt lat="46.23271" lon="7.36353"><ele></ele><time>2016-8-31T2:13:18Z</time></trkpt>
<trkpt lat="46.23271" lon="7.36347"><ele></ele><time>2016-8-31T2:13:21Z</time></trkpt>
<trkpt lat="46.2327" lon="7.36342"><ele></ele><time>2016-8-31T2:13:24Z</time></trkpt>
<trkpt lat="46.2327" lon="7.36336"><ele></ele><time>2016-8-31T2:13:27Z</time></trkpt>
<trkpt lat="46.23268" lon="7.36332"><ele></ele><time>2016-8-31T2:13:30Z</time></trkpt>
<trkpt lat="46.23265" lon="7.36329"><ele></ele><time>2016-8-31T2:13:33Z</time></trkpt>
<trkpt lat="46.23263" lon="7.36325"><ele></ele><time>2016-8-31T2:13:36Z</time></trkpt>
<trkpt lat="46.23261" lon="7.36322"><ele></ele><time>2016-8-31T2:13:39Z</time></trkpt>
<trkpt lat="46.2326" lon="7.3632"><ele></ele><time>2016-8-31T2:13:42Z</time></trkpt>
<trkpt lat="46.2326" lon="7.36316"><ele></ele><time>2016-8-31T2:13:45Z</time></trkpt>
<trkpt lat="46.23261" lon="7.36306"><ele></ele><time>2016-8-31T2:13:48Z</time></trkpt>
<trkpt lat="46.23264" lon="7.36298"><ele></ele><time>2016-8-31T2:13:51Z</time></trkpt>
<trkpt lat="46.23265" lon="7.36294"><ele></ele><time>2016-8-31T2:13:54Z</time></trkpt>
<trkpt lat="46.23268" lon="7.36292"><ele></ele><time>2016-8-31T2:13:57Z</time></trkpt>
<trkpt lat="46.23267" lon="7.36286"><ele></ele><time>2016-8-31T2:14:0Z</time></trkpt>
<trkpt lat="46.23265" lon="7.36281"><ele></ele><time>2016-8-31T2:14:3Z</time></trkpt>
<trkpt lat="46.23263" lon="7.36275"><ele></ele><time>2016-8-31T2:14:6Z</time></trkpt>
<trkpt lat="46.23261" lon="7.3627"><ele></ele><time>2016-8-31T2:14:9Z</time></trkpt>
<trkpt lat="46.23259" lon="7.36264"><ele></ele><time>2016-8-31T2:14:12Z</time></trkpt>
<trkpt lat="46.23257" lon="7.36259"><ele></ele><time>2016-8-31T2:14:15Z</time></trkpt>
<trkpt lat="46.23255" lon="7.36253"><ele></ele><time>2016-8-31T2:14:18Z</time></trkpt>
<trkpt lat="46.23253" lon="7.36248"><ele></ele><time>2016-8-31T2:14:21Z</time></trkpt>
<trkpt lat="46.23251" lon="7.36242"><ele></ele><time>2016-8-31T2:14:24Z</time></trkpt>
<trkpt lat="46.23249" lon="7.36237"><ele></ele><time>2016-8-31T2:14:27Z</time></trkpt>
<trkpt lat="46.23247" lon="7.36231"><ele></ele><time>2016-8-31T2:14:30Z</time></trkpt>
<trkpt lat="46.23248" lon="7.36222"><ele></ele><time>2016-8-31T2:14:33Z</time></trkpt>
<trkpt lat="46.23249" lon="7.36218"><ele></ele><time>2016-8-31T2:14:36Z</time></trkpt>
<trkpt lat="46.2325" lon="7.36214"><ele></ele><time>2016-8-31T2:14:39Z</time></trkpt>
<trkpt lat="46.23252" lon="7.36205"><ele></ele><time>2016-8-31T2:14:42Z</time></trkpt>
<trkpt lat="46.23254" lon="7.36196"><ele></ele><time>2016-8-31T2:14:45Z</time></trkpt>
<trkpt lat="46.23256" lon="7.36187"><ele></ele><time>2016-8-31T2:14:48Z</time></trkpt>
<trkpt lat="46.23257" lon="7.36178"><ele></ele><time>2016-8-31T2:14:51Z</time></trkpt>
<trkpt lat="46.23259" lon="7.3617"><ele></ele><time>2016-8-31T2:14:54Z</time></trkpt>
<trkpt lat="46.2326" lon="7.36165"><ele></ele><time>2016-8-31T2:14:57Z</time></trkpt>
<trkpt lat="46.23261" lon="7.36162"><ele></ele><time>2016-8-31T2:15:0Z</time></trkpt>
<trkpt lat="46.23264" lon="7.36157"><ele></ele><time>2016-8-31T2:15:3Z</time></trkpt>
<trkpt lat="46.23266" lon="7.36151"><ele></ele><time>2016-8-31T2:15:6Z</time></trkpt>
<trkpt lat="46.23268" lon="7.36145"><ele></ele><time>2016-8-31T2:15:9Z</time></trkpt>
<trkpt lat="46.23271" lon="7.36139"><ele></ele><time>2016-8-31T2:15:12Z</time></trkpt>
<trkpt lat="46.23273" lon="7.36134"><ele></ele><time>2016-8-31T2:15:15Z</time></trkpt>
<trkpt lat="46.23275" lon="7.36128"><ele></ele><time>2016-8-31T2:15:18Z</time></trkpt>
<trkpt lat="46.23276" lon="7.36125"><ele></ele><time>2016-8-31T2:15:21Z</time></trkpt>
<trkpt lat="46.23275" lon="7.36122"><ele></ele><time>2016-8-31T2:15:24Z</time></trkpt>
<trkpt lat="46.23273" lon="7.36117"><ele></ele><time>2016-8-31T2:15:27Z</time></trkpt>
<trkpt lat="46.23271" lon="7.36114"><ele></ele><time>2016-8-31T2:15:30Z</time></trkpt>
<trkpt lat="46.23273" lon="7.3611"><ele></ele><time>2016-8-31T2:15:33Z</time></trkpt>
<trkpt lat="46.23277" lon="7.36102"><ele></ele><time>2016-8-31T2:15:36Z</time></trkpt>
<trkpt lat="46.2328" lon="7.36098"><ele></ele><time>2016-8-31T2:15:39Z</time></trkpt>
<trkpt lat="46.23282" lon="7.36094"><ele></ele><time>2016-8-31T2:15:42Z</time></trkpt>
<trkpt lat="46.23286" lon="7.3609"><ele></ele><time>2016-8-31T2:15:45Z</time></trkpt>
<trkpt lat="46.23291" lon="7.36086"><ele></ele><time>2016-8-31T2:15:48Z</time></trkpt>
<trkpt lat="46.23296" lon="7.36082"><ele></ele><time>2016-8-31T2:15:51Z</time></trkpt>
<trkpt lat="46.233" lon="7.36078"><ele></ele><time>2016-8-31T2:15:54Z</time></trkpt>
<trkpt lat="46.23305" lon="7.36075"><ele></ele><time>2016-8-31T2:15:57Z</time></trkpt>
<trkpt lat="46.23309" lon="7.36071"><ele></ele><time>2016-8-31T2:16:0Z</time></trkpt>
<trkpt lat="46.23314" lon="7.36067"><ele></ele><time>2016-8-31T2:16:3Z</time></trkpt>
<trkpt lat="46.23316" lon="7.36065"><ele></ele><time>2016-8-31T2:16:6Z</time></trkpt>
<trkpt lat="46.23319" lon="7.36064"><ele></ele><time>2016-8-31T2:16:9Z</time></trkpt>
<trkpt lat="46.23323" lon="7.36062"><ele></ele><time>2016-8-31T2:16:12Z</time></trkpt>
<trkpt lat="46.23328" lon="7.3606"><ele></ele><time>2016-8-31T2:16:15Z</time></trkpt>
<trkpt lat="46.23333" lon="7.36058"><ele></ele><time>2016-8-31T2:16:18Z</time></trkpt>
<trkpt lat="46.23337" lon="7.36056"><ele></ele><time>2016-8-31T2:16:21Z</time></trkpt>
<trkpt lat="46.2334" lon="7.36055"><ele></ele><time>2016-8-31T2:16:24Z</time></trkpt>
<trkpt lat="46.23343" lon="7.36055"><ele></ele><time>2016-8-31T2:16:27Z</time></trkpt>
<trkpt lat="46.23349" lon="7.36054"><ele></ele><time>2016-8-31T2:16:30Z</time></trkpt>
<trkpt lat="46.23355" lon="7.36054"><ele></ele><time>2016-8-31T2:16:33Z</time></trkpt>
<trkpt lat="46.23361" lon="7.36053"><ele></ele><time>2016-8-31T2:16:36Z</time></trkpt>
<trkpt lat="46.23367" lon="7.36052"><ele></ele><time>2016-8-31T2:16:39Z</time></trkpt>
<trkpt lat="46.2337" lon="7.36052"><ele></ele><time>2016-8-31T2:16:42Z</time></trkpt>
<trkpt lat="46.23384" lon="7.36048"><ele></ele><time>2016-8-31T2:16:45Z</time></trkpt>
<trkpt lat="46.23386" lon="7.36045"><ele></ele><time>2016-8-31T2:16:48Z</time></trkpt>
<trkpt lat="46.23386" lon="7.36042"><ele></ele><time>2016-8-31T2:16:51Z</time></trkpt>
<trkpt lat="46.23396" lon="7.3604"><ele></ele><time>2016-8-31T2:16:54Z</time></trkpt>
<trkpt lat="46.23406" lon="7.36037"><ele></ele><time>2016-8-31T2:16:57Z</time></trkpt>
<trkpt lat="46.23416" lon="7.36034"><ele></ele><time>2016-8-31T2:17:0Z</time></trkpt>
<trkpt lat="46.23426" lon="7.36032"><ele></ele><time>2016-8-31T2:17:3Z</time></trkpt>
<trkpt lat="46.23431" lon="7.3603"><ele></ele><time>2016-8-31T2:17:6Z</time></trkpt>
<trkpt lat="46.23435" lon="7.36031"><ele></ele><time>2016-8-31T2:17:9Z</time></trkpt>
<trkpt lat="46.23442" lon="7.36033"><ele></ele><time>2016-8-31T2:17:12Z</time></trkpt>
<trkpt lat="46.2345" lon="7.36036"><ele></ele><time>2016-8-31T2:17:15Z</time></trkpt>
<trkpt lat="46.23457" lon="7.36038"><ele></ele><time>2016-8-31T2:17:18Z</time></trkpt>
<trkpt lat="46.23465" lon="7.3604"><ele></ele><time>2016-8-31T2:17:21Z</time></trkpt>
<trkpt lat="46.23472" lon="7.36042"><ele></ele><time>2016-8-31T2:17:24Z</time></trkpt>
<trkpt lat="46.23476" lon="7.36043"><ele></ele><time>2016-8-31T2:17:27Z</time></trkpt>
<trkpt lat="46.2348" lon="7.36045"><ele></ele><time>2016-8-31T2:17:30Z</time></trkpt>
<trkpt lat="46.23488" lon="7.36049"><ele></ele><time>2016-8-31T2:17:33Z</time></trkpt>
<trkpt lat="46.23493" lon="7.3605"><ele></ele><time>2016-8-31T2:17:36Z</time></trkpt>
<trkpt lat="46.23497" lon="7.36051"><ele></ele><time>2016-8-31T2:17:39Z</time></trkpt>
<trkpt lat="46.23506" lon="7.36052"><ele></ele><time>2016-8-31T2:17:42Z</time></trkpt>
<trkpt lat="46.23516" lon="7.36053"><ele></ele><time>2016-8-31T2:17:45Z</time></trkpt>
<trkpt lat="46.23525" lon="7.36054"><ele></ele><time>2016-8-31T2:17:48Z</time></trkpt>
<trkpt lat="46.23534" lon="7.36055"><ele></ele><time>2016-8-31T2:17:51Z</time></trkpt>
<trkpt lat="46.23539" lon="7.36055"><ele></ele><time>2016-8-31T2:17:54Z</time></trkpt>
<trkpt lat="46.23543" lon="7.36056"><ele></ele><time>2016-8-31T2:17:57Z</time></trkpt>
<trkpt lat="46.2355" lon="7.36057"><ele></ele><time>2016-8-31T2:18:0Z</time></trkpt>
<trkpt lat="46.23554" lon="7.36058"><ele></ele><time>2016-8-31T2:18:3Z</time></trkpt>
<trkpt lat="46.23558" lon="7.36058"><ele></ele><time>2016-8-31T2:18:6Z</time></trkpt>
<trkpt lat="46.23566" lon="7.36059"><ele></ele><time>2016-8-31T2:18:9Z</time></trkpt>
<trkpt lat="46.23574" lon="7.36064"><ele></ele><time>2016-8-31T2:18:12Z</time></trkpt>
<trkpt lat="46.23575" lon="7.36064"><ele></ele><time>2016-8-31T2:18:15Z</time></trkpt>
<trkpt lat="46.23576" lon="7.36064"><ele></ele><time>2016-8-31T2:18:18Z</time></trkpt>
<trkpt lat="46.23572" lon="7.36062"><ele></ele><time>2016-8-31T2:18:21Z</time></trkpt>
<trkpt lat="46.23581" lon="7.3606"><ele></ele><time>2016-8-31T2:18:24Z</time></trkpt>
<trkpt lat="46.23583" lon="7.36066"><ele></ele><time>2016-8-31T2:18:27Z</time></trkpt>
<trkpt lat="46.23586" lon="7.36053"><ele></ele><time>2016-8-31T2:18:30Z</time></trkpt>
<trkpt lat="46.23584" lon="7.36046"><ele></ele><time>2016-8-31T2:18:33Z</time></trkpt>
<trkpt lat="46.23582" lon="7.3604"><ele></ele><time>2016-8-31T2:18:36Z</time></trkpt>
<trkpt lat="46.23579" lon="7.36038"><ele></ele><time>2016-8-31T2:18:39Z</time></trkpt>
<trkpt lat="46.23574" lon="7.36033"><ele></ele><time>2016-8-31T2:18:42Z</time></trkpt>
<trkpt lat="46.23572" lon="7.36022"><ele></ele><time>2016-8-31T2:18:45Z</time></trkpt>
<trkpt lat="46.2357" lon="7.3601"><ele></ele><time>2016-8-31T2:18:48Z</time></trkpt>
<trkpt lat="46.23567" lon="7.35998"><ele></ele><time>2016-8-31T2:18:51Z</time></trkpt>
<trkpt lat="46.23565" lon="7.35987"><ele></ele><time>2016-8-31T2:18:54Z</time></trkpt>
<trkpt lat="46.23563" lon="7.35975"><ele></ele><time>2016-8-31T2:18:57Z</time></trkpt>
<trkpt lat="46.23562" lon="7.35969"><ele></ele><time>2016-8-31T2:19:0Z</time></trkpt>
<trkpt lat="46.2356" lon="7.35964"><ele></ele><time>2016-8-31T2:19:3Z</time></trkpt>
<trkpt lat="46.23558" lon="7.35953"><ele></ele><time>2016-8-31T2:19:6Z</time></trkpt>
<trkpt lat="46.23555" lon="7.35942"><ele></ele><time>2016-8-31T2:19:9Z</time></trkpt>
<trkpt lat="46.23553" lon="7.35932"><ele></ele><time>2016-8-31T2:19:12Z</time></trkpt>
<trkpt lat="46.2355" lon="7.35921"><ele></ele><time>2016-8-31T2:19:15Z</time></trkpt>
<trkpt lat="46.23547" lon="7.35911"><ele></ele><time>2016-8-31T2:19:18Z</time></trkpt>
<trkpt lat="46.23546" lon="7.35905"><ele></ele><time>2016-8-31T2:19:21Z</time></trkpt>
<trkpt lat="46.23545" lon="7.359"><ele></ele><time>2016-8-31T2:19:24Z</time></trkpt>
<trkpt lat="46.23542" lon="7.35889"><ele></ele><time>2016-8-31T2:19:27Z</time></trkpt>
<trkpt lat="46.23539" lon="7.35878"><ele></ele><time>2016-8-31T2:19:30Z</time></trkpt>
<trkpt lat="46.23537" lon="7.35867"><ele></ele><time>2016-8-31T2:19:33Z</time></trkpt>
<trkpt lat="46.23538" lon="7.3585"><ele></ele><time>2016-8-31T2:19:36Z</time></trkpt>
<trkpt lat="46.23543" lon="7.35845"><ele></ele><time>2016-8-31T2:19:39Z</time></trkpt>
<trkpt lat="46.23543" lon="7.35843"><ele></ele><time>2016-8-31T2:19:42Z</time></trkpt>
<trkpt lat="46.23543" lon="7.35842"><ele></ele><time>2016-8-31T2:19:45Z</time></trkpt>
<trkpt lat="46.23549" lon="7.35836"><ele></ele><time>2016-8-31T2:19:48Z</time></trkpt>
<trkpt lat="46.23563" lon="7.35823"><ele></ele><time>2016-8-31T2:19:51Z</time></trkpt>
<trkpt lat="46.23569" lon="7.35817"><ele></ele><time>2016-8-31T2:19:54Z</time></trkpt>
<trkpt lat="46.23573" lon="7.35812"><ele></ele><time>2016-8-31T2:19:57Z</time></trkpt>
<trkpt lat="46.23575" lon="7.35808"><ele></ele><time>2016-8-31T2:20:0Z</time></trkpt>
<trkpt lat="46.23576" lon="7.35798"><ele></ele><time>2016-8-31T2:20:3Z</time></trkpt>
<trkpt lat="46.23581" lon="7.35791"><ele></ele><time>2016-8-31T2:20:6Z</time></trkpt>
<trkpt lat="46.23587" lon="7.35785"><ele></ele><time>2016-8-31T2:20:9Z</time></trkpt>
<trkpt lat="46.23592" lon="7.35778"><ele></ele><time>2016-8-31T2:20:12Z</time></trkpt>
<trkpt lat="46.23598" lon="7.35772"><ele></ele><time>2016-8-31T2:20:15Z</time></trkpt>
<trkpt lat="46.23603" lon="7.35766"><ele></ele><time>2016-8-31T2:20:18Z</time></trkpt>
<trkpt lat="46.23609" lon="7.3576"><ele></ele><time>2016-8-31T2:20:21Z</time></trkpt>
<trkpt lat="46.23612" lon="7.35757"><ele></ele><time>2016-8-31T2:20:24Z</time></trkpt>
<trkpt lat="46.23614" lon="7.35753"><ele></ele><time>2016-8-31T2:20:27Z</time></trkpt>
<trkpt lat="46.2362" lon="7.35747"><ele></ele><time>2016-8-31T2:20:30Z</time></trkpt>
<trkpt lat="46.23625" lon="7.3574"><ele></ele><time>2016-8-31T2:20:33Z</time></trkpt>
<trkpt lat="46.2363" lon="7.35733"><ele></ele><time>2016-8-31T2:20:36Z</time></trkpt>
<trkpt lat="46.23635" lon="7.35726"><ele></ele><time>2016-8-31T2:20:39Z</time></trkpt>
<trkpt lat="46.23641" lon="7.35719"><ele></ele><time>2016-8-31T2:20:42Z</time></trkpt>
<trkpt lat="46.23646" lon="7.35713"><ele></ele><time>2016-8-31T2:20:45Z</time></trkpt>
<trkpt lat="46.23651" lon="7.35705"><ele></ele><time>2016-8-31T2:20:48Z</time></trkpt>
<trkpt lat="46.23655" lon="7.35697"><ele></ele><time>2016-8-31T2:20:51Z</time></trkpt>
<trkpt lat="46.2366" lon="7.35689"><ele></ele><time>2016-8-31T2:20:54Z</time></trkpt>
<trkpt lat="46.23664" lon="7.35681"><ele></ele><time>2016-8-31T2:20:57Z</time></trkpt>
<trkpt lat="46.23669" lon="7.35673"><ele></ele><time>2016-8-31T2:21:0Z</time></trkpt>
<trkpt lat="46.23674" lon="7.35665"><ele></ele><time>2016-8-31T2:21:3Z</time></trkpt>
<trkpt lat="46.23676" lon="7.35661"><ele></ele><time>2016-8-31T2:21:6Z</time></trkpt>
<trkpt lat="46.23678" lon="7.35657"><ele></ele><time>2016-8-31T2:21:9Z</time></trkpt>
<trkpt lat="46.23681" lon="7.35649"><ele></ele><time>2016-8-31T2:21:12Z</time></trkpt>
<trkpt lat="46.23684" lon="7.35642"><ele></ele><time>2016-8-31T2:21:15Z</time></trkpt>
<trkpt lat="46.23679" lon="7.35636"><ele></ele><time>2016-8-31T2:21:18Z</time></trkpt>
<trkpt lat="46.23676" lon="7.35632"><ele></ele><time>2016-8-31T2:21:21Z</time></trkpt>
<trkpt lat="46.23672" lon="7.35623"><ele></ele><time>2016-8-31T2:21:24Z</time></trkpt>
<trkpt lat="46.23668" lon="7.35615"><ele></ele><time>2016-8-31T2:21:27Z</time></trkpt>
<trkpt lat="46.23665" lon="7.35607"><ele></ele><time>2016-8-31T2:21:30Z</time></trkpt>
<trkpt lat="46.23661" lon="7.35598"><ele></ele><time>2016-8-31T2:21:33Z</time></trkpt>
<trkpt lat="46.23657" lon="7.3559"><ele></ele><time>2016-8-31T2:21:36Z</time></trkpt>
<trkpt lat="46.23653" lon="7.35582"><ele></ele><time>2016-8-31T2:21:39Z</time></trkpt>
<trkpt lat="46.23651" lon="7.35578"><ele></ele><time>2016-8-31T2:21:42Z</time></trkpt>
<trkpt lat="46.23649" lon="7.35573"><ele></ele><time>2016-8-31T2:21:45Z</time></trkpt>
<trkpt lat="46.23645" lon="7.35564"><ele></ele><time>2016-8-31T2:21:48Z</time></trkpt>
<trkpt lat="46.23641" lon="7.35555"><ele></ele><time>2016-8-31T2:21:51Z</time></trkpt>
<trkpt lat="46.23637" lon="7.35546"><ele></ele><time>2016-8-31T2:21:54Z</time></trkpt>
<trkpt lat="46.23633" lon="7.35537"><ele></ele><time>2016-8-31T2:21:57Z</time></trkpt>
<trkpt lat="46.23631" lon="7.35533"><ele></ele><time>2016-8-31T2:22:0Z</time></trkpt>
<trkpt lat="46.23629" lon="7.35528"><ele></ele><time>2016-8-31T2:22:3Z</time></trkpt>
<trkpt lat="46.23625" lon="7.35519"><ele></ele><time>2016-8-31T2:22:6Z</time></trkpt>
<trkpt lat="46.23621" lon="7.35511"><ele></ele><time>2016-8-31T2:22:9Z</time></trkpt>
<trkpt lat="46.23617" lon="7.35503"><ele></ele><time>2016-8-31T2:22:12Z</time></trkpt>
<trkpt lat="46.23612" lon="7.35495"><ele></ele><time>2016-8-31T2:22:15Z</time></trkpt>
<trkpt lat="46.23608" lon="7.35487"><ele></ele><time>2016-8-31T2:22:18Z</time></trkpt>
<trkpt lat="46.23604" lon="7.35479"><ele></ele><time>2016-8-31T2:22:21Z</time></trkpt>
<trkpt lat="46.236" lon="7.35471"><ele></ele><time>2016-8-31T2:22:24Z</time></trkpt>
<trkpt lat="46.23597" lon="7.35467"><ele></ele><time>2016-8-31T2:22:27Z</time></trkpt>
<trkpt lat="46.23595" lon="7.35464"><ele></ele><time>2016-8-31T2:22:30Z</time></trkpt>
<trkpt lat="46.23591" lon="7.35458"><ele></ele><time>2016-8-31T2:22:33Z</time></trkpt>
<trkpt lat="46.23587" lon="7.35452"><ele></ele><time>2016-8-31T2:22:36Z</time></trkpt>
<trkpt lat="46.23583" lon="7.35446"><ele></ele><time>2016-8-31T2:22:39Z</time></trkpt>
<trkpt lat="46.23578" lon="7.35439"><ele></ele><time>2016-8-31T2:22:42Z</time></trkpt>
<trkpt lat="46.23574" lon="7.35433"><ele></ele><time>2016-8-31T2:22:45Z</time></trkpt>
<trkpt lat="46.23572" lon="7.3543"><ele></ele><time>2016-8-31T2:22:48Z</time></trkpt>
<trkpt lat="46.2357" lon="7.35427"><ele></ele><time>2016-8-31T2:22:51Z</time></trkpt>
<trkpt lat="46.23565" lon="7.35421"><ele></ele><time>2016-8-31T2:22:54Z</time></trkpt>
<trkpt lat="46.23563" lon="7.35417"><ele></ele><time>2016-8-31T2:22:57Z</time></trkpt>
<trkpt lat="46.2356" lon="7.35413"><ele></ele><time>2016-8-31T2:23:0Z</time></trkpt>
<trkpt lat="46.23557" lon="7.35408"><ele></ele><time>2016-8-31T2:23:3Z</time></trkpt>
<trkpt lat="46.23554" lon="7.35404"><ele></ele><time>2016-8-31T2:23:6Z</time></trkpt>
<trkpt lat="46.23551" lon="7.354"><ele></ele><time>2016-8-31T2:23:9Z</time></trkpt>
<trkpt lat="46.23549" lon="7.35396"><ele></ele><time>2016-8-31T2:23:12Z</time></trkpt>
<trkpt lat="46.23546" lon="7.35391"><ele></ele><time>2016-8-31T2:23:15Z</time></trkpt>
<trkpt lat="46.23543" lon="7.35387"><ele></ele><time>2016-8-31T2:23:18Z</time></trkpt>
<trkpt lat="46.2354" lon="7.35383"><ele></ele><time>2016-8-31T2:23:21Z</time></trkpt>
<trkpt lat="46.23537" lon="7.35379"><ele></ele><time>2016-8-31T2:23:24Z</time></trkpt>
<trkpt lat="46.23536" lon="7.35374"><ele></ele><time>2016-8-31T2:23:27Z</time></trkpt>
<trkpt lat="46.23534" lon="7.35369"><ele></ele><time>2016-8-31T2:23:30Z</time></trkpt>
<trkpt lat="46.23532" lon="7.35365"><ele></ele><time>2016-8-31T2:23:33Z</time></trkpt>
<trkpt lat="46.23531" lon="7.3536"><ele></ele><time>2016-8-31T2:23:36Z</time></trkpt>
<trkpt lat="46.23529" lon="7.35356"><ele></ele><time>2016-8-31T2:23:39Z</time></trkpt>
<trkpt lat="46.23527" lon="7.35351"><ele></ele><time>2016-8-31T2:23:42Z</time></trkpt>
<trkpt lat="46.23525" lon="7.35346"><ele></ele><time>2016-8-31T2:23:45Z</time></trkpt>
<trkpt lat="46.23524" lon="7.35344"><ele></ele><time>2016-8-31T2:23:48Z</time></trkpt>
<trkpt lat="46.23524" lon="7.35342"><ele></ele><time>2016-8-31T2:23:51Z</time></trkpt>
<trkpt lat="46.23522" lon="7.35337"><ele></ele><time>2016-8-31T2:23:54Z</time></trkpt>
<trkpt lat="46.2352" lon="7.35333"><ele></ele><time>2016-8-31T2:23:57Z</time></trkpt>
<trkpt lat="46.23518" lon="7.35328"><ele></ele><time>2016-8-31T2:24:0Z</time></trkpt>
<trkpt lat="46.23517" lon="7.35323"><ele></ele><time>2016-8-31T2:24:3Z</time></trkpt>
<trkpt lat="46.23516" lon="7.35321"><ele></ele><time>2016-8-31T2:24:6Z</time></trkpt>
<trkpt lat="46.23515" lon="7.35319"><ele></ele><time>2016-8-31T2:24:9Z</time></trkpt>
<trkpt lat="46.23513" lon="7.35316"><ele></ele><time>2016-8-31T2:24:12Z</time></trkpt>
<trkpt lat="46.23511" lon="7.35312"><ele></ele><time>2016-8-31T2:24:15Z</time></trkpt>
<trkpt lat="46.23509" lon="7.35309"><ele></ele><time>2016-8-31T2:24:18Z</time></trkpt>
<trkpt lat="46.23507" lon="7.35305"><ele></ele><time>2016-8-31T2:24:21Z</time></trkpt>
<trkpt lat="46.23505" lon="7.35302"><ele></ele><time>2016-8-31T2:24:24Z</time></trkpt>
<trkpt lat="46.23504" lon="7.353"><ele></ele><time>2016-8-31T2:24:27Z</time></trkpt>
<trkpt lat="46.23503" lon="7.35298"><ele></ele><time>2016-8-31T2:24:30Z</time></trkpt>
<trkpt lat="46.23501" lon="7.35295"><ele></ele><time>2016-8-31T2:24:33Z</time></trkpt>
<trkpt lat="46.23499" lon="7.35291"><ele></ele><time>2016-8-31T2:24:36Z</time></trkpt>
<trkpt lat="46.23496" lon="7.35288"><ele></ele><time>2016-8-31T2:24:39Z</time></trkpt>
<trkpt lat="46.23494" lon="7.35284"><ele></ele><time>2016-8-31T2:24:42Z</time></trkpt>
<trkpt lat="46.23492" lon="7.35281"><ele></ele><time>2016-8-31T2:24:45Z</time></trkpt>
<trkpt lat="46.2349" lon="7.35277"><ele></ele><time>2016-8-31T2:24:48Z</time></trkpt>
<trkpt lat="46.23488" lon="7.35274"><ele></ele><time>2016-8-31T2:24:51Z</time></trkpt>
<trkpt lat="46.23486" lon="7.3527"><ele></ele><time>2016-8-31T2:24:54Z</time></trkpt>
<trkpt lat="46.23484" lon="7.35267"><ele></ele><time>2016-8-31T2:24:57Z</time></trkpt>
<trkpt lat="46.23482" lon="7.35263"><ele></ele><time>2016-8-31T2:25:0Z</time></trkpt>
<trkpt lat="46.23479" lon="7.35259"><ele></ele><time>2016-8-31T2:25:3Z</time></trkpt>
<trkpt lat="46.23477" lon="7.35256"><ele></ele><time>2016-8-31T2:25:6Z</time></trkpt>
<trkpt lat="46.23474" lon="7.35252"><ele></ele><time>2016-8-31T2:25:9Z</time></trkpt>
<trkpt lat="46.23472" lon="7.35248"><ele></ele><time>2016-8-31T2:25:12Z</time></trkpt>
<trkpt lat="46.23469" lon="7.35244"><ele></ele><time>2016-8-31T2:25:15Z</time></trkpt>
<trkpt lat="46.23467" lon="7.35241"><ele></ele><time>2016-8-31T2:25:18Z</time></trkpt>
<trkpt lat="46.23465" lon="7.35237"><ele></ele><time>2016-8-31T2:25:21Z</time></trkpt>
<trkpt lat="46.23462" lon="7.35233"><ele></ele><time>2016-8-31T2:25:24Z</time></trkpt>
<trkpt lat="46.2346" lon="7.3523"><ele></ele><time>2016-8-31T2:25:27Z</time></trkpt>
<trkpt lat="46.23457" lon="7.35226"><ele></ele><time>2016-8-31T2:25:30Z</time></trkpt>
<trkpt lat="46.23455" lon="7.35222"><ele></ele><time>2016-8-31T2:25:33Z</time></trkpt>
<trkpt lat="46.23453" lon="7.35218"><ele></ele><time>2016-8-31T2:25:36Z</time></trkpt>
<trkpt lat="46.23451" lon="7.35214"><ele></ele><time>2016-8-31T2:25:39Z</time></trkpt>
<trkpt lat="46.2345" lon="7.35209"><ele></ele><time>2016-8-31T2:25:42Z</time></trkpt>
<trkpt lat="46.23448" lon="7.35205"><ele></ele><time>2016-8-31T2:25:45Z</time></trkpt>
<trkpt lat="46.23446" lon="7.352"><ele></ele><time>2016-8-31T2:25:48Z</time></trkpt>
<trkpt lat="46.23445" lon="7.35198"><ele></ele><time>2016-8-31T2:25:51Z</time></trkpt>
<trkpt lat="46.23445" lon="7.35195"><ele></ele><time>2016-8-31T2:25:54Z</time></trkpt>
<trkpt lat="46.23445" lon="7.35189"><ele></ele><time>2016-8-31T2:25:57Z</time></trkpt>
<trkpt lat="46.23445" lon="7.35183"><ele></ele><time>2016-8-31T2:26:0Z</time></trkpt>
<trkpt lat="46.23444" lon="7.35176"><ele></ele><time>2016-8-31T2:26:3Z</time></trkpt>
<trkpt lat="46.23444" lon="7.3517"><ele></ele><time>2016-8-31T2:26:6Z</time></trkpt>
<trkpt lat="46.23444" lon="7.35164"><ele></ele><time>2016-8-31T2:26:9Z</time></trkpt>
<trkpt lat="46.23444" lon="7.35157"><ele></ele><time>2016-8-31T2:26:12Z</time></trkpt>
<trkpt lat="46.23443" lon="7.35151"><ele></ele><time>2016-8-31T2:26:15Z</time></trkpt>
<trkpt lat="46.23448" lon="7.35149"><ele></ele><time>2016-8-31T2:26:18Z</time></trkpt>
<trkpt lat="46.23449" lon="7.35146"><ele></ele><time>2016-8-31T2:26:21Z</time></trkpt>
<trkpt lat="46.23448" lon="7.35141"><ele></ele><time>2016-8-31T2:26:24Z</time></trkpt>
<trkpt lat="46.23444" lon="7.35138"><ele></ele><time>2016-8-31T2:26:27Z</time></trkpt>
<trkpt lat="46.23443" lon="7.35135"><ele></ele><time>2016-8-31T2:26:30Z</time></trkpt>
<trkpt lat="46.23443" lon="7.35129"><ele></ele><time>2016-8-31T2:26:33Z</time></trkpt>
<trkpt lat="46.23443" lon="7.35123"><ele></ele><time>2016-8-31T2:26:36Z</time></trkpt>
<trkpt lat="46.23443" lon="7.35117"><ele></ele><time>2016-8-31T2:26:39Z</time></trkpt>
<trkpt lat="46.23443" lon="7.35111"><ele></ele><time>2016-8-31T2:26:42Z</time></trkpt>
<trkpt lat="46.23443" lon="7.35105"><ele></ele><time>2016-8-31T2:26:45Z</time></trkpt>
<trkpt lat="46.23443" lon="7.35099"><ele></ele><time>2016-8-31T2:26:48Z</time></trkpt>
<trkpt lat="46.23443" lon="7.35093"><ele></ele><time>2016-8-31T2:26:51Z</time></trkpt>
<trkpt lat="46.23443" lon="7.35087"><ele></ele><time>2016-8-31T2:26:54Z</time></trkpt>
<trkpt lat="46.23448" lon="7.35084"><ele></ele><time>2016-8-31T2:26:57Z</time></trkpt>
<trkpt lat="46.23449" lon="7.35081"><ele></ele><time>2016-8-31T2:27:0Z</time></trkpt>
<trkpt lat="46.23449" lon="7.35075"><ele></ele><time>2016-8-31T2:27:3Z</time></trkpt>
<trkpt lat="46.23449" lon="7.3507"><ele></ele><time>2016-8-31T2:27:6Z</time></trkpt>
<trkpt lat="46.2345" lon="7.35064"><ele></ele><time>2016-8-31T2:27:9Z</time></trkpt>
<trkpt lat="46.2345" lon="7.35059"><ele></ele><time>2016-8-31T2:27:12Z</time></trkpt>
<trkpt lat="46.2345" lon="7.35053"><ele></ele><time>2016-8-31T2:27:15Z</time></trkpt>
<trkpt lat="46.23451" lon="7.35048"><ele></ele><time>2016-8-31T2:27:18Z</time></trkpt>
<trkpt lat="46.23451" lon="7.35042"><ele></ele><time>2016-8-31T2:27:21Z</time></trkpt>
<trkpt lat="46.23451" lon="7.35037"><ele></ele><time>2016-8-31T2:27:24Z</time></trkpt>
<trkpt lat="46.23452" lon="7.35031"><ele></ele><time>2016-8-31T2:27:27Z</time></trkpt>
<trkpt lat="46.23452" lon="7.35025"><ele></ele><time>2016-8-31T2:27:30Z</time></trkpt>
<trkpt lat="46.23452" lon="7.35023"><ele></ele><time>2016-8-31T2:27:33Z</time></trkpt>
<trkpt lat="46.23454" lon="7.35022"><ele></ele><time>2016-8-31T2:27:36Z</time></trkpt>
<trkpt lat="46.23457" lon="7.3502"><ele></ele><time>2016-8-31T2:27:39Z</time></trkpt>
<trkpt lat="46.2346" lon="7.35018"><ele></ele><time>2016-8-31T2:27:42Z</time></trkpt>
<trkpt lat="46.23463" lon="7.35017"><ele></ele><time>2016-8-31T2:27:45Z</time></trkpt>
<trkpt lat="46.23467" lon="7.35015"><ele></ele><time>2016-8-31T2:27:48Z</time></trkpt>
<trkpt lat="46.2347" lon="7.35014"><ele></ele><time>2016-8-31T2:27:51Z</time></trkpt>
<trkpt lat="46.23473" lon="7.35012"><ele></ele><time>2016-8-31T2:27:54Z</time></trkpt>
<trkpt lat="46.23475" lon="7.35012"><ele></ele><time>2016-8-31T2:27:57Z</time></trkpt>
<trkpt lat="46.23477" lon="7.35011"><ele></ele><time>2016-8-31T2:28:0Z</time></trkpt>
<trkpt lat="46.2348" lon="7.35009"><ele></ele><time>2016-8-31T2:28:3Z</time></trkpt>
<trkpt lat="46.23482" lon="7.35006"><ele></ele><time>2016-8-31T2:28:6Z</time></trkpt>
<trkpt lat="46.23484" lon="7.35002"><ele></ele><time>2016-8-31T2:28:9Z</time></trkpt>
<trkpt lat="46.23486" lon="7.34998"><ele></ele><time>2016-8-31T2:28:12Z</time></trkpt>
<trkpt lat="46.23488" lon="7.34994"><ele></ele><time>2016-8-31T2:28:15Z</time></trkpt>
<trkpt lat="46.2349" lon="7.3499"><ele></ele><time>2016-8-31T2:28:18Z</time></trkpt>
<trkpt lat="46.23492" lon="7.34986"><ele></ele><time>2016-8-31T2:28:21Z</time></trkpt>
<trkpt lat="46.23493" lon="7.34984"><ele></ele><time>2016-8-31T2:28:24Z</time></trkpt>
<trkpt lat="46.23494" lon="7.34982"><ele></ele><time>2016-8-31T2:28:27Z</time></trkpt>
<trkpt lat="46.23496" lon="7.34978"><ele></ele><time>2016-8-31T2:28:30Z</time></trkpt>
<trkpt lat="46.23498" lon="7.34975"><ele></ele><time>2016-8-31T2:28:33Z</time></trkpt>
<trkpt lat="46.235" lon="7.34971"><ele></ele><time>2016-8-31T2:28:36Z</time></trkpt>
<trkpt lat="46.23501" lon="7.34969"><ele></ele><time>2016-8-31T2:28:39Z</time></trkpt>
<trkpt lat="46.235" lon="7.34967"><ele></ele><time>2016-8-31T2:28:42Z</time></trkpt>
<trkpt lat="46.23497" lon="7.34962"><ele></ele><time>2016-8-31T2:28:45Z</time></trkpt>
<trkpt lat="46.23494" lon="7.34958"><ele></ele><time>2016-8-31T2:28:48Z</time></trkpt>
<trkpt lat="46.23491" lon="7.34954"><ele></ele><time>2016-8-31T2:28:51Z</time></trkpt>
<trkpt lat="46.23488" lon="7.34949"><ele></ele><time>2016-8-31T2:28:54Z</time></trkpt>
<trkpt lat="46.23485" lon="7.34945"><ele></ele><time>2016-8-31T2:28:57Z</time></trkpt>
<trkpt lat="46.23482" lon="7.34941"><ele></ele><time>2016-8-31T2:29:0Z</time></trkpt>
<trkpt lat="46.23479" lon="7.34937"><ele></ele><time>2016-8-31T2:29:3Z</time></trkpt>
<trkpt lat="46.23476" lon="7.34932"><ele></ele><time>2016-8-31T2:29:6Z</time></trkpt>
<trkpt lat="46.23473" lon="7.34928"><ele></ele><time>2016-8-31T2:29:9Z</time></trkpt>
<trkpt lat="46.2347" lon="7.34924"><ele></ele><time>2016-8-31T2:29:12Z</time></trkpt>
<trkpt lat="46.23469" lon="7.34921"><ele></ele><time>2016-8-31T2:29:15Z</time></trkpt>
<trkpt lat="46.23468" lon="7.34919"><ele></ele><time>2016-8-31T2:29:18Z</time></trkpt>
<trkpt lat="46.23466" lon="7.34914"><ele></ele><time>2016-8-31T2:29:21Z</time></trkpt>
<trkpt lat="46.23464" lon="7.34909"><ele></ele><time>2016-8-31T2:29:24Z</time></trkpt>
<trkpt lat="46.23462" lon="7.34905"><ele></ele><time>2016-8-31T2:29:27Z</time></trkpt>
<trkpt lat="46.23459" lon="7.349"><ele></ele><time>2016-8-31T2:29:30Z</time></trkpt>
<trkpt lat="46.23457" lon="7.34895"><ele></ele><time>2016-8-31T2:29:33Z</time></trkpt>
<trkpt lat="46.23455" lon="7.3489"><ele></ele><time>2016-8-31T2:29:36Z</time></trkpt>
<trkpt lat="46.23453" lon="7.34885"><ele></ele><time>2016-8-31T2:29:39Z</time></trkpt>
<trkpt lat="46.23451" lon="7.3488"><ele></ele><time>2016-8-31T2:29:42Z</time></trkpt>
<trkpt lat="46.23449" lon="7.34876"><ele></ele><time>2016-8-31T2:29:45Z</time></trkpt>
<trkpt lat="46.23447" lon="7.34871"><ele></ele><time>2016-8-31T2:29:48Z</time></trkpt>
<trkpt lat="46.23445" lon="7.34866"><ele></ele><time>2016-8-31T2:29:51Z</time></trkpt>
<trkpt lat="46.23446" lon="7.34861"><ele></ele><time>2016-8-31T2:29:54Z</time></trkpt>
<trkpt lat="46.23447" lon="7.34856"><ele></ele><time>2016-8-31T2:29:57Z</time></trkpt>
<trkpt lat="46.23448" lon="7.34852"><ele></ele><time>2016-8-31T2:30:0Z</time></trkpt>
<trkpt lat="46.23449" lon="7.34847"><ele></ele><time>2016-8-31T2:30:3Z</time></trkpt>
<trkpt lat="46.2345" lon="7.34842"><ele></ele><time>2016-8-31T2:30:6Z</time></trkpt>
<trkpt lat="46.23452" lon="7.34837"><ele></ele><time>2016-8-31T2:30:9Z</time></trkpt>
<trkpt lat="46.23453" lon="7.34832"><ele></ele><time>2016-8-31T2:30:12Z</time></trkpt>
<trkpt lat="46.23454" lon="7.34827"><ele></ele><time>2016-8-31T2:30:15Z</time></trkpt>
<trkpt lat="46.23455" lon="7.34823"><ele></ele><time>2016-8-31T2:30:18Z</time></trkpt>
<trkpt lat="46.23456" lon="7.34818"><ele></ele><time>2016-8-31T2:30:21Z</time></trkpt>
<trkpt lat="46.23457" lon="7.34813"><ele></ele><time>2016-8-31T2:30:24Z</time></trkpt>
<trkpt lat="46.23458" lon="7.34808"><ele></ele><time>2016-8-31T2:30:27Z</time></trkpt>
<trkpt lat="46.23459" lon="7.34803"><ele></ele><time>2016-8-31T2:30:30Z</time></trkpt>
<trkpt lat="46.23459" lon="7.34801"><ele></ele><time>2016-8-31T2:30:33Z</time></trkpt>
<trkpt lat="46.23459" lon="7.34799"><ele></ele><time>2016-8-31T2:30:36Z</time></trkpt>
<trkpt lat="46.23458" lon="7.34795"><ele></ele><time>2016-8-31T2:30:39Z</time></trkpt>
<trkpt lat="46.23458" lon="7.34791"><ele></ele><time>2016-8-31T2:30:42Z</time></trkpt>
<trkpt lat="46.23457" lon="7.34786"><ele></ele><time>2016-8-31T2:30:45Z</time></trkpt>
<trkpt lat="46.23456" lon="7.34782"><ele></ele><time>2016-8-31T2:30:48Z</time></trkpt>
<trkpt lat="46.23456" lon="7.34778"><ele></ele><time>2016-8-31T2:30:51Z</time></trkpt>
<trkpt lat="46.23455" lon="7.34774"><ele></ele><time>2016-8-31T2:30:54Z</time></trkpt>
<trkpt lat="46.23454" lon="7.3477"><ele></ele><time>2016-8-31T2:30:57Z</time></trkpt>
<trkpt lat="46.23453" lon="7.34765"><ele></ele><time>2016-8-31T2:31:0Z</time></trkpt>
<trkpt lat="46.23453" lon="7.34761"><ele></ele><time>2016-8-31T2:31:3Z</time></trkpt>
<trkpt lat="46.23452" lon="7.34757"><ele></ele><time>2016-8-31T2:31:6Z</time></trkpt>
<trkpt lat="46.23451" lon="7.34753"><ele></ele><time>2016-8-31T2:31:9Z</time></trkpt>
<trkpt lat="46.23451" lon="7.34749"><ele></ele><time>2016-8-31T2:31:12Z</time></trkpt>
<trkpt lat="46.2345" lon="7.34744"><ele></ele><time>2016-8-31T2:31:15Z</time></trkpt>
<trkpt lat="46.23449" lon="7.3474"><ele></ele><time>2016-8-31T2:31:18Z</time></trkpt>
<trkpt lat="46.23449" lon="7.34738"><ele></ele><time>2016-8-31T2:31:21Z</time></trkpt>
<trkpt lat="46.23448" lon="7.34737"><ele></ele><time>2016-8-31T2:31:24Z</time></trkpt>
<trkpt lat="46.23446" lon="7.34733"><ele></ele><time>2016-8-31T2:31:27Z</time></trkpt>
<trkpt lat="46.23445" lon="7.3473"><ele></ele><time>2016-8-31T2:31:30Z</time></trkpt>
<trkpt lat="46.23443" lon="7.34727"><ele></ele><time>2016-8-31T2:31:33Z</time></trkpt>
<trkpt lat="46.23441" lon="7.34724"><ele></ele><time>2016-8-31T2:31:36Z</time></trkpt>
<trkpt lat="46.23439" lon="7.34721"><ele></ele><time>2016-8-31T2:31:39Z</time></trkpt>
<trkpt lat="46.23438" lon="7.34717"><ele></ele><time>2016-8-31T2:31:42Z</time></trkpt>
<trkpt lat="46.23436" lon="7.34714"><ele></ele><time>2016-8-31T2:31:45Z</time></trkpt>
<trkpt lat="46.23434" lon="7.34711"><ele></ele><time>2016-8-31T2:31:48Z</time></trkpt>
<trkpt lat="46.23432" lon="7.34708"><ele></ele><time>2016-8-31T2:31:51Z</time></trkpt>
<trkpt lat="46.23431" lon="7.34705"><ele></ele><time>2016-8-31T2:31:54Z</time></trkpt>
<trkpt lat="46.23429" lon="7.34701"><ele></ele><time>2016-8-31T2:31:57Z</time></trkpt>
<trkpt lat="46.23428" lon="7.34697"><ele></ele><time>2016-8-31T2:32:0Z</time></trkpt>
<trkpt lat="46.23427" lon="7.34693"><ele></ele><time>2016-8-31T2:32:3Z</time></trkpt>
<trkpt lat="46.23426" lon="7.34689"><ele></ele><time>2016-8-31T2:32:6Z</time></trkpt>
<trkpt lat="46.23425" lon="7.34685"><ele></ele><time>2016-8-31T2:32:9Z</time></trkpt>
<trkpt lat="46.23424" lon="7.3468"><ele></ele><time>2016-8-31T2:32:12Z</time></trkpt>
<trkpt lat="46.23423" lon="7.34676"><ele></ele><time>2016-8-31T2:32:15Z</time></trkpt>
<trkpt lat="46.23422" lon="7.34672"><ele></ele><time>2016-8-31T2:32:18Z</time></trkpt>
<trkpt lat="46.23421" lon="7.34668"><ele></ele><time>2016-8-31T2:32:21Z</time></trkpt>
<trkpt lat="46.23421" lon="7.34663"><ele></ele><time>2016-8-31T2:32:24Z</time></trkpt>
<trkpt lat="46.2342" lon="7.34659"><ele></ele><time>2016-8-31T2:32:27Z</time></trkpt>
<trkpt lat="46.23419" lon="7.34655"><ele></ele><time>2016-8-31T2:32:30Z</time></trkpt>
<trkpt lat="46.23418" lon="7.34651"><ele></ele><time>2016-8-31T2:32:33Z</time></trkpt>
<trkpt lat="46.23417" lon="7.34646"><ele></ele><time>2016-8-31T2:32:36Z</time></trkpt>
<trkpt lat="46.23416" lon="7.34642"><ele></ele><time>2016-8-31T2:32:39Z</time></trkpt>
<trkpt lat="46.23415" lon="7.34638"><ele></ele><time>2016-8-31T2:32:42Z</time></trkpt>
<trkpt lat="46.23415" lon="7.34637"><ele></ele><time>2016-8-31T2:32:45Z</time></trkpt>
<trkpt lat="46.23414" lon="7.34636"><ele></ele><time>2016-8-31T2:32:48Z</time></trkpt>
<trkpt lat="46.23413" lon="7.34635"><ele></ele><time>2016-8-31T2:32:51Z</time></trkpt>
<trkpt lat="46.23419" lon="7.34621"><ele></ele><time>2016-8-31T2:32:54Z</time></trkpt>
<trkpt lat="46.23419" lon="7.34621"><ele></ele><time>2016-8-31T2:32:57Z</time></trkpt>
<trkpt lat="46.23425" lon="7.34609"><ele></ele><time>2016-8-31T2:33:0Z</time></trkpt>
<trkpt lat="46.23426" lon="7.34609"><ele></ele><time>2016-8-31T2:33:3Z</time></trkpt>
<trkpt lat="46.23426" lon="7.34609"><ele></ele><time>2016-8-31T2:33:6Z</time></trkpt>
<trkpt lat="46.23427" lon="7.34609"><ele></ele><time>2016-8-31T2:33:9Z</time></trkpt>
<trkpt lat="46.23427" lon="7.34609"><ele></ele><time>2016-8-31T2:33:12Z</time></trkpt>
<trkpt lat="46.23428" lon="7.34609"><ele></ele><time>2016-8-31T2:33:15Z</time></trkpt>
<trkpt lat="46.23428" lon="7.34609"><ele></ele><time>2016-8-31T2:33:18Z</time></trkpt>
<trkpt lat="46.23428" lon="7.34607"><ele></ele><time>2016-8-31T2:33:21Z</time></trkpt>
<trkpt lat="46.23428" lon="7.34604"><ele></ele><time>2016-8-31T2:33:24Z</time></trkpt>
<trkpt lat="46.23428" lon="7.34601"><ele></ele><time>2016-8-31T2:33:27Z</time></trkpt>
<trkpt lat="46.23428" lon="7.346"><ele></ele><time>2016-8-31T2:33:30Z</time></trkpt>
<trkpt lat="46.23428" lon="7.34598"><ele></ele><time>2016-8-31T2:33:33Z</time></trkpt>
<trkpt lat="46.23428" lon="7.34595"><ele></ele><time>2016-8-31T2:33:36Z</time></trkpt>
<trkpt lat="46.23428" lon="7.34592"><ele></ele><time>2016-8-31T2:33:39Z</time></trkpt>
<trkpt lat="46.23429" lon="7.34589"><ele></ele><time>2016-8-31T2:33:42Z</time></trkpt>
<trkpt lat="46.23429" lon="7.34585"><ele></ele><time>2016-8-31T2:33:45Z</time></trkpt>
<trkpt lat="46.23429" lon="7.34582"><ele></ele><time>2016-8-31T2:33:48Z</time></trkpt>
<trkpt lat="46.23429" lon="7.34581"><ele></ele><time>2016-8-31T2:33:51Z</time></trkpt>
<trkpt lat="46.23429" lon="7.34579"><ele></ele><time>2016-8-31T2:33:54Z</time></trkpt>
<trkpt lat="46.23429" lon="7.34576"><ele></ele><time>2016-8-31T2:33:57Z</time></trkpt>
<trkpt lat="46.23429" lon="7.34573"><ele></ele><time>2016-8-31T2:34:0Z</time></trkpt>
<trkpt lat="46.23429" lon="7.3457"><ele></ele><time>2016-8-31T2:34:3Z</time></trkpt>
<trkpt lat="46.23429" lon="7.34567"><ele></ele><time>2016-8-31T2:34:6Z</time></trkpt>
<trkpt lat="46.23429" lon="7.34563"><ele></ele><time>2016-8-31T2:34:9Z</time></trkpt>
<trkpt lat="46.23429" lon="7.3456"><ele></ele><time>2016-8-31T2:34:12Z</time></trkpt>
<trkpt lat="46.23429" lon="7.34557"><ele></ele><time>2016-8-31T2:34:15Z</time></trkpt>
<trkpt lat="46.23429" lon="7.34554"><ele></ele><time>2016-8-31T2:34:18Z</time></trkpt>
<trkpt lat="46.2343" lon="7.34551"><ele></ele><time>2016-8-31T2:34:21Z</time></trkpt>
<trkpt lat="46.2343" lon="7.34548"><ele></ele><time>2016-8-31T2:34:24Z</time></trkpt>
<trkpt lat="46.2343" lon="7.34545"><ele></ele><time>2016-8-31T2:34:27Z</time></trkpt>
<trkpt lat="46.2343" lon="7.34543"><ele></ele><time>2016-8-31T2:34:30Z</time></trkpt>
<trkpt lat="46.2343" lon="7.3454"><ele></ele><time>2016-8-31T2:34:33Z</time></trkpt>
<trkpt lat="46.23431" lon="7.34535"><ele></ele><time>2016-8-31T2:34:36Z</time></trkpt>
<trkpt lat="46.23431" lon="7.3453"><ele></ele><time>2016-8-31T2:34:39Z</time></trkpt>
<trkpt lat="46.23432" lon="7.34524"><ele></ele><time>2016-8-31T2:34:42Z</time></trkpt>
<trkpt lat="46.23433" lon="7.34519"><ele></ele><time>2016-8-31T2:34:45Z</time></trkpt>
<trkpt lat="46.23434" lon="7.34514"><ele></ele><time>2016-8-31T2:34:48Z</time></trkpt>
<trkpt lat="46.23434" lon="7.34508"><ele></ele><time>2016-8-31T2:34:51Z</time></trkpt>
<trkpt lat="46.23435" lon="7.34503"><ele></ele><time>2016-8-31T2:34:54Z</time></trkpt>
<trkpt lat="46.23435" lon="7.345"><ele></ele><time>2016-8-31T2:34:57Z</time></trkpt>
<trkpt lat="46.23436" lon="7.34498"><ele></ele><time>2016-8-31T2:35:0Z</time></trkpt>
<trkpt lat="46.23436" lon="7.34494"><ele></ele><time>2016-8-31T2:35:3Z</time></trkpt>
<trkpt lat="46.23436" lon="7.34489"><ele></ele><time>2016-8-31T2:35:6Z</time></trkpt>
<trkpt lat="46.23436" lon="7.34485"><ele></ele><time>2016-8-31T2:35:9Z</time></trkpt>
<trkpt lat="46.23436" lon="7.34481"><ele></ele><time>2016-8-31T2:35:12Z</time></trkpt>
<trkpt lat="46.23436" lon="7.34476"><ele></ele><time>2016-8-31T2:35:15Z</time></trkpt>
<trkpt lat="46.23436" lon="7.34472"><ele></ele><time>2016-8-31T2:35:18Z</time></trkpt>
<trkpt lat="46.23436" lon="7.3447"><ele></ele><time>2016-8-31T2:35:21Z</time></trkpt>
<trkpt lat="46.23436" lon="7.34468"><ele></ele><time>2016-8-31T2:35:24Z</time></trkpt>
<trkpt lat="46.23436" lon="7.34463"><ele></ele><time>2016-8-31T2:35:27Z</time></trkpt>
<trkpt lat="46.23436" lon="7.34459"><ele></ele><time>2016-8-31T2:35:30Z</time></trkpt>
<trkpt lat="46.23436" lon="7.34455"><ele></ele><time>2016-8-31T2:35:33Z</time></trkpt>
<trkpt lat="46.23436" lon="7.3445"><ele></ele><time>2016-8-31T2:35:36Z</time></trkpt>
<trkpt lat="46.23436" lon="7.34446"><ele></ele><time>2016-8-31T2:35:39Z</time></trkpt>
<trkpt lat="46.23436" lon="7.34442"><ele></ele><time>2016-8-31T2:35:42Z</time></trkpt>
<trkpt lat="46.23437" lon="7.34438"><ele></ele><time>2016-8-31T2:35:45Z</time></trkpt>
<trkpt lat="46.23437" lon="7.34433"><ele></ele><time>2016-8-31T2:35:48Z</time></trkpt>
<trkpt lat="46.23436" lon="7.3443"><ele></ele><time>2016-8-31T2:35:51Z</time></trkpt>
<trkpt lat="46.23435" lon="7.34427"><ele></ele><time>2016-8-31T2:35:54Z</time></trkpt>
<trkpt lat="46.23434" lon="7.34423"><ele></ele><time>2016-8-31T2:35:57Z</time></trkpt>
<trkpt lat="46.23433" lon="7.3442"><ele></ele><time>2016-8-31T2:36:0Z</time></trkpt>
<trkpt lat="46.23432" lon="7.34417"><ele></ele><time>2016-8-31T2:36:3Z</time></trkpt>
<trkpt lat="46.23431" lon="7.34413"><ele></ele><time>2016-8-31T2:36:6Z</time></trkpt>
<trkpt lat="46.2343" lon="7.3441"><ele></ele><time>2016-8-31T2:36:9Z</time></trkpt>
<trkpt lat="46.23429" lon="7.34407"><ele></ele><time>2016-8-31T2:36:12Z</time></trkpt>
<trkpt lat="46.23428" lon="7.34404"><ele></ele><time>2016-8-31T2:36:15Z</time></trkpt>
<trkpt lat="46.23427" lon="7.344"><ele></ele><time>2016-8-31T2:36:18Z</time></trkpt>
<trkpt lat="46.23426" lon="7.34397"><ele></ele><time>2016-8-31T2:36:21Z</time></trkpt>
<trkpt lat="46.23425" lon="7.34394"><ele></ele><time>2016-8-31T2:36:24Z</time></trkpt>
<trkpt lat="46.23425" lon="7.3439"><ele></ele><time>2016-8-31T2:36:27Z</time></trkpt>
<trkpt lat="46.23424" lon="7.34387"><ele></ele><time>2016-8-31T2:36:30Z</time></trkpt>
<trkpt lat="46.23423" lon="7.34384"><ele></ele><time>2016-8-31T2:36:33Z</time></trkpt>
<trkpt lat="46.23422" lon="7.34381"><ele></ele><time>2016-8-31T2:36:36Z</time></trkpt>
<trkpt lat="46.23421" lon="7.34377"><ele></ele><time>2016-8-31T2:36:39Z</time></trkpt>
<trkpt lat="46.2342" lon="7.34374"><ele></ele><time>2016-8-31T2:36:42Z</time></trkpt>
<trkpt lat="46.23419" lon="7.34372"><ele></ele><time>2016-8-31T2:36:45Z</time></trkpt>
<trkpt lat="46.23423" lon="7.34346"><ele></ele><time>2016-8-31T2:36:48Z</time></trkpt>
<trkpt lat="46.23423" lon="7.34346"><ele></ele><time>2016-8-31T2:36:51Z</time></trkpt>
<trkpt lat="46.23427" lon="7.34321"><ele></ele><time>2016-8-31T2:36:54Z</time></trkpt>
<trkpt lat="46.23427" lon="7.34321"><ele></ele><time>2016-8-31T2:36:57Z</time></trkpt>
<trkpt lat="46.23427" lon="7.3432"><ele></ele><time>2016-8-31T2:37:0Z</time></trkpt>
<trkpt lat="46.23427" lon="7.34318"><ele></ele><time>2016-8-31T2:37:3Z</time></trkpt>
<trkpt lat="46.23427" lon="7.34317"><ele></ele><time>2016-8-31T2:37:6Z</time></trkpt>
<trkpt lat="46.23427" lon="7.34316"><ele></ele><time>2016-8-31T2:37:9Z</time></trkpt>
<trkpt lat="46.23427" lon="7.34315"><ele></ele><time>2016-8-31T2:37:12Z</time></trkpt>
<trkpt lat="46.23427" lon="7.34313"><ele></ele><time>2016-8-31T2:37:15Z</time></trkpt>
<trkpt lat="46.23427" lon="7.34312"><ele></ele><time>2016-8-31T2:37:18Z</time></trkpt>
<trkpt lat="46.23427" lon="7.34311"><ele></ele><time>2016-8-31T2:37:21Z</time></trkpt>
<trkpt lat="46.23427" lon="7.34311"><ele></ele><time>2016-8-31T2:37:24Z</time></trkpt>
<trkpt lat="46.23427" lon="7.3431"><ele></ele><time>2016-8-31T2:37:27Z</time></trkpt>
<trkpt lat="46.23427" lon="7.34308"><ele></ele><time>2016-8-31T2:37:30Z</time></trkpt>
<trkpt lat="46.23427" lon="7.34307"><ele></ele><time>2016-8-31T2:37:33Z</time></trkpt>
<trkpt lat="46.23426" lon="7.34306"><ele></ele><time>2016-8-31T2:37:36Z</time></trkpt>
<trkpt lat="46.23426" lon="7.34305"><ele></ele><time>2016-8-31T2:37:39Z</time></trkpt>
<trkpt lat="46.23426" lon="7.34303"><ele></ele><time>2016-8-31T2:37:42Z</time></trkpt>
<trkpt lat="46.23426" lon="7.34302"><ele></ele><time>2016-8-31T2:37:45Z</time></trkpt>
<trkpt lat="46.23426" lon="7.34301"><ele></ele><time>2016-8-31T2:37:48Z</time></trkpt>
<trkpt lat="46.23426" lon="7.343"><ele></ele><time>2016-8-31T2:37:51Z</time></trkpt>
<trkpt lat="46.23426" lon="7.34298"><ele></ele><time>2016-8-31T2:37:54Z</time></trkpt>
<trkpt lat="46.23426" lon="7.34298"><ele></ele><time>2016-8-31T2:37:57Z</time></trkpt>
<trkpt lat="46.23426" lon="7.34297"><ele></ele><time>2016-8-31T2:38:0Z</time></trkpt>
<trkpt lat="46.23426" lon="7.34296"><ele></ele><time>2016-8-31T2:38:3Z</time></trkpt>
<trkpt lat="46.23426" lon="7.34295"><ele></ele><time>2016-8-31T2:38:6Z</time></trkpt>
<trkpt lat="46.23426" lon="7.34293"><ele></ele><time>2016-8-31T2:38:9Z</time></trkpt>
<trkpt lat="46.23426" lon="7.34292"><ele></ele><time>2016-8-31T2:38:12Z</time></trkpt>
<trkpt lat="46.23426" lon="7.34291"><ele></ele><time>2016-8-31T2:38:15Z</time></trkpt>
<trkpt lat="46.23426" lon="7.34288"><ele></ele><time>2016-8-31T2:38:18Z</time></trkpt>
<trkpt lat="46.23425" lon="7.34284"><ele></ele><time>2016-8-31T2:38:21Z</time></trkpt>
<trkpt lat="46.23425" lon="7.34283"><ele></ele><time>2016-8-31T2:38:24Z</time></trkpt>
<trkpt lat="46.23425" lon="7.34281"><ele></ele><time>2016-8-31T2:38:27Z</time></trkpt>
<trkpt lat="46.23424" lon="7.34278"><ele></ele><time>2016-8-31T2:38:30Z</time></trkpt>
<trkpt lat="46.23424" lon="7.34275"><ele></ele><time>2016-8-31T2:38:33Z</time></trkpt>
<trkpt lat="46.23423" lon="7.34271"><ele></ele><time>2016-8-31T2:38:36Z</time></trkpt>
<trkpt lat="46.23423" lon="7.34268"><ele></ele><time>2016-8-31T2:38:39Z</time></trkpt>
<trkpt lat="46.23423" lon="7.34265"><ele></ele><time>2016-8-31T2:38:42Z</time></trkpt>
<trkpt lat="46.23422" lon="7.34262"><ele></ele><time>2016-8-31T2:38:45Z</time></trkpt>
<trkpt lat="46.23422" lon="7.34258"><ele></ele><time>2016-8-31T2:38:48Z</time></trkpt>
<trkpt lat="46.23421" lon="7.34255"><ele></ele><time>2016-8-31T2:38:51Z</time></trkpt>
<trkpt lat="46.23421" lon="7.34252"><ele></ele><time>2016-8-31T2:38:54Z</time></trkpt>
<trkpt lat="46.2342" lon="7.34248"><ele></ele><time>2016-8-31T2:38:57Z</time></trkpt>
<trkpt lat="46.2342" lon="7.34247"><ele></ele><time>2016-8-31T2:39:0Z</time></trkpt>
<trkpt lat="46.2342" lon="7.34245"><ele></ele><time>2016-8-31T2:39:3Z</time></trkpt>
<trkpt lat="46.2342" lon="7.34242"><ele></ele><time>2016-8-31T2:39:6Z</time></trkpt>
<trkpt lat="46.23419" lon="7.34239"><ele></ele><time>2016-8-31T2:39:9Z</time></trkpt>
<trkpt lat="46.23419" lon="7.34237"><ele></ele><time>2016-8-31T2:39:12Z</time></trkpt>
<trkpt lat="46.23419" lon="7.34235"><ele></ele><time>2016-8-31T2:39:15Z</time></trkpt>
<trkpt lat="46.23418" lon="7.34232"><ele></ele><time>2016-8-31T2:39:18Z</time></trkpt>
<trkpt lat="46.23418" lon="7.34229"><ele></ele><time>2016-8-31T2:39:21Z</time></trkpt>
<trkpt lat="46.23417" lon="7.34226"><ele></ele><time>2016-8-31T2:39:24Z</time></trkpt>
<trkpt lat="46.23418" lon="7.34216"><ele></ele><time>2016-8-31T2:39:27Z</time></trkpt>
<trkpt lat="46.23418" lon="7.34206"><ele></ele><time>2016-8-31T2:39:30Z</time></trkpt>
<trkpt lat="46.23419" lon="7.34196"><ele></ele><time>2016-8-31T2:39:33Z</time></trkpt>
<trkpt lat="46.23419" lon="7.34186"><ele></ele><time>2016-8-31T2:39:36Z</time></trkpt>
<trkpt lat="46.23415" lon="7.34177"><ele></ele><time>2016-8-31T2:39:39Z</time></trkpt>
<trkpt lat="46.23411" lon="7.34169"><ele></ele><time>2016-8-31T2:39:42Z</time></trkpt>
<trkpt lat="46.23407" lon="7.3416"><ele></ele><time>2016-8-31T2:39:45Z</time></trkpt>
<trkpt lat="46.23402" lon="7.34151"><ele></ele><time>2016-8-31T2:39:48Z</time></trkpt>
<trkpt lat="46.23398" lon="7.34143"><ele></ele><time>2016-8-31T2:39:51Z</time></trkpt>
<trkpt lat="46.23394" lon="7.34134"><ele></ele><time>2016-8-31T2:39:54Z</time></trkpt>
<trkpt lat="46.23392" lon="7.3413"><ele></ele><time>2016-8-31T2:39:57Z</time></trkpt>
<trkpt lat="46.2339" lon="7.34127"><ele></ele><time>2016-8-31T2:40:0Z</time></trkpt>
<trkpt lat="46.23386" lon="7.34121"><ele></ele><time>2016-8-31T2:40:3Z</time></trkpt>
<trkpt lat="46.23382" lon="7.34115"><ele></ele><time>2016-8-31T2:40:6Z</time></trkpt>
<trkpt lat="46.23378" lon="7.34109"><ele></ele><time>2016-8-31T2:40:9Z</time></trkpt>
<trkpt lat="46.23373" lon="7.34103"><ele></ele><time>2016-8-31T2:40:12Z</time></trkpt>
<trkpt lat="46.23369" lon="7.34097"><ele></ele><time>2016-8-31T2:40:15Z</time></trkpt>
<trkpt lat="46.23365" lon="7.34091"><ele></ele><time>2016-8-31T2:40:18Z</time></trkpt>
<trkpt lat="46.23356" lon="7.34089"><ele></ele><time>2016-8-31T2:40:21Z</time></trkpt>
<trkpt lat="46.23352" lon="7.34088"><ele></ele><time>2016-8-31T2:40:24Z</time></trkpt>
<trkpt lat="46.2335" lon="7.34085"><ele></ele><time>2016-8-31T2:40:27Z</time></trkpt>
<trkpt lat="46.23348" lon="7.34082"><ele></ele><time>2016-8-31T2:40:30Z</time></trkpt>
<trkpt lat="46.23349" lon="7.34079"><ele></ele><time>2016-8-31T2:40:33Z</time></trkpt>
<trkpt lat="46.23353" lon="7.34073"><ele></ele><time>2016-8-31T2:40:36Z</time></trkpt>
<trkpt lat="46.23356" lon="7.34067"><ele></ele><time>2016-8-31T2:40:39Z</time></trkpt>
<trkpt lat="46.2336" lon="7.3406"><ele></ele><time>2016-8-31T2:40:42Z</time></trkpt>
<trkpt lat="46.23364" lon="7.34054"><ele></ele><time>2016-8-31T2:40:45Z</time></trkpt>
<trkpt lat="46.23368" lon="7.34048"><ele></ele><time>2016-8-31T2:40:48Z</time></trkpt>
<trkpt lat="46.23371" lon="7.34041"><ele></ele><time>2016-8-31T2:40:51Z</time></trkpt>
<trkpt lat="46.23375" lon="7.34035"><ele></ele><time>2016-8-31T2:40:54Z</time></trkpt>
<trkpt lat="46.23377" lon="7.34032"><ele></ele><time>2016-8-31T2:40:57Z</time></trkpt>
<trkpt lat="46.23378" lon="7.34029"><ele></ele><time>2016-8-31T2:41:0Z</time></trkpt>
<trkpt lat="46.2338" lon="7.34023"><ele></ele><time>2016-8-31T2:41:3Z</time></trkpt>
<trkpt lat="46.23382" lon="7.34018"><ele></ele><time>2016-8-31T2:41:6Z</time></trkpt>
<trkpt lat="46.23384" lon="7.34012"><ele></ele><time>2016-8-31T2:41:9Z</time></trkpt>
<trkpt lat="46.23381" lon="7.34004"><ele></ele><time>2016-8-31T2:41:12Z</time></trkpt>
<trkpt lat="46.23377" lon="7.33996"><ele></ele><time>2016-8-31T2:41:15Z</time></trkpt>
<trkpt lat="46.23373" lon="7.33988"><ele></ele><time>2016-8-31T2:41:18Z</time></trkpt>
<trkpt lat="46.23372" lon="7.33984"><ele></ele><time>2016-8-31T2:41:21Z</time></trkpt>
<trkpt lat="46.23373" lon="7.33978"><ele></ele><time>2016-8-31T2:41:24Z</time></trkpt>
<trkpt lat="46.23376" lon="7.33964"><ele></ele><time>2016-8-31T2:41:27Z</time></trkpt>
<trkpt lat="46.2338" lon="7.3395"><ele></ele><time>2016-8-31T2:41:30Z</time></trkpt>
<trkpt lat="46.23383" lon="7.33936"><ele></ele><time>2016-8-31T2:41:33Z</time></trkpt>
<trkpt lat="46.23386" lon="7.33923"><ele></ele><time>2016-8-31T2:41:36Z</time></trkpt>
<trkpt lat="46.23388" lon="7.33911"><ele></ele><time>2016-8-31T2:41:39Z</time></trkpt>
<trkpt lat="46.23389" lon="7.339"><ele></ele><time>2016-8-31T2:41:42Z</time></trkpt>
<trkpt lat="46.2339" lon="7.3389"><ele></ele><time>2016-8-31T2:41:45Z</time></trkpt>
<trkpt lat="46.23391" lon="7.33879"><ele></ele><time>2016-8-31T2:41:48Z</time></trkpt>
<trkpt lat="46.23389" lon="7.33867"><ele></ele><time>2016-8-31T2:41:51Z</time></trkpt>
<trkpt lat="46.23388" lon="7.33856"><ele></ele><time>2016-8-31T2:41:54Z</time></trkpt>
<trkpt lat="46.23386" lon="7.33845"><ele></ele><time>2016-8-31T2:41:57Z</time></trkpt>
<trkpt lat="46.23385" lon="7.33834"><ele></ele><time>2016-8-31T2:42:0Z</time></trkpt>
<trkpt lat="46.23383" lon="7.33823"><ele></ele><time>2016-8-31T2:42:3Z</time></trkpt>
<trkpt lat="46.23381" lon="7.33811"><ele></ele><time>2016-8-31T2:42:6Z</time></trkpt>
<trkpt lat="46.2338" lon="7.33803"><ele></ele><time>2016-8-31T2:42:9Z</time></trkpt>
<trkpt lat="46.23378" lon="7.33794"><ele></ele><time>2016-8-31T2:42:12Z</time></trkpt>
<trkpt lat="46.23376" lon="7.33785"><ele></ele><time>2016-8-31T2:42:15Z</time></trkpt>
<trkpt lat="46.23375" lon="7.33777"><ele></ele><time>2016-8-31T2:42:18Z</time></trkpt>
<trkpt lat="46.23373" lon="7.33768"><ele></ele><time>2016-8-31T2:42:21Z</time></trkpt>
<trkpt lat="46.23372" lon="7.3376"><ele></ele><time>2016-8-31T2:42:24Z</time></trkpt>
<trkpt lat="46.2337" lon="7.33751"><ele></ele><time>2016-8-31T2:42:27Z</time></trkpt>
<trkpt lat="46.23369" lon="7.33747"><ele></ele><time>2016-8-31T2:42:30Z</time></trkpt>
<trkpt lat="46.23369" lon="7.33742"><ele></ele><time>2016-8-31T2:42:33Z</time></trkpt>
<trkpt lat="46.23369" lon="7.33733"><ele></ele><time>2016-8-31T2:42:36Z</time></trkpt>
<trkpt lat="46.23369" lon="7.33723"><ele></ele><time>2016-8-31T2:42:39Z</time></trkpt>
<trkpt lat="46.23369" lon="7.33714"><ele></ele><time>2016-8-31T2:42:42Z</time></trkpt>
<trkpt lat="46.23368" lon="7.33705"><ele></ele><time>2016-8-31T2:42:45Z</time></trkpt>
<trkpt lat="46.23368" lon="7.33695"><ele></ele><time>2016-8-31T2:42:48Z</time></trkpt>
<trkpt lat="46.23368" lon="7.33686"><ele></ele><time>2016-8-31T2:42:51Z</time></trkpt>
<trkpt lat="46.23368" lon="7.33681"><ele></ele><time>2016-8-31T2:42:54Z</time></trkpt>
<trkpt lat="46.23367" lon="7.33675"><ele></ele><time>2016-8-31T2:42:57Z</time></trkpt>
<trkpt lat="46.23365" lon="7.33664"><ele></ele><time>2016-8-31T2:43:0Z</time></trkpt>
<trkpt lat="46.23364" lon="7.33652"><ele></ele><time>2016-8-31T2:43:3Z</time></trkpt>
<trkpt lat="46.23362" lon="7.3364"><ele></ele><time>2016-8-31T2:43:6Z</time></trkpt>
<trkpt lat="46.2336" lon="7.33628"><ele></ele><time>2016-8-31T2:43:9Z</time></trkpt>
<trkpt lat="46.23358" lon="7.33617"><ele></ele><time>2016-8-31T2:43:12Z</time></trkpt>
<trkpt lat="46.23357" lon="7.33611"><ele></ele><time>2016-8-31T2:43:15Z</time></trkpt>
<trkpt lat="46.23356" lon="7.33602"><ele></ele><time>2016-8-31T2:43:18Z</time></trkpt>
<trkpt lat="46.23352" lon="7.33583"><ele></ele><time>2016-8-31T2:43:21Z</time></trkpt>
<trkpt lat="46.23348" lon="7.33565"><ele></ele><time>2016-8-31T2:43:24Z</time></trkpt>
<trkpt lat="46.23346" lon="7.33555"><ele></ele><time>2016-8-31T2:43:27Z</time></trkpt>
<trkpt lat="46.23343" lon="7.33549"><ele></ele><time>2016-8-31T2:43:30Z</time></trkpt>
<trkpt lat="46.23335" lon="7.33537"><ele></ele><time>2016-8-31T2:43:33Z</time></trkpt>
<trkpt lat="46.23327" lon="7.33526"><ele></ele><time>2016-8-31T2:43:36Z</time></trkpt>
<trkpt lat="46.23319" lon="7.33514"><ele></ele><time>2016-8-31T2:43:39Z</time></trkpt>
<trkpt lat="46.23315" lon="7.33509"><ele></ele><time>2016-8-31T2:43:42Z</time></trkpt>
<trkpt lat="46.23312" lon="7.33504"><ele></ele><time>2016-8-31T2:43:45Z</time></trkpt>
<trkpt lat="46.23307" lon="7.33497"><ele></ele><time>2016-8-31T2:43:48Z</time></trkpt>
<trkpt lat="46.23303" lon="7.33489"><ele></ele><time>2016-8-31T2:43:51Z</time></trkpt>
<trkpt lat="46.23298" lon="7.33482"><ele></ele><time>2016-8-31T2:43:54Z</time></trkpt>
<trkpt lat="46.23296" lon="7.33478"><ele></ele><time>2016-8-31T2:43:57Z</time></trkpt>
<trkpt lat="46.23293" lon="7.33474"><ele></ele><time>2016-8-31T2:44:0Z</time></trkpt>
<trkpt lat="46.23289" lon="7.33466"><ele></ele><time>2016-8-31T2:44:3Z</time></trkpt>
<trkpt lat="46.23284" lon="7.33459"><ele></ele><time>2016-8-31T2:44:6Z</time></trkpt>
<trkpt lat="46.23279" lon="7.33449"><ele></ele><time>2016-8-31T2:44:9Z</time></trkpt>
<trkpt lat="46.23274" lon="7.33438"><ele></ele><time>2016-8-31T2:44:12Z</time></trkpt>
<trkpt lat="46.23268" lon="7.33437"><ele></ele><time>2016-8-31T2:44:15Z</time></trkpt>
<trkpt lat="46.23264" lon="7.33434"><ele></ele><time>2016-8-31T2:44:18Z</time></trkpt>
<trkpt lat="46.23257" lon="7.33427"><ele></ele><time>2016-8-31T2:44:21Z</time></trkpt>
<trkpt lat="46.23249" lon="7.3342"><ele></ele><time>2016-8-31T2:44:24Z</time></trkpt>
<trkpt lat="46.23244" lon="7.3342"><ele></ele><time>2016-8-31T2:44:27Z</time></trkpt>
<trkpt lat="46.23238" lon="7.3342"><ele></ele><time>2016-8-31T2:44:30Z</time></trkpt>
<trkpt lat="46.23233" lon="7.33421"><ele></ele><time>2016-8-31T2:44:33Z</time></trkpt>
<trkpt lat="46.23231" lon="7.33413"><ele></ele><time>2016-8-31T2:44:36Z</time></trkpt>
<trkpt lat="46.23229" lon="7.33405"><ele></ele><time>2016-8-31T2:44:39Z</time></trkpt>
<trkpt lat="46.23227" lon="7.33397"><ele></ele><time>2016-8-31T2:44:42Z</time></trkpt>
<trkpt lat="46.23225" lon="7.33389"><ele></ele><time>2016-8-31T2:44:45Z</time></trkpt>
<trkpt lat="46.23223" lon="7.33381"><ele></ele><time>2016-8-31T2:44:48Z</time></trkpt>
<trkpt lat="46.23221" lon="7.33373"><ele></ele><time>2016-8-31T2:44:51Z</time></trkpt>
<trkpt lat="46.23218" lon="7.3336"><ele></ele><time>2016-8-31T2:44:54Z</time></trkpt>
<trkpt lat="46.23217" lon="7.33356"><ele></ele><time>2016-8-31T2:44:57Z</time></trkpt>
<trkpt lat="46.23216" lon="7.33352"><ele></ele><time>2016-8-31T2:45:0Z</time></trkpt>
<trkpt lat="46.23215" lon="7.33348"><ele></ele><time>2016-8-31T2:45:3Z</time></trkpt>
<trkpt lat="46.23213" lon="7.3334"><ele></ele><time>2016-8-31T2:45:6Z</time></trkpt>
<trkpt lat="46.23211" lon="7.33332"><ele></ele><time>2016-8-31T2:45:9Z</time></trkpt>
<trkpt lat="46.23209" lon="7.33323"><ele></ele><time>2016-8-31T2:45:12Z</time></trkpt>
<trkpt lat="46.23208" lon="7.33315"><ele></ele><time>2016-8-31T2:45:15Z</time></trkpt>
<trkpt lat="46.23206" lon="7.33307"><ele></ele><time>2016-8-31T2:45:18Z</time></trkpt>
<trkpt lat="46.23204" lon="7.33299"><ele></ele><time>2016-8-31T2:45:21Z</time></trkpt>
<trkpt lat="46.23202" lon="7.3329"><ele></ele><time>2016-8-31T2:45:24Z</time></trkpt>
<trkpt lat="46.23201" lon="7.33285"><ele></ele><time>2016-8-31T2:45:27Z</time></trkpt>
<trkpt lat="46.232" lon="7.3328"><ele></ele><time>2016-8-31T2:45:30Z</time></trkpt>
<trkpt lat="46.23199" lon="7.33274"><ele></ele><time>2016-8-31T2:45:33Z</time></trkpt>
<trkpt lat="46.23198" lon="7.33269"><ele></ele><time>2016-8-31T2:45:36Z</time></trkpt>
<trkpt lat="46.23198" lon="7.33266"><ele></ele><time>2016-8-31T2:45:39Z</time></trkpt>
<trkpt lat="46.23197" lon="7.33264"><ele></ele><time>2016-8-31T2:45:42Z</time></trkpt>
<trkpt lat="46.23196" lon="7.33258"><ele></ele><time>2016-8-31T2:45:45Z</time></trkpt>
<trkpt lat="46.23196" lon="7.33253"><ele></ele><time>2016-8-31T2:45:48Z</time></trkpt>
<trkpt lat="46.23195" lon="7.33248"><ele></ele><time>2016-8-31T2:45:51Z</time></trkpt>
<trkpt lat="46.23194" lon="7.33243"><ele></ele><time>2016-8-31T2:45:54Z</time></trkpt>
<trkpt lat="46.23193" lon="7.33237"><ele></ele><time>2016-8-31T2:45:57Z</time></trkpt>
<trkpt lat="46.23192" lon="7.33232"><ele></ele><time>2016-8-31T2:46:0Z</time></trkpt>
<trkpt lat="46.23191" lon="7.33227"><ele></ele><time>2016-8-31T2:46:3Z</time></trkpt>
<trkpt lat="46.2319" lon="7.33222"><ele></ele><time>2016-8-31T2:46:6Z</time></trkpt>
<trkpt lat="46.23189" lon="7.33217"><ele></ele><time>2016-8-31T2:46:9Z</time></trkpt>
<trkpt lat="46.23188" lon="7.33212"><ele></ele><time>2016-8-31T2:46:12Z</time></trkpt>
<trkpt lat="46.23188" lon="7.33209"><ele></ele><time>2016-8-31T2:46:15Z</time></trkpt>
<trkpt lat="46.23187" lon="7.33207"><ele></ele><time>2016-8-31T2:46:18Z</time></trkpt>
<trkpt lat="46.23187" lon="7.33202"><ele></ele><time>2016-8-31T2:46:21Z</time></trkpt>
<trkpt lat="46.23186" lon="7.33197"><ele></ele><time>2016-8-31T2:46:24Z</time></trkpt>
<trkpt lat="46.23185" lon="7.33192"><ele></ele><time>2016-8-31T2:46:27Z</time></trkpt>
<trkpt lat="46.23184" lon="7.33187"><ele></ele><time>2016-8-31T2:46:30Z</time></trkpt>
<trkpt lat="46.23183" lon="7.33182"><ele></ele><time>2016-8-31T2:46:33Z</time></trkpt>
<trkpt lat="46.23182" lon="7.33176"><ele></ele><time>2016-8-31T2:46:36Z</time></trkpt>
<trkpt lat="46.23181" lon="7.33171"><ele></ele><time>2016-8-31T2:46:39Z</time></trkpt>
<trkpt lat="46.2318" lon="7.33166"><ele></ele><time>2016-8-31T2:46:42Z</time></trkpt>
<trkpt lat="46.23179" lon="7.33161"><ele></ele><time>2016-8-31T2:46:45Z</time></trkpt>
<trkpt lat="46.23179" lon="7.33159"><ele></ele><time>2016-8-31T2:46:48Z</time></trkpt>
<trkpt lat="46.23179" lon="7.33157"><ele></ele><time>2016-8-31T2:46:51Z</time></trkpt>
<trkpt lat="46.23178" lon="7.33155"><ele></ele><time>2016-8-31T2:46:54Z</time></trkpt>
<trkpt lat="46.23178" lon="7.33153"><ele></ele><time>2016-8-31T2:46:57Z</time></trkpt>
<trkpt lat="46.23177" lon="7.3315"><ele></ele><time>2016-8-31T2:47:0Z</time></trkpt>
<trkpt lat="46.23176" lon="7.33146"><ele></ele><time>2016-8-31T2:47:3Z</time></trkpt>
<trkpt lat="46.23176" lon="7.33145"><ele></ele><time>2016-8-31T2:47:6Z</time></trkpt>
<trkpt lat="46.23178" lon="7.33144"><ele></ele><time>2016-8-31T2:47:9Z</time></trkpt>
<trkpt lat="46.23184" lon="7.33142"><ele></ele><time>2016-8-31T2:47:12Z</time></trkpt>
<trkpt lat="46.23191" lon="7.3314"><ele></ele><time>2016-8-31T2:47:15Z</time></trkpt>
<trkpt lat="46.23194" lon="7.33139"><ele></ele><time>2016-8-31T2:47:18Z</time></trkpt>
<trkpt lat="46.23197" lon="7.33143"><ele></ele><time>2016-8-31T2:47:21Z</time></trkpt>
<trkpt lat="46.23204" lon="7.33153"><ele></ele><time>2016-8-31T2:47:24Z</time></trkpt>
<trkpt lat="46.23207" lon="7.33157"><ele></ele><time>2016-8-31T2:47:27Z</time></trkpt>
<trkpt lat="46.2321" lon="7.33163"><ele></ele><time>2016-8-31T2:47:30Z</time></trkpt>
<trkpt lat="46.23213" lon="7.33169"><ele></ele><time>2016-8-31T2:47:33Z</time></trkpt>
<trkpt lat="46.23216" lon="7.33175"><ele></ele><time>2016-8-31T2:47:36Z</time></trkpt>
<trkpt lat="46.23221" lon="7.33187"><ele></ele><time>2016-8-31T2:47:39Z</time></trkpt>
<trkpt lat="46.23227" lon="7.33198"><ele></ele><time>2016-8-31T2:47:42Z</time></trkpt>
<trkpt lat="46.23236" lon="7.33207"><ele></ele><time>2016-8-31T2:47:45Z</time></trkpt>
<trkpt lat="46.23245" lon="7.33215"><ele></ele><time>2016-8-31T2:47:48Z</time></trkpt>
<trkpt lat="46.23254" lon="7.33223"><ele></ele><time>2016-8-31T2:47:51Z</time></trkpt>
<trkpt lat="46.23263" lon="7.33239"><ele></ele><time>2016-8-31T2:47:54Z</time></trkpt>
<trkpt lat="46.23271" lon="7.33255"><ele></ele><time>2016-8-31T2:47:57Z</time></trkpt>
<trkpt lat="46.2328" lon="7.33272"><ele></ele><time>2016-8-31T2:48:0Z</time></trkpt>
<trkpt lat="46.23285" lon="7.3328"><ele></ele><time>2016-8-31T2:48:3Z</time></trkpt>
<trkpt lat="46.2329" lon="7.33288"><ele></ele><time>2016-8-31T2:48:6Z</time></trkpt>
<trkpt lat="46.23295" lon="7.33297"><ele></ele><time>2016-8-31T2:48:9Z</time></trkpt>
<trkpt lat="46.23299" lon="7.33305"><ele></ele><time>2016-8-31T2:48:12Z</time></trkpt>
<trkpt lat="46.23306" lon="7.33323"><ele></ele><time>2016-8-31T2:48:15Z</time></trkpt>
<trkpt lat="46.23313" lon="7.3334"><ele></ele><time>2016-8-31T2:48:18Z</time></trkpt>
<trkpt lat="46.2332" lon="7.33357"><ele></ele><time>2016-8-31T2:48:21Z</time></trkpt>
<trkpt lat="46.23323" lon="7.33363"><ele></ele><time>2016-8-31T2:48:24Z</time></trkpt>
<trkpt lat="46.23326" lon="7.33368"><ele></ele><time>2016-8-31T2:48:27Z</time></trkpt>
<trkpt lat="46.23331" lon="7.33379"><ele></ele><time>2016-8-31T2:48:30Z</time></trkpt>
<trkpt lat="46.23336" lon="7.3339"><ele></ele><time>2016-8-31T2:48:33Z</time></trkpt>
<trkpt lat="46.23341" lon="7.33401"><ele></ele><time>2016-8-31T2:48:36Z</time></trkpt>
<trkpt lat="46.23346" lon="7.33412"><ele></ele><time>2016-8-31T2:48:39Z</time></trkpt>
<trkpt lat="46.23352" lon="7.33425"><ele></ele><time>2016-8-31T2:48:42Z</time></trkpt>
<trkpt lat="46.23357" lon="7.33437"><ele></ele><time>2016-8-31T2:48:45Z</time></trkpt>
<trkpt lat="46.23363" lon="7.3345"><ele></ele><time>2016-8-31T2:48:48Z</time></trkpt>
<trkpt lat="46.23368" lon="7.33463"><ele></ele><time>2016-8-31T2:48:51Z</time></trkpt>
<trkpt lat="46.23371" lon="7.33469"><ele></ele><time>2016-8-31T2:48:54Z</time></trkpt>
<trkpt lat="46.23375" lon="7.33476"><ele></ele><time>2016-8-31T2:48:57Z</time></trkpt>
<trkpt lat="46.23383" lon="7.3349"><ele></ele><time>2016-8-31T2:49:0Z</time></trkpt>
<trkpt lat="46.2339" lon="7.33505"><ele></ele><time>2016-8-31T2:49:3Z</time></trkpt>
<trkpt lat="46.23398" lon="7.33519"><ele></ele><time>2016-8-31T2:49:6Z</time></trkpt>
<trkpt lat="46.23402" lon="7.33526"><ele></ele><time>2016-8-31T2:49:9Z</time></trkpt>
<trkpt lat="46.23405" lon="7.3353"><ele></ele><time>2016-8-31T2:49:12Z</time></trkpt>
<trkpt lat="46.23409" lon="7.33537"><ele></ele><time>2016-8-31T2:49:15Z</time></trkpt>
<trkpt lat="46.23414" lon="7.33543"><ele></ele><time>2016-8-31T2:49:18Z</time></trkpt>
<trkpt lat="46.23417" lon="7.33546"><ele></ele><time>2016-8-31T2:49:21Z</time></trkpt>
<trkpt lat="46.23419" lon="7.3355"><ele></ele><time>2016-8-31T2:49:24Z</time></trkpt>
<trkpt lat="46.23424" lon="7.33556"><ele></ele><time>2016-8-31T2:49:27Z</time></trkpt>
<trkpt lat="46.23429" lon="7.33563"><ele></ele><time>2016-8-31T2:49:30Z</time></trkpt>
<trkpt lat="46.23433" lon="7.33569"><ele></ele><time>2016-8-31T2:49:33Z</time></trkpt>
<trkpt lat="46.23436" lon="7.33573"><ele></ele><time>2016-8-31T2:49:36Z</time></trkpt>
<trkpt lat="46.23439" lon="7.33577"><ele></ele><time>2016-8-31T2:49:39Z</time></trkpt>
<trkpt lat="46.23446" lon="7.33588"><ele></ele><time>2016-8-31T2:49:42Z</time></trkpt>
<trkpt lat="46.23453" lon="7.33598"><ele></ele><time>2016-8-31T2:49:45Z</time></trkpt>
<trkpt lat="46.2346" lon="7.33609"><ele></ele><time>2016-8-31T2:49:48Z</time></trkpt>
<trkpt lat="46.23461" lon="7.33606"><ele></ele><time>2016-8-31T2:49:51Z</time></trkpt>
<trkpt lat="46.23462" lon="7.33602"><ele></ele><time>2016-8-31T2:49:54Z</time></trkpt>
<trkpt lat="46.23464" lon="7.33595"><ele></ele><time>2016-8-31T2:49:57Z</time></trkpt>
<trkpt lat="46.23466" lon="7.33588"><ele></ele><time>2016-8-31T2:50:0Z</time></trkpt>
<trkpt lat="46.23468" lon="7.3358"><ele></ele><time>2016-8-31T2:50:3Z</time></trkpt>
<trkpt lat="46.23469" lon="7.33577"><ele></ele><time>2016-8-31T2:50:6Z</time></trkpt>
<trkpt lat="46.23469" lon="7.33569"><ele></ele><time>2016-8-31T2:50:9Z</time></trkpt>
<trkpt lat="46.23469" lon="7.33553"><ele></ele><time>2016-8-31T2:50:12Z</time></trkpt>
<trkpt lat="46.23469" lon="7.33545"><ele></ele><time>2016-8-31T2:50:15Z</time></trkpt>
<trkpt lat="46.23465" lon="7.33541"><ele></ele><time>2016-8-31T2:50:18Z</time></trkpt>
<trkpt lat="46.23463" lon="7.33521"><ele></ele><time>2016-8-31T2:50:21Z</time></trkpt>
<trkpt lat="46.23463" lon="7.335"><ele></ele><time>2016-8-31T2:50:24Z</time></trkpt>
<trkpt lat="46.23463" lon="7.33479"><ele></ele><time>2016-8-31T2:50:27Z</time></trkpt>
<trkpt lat="46.23462" lon="7.33468"><ele></ele><time>2016-8-31T2:50:30Z</time></trkpt>
<trkpt lat="46.23462" lon="7.33456"><ele></ele><time>2016-8-31T2:50:33Z</time></trkpt>
<trkpt lat="46.2346" lon="7.33429"><ele></ele><time>2016-8-31T2:50:36Z</time></trkpt>
<trkpt lat="46.23458" lon="7.33403"><ele></ele><time>2016-8-31T2:50:39Z</time></trkpt>
<trkpt lat="46.23455" lon="7.33376"><ele></ele><time>2016-8-31T2:50:42Z</time></trkpt>
<trkpt lat="46.23454" lon="7.33363"><ele></ele><time>2016-8-31T2:50:45Z</time></trkpt>
<trkpt lat="46.23452" lon="7.3335"><ele></ele><time>2016-8-31T2:50:48Z</time></trkpt>
<trkpt lat="46.23451" lon="7.33337"><ele></ele><time>2016-8-31T2:50:51Z</time></trkpt>
<trkpt lat="46.2345" lon="7.33322"><ele></ele><time>2016-8-31T2:50:54Z</time></trkpt>
<trkpt lat="46.23447" lon="7.33292"><ele></ele><time>2016-8-31T2:50:57Z</time></trkpt>
<trkpt lat="46.23444" lon="7.33262"><ele></ele><time>2016-8-31T2:51:0Z</time></trkpt>
<trkpt lat="46.23443" lon="7.33232"><ele></ele><time>2016-8-31T2:51:3Z</time></trkpt>
<trkpt lat="46.23443" lon="7.33202"><ele></ele><time>2016-8-31T2:51:6Z</time></trkpt>
<trkpt lat="46.23442" lon="7.33187"><ele></ele><time>2016-8-31T2:51:9Z</time></trkpt>
<trkpt lat="46.23442" lon="7.33175"><ele></ele><time>2016-8-31T2:51:12Z</time></trkpt>
<trkpt lat="46.23442" lon="7.33152"><ele></ele><time>2016-8-31T2:51:15Z</time></trkpt>
<trkpt lat="46.23442" lon="7.3314"><ele></ele><time>2016-8-31T2:51:18Z</time></trkpt>
<trkpt lat="46.23439" lon="7.33127"><ele></ele><time>2016-8-31T2:51:21Z</time></trkpt>
<trkpt lat="46.23432" lon="7.33102"><ele></ele><time>2016-8-31T2:51:24Z</time></trkpt>
<trkpt lat="46.23429" lon="7.33089"><ele></ele><time>2016-8-31T2:51:27Z</time></trkpt>
<trkpt lat="46.23423" lon="7.33076"><ele></ele><time>2016-8-31T2:51:30Z</time></trkpt>
<trkpt lat="46.23414" lon="7.33075"><ele></ele><time>2016-8-31T2:51:33Z</time></trkpt>
<trkpt lat="46.23408" lon="7.33067"><ele></ele><time>2016-8-31T2:51:36Z</time></trkpt>
<trkpt lat="46.23402" lon="7.33058"><ele></ele><time>2016-8-31T2:51:39Z</time></trkpt>
<trkpt lat="46.23391" lon="7.33053"><ele></ele><time>2016-8-31T2:51:42Z</time></trkpt>
<trkpt lat="46.2338" lon="7.33048"><ele></ele><time>2016-8-31T2:51:45Z</time></trkpt>
<trkpt lat="46.23374" lon="7.33037"><ele></ele><time>2016-8-31T2:51:48Z</time></trkpt>
<trkpt lat="46.23369" lon="7.33026"><ele></ele><time>2016-8-31T2:51:51Z</time></trkpt>
<trkpt lat="46.23363" lon="7.33014"><ele></ele><time>2016-8-31T2:51:54Z</time></trkpt>
<trkpt lat="46.2335" lon="7.33003"><ele></ele><time>2016-8-31T2:51:57Z</time></trkpt>
<trkpt lat="46.23344" lon="7.32991"><ele></ele><time>2016-8-31T2:52:0Z</time></trkpt>
<trkpt lat="46.23336" lon="7.32966"><ele></ele><time>2016-8-31T2:52:3Z</time></trkpt>
<trkpt lat="46.23332" lon="7.32953"><ele></ele><time>2016-8-31T2:52:6Z</time></trkpt>
<trkpt lat="46.23328" lon="7.3294"><ele></ele><time>2016-8-31T2:52:9Z</time></trkpt>
<trkpt lat="46.23323" lon="7.32915"><ele></ele><time>2016-8-31T2:52:12Z</time></trkpt>
<trkpt lat="46.23319" lon="7.32891"><ele></ele><time>2016-8-31T2:52:15Z</time></trkpt>
<trkpt lat="46.23317" lon="7.32878"><ele></ele><time>2016-8-31T2:52:18Z</time></trkpt>
<trkpt lat="46.23315" lon="7.32866"><ele></ele><time>2016-8-31T2:52:21Z</time></trkpt>
<trkpt lat="46.23311" lon="7.3284"><ele></ele><time>2016-8-31T2:52:24Z</time></trkpt>
<trkpt lat="46.23306" lon="7.32814"><ele></ele><time>2016-8-31T2:52:27Z</time></trkpt>
<trkpt lat="46.23304" lon="7.32801"><ele></ele><time>2016-8-31T2:52:30Z</time></trkpt>
<trkpt lat="46.23301" lon="7.32782"><ele></ele><time>2016-8-31T2:52:33Z</time></trkpt>
<trkpt lat="46.23295" lon="7.32742"><ele></ele><time>2016-8-31T2:52:36Z</time></trkpt>
<trkpt lat="46.23291" lon="7.32722"><ele></ele><time>2016-8-31T2:52:39Z</time></trkpt>
<trkpt lat="46.23288" lon="7.32705"><ele></ele><time>2016-8-31T2:52:42Z</time></trkpt>
<trkpt lat="46.23283" lon="7.32671"><ele></ele><time>2016-8-31T2:52:45Z</time></trkpt>
<trkpt lat="46.2328" lon="7.32654"><ele></ele><time>2016-8-31T2:52:48Z</time></trkpt>
<trkpt lat="46.23276" lon="7.32636"><ele></ele><time>2016-8-31T2:52:51Z</time></trkpt>
<trkpt lat="46.23269" lon="7.32599"><ele></ele><time>2016-8-31T2:52:54Z</time></trkpt>
<trkpt lat="46.23265" lon="7.32581"><ele></ele><time>2016-8-31T2:52:57Z</time></trkpt>
<trkpt lat="46.2326" lon="7.32563"><ele></ele><time>2016-8-31T2:53:0Z</time></trkpt>
<trkpt lat="46.2325" lon="7.32526"><ele></ele><time>2016-8-31T2:53:3Z</time></trkpt>
<trkpt lat="46.23245" lon="7.32507"><ele></ele><time>2016-8-31T2:53:6Z</time></trkpt>
<trkpt lat="46.23238" lon="7.32493"><ele></ele><time>2016-8-31T2:53:9Z</time></trkpt>
<trkpt lat="46.23225" lon="7.32465"><ele></ele><time>2016-8-31T2:53:12Z</time></trkpt>
<trkpt lat="46.23219" lon="7.32451"><ele></ele><time>2016-8-31T2:53:15Z</time></trkpt>
<trkpt lat="46.23211" lon="7.32436"><ele></ele><time>2016-8-31T2:53:18Z</time></trkpt>
<trkpt lat="46.23203" lon="7.32421"><ele></ele><time>2016-8-31T2:53:21Z</time></trkpt>
<trkpt lat="46.23195" lon="7.32406"><ele></ele><time>2016-8-31T2:53:24Z</time></trkpt>
<trkpt lat="46.23186" lon="7.32373"><ele></ele><time>2016-8-31T2:53:27Z</time></trkpt>
<trkpt lat="46.23177" lon="7.32339"><ele></ele><time>2016-8-31T2:53:30Z</time></trkpt>
<trkpt lat="46.23172" lon="7.32319"><ele></ele><time>2016-8-31T2:53:33Z</time></trkpt>
<trkpt lat="46.23167" lon="7.32298"><ele></ele><time>2016-8-31T2:53:36Z</time></trkpt>
<trkpt lat="46.23163" lon="7.32277"><ele></ele><time>2016-8-31T2:53:39Z</time></trkpt>
<trkpt lat="46.23158" lon="7.32257"><ele></ele><time>2016-8-31T2:53:42Z</time></trkpt>
<trkpt lat="46.23148" lon="7.32216"><ele></ele><time>2016-8-31T2:53:45Z</time></trkpt>
<trkpt lat="46.23144" lon="7.32199"><ele></ele><time>2016-8-31T2:53:48Z</time></trkpt>
<trkpt lat="46.2314" lon="7.32183"><ele></ele><time>2016-8-31T2:53:51Z</time></trkpt>
<trkpt lat="46.23132" lon="7.32151"><ele></ele><time>2016-8-31T2:53:54Z</time></trkpt>
<trkpt lat="46.23128" lon="7.3213"><ele></ele><time>2016-8-31T2:53:57Z</time></trkpt>
<trkpt lat="46.23131" lon="7.32119"><ele></ele><time>2016-8-31T2:54:0Z</time></trkpt>
<trkpt lat="46.23134" lon="7.32108"><ele></ele><time>2016-8-31T2:54:3Z</time></trkpt>
<trkpt lat="46.2314" lon="7.32085"><ele></ele><time>2016-8-31T2:54:6Z</time></trkpt>
<trkpt lat="46.23147" lon="7.32062"><ele></ele><time>2016-8-31T2:54:9Z</time></trkpt>
<trkpt lat="46.23152" lon="7.32042"><ele></ele><time>2016-8-31T2:54:12Z</time></trkpt>
<trkpt lat="46.23157" lon="7.32022"><ele></ele><time>2016-8-31T2:54:15Z</time></trkpt>
<trkpt lat="46.23162" lon="7.32002"><ele></ele><time>2016-8-31T2:54:18Z</time></trkpt>
<trkpt lat="46.23164" lon="7.31992"><ele></ele><time>2016-8-31T2:54:21Z</time></trkpt>
<trkpt lat="46.23163" lon="7.31983"><ele></ele><time>2016-8-31T2:54:24Z</time></trkpt>
<trkpt lat="46.2316" lon="7.31965"><ele></ele><time>2016-8-31T2:54:27Z</time></trkpt>
<trkpt lat="46.23157" lon="7.31947"><ele></ele><time>2016-8-31T2:54:30Z</time></trkpt>
<trkpt lat="46.23154" lon="7.31929"><ele></ele><time>2016-8-31T2:54:33Z</time></trkpt>
<trkpt lat="46.23148" lon="7.31909"><ele></ele><time>2016-8-31T2:54:36Z</time></trkpt>
<trkpt lat="46.23143" lon="7.3189"><ele></ele><time>2016-8-31T2:54:39Z</time></trkpt>
<trkpt lat="46.2314" lon="7.3188"><ele></ele><time>2016-8-31T2:54:42Z</time></trkpt>
<trkpt lat="46.23141" lon="7.3187"><ele></ele><time>2016-8-31T2:54:45Z</time></trkpt>
<trkpt lat="46.2315" lon="7.31855"><ele></ele><time>2016-8-31T2:54:48Z</time></trkpt>
<trkpt lat="46.2316" lon="7.31842"><ele></ele><time>2016-8-31T2:54:51Z</time></trkpt>
<trkpt lat="46.2317" lon="7.31828"><ele></ele><time>2016-8-31T2:54:54Z</time></trkpt>
<trkpt lat="46.23175" lon="7.31821"><ele></ele><time>2016-8-31T2:54:57Z</time></trkpt>
<trkpt lat="46.23179" lon="7.31816"><ele></ele><time>2016-8-31T2:55:0Z</time></trkpt>
<trkpt lat="46.23185" lon="7.31815"><ele></ele><time>2016-8-31T2:55:3Z</time></trkpt>
<trkpt lat="46.23188" lon="7.3181"><ele></ele><time>2016-8-31T2:55:6Z</time></trkpt>
<trkpt lat="46.2319" lon="7.31803"><ele></ele><time>2016-8-31T2:55:9Z</time></trkpt>
<trkpt lat="46.23185" lon="7.31786"><ele></ele><time>2016-8-31T2:55:12Z</time></trkpt>
<trkpt lat="46.23189" lon="7.31791"><ele></ele><time>2016-8-31T2:55:15Z</time></trkpt>
<trkpt lat="46.23189" lon="7.31787"><ele></ele><time>2016-8-31T2:55:18Z</time></trkpt>
<trkpt lat="46.23188" lon="7.31773"><ele></ele><time>2016-8-31T2:55:21Z</time></trkpt>
<trkpt lat="46.23187" lon="7.31767"><ele></ele><time>2016-8-31T2:55:24Z</time></trkpt>
<trkpt lat="46.23183" lon="7.31761"><ele></ele><time>2016-8-31T2:55:27Z</time></trkpt>
<trkpt lat="46.23181" lon="7.31746"><ele></ele><time>2016-8-31T2:55:30Z</time></trkpt>
<trkpt lat="46.23181" lon="7.31731"><ele></ele><time>2016-8-31T2:55:33Z</time></trkpt>
<trkpt lat="46.23181" lon="7.31715"><ele></ele><time>2016-8-31T2:55:36Z</time></trkpt>
<trkpt lat="46.23181" lon="7.317"><ele></ele><time>2016-8-31T2:55:39Z</time></trkpt>
<trkpt lat="46.23181" lon="7.31692"><ele></ele><time>2016-8-31T2:55:42Z</time></trkpt>
<trkpt lat="46.23181" lon="7.31685"><ele></ele><time>2016-8-31T2:55:45Z</time></trkpt>
<trkpt lat="46.23181" lon="7.31671"><ele></ele><time>2016-8-31T2:55:48Z</time></trkpt>
<trkpt lat="46.23181" lon="7.31657"><ele></ele><time>2016-8-31T2:55:51Z</time></trkpt>
<trkpt lat="46.23181" lon="7.31643"><ele></ele><time>2016-8-31T2:55:54Z</time></trkpt>
<trkpt lat="46.23181" lon="7.31629"><ele></ele><time>2016-8-31T2:55:57Z</time></trkpt>
<trkpt lat="46.23181" lon="7.31622"><ele></ele><time>2016-8-31T2:56:0Z</time></trkpt>
<trkpt lat="46.23182" lon="7.31614"><ele></ele><time>2016-8-31T2:56:3Z</time></trkpt>
<trkpt lat="46.23182" lon="7.316"><ele></ele><time>2016-8-31T2:56:6Z</time></trkpt>
<trkpt lat="46.23182" lon="7.31586"><ele></ele><time>2016-8-31T2:56:9Z</time></trkpt>
<trkpt lat="46.23183" lon="7.31571"><ele></ele><time>2016-8-31T2:56:12Z</time></trkpt>
<trkpt lat="46.23183" lon="7.31557"><ele></ele><time>2016-8-31T2:56:15Z</time></trkpt>
<trkpt lat="46.23184" lon="7.31545"><ele></ele><time>2016-8-31T2:56:18Z</time></trkpt>
<trkpt lat="46.23185" lon="7.31533"><ele></ele><time>2016-8-31T2:56:21Z</time></trkpt>
<trkpt lat="46.23185" lon="7.31521"><ele></ele><time>2016-8-31T2:56:24Z</time></trkpt>
<trkpt lat="46.23186" lon="7.31509"><ele></ele><time>2016-8-31T2:56:27Z</time></trkpt>
<trkpt lat="46.23186" lon="7.31497"><ele></ele><time>2016-8-31T2:56:30Z</time></trkpt>
<trkpt lat="46.23187" lon="7.31491"><ele></ele><time>2016-8-31T2:56:33Z</time></trkpt>
<trkpt lat="46.23187" lon="7.31485"><ele></ele><time>2016-8-31T2:56:36Z</time></trkpt>
<trkpt lat="46.23188" lon="7.31474"><ele></ele><time>2016-8-31T2:56:39Z</time></trkpt>
<trkpt lat="46.23188" lon="7.31463"><ele></ele><time>2016-8-31T2:56:42Z</time></trkpt>
<trkpt lat="46.23189" lon="7.31452"><ele></ele><time>2016-8-31T2:56:45Z</time></trkpt>
<trkpt lat="46.2319" lon="7.3144"><ele></ele><time>2016-8-31T2:56:48Z</time></trkpt>
<trkpt lat="46.2319" lon="7.31429"><ele></ele><time>2016-8-31T2:56:51Z</time></trkpt>
<trkpt lat="46.2319" lon="7.31423"><ele></ele><time>2016-8-31T2:56:54Z</time></trkpt>
<trkpt lat="46.23191" lon="7.31418"><ele></ele><time>2016-8-31T2:56:57Z</time></trkpt>
<trkpt lat="46.23192" lon="7.31406"><ele></ele><time>2016-8-31T2:57:0Z</time></trkpt>
<trkpt lat="46.23193" lon="7.31395"><ele></ele><time>2016-8-31T2:57:3Z</time></trkpt>
<trkpt lat="46.23194" lon="7.31383"><ele></ele><time>2016-8-31T2:57:6Z</time></trkpt>
<trkpt lat="46.23195" lon="7.31372"><ele></ele><time>2016-8-31T2:57:9Z</time></trkpt>
<trkpt lat="46.23196" lon="7.3136"><ele></ele><time>2016-8-31T2:57:12Z</time></trkpt>
<trkpt lat="46.23197" lon="7.31355"><ele></ele><time>2016-8-31T2:57:15Z</time></trkpt>
<trkpt lat="46.23197" lon="7.31349"><ele></ele><time>2016-8-31T2:57:18Z</time></trkpt>
<trkpt lat="46.23198" lon="7.31339"><ele></ele><time>2016-8-31T2:57:21Z</time></trkpt>
<trkpt lat="46.23199" lon="7.31329"><ele></ele><time>2016-8-31T2:57:24Z</time></trkpt>
<trkpt lat="46.232" lon="7.31318"><ele></ele><time>2016-8-31T2:57:27Z</time></trkpt>
<trkpt lat="46.23201" lon="7.31308"><ele></ele><time>2016-8-31T2:57:30Z</time></trkpt>
<trkpt lat="46.23201" lon="7.31298"><ele></ele><time>2016-8-31T2:57:33Z</time></trkpt>
<trkpt lat="46.23202" lon="7.31293"><ele></ele><time>2016-8-31T2:57:36Z</time></trkpt>
<trkpt lat="46.23202" lon="7.31287"><ele></ele><time>2016-8-31T2:57:39Z</time></trkpt>
<trkpt lat="46.23203" lon="7.3128"><ele></ele><time>2016-8-31T2:57:42Z</time></trkpt>
<trkpt lat="46.23203" lon="7.31273"><ele></ele><time>2016-8-31T2:57:45Z</time></trkpt>
<trkpt lat="46.23203" lon="7.31267"><ele></ele><time>2016-8-31T2:57:48Z</time></trkpt>
<trkpt lat="46.2321" lon="7.31264"><ele></ele><time>2016-8-31T2:57:51Z</time></trkpt>
<trkpt lat="46.23217" lon="7.31262"><ele></ele><time>2016-8-31T2:57:54Z</time></trkpt>
<trkpt lat="46.23224" lon="7.31259"><ele></ele><time>2016-8-31T2:57:57Z</time></trkpt>
<trkpt lat="46.23231" lon="7.31257"><ele></ele><time>2016-8-31T2:58:0Z</time></trkpt>
<trkpt lat="46.23238" lon="7.31255"><ele></ele><time>2016-8-31T2:58:3Z</time></trkpt>
<trkpt lat="46.23246" lon="7.31252"><ele></ele><time>2016-8-31T2:58:6Z</time></trkpt>
<trkpt lat="46.23249" lon="7.31251"><ele></ele><time>2016-8-31T2:58:9Z</time></trkpt>
<trkpt lat="46.23251" lon="7.3125"><ele></ele><time>2016-8-31T2:58:12Z</time></trkpt>
<trkpt lat="46.23255" lon="7.31249"><ele></ele><time>2016-8-31T2:58:15Z</time></trkpt>
<trkpt lat="46.23256" lon="7.31243"><ele></ele><time>2016-8-31T2:58:18Z</time></trkpt>
<trkpt lat="46.23256" lon="7.31241"><ele></ele><time>2016-8-31T2:58:21Z</time></trkpt>
<trkpt lat="46.2326" lon="7.31234"><ele></ele><time>2016-8-31T2:58:24Z</time></trkpt>
<trkpt lat="46.23257" lon="7.31223"><ele></ele><time>2016-8-31T2:58:27Z</time></trkpt>
<trkpt lat="46.23253" lon="7.31212"><ele></ele><time>2016-8-31T2:58:30Z</time></trkpt>
<trkpt lat="46.23249" lon="7.31202"><ele></ele><time>2016-8-31T2:58:33Z</time></trkpt>
<trkpt lat="46.23244" lon="7.31198"><ele></ele><time>2016-8-31T2:58:36Z</time></trkpt>
<trkpt lat="46.23242" lon="7.31194"><ele></ele><time>2016-8-31T2:58:39Z</time></trkpt>
<trkpt lat="46.2324" lon="7.31185"><ele></ele><time>2016-8-31T2:58:42Z</time></trkpt>
<trkpt lat="46.23237" lon="7.31176"><ele></ele><time>2016-8-31T2:58:45Z</time></trkpt>
<trkpt lat="46.23235" lon="7.31167"><ele></ele><time>2016-8-31T2:58:48Z</time></trkpt>
<trkpt lat="46.23233" lon="7.31158"><ele></ele><time>2016-8-31T2:58:51Z</time></trkpt>
<trkpt lat="46.2323" lon="7.3115"><ele></ele><time>2016-8-31T2:58:54Z</time></trkpt>
<trkpt lat="46.2323" lon="7.31126"><ele></ele><time>2016-8-31T2:58:57Z</time></trkpt>
<trkpt lat="46.2323" lon="7.31126"><ele></ele><time>2016-8-31T2:59:0Z</time></trkpt>
<trkpt lat="46.23233" lon="7.31112"><ele></ele><time>2016-8-31T2:59:3Z</time></trkpt>
<trkpt lat="46.23237" lon="7.31109"><ele></ele><time>2016-8-31T2:59:6Z</time></trkpt>
<trkpt lat="46.23242" lon="7.31106"><ele></ele><time>2016-8-31T2:59:9Z</time></trkpt>
<trkpt lat="46.23248" lon="7.31104"><ele></ele><time>2016-8-31T2:59:12Z</time></trkpt>
<trkpt lat="46.23253" lon="7.31101"><ele></ele><time>2016-8-31T2:59:15Z</time></trkpt>
<trkpt lat="46.23258" lon="7.31098"><ele></ele><time>2016-8-31T2:59:18Z</time></trkpt>
<trkpt lat="46.23263" lon="7.31096"><ele></ele><time>2016-8-31T2:59:21Z</time></trkpt>
<trkpt lat="46.23268" lon="7.31093"><ele></ele><time>2016-8-31T2:59:24Z</time></trkpt>
<trkpt lat="46.23273" lon="7.3109"><ele></ele><time>2016-8-31T2:59:27Z</time></trkpt>
<trkpt lat="46.23275" lon="7.31089"><ele></ele><time>2016-8-31T2:59:30Z</time></trkpt>
<trkpt lat="46.23278" lon="7.31087"><ele></ele><time>2016-8-31T2:59:33Z</time></trkpt>
<trkpt lat="46.23284" lon="7.31084"><ele></ele><time>2016-8-31T2:59:36Z</time></trkpt>
<trkpt lat="46.23291" lon="7.3108"><ele></ele><time>2016-8-31T2:59:39Z</time></trkpt>
<trkpt lat="46.23297" lon="7.31077"><ele></ele><time>2016-8-31T2:59:42Z</time></trkpt>
<trkpt lat="46.23303" lon="7.31073"><ele></ele><time>2016-8-31T2:59:45Z</time></trkpt>
<trkpt lat="46.23309" lon="7.3107"><ele></ele><time>2016-8-31T2:59:48Z</time></trkpt>
<trkpt lat="46.23315" lon="7.31067"><ele></ele><time>2016-8-31T2:59:51Z</time></trkpt>
<trkpt lat="46.23318" lon="7.31065"><ele></ele><time>2016-8-31T2:59:54Z</time></trkpt>
<trkpt lat="46.23322" lon="7.31064"><ele></ele><time>2016-8-31T2:59:57Z</time></trkpt>
<trkpt lat="46.2333" lon="7.31061"><ele></ele><time>2016-8-31T3:0:0Z</time></trkpt>
<trkpt lat="46.23337" lon="7.31059"><ele></ele><time>2016-8-31T3:0:3Z</time></trkpt>
<trkpt lat="46.23344" lon="7.31057"><ele></ele><time>2016-8-31T3:0:6Z</time></trkpt>
<trkpt lat="46.23352" lon="7.31054"><ele></ele><time>2016-8-31T3:0:9Z</time></trkpt>
<trkpt lat="46.23359" lon="7.31052"><ele></ele><time>2016-8-31T3:0:12Z</time></trkpt>
<trkpt lat="46.23367" lon="7.3105"><ele></ele><time>2016-8-31T3:0:15Z</time></trkpt>
<trkpt lat="46.23374" lon="7.31047"><ele></ele><time>2016-8-31T3:0:18Z</time></trkpt>
<trkpt lat="46.23378" lon="7.31046"><ele></ele><time>2016-8-31T3:0:21Z</time></trkpt>
<trkpt lat="46.23382" lon="7.31045"><ele></ele><time>2016-8-31T3:0:24Z</time></trkpt>
<trkpt lat="46.23388" lon="7.31044"><ele></ele><time>2016-8-31T3:0:27Z</time></trkpt>
<trkpt lat="46.23395" lon="7.31043"><ele></ele><time>2016-8-31T3:0:30Z</time></trkpt>
<trkpt lat="46.23401" lon="7.31041"><ele></ele><time>2016-8-31T3:0:33Z</time></trkpt>
<trkpt lat="46.23408" lon="7.3104"><ele></ele><time>2016-8-31T3:0:36Z</time></trkpt>
<trkpt lat="46.23415" lon="7.31039"><ele></ele><time>2016-8-31T3:0:39Z</time></trkpt>
<trkpt lat="46.23421" lon="7.31037"><ele></ele><time>2016-8-31T3:0:42Z</time></trkpt>
<trkpt lat="46.23425" lon="7.31037"><ele></ele><time>2016-8-31T3:0:45Z</time></trkpt>
<trkpt lat="46.23427" lon="7.31035"><ele></ele><time>2016-8-31T3:0:48Z</time></trkpt>
<trkpt lat="46.23432" lon="7.31031"><ele></ele><time>2016-8-31T3:0:51Z</time></trkpt>
<trkpt lat="46.23437" lon="7.31026"><ele></ele><time>2016-8-31T3:0:54Z</time></trkpt>
<trkpt lat="46.23441" lon="7.31022"><ele></ele><time>2016-8-31T3:0:57Z</time></trkpt>
<trkpt lat="46.23444" lon="7.3102"><ele></ele><time>2016-8-31T3:1:0Z</time></trkpt>
<trkpt lat="46.23446" lon="7.31018"><ele></ele><time>2016-8-31T3:1:3Z</time></trkpt>
<trkpt lat="46.23451" lon="7.31014"><ele></ele><time>2016-8-31T3:1:6Z</time></trkpt>
<trkpt lat="46.23455" lon="7.3101"><ele></ele><time>2016-8-31T3:1:9Z</time></trkpt>
<trkpt lat="46.23458" lon="7.31008"><ele></ele><time>2016-8-31T3:1:12Z</time></trkpt>
<trkpt lat="46.23459" lon="7.31004"><ele></ele><time>2016-8-31T3:1:15Z</time></trkpt>
<trkpt lat="46.23463" lon="7.30994"><ele></ele><time>2016-8-31T3:1:18Z</time></trkpt>
<trkpt lat="46.23467" lon="7.30984"><ele></ele><time>2016-8-31T3:1:21Z</time></trkpt>
<trkpt lat="46.2347" lon="7.30975"><ele></ele><time>2016-8-31T3:1:24Z</time></trkpt>
<trkpt lat="46.23472" lon="7.3097"><ele></ele><time>2016-8-31T3:1:27Z</time></trkpt>
<trkpt lat="46.23472" lon="7.30966"><ele></ele><time>2016-8-31T3:1:30Z</time></trkpt>
<trkpt lat="46.23471" lon="7.30956"><ele></ele><time>2016-8-31T3:1:33Z</time></trkpt>
<trkpt lat="46.2347" lon="7.30947"><ele></ele><time>2016-8-31T3:1:36Z</time></trkpt>
<trkpt lat="46.2347" lon="7.30942"><ele></ele><time>2016-8-31T3:1:39Z</time></trkpt>
<trkpt lat="46.23468" lon="7.30939"><ele></ele><time>2016-8-31T3:1:42Z</time></trkpt>
<trkpt lat="46.23464" lon="7.30934"><ele></ele><time>2016-8-31T3:1:45Z</time></trkpt>
<trkpt lat="46.2346" lon="7.30928"><ele></ele><time>2016-8-31T3:1:48Z</time></trkpt>
<trkpt lat="46.23457" lon="7.30922"><ele></ele><time>2016-8-31T3:1:51Z</time></trkpt>
<trkpt lat="46.23455" lon="7.30919"><ele></ele><time>2016-8-31T3:1:54Z</time></trkpt>
<trkpt lat="46.23453" lon="7.30916"><ele></ele><time>2016-8-31T3:1:57Z</time></trkpt>
<trkpt lat="46.23449" lon="7.30911"><ele></ele><time>2016-8-31T3:2:0Z</time></trkpt>
<trkpt lat="46.23445" lon="7.30905"><ele></ele><time>2016-8-31T3:2:3Z</time></trkpt>
<trkpt lat="46.23442" lon="7.30899"><ele></ele><time>2016-8-31T3:2:6Z</time></trkpt>
<trkpt lat="46.23438" lon="7.30893"><ele></ele><time>2016-8-31T3:2:9Z</time></trkpt>
<trkpt lat="46.23434" lon="7.30891"><ele></ele><time>2016-8-31T3:2:12Z</time></trkpt>
<trkpt lat="46.2343" lon="7.30889"><ele></ele><time>2016-8-31T3:2:15Z</time></trkpt>
<trkpt lat="46.23427" lon="7.30887"><ele></ele><time>2016-8-31T3:2:18Z</time></trkpt>
<trkpt lat="46.23423" lon="7.30885"><ele></ele><time>2016-8-31T3:2:21Z</time></trkpt>
<trkpt lat="46.23421" lon="7.30884"><ele></ele><time>2016-8-31T3:2:24Z</time></trkpt>
<trkpt lat="46.23419" lon="7.30883"><ele></ele><time>2016-8-31T3:2:27Z</time></trkpt>
<trkpt lat="46.23416" lon="7.30882"><ele></ele><time>2016-8-31T3:2:30Z</time></trkpt>
<trkpt lat="46.23414" lon="7.30881"><ele></ele><time>2016-8-31T3:2:33Z</time></trkpt>
<trkpt lat="46.23412" lon="7.3088"><ele></ele><time>2016-8-31T3:2:36Z</time></trkpt>
<trkpt lat="46.23409" lon="7.30878"><ele></ele><time>2016-8-31T3:2:39Z</time></trkpt>
<trkpt lat="46.23405" lon="7.30877"><ele></ele><time>2016-8-31T3:2:42Z</time></trkpt>
<trkpt lat="46.23402" lon="7.30875"><ele></ele><time>2016-8-31T3:2:45Z</time></trkpt>
<trkpt lat="46.23399" lon="7.30873"><ele></ele><time>2016-8-31T3:2:48Z</time></trkpt>
<trkpt lat="46.23395" lon="7.30872"><ele></ele><time>2016-8-31T3:2:51Z</time></trkpt>
<trkpt lat="46.23392" lon="7.3087"><ele></ele><time>2016-8-31T3:2:54Z</time></trkpt>
<trkpt lat="46.23388" lon="7.30868"><ele></ele><time>2016-8-31T3:2:57Z</time></trkpt>
<trkpt lat="46.23385" lon="7.30867"><ele></ele><time>2016-8-31T3:3:0Z</time></trkpt>
<trkpt lat="46.23381" lon="7.30865"><ele></ele><time>2016-8-31T3:3:3Z</time></trkpt>
<trkpt lat="46.23378" lon="7.30863"><ele></ele><time>2016-8-31T3:3:6Z</time></trkpt>
<trkpt lat="46.23374" lon="7.30861"><ele></ele><time>2016-8-31T3:3:9Z</time></trkpt>
<trkpt lat="46.23371" lon="7.30858"><ele></ele><time>2016-8-31T3:3:12Z</time></trkpt>
<trkpt lat="46.23367" lon="7.30856"><ele></ele><time>2016-8-31T3:3:15Z</time></trkpt>
<trkpt lat="46.23365" lon="7.30855"><ele></ele><time>2016-8-31T3:3:18Z</time></trkpt>
<trkpt lat="46.23364" lon="7.30853"><ele></ele><time>2016-8-31T3:3:21Z</time></trkpt>
<trkpt lat="46.23361" lon="7.30849"><ele></ele><time>2016-8-31T3:3:24Z</time></trkpt>
<trkpt lat="46.23358" lon="7.30845"><ele></ele><time>2016-8-31T3:3:27Z</time></trkpt>
<trkpt lat="46.23356" lon="7.30841"><ele></ele><time>2016-8-31T3:3:30Z</time></trkpt>
<trkpt lat="46.23353" lon="7.30837"><ele></ele><time>2016-8-31T3:3:33Z</time></trkpt>
<trkpt lat="46.23351" lon="7.30833"><ele></ele><time>2016-8-31T3:3:36Z</time></trkpt>
<trkpt lat="46.23348" lon="7.3083"><ele></ele><time>2016-8-31T3:3:39Z</time></trkpt>
<trkpt lat="46.23345" lon="7.30826"><ele></ele><time>2016-8-31T3:3:42Z</time></trkpt>
<trkpt lat="46.23343" lon="7.30822"><ele></ele><time>2016-8-31T3:3:45Z</time></trkpt>
<trkpt lat="46.2334" lon="7.30818"><ele></ele><time>2016-8-31T3:3:48Z</time></trkpt>
<trkpt lat="46.23337" lon="7.30814"><ele></ele><time>2016-8-31T3:3:51Z</time></trkpt>
<trkpt lat="46.23335" lon="7.3081"><ele></ele><time>2016-8-31T3:3:54Z</time></trkpt>
<trkpt lat="46.23333" lon="7.30808"><ele></ele><time>2016-8-31T3:3:57Z</time></trkpt>
<trkpt lat="46.23332" lon="7.30806"><ele></ele><time>2016-8-31T3:4:0Z</time></trkpt>
<trkpt lat="46.23331" lon="7.30801"><ele></ele><time>2016-8-31T3:4:3Z</time></trkpt>
<trkpt lat="46.23329" lon="7.30796"><ele></ele><time>2016-8-31T3:4:6Z</time></trkpt>
<trkpt lat="46.23328" lon="7.30791"><ele></ele><time>2016-8-31T3:4:9Z</time></trkpt>
<trkpt lat="46.23326" lon="7.30786"><ele></ele><time>2016-8-31T3:4:12Z</time></trkpt>
<trkpt lat="46.23325" lon="7.30781"><ele></ele><time>2016-8-31T3:4:15Z</time></trkpt>
<trkpt lat="46.23323" lon="7.30776"><ele></ele><time>2016-8-31T3:4:18Z</time></trkpt>
<trkpt lat="46.23322" lon="7.30771"><ele></ele><time>2016-8-31T3:4:21Z</time></trkpt>
<trkpt lat="46.2332" lon="7.30766"><ele></ele><time>2016-8-31T3:4:24Z</time></trkpt>
<trkpt lat="46.2332" lon="7.30764"><ele></ele><time>2016-8-31T3:4:27Z</time></trkpt>
<trkpt lat="46.23319" lon="7.30761"><ele></ele><time>2016-8-31T3:4:30Z</time></trkpt>
<trkpt lat="46.23317" lon="7.30756"><ele></ele><time>2016-8-31T3:4:33Z</time></trkpt>
<trkpt lat="46.23316" lon="7.30751"><ele></ele><time>2016-8-31T3:4:36Z</time></trkpt>
<trkpt lat="46.23315" lon="7.30749"><ele></ele><time>2016-8-31T3:4:39Z</time></trkpt>
<trkpt lat="46.23314" lon="7.30746"><ele></ele><time>2016-8-31T3:4:42Z</time></trkpt>
<trkpt lat="46.23313" lon="7.30742"><ele></ele><time>2016-8-31T3:4:45Z</time></trkpt>
<trkpt lat="46.23311" lon="7.30737"><ele></ele><time>2016-8-31T3:4:48Z</time></trkpt>
<trkpt lat="46.23309" lon="7.30732"><ele></ele><time>2016-8-31T3:4:51Z</time></trkpt>
<trkpt lat="46.23308" lon="7.30727"><ele></ele><time>2016-8-31T3:4:54Z</time></trkpt>
<trkpt lat="46.23306" lon="7.30723"><ele></ele><time>2016-8-31T3:4:57Z</time></trkpt>
<trkpt lat="46.23304" lon="7.30718"><ele></ele><time>2016-8-31T3:5:0Z</time></trkpt>
<trkpt lat="46.23303" lon="7.30713"><ele></ele><time>2016-8-31T3:5:3Z</time></trkpt>
<trkpt lat="46.23302" lon="7.30711"><ele></ele><time>2016-8-31T3:5:6Z</time></trkpt>
<trkpt lat="46.23301" lon="7.30709"><ele></ele><time>2016-8-31T3:5:9Z</time></trkpt>
<trkpt lat="46.233" lon="7.30704"><ele></ele><time>2016-8-31T3:5:12Z</time></trkpt>
<trkpt lat="46.23298" lon="7.30699"><ele></ele><time>2016-8-31T3:5:15Z</time></trkpt>
<trkpt lat="46.23296" lon="7.30694"><ele></ele><time>2016-8-31T3:5:18Z</time></trkpt>
<trkpt lat="46.23295" lon="7.3069"><ele></ele><time>2016-8-31T3:5:21Z</time></trkpt>
<trkpt lat="46.23293" lon="7.30685"><ele></ele><time>2016-8-31T3:5:24Z</time></trkpt>
<trkpt lat="46.23291" lon="7.3068"><ele></ele><time>2016-8-31T3:5:27Z</time></trkpt>
<trkpt lat="46.23289" lon="7.30676"><ele></ele><time>2016-8-31T3:5:30Z</time></trkpt>
<trkpt lat="46.23287" lon="7.30671"><ele></ele><time>2016-8-31T3:5:33Z</time></trkpt>
<trkpt lat="46.23285" lon="7.30664"><ele></ele><time>2016-8-31T3:5:36Z</time></trkpt>
<trkpt lat="46.23284" lon="7.30662"><ele></ele><time>2016-8-31T3:5:39Z</time></trkpt>
<trkpt lat="46.23282" lon="7.30657"><ele></ele><time>2016-8-31T3:5:42Z</time></trkpt>
<trkpt lat="46.2328" lon="7.30652"><ele></ele><time>2016-8-31T3:5:45Z</time></trkpt>
<trkpt lat="46.23278" lon="7.30648"><ele></ele><time>2016-8-31T3:5:48Z</time></trkpt>
<trkpt lat="46.23276" lon="7.30643"><ele></ele><time>2016-8-31T3:5:51Z</time></trkpt>
<trkpt lat="46.23274" lon="7.30638"><ele></ele><time>2016-8-31T3:5:54Z</time></trkpt>
<trkpt lat="46.23273" lon="7.30633"><ele></ele><time>2016-8-31T3:5:57Z</time></trkpt>
<trkpt lat="46.23272" lon="7.30631"><ele></ele><time>2016-8-31T3:6:0Z</time></trkpt>
<trkpt lat="46.23271" lon="7.30628"><ele></ele><time>2016-8-31T3:6:3Z</time></trkpt>
<trkpt lat="46.23271" lon="7.30623"><ele></ele><time>2016-8-31T3:6:6Z</time></trkpt>
<trkpt lat="46.23271" lon="7.30618"><ele></ele><time>2016-8-31T3:6:9Z</time></trkpt>
<trkpt lat="46.23271" lon="7.30612"><ele></ele><time>2016-8-31T3:6:12Z</time></trkpt>
<trkpt lat="46.2327" lon="7.30607"><ele></ele><time>2016-8-31T3:6:15Z</time></trkpt>
<trkpt lat="46.2327" lon="7.30601"><ele></ele><time>2016-8-31T3:6:18Z</time></trkpt>
<trkpt lat="46.2327" lon="7.30596"><ele></ele><time>2016-8-31T3:6:21Z</time></trkpt>
<trkpt lat="46.23269" lon="7.3059"><ele></ele><time>2016-8-31T3:6:24Z</time></trkpt>
<trkpt lat="46.23269" lon="7.30588"><ele></ele><time>2016-8-31T3:6:27Z</time></trkpt>
<trkpt lat="46.23269" lon="7.30585"><ele></ele><time>2016-8-31T3:6:30Z</time></trkpt>
<trkpt lat="46.23269" lon="7.30579"><ele></ele><time>2016-8-31T3:6:33Z</time></trkpt>
<trkpt lat="46.23268" lon="7.30574"><ele></ele><time>2016-8-31T3:6:36Z</time></trkpt>
<trkpt lat="46.23268" lon="7.30568"><ele></ele><time>2016-8-31T3:6:39Z</time></trkpt>
<trkpt lat="46.23268" lon="7.30566"><ele></ele><time>2016-8-31T3:6:42Z</time></trkpt>
<trkpt lat="46.23268" lon="7.30563"><ele></ele><time>2016-8-31T3:6:45Z</time></trkpt>
<trkpt lat="46.23268" lon="7.30559"><ele></ele><time>2016-8-31T3:6:48Z</time></trkpt>
<trkpt lat="46.23269" lon="7.30554"><ele></ele><time>2016-8-31T3:6:51Z</time></trkpt>
<trkpt lat="46.23269" lon="7.30549"><ele></ele><time>2016-8-31T3:6:54Z</time></trkpt>
<trkpt lat="46.23269" lon="7.30545"><ele></ele><time>2016-8-31T3:6:57Z</time></trkpt>
<trkpt lat="46.23269" lon="7.3054"><ele></ele><time>2016-8-31T3:7:0Z</time></trkpt>
<trkpt lat="46.2327" lon="7.30536"><ele></ele><time>2016-8-31T3:7:3Z</time></trkpt>
<trkpt lat="46.2327" lon="7.30533"><ele></ele><time>2016-8-31T3:7:6Z</time></trkpt>
<trkpt lat="46.2327" lon="7.30531"><ele></ele><time>2016-8-31T3:7:9Z</time></trkpt>
<trkpt lat="46.2327" lon="7.30526"><ele></ele><time>2016-8-31T3:7:12Z</time></trkpt>
<trkpt lat="46.2327" lon="7.30522"><ele></ele><time>2016-8-31T3:7:15Z</time></trkpt>
<trkpt lat="46.23271" lon="7.30517"><ele></ele><time>2016-8-31T3:7:18Z</time></trkpt>
<trkpt lat="46.23271" lon="7.30512"><ele></ele><time>2016-8-31T3:7:21Z</time></trkpt>
<trkpt lat="46.23271" lon="7.30508"><ele></ele><time>2016-8-31T3:7:24Z</time></trkpt>
<trkpt lat="46.23271" lon="7.30503"><ele></ele><time>2016-8-31T3:7:27Z</time></trkpt>
<trkpt lat="46.23271" lon="7.30501"><ele></ele><time>2016-8-31T3:7:30Z</time></trkpt>
<trkpt lat="46.23272" lon="7.30498"><ele></ele><time>2016-8-31T3:7:33Z</time></trkpt>
<trkpt lat="46.23272" lon="7.30493"><ele></ele><time>2016-8-31T3:7:36Z</time></trkpt>
<trkpt lat="46.23272" lon="7.30488"><ele></ele><time>2016-8-31T3:7:39Z</time></trkpt>
<trkpt lat="46.23272" lon="7.30483"><ele></ele><time>2016-8-31T3:7:42Z</time></trkpt>
<trkpt lat="46.23272" lon="7.3048"><ele></ele><time>2016-8-31T3:7:45Z</time></trkpt>
<trkpt lat="46.23273" lon="7.30478"><ele></ele><time>2016-8-31T3:7:48Z</time></trkpt>
<trkpt lat="46.23273" lon="7.30472"><ele></ele><time>2016-8-31T3:7:51Z</time></trkpt>
<trkpt lat="46.23273" lon="7.30467"><ele></ele><time>2016-8-31T3:7:54Z</time></trkpt>
<trkpt lat="46.23273" lon="7.30462"><ele></ele><time>2016-8-31T3:7:57Z</time></trkpt>
<trkpt lat="46.23274" lon="7.30457"><ele></ele><time>2016-8-31T3:8:0Z</time></trkpt>
<trkpt lat="46.23274" lon="7.30452"><ele></ele><time>2016-8-31T3:8:3Z</time></trkpt>
<trkpt lat="46.23274" lon="7.30447"><ele></ele><time>2016-8-31T3:8:6Z</time></trkpt>
<trkpt lat="46.23274" lon="7.30442"><ele></ele><time>2016-8-31T3:8:9Z</time></trkpt>
<trkpt lat="46.23275" lon="7.30437"><ele></ele><time>2016-8-31T3:8:12Z</time></trkpt>
<trkpt lat="46.23275" lon="7.30434"><ele></ele><time>2016-8-31T3:8:15Z</time></trkpt>
<trkpt lat="46.23274" lon="7.30431"><ele></ele><time>2016-8-31T3:8:18Z</time></trkpt>
<trkpt lat="46.23273" lon="7.30426"><ele></ele><time>2016-8-31T3:8:21Z</time></trkpt>
<trkpt lat="46.23273" lon="7.3042"><ele></ele><time>2016-8-31T3:8:24Z</time></trkpt>
<trkpt lat="46.23272" lon="7.30415"><ele></ele><time>2016-8-31T3:8:27Z</time></trkpt>
<trkpt lat="46.23271" lon="7.30409"><ele></ele><time>2016-8-31T3:8:30Z</time></trkpt>
<trkpt lat="46.2327" lon="7.30404"><ele></ele><time>2016-8-31T3:8:33Z</time></trkpt>
<trkpt lat="46.23269" lon="7.30398"><ele></ele><time>2016-8-31T3:8:36Z</time></trkpt>
<trkpt lat="46.23268" lon="7.30393"><ele></ele><time>2016-8-31T3:8:39Z</time></trkpt>
<trkpt lat="46.23267" lon="7.30387"><ele></ele><time>2016-8-31T3:8:42Z</time></trkpt>
<trkpt lat="46.23266" lon="7.30382"><ele></ele><time>2016-8-31T3:8:45Z</time></trkpt>
<trkpt lat="46.23265" lon="7.30376"><ele></ele><time>2016-8-31T3:8:48Z</time></trkpt>
<trkpt lat="46.23265" lon="7.3037"><ele></ele><time>2016-8-31T3:8:51Z</time></trkpt>
<trkpt lat="46.23264" lon="7.30365"><ele></ele><time>2016-8-31T3:8:54Z</time></trkpt>
<trkpt lat="46.23263" lon="7.3036"><ele></ele><time>2016-8-31T3:8:57Z</time></trkpt>
<trkpt lat="46.23262" lon="7.30355"><ele></ele><time>2016-8-31T3:9:0Z</time></trkpt>
<trkpt lat="46.23261" lon="7.3035"><ele></ele><time>2016-8-31T3:9:3Z</time></trkpt>
<trkpt lat="46.2326" lon="7.30345"><ele></ele><time>2016-8-31T3:9:6Z</time></trkpt>
<trkpt lat="46.23259" lon="7.3034"><ele></ele><time>2016-8-31T3:9:9Z</time></trkpt>
<trkpt lat="46.23259" lon="7.3032"><ele></ele><time>2016-8-31T3:9:12Z</time></trkpt>
<trkpt lat="46.23259" lon="7.30313"><ele></ele><time>2016-8-31T3:9:15Z</time></trkpt>
<trkpt lat="46.23259" lon="7.30309"><ele></ele><time>2016-8-31T3:9:18Z</time></trkpt>
<trkpt lat="46.23258" lon="7.30305"><ele></ele><time>2016-8-31T3:9:21Z</time></trkpt>
<trkpt lat="46.23258" lon="7.30301"><ele></ele><time>2016-8-31T3:9:24Z</time></trkpt>
<trkpt lat="46.23258" lon="7.30297"><ele></ele><time>2016-8-31T3:9:27Z</time></trkpt>
<trkpt lat="46.23258" lon="7.30295"><ele></ele><time>2016-8-31T3:9:30Z</time></trkpt>
<trkpt lat="46.23257" lon="7.30292"><ele></ele><time>2016-8-31T3:9:33Z</time></trkpt>
<trkpt lat="46.23257" lon="7.30288"><ele></ele><time>2016-8-31T3:9:36Z</time></trkpt>
<trkpt lat="46.23257" lon="7.30284"><ele></ele><time>2016-8-31T3:9:39Z</time></trkpt>
<trkpt lat="46.23257" lon="7.3028"><ele></ele><time>2016-8-31T3:9:42Z</time></trkpt>
<trkpt lat="46.23256" lon="7.30276"><ele></ele><time>2016-8-31T3:9:45Z</time></trkpt>
<trkpt lat="46.23256" lon="7.30272"><ele></ele><time>2016-8-31T3:9:48Z</time></trkpt>
<trkpt lat="46.23256" lon="7.30268"><ele></ele><time>2016-8-31T3:9:51Z</time></trkpt>
<trkpt lat="46.23255" lon="7.30264"><ele></ele><time>2016-8-31T3:9:54Z</time></trkpt>
<trkpt lat="46.23255" lon="7.30262"><ele></ele><time>2016-8-31T3:9:57Z</time></trkpt>
<trkpt lat="46.23256" lon="7.3026"><ele></ele><time>2016-8-31T3:10:0Z</time></trkpt>
<trkpt lat="46.23257" lon="7.30257"><ele></ele><time>2016-8-31T3:10:3Z</time></trkpt>
<trkpt lat="46.23258" lon="7.30257"><ele></ele><time>2016-8-31T3:10:6Z</time></trkpt>
<trkpt lat="46.23259" lon="7.30257"><ele></ele><time>2016-8-31T3:10:9Z</time></trkpt>
<trkpt lat="46.23261" lon="7.30258"><ele></ele><time>2016-8-31T3:10:12Z</time></trkpt>
<trkpt lat="46.23261" lon="7.30258"><ele></ele><time>2016-8-31T3:10:15Z</time></trkpt>
<trkpt lat="46.23263" lon="7.30255"><ele></ele><time>2016-8-31T3:10:18Z</time></trkpt>
<trkpt lat="46.23267" lon="7.30248"><ele></ele><time>2016-8-31T3:10:21Z</time></trkpt>
<trkpt lat="46.23271" lon="7.30241"><ele></ele><time>2016-8-31T3:10:24Z</time></trkpt>
<trkpt lat="46.23274" lon="7.30234"><ele></ele><time>2016-8-31T3:10:27Z</time></trkpt>
<trkpt lat="46.23278" lon="7.30227"><ele></ele><time>2016-8-31T3:10:30Z</time></trkpt>
<trkpt lat="46.23285" lon="7.30225"><ele></ele><time>2016-8-31T3:10:33Z</time></trkpt>
<trkpt lat="46.23292" lon="7.30224"><ele></ele><time>2016-8-31T3:10:36Z</time></trkpt>
<trkpt lat="46.23299" lon="7.30222"><ele></ele><time>2016-8-31T3:10:39Z</time></trkpt>
<trkpt lat="46.23303" lon="7.30222"><ele></ele><time>2016-8-31T3:10:42Z</time></trkpt>
<trkpt lat="46.23304" lon="7.30222"><ele></ele><time>2016-8-31T3:10:45Z</time></trkpt>
<trkpt lat="46.23304" lon="7.30221"><ele></ele><time>2016-8-31T3:10:48Z</time></trkpt>
<trkpt lat="46.23304" lon="7.30221"><ele></ele><time>2016-8-31T3:10:51Z</time></trkpt>
<trkpt lat="46.23305" lon="7.30221"><ele></ele><time>2016-8-31T3:10:54Z</time></trkpt>
<trkpt lat="46.23305" lon="7.30221"><ele></ele><time>2016-8-31T3:10:57Z</time></trkpt>
<trkpt lat="46.23306" lon="7.30223"><ele></ele><time>2016-8-31T3:11:0Z</time></trkpt>
<trkpt lat="46.23309" lon="7.30228"><ele></ele><time>2016-8-31T3:11:3Z</time></trkpt>
<trkpt lat="46.23312" lon="7.30233"><ele></ele><time>2016-8-31T3:11:6Z</time></trkpt>
<trkpt lat="46.23315" lon="7.30238"><ele></ele><time>2016-8-31T3:11:9Z</time></trkpt>
<trkpt lat="46.23318" lon="7.30244"><ele></ele><time>2016-8-31T3:11:12Z</time></trkpt>
<trkpt lat="46.23321" lon="7.30249"><ele></ele><time>2016-8-31T3:11:15Z</time></trkpt>
<trkpt lat="46.23324" lon="7.30254"><ele></ele><time>2016-8-31T3:11:18Z</time></trkpt>
<trkpt lat="46.23327" lon="7.30259"><ele></ele><time>2016-8-31T3:11:21Z</time></trkpt>
<trkpt lat="46.23329" lon="7.30261"><ele></ele><time>2016-8-31T3:11:24Z</time></trkpt>
<trkpt lat="46.2333" lon="7.30264"><ele></ele><time>2016-8-31T3:11:27Z</time></trkpt>
<trkpt lat="46.23332" lon="7.30269"><ele></ele><time>2016-8-31T3:11:30Z</time></trkpt>
<trkpt lat="46.23334" lon="7.30273"><ele></ele><time>2016-8-31T3:11:33Z</time></trkpt>
<trkpt lat="46.23336" lon="7.30278"><ele></ele><time>2016-8-31T3:11:36Z</time></trkpt>
<trkpt lat="46.23338" lon="7.30283"><ele></ele><time>2016-8-31T3:11:39Z</time></trkpt>
<trkpt lat="46.2334" lon="7.30288"><ele></ele><time>2016-8-31T3:11:42Z</time></trkpt>
<trkpt lat="46.23342" lon="7.30292"><ele></ele><time>2016-8-31T3:11:45Z</time></trkpt>
<trkpt lat="46.23343" lon="7.30297"><ele></ele><time>2016-8-31T3:11:48Z</time></trkpt>
<trkpt lat="46.23345" lon="7.30302"><ele></ele><time>2016-8-31T3:11:51Z</time></trkpt>
<trkpt lat="46.23346" lon="7.30304"><ele></ele><time>2016-8-31T3:11:54Z</time></trkpt>
<trkpt lat="46.23347" lon="7.30306"><ele></ele><time>2016-8-31T3:11:57Z</time></trkpt>
<trkpt lat="46.23349" lon="7.30311"><ele></ele><time>2016-8-31T3:12:0Z</time></trkpt>
<trkpt lat="46.23351" lon="7.30316"><ele></ele><time>2016-8-31T3:12:3Z</time></trkpt>
<trkpt lat="46.23352" lon="7.30318"><ele></ele><time>2016-8-31T3:12:6Z</time></trkpt>
<trkpt lat="46.23353" lon="7.30321"><ele></ele><time>2016-8-31T3:12:9Z</time></trkpt>
<trkpt lat="46.23355" lon="7.30325"><ele></ele><time>2016-8-31T3:12:12Z</time></trkpt>
<trkpt lat="46.23356" lon="7.3033"><ele></ele><time>2016-8-31T3:12:15Z</time></trkpt>
<trkpt lat="46.23358" lon="7.30335"><ele></ele><time>2016-8-31T3:12:18Z</time></trkpt>
<trkpt lat="46.23359" lon="7.3034"><ele></ele><time>2016-8-31T3:12:21Z</time></trkpt>
<trkpt lat="46.23361" lon="7.30345"><ele></ele><time>2016-8-31T3:12:24Z</time></trkpt>
<trkpt lat="46.23363" lon="7.3035"><ele></ele><time>2016-8-31T3:12:27Z</time></trkpt>
<trkpt lat="46.23364" lon="7.30355"><ele></ele><time>2016-8-31T3:12:30Z</time></trkpt>
<trkpt lat="46.23365" lon="7.30357"><ele></ele><time>2016-8-31T3:12:33Z</time></trkpt>
<trkpt lat="46.23366" lon="7.30359"><ele></ele><time>2016-8-31T3:12:36Z</time></trkpt>
<trkpt lat="46.23367" lon="7.30364"><ele></ele><time>2016-8-31T3:12:39Z</time></trkpt>
<trkpt lat="46.23369" lon="7.30369"><ele></ele><time>2016-8-31T3:12:42Z</time></trkpt>
<trkpt lat="46.2337" lon="7.30374"><ele></ele><time>2016-8-31T3:12:45Z</time></trkpt>
<trkpt lat="46.23372" lon="7.30379"><ele></ele><time>2016-8-31T3:12:48Z</time></trkpt>
<trkpt lat="46.23374" lon="7.30384"><ele></ele><time>2016-8-31T3:12:51Z</time></trkpt>
<trkpt lat="46.23375" lon="7.30388"><ele></ele><time>2016-8-31T3:12:54Z</time></trkpt>
<trkpt lat="46.23377" lon="7.30393"><ele></ele><time>2016-8-31T3:12:57Z</time></trkpt>
<trkpt lat="46.23378" lon="7.30398"><ele></ele><time>2016-8-31T3:13:0Z</time></trkpt>
<trkpt lat="46.2338" lon="7.30403"><ele></ele><time>2016-8-31T3:13:3Z</time></trkpt>
<trkpt lat="46.23381" lon="7.30408"><ele></ele><time>2016-8-31T3:13:6Z</time></trkpt>
<trkpt lat="46.23383" lon="7.30412"><ele></ele><time>2016-8-31T3:13:9Z</time></trkpt>
<trkpt lat="46.23385" lon="7.30417"><ele></ele><time>2016-8-31T3:13:12Z</time></trkpt>
<trkpt lat="46.23386" lon="7.30422"><ele></ele><time>2016-8-31T3:13:15Z</time></trkpt>
<trkpt lat="46.23388" lon="7.30427"><ele></ele><time>2016-8-31T3:13:18Z</time></trkpt>
<trkpt lat="46.23389" lon="7.30431"><ele></ele><time>2016-8-31T3:13:21Z</time></trkpt>
<trkpt lat="46.23391" lon="7.30436"><ele></ele><time>2016-8-31T3:13:24Z</time></trkpt>
<trkpt lat="46.23392" lon="7.30439"><ele></ele><time>2016-8-31T3:13:27Z</time></trkpt>
<trkpt lat="46.23393" lon="7.3044"><ele></ele><time>2016-8-31T3:13:30Z</time></trkpt>
<trkpt lat="46.23396" lon="7.30444"><ele></ele><time>2016-8-31T3:13:33Z</time></trkpt>
<trkpt lat="46.23399" lon="7.30447"><ele></ele><time>2016-8-31T3:13:36Z</time></trkpt>
<trkpt lat="46.23402" lon="7.30451"><ele></ele><time>2016-8-31T3:13:39Z</time></trkpt>
<trkpt lat="46.23405" lon="7.30454"><ele></ele><time>2016-8-31T3:13:42Z</time></trkpt>
<trkpt lat="46.23408" lon="7.30458"><ele></ele><time>2016-8-31T3:13:45Z</time></trkpt>
<trkpt lat="46.23404" lon="7.30451"><ele></ele><time>2016-8-31T3:13:48Z</time></trkpt>
<trkpt lat="46.23406" lon="7.30454"><ele></ele><time>2016-8-31T3:13:51Z</time></trkpt>
<trkpt lat="46.2341" lon="7.30465"><ele></ele><time>2016-8-31T3:13:54Z</time></trkpt>
<trkpt lat="46.23411" lon="7.30465"><ele></ele><time>2016-8-31T3:13:57Z</time></trkpt>
<trkpt lat="46.23412" lon="7.30465"><ele></ele><time>2016-8-31T3:14:0Z</time></trkpt>
<trkpt lat="46.23413" lon="7.30464"><ele></ele><time>2016-8-31T3:14:3Z</time></trkpt>
<trkpt lat="46.23413" lon="7.30463"><ele></ele><time>2016-8-31T3:14:6Z</time></trkpt>
<trkpt lat="46.23415" lon="7.30465"><ele></ele><time>2016-8-31T3:14:9Z</time></trkpt>
<trkpt lat="46.2342" lon="7.30471"><ele></ele><time>2016-8-31T3:14:12Z</time></trkpt>
<trkpt lat="46.23425" lon="7.30476"><ele></ele><time>2016-8-31T3:14:15Z</time></trkpt>
<trkpt lat="46.23429" lon="7.30481"><ele></ele><time>2016-8-31T3:14:18Z</time></trkpt>
<trkpt lat="46.23434" lon="7.30486"><ele></ele><time>2016-8-31T3:14:21Z</time></trkpt>
<trkpt lat="46.23439" lon="7.30491"><ele></ele><time>2016-8-31T3:14:24Z</time></trkpt>
<trkpt lat="46.23443" lon="7.30496"><ele></ele><time>2016-8-31T3:14:27Z</time></trkpt>
<trkpt lat="46.23448" lon="7.30501"><ele></ele><time>2016-8-31T3:14:30Z</time></trkpt>
<trkpt lat="46.2345" lon="7.30504"><ele></ele><time>2016-8-31T3:14:33Z</time></trkpt>
<trkpt lat="46.23451" lon="7.30504"><ele></ele><time>2016-8-31T3:14:36Z</time></trkpt>
<trkpt lat="46.23452" lon="7.30504"><ele></ele><time>2016-8-31T3:14:39Z</time></trkpt>
<trkpt lat="46.23452" lon="7.30505"><ele></ele><time>2016-8-31T3:14:42Z</time></trkpt>
<trkpt lat="46.23453" lon="7.30505"><ele></ele><time>2016-8-31T3:14:45Z</time></trkpt>
<trkpt lat="46.23454" lon="7.30505"><ele></ele><time>2016-8-31T3:14:48Z</time></trkpt>
<trkpt lat="46.23475" lon="7.30485"><ele></ele><time>2016-8-31T3:14:51Z</time></trkpt>
<trkpt lat="46.23475" lon="7.30485"><ele></ele><time>2016-8-31T3:14:54Z</time></trkpt>
<trkpt lat="46.23495" lon="7.30464"><ele></ele><time>2016-8-31T3:14:57Z</time></trkpt>
<trkpt lat="46.23494" lon="7.30464"><ele></ele><time>2016-8-31T3:15:0Z</time></trkpt>
<trkpt lat="46.23494" lon="7.30465"><ele></ele><time>2016-8-31T3:15:3Z</time></trkpt>
<trkpt lat="46.23494" lon="7.30466"><ele></ele><time>2016-8-31T3:15:6Z</time></trkpt>
<trkpt lat="46.23493" lon="7.30467"><ele></ele><time>2016-8-31T3:15:9Z</time></trkpt>
<trkpt lat="46.23494" lon="7.30461"><ele></ele><time>2016-8-31T3:15:12Z</time></trkpt>
<trkpt lat="46.23494" lon="7.30457"><ele></ele><time>2016-8-31T3:15:15Z</time></trkpt>
<trkpt lat="46.23495" lon="7.30454"><ele></ele><time>2016-8-31T3:15:18Z</time></trkpt>
<trkpt lat="46.23496" lon="7.30447"><ele></ele><time>2016-8-31T3:15:21Z</time></trkpt>
<trkpt lat="46.23497" lon="7.3044"><ele></ele><time>2016-8-31T3:15:24Z</time></trkpt>
<trkpt lat="46.23497" lon="7.30434"><ele></ele><time>2016-8-31T3:15:27Z</time></trkpt>
<trkpt lat="46.23498" lon="7.30427"><ele></ele><time>2016-8-31T3:15:30Z</time></trkpt>
<trkpt lat="46.23499" lon="7.3042"><ele></ele><time>2016-8-31T3:15:33Z</time></trkpt>
<trkpt lat="46.235" lon="7.30413"><ele></ele><time>2016-8-31T3:15:36Z</time></trkpt>
<trkpt lat="46.23501" lon="7.30407"><ele></ele><time>2016-8-31T3:15:39Z</time></trkpt>
<trkpt lat="46.23502" lon="7.304"><ele></ele><time>2016-8-31T3:15:42Z</time></trkpt>
<trkpt lat="46.23502" lon="7.30392"><ele></ele><time>2016-8-31T3:15:45Z</time></trkpt>
<trkpt lat="46.23503" lon="7.30384"><ele></ele><time>2016-8-31T3:15:48Z</time></trkpt>
<trkpt lat="46.23504" lon="7.30375"><ele></ele><time>2016-8-31T3:15:51Z</time></trkpt>
<trkpt lat="46.23504" lon="7.30367"><ele></ele><time>2016-8-31T3:15:54Z</time></trkpt>
<trkpt lat="46.23505" lon="7.30359"><ele></ele><time>2016-8-31T3:15:57Z</time></trkpt>
<trkpt lat="46.23505" lon="7.30351"><ele></ele><time>2016-8-31T3:16:0Z</time></trkpt>
<trkpt lat="46.23506" lon="7.30342"><ele></ele><time>2016-8-31T3:16:3Z</time></trkpt>
<trkpt lat="46.23506" lon="7.30334"><ele></ele><time>2016-8-31T3:16:6Z</time></trkpt>
<trkpt lat="46.23507" lon="7.30326"><ele></ele><time>2016-8-31T3:16:9Z</time></trkpt>
<trkpt lat="46.23508" lon="7.30317"><ele></ele><time>2016-8-31T3:16:12Z</time></trkpt>
<trkpt lat="46.23508" lon="7.30308"><ele></ele><time>2016-8-31T3:16:15Z</time></trkpt>
<trkpt lat="46.23509" lon="7.303"><ele></ele><time>2016-8-31T3:16:18Z</time></trkpt>
<trkpt lat="46.2351" lon="7.30291"><ele></ele><time>2016-8-31T3:16:21Z</time></trkpt>
<trkpt lat="46.2351" lon="7.30282"><ele></ele><time>2016-8-31T3:16:24Z</time></trkpt>
<trkpt lat="46.23511" lon="7.30274"><ele></ele><time>2016-8-31T3:16:27Z</time></trkpt>
<trkpt lat="46.23511" lon="7.3027"><ele></ele><time>2016-8-31T3:16:30Z</time></trkpt>
<trkpt lat="46.23511" lon="7.30266"><ele></ele><time>2016-8-31T3:16:33Z</time></trkpt>
<trkpt lat="46.23509" lon="7.30258"><ele></ele><time>2016-8-31T3:16:36Z</time></trkpt>
<trkpt lat="46.23509" lon="7.30255"><ele></ele><time>2016-8-31T3:16:39Z</time></trkpt>
<trkpt lat="46.23507" lon="7.30255"><ele></ele><time>2016-8-31T3:16:42Z</time></trkpt>
<trkpt lat="46.23505" lon="7.30257"><ele></ele><time>2016-8-31T3:16:45Z</time></trkpt>
<trkpt lat="46.23501" lon="7.30245"><ele></ele><time>2016-8-31T3:16:48Z</time></trkpt>
<trkpt lat="46.23499" lon="7.30239"><ele></ele><time>2016-8-31T3:16:51Z</time></trkpt>
<trkpt lat="46.23494" lon="7.30231"><ele></ele><time>2016-8-31T3:16:54Z</time></trkpt>
<trkpt lat="46.2349" lon="7.30223"><ele></ele><time>2016-8-31T3:16:57Z</time></trkpt>
<trkpt lat="46.23485" lon="7.30215"><ele></ele><time>2016-8-31T3:17:0Z</time></trkpt>
<trkpt lat="46.2348" lon="7.30208"><ele></ele><time>2016-8-31T3:17:3Z</time></trkpt>
<trkpt lat="46.23476" lon="7.302"><ele></ele><time>2016-8-31T3:17:6Z</time></trkpt>
<trkpt lat="46.23471" lon="7.30192"><ele></ele><time>2016-8-31T3:17:9Z</time></trkpt>
<trkpt lat="46.23467" lon="7.30186"><ele></ele><time>2016-8-31T3:17:12Z</time></trkpt>
<trkpt lat="46.23464" lon="7.3018"><ele></ele><time>2016-8-31T3:17:15Z</time></trkpt>
<trkpt lat="46.2346" lon="7.30174"><ele></ele><time>2016-8-31T3:17:18Z</time></trkpt>
<trkpt lat="46.23456" lon="7.30168"><ele></ele><time>2016-8-31T3:17:21Z</time></trkpt>
<trkpt lat="46.23452" lon="7.30162"><ele></ele><time>2016-8-31T3:17:24Z</time></trkpt>
<trkpt lat="46.23448" lon="7.30156"><ele></ele><time>2016-8-31T3:17:27Z</time></trkpt>
<trkpt lat="46.23444" lon="7.3015"><ele></ele><time>2016-8-31T3:17:30Z</time></trkpt>
<trkpt lat="46.2344" lon="7.30144"><ele></ele><time>2016-8-31T3:17:33Z</time></trkpt>
<trkpt lat="46.23437" lon="7.30138"><ele></ele><time>2016-8-31T3:17:36Z</time></trkpt>
<trkpt lat="46.23434" lon="7.30133"><ele></ele><time>2016-8-31T3:17:39Z</time></trkpt>
<trkpt lat="46.23431" lon="7.30128"><ele></ele><time>2016-8-31T3:17:42Z</time></trkpt>
<trkpt lat="46.23428" lon="7.30123"><ele></ele><time>2016-8-31T3:17:45Z</time></trkpt>
<trkpt lat="46.23425" lon="7.30118"><ele></ele><time>2016-8-31T3:17:48Z</time></trkpt>
<trkpt lat="46.23422" lon="7.30113"><ele></ele><time>2016-8-31T3:17:51Z</time></trkpt>
<trkpt lat="46.23419" lon="7.30108"><ele></ele><time>2016-8-31T3:17:54Z</time></trkpt>
<trkpt lat="46.23417" lon="7.30105"><ele></ele><time>2016-8-31T3:17:57Z</time></trkpt>
<trkpt lat="46.23416" lon="7.30102"><ele></ele><time>2016-8-31T3:18:0Z</time></trkpt>
<trkpt lat="46.23414" lon="7.301"><ele></ele><time>2016-8-31T3:18:3Z</time></trkpt>
<trkpt lat="46.23407" lon="7.30075"><ele></ele><time>2016-8-31T3:18:6Z</time></trkpt>
<trkpt lat="46.23412" lon="7.30092"><ele></ele><time>2016-8-31T3:18:9Z</time></trkpt>
<trkpt lat="46.23413" lon="7.30094"><ele></ele><time>2016-8-31T3:18:12Z</time></trkpt>
<trkpt lat="46.23411" lon="7.30089"><ele></ele><time>2016-8-31T3:18:15Z</time></trkpt>
<trkpt lat="46.2341" lon="7.30085"><ele></ele><time>2016-8-31T3:18:18Z</time></trkpt>
<trkpt lat="46.23408" lon="7.3008"><ele></ele><time>2016-8-31T3:18:21Z</time></trkpt>
<trkpt lat="46.23406" lon="7.30076"><ele></ele><time>2016-8-31T3:18:24Z</time></trkpt>
<trkpt lat="46.23405" lon="7.30071"><ele></ele><time>2016-8-31T3:18:27Z</time></trkpt>
<trkpt lat="46.23403" lon="7.30067"><ele></ele><time>2016-8-31T3:18:30Z</time></trkpt>
<trkpt lat="46.23403" lon="7.30065"><ele></ele><time>2016-8-31T3:18:33Z</time></trkpt>
<trkpt lat="46.23401" lon="7.30064"><ele></ele><time>2016-8-31T3:18:36Z</time></trkpt>
<trkpt lat="46.23399" lon="7.30064"><ele></ele><time>2016-8-31T3:18:39Z</time></trkpt>
<trkpt lat="46.23414" lon="7.30051"><ele></ele><time>2016-8-31T3:18:42Z</time></trkpt>
<trkpt lat="46.23396" lon="7.30056"><ele></ele><time>2016-8-31T3:18:45Z</time></trkpt>
<trkpt lat="46.23393" lon="7.30055"><ele></ele><time>2016-8-31T3:18:48Z</time></trkpt>
<trkpt lat="46.23392" lon="7.3005"><ele></ele><time>2016-8-31T3:18:51Z</time></trkpt>
<trkpt lat="46.234" lon="7.30054"><ele></ele><time>2016-8-31T3:18:54Z</time></trkpt>
<trkpt lat="46.234" lon="7.30054"><ele></ele><time>2016-8-31T3:18:57Z</time></trkpt>
<trkpt lat="46.23398" lon="7.30072"><ele></ele><time>2016-8-31T3:19:0Z</time></trkpt>
<trkpt lat="46.234" lon="7.30081"><ele></ele><time>2016-8-31T3:19:3Z</time></trkpt>
<trkpt lat="46.23411" lon="7.30099"><ele></ele><time>2016-8-31T3:19:6Z</time></trkpt>
<trkpt lat="46.23414" lon="7.30099"><ele></ele><time>2016-8-31T3:19:9Z</time></trkpt>
<trkpt lat="46.23411" lon="7.30079"><ele></ele><time>2016-8-31T3:19:12Z</time></trkpt>
<trkpt lat="46.23408" lon="7.30058"><ele></ele><time>2016-8-31T3:19:15Z</time></trkpt>
<trkpt lat="46.23409" lon="7.30055"><ele></ele><time>2016-8-31T3:19:18Z</time></trkpt>
<trkpt lat="46.23412" lon="7.30052"><ele></ele><time>2016-8-31T3:19:21Z</time></trkpt>
<trkpt lat="46.23416" lon="7.30049"><ele></ele><time>2016-8-31T3:19:24Z</time></trkpt>
<trkpt lat="46.23418" lon="7.30053"><ele></ele><time>2016-8-31T3:19:27Z</time></trkpt>
<trkpt lat="46.23421" lon="7.30057"><ele></ele><time>2016-8-31T3:19:30Z</time></trkpt>
<trkpt lat="46.23423" lon="7.30061"><ele></ele><time>2016-8-31T3:19:33Z</time></trkpt>
<trkpt lat="46.23425" lon="7.30065"><ele></ele><time>2016-8-31T3:19:36Z</time></trkpt>
<trkpt lat="46.23427" lon="7.30068"><ele></ele><time>2016-8-31T3:19:39Z</time></trkpt>
<trkpt lat="46.23429" lon="7.3007"><ele></ele><time>2016-8-31T3:19:42Z</time></trkpt>
<trkpt lat="46.2343" lon="7.30072"><ele></ele><time>2016-8-31T3:19:45Z</time></trkpt>
<trkpt lat="46.23432" lon="7.30076"><ele></ele><time>2016-8-31T3:19:48Z</time></trkpt>
<trkpt lat="46.23434" lon="7.3008"><ele></ele><time>2016-8-31T3:19:51Z</time></trkpt>
<trkpt lat="46.23435" lon="7.30082"><ele></ele><time>2016-8-31T3:19:54Z</time></trkpt>
<trkpt lat="46.23436" lon="7.30084"><ele></ele><time>2016-8-31T3:19:57Z</time></trkpt>
<trkpt lat="46.23439" lon="7.30088"><ele></ele><time>2016-8-31T3:20:0Z</time></trkpt>
<trkpt lat="46.23441" lon="7.30092"><ele></ele><time>2016-8-31T3:20:3Z</time></trkpt>
<trkpt lat="46.23443" lon="7.30096"><ele></ele><time>2016-8-31T3:20:6Z</time></trkpt>
<trkpt lat="46.23446" lon="7.30099"><ele></ele><time>2016-8-31T3:20:9Z</time></trkpt>
<trkpt lat="46.23447" lon="7.301"><ele></ele><time>2016-8-31T3:20:12Z</time></trkpt>
<trkpt lat="46.23449" lon="7.30101"><ele></ele><time>2016-8-31T3:20:15Z</time></trkpt>
<trkpt lat="46.23451" lon="7.30101"><ele></ele><time>2016-8-31T3:20:18Z</time></trkpt>
<trkpt lat="46.23453" lon="7.30102"><ele></ele><time>2016-8-31T3:20:21Z</time></trkpt>
<trkpt lat="46.23455" lon="7.30102"><ele></ele><time>2016-8-31T3:20:24Z</time></trkpt>
<trkpt lat="46.23457" lon="7.30103"><ele></ele><time>2016-8-31T3:20:27Z</time></trkpt>
<trkpt lat="46.23459" lon="7.30104"><ele></ele><time>2016-8-31T3:20:30Z</time></trkpt>
<trkpt lat="46.23459" lon="7.301"><ele></ele><time>2016-8-31T3:20:33Z</time></trkpt>
<trkpt lat="46.23459" lon="7.30095"><ele></ele><time>2016-8-31T3:20:36Z</time></trkpt>
<trkpt lat="46.23459" lon="7.30091"><ele></ele><time>2016-8-31T3:20:39Z</time></trkpt>
<trkpt lat="46.23459" lon="7.30087"><ele></ele><time>2016-8-31T3:20:42Z</time></trkpt>
<trkpt lat="46.23459" lon="7.30082"><ele></ele><time>2016-8-31T3:20:45Z</time></trkpt>
<trkpt lat="46.23459" lon="7.30078"><ele></ele><time>2016-8-31T3:20:48Z</time></trkpt>
<trkpt lat="46.23459" lon="7.30074"><ele></ele><time>2016-8-31T3:20:51Z</time></trkpt>
<trkpt lat="46.23459" lon="7.30069"><ele></ele><time>2016-8-31T3:20:54Z</time></trkpt>
<trkpt lat="46.23459" lon="7.30065"><ele></ele><time>2016-8-31T3:20:57Z</time></trkpt>
<trkpt lat="46.23459" lon="7.30063"><ele></ele><time>2016-8-31T3:21:0Z</time></trkpt>
<trkpt lat="46.23459" lon="7.30061"><ele></ele><time>2016-8-31T3:21:3Z</time></trkpt>
<trkpt lat="46.23458" lon="7.30057"><ele></ele><time>2016-8-31T3:21:6Z</time></trkpt>
<trkpt lat="46.23457" lon="7.30053"><ele></ele><time>2016-8-31T3:21:9Z</time></trkpt>
<trkpt lat="46.23457" lon="7.30049"><ele></ele><time>2016-8-31T3:21:12Z</time></trkpt>
<trkpt lat="46.23456" lon="7.30045"><ele></ele><time>2016-8-31T3:21:15Z</time></trkpt>
<trkpt lat="46.23455" lon="7.30041"><ele></ele><time>2016-8-31T3:21:18Z</time></trkpt>
<trkpt lat="46.23455" lon="7.30037"><ele></ele><time>2016-8-31T3:21:21Z</time></trkpt>
<trkpt lat="46.23454" lon="7.30033"><ele></ele><time>2016-8-31T3:21:24Z</time></trkpt>
<trkpt lat="46.23453" lon="7.30029"><ele></ele><time>2016-8-31T3:21:27Z</time></trkpt>
<trkpt lat="46.23453" lon="7.30024"><ele></ele><time>2016-8-31T3:21:30Z</time></trkpt>
<trkpt lat="46.23452" lon="7.3002"><ele></ele><time>2016-8-31T3:21:33Z</time></trkpt>
<trkpt lat="46.23452" lon="7.30018"><ele></ele><time>2016-8-31T3:21:36Z</time></trkpt>
<trkpt lat="46.23451" lon="7.30016"><ele></ele><time>2016-8-31T3:21:39Z</time></trkpt>
<trkpt lat="46.23451" lon="7.30012"><ele></ele><time>2016-8-31T3:21:42Z</time></trkpt>
<trkpt lat="46.2345" lon="7.30008"><ele></ele><time>2016-8-31T3:21:45Z</time></trkpt>
<trkpt lat="46.23449" lon="7.30004"><ele></ele><time>2016-8-31T3:21:48Z</time></trkpt>
<trkpt lat="46.23448" lon="7.3"><ele></ele><time>2016-8-31T3:21:51Z</time></trkpt>
<trkpt lat="46.23448" lon="7.29998"><ele></ele><time>2016-8-31T3:21:54Z</time></trkpt>
<trkpt lat="46.23448" lon="7.29996"><ele></ele><time>2016-8-31T3:21:57Z</time></trkpt>
<trkpt lat="46.23448" lon="7.29992"><ele></ele><time>2016-8-31T3:22:0Z</time></trkpt>
<trkpt lat="46.23447" lon="7.29988"><ele></ele><time>2016-8-31T3:22:3Z</time></trkpt>
<trkpt lat="46.23447" lon="7.29985"><ele></ele><time>2016-8-31T3:22:6Z</time></trkpt>
<trkpt lat="46.23447" lon="7.29981"><ele></ele><time>2016-8-31T3:22:9Z</time></trkpt>
<trkpt lat="46.23447" lon="7.29977"><ele></ele><time>2016-8-31T3:22:12Z</time></trkpt>
<trkpt lat="46.23447" lon="7.29973"><ele></ele><time>2016-8-31T3:22:15Z</time></trkpt>
<trkpt lat="46.23446" lon="7.29969"><ele></ele><time>2016-8-31T3:22:18Z</time></trkpt>
<trkpt lat="46.23446" lon="7.29965"><ele></ele><time>2016-8-31T3:22:21Z</time></trkpt>
<trkpt lat="46.23446" lon="7.29961"><ele></ele><time>2016-8-31T3:22:24Z</time></trkpt>
<trkpt lat="46.23446" lon="7.29957"><ele></ele><time>2016-8-31T3:22:27Z</time></trkpt>
<trkpt lat="46.23445" lon="7.29953"><ele></ele><time>2016-8-31T3:22:30Z</time></trkpt>
<trkpt lat="46.23445" lon="7.29949"><ele></ele><time>2016-8-31T3:22:33Z</time></trkpt>
<trkpt lat="46.23445" lon="7.29945"><ele></ele><time>2016-8-31T3:22:36Z</time></trkpt>
<trkpt lat="46.23445" lon="7.29941"><ele></ele><time>2016-8-31T3:22:39Z</time></trkpt>
<trkpt lat="46.23444" lon="7.29937"><ele></ele><time>2016-8-31T3:22:42Z</time></trkpt>
<trkpt lat="46.23444" lon="7.29933"><ele></ele><time>2016-8-31T3:22:45Z</time></trkpt>
<trkpt lat="46.23444" lon="7.2993"><ele></ele><time>2016-8-31T3:22:48Z</time></trkpt>
<trkpt lat="46.23443" lon="7.29926"><ele></ele><time>2016-8-31T3:22:51Z</time></trkpt>
<trkpt lat="46.23442" lon="7.29923"><ele></ele><time>2016-8-31T3:22:54Z</time></trkpt>
<trkpt lat="46.23442" lon="7.29919"><ele></ele><time>2016-8-31T3:22:57Z</time></trkpt>
<trkpt lat="46.23441" lon="7.29915"><ele></ele><time>2016-8-31T3:23:0Z</time></trkpt>
<trkpt lat="46.23441" lon="7.29912"><ele></ele><time>2016-8-31T3:23:3Z</time></trkpt>
<trkpt lat="46.2344" lon="7.29908"><ele></ele><time>2016-8-31T3:23:6Z</time></trkpt>
<trkpt lat="46.2344" lon="7.29904"><ele></ele><time>2016-8-31T3:23:9Z</time></trkpt>
<trkpt lat="46.23439" lon="7.29901"><ele></ele><time>2016-8-31T3:23:12Z</time></trkpt>
<trkpt lat="46.23438" lon="7.29897"><ele></ele><time>2016-8-31T3:23:15Z</time></trkpt>
<trkpt lat="46.23438" lon="7.29893"><ele></ele><time>2016-8-31T3:23:18Z</time></trkpt>
<trkpt lat="46.23438" lon="7.29892"><ele></ele><time>2016-8-31T3:23:21Z</time></trkpt>
<trkpt lat="46.23437" lon="7.2989"><ele></ele><time>2016-8-31T3:23:24Z</time></trkpt>
<trkpt lat="46.23437" lon="7.29886"><ele></ele><time>2016-8-31T3:23:27Z</time></trkpt>
<trkpt lat="46.23436" lon="7.29883"><ele></ele><time>2016-8-31T3:23:30Z</time></trkpt>
<trkpt lat="46.23436" lon="7.29879"><ele></ele><time>2016-8-31T3:23:33Z</time></trkpt>
<trkpt lat="46.23435" lon="7.29875"><ele></ele><time>2016-8-31T3:23:36Z</time></trkpt>
<trkpt lat="46.23434" lon="7.29872"><ele></ele><time>2016-8-31T3:23:39Z</time></trkpt>
<trkpt lat="46.23434" lon="7.2987"><ele></ele><time>2016-8-31T3:23:42Z</time></trkpt>
<trkpt lat="46.23434" lon="7.29868"><ele></ele><time>2016-8-31T3:23:45Z</time></trkpt>
<trkpt lat="46.23433" lon="7.29864"><ele></ele><time>2016-8-31T3:23:48Z</time></trkpt>
<trkpt lat="46.23432" lon="7.2986"><ele></ele><time>2016-8-31T3:23:51Z</time></trkpt>
<trkpt lat="46.23431" lon="7.29856"><ele></ele><time>2016-8-31T3:23:54Z</time></trkpt>
<trkpt lat="46.2343" lon="7.29852"><ele></ele><time>2016-8-31T3:23:57Z</time></trkpt>
<trkpt lat="46.23429" lon="7.29848"><ele></ele><time>2016-8-31T3:24:0Z</time></trkpt>
<trkpt lat="46.23428" lon="7.29843"><ele></ele><time>2016-8-31T3:24:3Z</time></trkpt>
<trkpt lat="46.23427" lon="7.29839"><ele></ele><time>2016-8-31T3:24:6Z</time></trkpt>
<trkpt lat="46.23426" lon="7.29835"><ele></ele><time>2016-8-31T3:24:9Z</time></trkpt>
<trkpt lat="46.23425" lon="7.29831"><ele></ele><time>2016-8-31T3:24:12Z</time></trkpt>
<trkpt lat="46.23424" lon="7.29827"><ele></ele><time>2016-8-31T3:24:15Z</time></trkpt>
<trkpt lat="46.23424" lon="7.29823"><ele></ele><time>2016-8-31T3:24:18Z</time></trkpt>
<trkpt lat="46.23423" lon="7.29819"><ele></ele><time>2016-8-31T3:24:21Z</time></trkpt>
<trkpt lat="46.23422" lon="7.29815"><ele></ele><time>2016-8-31T3:24:24Z</time></trkpt>
<trkpt lat="46.23421" lon="7.29811"><ele></ele><time>2016-8-31T3:24:27Z</time></trkpt>
<trkpt lat="46.2342" lon="7.29807"><ele></ele><time>2016-8-31T3:24:30Z</time></trkpt>
<trkpt lat="46.2342" lon="7.29803"><ele></ele><time>2016-8-31T3:24:33Z</time></trkpt>
<trkpt lat="46.2342" lon="7.29801"><ele></ele><time>2016-8-31T3:24:36Z</time></trkpt>
<trkpt lat="46.2342" lon="7.29798"><ele></ele><time>2016-8-31T3:24:39Z</time></trkpt>
<trkpt lat="46.23419" lon="7.29794"><ele></ele><time>2016-8-31T3:24:42Z</time></trkpt>
<trkpt lat="46.23419" lon="7.2979"><ele></ele><time>2016-8-31T3:24:45Z</time></trkpt>
<trkpt lat="46.23419" lon="7.29786"><ele></ele><time>2016-8-31T3:24:48Z</time></trkpt>
<trkpt lat="46.23419" lon="7.29782"><ele></ele><time>2016-8-31T3:24:51Z</time></trkpt>
<trkpt lat="46.23419" lon="7.29777"><ele></ele><time>2016-8-31T3:24:54Z</time></trkpt>
<trkpt lat="46.23418" lon="7.29773"><ele></ele><time>2016-8-31T3:24:57Z</time></trkpt>
<trkpt lat="46.23418" lon="7.29769"><ele></ele><time>2016-8-31T3:25:0Z</time></trkpt>
<trkpt lat="46.23418" lon="7.29765"><ele></ele><time>2016-8-31T3:25:3Z</time></trkpt>
<trkpt lat="46.23418" lon="7.2976"><ele></ele><time>2016-8-31T3:25:6Z</time></trkpt>
<trkpt lat="46.23418" lon="7.29756"><ele></ele><time>2016-8-31T3:25:9Z</time></trkpt>
<trkpt lat="46.23417" lon="7.29752"><ele></ele><time>2016-8-31T3:25:12Z</time></trkpt>
<trkpt lat="46.23417" lon="7.29748"><ele></ele><time>2016-8-31T3:25:15Z</time></trkpt>
<trkpt lat="46.23417" lon="7.29744"><ele></ele><time>2016-8-31T3:25:18Z</time></trkpt>
<trkpt lat="46.23417" lon="7.29741"><ele></ele><time>2016-8-31T3:25:21Z</time></trkpt>
<trkpt lat="46.23418" lon="7.2974"><ele></ele><time>2016-8-31T3:25:24Z</time></trkpt>
<trkpt lat="46.23419" lon="7.29736"><ele></ele><time>2016-8-31T3:25:27Z</time></trkpt>
<trkpt lat="46.23421" lon="7.29733"><ele></ele><time>2016-8-31T3:25:30Z</time></trkpt>
<trkpt lat="46.23423" lon="7.2973"><ele></ele><time>2016-8-31T3:25:33Z</time></trkpt>
<trkpt lat="46.23424" lon="7.29726"><ele></ele><time>2016-8-31T3:25:36Z</time></trkpt>
<trkpt lat="46.23426" lon="7.29723"><ele></ele><time>2016-8-31T3:25:39Z</time></trkpt>
<trkpt lat="46.23427" lon="7.29721"><ele></ele><time>2016-8-31T3:25:42Z</time></trkpt>
<trkpt lat="46.23428" lon="7.29719"><ele></ele><time>2016-8-31T3:25:45Z</time></trkpt>
<trkpt lat="46.23429" lon="7.29716"><ele></ele><time>2016-8-31T3:25:48Z</time></trkpt>
<trkpt lat="46.23431" lon="7.29713"><ele></ele><time>2016-8-31T3:25:51Z</time></trkpt>
<trkpt lat="46.23433" lon="7.29709"><ele></ele><time>2016-8-31T3:25:54Z</time></trkpt>
<trkpt lat="46.23435" lon="7.29706"><ele></ele><time>2016-8-31T3:25:57Z</time></trkpt>
<trkpt lat="46.23436" lon="7.29702"><ele></ele><time>2016-8-31T3:26:0Z</time></trkpt>
<trkpt lat="46.23438" lon="7.29699"><ele></ele><time>2016-8-31T3:26:3Z</time></trkpt>
<trkpt lat="46.2344" lon="7.29696"><ele></ele><time>2016-8-31T3:26:6Z</time></trkpt>
<trkpt lat="46.2344" lon="7.29694"><ele></ele><time>2016-8-31T3:26:9Z</time></trkpt>
<trkpt lat="46.23441" lon="7.29692"><ele></ele><time>2016-8-31T3:26:12Z</time></trkpt>
<trkpt lat="46.23444" lon="7.29687"><ele></ele><time>2016-8-31T3:26:15Z</time></trkpt>
<trkpt lat="46.23444" lon="7.29686"><ele></ele><time>2016-8-31T3:26:18Z</time></trkpt>
<trkpt lat="46.23446" lon="7.29683"><ele></ele><time>2016-8-31T3:26:21Z</time></trkpt>
<trkpt lat="46.23445" lon="7.29678"><ele></ele><time>2016-8-31T3:26:24Z</time></trkpt>
<trkpt lat="46.23444" lon="7.29673"><ele></ele><time>2016-8-31T3:26:27Z</time></trkpt>
<trkpt lat="46.23443" lon="7.29668"><ele></ele><time>2016-8-31T3:26:30Z</time></trkpt>
<trkpt lat="46.23441" lon="7.29663"><ele></ele><time>2016-8-31T3:26:33Z</time></trkpt>
<trkpt lat="46.2344" lon="7.29658"><ele></ele><time>2016-8-31T3:26:36Z</time></trkpt>
<trkpt lat="46.23439" lon="7.29653"><ele></ele><time>2016-8-31T3:26:39Z</time></trkpt>
<trkpt lat="46.23438" lon="7.29648"><ele></ele><time>2016-8-31T3:26:42Z</time></trkpt>
<trkpt lat="46.23437" lon="7.29643"><ele></ele><time>2016-8-31T3:26:45Z</time></trkpt>
<trkpt lat="46.23437" lon="7.2964"><ele></ele><time>2016-8-31T3:26:48Z</time></trkpt>
<trkpt lat="46.23436" lon="7.29638"><ele></ele><time>2016-8-31T3:26:51Z</time></trkpt>
<trkpt lat="46.23435" lon="7.29633"><ele></ele><time>2016-8-31T3:26:54Z</time></trkpt>
<trkpt lat="46.23434" lon="7.29628"><ele></ele><time>2016-8-31T3:26:57Z</time></trkpt>
<trkpt lat="46.23433" lon="7.29623"><ele></ele><time>2016-8-31T3:27:0Z</time></trkpt>
<trkpt lat="46.23433" lon="7.2962"><ele></ele><time>2016-8-31T3:27:3Z</time></trkpt>
<trkpt lat="46.23432" lon="7.29618"><ele></ele><time>2016-8-31T3:27:6Z</time></trkpt>
<trkpt lat="46.23431" lon="7.29612"><ele></ele><time>2016-8-31T3:27:9Z</time></trkpt>
<trkpt lat="46.2343" lon="7.29607"><ele></ele><time>2016-8-31T3:27:12Z</time></trkpt>
<trkpt lat="46.23429" lon="7.29602"><ele></ele><time>2016-8-31T3:27:15Z</time></trkpt>
<trkpt lat="46.23428" lon="7.29596"><ele></ele><time>2016-8-31T3:27:18Z</time></trkpt>
<trkpt lat="46.23427" lon="7.29579"><ele></ele><time>2016-8-31T3:27:21Z</time></trkpt>
<trkpt lat="46.23429" lon="7.29581"><ele></ele><time>2016-8-31T3:27:24Z</time></trkpt>
<trkpt lat="46.23431" lon="7.29586"><ele></ele><time>2016-8-31T3:27:27Z</time></trkpt>
<trkpt lat="46.23431" lon="7.29584"><ele></ele><time>2016-8-31T3:27:30Z</time></trkpt>
<trkpt lat="46.23432" lon="7.29582"><ele></ele><time>2016-8-31T3:27:33Z</time></trkpt>
<trkpt lat="46.23432" lon="7.2958"><ele></ele><time>2016-8-31T3:27:36Z</time></trkpt>
<trkpt lat="46.23432" lon="7.29576"><ele></ele><time>2016-8-31T3:27:39Z</time></trkpt>
<trkpt lat="46.23432" lon="7.29571"><ele></ele><time>2016-8-31T3:27:42Z</time></trkpt>
<trkpt lat="46.23432" lon="7.29567"><ele></ele><time>2016-8-31T3:27:45Z</time></trkpt>
<trkpt lat="46.23432" lon="7.29563"><ele></ele><time>2016-8-31T3:27:48Z</time></trkpt>
<trkpt lat="46.23432" lon="7.29558"><ele></ele><time>2016-8-31T3:27:51Z</time></trkpt>
<trkpt lat="46.23432" lon="7.29554"><ele></ele><time>2016-8-31T3:27:54Z</time></trkpt>
<trkpt lat="46.23432" lon="7.29549"><ele></ele><time>2016-8-31T3:27:57Z</time></trkpt>
<trkpt lat="46.23433" lon="7.29545"><ele></ele><time>2016-8-31T3:28:0Z</time></trkpt>
<trkpt lat="46.23433" lon="7.29541"><ele></ele><time>2016-8-31T3:28:3Z</time></trkpt>
<trkpt lat="46.23433" lon="7.29536"><ele></ele><time>2016-8-31T3:28:6Z</time></trkpt>
<trkpt lat="46.23433" lon="7.29534"><ele></ele><time>2016-8-31T3:28:9Z</time></trkpt>
<trkpt lat="46.23433" lon="7.29532"><ele></ele><time>2016-8-31T3:28:12Z</time></trkpt>
<trkpt lat="46.23433" lon="7.29528"><ele></ele><time>2016-8-31T3:28:15Z</time></trkpt>
<trkpt lat="46.23433" lon="7.29523"><ele></ele><time>2016-8-31T3:28:18Z</time></trkpt>
<trkpt lat="46.23433" lon="7.29521"><ele></ele><time>2016-8-31T3:28:21Z</time></trkpt>
<trkpt lat="46.23433" lon="7.29519"><ele></ele><time>2016-8-31T3:28:24Z</time></trkpt>
<trkpt lat="46.23434" lon="7.29515"><ele></ele><time>2016-8-31T3:28:27Z</time></trkpt>
<trkpt lat="46.23434" lon="7.2951"><ele></ele><time>2016-8-31T3:28:30Z</time></trkpt>
<trkpt lat="46.23434" lon="7.29506"><ele></ele><time>2016-8-31T3:28:33Z</time></trkpt>
<trkpt lat="46.23435" lon="7.29502"><ele></ele><time>2016-8-31T3:28:36Z</time></trkpt>
<trkpt lat="46.23435" lon="7.29498"><ele></ele><time>2016-8-31T3:28:39Z</time></trkpt>
<trkpt lat="46.23435" lon="7.29493"><ele></ele><time>2016-8-31T3:28:42Z</time></trkpt>
<trkpt lat="46.23436" lon="7.29489"><ele></ele><time>2016-8-31T3:28:45Z</time></trkpt>
<trkpt lat="46.23436" lon="7.29487"><ele></ele><time>2016-8-31T3:28:48Z</time></trkpt>
<trkpt lat="46.23436" lon="7.29485"><ele></ele><time>2016-8-31T3:28:51Z</time></trkpt>
<trkpt lat="46.23436" lon="7.2948"><ele></ele><time>2016-8-31T3:28:54Z</time></trkpt>
<trkpt lat="46.23436" lon="7.29476"><ele></ele><time>2016-8-31T3:28:57Z</time></trkpt>
<trkpt lat="46.23437" lon="7.29472"><ele></ele><time>2016-8-31T3:29:0Z</time></trkpt>
<trkpt lat="46.23437" lon="7.29468"><ele></ele><time>2016-8-31T3:29:3Z</time></trkpt>
<trkpt lat="46.23437" lon="7.29463"><ele></ele><time>2016-8-31T3:29:6Z</time></trkpt>
<trkpt lat="46.23438" lon="7.29459"><ele></ele><time>2016-8-31T3:29:9Z</time></trkpt>
<trkpt lat="46.23438" lon="7.29455"><ele></ele><time>2016-8-31T3:29:12Z</time></trkpt>
<trkpt lat="46.23438" lon="7.29451"><ele></ele><time>2016-8-31T3:29:15Z</time></trkpt>
<trkpt lat="46.23437" lon="7.29446"><ele></ele><time>2016-8-31T3:29:18Z</time></trkpt>
<trkpt lat="46.23436" lon="7.29442"><ele></ele><time>2016-8-31T3:29:21Z</time></trkpt>
<trkpt lat="46.23436" lon="7.29438"><ele></ele><time>2016-8-31T3:29:24Z</time></trkpt>
<trkpt lat="46.23435" lon="7.29434"><ele></ele><time>2016-8-31T3:29:27Z</time></trkpt>
<trkpt lat="46.23435" lon="7.2943"><ele></ele><time>2016-8-31T3:29:30Z</time></trkpt>
<trkpt lat="46.23434" lon="7.29427"><ele></ele><time>2016-8-31T3:29:33Z</time></trkpt>
<trkpt lat="46.23434" lon="7.29425"><ele></ele><time>2016-8-31T3:29:36Z</time></trkpt>
<trkpt lat="46.23433" lon="7.29421"><ele></ele><time>2016-8-31T3:29:39Z</time></trkpt>
<trkpt lat="46.23433" lon="7.29417"><ele></ele><time>2016-8-31T3:29:42Z</time></trkpt>
<trkpt lat="46.23432" lon="7.29413"><ele></ele><time>2016-8-31T3:29:45Z</time></trkpt>
<trkpt lat="46.23432" lon="7.29409"><ele></ele><time>2016-8-31T3:29:48Z</time></trkpt>
<trkpt lat="46.23431" lon="7.29404"><ele></ele><time>2016-8-31T3:29:51Z</time></trkpt>
<trkpt lat="46.23431" lon="7.294"><ele></ele><time>2016-8-31T3:29:54Z</time></trkpt>
<trkpt lat="46.2343" lon="7.29396"><ele></ele><time>2016-8-31T3:29:57Z</time></trkpt>
<trkpt lat="46.23429" lon="7.29392"><ele></ele><time>2016-8-31T3:30:0Z</time></trkpt>
<trkpt lat="46.23429" lon="7.2939"><ele></ele><time>2016-8-31T3:30:3Z</time></trkpt>
<trkpt lat="46.23429" lon="7.29388"><ele></ele><time>2016-8-31T3:30:6Z</time></trkpt>
<trkpt lat="46.23427" lon="7.29384"><ele></ele><time>2016-8-31T3:30:9Z</time></trkpt>
<trkpt lat="46.23427" lon="7.29382"><ele></ele><time>2016-8-31T3:30:12Z</time></trkpt>
<trkpt lat="46.23426" lon="7.2938"><ele></ele><time>2016-8-31T3:30:15Z</time></trkpt>
<trkpt lat="46.23425" lon="7.29376"><ele></ele><time>2016-8-31T3:30:18Z</time></trkpt>
<trkpt lat="46.23424" lon="7.29373"><ele></ele><time>2016-8-31T3:30:21Z</time></trkpt>
<trkpt lat="46.23422" lon="7.29369"><ele></ele><time>2016-8-31T3:30:24Z</time></trkpt>
<trkpt lat="46.23421" lon="7.29365"><ele></ele><time>2016-8-31T3:30:27Z</time></trkpt>
<trkpt lat="46.2342" lon="7.29361"><ele></ele><time>2016-8-31T3:30:30Z</time></trkpt>
<trkpt lat="46.23419" lon="7.29357"><ele></ele><time>2016-8-31T3:30:33Z</time></trkpt>
<trkpt lat="46.23418" lon="7.29354"><ele></ele><time>2016-8-31T3:30:36Z</time></trkpt>
<trkpt lat="46.23416" lon="7.2935"><ele></ele><time>2016-8-31T3:30:39Z</time></trkpt>
<trkpt lat="46.23415" lon="7.29346"><ele></ele><time>2016-8-31T3:30:42Z</time></trkpt>
<trkpt lat="46.23414" lon="7.29342"><ele></ele><time>2016-8-31T3:30:45Z</time></trkpt>
<trkpt lat="46.23413" lon="7.29339"><ele></ele><time>2016-8-31T3:30:48Z</time></trkpt>
<trkpt lat="46.23412" lon="7.29335"><ele></ele><time>2016-8-31T3:30:51Z</time></trkpt>
<trkpt lat="46.23411" lon="7.29333"><ele></ele><time>2016-8-31T3:30:54Z</time></trkpt>
<trkpt lat="46.2341" lon="7.29331"><ele></ele><time>2016-8-31T3:30:57Z</time></trkpt>
<trkpt lat="46.2341" lon="7.29329"><ele></ele><time>2016-8-31T3:31:0Z</time></trkpt>
<trkpt lat="46.23409" lon="7.29327"><ele></ele><time>2016-8-31T3:31:3Z</time></trkpt>
<trkpt lat="46.23408" lon="7.29323"><ele></ele><time>2016-8-31T3:31:6Z</time></trkpt>
<trkpt lat="46.23407" lon="7.29318"><ele></ele><time>2016-8-31T3:31:9Z</time></trkpt>
<trkpt lat="46.23407" lon="7.29314"><ele></ele><time>2016-8-31T3:31:12Z</time></trkpt>
<trkpt lat="46.23406" lon="7.2931"><ele></ele><time>2016-8-31T3:31:15Z</time></trkpt>
<trkpt lat="46.23405" lon="7.29305"><ele></ele><time>2016-8-31T3:31:18Z</time></trkpt>
<trkpt lat="46.23404" lon="7.29301"><ele></ele><time>2016-8-31T3:31:21Z</time></trkpt>
<trkpt lat="46.23403" lon="7.29297"><ele></ele><time>2016-8-31T3:31:24Z</time></trkpt>
<trkpt lat="46.23402" lon="7.29292"><ele></ele><time>2016-8-31T3:31:27Z</time></trkpt>
<trkpt lat="46.23401" lon="7.29288"><ele></ele><time>2016-8-31T3:31:30Z</time></trkpt>
<trkpt lat="46.234" lon="7.29284"><ele></ele><time>2016-8-31T3:31:33Z</time></trkpt>
<trkpt lat="46.23399" lon="7.29279"><ele></ele><time>2016-8-31T3:31:36Z</time></trkpt>
<trkpt lat="46.23398" lon="7.29275"><ele></ele><time>2016-8-31T3:31:39Z</time></trkpt>
<trkpt lat="46.23398" lon="7.29273"><ele></ele><time>2016-8-31T3:31:42Z</time></trkpt>
<trkpt lat="46.23398" lon="7.2927"><ele></ele><time>2016-8-31T3:31:45Z</time></trkpt>
<trkpt lat="46.23397" lon="7.29266"><ele></ele><time>2016-8-31T3:31:48Z</time></trkpt>
<trkpt lat="46.23396" lon="7.29262"><ele></ele><time>2016-8-31T3:31:51Z</time></trkpt>
<trkpt lat="46.23395" lon="7.29257"><ele></ele><time>2016-8-31T3:31:54Z</time></trkpt>
<trkpt lat="46.23394" lon="7.29252"><ele></ele><time>2016-8-31T3:31:57Z</time></trkpt>
<trkpt lat="46.23393" lon="7.29248"><ele></ele><time>2016-8-31T3:32:0Z</time></trkpt>
<trkpt lat="46.23393" lon="7.29245"><ele></ele><time>2016-8-31T3:32:3Z</time></trkpt>
<trkpt lat="46.23393" lon="7.29243"><ele></ele><time>2016-8-31T3:32:6Z</time></trkpt>
<trkpt lat="46.23392" lon="7.29239"><ele></ele><time>2016-8-31T3:32:9Z</time></trkpt>
<trkpt lat="46.23391" lon="7.29234"><ele></ele><time>2016-8-31T3:32:12Z</time></trkpt>
<trkpt lat="46.2339" lon="7.29229"><ele></ele><time>2016-8-31T3:32:15Z</time></trkpt>
<trkpt lat="46.23389" lon="7.29225"><ele></ele><time>2016-8-31T3:32:18Z</time></trkpt>
<trkpt lat="46.23389" lon="7.2922"><ele></ele><time>2016-8-31T3:32:21Z</time></trkpt>
<trkpt lat="46.23388" lon="7.29216"><ele></ele><time>2016-8-31T3:32:24Z</time></trkpt>
<trkpt lat="46.23387" lon="7.29211"><ele></ele><time>2016-8-31T3:32:27Z</time></trkpt>
<trkpt lat="46.23386" lon="7.29206"><ele></ele><time>2016-8-31T3:32:30Z</time></trkpt>
<trkpt lat="46.23385" lon="7.29202"><ele></ele><time>2016-8-31T3:32:33Z</time></trkpt>
<trkpt lat="46.23385" lon="7.29196"><ele></ele><time>2016-8-31T3:32:36Z</time></trkpt>
<trkpt lat="46.23384" lon="7.29191"><ele></ele><time>2016-8-31T3:32:39Z</time></trkpt>
<trkpt lat="46.23383" lon="7.29185"><ele></ele><time>2016-8-31T3:32:42Z</time></trkpt>
<trkpt lat="46.23382" lon="7.29179"><ele></ele><time>2016-8-31T3:32:45Z</time></trkpt>
<trkpt lat="46.23382" lon="7.29174"><ele></ele><time>2016-8-31T3:32:48Z</time></trkpt>
<trkpt lat="46.23381" lon="7.29168"><ele></ele><time>2016-8-31T3:32:51Z</time></trkpt>
<trkpt lat="46.2338" lon="7.29162"><ele></ele><time>2016-8-31T3:32:54Z</time></trkpt>
<trkpt lat="46.23379" lon="7.29157"><ele></ele><time>2016-8-31T3:32:57Z</time></trkpt>
<trkpt lat="46.23379" lon="7.29151"><ele></ele><time>2016-8-31T3:33:0Z</time></trkpt>
<trkpt lat="46.23378" lon="7.29146"><ele></ele><time>2016-8-31T3:33:3Z</time></trkpt>
<trkpt lat="46.23377" lon="7.2914"><ele></ele><time>2016-8-31T3:33:6Z</time></trkpt>
<trkpt lat="46.23377" lon="7.29137"><ele></ele><time>2016-8-31T3:33:9Z</time></trkpt>
<trkpt lat="46.23376" lon="7.29135"><ele></ele><time>2016-8-31T3:33:12Z</time></trkpt>
<trkpt lat="46.23376" lon="7.29133"><ele></ele><time>2016-8-31T3:33:15Z</time></trkpt>
<trkpt lat="46.23375" lon="7.2913"><ele></ele><time>2016-8-31T3:33:18Z</time></trkpt>
<trkpt lat="46.23374" lon="7.29126"><ele></ele><time>2016-8-31T3:33:21Z</time></trkpt>
<trkpt lat="46.23373" lon="7.29122"><ele></ele><time>2016-8-31T3:33:24Z</time></trkpt>
<trkpt lat="46.23372" lon="7.29117"><ele></ele><time>2016-8-31T3:33:27Z</time></trkpt>
<trkpt lat="46.23371" lon="7.29113"><ele></ele><time>2016-8-31T3:33:30Z</time></trkpt>
<trkpt lat="46.2337" lon="7.29108"><ele></ele><time>2016-8-31T3:33:33Z</time></trkpt>
<trkpt lat="46.23369" lon="7.29104"><ele></ele><time>2016-8-31T3:33:36Z</time></trkpt>
<trkpt lat="46.23368" lon="7.291"><ele></ele><time>2016-8-31T3:33:39Z</time></trkpt>
<trkpt lat="46.23367" lon="7.29095"><ele></ele><time>2016-8-31T3:33:42Z</time></trkpt>
<trkpt lat="46.23366" lon="7.29091"><ele></ele><time>2016-8-31T3:33:45Z</time></trkpt>
<trkpt lat="46.23365" lon="7.29086"><ele></ele><time>2016-8-31T3:33:48Z</time></trkpt>
<trkpt lat="46.23364" lon="7.29082"><ele></ele><time>2016-8-31T3:33:51Z</time></trkpt>
<trkpt lat="46.23363" lon="7.29078"><ele></ele><time>2016-8-31T3:33:54Z</time></trkpt>
<trkpt lat="46.23362" lon="7.29073"><ele></ele><time>2016-8-31T3:33:57Z</time></trkpt>
<trkpt lat="46.23361" lon="7.29071"><ele></ele><time>2016-8-31T3:34:0Z</time></trkpt>
<trkpt lat="46.23361" lon="7.29068"><ele></ele><time>2016-8-31T3:34:3Z</time></trkpt>
<trkpt lat="46.2336" lon="7.29063"><ele></ele><time>2016-8-31T3:34:6Z</time></trkpt>
<trkpt lat="46.23359" lon="7.29058"><ele></ele><time>2016-8-31T3:34:9Z</time></trkpt>
<trkpt lat="46.23358" lon="7.29053"><ele></ele><time>2016-8-31T3:34:12Z</time></trkpt>
<trkpt lat="46.23357" lon="7.29048"><ele></ele><time>2016-8-31T3:34:15Z</time></trkpt>
<trkpt lat="46.23356" lon="7.29043"><ele></ele><time>2016-8-31T3:34:18Z</time></trkpt>
<trkpt lat="46.23355" lon="7.29038"><ele></ele><time>2016-8-31T3:34:21Z</time></trkpt>
<trkpt lat="46.23354" lon="7.29033"><ele></ele><time>2016-8-31T3:34:24Z</time></trkpt>
<trkpt lat="46.23353" lon="7.29028"><ele></ele><time>2016-8-31T3:34:27Z</time></trkpt>
<trkpt lat="46.23352" lon="7.29023"><ele></ele><time>2016-8-31T3:34:30Z</time></trkpt>
<trkpt lat="46.23351" lon="7.29018"><ele></ele><time>2016-8-31T3:34:33Z</time></trkpt>
<trkpt lat="46.2335" lon="7.29013"><ele></ele><time>2016-8-31T3:34:36Z</time></trkpt>
<trkpt lat="46.2335" lon="7.29011"><ele></ele><time>2016-8-31T3:34:39Z</time></trkpt>
<trkpt lat="46.23349" lon="7.29008"><ele></ele><time>2016-8-31T3:34:42Z</time></trkpt>
<trkpt lat="46.23348" lon="7.29003"><ele></ele><time>2016-8-31T3:34:45Z</time></trkpt>
<trkpt lat="46.23346" lon="7.28998"><ele></ele><time>2016-8-31T3:34:48Z</time></trkpt>
<trkpt lat="46.23345" lon="7.28993"><ele></ele><time>2016-8-31T3:34:51Z</time></trkpt>
<trkpt lat="46.23343" lon="7.28988"><ele></ele><time>2016-8-31T3:34:54Z</time></trkpt>
<trkpt lat="46.23342" lon="7.28983"><ele></ele><time>2016-8-31T3:34:57Z</time></trkpt>
<trkpt lat="46.2334" lon="7.28978"><ele></ele><time>2016-8-31T3:35:0Z</time></trkpt>
<trkpt lat="46.23339" lon="7.28973"><ele></ele><time>2016-8-31T3:35:3Z</time></trkpt>
<trkpt lat="46.23338" lon="7.28968"><ele></ele><time>2016-8-31T3:35:6Z</time></trkpt>
<trkpt lat="46.23336" lon="7.28963"><ele></ele><time>2016-8-31T3:35:9Z</time></trkpt>
<trkpt lat="46.23338" lon="7.28958"><ele></ele><time>2016-8-31T3:35:12Z</time></trkpt>
<trkpt lat="46.23338" lon="7.28958"><ele></ele><time>2016-8-31T3:35:15Z</time></trkpt>
<trkpt lat="46.23341" lon="7.28958"><ele></ele><time>2016-8-31T3:35:18Z</time></trkpt>
<trkpt lat="46.23342" lon="7.28965"><ele></ele><time>2016-8-31T3:35:21Z</time></trkpt>
<trkpt lat="46.23344" lon="7.28972"><ele></ele><time>2016-8-31T3:35:24Z</time></trkpt>
<trkpt lat="46.23346" lon="7.28979"><ele></ele><time>2016-8-31T3:35:27Z</time></trkpt>
<trkpt lat="46.23347" lon="7.28982"><ele></ele><time>2016-8-31T3:35:30Z</time></trkpt>
<trkpt lat="46.23347" lon="7.28985"><ele></ele><time>2016-8-31T3:35:33Z</time></trkpt>
<trkpt lat="46.23349" lon="7.28992"><ele></ele><time>2016-8-31T3:35:36Z</time></trkpt>
<trkpt lat="46.23351" lon="7.28999"><ele></ele><time>2016-8-31T3:35:39Z</time></trkpt>
<trkpt lat="46.23352" lon="7.29006"><ele></ele><time>2016-8-31T3:35:42Z</time></trkpt>
<trkpt lat="46.23354" lon="7.29012"><ele></ele><time>2016-8-31T3:35:45Z</time></trkpt>
<trkpt lat="46.23356" lon="7.29019"><ele></ele><time>2016-8-31T3:35:48Z</time></trkpt>
<trkpt lat="46.23358" lon="7.29025"><ele></ele><time>2016-8-31T3:35:51Z</time></trkpt>
<trkpt lat="46.23361" lon="7.29031"><ele></ele><time>2016-8-31T3:35:54Z</time></trkpt>
<trkpt lat="46.23363" lon="7.29038"><ele></ele><time>2016-8-31T3:35:57Z</time></trkpt>
<trkpt lat="46.23366" lon="7.29044"><ele></ele><time>2016-8-31T3:36:0Z</time></trkpt>
<trkpt lat="46.23368" lon="7.2905"><ele></ele><time>2016-8-31T3:36:3Z</time></trkpt>
<trkpt lat="46.2337" lon="7.29056"><ele></ele><time>2016-8-31T3:36:6Z</time></trkpt>
<trkpt lat="46.23373" lon="7.29062"><ele></ele><time>2016-8-31T3:36:9Z</time></trkpt>
<trkpt lat="46.23375" lon="7.29069"><ele></ele><time>2016-8-31T3:36:12Z</time></trkpt>
<trkpt lat="46.23377" lon="7.29072"><ele></ele><time>2016-8-31T3:36:15Z</time></trkpt>
<trkpt lat="46.23378" lon="7.29075"><ele></ele><time>2016-8-31T3:36:18Z</time></trkpt>
<trkpt lat="46.23379" lon="7.29078"><ele></ele><time>2016-8-31T3:36:21Z</time></trkpt>
<trkpt lat="46.2338" lon="7.29081"><ele></ele><time>2016-8-31T3:36:24Z</time></trkpt>
<trkpt lat="46.23383" lon="7.29088"><ele></ele><time>2016-8-31T3:36:27Z</time></trkpt>
<trkpt lat="46.23386" lon="7.29094"><ele></ele><time>2016-8-31T3:36:30Z</time></trkpt>
<trkpt lat="46.23388" lon="7.29101"><ele></ele><time>2016-8-31T3:36:33Z</time></trkpt>
<trkpt lat="46.23391" lon="7.29108"><ele></ele><time>2016-8-31T3:36:36Z</time></trkpt>
<trkpt lat="46.23393" lon="7.29114"><ele></ele><time>2016-8-31T3:36:39Z</time></trkpt>
<trkpt lat="46.23396" lon="7.29121"><ele></ele><time>2016-8-31T3:36:42Z</time></trkpt>
<trkpt lat="46.23399" lon="7.29127"><ele></ele><time>2016-8-31T3:36:45Z</time></trkpt>
<trkpt lat="46.23401" lon="7.29134"><ele></ele><time>2016-8-31T3:36:48Z</time></trkpt>
<trkpt lat="46.23403" lon="7.29137"><ele></ele><time>2016-8-31T3:36:51Z</time></trkpt>
<trkpt lat="46.23404" lon="7.2914"><ele></ele><time>2016-8-31T3:36:54Z</time></trkpt>
<trkpt lat="46.23407" lon="7.29145"><ele></ele><time>2016-8-31T3:36:57Z</time></trkpt>
<trkpt lat="46.23409" lon="7.29151"><ele></ele><time>2016-8-31T3:37:0Z</time></trkpt>
<trkpt lat="46.23412" lon="7.29156"><ele></ele><time>2016-8-31T3:37:3Z</time></trkpt>
<trkpt lat="46.23414" lon="7.29161"><ele></ele><time>2016-8-31T3:37:6Z</time></trkpt>
<trkpt lat="46.23417" lon="7.29167"><ele></ele><time>2016-8-31T3:37:9Z</time></trkpt>
<trkpt lat="46.2342" lon="7.29172"><ele></ele><time>2016-8-31T3:37:12Z</time></trkpt>
<trkpt lat="46.23422" lon="7.29177"><ele></ele><time>2016-8-31T3:37:15Z</time></trkpt>
<trkpt lat="46.23425" lon="7.29182"><ele></ele><time>2016-8-31T3:37:18Z</time></trkpt>
<trkpt lat="46.23426" lon="7.29185"><ele></ele><time>2016-8-31T3:37:21Z</time></trkpt>
<trkpt lat="46.23427" lon="7.29188"><ele></ele><time>2016-8-31T3:37:24Z</time></trkpt>
<trkpt lat="46.23429" lon="7.2919"><ele></ele><time>2016-8-31T3:37:27Z</time></trkpt>
<trkpt lat="46.2343" lon="7.29192"><ele></ele><time>2016-8-31T3:37:30Z</time></trkpt>
<trkpt lat="46.23432" lon="7.29196"><ele></ele><time>2016-8-31T3:37:33Z</time></trkpt>
<trkpt lat="46.23434" lon="7.29199"><ele></ele><time>2016-8-31T3:37:36Z</time></trkpt>
<trkpt lat="46.23436" lon="7.29202"><ele></ele><time>2016-8-31T3:37:39Z</time></trkpt>
<trkpt lat="46.23438" lon="7.29206"><ele></ele><time>2016-8-31T3:37:42Z</time></trkpt>
<trkpt lat="46.2344" lon="7.29209"><ele></ele><time>2016-8-31T3:37:45Z</time></trkpt>
<trkpt lat="46.23442" lon="7.29213"><ele></ele><time>2016-8-31T3:37:48Z</time></trkpt>
<trkpt lat="46.23444" lon="7.29216"><ele></ele><time>2016-8-31T3:37:51Z</time></trkpt>
<trkpt lat="46.23446" lon="7.29219"><ele></ele><time>2016-8-31T3:37:54Z</time></trkpt>
<trkpt lat="46.23448" lon="7.29223"><ele></ele><time>2016-8-31T3:37:57Z</time></trkpt>
<trkpt lat="46.2345" lon="7.29226"><ele></ele><time>2016-8-31T3:38:0Z</time></trkpt>
<trkpt lat="46.23453" lon="7.29229"><ele></ele><time>2016-8-31T3:38:3Z</time></trkpt>
<trkpt lat="46.23455" lon="7.29233"><ele></ele><time>2016-8-31T3:38:6Z</time></trkpt>
<trkpt lat="46.23457" lon="7.29236"><ele></ele><time>2016-8-31T3:38:9Z</time></trkpt>
<trkpt lat="46.23459" lon="7.2924"><ele></ele><time>2016-8-31T3:38:12Z</time></trkpt>
<trkpt lat="46.23461" lon="7.29243"><ele></ele><time>2016-8-31T3:38:15Z</time></trkpt>
<trkpt lat="46.23464" lon="7.29246"><ele></ele><time>2016-8-31T3:38:18Z</time></trkpt>
<trkpt lat="46.23466" lon="7.29249"><ele></ele><time>2016-8-31T3:38:21Z</time></trkpt>
<trkpt lat="46.23469" lon="7.29252"><ele></ele><time>2016-8-31T3:38:24Z</time></trkpt>
<trkpt lat="46.23471" lon="7.29256"><ele></ele><time>2016-8-31T3:38:27Z</time></trkpt>
<trkpt lat="46.23473" lon="7.29259"><ele></ele><time>2016-8-31T3:38:30Z</time></trkpt>
<trkpt lat="46.23475" lon="7.2926"><ele></ele><time>2016-8-31T3:38:33Z</time></trkpt>
<trkpt lat="46.23476" lon="7.29262"><ele></ele><time>2016-8-31T3:38:36Z</time></trkpt>
<trkpt lat="46.23478" lon="7.29265"><ele></ele><time>2016-8-31T3:38:39Z</time></trkpt>
<trkpt lat="46.23481" lon="7.29268"><ele></ele><time>2016-8-31T3:38:42Z</time></trkpt>
<trkpt lat="46.23483" lon="7.29272"><ele></ele><time>2016-8-31T3:38:45Z</time></trkpt>
<trkpt lat="46.23486" lon="7.29275"><ele></ele><time>2016-8-31T3:38:48Z</time></trkpt>
<trkpt lat="46.23488" lon="7.29278"><ele></ele><time>2016-8-31T3:38:51Z</time></trkpt>
<trkpt lat="46.2349" lon="7.29281"><ele></ele><time>2016-8-31T3:38:54Z</time></trkpt>
<trkpt lat="46.23493" lon="7.29284"><ele></ele><time>2016-8-31T3:38:57Z</time></trkpt>
<trkpt lat="46.23495" lon="7.29287"><ele></ele><time>2016-8-31T3:39:0Z</time></trkpt>
<trkpt lat="46.23497" lon="7.2929"><ele></ele><time>2016-8-31T3:39:3Z</time></trkpt>
<trkpt lat="46.235" lon="7.29292"><ele></ele><time>2016-8-31T3:39:6Z</time></trkpt>
<trkpt lat="46.23501" lon="7.29294"><ele></ele><time>2016-8-31T3:39:9Z</time></trkpt>
<trkpt lat="46.23502" lon="7.29295"><ele></ele><time>2016-8-31T3:39:12Z</time></trkpt>
<trkpt lat="46.23504" lon="7.29298"><ele></ele><time>2016-8-31T3:39:15Z</time></trkpt>
<trkpt lat="46.23506" lon="7.293"><ele></ele><time>2016-8-31T3:39:18Z</time></trkpt>
<trkpt lat="46.23508" lon="7.29303"><ele></ele><time>2016-8-31T3:39:21Z</time></trkpt>
<trkpt lat="46.23511" lon="7.29306"><ele></ele><time>2016-8-31T3:39:24Z</time></trkpt>
<trkpt lat="46.23513" lon="7.29308"><ele></ele><time>2016-8-31T3:39:27Z</time></trkpt>
<trkpt lat="46.23515" lon="7.29311"><ele></ele><time>2016-8-31T3:39:30Z</time></trkpt>
<trkpt lat="46.23517" lon="7.29314"><ele></ele><time>2016-8-31T3:39:33Z</time></trkpt>
<trkpt lat="46.2352" lon="7.29316"><ele></ele><time>2016-8-31T3:39:36Z</time></trkpt>
<trkpt lat="46.23522" lon="7.29319"><ele></ele><time>2016-8-31T3:39:39Z</time></trkpt>
<trkpt lat="46.23524" lon="7.29322"><ele></ele><time>2016-8-31T3:39:42Z</time></trkpt>
<trkpt lat="46.23526" lon="7.29324"><ele></ele><time>2016-8-31T3:39:45Z</time></trkpt>
<trkpt lat="46.23528" lon="7.29327"><ele></ele><time>2016-8-31T3:39:48Z</time></trkpt>
<trkpt lat="46.23531" lon="7.29329"><ele></ele><time>2016-8-31T3:39:51Z</time></trkpt>
<trkpt lat="46.23534" lon="7.29331"><ele></ele><time>2016-8-31T3:39:54Z</time></trkpt>
<trkpt lat="46.23537" lon="7.29333"><ele></ele><time>2016-8-31T3:39:57Z</time></trkpt>
<trkpt lat="46.23539" lon="7.29335"><ele></ele><time>2016-8-31T3:40:0Z</time></trkpt>
<trkpt lat="46.23542" lon="7.29337"><ele></ele><time>2016-8-31T3:40:3Z</time></trkpt>
<trkpt lat="46.23545" lon="7.29339"><ele></ele><time>2016-8-31T3:40:6Z</time></trkpt>
<trkpt lat="46.23547" lon="7.29341"><ele></ele><time>2016-8-31T3:40:9Z</time></trkpt>
<trkpt lat="46.23549" lon="7.29342"><ele></ele><time>2016-8-31T3:40:12Z</time></trkpt>
<trkpt lat="46.23549" lon="7.2934"><ele></ele><time>2016-8-31T3:40:15Z</time></trkpt>
<trkpt lat="46.23549" lon="7.29335"><ele></ele><time>2016-8-31T3:40:18Z</time></trkpt>
<trkpt lat="46.23548" lon="7.2933"><ele></ele><time>2016-8-31T3:40:21Z</time></trkpt>
<trkpt lat="46.23548" lon="7.29324"><ele></ele><time>2016-8-31T3:40:24Z</time></trkpt>
<trkpt lat="46.23548" lon="7.29319"><ele></ele><time>2016-8-31T3:40:27Z</time></trkpt>
<trkpt lat="46.23548" lon="7.29317"><ele></ele><time>2016-8-31T3:40:30Z</time></trkpt>
<trkpt lat="46.23546" lon="7.29315"><ele></ele><time>2016-8-31T3:40:33Z</time></trkpt>
<trkpt lat="46.23543" lon="7.29311"><ele></ele><time>2016-8-31T3:40:36Z</time></trkpt>
<trkpt lat="46.23539" lon="7.29307"><ele></ele><time>2016-8-31T3:40:39Z</time></trkpt>
<trkpt lat="46.23536" lon="7.29303"><ele></ele><time>2016-8-31T3:40:42Z</time></trkpt>
<trkpt lat="46.23532" lon="7.29299"><ele></ele><time>2016-8-31T3:40:45Z</time></trkpt>
<trkpt lat="46.23529" lon="7.29296"><ele></ele><time>2016-8-31T3:40:48Z</time></trkpt>
<trkpt lat="46.23525" lon="7.29292"><ele></ele><time>2016-8-31T3:40:51Z</time></trkpt>
<trkpt lat="46.23522" lon="7.29288"><ele></ele><time>2016-8-31T3:40:54Z</time></trkpt>
<trkpt lat="46.23518" lon="7.29284"><ele></ele><time>2016-8-31T3:40:57Z</time></trkpt>
<trkpt lat="46.23515" lon="7.29281"><ele></ele><time>2016-8-31T3:41:0Z</time></trkpt>
<trkpt lat="46.23511" lon="7.29277"><ele></ele><time>2016-8-31T3:41:3Z</time></trkpt>
<trkpt lat="46.23509" lon="7.2927"><ele></ele><time>2016-8-31T3:41:6Z</time></trkpt>
<trkpt lat="46.23506" lon="7.29264"><ele></ele><time>2016-8-31T3:41:9Z</time></trkpt>
<trkpt lat="46.23503" lon="7.29257"><ele></ele><time>2016-8-31T3:41:12Z</time></trkpt>
<trkpt lat="46.23501" lon="7.29251"><ele></ele><time>2016-8-31T3:41:15Z</time></trkpt>
<trkpt lat="46.23498" lon="7.29244"><ele></ele><time>2016-8-31T3:41:18Z</time></trkpt>
<trkpt lat="46.23496" lon="7.29238"><ele></ele><time>2016-8-31T3:41:21Z</time></trkpt>
<trkpt lat="46.23493" lon="7.29231"><ele></ele><time>2016-8-31T3:41:24Z</time></trkpt>
<trkpt lat="46.2349" lon="7.29225"><ele></ele><time>2016-8-31T3:41:27Z</time></trkpt>
<trkpt lat="46.23488" lon="7.29218"><ele></ele><time>2016-8-31T3:41:30Z</time></trkpt>
<trkpt lat="46.23485" lon="7.29208"><ele></ele><time>2016-8-31T3:41:33Z</time></trkpt>
<trkpt lat="46.23481" lon="7.29197"><ele></ele><time>2016-8-31T3:41:36Z</time></trkpt>
<trkpt lat="46.23478" lon="7.29187"><ele></ele><time>2016-8-31T3:41:39Z</time></trkpt>
<trkpt lat="46.23474" lon="7.29176"><ele></ele><time>2016-8-31T3:41:42Z</time></trkpt>
<trkpt lat="46.23471" lon="7.29165"><ele></ele><time>2016-8-31T3:41:45Z</time></trkpt>
<trkpt lat="46.23468" lon="7.29155"><ele></ele><time>2016-8-31T3:41:48Z</time></trkpt>
<trkpt lat="46.23465" lon="7.29146"><ele></ele><time>2016-8-31T3:41:51Z</time></trkpt>
<trkpt lat="46.23463" lon="7.29137"><ele></ele><time>2016-8-31T3:41:54Z</time></trkpt>
<trkpt lat="46.23461" lon="7.29128"><ele></ele><time>2016-8-31T3:41:57Z</time></trkpt>
<trkpt lat="46.23459" lon="7.29119"><ele></ele><time>2016-8-31T3:42:0Z</time></trkpt>
<trkpt lat="46.23457" lon="7.2911"><ele></ele><time>2016-8-31T3:42:3Z</time></trkpt>
<trkpt lat="46.23455" lon="7.29102"><ele></ele><time>2016-8-31T3:42:6Z</time></trkpt>
<trkpt lat="46.23452" lon="7.29093"><ele></ele><time>2016-8-31T3:42:9Z</time></trkpt>
<trkpt lat="46.23451" lon="7.29084"><ele></ele><time>2016-8-31T3:42:12Z</time></trkpt>
<trkpt lat="46.2345" lon="7.29075"><ele></ele><time>2016-8-31T3:42:15Z</time></trkpt>
<trkpt lat="46.23449" lon="7.29066"><ele></ele><time>2016-8-31T3:42:18Z</time></trkpt>
<trkpt lat="46.23448" lon="7.29057"><ele></ele><time>2016-8-31T3:42:21Z</time></trkpt>
<trkpt lat="46.23447" lon="7.29049"><ele></ele><time>2016-8-31T3:42:24Z</time></trkpt>
<trkpt lat="46.23446" lon="7.2904"><ele></ele><time>2016-8-31T3:42:27Z</time></trkpt>
<trkpt lat="46.23445" lon="7.29031"><ele></ele><time>2016-8-31T3:42:30Z</time></trkpt>
<trkpt lat="46.23445" lon="7.29026"><ele></ele><time>2016-8-31T3:42:33Z</time></trkpt>
<trkpt lat="46.23445" lon="7.29023"><ele></ele><time>2016-8-31T3:42:36Z</time></trkpt>
<trkpt lat="46.23445" lon="7.29016"><ele></ele><time>2016-8-31T3:42:39Z</time></trkpt>
<trkpt lat="46.23445" lon="7.29013"><ele></ele><time>2016-8-31T3:42:42Z</time></trkpt>
<trkpt lat="46.23445" lon="7.2901"><ele></ele><time>2016-8-31T3:42:45Z</time></trkpt>
<trkpt lat="46.23445" lon="7.29004"><ele></ele><time>2016-8-31T3:42:48Z</time></trkpt>
<trkpt lat="46.23445" lon="7.28997"><ele></ele><time>2016-8-31T3:42:51Z</time></trkpt>
<trkpt lat="46.23445" lon="7.28991"><ele></ele><time>2016-8-31T3:42:54Z</time></trkpt>
<trkpt lat="46.23445" lon="7.28984"><ele></ele><time>2016-8-31T3:42:57Z</time></trkpt>
<trkpt lat="46.23445" lon="7.28978"><ele></ele><time>2016-8-31T3:43:0Z</time></trkpt>
<trkpt lat="46.23445" lon="7.28971"><ele></ele><time>2016-8-31T3:43:3Z</time></trkpt>
<trkpt lat="46.23445" lon="7.28965"><ele></ele><time>2016-8-31T3:43:6Z</time></trkpt>
<trkpt lat="46.23445" lon="7.28961"><ele></ele><time>2016-8-31T3:43:9Z</time></trkpt>
<trkpt lat="46.23447" lon="7.28961"><ele></ele><time>2016-8-31T3:43:12Z</time></trkpt>
<trkpt lat="46.23452" lon="7.2896"><ele></ele><time>2016-8-31T3:43:15Z</time></trkpt>
<trkpt lat="46.23457" lon="7.28959"><ele></ele><time>2016-8-31T3:43:18Z</time></trkpt>
<trkpt lat="46.23462" lon="7.28958"><ele></ele><time>2016-8-31T3:43:21Z</time></trkpt>
<trkpt lat="46.23467" lon="7.28957"><ele></ele><time>2016-8-31T3:43:24Z</time></trkpt>
<trkpt lat="46.23472" lon="7.28956"><ele></ele><time>2016-8-31T3:43:27Z</time></trkpt>
<trkpt lat="46.23477" lon="7.28955"><ele></ele><time>2016-8-31T3:43:30Z</time></trkpt>
<trkpt lat="46.23481" lon="7.28955"><ele></ele><time>2016-8-31T3:43:33Z</time></trkpt>
<trkpt lat="46.23486" lon="7.28954"><ele></ele><time>2016-8-31T3:43:36Z</time></trkpt>
<trkpt lat="46.23489" lon="7.28953"><ele></ele><time>2016-8-31T3:43:39Z</time></trkpt>
<trkpt lat="46.2349" lon="7.28951"><ele></ele><time>2016-8-31T3:43:42Z</time></trkpt>
<trkpt lat="46.23492" lon="7.28944"><ele></ele><time>2016-8-31T3:43:45Z</time></trkpt>
<trkpt lat="46.23495" lon="7.28938"><ele></ele><time>2016-8-31T3:43:48Z</time></trkpt>
<trkpt lat="46.23497" lon="7.28932"><ele></ele><time>2016-8-31T3:43:51Z</time></trkpt>
<trkpt lat="46.23496" lon="7.28927"><ele></ele><time>2016-8-31T3:43:54Z</time></trkpt>
<trkpt lat="46.23495" lon="7.28922"><ele></ele><time>2016-8-31T3:43:57Z</time></trkpt>
<trkpt lat="46.23494" lon="7.28918"><ele></ele><time>2016-8-31T3:44:0Z</time></trkpt>
<trkpt lat="46.23493" lon="7.28913"><ele></ele><time>2016-8-31T3:44:3Z</time></trkpt>
<trkpt lat="46.23491" lon="7.28908"><ele></ele><time>2016-8-31T3:44:6Z</time></trkpt>
<trkpt lat="46.2349" lon="7.28903"><ele></ele><time>2016-8-31T3:44:9Z</time></trkpt>
<trkpt lat="46.23489" lon="7.28898"><ele></ele><time>2016-8-31T3:44:12Z</time></trkpt>
<trkpt lat="46.23485" lon="7.28891"><ele></ele><time>2016-8-31T3:44:15Z</time></trkpt>
<trkpt lat="46.23482" lon="7.28885"><ele></ele><time>2016-8-31T3:44:18Z</time></trkpt>
<trkpt lat="46.23478" lon="7.28878"><ele></ele><time>2016-8-31T3:44:21Z</time></trkpt>
<trkpt lat="46.23474" lon="7.28872"><ele></ele><time>2016-8-31T3:44:24Z</time></trkpt>
<trkpt lat="46.2347" lon="7.28865"><ele></ele><time>2016-8-31T3:44:27Z</time></trkpt>
<trkpt lat="46.23466" lon="7.28858"><ele></ele><time>2016-8-31T3:44:30Z</time></trkpt>
<trkpt lat="46.23463" lon="7.28852"><ele></ele><time>2016-8-31T3:44:33Z</time></trkpt>
<trkpt lat="46.23459" lon="7.28845"><ele></ele><time>2016-8-31T3:44:36Z</time></trkpt>
<trkpt lat="46.23455" lon="7.28839"><ele></ele><time>2016-8-31T3:44:39Z</time></trkpt>
<trkpt lat="46.23451" lon="7.28833"><ele></ele><time>2016-8-31T3:44:42Z</time></trkpt>
<trkpt lat="46.23446" lon="7.28827"><ele></ele><time>2016-8-31T3:44:45Z</time></trkpt>
<trkpt lat="46.23442" lon="7.28821"><ele></ele><time>2016-8-31T3:44:48Z</time></trkpt>
<trkpt lat="46.23438" lon="7.28814"><ele></ele><time>2016-8-31T3:44:51Z</time></trkpt>
<trkpt lat="46.23434" lon="7.28808"><ele></ele><time>2016-8-31T3:44:54Z</time></trkpt>
<trkpt lat="46.2343" lon="7.28802"><ele></ele><time>2016-8-31T3:44:57Z</time></trkpt>
<trkpt lat="46.23426" lon="7.28796"><ele></ele><time>2016-8-31T3:45:0Z</time></trkpt>
<trkpt lat="46.2342" lon="7.28784"><ele></ele><time>2016-8-31T3:45:3Z</time></trkpt>
<trkpt lat="46.23414" lon="7.28771"><ele></ele><time>2016-8-31T3:45:6Z</time></trkpt>
<trkpt lat="46.23408" lon="7.28759"><ele></ele><time>2016-8-31T3:45:9Z</time></trkpt>
<trkpt lat="46.23402" lon="7.28747"><ele></ele><time>2016-8-31T3:45:12Z</time></trkpt>
<trkpt lat="46.234" lon="7.28741"><ele></ele><time>2016-8-31T3:45:15Z</time></trkpt>
<trkpt lat="46.23396" lon="7.28733"><ele></ele><time>2016-8-31T3:45:18Z</time></trkpt>
<trkpt lat="46.23388" lon="7.28718"><ele></ele><time>2016-8-31T3:45:21Z</time></trkpt>
<trkpt lat="46.23381" lon="7.28703"><ele></ele><time>2016-8-31T3:45:24Z</time></trkpt>
<trkpt lat="46.23377" lon="7.28695"><ele></ele><time>2016-8-31T3:45:27Z</time></trkpt>
<trkpt lat="46.23375" lon="7.28686"><ele></ele><time>2016-8-31T3:45:30Z</time></trkpt>
<trkpt lat="46.23373" lon="7.28675"><ele></ele><time>2016-8-31T3:45:33Z</time></trkpt>
<trkpt lat="46.23371" lon="7.28665"><ele></ele><time>2016-8-31T3:45:36Z</time></trkpt>
<trkpt lat="46.23367" lon="7.28645"><ele></ele><time>2016-8-31T3:45:39Z</time></trkpt>
<trkpt lat="46.23364" lon="7.28625"><ele></ele><time>2016-8-31T3:45:42Z</time></trkpt>
<trkpt lat="46.23366" lon="7.28603"><ele></ele><time>2016-8-31T3:45:45Z</time></trkpt>
<trkpt lat="46.23368" lon="7.28581"><ele></ele><time>2016-8-31T3:45:48Z</time></trkpt>
<trkpt lat="46.2337" lon="7.28559"><ele></ele><time>2016-8-31T3:45:51Z</time></trkpt>
<trkpt lat="46.2337" lon="7.28536"><ele></ele><time>2016-8-31T3:45:54Z</time></trkpt>
<trkpt lat="46.23371" lon="7.28512"><ele></ele><time>2016-8-31T3:45:57Z</time></trkpt>
<trkpt lat="46.23371" lon="7.28489"><ele></ele><time>2016-8-31T3:46:0Z</time></trkpt>
<trkpt lat="46.23374" lon="7.28466"><ele></ele><time>2016-8-31T3:46:3Z</time></trkpt>
<trkpt lat="46.23384" lon="7.28435"><ele></ele><time>2016-8-31T3:46:6Z</time></trkpt>
<trkpt lat="46.23386" lon="7.28422"><ele></ele><time>2016-8-31T3:46:9Z</time></trkpt>
<trkpt lat="46.23387" lon="7.28396"><ele></ele><time>2016-8-31T3:46:12Z</time></trkpt>
<trkpt lat="46.23389" lon="7.28369"><ele></ele><time>2016-8-31T3:46:15Z</time></trkpt>
<trkpt lat="46.23386" lon="7.28357"><ele></ele><time>2016-8-31T3:46:18Z</time></trkpt>
<trkpt lat="46.23384" lon="7.28345"><ele></ele><time>2016-8-31T3:46:21Z</time></trkpt>
<trkpt lat="46.23378" lon="7.28321"><ele></ele><time>2016-8-31T3:46:24Z</time></trkpt>
<trkpt lat="46.23373" lon="7.28297"><ele></ele><time>2016-8-31T3:46:27Z</time></trkpt>
<trkpt lat="46.23367" lon="7.2827"><ele></ele><time>2016-8-31T3:46:30Z</time></trkpt>
<trkpt lat="46.23361" lon="7.28243"><ele></ele><time>2016-8-31T3:46:33Z</time></trkpt>
<trkpt lat="46.23359" lon="7.2823"><ele></ele><time>2016-8-31T3:46:36Z</time></trkpt>
<trkpt lat="46.23358" lon="7.28214"><ele></ele><time>2016-8-31T3:46:39Z</time></trkpt>
<trkpt lat="46.23357" lon="7.28199"><ele></ele><time>2016-8-31T3:46:42Z</time></trkpt>
<trkpt lat="46.23357" lon="7.28184"><ele></ele><time>2016-8-31T3:46:45Z</time></trkpt>
<trkpt lat="46.23356" lon="7.28153"><ele></ele><time>2016-8-31T3:46:48Z</time></trkpt>
<trkpt lat="46.23348" lon="7.28127"><ele></ele><time>2016-8-31T3:46:51Z</time></trkpt>
<trkpt lat="46.23344" lon="7.28114"><ele></ele><time>2016-8-31T3:46:54Z</time></trkpt>
<trkpt lat="46.23341" lon="7.28101"><ele></ele><time>2016-8-31T3:46:57Z</time></trkpt>
<trkpt lat="46.23337" lon="7.28088"><ele></ele><time>2016-8-31T3:47:0Z</time></trkpt>
<trkpt lat="46.23333" lon="7.28078"><ele></ele><time>2016-8-31T3:47:3Z</time></trkpt>
<trkpt lat="46.23326" lon="7.28059"><ele></ele><time>2016-8-31T3:47:6Z</time></trkpt>
<trkpt lat="46.23314" lon="7.2805"><ele></ele><time>2016-8-31T3:47:9Z</time></trkpt>
<trkpt lat="46.23301" lon="7.28041"><ele></ele><time>2016-8-31T3:47:12Z</time></trkpt>
<trkpt lat="46.23289" lon="7.28033"><ele></ele><time>2016-8-31T3:47:15Z</time></trkpt>
<trkpt lat="46.23283" lon="7.28028"><ele></ele><time>2016-8-31T3:47:18Z</time></trkpt>
<trkpt lat="46.23282" lon="7.28025"><ele></ele><time>2016-8-31T3:47:21Z</time></trkpt>
<trkpt lat="46.23282" lon="7.28022"><ele></ele><time>2016-8-31T3:47:24Z</time></trkpt>
<trkpt lat="46.23286" lon="7.28018"><ele></ele><time>2016-8-31T3:47:27Z</time></trkpt>
<trkpt lat="46.23297" lon="7.28012"><ele></ele><time>2016-8-31T3:47:30Z</time></trkpt>
<trkpt lat="46.23302" lon="7.28008"><ele></ele><time>2016-8-31T3:47:33Z</time></trkpt>
<trkpt lat="46.23307" lon="7.28005"><ele></ele><time>2016-8-31T3:47:36Z</time></trkpt>
<trkpt lat="46.23304" lon="7.2799"><ele></ele><time>2016-8-31T3:47:39Z</time></trkpt>
<trkpt lat="46.23291" lon="7.2798"><ele></ele><time>2016-8-31T3:47:42Z</time></trkpt>
<trkpt lat="46.23277" lon="7.27971"><ele></ele><time>2016-8-31T3:47:45Z</time></trkpt>
<trkpt lat="46.2327" lon="7.27966"><ele></ele><time>2016-8-31T3:47:48Z</time></trkpt>
<trkpt lat="46.2326" lon="7.27962"><ele></ele><time>2016-8-31T3:47:51Z</time></trkpt>
<trkpt lat="46.2324" lon="7.27954"><ele></ele><time>2016-8-31T3:47:54Z</time></trkpt>
<trkpt lat="46.2322" lon="7.27946"><ele></ele><time>2016-8-31T3:47:57Z</time></trkpt>
<trkpt lat="46.23202" lon="7.27928"><ele></ele><time>2016-8-31T3:48:0Z</time></trkpt>
<trkpt lat="46.23192" lon="7.27918"><ele></ele><time>2016-8-31T3:48:3Z</time></trkpt>
<trkpt lat="46.23186" lon="7.27907"><ele></ele><time>2016-8-31T3:48:6Z</time></trkpt>
<trkpt lat="46.23179" lon="7.27895"><ele></ele><time>2016-8-31T3:48:9Z</time></trkpt>
<trkpt lat="46.23176" lon="7.27882"><ele></ele><time>2016-8-31T3:48:12Z</time></trkpt>
<trkpt lat="46.23171" lon="7.27856"><ele></ele><time>2016-8-31T3:48:15Z</time></trkpt>
<trkpt lat="46.23172" lon="7.27843"><ele></ele><time>2016-8-31T3:48:18Z</time></trkpt>
<trkpt lat="46.23173" lon="7.27831"><ele></ele><time>2016-8-31T3:48:21Z</time></trkpt>
<trkpt lat="46.23174" lon="7.27805"><ele></ele><time>2016-8-31T3:48:24Z</time></trkpt>
<trkpt lat="46.23173" lon="7.27798"><ele></ele><time>2016-8-31T3:48:27Z</time></trkpt>
<trkpt lat="46.2317" lon="7.27797"><ele></ele><time>2016-8-31T3:48:30Z</time></trkpt>
<trkpt lat="46.23167" lon="7.27796"><ele></ele><time>2016-8-31T3:48:33Z</time></trkpt>
<trkpt lat="46.23162" lon="7.27799"><ele></ele><time>2016-8-31T3:48:36Z</time></trkpt>
<trkpt lat="46.23152" lon="7.27806"><ele></ele><time>2016-8-31T3:48:39Z</time></trkpt>
<trkpt lat="46.23147" lon="7.2781"><ele></ele><time>2016-8-31T3:48:42Z</time></trkpt>
<trkpt lat="46.23141" lon="7.27811"><ele></ele><time>2016-8-31T3:48:45Z</time></trkpt>
<trkpt lat="46.23128" lon="7.27812"><ele></ele><time>2016-8-31T3:48:48Z</time></trkpt>
<trkpt lat="46.23117" lon="7.27801"><ele></ele><time>2016-8-31T3:48:51Z</time></trkpt>
<trkpt lat="46.23106" lon="7.27789"><ele></ele><time>2016-8-31T3:48:54Z</time></trkpt>
<trkpt lat="46.23096" lon="7.27777"><ele></ele><time>2016-8-31T3:48:57Z</time></trkpt>
<trkpt lat="46.2309" lon="7.2777"><ele></ele><time>2016-8-31T3:49:0Z</time></trkpt>
<trkpt lat="46.23085" lon="7.27762"><ele></ele><time>2016-8-31T3:49:3Z</time></trkpt>
<trkpt lat="46.23076" lon="7.27746"><ele></ele><time>2016-8-31T3:49:6Z</time></trkpt>
<trkpt lat="46.23066" lon="7.27729"><ele></ele><time>2016-8-31T3:49:9Z</time></trkpt>
<trkpt lat="46.23061" lon="7.27721"><ele></ele><time>2016-8-31T3:49:12Z</time></trkpt>
<trkpt lat="46.23054" lon="7.27711"><ele></ele><time>2016-8-31T3:49:15Z</time></trkpt>
<trkpt lat="46.23047" lon="7.27702"><ele></ele><time>2016-8-31T3:49:18Z</time></trkpt>
<trkpt lat="46.2304" lon="7.27693"><ele></ele><time>2016-8-31T3:49:21Z</time></trkpt>
<trkpt lat="46.23026" lon="7.27675"><ele></ele><time>2016-8-31T3:49:24Z</time></trkpt>
<trkpt lat="46.23007" lon="7.27655"><ele></ele><time>2016-8-31T3:49:27Z</time></trkpt>
<trkpt lat="46.22988" lon="7.27636"><ele></ele><time>2016-8-31T3:49:30Z</time></trkpt>
<trkpt lat="46.22966" lon="7.27613"><ele></ele><time>2016-8-31T3:49:33Z</time></trkpt>
<trkpt lat="46.22945" lon="7.2759"><ele></ele><time>2016-8-31T3:49:36Z</time></trkpt>
<trkpt lat="46.22927" lon="7.27562"><ele></ele><time>2016-8-31T3:49:39Z</time></trkpt>
<trkpt lat="46.22909" lon="7.27533"><ele></ele><time>2016-8-31T3:49:42Z</time></trkpt>
<trkpt lat="46.22887" lon="7.27516"><ele></ele><time>2016-8-31T3:49:45Z</time></trkpt>
<trkpt lat="46.22865" lon="7.27499"><ele></ele><time>2016-8-31T3:49:48Z</time></trkpt>
<trkpt lat="46.22842" lon="7.27482"><ele></ele><time>2016-8-31T3:49:51Z</time></trkpt>
<trkpt lat="46.22831" lon="7.27474"><ele></ele><time>2016-8-31T3:49:54Z</time></trkpt>
<trkpt lat="46.22819" lon="7.27466"><ele></ele><time>2016-8-31T3:49:57Z</time></trkpt>
<trkpt lat="46.22796" lon="7.27445"><ele></ele><time>2016-8-31T3:50:0Z</time></trkpt>
<trkpt lat="46.22773" lon="7.27424"><ele></ele><time>2016-8-31T3:50:3Z</time></trkpt>
<trkpt lat="46.22748" lon="7.27404"><ele></ele><time>2016-8-31T3:50:6Z</time></trkpt>
<trkpt lat="46.22723" lon="7.27383"><ele></ele><time>2016-8-31T3:50:9Z</time></trkpt>
<trkpt lat="46.22704" lon="7.27371"><ele></ele><time>2016-8-31T3:50:12Z</time></trkpt>
<trkpt lat="46.22685" lon="7.2736"><ele></ele><time>2016-8-31T3:50:15Z</time></trkpt>
<trkpt lat="46.22676" lon="7.27354"><ele></ele><time>2016-8-31T3:50:18Z</time></trkpt>
<trkpt lat="46.22671" lon="7.27349"><ele></ele><time>2016-8-31T3:50:21Z</time></trkpt>
<trkpt lat="46.22672" lon="7.27345"><ele></ele><time>2016-8-31T3:50:24Z</time></trkpt>
<trkpt lat="46.22673" lon="7.27342"><ele></ele><time>2016-8-31T3:50:27Z</time></trkpt>
<trkpt lat="46.22684" lon="7.27344"><ele></ele><time>2016-8-31T3:50:30Z</time></trkpt>
<trkpt lat="46.22689" lon="7.27345"><ele></ele><time>2016-8-31T3:50:33Z</time></trkpt>
<trkpt lat="46.22694" lon="7.27341"><ele></ele><time>2016-8-31T3:50:36Z</time></trkpt>
<trkpt lat="46.22699" lon="7.27337"><ele></ele><time>2016-8-31T3:50:39Z</time></trkpt>
<trkpt lat="46.22701" lon="7.27329"><ele></ele><time>2016-8-31T3:50:42Z</time></trkpt>
<trkpt lat="46.22703" lon="7.2732"><ele></ele><time>2016-8-31T3:50:45Z</time></trkpt>
<trkpt lat="46.22701" lon="7.27312"><ele></ele><time>2016-8-31T3:50:48Z</time></trkpt>
<trkpt lat="46.22695" lon="7.27298"><ele></ele><time>2016-8-31T3:50:51Z</time></trkpt>
<trkpt lat="46.22689" lon="7.27284"><ele></ele><time>2016-8-31T3:50:54Z</time></trkpt>
<trkpt lat="46.22681" lon="7.27275"><ele></ele><time>2016-8-31T3:50:57Z</time></trkpt>
<trkpt lat="46.22672" lon="7.27266"><ele></ele><time>2016-8-31T3:51:0Z</time></trkpt>
<trkpt lat="46.22664" lon="7.27257"><ele></ele><time>2016-8-31T3:51:3Z</time></trkpt>
<trkpt lat="46.22655" lon="7.27248"><ele></ele><time>2016-8-31T3:51:6Z</time></trkpt>
<trkpt lat="46.22651" lon="7.27243"><ele></ele><time>2016-8-31T3:51:9Z</time></trkpt>
<trkpt lat="46.22644" lon="7.27234"><ele></ele><time>2016-8-31T3:51:12Z</time></trkpt>
<trkpt lat="46.2263" lon="7.27214"><ele></ele><time>2016-8-31T3:51:15Z</time></trkpt>
<trkpt lat="46.22616" lon="7.27194"><ele></ele><time>2016-8-31T3:51:18Z</time></trkpt>
<trkpt lat="46.22595" lon="7.27175"><ele></ele><time>2016-8-31T3:51:21Z</time></trkpt>
<trkpt lat="46.22574" lon="7.27157"><ele></ele><time>2016-8-31T3:51:24Z</time></trkpt>
<trkpt lat="46.22553" lon="7.27138"><ele></ele><time>2016-8-31T3:51:27Z</time></trkpt>
<trkpt lat="46.22543" lon="7.27129"><ele></ele><time>2016-8-31T3:51:30Z</time></trkpt>
<trkpt lat="46.22532" lon="7.27119"><ele></ele><time>2016-8-31T3:51:33Z</time></trkpt>
<trkpt lat="46.22513" lon="7.271"><ele></ele><time>2016-8-31T3:51:36Z</time></trkpt>
<trkpt lat="46.22494" lon="7.27081"><ele></ele><time>2016-8-31T3:51:39Z</time></trkpt>
<trkpt lat="46.22482" lon="7.27072"><ele></ele><time>2016-8-31T3:51:42Z</time></trkpt>
<trkpt lat="46.2247" lon="7.27063"><ele></ele><time>2016-8-31T3:51:45Z</time></trkpt>
<trkpt lat="46.22445" lon="7.27046"><ele></ele><time>2016-8-31T3:51:48Z</time></trkpt>
<trkpt lat="46.22422" lon="7.27027"><ele></ele><time>2016-8-31T3:51:51Z</time></trkpt>
<trkpt lat="46.22398" lon="7.27007"><ele></ele><time>2016-8-31T3:51:54Z</time></trkpt>
<trkpt lat="46.22377" lon="7.26984"><ele></ele><time>2016-8-31T3:51:57Z</time></trkpt>
<trkpt lat="46.22357" lon="7.2696"><ele></ele><time>2016-8-31T3:52:0Z</time></trkpt>
<trkpt lat="46.22338" lon="7.26941"><ele></ele><time>2016-8-31T3:52:3Z</time></trkpt>
<trkpt lat="46.22318" lon="7.26921"><ele></ele><time>2016-8-31T3:52:6Z</time></trkpt>
<trkpt lat="46.22312" lon="7.2691"><ele></ele><time>2016-8-31T3:52:9Z</time></trkpt>
<trkpt lat="46.22306" lon="7.26898"><ele></ele><time>2016-8-31T3:52:12Z</time></trkpt>
<trkpt lat="46.22301" lon="7.26886"><ele></ele><time>2016-8-31T3:52:15Z</time></trkpt>
<trkpt lat="46.22295" lon="7.26871"><ele></ele><time>2016-8-31T3:52:18Z</time></trkpt>
<trkpt lat="46.22284" lon="7.26842"><ele></ele><time>2016-8-31T3:52:21Z</time></trkpt>
<trkpt lat="46.22279" lon="7.26828"><ele></ele><time>2016-8-31T3:52:24Z</time></trkpt>
<trkpt lat="46.22271" lon="7.26814"><ele></ele><time>2016-8-31T3:52:27Z</time></trkpt>
<trkpt lat="46.22255" lon="7.26786"><ele></ele><time>2016-8-31T3:52:30Z</time></trkpt>
<trkpt lat="46.22236" lon="7.26767"><ele></ele><time>2016-8-31T3:52:33Z</time></trkpt>
<trkpt lat="46.22216" lon="7.26748"><ele></ele><time>2016-8-31T3:52:36Z</time></trkpt>
<trkpt lat="46.22204" lon="7.26744"><ele></ele><time>2016-8-31T3:52:39Z</time></trkpt>
<trkpt lat="46.22198" lon="7.26743"><ele></ele><time>2016-8-31T3:52:42Z</time></trkpt>
<trkpt lat="46.22193" lon="7.26741"><ele></ele><time>2016-8-31T3:52:45Z</time></trkpt>
<trkpt lat="46.22182" lon="7.26745"><ele></ele><time>2016-8-31T3:52:48Z</time></trkpt>
<trkpt lat="46.22171" lon="7.26751"><ele></ele><time>2016-8-31T3:52:51Z</time></trkpt>
<trkpt lat="46.22167" lon="7.26755"><ele></ele><time>2016-8-31T3:52:54Z</time></trkpt>
<trkpt lat="46.22163" lon="7.26759"><ele></ele><time>2016-8-31T3:52:57Z</time></trkpt>
<trkpt lat="46.22156" lon="7.26766"><ele></ele><time>2016-8-31T3:53:0Z</time></trkpt>
<trkpt lat="46.22146" lon="7.26772"><ele></ele><time>2016-8-31T3:53:3Z</time></trkpt>
<trkpt lat="46.22141" lon="7.26774"><ele></ele><time>2016-8-31T3:53:6Z</time></trkpt>
<trkpt lat="46.22138" lon="7.26776"><ele></ele><time>2016-8-31T3:53:9Z</time></trkpt>
<trkpt lat="46.22133" lon="7.2678"><ele></ele><time>2016-8-31T3:53:12Z</time></trkpt>
<trkpt lat="46.22128" lon="7.26784"><ele></ele><time>2016-8-31T3:53:15Z</time></trkpt>
<trkpt lat="46.22123" lon="7.26788"><ele></ele><time>2016-8-31T3:53:18Z</time></trkpt>
<trkpt lat="46.22118" lon="7.26792"><ele></ele><time>2016-8-31T3:53:21Z</time></trkpt>
<trkpt lat="46.22113" lon="7.26796"><ele></ele><time>2016-8-31T3:53:24Z</time></trkpt>
<trkpt lat="46.22108" lon="7.268"><ele></ele><time>2016-8-31T3:53:27Z</time></trkpt>
<trkpt lat="46.22103" lon="7.26804"><ele></ele><time>2016-8-31T3:53:30Z</time></trkpt>
<trkpt lat="46.221" lon="7.26806"><ele></ele><time>2016-8-31T3:53:33Z</time></trkpt>
<trkpt lat="46.22099" lon="7.26808"><ele></ele><time>2016-8-31T3:53:36Z</time></trkpt>
<trkpt lat="46.22095" lon="7.26811"><ele></ele><time>2016-8-31T3:53:39Z</time></trkpt>
<trkpt lat="46.22091" lon="7.26814"><ele></ele><time>2016-8-31T3:53:42Z</time></trkpt>
<trkpt lat="46.22088" lon="7.26817"><ele></ele><time>2016-8-31T3:53:45Z</time></trkpt>
<trkpt lat="46.22084" lon="7.2682"><ele></ele><time>2016-8-31T3:53:48Z</time></trkpt>
<trkpt lat="46.22081" lon="7.26824"><ele></ele><time>2016-8-31T3:53:51Z</time></trkpt>
<trkpt lat="46.22077" lon="7.26827"><ele></ele><time>2016-8-31T3:53:54Z</time></trkpt>
<trkpt lat="46.22074" lon="7.2683"><ele></ele><time>2016-8-31T3:53:57Z</time></trkpt>
<trkpt lat="46.22072" lon="7.26831"><ele></ele><time>2016-8-31T3:54:0Z</time></trkpt>
<trkpt lat="46.22072" lon="7.26832"><ele></ele><time>2016-8-31T3:54:3Z</time></trkpt>
<trkpt lat="46.22073" lon="7.26833"><ele></ele><time>2016-8-31T3:54:6Z</time></trkpt>
<trkpt lat="46.22073" lon="7.26833"><ele></ele><time>2016-8-31T3:54:9Z</time></trkpt>
<trkpt lat="46.22074" lon="7.26834"><ele></ele><time>2016-8-31T3:54:12Z</time></trkpt>
<trkpt lat="46.22075" lon="7.26834"><ele></ele><time>2016-8-31T3:54:15Z</time></trkpt>
<trkpt lat="46.22075" lon="7.26835"><ele></ele><time>2016-8-31T3:54:18Z</time></trkpt>
<trkpt lat="46.22076" lon="7.26835"><ele></ele><time>2016-8-31T3:54:21Z</time></trkpt>
<trkpt lat="46.22074" lon="7.26837"><ele></ele><time>2016-8-31T3:54:24Z</time></trkpt>
<trkpt lat="46.2207" lon="7.26839"><ele></ele><time>2016-8-31T3:54:27Z</time></trkpt>
<trkpt lat="46.22066" lon="7.26842"><ele></ele><time>2016-8-31T3:54:30Z</time></trkpt>
<trkpt lat="46.22063" lon="7.26845"><ele></ele><time>2016-8-31T3:54:33Z</time></trkpt>
<trkpt lat="46.22059" lon="7.26848"><ele></ele><time>2016-8-31T3:54:36Z</time></trkpt>
<trkpt lat="46.22055" lon="7.26851"><ele></ele><time>2016-8-31T3:54:39Z</time></trkpt>
<trkpt lat="46.22051" lon="7.26854"><ele></ele><time>2016-8-31T3:54:42Z</time></trkpt>
<trkpt lat="46.22047" lon="7.26856"><ele></ele><time>2016-8-31T3:54:45Z</time></trkpt>
<trkpt lat="46.22043" lon="7.26859"><ele></ele><time>2016-8-31T3:54:48Z</time></trkpt>
<trkpt lat="46.2204" lon="7.26862"><ele></ele><time>2016-8-31T3:54:51Z</time></trkpt>
<trkpt lat="46.22036" lon="7.26865"><ele></ele><time>2016-8-31T3:54:54Z</time></trkpt>
<trkpt lat="46.2203" lon="7.26866"><ele></ele><time>2016-8-31T3:54:57Z</time></trkpt>
<trkpt lat="46.22025" lon="7.26868"><ele></ele><time>2016-8-31T3:55:0Z</time></trkpt>
<trkpt lat="46.22019" lon="7.26869"><ele></ele><time>2016-8-31T3:55:3Z</time></trkpt>
<trkpt lat="46.22013" lon="7.26871"><ele></ele><time>2016-8-31T3:55:6Z</time></trkpt>
<trkpt lat="46.22011" lon="7.26871"><ele></ele><time>2016-8-31T3:55:9Z</time></trkpt>
<trkpt lat="46.22008" lon="7.26868"><ele></ele><time>2016-8-31T3:55:12Z</time></trkpt>
<trkpt lat="46.22005" lon="7.26861"><ele></ele><time>2016-8-31T3:55:15Z</time></trkpt>
<trkpt lat="46.22001" lon="7.26853"><ele></ele><time>2016-8-31T3:55:18Z</time></trkpt>
<trkpt lat="46.21997" lon="7.26846"><ele></ele><time>2016-8-31T3:55:21Z</time></trkpt>
<trkpt lat="46.21993" lon="7.26838"><ele></ele><time>2016-8-31T3:55:24Z</time></trkpt>
<trkpt lat="46.21989" lon="7.26831"><ele></ele><time>2016-8-31T3:55:27Z</time></trkpt>
<trkpt lat="46.21985" lon="7.26823"><ele></ele><time>2016-8-31T3:55:30Z</time></trkpt>
<trkpt lat="46.21983" lon="7.2682"><ele></ele><time>2016-8-31T3:55:33Z</time></trkpt>
<trkpt lat="46.21981" lon="7.26816"><ele></ele><time>2016-8-31T3:55:36Z</time></trkpt>
<trkpt lat="46.21977" lon="7.26808"><ele></ele><time>2016-8-31T3:55:39Z</time></trkpt>
<trkpt lat="46.21973" lon="7.268"><ele></ele><time>2016-8-31T3:55:42Z</time></trkpt>
<trkpt lat="46.2197" lon="7.26792"><ele></ele><time>2016-8-31T3:55:45Z</time></trkpt>
<trkpt lat="46.21966" lon="7.26784"><ele></ele><time>2016-8-31T3:55:48Z</time></trkpt>
<trkpt lat="46.21962" lon="7.26776"><ele></ele><time>2016-8-31T3:55:51Z</time></trkpt>
<trkpt lat="46.21958" lon="7.26768"><ele></ele><time>2016-8-31T3:55:54Z</time></trkpt>
<trkpt lat="46.21956" lon="7.26764"><ele></ele><time>2016-8-31T3:55:57Z</time></trkpt>
<trkpt lat="46.21954" lon="7.2676"><ele></ele><time>2016-8-31T3:56:0Z</time></trkpt>
<trkpt lat="46.21949" lon="7.26751"><ele></ele><time>2016-8-31T3:56:3Z</time></trkpt>
<trkpt lat="46.21945" lon="7.26742"><ele></ele><time>2016-8-31T3:56:6Z</time></trkpt>
<trkpt lat="46.2194" lon="7.26734"><ele></ele><time>2016-8-31T3:56:9Z</time></trkpt>
<trkpt lat="46.21936" lon="7.26725"><ele></ele><time>2016-8-31T3:56:12Z</time></trkpt>
<trkpt lat="46.21931" lon="7.26716"><ele></ele><time>2016-8-31T3:56:15Z</time></trkpt>
<trkpt lat="46.21929" lon="7.26712"><ele></ele><time>2016-8-31T3:56:18Z</time></trkpt>
<trkpt lat="46.21926" lon="7.26707"><ele></ele><time>2016-8-31T3:56:21Z</time></trkpt>
<trkpt lat="46.21921" lon="7.26697"><ele></ele><time>2016-8-31T3:56:24Z</time></trkpt>
<trkpt lat="46.21915" lon="7.26686"><ele></ele><time>2016-8-31T3:56:27Z</time></trkpt>
<trkpt lat="46.2191" lon="7.26676"><ele></ele><time>2016-8-31T3:56:30Z</time></trkpt>
<trkpt lat="46.21905" lon="7.26666"><ele></ele><time>2016-8-31T3:56:33Z</time></trkpt>
<trkpt lat="46.21899" lon="7.26656"><ele></ele><time>2016-8-31T3:56:36Z</time></trkpt>
<trkpt lat="46.21895" lon="7.26646"><ele></ele><time>2016-8-31T3:56:39Z</time></trkpt>
<trkpt lat="46.2189" lon="7.26636"><ele></ele><time>2016-8-31T3:56:42Z</time></trkpt>
<trkpt lat="46.21885" lon="7.26626"><ele></ele><time>2016-8-31T3:56:45Z</time></trkpt>
<trkpt lat="46.2188" lon="7.26615"><ele></ele><time>2016-8-31T3:56:48Z</time></trkpt>
<trkpt lat="46.21876" lon="7.26605"><ele></ele><time>2016-8-31T3:56:51Z</time></trkpt>
<trkpt lat="46.21873" lon="7.266"><ele></ele><time>2016-8-31T3:56:54Z</time></trkpt>
<trkpt lat="46.21872" lon="7.26596"><ele></ele><time>2016-8-31T3:56:57Z</time></trkpt>
<trkpt lat="46.21871" lon="7.26592"><ele></ele><time>2016-8-31T3:57:0Z</time></trkpt>
<trkpt lat="46.21869" lon="7.26587"><ele></ele><time>2016-8-31T3:57:3Z</time></trkpt>
<trkpt lat="46.21866" lon="7.26579"><ele></ele><time>2016-8-31T3:57:6Z</time></trkpt>
<trkpt lat="46.21864" lon="7.2657"><ele></ele><time>2016-8-31T3:57:9Z</time></trkpt>
<trkpt lat="46.21861" lon="7.26562"><ele></ele><time>2016-8-31T3:57:12Z</time></trkpt>
<trkpt lat="46.21858" lon="7.26553"><ele></ele><time>2016-8-31T3:57:15Z</time></trkpt>
<trkpt lat="46.21857" lon="7.26549"><ele></ele><time>2016-8-31T3:57:18Z</time></trkpt>
<trkpt lat="46.21853" lon="7.26549"><ele></ele><time>2016-8-31T3:57:21Z</time></trkpt>
<trkpt lat="46.21845" lon="7.26551"><ele></ele><time>2016-8-31T3:57:24Z</time></trkpt>
<trkpt lat="46.21838" lon="7.26553"><ele></ele><time>2016-8-31T3:57:27Z</time></trkpt>
<trkpt lat="46.2183" lon="7.26555"><ele></ele><time>2016-8-31T3:57:30Z</time></trkpt>
<trkpt lat="46.21822" lon="7.26557"><ele></ele><time>2016-8-31T3:57:33Z</time></trkpt>
<trkpt lat="46.21819" lon="7.26558"><ele></ele><time>2016-8-31T3:57:36Z</time></trkpt>
<trkpt lat="46.21816" lon="7.26554"><ele></ele><time>2016-8-31T3:57:39Z</time></trkpt>
<trkpt lat="46.21811" lon="7.26545"><ele></ele><time>2016-8-31T3:57:42Z</time></trkpt>
<trkpt lat="46.21805" lon="7.26537"><ele></ele><time>2016-8-31T3:57:45Z</time></trkpt>
<trkpt lat="46.218" lon="7.26528"><ele></ele><time>2016-8-31T3:57:48Z</time></trkpt>
<trkpt lat="46.21795" lon="7.26519"><ele></ele><time>2016-8-31T3:57:51Z</time></trkpt>
<trkpt lat="46.21789" lon="7.26511"><ele></ele><time>2016-8-31T3:57:54Z</time></trkpt>
<trkpt lat="46.21787" lon="7.26507"><ele></ele><time>2016-8-31T3:57:57Z</time></trkpt>
<trkpt lat="46.21784" lon="7.26503"><ele></ele><time>2016-8-31T3:58:0Z</time></trkpt>
<trkpt lat="46.21779" lon="7.26495"><ele></ele><time>2016-8-31T3:58:3Z</time></trkpt>
<trkpt lat="46.21775" lon="7.26487"><ele></ele><time>2016-8-31T3:58:6Z</time></trkpt>
<trkpt lat="46.2177" lon="7.26479"><ele></ele><time>2016-8-31T3:58:9Z</time></trkpt>
<trkpt lat="46.21765" lon="7.26471"><ele></ele><time>2016-8-31T3:58:12Z</time></trkpt>
<trkpt lat="46.2176" lon="7.26463"><ele></ele><time>2016-8-31T3:58:15Z</time></trkpt>
<trkpt lat="46.21756" lon="7.26455"><ele></ele><time>2016-8-31T3:58:18Z</time></trkpt>
<trkpt lat="46.2175" lon="7.26447"><ele></ele><time>2016-8-31T3:58:21Z</time></trkpt>
<trkpt lat="46.21744" lon="7.26439"><ele></ele><time>2016-8-31T3:58:24Z</time></trkpt>
<trkpt lat="46.21739" lon="7.26431"><ele></ele><time>2016-8-31T3:58:27Z</time></trkpt>
<trkpt lat="46.21733" lon="7.26423"><ele></ele><time>2016-8-31T3:58:30Z</time></trkpt>
<trkpt lat="46.21727" lon="7.26415"><ele></ele><time>2016-8-31T3:58:33Z</time></trkpt>
<trkpt lat="46.21722" lon="7.26407"><ele></ele><time>2016-8-31T3:58:36Z</time></trkpt>
<trkpt lat="46.21716" lon="7.264"><ele></ele><time>2016-8-31T3:58:39Z</time></trkpt>
<trkpt lat="46.21711" lon="7.26392"><ele></ele><time>2016-8-31T3:58:42Z</time></trkpt>
<trkpt lat="46.21706" lon="7.26385"><ele></ele><time>2016-8-31T3:58:45Z</time></trkpt>
<trkpt lat="46.21701" lon="7.26378"><ele></ele><time>2016-8-31T3:58:48Z</time></trkpt>
<trkpt lat="46.21696" lon="7.2637"><ele></ele><time>2016-8-31T3:58:51Z</time></trkpt>
<trkpt lat="46.2169" lon="7.26363"><ele></ele><time>2016-8-31T3:58:54Z</time></trkpt>
<trkpt lat="46.21688" lon="7.26359"><ele></ele><time>2016-8-31T3:58:57Z</time></trkpt>
<trkpt lat="46.21685" lon="7.26356"><ele></ele><time>2016-8-31T3:59:0Z</time></trkpt>
<trkpt lat="46.2168" lon="7.26349"><ele></ele><time>2016-8-31T3:59:3Z</time></trkpt>
<trkpt lat="46.21676" lon="7.26343"><ele></ele><time>2016-8-31T3:59:6Z</time></trkpt>
<trkpt lat="46.21671" lon="7.26336"><ele></ele><time>2016-8-31T3:59:9Z</time></trkpt>
<trkpt lat="46.21666" lon="7.2633"><ele></ele><time>2016-8-31T3:59:12Z</time></trkpt>
<trkpt lat="46.21661" lon="7.26323"><ele></ele><time>2016-8-31T3:59:15Z</time></trkpt>
<trkpt lat="46.21656" lon="7.26317"><ele></ele><time>2016-8-31T3:59:18Z</time></trkpt>
<trkpt lat="46.21654" lon="7.26314"><ele></ele><time>2016-8-31T3:59:21Z</time></trkpt>
<trkpt lat="46.21652" lon="7.2631"><ele></ele><time>2016-8-31T3:59:24Z</time></trkpt>
<trkpt lat="46.21647" lon="7.26303"><ele></ele><time>2016-8-31T3:59:27Z</time></trkpt>
<trkpt lat="46.21642" lon="7.26296"><ele></ele><time>2016-8-31T3:59:30Z</time></trkpt>
<trkpt lat="46.21638" lon="7.26289"><ele></ele><time>2016-8-31T3:59:33Z</time></trkpt>
<trkpt lat="46.21633" lon="7.26282"><ele></ele><time>2016-8-31T3:59:36Z</time></trkpt>
<trkpt lat="46.21629" lon="7.26275"><ele></ele><time>2016-8-31T3:59:39Z</time></trkpt>
<trkpt lat="46.21624" lon="7.26267"><ele></ele><time>2016-8-31T3:59:42Z</time></trkpt>
<trkpt lat="46.21622" lon="7.26264"><ele></ele><time>2016-8-31T3:59:45Z</time></trkpt>
<trkpt lat="46.21619" lon="7.2626"><ele></ele><time>2016-8-31T3:59:48Z</time></trkpt>
<trkpt lat="46.21615" lon="7.26252"><ele></ele><time>2016-8-31T3:59:51Z</time></trkpt>
<trkpt lat="46.2161" lon="7.26244"><ele></ele><time>2016-8-31T3:59:54Z</time></trkpt>
<trkpt lat="46.21605" lon="7.26236"><ele></ele><time>2016-8-31T3:59:57Z</time></trkpt>
<trkpt lat="46.21601" lon="7.26228"><ele></ele><time>2016-8-31T4:0:0Z</time></trkpt>
<trkpt lat="46.21596" lon="7.2622"><ele></ele><time>2016-8-31T4:0:3Z</time></trkpt>
<trkpt lat="46.21591" lon="7.26212"><ele></ele><time>2016-8-31T4:0:6Z</time></trkpt>
<trkpt lat="46.21587" lon="7.26204"><ele></ele><time>2016-8-31T4:0:9Z</time></trkpt>
<trkpt lat="46.21583" lon="7.26197"><ele></ele><time>2016-8-31T4:0:12Z</time></trkpt>
<trkpt lat="46.21578" lon="7.2619"><ele></ele><time>2016-8-31T4:0:15Z</time></trkpt>
<trkpt lat="46.21574" lon="7.26182"><ele></ele><time>2016-8-31T4:0:18Z</time></trkpt>
<trkpt lat="46.21569" lon="7.26175"><ele></ele><time>2016-8-31T4:0:21Z</time></trkpt>
<trkpt lat="46.21565" lon="7.26167"><ele></ele><time>2016-8-31T4:0:24Z</time></trkpt>
<trkpt lat="46.2156" lon="7.2616"><ele></ele><time>2016-8-31T4:0:27Z</time></trkpt>
<trkpt lat="46.21556" lon="7.26153"><ele></ele><time>2016-8-31T4:0:30Z</time></trkpt>
<trkpt lat="46.21551" lon="7.26145"><ele></ele><time>2016-8-31T4:0:33Z</time></trkpt>
<trkpt lat="46.21546" lon="7.26138"><ele></ele><time>2016-8-31T4:0:36Z</time></trkpt>
<trkpt lat="46.21542" lon="7.26131"><ele></ele><time>2016-8-31T4:0:39Z</time></trkpt>
<trkpt lat="46.21537" lon="7.26124"><ele></ele><time>2016-8-31T4:0:42Z</time></trkpt>
<trkpt lat="46.21532" lon="7.26117"><ele></ele><time>2016-8-31T4:0:45Z</time></trkpt>
<trkpt lat="46.21527" lon="7.26109"><ele></ele><time>2016-8-31T4:0:48Z</time></trkpt>
<trkpt lat="46.21526" lon="7.26106"><ele></ele><time>2016-8-31T4:0:51Z</time></trkpt>
<trkpt lat="46.21524" lon="7.26103"><ele></ele><time>2016-8-31T4:0:54Z</time></trkpt>
<trkpt lat="46.2152" lon="7.26097"><ele></ele><time>2016-8-31T4:0:57Z</time></trkpt>
<trkpt lat="46.21516" lon="7.26091"><ele></ele><time>2016-8-31T4:1:0Z</time></trkpt>
<trkpt lat="46.21513" lon="7.26084"><ele></ele><time>2016-8-31T4:1:3Z</time></trkpt>
<trkpt lat="46.21509" lon="7.26078"><ele></ele><time>2016-8-31T4:1:6Z</time></trkpt>
<trkpt lat="46.21505" lon="7.26072"><ele></ele><time>2016-8-31T4:1:9Z</time></trkpt>
<trkpt lat="46.21501" lon="7.2608"><ele></ele><time>2016-8-31T4:1:12Z</time></trkpt>
<trkpt lat="46.21497" lon="7.26089"><ele></ele><time>2016-8-31T4:1:15Z</time></trkpt>
<trkpt lat="46.21493" lon="7.26098"><ele></ele><time>2016-8-31T4:1:18Z</time></trkpt>
<trkpt lat="46.21489" lon="7.26107"><ele></ele><time>2016-8-31T4:1:21Z</time></trkpt>
<trkpt lat="46.21484" lon="7.26116"><ele></ele><time>2016-8-31T4:1:24Z</time></trkpt>
<trkpt lat="46.2148" lon="7.26125"><ele></ele><time>2016-8-31T4:1:27Z</time></trkpt>
<trkpt lat="46.21475" lon="7.26137"><ele></ele><time>2016-8-31T4:1:30Z</time></trkpt>
<trkpt lat="46.2147" lon="7.2615"><ele></ele><time>2016-8-31T4:1:33Z</time></trkpt>
<trkpt lat="46.21465" lon="7.26162"><ele></ele><time>2016-8-31T4:1:36Z</time></trkpt>
<trkpt lat="46.2146" lon="7.26175"><ele></ele><time>2016-8-31T4:1:39Z</time></trkpt>
<trkpt lat="46.21457" lon="7.26181"><ele></ele><time>2016-8-31T4:1:42Z</time></trkpt>
<trkpt lat="46.21455" lon="7.26187"><ele></ele><time>2016-8-31T4:1:45Z</time></trkpt>
<trkpt lat="46.21449" lon="7.262"><ele></ele><time>2016-8-31T4:1:48Z</time></trkpt>
<trkpt lat="46.21444" lon="7.26212"><ele></ele><time>2016-8-31T4:1:51Z</time></trkpt>
<trkpt lat="46.21439" lon="7.26225"><ele></ele><time>2016-8-31T4:1:54Z</time></trkpt>
<trkpt lat="46.21434" lon="7.26237"><ele></ele><time>2016-8-31T4:1:57Z</time></trkpt>
<trkpt lat="46.21429" lon="7.26248"><ele></ele><time>2016-8-31T4:2:0Z</time></trkpt>
<trkpt lat="46.21425" lon="7.26259"><ele></ele><time>2016-8-31T4:2:3Z</time></trkpt>
<trkpt lat="46.2142" lon="7.2627"><ele></ele><time>2016-8-31T4:2:6Z</time></trkpt>
<trkpt lat="46.21415" lon="7.26281"><ele></ele><time>2016-8-31T4:2:9Z</time></trkpt>
<trkpt lat="46.2141" lon="7.26291"><ele></ele><time>2016-8-31T4:2:12Z</time></trkpt>
<trkpt lat="46.21408" lon="7.26297"><ele></ele><time>2016-8-31T4:2:15Z</time></trkpt>
<trkpt lat="46.21406" lon="7.26297"><ele></ele><time>2016-8-31T4:2:18Z</time></trkpt>
<trkpt lat="46.21402" lon="7.26294"><ele></ele><time>2016-8-31T4:2:21Z</time></trkpt>
<trkpt lat="46.21398" lon="7.26292"><ele></ele><time>2016-8-31T4:2:24Z</time></trkpt>
<trkpt lat="46.21394" lon="7.2629"><ele></ele><time>2016-8-31T4:2:27Z</time></trkpt>
<trkpt lat="46.2139" lon="7.26288"><ele></ele><time>2016-8-31T4:2:30Z</time></trkpt>
<trkpt lat="46.21386" lon="7.26286"><ele></ele><time>2016-8-31T4:2:33Z</time></trkpt>
<trkpt lat="46.21383" lon="7.26292"><ele></ele><time>2016-8-31T4:2:36Z</time></trkpt>
<trkpt lat="46.21379" lon="7.26299"><ele></ele><time>2016-8-31T4:2:39Z</time></trkpt>
<trkpt lat="46.21375" lon="7.26305"><ele></ele><time>2016-8-31T4:2:42Z</time></trkpt>
<trkpt lat="46.21371" lon="7.26312"><ele></ele><time>2016-8-31T4:2:45Z</time></trkpt>
<trkpt lat="46.21367" lon="7.26319"><ele></ele><time>2016-8-31T4:2:48Z</time></trkpt>
<trkpt lat="46.21364" lon="7.26326"><ele></ele><time>2016-8-31T4:2:51Z</time></trkpt>
<trkpt lat="46.21355" lon="7.26331"><ele></ele><time>2016-8-31T4:2:54Z</time></trkpt>
<trkpt lat="46.2135" lon="7.26334"><ele></ele><time>2016-8-31T4:2:57Z</time></trkpt>
<trkpt lat="46.21348" lon="7.26339"><ele></ele><time>2016-8-31T4:3:0Z</time></trkpt>
<trkpt lat="46.21343" lon="7.26349"><ele></ele><time>2016-8-31T4:3:3Z</time></trkpt>
<trkpt lat="46.21339" lon="7.26359"><ele></ele><time>2016-8-31T4:3:6Z</time></trkpt>
<trkpt lat="46.21335" lon="7.2637"><ele></ele><time>2016-8-31T4:3:9Z</time></trkpt>
<trkpt lat="46.2133" lon="7.2638"><ele></ele><time>2016-8-31T4:3:12Z</time></trkpt>
<trkpt lat="46.21326" lon="7.2639"><ele></ele><time>2016-8-31T4:3:15Z</time></trkpt>
<trkpt lat="46.2132" lon="7.26402"><ele></ele><time>2016-8-31T4:3:18Z</time></trkpt>
<trkpt lat="46.21317" lon="7.26408"><ele></ele><time>2016-8-31T4:3:21Z</time></trkpt>
<trkpt lat="46.21314" lon="7.26414"><ele></ele><time>2016-8-31T4:3:24Z</time></trkpt>
<trkpt lat="46.21308" lon="7.26426"><ele></ele><time>2016-8-31T4:3:27Z</time></trkpt>
<trkpt lat="46.21303" lon="7.26438"><ele></ele><time>2016-8-31T4:3:30Z</time></trkpt>
<trkpt lat="46.213" lon="7.26444"><ele></ele><time>2016-8-31T4:3:33Z</time></trkpt>
<trkpt lat="46.21297" lon="7.26451"><ele></ele><time>2016-8-31T4:3:36Z</time></trkpt>
<trkpt lat="46.2129" lon="7.26464"><ele></ele><time>2016-8-31T4:3:39Z</time></trkpt>
<trkpt lat="46.21284" lon="7.26477"><ele></ele><time>2016-8-31T4:3:42Z</time></trkpt>
<trkpt lat="46.21278" lon="7.2649"><ele></ele><time>2016-8-31T4:3:45Z</time></trkpt>
<trkpt lat="46.21272" lon="7.26503"><ele></ele><time>2016-8-31T4:3:48Z</time></trkpt>
<trkpt lat="46.21268" lon="7.26508"><ele></ele><time>2016-8-31T4:3:51Z</time></trkpt>
<trkpt lat="46.21263" lon="7.26508"><ele></ele><time>2016-8-31T4:3:54Z</time></trkpt>
<trkpt lat="46.21258" lon="7.26508"><ele></ele><time>2016-8-31T4:3:57Z</time></trkpt>
<trkpt lat="46.21253" lon="7.26503"><ele></ele><time>2016-8-31T4:4:0Z</time></trkpt>
<trkpt lat="46.21245" lon="7.26492"><ele></ele><time>2016-8-31T4:4:3Z</time></trkpt>
<trkpt lat="46.21236" lon="7.26482"><ele></ele><time>2016-8-31T4:4:6Z</time></trkpt>
<trkpt lat="46.21227" lon="7.26471"><ele></ele><time>2016-8-31T4:4:9Z</time></trkpt>
<trkpt lat="46.21222" lon="7.26466"><ele></ele><time>2016-8-31T4:4:12Z</time></trkpt>
<trkpt lat="46.21218" lon="7.26461"><ele></ele><time>2016-8-31T4:4:15Z</time></trkpt>
<trkpt lat="46.21208" lon="7.26452"><ele></ele><time>2016-8-31T4:4:18Z</time></trkpt>
<trkpt lat="46.21199" lon="7.26443"><ele></ele><time>2016-8-31T4:4:21Z</time></trkpt>
<trkpt lat="46.21194" lon="7.26439"><ele></ele><time>2016-8-31T4:4:24Z</time></trkpt>
<trkpt lat="46.2119" lon="7.26434"><ele></ele><time>2016-8-31T4:4:27Z</time></trkpt>
<trkpt lat="46.21185" lon="7.26429"><ele></ele><time>2016-8-31T4:4:30Z</time></trkpt>
<trkpt lat="46.21181" lon="7.26425"><ele></ele><time>2016-8-31T4:4:33Z</time></trkpt>
<trkpt lat="46.21172" lon="7.26416"><ele></ele><time>2016-8-31T4:4:36Z</time></trkpt>
<trkpt lat="46.21163" lon="7.26406"><ele></ele><time>2016-8-31T4:4:39Z</time></trkpt>
<trkpt lat="46.21154" lon="7.26397"><ele></ele><time>2016-8-31T4:4:42Z</time></trkpt>
<trkpt lat="46.21145" lon="7.26388"><ele></ele><time>2016-8-31T4:4:45Z</time></trkpt>
<trkpt lat="46.21137" lon="7.2638"><ele></ele><time>2016-8-31T4:4:48Z</time></trkpt>
<trkpt lat="46.21128" lon="7.26372"><ele></ele><time>2016-8-31T4:4:51Z</time></trkpt>
<trkpt lat="46.21119" lon="7.26365"><ele></ele><time>2016-8-31T4:4:54Z</time></trkpt>
<trkpt lat="46.21114" lon="7.26361"><ele></ele><time>2016-8-31T4:4:57Z</time></trkpt>
<trkpt lat="46.2111" lon="7.26356"><ele></ele><time>2016-8-31T4:5:0Z</time></trkpt>
<trkpt lat="46.21101" lon="7.26346"><ele></ele><time>2016-8-31T4:5:3Z</time></trkpt>
<trkpt lat="46.21092" lon="7.26337"><ele></ele><time>2016-8-31T4:5:6Z</time></trkpt>
<trkpt lat="46.21086" lon="7.26324"><ele></ele><time>2016-8-31T4:5:9Z</time></trkpt>
<trkpt lat="46.2108" lon="7.2631"><ele></ele><time>2016-8-31T4:5:12Z</time></trkpt>
<trkpt lat="46.21074" lon="7.26297"><ele></ele><time>2016-8-31T4:5:15Z</time></trkpt>
<trkpt lat="46.21068" lon="7.26284"><ele></ele><time>2016-8-31T4:5:18Z</time></trkpt>
<trkpt lat="46.21065" lon="7.26277"><ele></ele><time>2016-8-31T4:5:21Z</time></trkpt>
<trkpt lat="46.21063" lon="7.26271"><ele></ele><time>2016-8-31T4:5:24Z</time></trkpt>
<trkpt lat="46.2106" lon="7.26266"><ele></ele><time>2016-8-31T4:5:27Z</time></trkpt>
<trkpt lat="46.21058" lon="7.2626"><ele></ele><time>2016-8-31T4:5:30Z</time></trkpt>
<trkpt lat="46.21053" lon="7.2625"><ele></ele><time>2016-8-31T4:5:33Z</time></trkpt>
<trkpt lat="46.21048" lon="7.26239"><ele></ele><time>2016-8-31T4:5:36Z</time></trkpt>
<trkpt lat="46.21046" lon="7.26233"><ele></ele><time>2016-8-31T4:5:39Z</time></trkpt>
<trkpt lat="46.21043" lon="7.26228"><ele></ele><time>2016-8-31T4:5:42Z</time></trkpt>
<trkpt lat="46.21041" lon="7.26222"><ele></ele><time>2016-8-31T4:5:45Z</time></trkpt>
<trkpt lat="46.21038" lon="7.26216"><ele></ele><time>2016-8-31T4:5:48Z</time></trkpt>
<trkpt lat="46.21033" lon="7.26204"><ele></ele><time>2016-8-31T4:5:51Z</time></trkpt>
<trkpt lat="46.21027" lon="7.26192"><ele></ele><time>2016-8-31T4:5:54Z</time></trkpt>
<trkpt lat="46.21022" lon="7.2618"><ele></ele><time>2016-8-31T4:5:57Z</time></trkpt>
<trkpt lat="46.21016" lon="7.26168"><ele></ele><time>2016-8-31T4:6:0Z</time></trkpt>
<trkpt lat="46.21013" lon="7.26163"><ele></ele><time>2016-8-31T4:6:3Z</time></trkpt>
<trkpt lat="46.2101" lon="7.26156"><ele></ele><time>2016-8-31T4:6:6Z</time></trkpt>
<trkpt lat="46.21005" lon="7.26144"><ele></ele><time>2016-8-31T4:6:9Z</time></trkpt>
<trkpt lat="46.20999" lon="7.26131"><ele></ele><time>2016-8-31T4:6:12Z</time></trkpt>
<trkpt lat="46.20993" lon="7.26119"><ele></ele><time>2016-8-31T4:6:15Z</time></trkpt>
<trkpt lat="46.20987" lon="7.26106"><ele></ele><time>2016-8-31T4:6:18Z</time></trkpt>
<trkpt lat="46.20981" lon="7.26093"><ele></ele><time>2016-8-31T4:6:21Z</time></trkpt>
<trkpt lat="46.20975" lon="7.2608"><ele></ele><time>2016-8-31T4:6:24Z</time></trkpt>
<trkpt lat="46.2097" lon="7.26069"><ele></ele><time>2016-8-31T4:6:27Z</time></trkpt>
<trkpt lat="46.20964" lon="7.26057"><ele></ele><time>2016-8-31T4:6:30Z</time></trkpt>
<trkpt lat="46.20959" lon="7.26045"><ele></ele><time>2016-8-31T4:6:33Z</time></trkpt>
<trkpt lat="46.20954" lon="7.26034"><ele></ele><time>2016-8-31T4:6:36Z</time></trkpt>
<trkpt lat="46.20948" lon="7.26022"><ele></ele><time>2016-8-31T4:6:39Z</time></trkpt>
<trkpt lat="46.20943" lon="7.2601"><ele></ele><time>2016-8-31T4:6:42Z</time></trkpt>
<trkpt lat="46.20938" lon="7.25998"><ele></ele><time>2016-8-31T4:6:45Z</time></trkpt>
<trkpt lat="46.20932" lon="7.25985"><ele></ele><time>2016-8-31T4:6:48Z</time></trkpt>
<trkpt lat="46.20927" lon="7.25973"><ele></ele><time>2016-8-31T4:6:51Z</time></trkpt>
<trkpt lat="46.20922" lon="7.25961"><ele></ele><time>2016-8-31T4:6:54Z</time></trkpt>
<trkpt lat="46.20916" lon="7.25948"><ele></ele><time>2016-8-31T4:6:57Z</time></trkpt>
<trkpt lat="46.2091" lon="7.25936"><ele></ele><time>2016-8-31T4:7:0Z</time></trkpt>
<trkpt lat="46.20904" lon="7.25923"><ele></ele><time>2016-8-31T4:7:3Z</time></trkpt>
<trkpt lat="46.20898" lon="7.25911"><ele></ele><time>2016-8-31T4:7:6Z</time></trkpt>
<trkpt lat="46.20895" lon="7.25904"><ele></ele><time>2016-8-31T4:7:9Z</time></trkpt>
<trkpt lat="46.20892" lon="7.25899"><ele></ele><time>2016-8-31T4:7:12Z</time></trkpt>
<trkpt lat="46.20887" lon="7.25888"><ele></ele><time>2016-8-31T4:7:15Z</time></trkpt>
<trkpt lat="46.20882" lon="7.25877"><ele></ele><time>2016-8-31T4:7:18Z</time></trkpt>
<trkpt lat="46.20877" lon="7.25866"><ele></ele><time>2016-8-31T4:7:21Z</time></trkpt>
<trkpt lat="46.20874" lon="7.25861"><ele></ele><time>2016-8-31T4:7:24Z</time></trkpt>
<trkpt lat="46.20871" lon="7.25855"><ele></ele><time>2016-8-31T4:7:27Z</time></trkpt>
<trkpt lat="46.20866" lon="7.25844"><ele></ele><time>2016-8-31T4:7:30Z</time></trkpt>
<trkpt lat="46.20861" lon="7.25833"><ele></ele><time>2016-8-31T4:7:33Z</time></trkpt>
<trkpt lat="46.20855" lon="7.25822"><ele></ele><time>2016-8-31T4:7:36Z</time></trkpt>
<trkpt lat="46.2085" lon="7.25812"><ele></ele><time>2016-8-31T4:7:39Z</time></trkpt>
<trkpt lat="46.20847" lon="7.25806"><ele></ele><time>2016-8-31T4:7:42Z</time></trkpt>
<trkpt lat="46.20844" lon="7.258"><ele></ele><time>2016-8-31T4:7:45Z</time></trkpt>
<trkpt lat="46.20838" lon="7.25787"><ele></ele><time>2016-8-31T4:7:48Z</time></trkpt>
<trkpt lat="46.20831" lon="7.25774"><ele></ele><time>2016-8-31T4:7:51Z</time></trkpt>
<trkpt lat="46.20825" lon="7.25761"><ele></ele><time>2016-8-31T4:7:54Z</time></trkpt>
<trkpt lat="46.20818" lon="7.25748"><ele></ele><time>2016-8-31T4:7:57Z</time></trkpt>
<trkpt lat="46.20813" lon="7.25736"><ele></ele><time>2016-8-31T4:8:0Z</time></trkpt>
<trkpt lat="46.20807" lon="7.25724"><ele></ele><time>2016-8-31T4:8:3Z</time></trkpt>
<trkpt lat="46.20802" lon="7.25713"><ele></ele><time>2016-8-31T4:8:6Z</time></trkpt>
<trkpt lat="46.20797" lon="7.25701"><ele></ele><time>2016-8-31T4:8:9Z</time></trkpt>
<trkpt lat="46.20791" lon="7.25689"><ele></ele><time>2016-8-31T4:8:12Z</time></trkpt>
<trkpt lat="46.20787" lon="7.25679"><ele></ele><time>2016-8-31T4:8:15Z</time></trkpt>
<trkpt lat="46.20782" lon="7.25668"><ele></ele><time>2016-8-31T4:8:18Z</time></trkpt>
<trkpt lat="46.20777" lon="7.25658"><ele></ele><time>2016-8-31T4:8:21Z</time></trkpt>
<trkpt lat="46.20772" lon="7.25647"><ele></ele><time>2016-8-31T4:8:24Z</time></trkpt>
<trkpt lat="46.20767" lon="7.25637"><ele></ele><time>2016-8-31T4:8:27Z</time></trkpt>
<trkpt lat="46.20765" lon="7.25631"><ele></ele><time>2016-8-31T4:8:30Z</time></trkpt>
<trkpt lat="46.20762" lon="7.25627"><ele></ele><time>2016-8-31T4:8:33Z</time></trkpt>
<trkpt lat="46.20757" lon="7.25617"><ele></ele><time>2016-8-31T4:8:36Z</time></trkpt>
<trkpt lat="46.20753" lon="7.25608"><ele></ele><time>2016-8-31T4:8:39Z</time></trkpt>
<trkpt lat="46.20748" lon="7.25598"><ele></ele><time>2016-8-31T4:8:42Z</time></trkpt>
<trkpt lat="46.20743" lon="7.25589"><ele></ele><time>2016-8-31T4:8:45Z</time></trkpt>
<trkpt lat="46.20738" lon="7.25579"><ele></ele><time>2016-8-31T4:8:48Z</time></trkpt>
<trkpt lat="46.2073" lon="7.25573"><ele></ele><time>2016-8-31T4:8:51Z</time></trkpt>
<trkpt lat="46.20722" lon="7.25566"><ele></ele><time>2016-8-31T4:8:54Z</time></trkpt>
<trkpt lat="46.20714" lon="7.2556"><ele></ele><time>2016-8-31T4:8:57Z</time></trkpt>
<trkpt lat="46.20706" lon="7.25554"><ele></ele><time>2016-8-31T4:9:0Z</time></trkpt>
<trkpt lat="46.20697" lon="7.25547"><ele></ele><time>2016-8-31T4:9:3Z</time></trkpt>
<trkpt lat="46.20689" lon="7.25541"><ele></ele><time>2016-8-31T4:9:6Z</time></trkpt>
<trkpt lat="46.20681" lon="7.25535"><ele></ele><time>2016-8-31T4:9:9Z</time></trkpt>
<trkpt lat="46.20673" lon="7.25529"><ele></ele><time>2016-8-31T4:9:12Z</time></trkpt>
<trkpt lat="46.20665" lon="7.25523"><ele></ele><time>2016-8-31T4:9:15Z</time></trkpt>
<trkpt lat="46.20657" lon="7.25517"><ele></ele><time>2016-8-31T4:9:18Z</time></trkpt>
<trkpt lat="46.20649" lon="7.25511"><ele></ele><time>2016-8-31T4:9:21Z</time></trkpt>
<trkpt lat="46.2064" lon="7.25505"><ele></ele><time>2016-8-31T4:9:24Z</time></trkpt>
<trkpt lat="46.20631" lon="7.25499"><ele></ele><time>2016-8-31T4:9:27Z</time></trkpt>
<trkpt lat="46.20622" lon="7.25493"><ele></ele><time>2016-8-31T4:9:30Z</time></trkpt>
<trkpt lat="46.20613" lon="7.25487"><ele></ele><time>2016-8-31T4:9:33Z</time></trkpt>
<trkpt lat="46.20605" lon="7.25482"><ele></ele><time>2016-8-31T4:9:36Z</time></trkpt>
<trkpt lat="46.20596" lon="7.25478"><ele></ele><time>2016-8-31T4:9:39Z</time></trkpt>
<trkpt lat="46.20587" lon="7.25473"><ele></ele><time>2016-8-31T4:9:42Z</time></trkpt>
<trkpt lat="46.20579" lon="7.25468"><ele></ele><time>2016-8-31T4:9:45Z</time></trkpt>
<trkpt lat="46.2057" lon="7.25464"><ele></ele><time>2016-8-31T4:9:48Z</time></trkpt>
<trkpt lat="46.20561" lon="7.25461"><ele></ele><time>2016-8-31T4:9:51Z</time></trkpt>
<trkpt lat="46.20552" lon="7.25459"><ele></ele><time>2016-8-31T4:9:54Z</time></trkpt>
<trkpt lat="46.20543" lon="7.25457"><ele></ele><time>2016-8-31T4:9:57Z</time></trkpt>
<trkpt lat="46.20534" lon="7.25454"><ele></ele><time>2016-8-31T4:10:0Z</time></trkpt>
<trkpt lat="46.20525" lon="7.25452"><ele></ele><time>2016-8-31T4:10:3Z</time></trkpt>
<trkpt lat="46.20515" lon="7.2545"><ele></ele><time>2016-8-31T4:10:6Z</time></trkpt>
<trkpt lat="46.20506" lon="7.25449"><ele></ele><time>2016-8-31T4:10:9Z</time></trkpt>
<trkpt lat="46.20496" lon="7.25447"><ele></ele><time>2016-8-31T4:10:12Z</time></trkpt>
<trkpt lat="46.20486" lon="7.25446"><ele></ele><time>2016-8-31T4:10:15Z</time></trkpt>
<trkpt lat="46.20477" lon="7.25444"><ele></ele><time>2016-8-31T4:10:18Z</time></trkpt>
<trkpt lat="46.20467" lon="7.25443"><ele></ele><time>2016-8-31T4:10:21Z</time></trkpt>
<trkpt lat="46.20457" lon="7.25443"><ele></ele><time>2016-8-31T4:10:24Z</time></trkpt>
<trkpt lat="46.20447" lon="7.25442"><ele></ele><time>2016-8-31T4:10:27Z</time></trkpt>
<trkpt lat="46.20437" lon="7.25441"><ele></ele><time>2016-8-31T4:10:30Z</time></trkpt>
<trkpt lat="46.20427" lon="7.25441"><ele></ele><time>2016-8-31T4:10:33Z</time></trkpt>
<trkpt lat="46.20417" lon="7.25442"><ele></ele><time>2016-8-31T4:10:36Z</time></trkpt>
<trkpt lat="46.20407" lon="7.25444"><ele></ele><time>2016-8-31T4:10:39Z</time></trkpt>
<trkpt lat="46.20396" lon="7.25445"><ele></ele><time>2016-8-31T4:10:42Z</time></trkpt>
<trkpt lat="46.20386" lon="7.25447"><ele></ele><time>2016-8-31T4:10:45Z</time></trkpt>
<trkpt lat="46.2038" lon="7.25448"><ele></ele><time>2016-8-31T4:10:48Z</time></trkpt>
<trkpt lat="46.20376" lon="7.25449"><ele></ele><time>2016-8-31T4:10:51Z</time></trkpt>
<trkpt lat="46.20368" lon="7.25453"><ele></ele><time>2016-8-31T4:10:54Z</time></trkpt>
<trkpt lat="46.20359" lon="7.25456"><ele></ele><time>2016-8-31T4:10:57Z</time></trkpt>
<trkpt lat="46.20351" lon="7.25459"><ele></ele><time>2016-8-31T4:11:0Z</time></trkpt>
<trkpt lat="46.20343" lon="7.25462"><ele></ele><time>2016-8-31T4:11:3Z</time></trkpt>
<trkpt lat="46.20334" lon="7.25465"><ele></ele><time>2016-8-31T4:11:6Z</time></trkpt>
<trkpt lat="46.20328" lon="7.25458"><ele></ele><time>2016-8-31T4:11:9Z</time></trkpt>
<trkpt lat="46.20326" lon="7.25455"><ele></ele><time>2016-8-31T4:11:12Z</time></trkpt>
<trkpt lat="46.20323" lon="7.2545"><ele></ele><time>2016-8-31T4:11:15Z</time></trkpt>
<trkpt lat="46.20318" lon="7.2544"><ele></ele><time>2016-8-31T4:11:18Z</time></trkpt>
<trkpt lat="46.20313" lon="7.2543"><ele></ele><time>2016-8-31T4:11:21Z</time></trkpt>
<trkpt lat="46.20308" lon="7.2542"><ele></ele><time>2016-8-31T4:11:24Z</time></trkpt>
<trkpt lat="46.20303" lon="7.25411"><ele></ele><time>2016-8-31T4:11:27Z</time></trkpt>
<trkpt lat="46.20294" lon="7.25408"><ele></ele><time>2016-8-31T4:11:30Z</time></trkpt>
<trkpt lat="46.20285" lon="7.25405"><ele></ele><time>2016-8-31T4:11:33Z</time></trkpt>
<trkpt lat="46.20275" lon="7.25403"><ele></ele><time>2016-8-31T4:11:36Z</time></trkpt>
<trkpt lat="46.20266" lon="7.25401"><ele></ele><time>2016-8-31T4:11:39Z</time></trkpt>
<trkpt lat="46.20256" lon="7.25398"><ele></ele><time>2016-8-31T4:11:42Z</time></trkpt>
<trkpt lat="46.20246" lon="7.25394"><ele></ele><time>2016-8-31T4:11:45Z</time></trkpt>
<trkpt lat="46.20237" lon="7.2539"><ele></ele><time>2016-8-31T4:11:48Z</time></trkpt>
<trkpt lat="46.20227" lon="7.25386"><ele></ele><time>2016-8-31T4:11:51Z</time></trkpt>
<trkpt lat="46.20217" lon="7.25382"><ele></ele><time>2016-8-31T4:11:54Z</time></trkpt>
<trkpt lat="46.20212" lon="7.2538"><ele></ele><time>2016-8-31T4:11:57Z</time></trkpt>
<trkpt lat="46.20207" lon="7.25378"><ele></ele><time>2016-8-31T4:12:0Z</time></trkpt>
<trkpt lat="46.20198" lon="7.25373"><ele></ele><time>2016-8-31T4:12:3Z</time></trkpt>
<trkpt lat="46.20189" lon="7.25369"><ele></ele><time>2016-8-31T4:12:6Z</time></trkpt>
<trkpt lat="46.2018" lon="7.25364"><ele></ele><time>2016-8-31T4:12:9Z</time></trkpt>
<trkpt lat="46.20171" lon="7.25359"><ele></ele><time>2016-8-31T4:12:12Z</time></trkpt>
<trkpt lat="46.20166" lon="7.25357"><ele></ele><time>2016-8-31T4:12:15Z</time></trkpt>
<trkpt lat="46.20162" lon="7.25356"><ele></ele><time>2016-8-31T4:12:18Z</time></trkpt>
<trkpt lat="46.20154" lon="7.25353"><ele></ele><time>2016-8-31T4:12:21Z</time></trkpt>
<trkpt lat="46.20145" lon="7.2535"><ele></ele><time>2016-8-31T4:12:24Z</time></trkpt>
<trkpt lat="46.20136" lon="7.25348"><ele></ele><time>2016-8-31T4:12:27Z</time></trkpt>
<trkpt lat="46.20128" lon="7.25345"><ele></ele><time>2016-8-31T4:12:30Z</time></trkpt>
<trkpt lat="46.20119" lon="7.25343"><ele></ele><time>2016-8-31T4:12:33Z</time></trkpt>
<trkpt lat="46.2011" lon="7.2534"><ele></ele><time>2016-8-31T4:12:36Z</time></trkpt>
<trkpt lat="46.20101" lon="7.25337"><ele></ele><time>2016-8-31T4:12:39Z</time></trkpt>
<trkpt lat="46.20092" lon="7.25334"><ele></ele><time>2016-8-31T4:12:42Z</time></trkpt>
<trkpt lat="46.20083" lon="7.25332"><ele></ele><time>2016-8-31T4:12:45Z</time></trkpt>
<trkpt lat="46.20074" lon="7.25329"><ele></ele><time>2016-8-31T4:12:48Z</time></trkpt>
<trkpt lat="46.20065" lon="7.25324"><ele></ele><time>2016-8-31T4:12:51Z</time></trkpt>
<trkpt lat="46.20056" lon="7.25319"><ele></ele><time>2016-8-31T4:12:54Z</time></trkpt>
<trkpt lat="46.20047" lon="7.25314"><ele></ele><time>2016-8-31T4:12:57Z</time></trkpt>
<trkpt lat="46.20038" lon="7.25309"><ele></ele><time>2016-8-31T4:13:0Z</time></trkpt>
<trkpt lat="46.20029" lon="7.25304"><ele></ele><time>2016-8-31T4:13:3Z</time></trkpt>
<trkpt lat="46.20021" lon="7.25298"><ele></ele><time>2016-8-31T4:13:6Z</time></trkpt>
<trkpt lat="46.20013" lon="7.25292"><ele></ele><time>2016-8-31T4:13:9Z</time></trkpt>
<trkpt lat="46.20005" lon="7.25286"><ele></ele><time>2016-8-31T4:13:12Z</time></trkpt>
<trkpt lat="46.19998" lon="7.2528"><ele></ele><time>2016-8-31T4:13:15Z</time></trkpt>
<trkpt lat="46.1999" lon="7.25274"><ele></ele><time>2016-8-31T4:13:18Z</time></trkpt>
<trkpt lat="46.19986" lon="7.25271"><ele></ele><time>2016-8-31T4:13:21Z</time></trkpt>
<trkpt lat="46.19982" lon="7.25269"><ele></ele><time>2016-8-31T4:13:24Z</time></trkpt>
<trkpt lat="46.19973" lon="7.25263"><ele></ele><time>2016-8-31T4:13:27Z</time></trkpt>
<trkpt lat="46.19964" lon="7.25258"><ele></ele><time>2016-8-31T4:13:30Z</time></trkpt>
<trkpt lat="46.19957" lon="7.25252"><ele></ele><time>2016-8-31T4:13:33Z</time></trkpt>
<trkpt lat="46.1995" lon="7.25245"><ele></ele><time>2016-8-31T4:13:36Z</time></trkpt>
<trkpt lat="46.19943" lon="7.25239"><ele></ele><time>2016-8-31T4:13:39Z</time></trkpt>
<trkpt lat="46.19936" lon="7.25232"><ele></ele><time>2016-8-31T4:13:42Z</time></trkpt>
<trkpt lat="46.19929" lon="7.25226"><ele></ele><time>2016-8-31T4:13:45Z</time></trkpt>
<trkpt lat="46.19926" lon="7.25223"><ele></ele><time>2016-8-31T4:13:48Z</time></trkpt>
<trkpt lat="46.19922" lon="7.25219"><ele></ele><time>2016-8-31T4:13:51Z</time></trkpt>
<trkpt lat="46.19915" lon="7.25212"><ele></ele><time>2016-8-31T4:13:54Z</time></trkpt>
<trkpt lat="46.19907" lon="7.25205"><ele></ele><time>2016-8-31T4:13:57Z</time></trkpt>
<trkpt lat="46.199" lon="7.25198"><ele></ele><time>2016-8-31T4:14:0Z</time></trkpt>
<trkpt lat="46.19892" lon="7.25191"><ele></ele><time>2016-8-31T4:14:3Z</time></trkpt>
<trkpt lat="46.19885" lon="7.25184"><ele></ele><time>2016-8-31T4:14:6Z</time></trkpt>
<trkpt lat="46.19878" lon="7.25176"><ele></ele><time>2016-8-31T4:14:9Z</time></trkpt>
<trkpt lat="46.19872" lon="7.25169"><ele></ele><time>2016-8-31T4:14:12Z</time></trkpt>
<trkpt lat="46.19865" lon="7.25161"><ele></ele><time>2016-8-31T4:14:15Z</time></trkpt>
<trkpt lat="46.19859" lon="7.25154"><ele></ele><time>2016-8-31T4:14:18Z</time></trkpt>
<trkpt lat="46.19852" lon="7.25146"><ele></ele><time>2016-8-31T4:14:21Z</time></trkpt>
<trkpt lat="46.19849" lon="7.25142"><ele></ele><time>2016-8-31T4:14:24Z</time></trkpt>
<trkpt lat="46.19845" lon="7.25139"><ele></ele><time>2016-8-31T4:14:27Z</time></trkpt>
<trkpt lat="46.19838" lon="7.25132"><ele></ele><time>2016-8-31T4:14:30Z</time></trkpt>
<trkpt lat="46.1983" lon="7.25126"><ele></ele><time>2016-8-31T4:14:33Z</time></trkpt>
<trkpt lat="46.19823" lon="7.25119"><ele></ele><time>2016-8-31T4:14:36Z</time></trkpt>
<trkpt lat="46.19816" lon="7.25112"><ele></ele><time>2016-8-31T4:14:39Z</time></trkpt>
<trkpt lat="46.19808" lon="7.25106"><ele></ele><time>2016-8-31T4:14:42Z</time></trkpt>
<trkpt lat="46.19801" lon="7.25099"><ele></ele><time>2016-8-31T4:14:45Z</time></trkpt>
<trkpt lat="46.19794" lon="7.25091"><ele></ele><time>2016-8-31T4:14:48Z</time></trkpt>
<trkpt lat="46.19787" lon="7.25084"><ele></ele><time>2016-8-31T4:14:51Z</time></trkpt>
<trkpt lat="46.19779" lon="7.25077"><ele></ele><time>2016-8-31T4:14:54Z</time></trkpt>
<trkpt lat="46.19772" lon="7.2507"><ele></ele><time>2016-8-31T4:14:57Z</time></trkpt>
<trkpt lat="46.19768" lon="7.25066"><ele></ele><time>2016-8-31T4:15:0Z</time></trkpt>
<trkpt lat="46.19764" lon="7.25063"><ele></ele><time>2016-8-31T4:15:3Z</time></trkpt>
<trkpt lat="46.19757" lon="7.25056"><ele></ele><time>2016-8-31T4:15:6Z</time></trkpt>
<trkpt lat="46.19749" lon="7.25049"><ele></ele><time>2016-8-31T4:15:9Z</time></trkpt>
<trkpt lat="46.19742" lon="7.25043"><ele></ele><time>2016-8-31T4:15:12Z</time></trkpt>
<trkpt lat="46.19734" lon="7.25036"><ele></ele><time>2016-8-31T4:15:15Z</time></trkpt>
<trkpt lat="46.19726" lon="7.25029"><ele></ele><time>2016-8-31T4:15:18Z</time></trkpt>
<trkpt lat="46.19719" lon="7.25023"><ele></ele><time>2016-8-31T4:15:21Z</time></trkpt>
<trkpt lat="46.19711" lon="7.25017"><ele></ele><time>2016-8-31T4:15:24Z</time></trkpt>
<trkpt lat="46.19704" lon="7.25011"><ele></ele><time>2016-8-31T4:15:27Z</time></trkpt>
<trkpt lat="46.19696" lon="7.25006"><ele></ele><time>2016-8-31T4:15:30Z</time></trkpt>
<trkpt lat="46.19688" lon="7.25"><ele></ele><time>2016-8-31T4:15:33Z</time></trkpt>
<trkpt lat="46.19685" lon="7.24997"><ele></ele><time>2016-8-31T4:15:36Z</time></trkpt>
<trkpt lat="46.19681" lon="7.24993"><ele></ele><time>2016-8-31T4:15:39Z</time></trkpt>
<trkpt lat="46.19674" lon="7.24985"><ele></ele><time>2016-8-31T4:15:42Z</time></trkpt>
<trkpt lat="46.19667" lon="7.24978"><ele></ele><time>2016-8-31T4:15:45Z</time></trkpt>
<trkpt lat="46.19664" lon="7.24974"><ele></ele><time>2016-8-31T4:15:48Z</time></trkpt>
<trkpt lat="46.1966" lon="7.2497"><ele></ele><time>2016-8-31T4:15:51Z</time></trkpt>
<trkpt lat="46.19654" lon="7.24962"><ele></ele><time>2016-8-31T4:15:54Z</time></trkpt>
<trkpt lat="46.19647" lon="7.24955"><ele></ele><time>2016-8-31T4:15:57Z</time></trkpt>
<trkpt lat="46.19642" lon="7.24947"><ele></ele><time>2016-8-31T4:16:0Z</time></trkpt>
<trkpt lat="46.19637" lon="7.24938"><ele></ele><time>2016-8-31T4:16:3Z</time></trkpt>
<trkpt lat="46.19632" lon="7.2493"><ele></ele><time>2016-8-31T4:16:6Z</time></trkpt>
<trkpt lat="46.19626" lon="7.24921"><ele></ele><time>2016-8-31T4:16:9Z</time></trkpt>
<trkpt lat="46.19621" lon="7.24913"><ele></ele><time>2016-8-31T4:16:12Z</time></trkpt>
<trkpt lat="46.19616" lon="7.24905"><ele></ele><time>2016-8-31T4:16:15Z</time></trkpt>
<trkpt lat="46.19612" lon="7.24897"><ele></ele><time>2016-8-31T4:16:18Z</time></trkpt>
<trkpt lat="46.19607" lon="7.24889"><ele></ele><time>2016-8-31T4:16:21Z</time></trkpt>
<trkpt lat="46.19603" lon="7.24881"><ele></ele><time>2016-8-31T4:16:24Z</time></trkpt>
<trkpt lat="46.19598" lon="7.24872"><ele></ele><time>2016-8-31T4:16:27Z</time></trkpt>
<trkpt lat="46.19594" lon="7.24864"><ele></ele><time>2016-8-31T4:16:30Z</time></trkpt>
<trkpt lat="46.19589" lon="7.24856"><ele></ele><time>2016-8-31T4:16:33Z</time></trkpt>
<trkpt lat="46.19587" lon="7.24852"><ele></ele><time>2016-8-31T4:16:36Z</time></trkpt>
<trkpt lat="46.19585" lon="7.24849"><ele></ele><time>2016-8-31T4:16:39Z</time></trkpt>
<trkpt lat="46.1958" lon="7.24842"><ele></ele><time>2016-8-31T4:16:42Z</time></trkpt>
<trkpt lat="46.19575" lon="7.24836"><ele></ele><time>2016-8-31T4:16:45Z</time></trkpt>
<trkpt lat="46.19571" lon="7.24829"><ele></ele><time>2016-8-31T4:16:48Z</time></trkpt>
<trkpt lat="46.19566" lon="7.24823"><ele></ele><time>2016-8-31T4:16:51Z</time></trkpt>
<trkpt lat="46.19561" lon="7.24816"><ele></ele><time>2016-8-31T4:16:54Z</time></trkpt>
<trkpt lat="46.19559" lon="7.24813"><ele></ele><time>2016-8-31T4:16:57Z</time></trkpt>
<trkpt lat="46.19556" lon="7.24815"><ele></ele><time>2016-8-31T4:17:0Z</time></trkpt>
<trkpt lat="46.19549" lon="7.24821"><ele></ele><time>2016-8-31T4:17:3Z</time></trkpt>
<trkpt lat="46.19543" lon="7.24826"><ele></ele><time>2016-8-31T4:17:6Z</time></trkpt>
<trkpt lat="46.19535" lon="7.24838"><ele></ele><time>2016-8-31T4:17:9Z</time></trkpt>
<trkpt lat="46.19524" lon="7.24843"><ele></ele><time>2016-8-31T4:17:12Z</time></trkpt>
<trkpt lat="46.19514" lon="7.24836"><ele></ele><time>2016-8-31T4:17:15Z</time></trkpt>
<trkpt lat="46.19507" lon="7.24826"><ele></ele><time>2016-8-31T4:17:18Z</time></trkpt>
<trkpt lat="46.195" lon="7.24816"><ele></ele><time>2016-8-31T4:17:21Z</time></trkpt>
<trkpt lat="46.19496" lon="7.24811"><ele></ele><time>2016-8-31T4:17:24Z</time></trkpt>
<trkpt lat="46.19493" lon="7.24806"><ele></ele><time>2016-8-31T4:17:27Z</time></trkpt>
<trkpt lat="46.19486" lon="7.24795"><ele></ele><time>2016-8-31T4:17:30Z</time></trkpt>
<trkpt lat="46.19482" lon="7.2479"><ele></ele><time>2016-8-31T4:17:33Z</time></trkpt>
<trkpt lat="46.19479" lon="7.24785"><ele></ele><time>2016-8-31T4:17:36Z</time></trkpt>
<trkpt lat="46.19473" lon="7.24776"><ele></ele><time>2016-8-31T4:17:39Z</time></trkpt>
<trkpt lat="46.19467" lon="7.24766"><ele></ele><time>2016-8-31T4:17:42Z</time></trkpt>
<trkpt lat="46.19462" lon="7.24757"><ele></ele><time>2016-8-31T4:17:45Z</time></trkpt>
<trkpt lat="46.19459" lon="7.24752"><ele></ele><time>2016-8-31T4:17:48Z</time></trkpt>
<trkpt lat="46.19456" lon="7.24747"><ele></ele><time>2016-8-31T4:17:51Z</time></trkpt>
<trkpt lat="46.1945" lon="7.24737"><ele></ele><time>2016-8-31T4:17:54Z</time></trkpt>
<trkpt lat="46.19445" lon="7.24728"><ele></ele><time>2016-8-31T4:17:57Z</time></trkpt>
<trkpt lat="46.19439" lon="7.2472"><ele></ele><time>2016-8-31T4:18:0Z</time></trkpt>
<trkpt lat="46.19433" lon="7.24711"><ele></ele><time>2016-8-31T4:18:3Z</time></trkpt>
<trkpt lat="46.19428" lon="7.24702"><ele></ele><time>2016-8-31T4:18:6Z</time></trkpt>
<trkpt lat="46.19422" lon="7.24693"><ele></ele><time>2016-8-31T4:18:9Z</time></trkpt>
<trkpt lat="46.1942" lon="7.24689"><ele></ele><time>2016-8-31T4:18:12Z</time></trkpt>
<trkpt lat="46.19417" lon="7.24684"><ele></ele><time>2016-8-31T4:18:15Z</time></trkpt>
<trkpt lat="46.19411" lon="7.24675"><ele></ele><time>2016-8-31T4:18:18Z</time></trkpt>
<trkpt lat="46.19405" lon="7.24666"><ele></ele><time>2016-8-31T4:18:21Z</time></trkpt>
<trkpt lat="46.19399" lon="7.24657"><ele></ele><time>2016-8-31T4:18:24Z</time></trkpt>
<trkpt lat="46.19393" lon="7.24648"><ele></ele><time>2016-8-31T4:18:27Z</time></trkpt>
<trkpt lat="46.19388" lon="7.24639"><ele></ele><time>2016-8-31T4:18:30Z</time></trkpt>
<trkpt lat="46.19383" lon="7.24632"><ele></ele><time>2016-8-31T4:18:33Z</time></trkpt>
<trkpt lat="46.19378" lon="7.24625"><ele></ele><time>2016-8-31T4:18:36Z</time></trkpt>
<trkpt lat="46.19374" lon="7.24618"><ele></ele><time>2016-8-31T4:18:39Z</time></trkpt>
<trkpt lat="46.19369" lon="7.24611"><ele></ele><time>2016-8-31T4:18:42Z</time></trkpt>
<trkpt lat="46.19364" lon="7.24604"><ele></ele><time>2016-8-31T4:18:45Z</time></trkpt>
<trkpt lat="46.1936" lon="7.24597"><ele></ele><time>2016-8-31T4:18:48Z</time></trkpt>
<trkpt lat="46.19355" lon="7.24591"><ele></ele><time>2016-8-31T4:18:51Z</time></trkpt>
<trkpt lat="46.19352" lon="7.24585"><ele></ele><time>2016-8-31T4:18:54Z</time></trkpt>
<trkpt lat="46.19349" lon="7.2458"><ele></ele><time>2016-8-31T4:18:57Z</time></trkpt>
<trkpt lat="46.19346" lon="7.24575"><ele></ele><time>2016-8-31T4:19:0Z</time></trkpt>
<trkpt lat="46.19343" lon="7.2457"><ele></ele><time>2016-8-31T4:19:3Z</time></trkpt>
<trkpt lat="46.1934" lon="7.24565"><ele></ele><time>2016-8-31T4:19:6Z</time></trkpt>
<trkpt lat="46.19337" lon="7.2456"><ele></ele><time>2016-8-31T4:19:9Z</time></trkpt>
<trkpt lat="46.19334" lon="7.24555"><ele></ele><time>2016-8-31T4:19:12Z</time></trkpt>
<trkpt lat="46.19331" lon="7.2455"><ele></ele><time>2016-8-31T4:19:15Z</time></trkpt>
<trkpt lat="46.1933" lon="7.24548"><ele></ele><time>2016-8-31T4:19:18Z</time></trkpt>
<trkpt lat="46.19328" lon="7.24545"><ele></ele><time>2016-8-31T4:19:21Z</time></trkpt>
<trkpt lat="46.19325" lon="7.2454"><ele></ele><time>2016-8-31T4:19:24Z</time></trkpt>
<trkpt lat="46.19324" lon="7.24536"><ele></ele><time>2016-8-31T4:19:27Z</time></trkpt>
<trkpt lat="46.19324" lon="7.24531"><ele></ele><time>2016-8-31T4:19:30Z</time></trkpt>
<trkpt lat="46.19323" lon="7.24526"><ele></ele><time>2016-8-31T4:19:33Z</time></trkpt>
<trkpt lat="46.19323" lon="7.24524"><ele></ele><time>2016-8-31T4:19:36Z</time></trkpt>
<trkpt lat="46.19324" lon="7.24525"><ele></ele><time>2016-8-31T4:19:39Z</time></trkpt>
<trkpt lat="46.19326" lon="7.24526"><ele></ele><time>2016-8-31T4:19:42Z</time></trkpt>
<trkpt lat="46.19329" lon="7.24528"><ele></ele><time>2016-8-31T4:19:45Z</time></trkpt>
<trkpt lat="46.1933" lon="7.24529"><ele></ele><time>2016-8-31T4:19:48Z</time></trkpt>
<trkpt lat="46.19328" lon="7.24531"><ele></ele><time>2016-8-31T4:19:51Z</time></trkpt>
<trkpt lat="46.19323" lon="7.24536"><ele></ele><time>2016-8-31T4:19:54Z</time></trkpt>
<trkpt lat="46.19317" lon="7.24541"><ele></ele><time>2016-8-31T4:19:57Z</time></trkpt>
<trkpt lat="46.19312" lon="7.24546"><ele></ele><time>2016-8-31T4:20:0Z</time></trkpt>
<trkpt lat="46.19307" lon="7.24551"><ele></ele><time>2016-8-31T4:20:3Z</time></trkpt>
<trkpt lat="46.19301" lon="7.24556"><ele></ele><time>2016-8-31T4:20:6Z</time></trkpt>
<trkpt lat="46.19296" lon="7.24561"><ele></ele><time>2016-8-31T4:20:9Z</time></trkpt>
<trkpt lat="46.1929" lon="7.24566"><ele></ele><time>2016-8-31T4:20:12Z</time></trkpt>
<trkpt lat="46.19282" lon="7.24575"><ele></ele><time>2016-8-31T4:20:15Z</time></trkpt>
<trkpt lat="46.19274" lon="7.24584"><ele></ele><time>2016-8-31T4:20:18Z</time></trkpt>
<trkpt lat="46.19266" lon="7.24593"><ele></ele><time>2016-8-31T4:20:21Z</time></trkpt>
<trkpt lat="46.19257" lon="7.24602"><ele></ele><time>2016-8-31T4:20:24Z</time></trkpt>
<trkpt lat="46.19253" lon="7.24606"><ele></ele><time>2016-8-31T4:20:27Z</time></trkpt>
<trkpt lat="46.19249" lon="7.24611"><ele></ele><time>2016-8-31T4:20:30Z</time></trkpt>
<trkpt lat="46.19242" lon="7.24622"><ele></ele><time>2016-8-31T4:20:33Z</time></trkpt>
<trkpt lat="46.19235" lon="7.24632"><ele></ele><time>2016-8-31T4:20:36Z</time></trkpt>
<trkpt lat="46.19231" lon="7.24637"><ele></ele><time>2016-8-31T4:20:39Z</time></trkpt>
<trkpt lat="46.19227" lon="7.24636"><ele></ele><time>2016-8-31T4:20:42Z</time></trkpt>
<trkpt lat="46.19223" lon="7.24634"><ele></ele><time>2016-8-31T4:20:45Z</time></trkpt>
<trkpt lat="46.1922" lon="7.24629"><ele></ele><time>2016-8-31T4:20:48Z</time></trkpt>
<trkpt lat="46.19213" lon="7.24617"><ele></ele><time>2016-8-31T4:20:51Z</time></trkpt>
<trkpt lat="46.19206" lon="7.24606"><ele></ele><time>2016-8-31T4:20:54Z</time></trkpt>
<trkpt lat="46.19199" lon="7.24594"><ele></ele><time>2016-8-31T4:20:57Z</time></trkpt>
<trkpt lat="46.19196" lon="7.24588"><ele></ele><time>2016-8-31T4:21:0Z</time></trkpt>
<trkpt lat="46.19192" lon="7.24582"><ele></ele><time>2016-8-31T4:21:3Z</time></trkpt>
<trkpt lat="46.19184" lon="7.24569"><ele></ele><time>2016-8-31T4:21:6Z</time></trkpt>
<trkpt lat="46.19176" lon="7.24555"><ele></ele><time>2016-8-31T4:21:9Z</time></trkpt>
<trkpt lat="46.19172" lon="7.24549"><ele></ele><time>2016-8-31T4:21:12Z</time></trkpt>
<trkpt lat="46.19168" lon="7.24542"><ele></ele><time>2016-8-31T4:21:15Z</time></trkpt>
<trkpt lat="46.1916" lon="7.24528"><ele></ele><time>2016-8-31T4:21:18Z</time></trkpt>
<trkpt lat="46.19151" lon="7.24514"><ele></ele><time>2016-8-31T4:21:21Z</time></trkpt>
<trkpt lat="46.19143" lon="7.245"><ele></ele><time>2016-8-31T4:21:24Z</time></trkpt>
<trkpt lat="46.19134" lon="7.24485"><ele></ele><time>2016-8-31T4:21:27Z</time></trkpt>
<trkpt lat="46.19129" lon="7.24478"><ele></ele><time>2016-8-31T4:21:30Z</time></trkpt>
<trkpt lat="46.19125" lon="7.24472"><ele></ele><time>2016-8-31T4:21:33Z</time></trkpt>
<trkpt lat="46.19118" lon="7.2446"><ele></ele><time>2016-8-31T4:21:36Z</time></trkpt>
<trkpt lat="46.1911" lon="7.24447"><ele></ele><time>2016-8-31T4:21:39Z</time></trkpt>
<trkpt lat="46.19102" lon="7.24435"><ele></ele><time>2016-8-31T4:21:42Z</time></trkpt>
<trkpt lat="46.19098" lon="7.24429"><ele></ele><time>2016-8-31T4:21:45Z</time></trkpt>
<trkpt lat="46.19095" lon="7.24423"><ele></ele><time>2016-8-31T4:21:48Z</time></trkpt>
<trkpt lat="46.19087" lon="7.24411"><ele></ele><time>2016-8-31T4:21:51Z</time></trkpt>
<trkpt lat="46.19079" lon="7.24398"><ele></ele><time>2016-8-31T4:21:54Z</time></trkpt>
<trkpt lat="46.19071" lon="7.24386"><ele></ele><time>2016-8-31T4:21:57Z</time></trkpt>
<trkpt lat="46.19067" lon="7.2438"><ele></ele><time>2016-8-31T4:22:0Z</time></trkpt>
<trkpt lat="46.19064" lon="7.24375"><ele></ele><time>2016-8-31T4:22:3Z</time></trkpt>
<trkpt lat="46.19057" lon="7.24365"><ele></ele><time>2016-8-31T4:22:6Z</time></trkpt>
<trkpt lat="46.1905" lon="7.24356"><ele></ele><time>2016-8-31T4:22:9Z</time></trkpt>
<trkpt lat="46.19044" lon="7.24346"><ele></ele><time>2016-8-31T4:22:12Z</time></trkpt>
<trkpt lat="46.19037" lon="7.24336"><ele></ele><time>2016-8-31T4:22:15Z</time></trkpt>
<trkpt lat="46.19034" lon="7.24331"><ele></ele><time>2016-8-31T4:22:18Z</time></trkpt>
<trkpt lat="46.1903" lon="7.24327"><ele></ele><time>2016-8-31T4:22:21Z</time></trkpt>
<trkpt lat="46.19024" lon="7.24317"><ele></ele><time>2016-8-31T4:22:24Z</time></trkpt>
<trkpt lat="46.19017" lon="7.24308"><ele></ele><time>2016-8-31T4:22:27Z</time></trkpt>
<trkpt lat="46.19011" lon="7.24298"><ele></ele><time>2016-8-31T4:22:30Z</time></trkpt>
<trkpt lat="46.19004" lon="7.24289"><ele></ele><time>2016-8-31T4:22:33Z</time></trkpt>
<trkpt lat="46.19001" lon="7.24284"><ele></ele><time>2016-8-31T4:22:36Z</time></trkpt>
<trkpt lat="46.18997" lon="7.24279"><ele></ele><time>2016-8-31T4:22:39Z</time></trkpt>
<trkpt lat="46.18989" lon="7.24268"><ele></ele><time>2016-8-31T4:22:42Z</time></trkpt>
<trkpt lat="46.18982" lon="7.24257"><ele></ele><time>2016-8-31T4:22:45Z</time></trkpt>
<trkpt lat="46.18974" lon="7.24247"><ele></ele><time>2016-8-31T4:22:48Z</time></trkpt>
<trkpt lat="46.18967" lon="7.24236"><ele></ele><time>2016-8-31T4:22:51Z</time></trkpt>
<trkpt lat="46.1896" lon="7.24225"><ele></ele><time>2016-8-31T4:22:54Z</time></trkpt>
<trkpt lat="46.18954" lon="7.24215"><ele></ele><time>2016-8-31T4:22:57Z</time></trkpt>
<trkpt lat="46.18948" lon="7.24204"><ele></ele><time>2016-8-31T4:23:0Z</time></trkpt>
<trkpt lat="46.18941" lon="7.24194"><ele></ele><time>2016-8-31T4:23:3Z</time></trkpt>
<trkpt lat="46.18935" lon="7.24184"><ele></ele><time>2016-8-31T4:23:6Z</time></trkpt>
<trkpt lat="46.18928" lon="7.24175"><ele></ele><time>2016-8-31T4:23:9Z</time></trkpt>
<trkpt lat="46.1892" lon="7.24166"><ele></ele><time>2016-8-31T4:23:12Z</time></trkpt>
<trkpt lat="46.18913" lon="7.24157"><ele></ele><time>2016-8-31T4:23:15Z</time></trkpt>
<trkpt lat="46.18905" lon="7.24149"><ele></ele><time>2016-8-31T4:23:18Z</time></trkpt>
<trkpt lat="46.18898" lon="7.2414"><ele></ele><time>2016-8-31T4:23:21Z</time></trkpt>
<trkpt lat="46.18892" lon="7.24132"><ele></ele><time>2016-8-31T4:23:24Z</time></trkpt>
<trkpt lat="46.18887" lon="7.24123"><ele></ele><time>2016-8-31T4:23:27Z</time></trkpt>
<trkpt lat="46.18882" lon="7.24115"><ele></ele><time>2016-8-31T4:23:30Z</time></trkpt>
<trkpt lat="46.18876" lon="7.24106"><ele></ele><time>2016-8-31T4:23:33Z</time></trkpt>
<trkpt lat="46.18871" lon="7.24098"><ele></ele><time>2016-8-31T4:23:36Z</time></trkpt>
<trkpt lat="46.18865" lon="7.2409"><ele></ele><time>2016-8-31T4:23:39Z</time></trkpt>
<trkpt lat="46.1886" lon="7.24082"><ele></ele><time>2016-8-31T4:23:42Z</time></trkpt>
<trkpt lat="46.18854" lon="7.24074"><ele></ele><time>2016-8-31T4:23:45Z</time></trkpt>
<trkpt lat="46.18848" lon="7.24066"><ele></ele><time>2016-8-31T4:23:48Z</time></trkpt>
<trkpt lat="46.18843" lon="7.24058"><ele></ele><time>2016-8-31T4:23:51Z</time></trkpt>
<trkpt lat="46.18837" lon="7.2405"><ele></ele><time>2016-8-31T4:23:54Z</time></trkpt>
<trkpt lat="46.18831" lon="7.24042"><ele></ele><time>2016-8-31T4:23:57Z</time></trkpt>
<trkpt lat="46.18824" lon="7.24032"><ele></ele><time>2016-8-31T4:24:0Z</time></trkpt>
<trkpt lat="46.18817" lon="7.24022"><ele></ele><time>2016-8-31T4:24:3Z</time></trkpt>
<trkpt lat="46.18813" lon="7.24017"><ele></ele><time>2016-8-31T4:24:6Z</time></trkpt>
<trkpt lat="46.18809" lon="7.24012"><ele></ele><time>2016-8-31T4:24:9Z</time></trkpt>
<trkpt lat="46.18802" lon="7.24002"><ele></ele><time>2016-8-31T4:24:12Z</time></trkpt>
<trkpt lat="46.18798" lon="7.23997"><ele></ele><time>2016-8-31T4:24:15Z</time></trkpt>
<trkpt lat="46.18796" lon="7.23993"><ele></ele><time>2016-8-31T4:24:18Z</time></trkpt>
<trkpt lat="46.18792" lon="7.23987"><ele></ele><time>2016-8-31T4:24:21Z</time></trkpt>
<trkpt lat="46.18789" lon="7.2398"><ele></ele><time>2016-8-31T4:24:24Z</time></trkpt>
<trkpt lat="46.18785" lon="7.23974"><ele></ele><time>2016-8-31T4:24:27Z</time></trkpt>
<trkpt lat="46.18781" lon="7.23968"><ele></ele><time>2016-8-31T4:24:30Z</time></trkpt>
<trkpt lat="46.18778" lon="7.23961"><ele></ele><time>2016-8-31T4:24:33Z</time></trkpt>
<trkpt lat="46.18774" lon="7.23955"><ele></ele><time>2016-8-31T4:24:36Z</time></trkpt>
<trkpt lat="46.18771" lon="7.23948"><ele></ele><time>2016-8-31T4:24:39Z</time></trkpt>
<trkpt lat="46.18769" lon="7.23945"><ele></ele><time>2016-8-31T4:24:42Z</time></trkpt>
<trkpt lat="46.18767" lon="7.23941"><ele></ele><time>2016-8-31T4:24:45Z</time></trkpt>
<trkpt lat="46.18762" lon="7.23934"><ele></ele><time>2016-8-31T4:24:48Z</time></trkpt>
<trkpt lat="46.18758" lon="7.23927"><ele></ele><time>2016-8-31T4:24:51Z</time></trkpt>
<trkpt lat="46.18753" lon="7.23919"><ele></ele><time>2016-8-31T4:24:54Z</time></trkpt>
<trkpt lat="46.18749" lon="7.23912"><ele></ele><time>2016-8-31T4:24:57Z</time></trkpt>
<trkpt lat="46.18745" lon="7.23904"><ele></ele><time>2016-8-31T4:25:0Z</time></trkpt>
<trkpt lat="46.1874" lon="7.23897"><ele></ele><time>2016-8-31T4:25:3Z</time></trkpt>
<trkpt lat="46.18738" lon="7.23893"><ele></ele><time>2016-8-31T4:25:6Z</time></trkpt>
<trkpt lat="46.18735" lon="7.23888"><ele></ele><time>2016-8-31T4:25:9Z</time></trkpt>
<trkpt lat="46.18729" lon="7.23878"><ele></ele><time>2016-8-31T4:25:12Z</time></trkpt>
<trkpt lat="46.18723" lon="7.23868"><ele></ele><time>2016-8-31T4:25:15Z</time></trkpt>
<trkpt lat="46.18716" lon="7.23858"><ele></ele><time>2016-8-31T4:25:18Z</time></trkpt>
<trkpt lat="46.1871" lon="7.23848"><ele></ele><time>2016-8-31T4:25:21Z</time></trkpt>
<trkpt lat="46.18707" lon="7.23843"><ele></ele><time>2016-8-31T4:25:24Z</time></trkpt>
<trkpt lat="46.18704" lon="7.23839"><ele></ele><time>2016-8-31T4:25:27Z</time></trkpt>
<trkpt lat="46.18698" lon="7.2383"><ele></ele><time>2016-8-31T4:25:30Z</time></trkpt>
<trkpt lat="46.18692" lon="7.23821"><ele></ele><time>2016-8-31T4:25:33Z</time></trkpt>
<trkpt lat="46.18686" lon="7.23812"><ele></ele><time>2016-8-31T4:25:36Z</time></trkpt>
<trkpt lat="46.1868" lon="7.23803"><ele></ele><time>2016-8-31T4:25:39Z</time></trkpt>
<trkpt lat="46.18674" lon="7.23795"><ele></ele><time>2016-8-31T4:25:42Z</time></trkpt>
<trkpt lat="46.18668" lon="7.23786"><ele></ele><time>2016-8-31T4:25:45Z</time></trkpt>
<trkpt lat="46.18662" lon="7.23778"><ele></ele><time>2016-8-31T4:25:48Z</time></trkpt>
<trkpt lat="46.18656" lon="7.2377"><ele></ele><time>2016-8-31T4:25:51Z</time></trkpt>
<trkpt lat="46.1865" lon="7.23762"><ele></ele><time>2016-8-31T4:25:54Z</time></trkpt>
<trkpt lat="46.18644" lon="7.23754"><ele></ele><time>2016-8-31T4:25:57Z</time></trkpt>
<trkpt lat="46.18638" lon="7.23746"><ele></ele><time>2016-8-31T4:26:0Z</time></trkpt>
<trkpt lat="46.18632" lon="7.23739"><ele></ele><time>2016-8-31T4:26:3Z</time></trkpt>
<trkpt lat="46.18625" lon="7.23731"><ele></ele><time>2016-8-31T4:26:6Z</time></trkpt>
<trkpt lat="46.18621" lon="7.23727"><ele></ele><time>2016-8-31T4:26:9Z</time></trkpt>
<trkpt lat="46.18616" lon="7.2373"><ele></ele><time>2016-8-31T4:26:12Z</time></trkpt>
<trkpt lat="46.18605" lon="7.23739"><ele></ele><time>2016-8-31T4:26:15Z</time></trkpt>
<trkpt lat="46.18594" lon="7.23747"><ele></ele><time>2016-8-31T4:26:18Z</time></trkpt>
<trkpt lat="46.18589" lon="7.23751"><ele></ele><time>2016-8-31T4:26:21Z</time></trkpt>
<trkpt lat="46.18583" lon="7.23756"><ele></ele><time>2016-8-31T4:26:24Z</time></trkpt>
<trkpt lat="46.18578" lon="7.2376"><ele></ele><time>2016-8-31T4:26:27Z</time></trkpt>
<trkpt lat="46.1857" lon="7.23766"><ele></ele><time>2016-8-31T4:26:30Z</time></trkpt>
<trkpt lat="46.18563" lon="7.23772"><ele></ele><time>2016-8-31T4:26:33Z</time></trkpt>
<trkpt lat="46.1856" lon="7.23772"><ele></ele><time>2016-8-31T4:26:36Z</time></trkpt>
<trkpt lat="46.18555" lon="7.2377"><ele></ele><time>2016-8-31T4:26:39Z</time></trkpt>
<trkpt lat="46.18552" lon="7.23768"><ele></ele><time>2016-8-31T4:26:42Z</time></trkpt>
<trkpt lat="46.18552" lon="7.23771"><ele></ele><time>2016-8-31T4:26:45Z</time></trkpt>
<trkpt lat="46.18553" lon="7.23778"><ele></ele><time>2016-8-31T4:26:48Z</time></trkpt>
<trkpt lat="46.18553" lon="7.23781"><ele></ele><time>2016-8-31T4:26:51Z</time></trkpt>
<trkpt lat="46.18549" lon="7.23785"><ele></ele><time>2016-8-31T4:26:54Z</time></trkpt>
<trkpt lat="46.18542" lon="7.23793"><ele></ele><time>2016-8-31T4:26:57Z</time></trkpt>
<trkpt lat="46.18534" lon="7.23801"><ele></ele><time>2016-8-31T4:27:0Z</time></trkpt>
<trkpt lat="46.1853" lon="7.23804"><ele></ele><time>2016-8-31T4:27:3Z</time></trkpt>
<trkpt lat="46.18526" lon="7.23808"><ele></ele><time>2016-8-31T4:27:6Z</time></trkpt>
<trkpt lat="46.18519" lon="7.23816"><ele></ele><time>2016-8-31T4:27:9Z</time></trkpt>
<trkpt lat="46.18515" lon="7.2382"><ele></ele><time>2016-8-31T4:27:12Z</time></trkpt>
<trkpt lat="46.18509" lon="7.23825"><ele></ele><time>2016-8-31T4:27:15Z</time></trkpt>
<trkpt lat="46.18491" lon="7.23841"><ele></ele><time>2016-8-31T4:27:18Z</time></trkpt>
<trkpt lat="46.18485" lon="7.23847"><ele></ele><time>2016-8-31T4:27:21Z</time></trkpt>
<trkpt lat="46.18479" lon="7.23852"><ele></ele><time>2016-8-31T4:27:24Z</time></trkpt>
<trkpt lat="46.18473" lon="7.23858"><ele></ele><time>2016-8-31T4:27:27Z</time></trkpt>
<trkpt lat="46.18459" lon="7.2387"><ele></ele><time>2016-8-31T4:27:30Z</time></trkpt>
<trkpt lat="46.18444" lon="7.23883"><ele></ele><time>2016-8-31T4:27:33Z</time></trkpt>
<trkpt lat="46.18429" lon="7.23896"><ele></ele><time>2016-8-31T4:27:36Z</time></trkpt>
<trkpt lat="46.18413" lon="7.23912"><ele></ele><time>2016-8-31T4:27:39Z</time></trkpt>
<trkpt lat="46.18396" lon="7.23927"><ele></ele><time>2016-8-31T4:27:42Z</time></trkpt>
<trkpt lat="46.18388" lon="7.23935"><ele></ele><time>2016-8-31T4:27:45Z</time></trkpt>
<trkpt lat="46.1838" lon="7.23942"><ele></ele><time>2016-8-31T4:27:48Z</time></trkpt>
<trkpt lat="46.18365" lon="7.23956"><ele></ele><time>2016-8-31T4:27:51Z</time></trkpt>
<trkpt lat="46.1835" lon="7.23971"><ele></ele><time>2016-8-31T4:27:54Z</time></trkpt>
<trkpt lat="46.18339" lon="7.23976"><ele></ele><time>2016-8-31T4:27:57Z</time></trkpt>
<trkpt lat="46.18334" lon="7.23979"><ele></ele><time>2016-8-31T4:28:0Z</time></trkpt>
<trkpt lat="46.18331" lon="7.23976"><ele></ele><time>2016-8-31T4:28:3Z</time></trkpt>
<trkpt lat="46.18328" lon="7.23973"><ele></ele><time>2016-8-31T4:28:6Z</time></trkpt>
<trkpt lat="46.18325" lon="7.23968"><ele></ele><time>2016-8-31T4:28:9Z</time></trkpt>
<trkpt lat="46.1832" lon="7.23956"><ele></ele><time>2016-8-31T4:28:12Z</time></trkpt>
<trkpt lat="46.18315" lon="7.23945"><ele></ele><time>2016-8-31T4:28:15Z</time></trkpt>
<trkpt lat="46.18313" lon="7.2394"><ele></ele><time>2016-8-31T4:28:18Z</time></trkpt>
<trkpt lat="46.1831" lon="7.23934"><ele></ele><time>2016-8-31T4:28:21Z</time></trkpt>
<trkpt lat="46.18306" lon="7.23923"><ele></ele><time>2016-8-31T4:28:24Z</time></trkpt>
<trkpt lat="46.18303" lon="7.23917"><ele></ele><time>2016-8-31T4:28:27Z</time></trkpt>
<trkpt lat="46.183" lon="7.23911"><ele></ele><time>2016-8-31T4:28:30Z</time></trkpt>
<trkpt lat="46.18297" lon="7.23905"><ele></ele><time>2016-8-31T4:28:33Z</time></trkpt>
<trkpt lat="46.18294" lon="7.23899"><ele></ele><time>2016-8-31T4:28:36Z</time></trkpt>
<trkpt lat="46.18288" lon="7.23887"><ele></ele><time>2016-8-31T4:28:39Z</time></trkpt>
<trkpt lat="46.18282" lon="7.23875"><ele></ele><time>2016-8-31T4:28:42Z</time></trkpt>
<trkpt lat="46.18276" lon="7.23863"><ele></ele><time>2016-8-31T4:28:45Z</time></trkpt>
<trkpt lat="46.18271" lon="7.2385"><ele></ele><time>2016-8-31T4:28:48Z</time></trkpt>
<trkpt lat="46.18266" lon="7.23837"><ele></ele><time>2016-8-31T4:28:51Z</time></trkpt>
<trkpt lat="46.1826" lon="7.23823"><ele></ele><time>2016-8-31T4:28:54Z</time></trkpt>
<trkpt lat="46.18255" lon="7.2381"><ele></ele><time>2016-8-31T4:28:57Z</time></trkpt>
<trkpt lat="46.18253" lon="7.23804"><ele></ele><time>2016-8-31T4:29:0Z</time></trkpt>
<trkpt lat="46.1825" lon="7.23797"><ele></ele><time>2016-8-31T4:29:3Z</time></trkpt>
<trkpt lat="46.18246" lon="7.23783"><ele></ele><time>2016-8-31T4:29:6Z</time></trkpt>
<trkpt lat="46.18242" lon="7.23769"><ele></ele><time>2016-8-31T4:29:9Z</time></trkpt>
<trkpt lat="46.18237" lon="7.23755"><ele></ele><time>2016-8-31T4:29:12Z</time></trkpt>
<trkpt lat="46.18233" lon="7.23741"><ele></ele><time>2016-8-31T4:29:15Z</time></trkpt>
<trkpt lat="46.18229" lon="7.23726"><ele></ele><time>2016-8-31T4:29:18Z</time></trkpt>
<trkpt lat="46.18226" lon="7.23711"><ele></ele><time>2016-8-31T4:29:21Z</time></trkpt>
<trkpt lat="46.18222" lon="7.23696"><ele></ele><time>2016-8-31T4:29:24Z</time></trkpt>
<trkpt lat="46.18218" lon="7.23681"><ele></ele><time>2016-8-31T4:29:27Z</time></trkpt>
<trkpt lat="46.18216" lon="7.23673"><ele></ele><time>2016-8-31T4:29:30Z</time></trkpt>
<trkpt lat="46.18215" lon="7.23666"><ele></ele><time>2016-8-31T4:29:33Z</time></trkpt>
<trkpt lat="46.18211" lon="7.23652"><ele></ele><time>2016-8-31T4:29:36Z</time></trkpt>
<trkpt lat="46.18208" lon="7.23637"><ele></ele><time>2016-8-31T4:29:39Z</time></trkpt>
<trkpt lat="46.18205" lon="7.23623"><ele></ele><time>2016-8-31T4:29:42Z</time></trkpt>
<trkpt lat="46.18202" lon="7.23608"><ele></ele><time>2016-8-31T4:29:45Z</time></trkpt>
<trkpt lat="46.18198" lon="7.23594"><ele></ele><time>2016-8-31T4:29:48Z</time></trkpt>
<trkpt lat="46.18195" lon="7.2358"><ele></ele><time>2016-8-31T4:29:51Z</time></trkpt>
<trkpt lat="46.18192" lon="7.23566"><ele></ele><time>2016-8-31T4:29:54Z</time></trkpt>
<trkpt lat="46.18189" lon="7.23552"><ele></ele><time>2016-8-31T4:29:57Z</time></trkpt>
<trkpt lat="46.18187" lon="7.23545"><ele></ele><time>2016-8-31T4:30:0Z</time></trkpt>
<trkpt lat="46.18185" lon="7.23538"><ele></ele><time>2016-8-31T4:30:3Z</time></trkpt>
<trkpt lat="46.18182" lon="7.23525"><ele></ele><time>2016-8-31T4:30:6Z</time></trkpt>
<trkpt lat="46.18178" lon="7.23512"><ele></ele><time>2016-8-31T4:30:9Z</time></trkpt>
<trkpt lat="46.18174" lon="7.23498"><ele></ele><time>2016-8-31T4:30:12Z</time></trkpt>
<trkpt lat="46.1817" lon="7.23485"><ele></ele><time>2016-8-31T4:30:15Z</time></trkpt>
<trkpt lat="46.18168" lon="7.23478"><ele></ele><time>2016-8-31T4:30:18Z</time></trkpt>
<trkpt lat="46.18165" lon="7.23472"><ele></ele><time>2016-8-31T4:30:21Z</time></trkpt>
<trkpt lat="46.18159" lon="7.2346"><ele></ele><time>2016-8-31T4:30:24Z</time></trkpt>
<trkpt lat="46.18153" lon="7.23447"><ele></ele><time>2016-8-31T4:30:27Z</time></trkpt>
<trkpt lat="46.18146" lon="7.23435"><ele></ele><time>2016-8-31T4:30:30Z</time></trkpt>
<trkpt lat="46.1814" lon="7.23423"><ele></ele><time>2016-8-31T4:30:33Z</time></trkpt>
<trkpt lat="46.18133" lon="7.23411"><ele></ele><time>2016-8-31T4:30:36Z</time></trkpt>
<trkpt lat="46.18126" lon="7.234"><ele></ele><time>2016-8-31T4:30:39Z</time></trkpt>
<trkpt lat="46.18118" lon="7.23389"><ele></ele><time>2016-8-31T4:30:42Z</time></trkpt>
<trkpt lat="46.18111" lon="7.23378"><ele></ele><time>2016-8-31T4:30:45Z</time></trkpt>
<trkpt lat="46.18108" lon="7.23373"><ele></ele><time>2016-8-31T4:30:48Z</time></trkpt>
<trkpt lat="46.18104" lon="7.23368"><ele></ele><time>2016-8-31T4:30:51Z</time></trkpt>
<trkpt lat="46.18096" lon="7.23358"><ele></ele><time>2016-8-31T4:30:54Z</time></trkpt>
<trkpt lat="46.18092" lon="7.23353"><ele></ele><time>2016-8-31T4:30:57Z</time></trkpt>
<trkpt lat="46.18089" lon="7.23348"><ele></ele><time>2016-8-31T4:31:0Z</time></trkpt>
<trkpt lat="46.18081" lon="7.23338"><ele></ele><time>2016-8-31T4:31:3Z</time></trkpt>
<trkpt lat="46.18073" lon="7.23329"><ele></ele><time>2016-8-31T4:31:6Z</time></trkpt>
<trkpt lat="46.18065" lon="7.2332"><ele></ele><time>2016-8-31T4:31:9Z</time></trkpt>
<trkpt lat="46.18057" lon="7.23311"><ele></ele><time>2016-8-31T4:31:12Z</time></trkpt>
<trkpt lat="46.18049" lon="7.23303"><ele></ele><time>2016-8-31T4:31:15Z</time></trkpt>
<trkpt lat="46.18041" lon="7.23294"><ele></ele><time>2016-8-31T4:31:18Z</time></trkpt>
<trkpt lat="46.18036" lon="7.2329"><ele></ele><time>2016-8-31T4:31:21Z</time></trkpt>
<trkpt lat="46.18032" lon="7.23285"><ele></ele><time>2016-8-31T4:31:24Z</time></trkpt>
<trkpt lat="46.18024" lon="7.23276"><ele></ele><time>2016-8-31T4:31:27Z</time></trkpt>
<trkpt lat="46.18015" lon="7.23267"><ele></ele><time>2016-8-31T4:31:30Z</time></trkpt>
<trkpt lat="46.18006" lon="7.23259"><ele></ele><time>2016-8-31T4:31:33Z</time></trkpt>
<trkpt lat="46.17998" lon="7.2325"><ele></ele><time>2016-8-31T4:31:36Z</time></trkpt>
<trkpt lat="46.1799" lon="7.23242"><ele></ele><time>2016-8-31T4:31:39Z</time></trkpt>
<trkpt lat="46.17983" lon="7.23234"><ele></ele><time>2016-8-31T4:31:42Z</time></trkpt>
<trkpt lat="46.17976" lon="7.23226"><ele></ele><time>2016-8-31T4:31:45Z</time></trkpt>
<trkpt lat="46.17968" lon="7.23218"><ele></ele><time>2016-8-31T4:31:48Z</time></trkpt>
<trkpt lat="46.17961" lon="7.2321"><ele></ele><time>2016-8-31T4:31:51Z</time></trkpt>
<trkpt lat="46.17954" lon="7.23199"><ele></ele><time>2016-8-31T4:31:54Z</time></trkpt>
<trkpt lat="46.17947" lon="7.23189"><ele></ele><time>2016-8-31T4:31:57Z</time></trkpt>
<trkpt lat="46.17941" lon="7.23178"><ele></ele><time>2016-8-31T4:32:0Z</time></trkpt>
<trkpt lat="46.17934" lon="7.23167"><ele></ele><time>2016-8-31T4:32:3Z</time></trkpt>
<trkpt lat="46.1793" lon="7.23162"><ele></ele><time>2016-8-31T4:32:6Z</time></trkpt>
<trkpt lat="46.17928" lon="7.23156"><ele></ele><time>2016-8-31T4:32:9Z</time></trkpt>
<trkpt lat="46.17922" lon="7.23145"><ele></ele><time>2016-8-31T4:32:12Z</time></trkpt>
<trkpt lat="46.17917" lon="7.23134"><ele></ele><time>2016-8-31T4:32:15Z</time></trkpt>
<trkpt lat="46.17911" lon="7.23123"><ele></ele><time>2016-8-31T4:32:18Z</time></trkpt>
<trkpt lat="46.17906" lon="7.23111"><ele></ele><time>2016-8-31T4:32:21Z</time></trkpt>
<trkpt lat="46.17903" lon="7.23106"><ele></ele><time>2016-8-31T4:32:24Z</time></trkpt>
<trkpt lat="46.17901" lon="7.231"><ele></ele><time>2016-8-31T4:32:27Z</time></trkpt>
<trkpt lat="46.17895" lon="7.23088"><ele></ele><time>2016-8-31T4:32:30Z</time></trkpt>
<trkpt lat="46.1789" lon="7.23077"><ele></ele><time>2016-8-31T4:32:33Z</time></trkpt>
<trkpt lat="46.17885" lon="7.23065"><ele></ele><time>2016-8-31T4:32:36Z</time></trkpt>
<trkpt lat="46.17879" lon="7.23054"><ele></ele><time>2016-8-31T4:32:39Z</time></trkpt>
<trkpt lat="46.17877" lon="7.23048"><ele></ele><time>2016-8-31T4:32:42Z</time></trkpt>
<trkpt lat="46.17874" lon="7.23043"><ele></ele><time>2016-8-31T4:32:45Z</time></trkpt>
<trkpt lat="46.17868" lon="7.23033"><ele></ele><time>2016-8-31T4:32:48Z</time></trkpt>
<trkpt lat="46.17861" lon="7.23022"><ele></ele><time>2016-8-31T4:32:51Z</time></trkpt>
<trkpt lat="46.17855" lon="7.23012"><ele></ele><time>2016-8-31T4:32:54Z</time></trkpt>
<trkpt lat="46.17849" lon="7.23001"><ele></ele><time>2016-8-31T4:32:57Z</time></trkpt>
<trkpt lat="46.17846" lon="7.22996"><ele></ele><time>2016-8-31T4:33:0Z</time></trkpt>
<trkpt lat="46.17844" lon="7.2299"><ele></ele><time>2016-8-31T4:33:3Z</time></trkpt>
<trkpt lat="46.17841" lon="7.22977"><ele></ele><time>2016-8-31T4:33:6Z</time></trkpt>
<trkpt lat="46.17838" lon="7.22963"><ele></ele><time>2016-8-31T4:33:9Z</time></trkpt>
<trkpt lat="46.17835" lon="7.2295"><ele></ele><time>2016-8-31T4:33:12Z</time></trkpt>
<trkpt lat="46.17831" lon="7.22937"><ele></ele><time>2016-8-31T4:33:15Z</time></trkpt>
<trkpt lat="46.1783" lon="7.22931"><ele></ele><time>2016-8-31T4:33:18Z</time></trkpt>
<trkpt lat="46.1783" lon="7.22924"><ele></ele><time>2016-8-31T4:33:21Z</time></trkpt>
<trkpt lat="46.17832" lon="7.22912"><ele></ele><time>2016-8-31T4:33:24Z</time></trkpt>
<trkpt lat="46.17833" lon="7.22899"><ele></ele><time>2016-8-31T4:33:27Z</time></trkpt>
<trkpt lat="46.17835" lon="7.22887"><ele></ele><time>2016-8-31T4:33:30Z</time></trkpt>
<trkpt lat="46.17837" lon="7.22879"><ele></ele><time>2016-8-31T4:33:33Z</time></trkpt>
<trkpt lat="46.1784" lon="7.22872"><ele></ele><time>2016-8-31T4:33:36Z</time></trkpt>
<trkpt lat="46.17842" lon="7.22865"><ele></ele><time>2016-8-31T4:33:39Z</time></trkpt>
<trkpt lat="46.17836" lon="7.2286"><ele></ele><time>2016-8-31T4:33:42Z</time></trkpt>
<trkpt lat="46.1783" lon="7.22856"><ele></ele><time>2016-8-31T4:33:45Z</time></trkpt>
<trkpt lat="46.17823" lon="7.22851"><ele></ele><time>2016-8-31T4:33:48Z</time></trkpt>
<trkpt lat="46.17817" lon="7.22847"><ele></ele><time>2016-8-31T4:33:51Z</time></trkpt>
<trkpt lat="46.1781" lon="7.22843"><ele></ele><time>2016-8-31T4:33:54Z</time></trkpt>
<trkpt lat="46.17804" lon="7.22838"><ele></ele><time>2016-8-31T4:33:57Z</time></trkpt>
<trkpt lat="46.178" lon="7.22836"><ele></ele><time>2016-8-31T4:34:0Z</time></trkpt>
<trkpt lat="46.17798" lon="7.22833"><ele></ele><time>2016-8-31T4:34:3Z</time></trkpt>
<trkpt lat="46.17792" lon="7.22827"><ele></ele><time>2016-8-31T4:34:6Z</time></trkpt>
<trkpt lat="46.17787" lon="7.22821"><ele></ele><time>2016-8-31T4:34:9Z</time></trkpt>
<trkpt lat="46.17782" lon="7.22815"><ele></ele><time>2016-8-31T4:34:12Z</time></trkpt>
<trkpt lat="46.17776" lon="7.2281"><ele></ele><time>2016-8-31T4:34:15Z</time></trkpt>
<trkpt lat="46.17774" lon="7.22807"><ele></ele><time>2016-8-31T4:34:18Z</time></trkpt>
<trkpt lat="46.17775" lon="7.22802"><ele></ele><time>2016-8-31T4:34:21Z</time></trkpt>
<trkpt lat="46.17778" lon="7.22792"><ele></ele><time>2016-8-31T4:34:24Z</time></trkpt>
<trkpt lat="46.17781" lon="7.22783"><ele></ele><time>2016-8-31T4:34:27Z</time></trkpt>
<trkpt lat="46.17784" lon="7.22773"><ele></ele><time>2016-8-31T4:34:30Z</time></trkpt>
<trkpt lat="46.17787" lon="7.22764"><ele></ele><time>2016-8-31T4:34:33Z</time></trkpt>
<trkpt lat="46.1779" lon="7.22754"><ele></ele><time>2016-8-31T4:34:36Z</time></trkpt>
<trkpt lat="46.17793" lon="7.22745"><ele></ele><time>2016-8-31T4:34:39Z</time></trkpt>
<trkpt lat="46.17797" lon="7.22733"><ele></ele><time>2016-8-31T4:34:42Z</time></trkpt>
<trkpt lat="46.17801" lon="7.22721"><ele></ele><time>2016-8-31T4:34:45Z</time></trkpt>
<trkpt lat="46.17806" lon="7.22709"><ele></ele><time>2016-8-31T4:34:48Z</time></trkpt>
<trkpt lat="46.1781" lon="7.22698"><ele></ele><time>2016-8-31T4:34:51Z</time></trkpt>
<trkpt lat="46.17814" lon="7.22686"><ele></ele><time>2016-8-31T4:34:54Z</time></trkpt>
<trkpt lat="46.17818" lon="7.22674"><ele></ele><time>2016-8-31T4:34:57Z</time></trkpt>
<trkpt lat="46.17822" lon="7.22662"><ele></ele><time>2016-8-31T4:35:0Z</time></trkpt>
<trkpt lat="46.17826" lon="7.22649"><ele></ele><time>2016-8-31T4:35:3Z</time></trkpt>
<trkpt lat="46.1783" lon="7.22637"><ele></ele><time>2016-8-31T4:35:6Z</time></trkpt>
<trkpt lat="46.17834" lon="7.22625"><ele></ele><time>2016-8-31T4:35:9Z</time></trkpt>
<trkpt lat="46.17835" lon="7.22607"><ele></ele><time>2016-8-31T4:35:12Z</time></trkpt>
<trkpt lat="46.17835" lon="7.22588"><ele></ele><time>2016-8-31T4:35:15Z</time></trkpt>
<trkpt lat="46.17835" lon="7.22579"><ele></ele><time>2016-8-31T4:35:18Z</time></trkpt>
<trkpt lat="46.17837" lon="7.2257"><ele></ele><time>2016-8-31T4:35:21Z</time></trkpt>
<trkpt lat="46.17844" lon="7.2255"><ele></ele><time>2016-8-31T4:35:24Z</time></trkpt>
<trkpt lat="46.17851" lon="7.22539"><ele></ele><time>2016-8-31T4:35:27Z</time></trkpt>
<trkpt lat="46.17858" lon="7.22528"><ele></ele><time>2016-8-31T4:35:30Z</time></trkpt>
<trkpt lat="46.17865" lon="7.22517"><ele></ele><time>2016-8-31T4:35:33Z</time></trkpt>
<trkpt lat="46.17872" lon="7.22506"><ele></ele><time>2016-8-31T4:35:36Z</time></trkpt>
<trkpt lat="46.17876" lon="7.22501"><ele></ele><time>2016-8-31T4:35:39Z</time></trkpt>
<trkpt lat="46.17879" lon="7.22495"><ele></ele><time>2016-8-31T4:35:42Z</time></trkpt>
<trkpt lat="46.17883" lon="7.22482"><ele></ele><time>2016-8-31T4:35:45Z</time></trkpt>
<trkpt lat="46.17888" lon="7.22469"><ele></ele><time>2016-8-31T4:35:48Z</time></trkpt>
<trkpt lat="46.17889" lon="7.22456"><ele></ele><time>2016-8-31T4:35:51Z</time></trkpt>
<trkpt lat="46.1789" lon="7.22444"><ele></ele><time>2016-8-31T4:35:54Z</time></trkpt>
<trkpt lat="46.1789" lon="7.22431"><ele></ele><time>2016-8-31T4:35:57Z</time></trkpt>
<trkpt lat="46.17891" lon="7.22418"><ele></ele><time>2016-8-31T4:36:0Z</time></trkpt>
<trkpt lat="46.17889" lon="7.22411"><ele></ele><time>2016-8-31T4:36:3Z</time></trkpt>
<trkpt lat="46.17889" lon="7.22403"><ele></ele><time>2016-8-31T4:36:6Z</time></trkpt>
<trkpt lat="46.1789" lon="7.22386"><ele></ele><time>2016-8-31T4:36:9Z</time></trkpt>
<trkpt lat="46.17891" lon="7.22369"><ele></ele><time>2016-8-31T4:36:12Z</time></trkpt>
<trkpt lat="46.17892" lon="7.22352"><ele></ele><time>2016-8-31T4:36:15Z</time></trkpt>
<trkpt lat="46.17892" lon="7.22344"><ele></ele><time>2016-8-31T4:36:18Z</time></trkpt>
<trkpt lat="46.17893" lon="7.22337"><ele></ele><time>2016-8-31T4:36:21Z</time></trkpt>
<trkpt lat="46.17893" lon="7.22322"><ele></ele><time>2016-8-31T4:36:24Z</time></trkpt>
<trkpt lat="46.17894" lon="7.22307"><ele></ele><time>2016-8-31T4:36:27Z</time></trkpt>
<trkpt lat="46.17895" lon="7.22293"><ele></ele><time>2016-8-31T4:36:30Z</time></trkpt>
<trkpt lat="46.17896" lon="7.22278"><ele></ele><time>2016-8-31T4:36:33Z</time></trkpt>
<trkpt lat="46.17896" lon="7.22264"><ele></ele><time>2016-8-31T4:36:36Z</time></trkpt>
<trkpt lat="46.17895" lon="7.2225"><ele></ele><time>2016-8-31T4:36:39Z</time></trkpt>
<trkpt lat="46.17895" lon="7.22235"><ele></ele><time>2016-8-31T4:36:42Z</time></trkpt>
<trkpt lat="46.17895" lon="7.22221"><ele></ele><time>2016-8-31T4:36:45Z</time></trkpt>
<trkpt lat="46.17895" lon="7.22207"><ele></ele><time>2016-8-31T4:36:48Z</time></trkpt>
<trkpt lat="46.17894" lon="7.2219"><ele></ele><time>2016-8-31T4:36:51Z</time></trkpt>
<trkpt lat="46.17893" lon="7.22174"><ele></ele><time>2016-8-31T4:36:54Z</time></trkpt>
<trkpt lat="46.17893" lon="7.22158"><ele></ele><time>2016-8-31T4:36:57Z</time></trkpt>
<trkpt lat="46.17892" lon="7.22142"><ele></ele><time>2016-8-31T4:37:0Z</time></trkpt>
<trkpt lat="46.17891" lon="7.22127"><ele></ele><time>2016-8-31T4:37:3Z</time></trkpt>
<trkpt lat="46.1789" lon="7.22112"><ele></ele><time>2016-8-31T4:37:6Z</time></trkpt>
<trkpt lat="46.17888" lon="7.22097"><ele></ele><time>2016-8-31T4:37:9Z</time></trkpt>
<trkpt lat="46.17887" lon="7.22082"><ele></ele><time>2016-8-31T4:37:12Z</time></trkpt>
<trkpt lat="46.17887" lon="7.22074"><ele></ele><time>2016-8-31T4:37:15Z</time></trkpt>
<trkpt lat="46.17886" lon="7.22067"><ele></ele><time>2016-8-31T4:37:18Z</time></trkpt>
<trkpt lat="46.17886" lon="7.22054"><ele></ele><time>2016-8-31T4:37:21Z</time></trkpt>
<trkpt lat="46.17885" lon="7.22041"><ele></ele><time>2016-8-31T4:37:24Z</time></trkpt>
<trkpt lat="46.17884" lon="7.22028"><ele></ele><time>2016-8-31T4:37:27Z</time></trkpt>
<trkpt lat="46.17884" lon="7.22015"><ele></ele><time>2016-8-31T4:37:30Z</time></trkpt>
<trkpt lat="46.17883" lon="7.22009"><ele></ele><time>2016-8-31T4:37:33Z</time></trkpt>
<trkpt lat="46.17883" lon="7.22002"><ele></ele><time>2016-8-31T4:37:36Z</time></trkpt>
<trkpt lat="46.17883" lon="7.21989"><ele></ele><time>2016-8-31T4:37:39Z</time></trkpt>
<trkpt lat="46.17882" lon="7.21976"><ele></ele><time>2016-8-31T4:37:42Z</time></trkpt>
<trkpt lat="46.17882" lon="7.21969"><ele></ele><time>2016-8-31T4:37:45Z</time></trkpt>
<trkpt lat="46.17882" lon="7.21963"><ele></ele><time>2016-8-31T4:37:48Z</time></trkpt>
<trkpt lat="46.17882" lon="7.21951"><ele></ele><time>2016-8-31T4:37:51Z</time></trkpt>
<trkpt lat="46.17882" lon="7.21938"><ele></ele><time>2016-8-31T4:37:54Z</time></trkpt>
<trkpt lat="46.17882" lon="7.21926"><ele></ele><time>2016-8-31T4:37:57Z</time></trkpt>
<trkpt lat="46.17882" lon="7.21913"><ele></ele><time>2016-8-31T4:38:0Z</time></trkpt>
<trkpt lat="46.17882" lon="7.21901"><ele></ele><time>2016-8-31T4:38:3Z</time></trkpt>
<trkpt lat="46.17881" lon="7.21888"><ele></ele><time>2016-8-31T4:38:6Z</time></trkpt>
<trkpt lat="46.17881" lon="7.21875"><ele></ele><time>2016-8-31T4:38:9Z</time></trkpt>
<trkpt lat="46.1788" lon="7.21862"><ele></ele><time>2016-8-31T4:38:12Z</time></trkpt>
<trkpt lat="46.1788" lon="7.2185"><ele></ele><time>2016-8-31T4:38:15Z</time></trkpt>
<trkpt lat="46.17879" lon="7.21837"><ele></ele><time>2016-8-31T4:38:18Z</time></trkpt>
<trkpt lat="46.17879" lon="7.2183"><ele></ele><time>2016-8-31T4:38:21Z</time></trkpt>
<trkpt lat="46.1788" lon="7.21827"><ele></ele><time>2016-8-31T4:38:24Z</time></trkpt>
<trkpt lat="46.17881" lon="7.21821"><ele></ele><time>2016-8-31T4:38:27Z</time></trkpt>
<trkpt lat="46.17883" lon="7.21815"><ele></ele><time>2016-8-31T4:38:30Z</time></trkpt>
<trkpt lat="46.17884" lon="7.21809"><ele></ele><time>2016-8-31T4:38:33Z</time></trkpt>
<trkpt lat="46.17886" lon="7.21803"><ele></ele><time>2016-8-31T4:38:36Z</time></trkpt>
<trkpt lat="46.17887" lon="7.21797"><ele></ele><time>2016-8-31T4:38:39Z</time></trkpt>
<trkpt lat="46.17889" lon="7.21791"><ele></ele><time>2016-8-31T4:38:42Z</time></trkpt>
<trkpt lat="46.17889" lon="7.21788"><ele></ele><time>2016-8-31T4:38:45Z</time></trkpt>
<trkpt lat="46.17887" lon="7.21785"><ele></ele><time>2016-8-31T4:38:48Z</time></trkpt>
<trkpt lat="46.17883" lon="7.21778"><ele></ele><time>2016-8-31T4:38:51Z</time></trkpt>
<trkpt lat="46.17878" lon="7.21772"><ele></ele><time>2016-8-31T4:38:54Z</time></trkpt>
<trkpt lat="46.17877" lon="7.21757"><ele></ele><time>2016-8-31T4:38:57Z</time></trkpt>
<trkpt lat="46.17876" lon="7.21741"><ele></ele><time>2016-8-31T4:39:0Z</time></trkpt>
<trkpt lat="46.17875" lon="7.21726"><ele></ele><time>2016-8-31T4:39:3Z</time></trkpt>
<trkpt lat="46.17874" lon="7.2171"><ele></ele><time>2016-8-31T4:39:6Z</time></trkpt>
<trkpt lat="46.17873" lon="7.21702"><ele></ele><time>2016-8-31T4:39:9Z</time></trkpt>
<trkpt lat="46.17873" lon="7.21695"><ele></ele><time>2016-8-31T4:39:12Z</time></trkpt>
<trkpt lat="46.17872" lon="7.21681"><ele></ele><time>2016-8-31T4:39:15Z</time></trkpt>
<trkpt lat="46.17871" lon="7.21667"><ele></ele><time>2016-8-31T4:39:18Z</time></trkpt>
<trkpt lat="46.1787" lon="7.21653"><ele></ele><time>2016-8-31T4:39:21Z</time></trkpt>
<trkpt lat="46.17869" lon="7.21639"><ele></ele><time>2016-8-31T4:39:24Z</time></trkpt>
<trkpt lat="46.17868" lon="7.21632"><ele></ele><time>2016-8-31T4:39:27Z</time></trkpt>
<trkpt lat="46.17868" lon="7.21625"><ele></ele><time>2016-8-31T4:39:30Z</time></trkpt>
<trkpt lat="46.17867" lon="7.2161"><ele></ele><time>2016-8-31T4:39:33Z</time></trkpt>
<trkpt lat="46.17867" lon="7.21596"><ele></ele><time>2016-8-31T4:39:36Z</time></trkpt>
<trkpt lat="46.17866" lon="7.21582"><ele></ele><time>2016-8-31T4:39:39Z</time></trkpt>
<trkpt lat="46.17866" lon="7.21575"><ele></ele><time>2016-8-31T4:39:42Z</time></trkpt>
<trkpt lat="46.17866" lon="7.21567"><ele></ele><time>2016-8-31T4:39:45Z</time></trkpt>
<trkpt lat="46.17868" lon="7.2155"><ele></ele><time>2016-8-31T4:39:48Z</time></trkpt>
<trkpt lat="46.17869" lon="7.21533"><ele></ele><time>2016-8-31T4:39:51Z</time></trkpt>
<trkpt lat="46.1787" lon="7.21516"><ele></ele><time>2016-8-31T4:39:54Z</time></trkpt>
<trkpt lat="46.17871" lon="7.21507"><ele></ele><time>2016-8-31T4:39:57Z</time></trkpt>
<trkpt lat="46.17871" lon="7.21497"><ele></ele><time>2016-8-31T4:40:0Z</time></trkpt>
<trkpt lat="46.17871" lon="7.21475"><ele></ele><time>2016-8-31T4:40:3Z</time></trkpt>
<trkpt lat="46.17871" lon="7.21454"><ele></ele><time>2016-8-31T4:40:6Z</time></trkpt>
<trkpt lat="46.17869" lon="7.21436"><ele></ele><time>2016-8-31T4:40:9Z</time></trkpt>
<trkpt lat="46.17866" lon="7.21418"><ele></ele><time>2016-8-31T4:40:12Z</time></trkpt>
<trkpt lat="46.17864" lon="7.214"><ele></ele><time>2016-8-31T4:40:15Z</time></trkpt>
<trkpt lat="46.17861" lon="7.21382"><ele></ele><time>2016-8-31T4:40:18Z</time></trkpt>
<trkpt lat="46.17859" lon="7.21365"><ele></ele><time>2016-8-31T4:40:21Z</time></trkpt>
<trkpt lat="46.17858" lon="7.21348"><ele></ele><time>2016-8-31T4:40:24Z</time></trkpt>
<trkpt lat="46.17856" lon="7.21331"><ele></ele><time>2016-8-31T4:40:27Z</time></trkpt>
<trkpt lat="46.17854" lon="7.21314"><ele></ele><time>2016-8-31T4:40:30Z</time></trkpt>
<trkpt lat="46.17854" lon="7.21299"><ele></ele><time>2016-8-31T4:40:33Z</time></trkpt>
<trkpt lat="46.17854" lon="7.21292"><ele></ele><time>2016-8-31T4:40:36Z</time></trkpt>
<trkpt lat="46.17856" lon="7.21286"><ele></ele><time>2016-8-31T4:40:39Z</time></trkpt>
<trkpt lat="46.17866" lon="7.21285"><ele></ele><time>2016-8-31T4:40:42Z</time></trkpt>
<trkpt lat="46.17871" lon="7.21285"><ele></ele><time>2016-8-31T4:40:45Z</time></trkpt>
<trkpt lat="46.17877" lon="7.21285"><ele></ele><time>2016-8-31T4:40:48Z</time></trkpt>
<trkpt lat="46.17881" lon="7.21283"><ele></ele><time>2016-8-31T4:40:51Z</time></trkpt>
<trkpt lat="46.17881" lon="7.21275"><ele></ele><time>2016-8-31T4:40:54Z</time></trkpt>
<trkpt lat="46.1788" lon="7.21257"><ele></ele><time>2016-8-31T4:40:57Z</time></trkpt>
<trkpt lat="46.17879" lon="7.2124"><ele></ele><time>2016-8-31T4:41:0Z</time></trkpt>
<trkpt lat="46.17879" lon="7.21223"><ele></ele><time>2016-8-31T4:41:3Z</time></trkpt>
<trkpt lat="46.17878" lon="7.21214"><ele></ele><time>2016-8-31T4:41:6Z</time></trkpt>
<trkpt lat="46.17878" lon="7.21205"><ele></ele><time>2016-8-31T4:41:9Z</time></trkpt>
<trkpt lat="46.17877" lon="7.21186"><ele></ele><time>2016-8-31T4:41:12Z</time></trkpt>
<trkpt lat="46.17876" lon="7.21167"><ele></ele><time>2016-8-31T4:41:15Z</time></trkpt>
<trkpt lat="46.17876" lon="7.21148"><ele></ele><time>2016-8-31T4:41:18Z</time></trkpt>
<trkpt lat="46.17875" lon="7.21128"><ele></ele><time>2016-8-31T4:41:21Z</time></trkpt>
<trkpt lat="46.17874" lon="7.21109"><ele></ele><time>2016-8-31T4:41:24Z</time></trkpt>
<trkpt lat="46.17873" lon="7.21089"><ele></ele><time>2016-8-31T4:41:27Z</time></trkpt>
<trkpt lat="46.17872" lon="7.21079"><ele></ele><time>2016-8-31T4:41:30Z</time></trkpt>
<trkpt lat="46.17872" lon="7.21071"><ele></ele><time>2016-8-31T4:41:33Z</time></trkpt>
<trkpt lat="46.17871" lon="7.21053"><ele></ele><time>2016-8-31T4:41:36Z</time></trkpt>
<trkpt lat="46.17871" lon="7.21035"><ele></ele><time>2016-8-31T4:41:39Z</time></trkpt>
<trkpt lat="46.1787" lon="7.21018"><ele></ele><time>2016-8-31T4:41:42Z</time></trkpt>
<trkpt lat="46.1787" lon="7.21009"><ele></ele><time>2016-8-31T4:41:45Z</time></trkpt>
<trkpt lat="46.17869" lon="7.20999"><ele></ele><time>2016-8-31T4:41:48Z</time></trkpt>
<trkpt lat="46.17869" lon="7.20981"><ele></ele><time>2016-8-31T4:41:51Z</time></trkpt>
<trkpt lat="46.17868" lon="7.20962"><ele></ele><time>2016-8-31T4:41:54Z</time></trkpt>
<trkpt lat="46.17867" lon="7.20943"><ele></ele><time>2016-8-31T4:41:57Z</time></trkpt>
<trkpt lat="46.17867" lon="7.20934"><ele></ele><time>2016-8-31T4:42:0Z</time></trkpt>
<trkpt lat="46.17866" lon="7.20925"><ele></ele><time>2016-8-31T4:42:3Z</time></trkpt>
<trkpt lat="46.17865" lon="7.20905"><ele></ele><time>2016-8-31T4:42:6Z</time></trkpt>
<trkpt lat="46.17864" lon="7.20886"><ele></ele><time>2016-8-31T4:42:9Z</time></trkpt>
<trkpt lat="46.17862" lon="7.20867"><ele></ele><time>2016-8-31T4:42:12Z</time></trkpt>
<trkpt lat="46.17859" lon="7.2085"><ele></ele><time>2016-8-31T4:42:15Z</time></trkpt>
<trkpt lat="46.17856" lon="7.20833"><ele></ele><time>2016-8-31T4:42:18Z</time></trkpt>
<trkpt lat="46.17853" lon="7.20816"><ele></ele><time>2016-8-31T4:42:21Z</time></trkpt>
<trkpt lat="46.1785" lon="7.20799"><ele></ele><time>2016-8-31T4:42:24Z</time></trkpt>
<trkpt lat="46.17846" lon="7.20782"><ele></ele><time>2016-8-31T4:42:27Z</time></trkpt>
<trkpt lat="46.17843" lon="7.20765"><ele></ele><time>2016-8-31T4:42:30Z</time></trkpt>
<trkpt lat="46.1784" lon="7.20748"><ele></ele><time>2016-8-31T4:42:33Z</time></trkpt>
<trkpt lat="46.17836" lon="7.20731"><ele></ele><time>2016-8-31T4:42:36Z</time></trkpt>
<trkpt lat="46.17832" lon="7.20715"><ele></ele><time>2016-8-31T4:42:39Z</time></trkpt>
<trkpt lat="46.17828" lon="7.20699"><ele></ele><time>2016-8-31T4:42:42Z</time></trkpt>
<trkpt lat="46.17824" lon="7.20683"><ele></ele><time>2016-8-31T4:42:45Z</time></trkpt>
<trkpt lat="46.17819" lon="7.20666"><ele></ele><time>2016-8-31T4:42:48Z</time></trkpt>
<trkpt lat="46.17816" lon="7.2065"><ele></ele><time>2016-8-31T4:42:51Z</time></trkpt>
<trkpt lat="46.17812" lon="7.20634"><ele></ele><time>2016-8-31T4:42:54Z</time></trkpt>
<trkpt lat="46.17808" lon="7.20618"><ele></ele><time>2016-8-31T4:42:57Z</time></trkpt>
<trkpt lat="46.17804" lon="7.20602"><ele></ele><time>2016-8-31T4:43:0Z</time></trkpt>
<trkpt lat="46.17799" lon="7.20585"><ele></ele><time>2016-8-31T4:43:3Z</time></trkpt>
<trkpt lat="46.17794" lon="7.20568"><ele></ele><time>2016-8-31T4:43:6Z</time></trkpt>
<trkpt lat="46.17789" lon="7.20551"><ele></ele><time>2016-8-31T4:43:9Z</time></trkpt>
<trkpt lat="46.17785" lon="7.20535"><ele></ele><time>2016-8-31T4:43:12Z</time></trkpt>
<trkpt lat="46.17778" lon="7.20519"><ele></ele><time>2016-8-31T4:43:15Z</time></trkpt>
<trkpt lat="46.17772" lon="7.20504"><ele></ele><time>2016-8-31T4:43:18Z</time></trkpt>
<trkpt lat="46.17765" lon="7.20489"><ele></ele><time>2016-8-31T4:43:21Z</time></trkpt>
<trkpt lat="46.17758" lon="7.20474"><ele></ele><time>2016-8-31T4:43:24Z</time></trkpt>
<trkpt lat="46.1775" lon="7.20458"><ele></ele><time>2016-8-31T4:43:27Z</time></trkpt>
<trkpt lat="46.17742" lon="7.20443"><ele></ele><time>2016-8-31T4:43:30Z</time></trkpt>
<trkpt lat="46.17734" lon="7.20428"><ele></ele><time>2016-8-31T4:43:33Z</time></trkpt>
<trkpt lat="46.1773" lon="7.2042"><ele></ele><time>2016-8-31T4:43:36Z</time></trkpt>
<trkpt lat="46.17726" lon="7.20413"><ele></ele><time>2016-8-31T4:43:39Z</time></trkpt>
<trkpt lat="46.17719" lon="7.204"><ele></ele><time>2016-8-31T4:43:42Z</time></trkpt>
<trkpt lat="46.17712" lon="7.20387"><ele></ele><time>2016-8-31T4:43:45Z</time></trkpt>
<trkpt lat="46.17705" lon="7.20373"><ele></ele><time>2016-8-31T4:43:48Z</time></trkpt>
<trkpt lat="46.17701" lon="7.20367"><ele></ele><time>2016-8-31T4:43:51Z</time></trkpt>
<trkpt lat="46.17697" lon="7.2036"><ele></ele><time>2016-8-31T4:43:54Z</time></trkpt>
<trkpt lat="46.1769" lon="7.20347"><ele></ele><time>2016-8-31T4:43:57Z</time></trkpt>
<trkpt lat="46.17682" lon="7.20334"><ele></ele><time>2016-8-31T4:44:0Z</time></trkpt>
<trkpt lat="46.17675" lon="7.20321"><ele></ele><time>2016-8-31T4:44:3Z</time></trkpt>
<trkpt lat="46.17671" lon="7.20314"><ele></ele><time>2016-8-31T4:44:6Z</time></trkpt>
<trkpt lat="46.17667" lon="7.20307"><ele></ele><time>2016-8-31T4:44:9Z</time></trkpt>
<trkpt lat="46.1766" lon="7.20292"><ele></ele><time>2016-8-31T4:44:12Z</time></trkpt>
<trkpt lat="46.17653" lon="7.20278"><ele></ele><time>2016-8-31T4:44:15Z</time></trkpt>
<trkpt lat="46.17646" lon="7.20263"><ele></ele><time>2016-8-31T4:44:18Z</time></trkpt>
<trkpt lat="46.17642" lon="7.20256"><ele></ele><time>2016-8-31T4:44:21Z</time></trkpt>
<trkpt lat="46.17638" lon="7.20249"><ele></ele><time>2016-8-31T4:44:24Z</time></trkpt>
<trkpt lat="46.17631" lon="7.20236"><ele></ele><time>2016-8-31T4:44:27Z</time></trkpt>
<trkpt lat="46.17624" lon="7.20223"><ele></ele><time>2016-8-31T4:44:30Z</time></trkpt>
<trkpt lat="46.17616" lon="7.2021"><ele></ele><time>2016-8-31T4:44:33Z</time></trkpt>
<trkpt lat="46.17613" lon="7.20204"><ele></ele><time>2016-8-31T4:44:36Z</time></trkpt>
<trkpt lat="46.17608" lon="7.20201"><ele></ele><time>2016-8-31T4:44:39Z</time></trkpt>
<trkpt lat="46.17599" lon="7.20195"><ele></ele><time>2016-8-31T4:44:42Z</time></trkpt>
<trkpt lat="46.17589" lon="7.2019"><ele></ele><time>2016-8-31T4:44:45Z</time></trkpt>
<trkpt lat="46.17579" lon="7.20185"><ele></ele><time>2016-8-31T4:44:48Z</time></trkpt>
<trkpt lat="46.1757" lon="7.2018"><ele></ele><time>2016-8-31T4:44:51Z</time></trkpt>
<trkpt lat="46.17562" lon="7.20176"><ele></ele><time>2016-8-31T4:44:54Z</time></trkpt>
<trkpt lat="46.17554" lon="7.20172"><ele></ele><time>2016-8-31T4:44:57Z</time></trkpt>
<trkpt lat="46.17546" lon="7.20167"><ele></ele><time>2016-8-31T4:45:0Z</time></trkpt>
<trkpt lat="46.17538" lon="7.20163"><ele></ele><time>2016-8-31T4:45:3Z</time></trkpt>
<trkpt lat="46.1753" lon="7.20159"><ele></ele><time>2016-8-31T4:45:6Z</time></trkpt>
<trkpt lat="46.17525" lon="7.20151"><ele></ele><time>2016-8-31T4:45:9Z</time></trkpt>
<trkpt lat="46.17522" lon="7.20146"><ele></ele><time>2016-8-31T4:45:12Z</time></trkpt>
<trkpt lat="46.17523" lon="7.20142"><ele></ele><time>2016-8-31T4:45:15Z</time></trkpt>
<trkpt lat="46.17524" lon="7.20137"><ele></ele><time>2016-8-31T4:45:18Z</time></trkpt>
<trkpt lat="46.17529" lon="7.20134"><ele></ele><time>2016-8-31T4:45:21Z</time></trkpt>
<trkpt lat="46.1754" lon="7.20128"><ele></ele><time>2016-8-31T4:45:24Z</time></trkpt>
<trkpt lat="46.17546" lon="7.20125"><ele></ele><time>2016-8-31T4:45:27Z</time></trkpt>
<trkpt lat="46.1755" lon="7.20118"><ele></ele><time>2016-8-31T4:45:30Z</time></trkpt>
<trkpt lat="46.17554" lon="7.20111"><ele></ele><time>2016-8-31T4:45:33Z</time></trkpt>
<trkpt lat="46.17555" lon="7.20101"><ele></ele><time>2016-8-31T4:45:36Z</time></trkpt>
<trkpt lat="46.17555" lon="7.20092"><ele></ele><time>2016-8-31T4:45:39Z</time></trkpt>
<trkpt lat="46.17552" lon="7.20083"><ele></ele><time>2016-8-31T4:45:42Z</time></trkpt>
<trkpt lat="46.17546" lon="7.20066"><ele></ele><time>2016-8-31T4:45:45Z</time></trkpt>
<trkpt lat="46.17541" lon="7.20049"><ele></ele><time>2016-8-31T4:45:48Z</time></trkpt>
<trkpt lat="46.17535" lon="7.20031"><ele></ele><time>2016-8-31T4:45:51Z</time></trkpt>
<trkpt lat="46.17528" lon="7.20015"><ele></ele><time>2016-8-31T4:45:54Z</time></trkpt>
<trkpt lat="46.17521" lon="7.19998"><ele></ele><time>2016-8-31T4:45:57Z</time></trkpt>
<trkpt lat="46.17515" lon="7.19982"><ele></ele><time>2016-8-31T4:46:0Z</time></trkpt>
<trkpt lat="46.17512" lon="7.19974"><ele></ele><time>2016-8-31T4:46:3Z</time></trkpt>
<trkpt lat="46.17509" lon="7.19966"><ele></ele><time>2016-8-31T4:46:6Z</time></trkpt>
<trkpt lat="46.17506" lon="7.19958"><ele></ele><time>2016-8-31T4:46:9Z</time></trkpt>
<trkpt lat="46.17504" lon="7.1995"><ele></ele><time>2016-8-31T4:46:12Z</time></trkpt>
<trkpt lat="46.17499" lon="7.19934"><ele></ele><time>2016-8-31T4:46:15Z</time></trkpt>
<trkpt lat="46.17494" lon="7.19918"><ele></ele><time>2016-8-31T4:46:18Z</time></trkpt>
<trkpt lat="46.17491" lon="7.1991"><ele></ele><time>2016-8-31T4:46:21Z</time></trkpt>
<trkpt lat="46.17488" lon="7.19902"><ele></ele><time>2016-8-31T4:46:24Z</time></trkpt>
<trkpt lat="46.17482" lon="7.19888"><ele></ele><time>2016-8-31T4:46:27Z</time></trkpt>
<trkpt lat="46.17475" lon="7.19874"><ele></ele><time>2016-8-31T4:46:30Z</time></trkpt>
<trkpt lat="46.17469" lon="7.19859"><ele></ele><time>2016-8-31T4:46:33Z</time></trkpt>
<trkpt lat="46.17466" lon="7.19852"><ele></ele><time>2016-8-31T4:46:36Z</time></trkpt>
<trkpt lat="46.17461" lon="7.19846"><ele></ele><time>2016-8-31T4:46:39Z</time></trkpt>
<trkpt lat="46.17452" lon="7.19834"><ele></ele><time>2016-8-31T4:46:42Z</time></trkpt>
<trkpt lat="46.17443" lon="7.19822"><ele></ele><time>2016-8-31T4:46:45Z</time></trkpt>
<trkpt lat="46.17433" lon="7.1981"><ele></ele><time>2016-8-31T4:46:48Z</time></trkpt>
<trkpt lat="46.17429" lon="7.19805"><ele></ele><time>2016-8-31T4:46:51Z</time></trkpt>
<trkpt lat="46.17423" lon="7.19799"><ele></ele><time>2016-8-31T4:46:54Z</time></trkpt>
<trkpt lat="46.17413" lon="7.1979"><ele></ele><time>2016-8-31T4:46:57Z</time></trkpt>
<trkpt lat="46.17403" lon="7.1978"><ele></ele><time>2016-8-31T4:47:0Z</time></trkpt>
<trkpt lat="46.17392" lon="7.1977"><ele></ele><time>2016-8-31T4:47:3Z</time></trkpt>
<trkpt lat="46.17387" lon="7.19765"><ele></ele><time>2016-8-31T4:47:6Z</time></trkpt>
<trkpt lat="46.17382" lon="7.1976"><ele></ele><time>2016-8-31T4:47:9Z</time></trkpt>
<trkpt lat="46.1737" lon="7.19751"><ele></ele><time>2016-8-31T4:47:12Z</time></trkpt>
<trkpt lat="46.17359" lon="7.19741"><ele></ele><time>2016-8-31T4:47:15Z</time></trkpt>
<trkpt lat="46.17348" lon="7.19732"><ele></ele><time>2016-8-31T4:47:18Z</time></trkpt>
<trkpt lat="46.17343" lon="7.19727"><ele></ele><time>2016-8-31T4:47:21Z</time></trkpt>
<trkpt lat="46.17337" lon="7.19722"><ele></ele><time>2016-8-31T4:47:24Z</time></trkpt>
<trkpt lat="46.17325" lon="7.19712"><ele></ele><time>2016-8-31T4:47:27Z</time></trkpt>
<trkpt lat="46.17314" lon="7.19702"><ele></ele><time>2016-8-31T4:47:30Z</time></trkpt>
<trkpt lat="46.17302" lon="7.19691"><ele></ele><time>2016-8-31T4:47:33Z</time></trkpt>
<trkpt lat="46.17291" lon="7.19682"><ele></ele><time>2016-8-31T4:47:36Z</time></trkpt>
<trkpt lat="46.17279" lon="7.19672"><ele></ele><time>2016-8-31T4:47:39Z</time></trkpt>
<trkpt lat="46.17268" lon="7.19663"><ele></ele><time>2016-8-31T4:47:42Z</time></trkpt>
<trkpt lat="46.17262" lon="7.19658"><ele></ele><time>2016-8-31T4:47:45Z</time></trkpt>
<trkpt lat="46.17256" lon="7.19654"><ele></ele><time>2016-8-31T4:47:48Z</time></trkpt>
<trkpt lat="46.17245" lon="7.19645"><ele></ele><time>2016-8-31T4:47:51Z</time></trkpt>
<trkpt lat="46.17234" lon="7.19636"><ele></ele><time>2016-8-31T4:47:54Z</time></trkpt>
<trkpt lat="46.17223" lon="7.19628"><ele></ele><time>2016-8-31T4:47:57Z</time></trkpt>
<trkpt lat="46.17213" lon="7.19619"><ele></ele><time>2016-8-31T4:48:0Z</time></trkpt>
<trkpt lat="46.17214" lon="7.19606"><ele></ele><time>2016-8-31T4:48:3Z</time></trkpt>
<trkpt lat="46.17215" lon="7.19593"><ele></ele><time>2016-8-31T4:48:6Z</time></trkpt>
<trkpt lat="46.17207" lon="7.19585"><ele></ele><time>2016-8-31T4:48:9Z</time></trkpt>
<trkpt lat="46.17197" lon="7.19577"><ele></ele><time>2016-8-31T4:48:12Z</time></trkpt>
<trkpt lat="46.17183" lon="7.19564"><ele></ele><time>2016-8-31T4:48:15Z</time></trkpt>
<trkpt lat="46.17179" lon="7.1956"><ele></ele><time>2016-8-31T4:48:18Z</time></trkpt>
<trkpt lat="46.17174" lon="7.19556"><ele></ele><time>2016-8-31T4:48:21Z</time></trkpt>
<trkpt lat="46.1717" lon="7.19552"><ele></ele><time>2016-8-31T4:48:24Z</time></trkpt>
<trkpt lat="46.17161" lon="7.19545"><ele></ele><time>2016-8-31T4:48:27Z</time></trkpt>
<trkpt lat="46.17152" lon="7.19537"><ele></ele><time>2016-8-31T4:48:30Z</time></trkpt>
<trkpt lat="46.17143" lon="7.19529"><ele></ele><time>2016-8-31T4:48:33Z</time></trkpt>
<trkpt lat="46.17135" lon="7.19521"><ele></ele><time>2016-8-31T4:48:36Z</time></trkpt>
<trkpt lat="46.17127" lon="7.19514"><ele></ele><time>2016-8-31T4:48:39Z</time></trkpt>
<trkpt lat="46.1712" lon="7.19508"><ele></ele><time>2016-8-31T4:48:42Z</time></trkpt>
<trkpt lat="46.17112" lon="7.19502"><ele></ele><time>2016-8-31T4:48:45Z</time></trkpt>
<trkpt lat="46.17105" lon="7.19495"><ele></ele><time>2016-8-31T4:48:48Z</time></trkpt>
<trkpt lat="46.17097" lon="7.19489"><ele></ele><time>2016-8-31T4:48:51Z</time></trkpt>
<trkpt lat="46.17094" lon="7.19486"><ele></ele><time>2016-8-31T4:48:54Z</time></trkpt>
<trkpt lat="46.17089" lon="7.19482"><ele></ele><time>2016-8-31T4:48:57Z</time></trkpt>
<trkpt lat="46.1708" lon="7.19474"><ele></ele><time>2016-8-31T4:49:0Z</time></trkpt>
<trkpt lat="46.1707" lon="7.19465"><ele></ele><time>2016-8-31T4:49:3Z</time></trkpt>
<trkpt lat="46.17061" lon="7.19457"><ele></ele><time>2016-8-31T4:49:6Z</time></trkpt>
<trkpt lat="46.17051" lon="7.19449"><ele></ele><time>2016-8-31T4:49:9Z</time></trkpt>
<trkpt lat="46.17042" lon="7.19441"><ele></ele><time>2016-8-31T4:49:12Z</time></trkpt>
<trkpt lat="46.17033" lon="7.19433"><ele></ele><time>2016-8-31T4:49:15Z</time></trkpt>
<trkpt lat="46.17024" lon="7.19425"><ele></ele><time>2016-8-31T4:49:18Z</time></trkpt>
<trkpt lat="46.1702" lon="7.19421"><ele></ele><time>2016-8-31T4:49:21Z</time></trkpt>
<trkpt lat="46.17015" lon="7.19417"><ele></ele><time>2016-8-31T4:49:24Z</time></trkpt>
<trkpt lat="46.17011" lon="7.19413"><ele></ele><time>2016-8-31T4:49:27Z</time></trkpt>
<trkpt lat="46.17007" lon="7.1941"><ele></ele><time>2016-8-31T4:49:30Z</time></trkpt>
<trkpt lat="46.17001" lon="7.19404"><ele></ele><time>2016-8-31T4:49:33Z</time></trkpt>
<trkpt lat="46.16995" lon="7.19397"><ele></ele><time>2016-8-31T4:49:36Z</time></trkpt>
<trkpt lat="46.16988" lon="7.19391"><ele></ele><time>2016-8-31T4:49:39Z</time></trkpt>
<trkpt lat="46.16982" lon="7.19384"><ele></ele><time>2016-8-31T4:49:42Z</time></trkpt>
<trkpt lat="46.16981" lon="7.19374"><ele></ele><time>2016-8-31T4:49:45Z</time></trkpt>
<trkpt lat="46.16985" lon="7.19363"><ele></ele><time>2016-8-31T4:49:48Z</time></trkpt>
<trkpt lat="46.16991" lon="7.19352"><ele></ele><time>2016-8-31T4:49:51Z</time></trkpt>
<trkpt lat="46.16996" lon="7.19341"><ele></ele><time>2016-8-31T4:49:54Z</time></trkpt>
<trkpt lat="46.17001" lon="7.1933"><ele></ele><time>2016-8-31T4:49:57Z</time></trkpt>
<trkpt lat="46.17006" lon="7.1932"><ele></ele><time>2016-8-31T4:50:0Z</time></trkpt>
<trkpt lat="46.17012" lon="7.19308"><ele></ele><time>2016-8-31T4:50:3Z</time></trkpt>
<trkpt lat="46.17018" lon="7.19297"><ele></ele><time>2016-8-31T4:50:6Z</time></trkpt>
<trkpt lat="46.17025" lon="7.19286"><ele></ele><time>2016-8-31T4:50:9Z</time></trkpt>
<trkpt lat="46.17031" lon="7.19274"><ele></ele><time>2016-8-31T4:50:12Z</time></trkpt>
<trkpt lat="46.17034" lon="7.19268"><ele></ele><time>2016-8-31T4:50:15Z</time></trkpt>
<trkpt lat="46.17037" lon="7.19263"><ele></ele><time>2016-8-31T4:50:18Z</time></trkpt>
<trkpt lat="46.17042" lon="7.19253"><ele></ele><time>2016-8-31T4:50:21Z</time></trkpt>
<trkpt lat="46.17047" lon="7.19244"><ele></ele><time>2016-8-31T4:50:24Z</time></trkpt>
<trkpt lat="46.17053" lon="7.19234"><ele></ele><time>2016-8-31T4:50:27Z</time></trkpt>
<trkpt lat="46.17058" lon="7.19224"><ele></ele><time>2016-8-31T4:50:30Z</time></trkpt>
<trkpt lat="46.17063" lon="7.19214"><ele></ele><time>2016-8-31T4:50:33Z</time></trkpt>
<trkpt lat="46.17069" lon="7.19201"><ele></ele><time>2016-8-31T4:50:36Z</time></trkpt>
<trkpt lat="46.17076" lon="7.19189"><ele></ele><time>2016-8-31T4:50:39Z</time></trkpt>
<trkpt lat="46.17083" lon="7.19176"><ele></ele><time>2016-8-31T4:50:42Z</time></trkpt>
<trkpt lat="46.17089" lon="7.19164"><ele></ele><time>2016-8-31T4:50:45Z</time></trkpt>
<trkpt lat="46.17092" lon="7.19157"><ele></ele><time>2016-8-31T4:50:48Z</time></trkpt>
<trkpt lat="46.17095" lon="7.19151"><ele></ele><time>2016-8-31T4:50:51Z</time></trkpt>
<trkpt lat="46.17102" lon="7.19139"><ele></ele><time>2016-8-31T4:50:54Z</time></trkpt>
<trkpt lat="46.17108" lon="7.19127"><ele></ele><time>2016-8-31T4:50:57Z</time></trkpt>
<trkpt lat="46.17114" lon="7.19115"><ele></ele><time>2016-8-31T4:51:0Z</time></trkpt>
<trkpt lat="46.1712" lon="7.19104"><ele></ele><time>2016-8-31T4:51:3Z</time></trkpt>
<trkpt lat="46.17128" lon="7.19095"><ele></ele><time>2016-8-31T4:51:6Z</time></trkpt>
<trkpt lat="46.17137" lon="7.19095"><ele></ele><time>2016-8-31T4:51:9Z</time></trkpt>
<trkpt lat="46.17145" lon="7.19104"><ele></ele><time>2016-8-31T4:51:12Z</time></trkpt>
<trkpt lat="46.17153" lon="7.19113"><ele></ele><time>2016-8-31T4:51:15Z</time></trkpt>
<trkpt lat="46.17161" lon="7.19123"><ele></ele><time>2016-8-31T4:51:18Z</time></trkpt>
<trkpt lat="46.17169" lon="7.19133"><ele></ele><time>2016-8-31T4:51:21Z</time></trkpt>
<trkpt lat="46.17173" lon="7.19137"><ele></ele><time>2016-8-31T4:51:24Z</time></trkpt>
<trkpt lat="46.17177" lon="7.19142"><ele></ele><time>2016-8-31T4:51:27Z</time></trkpt>
<trkpt lat="46.17185" lon="7.19151"><ele></ele><time>2016-8-31T4:51:30Z</time></trkpt>
<trkpt lat="46.17194" lon="7.1916"><ele></ele><time>2016-8-31T4:51:33Z</time></trkpt>
<trkpt lat="46.17202" lon="7.19168"><ele></ele><time>2016-8-31T4:51:36Z</time></trkpt>
<trkpt lat="46.17211" lon="7.19177"><ele></ele><time>2016-8-31T4:51:39Z</time></trkpt>
<trkpt lat="46.17218" lon="7.19185"><ele></ele><time>2016-8-31T4:51:42Z</time></trkpt>
<trkpt lat="46.17225" lon="7.19193"><ele></ele><time>2016-8-31T4:51:45Z</time></trkpt>
<trkpt lat="46.17228" lon="7.19196"><ele></ele><time>2016-8-31T4:51:48Z</time></trkpt>
<trkpt lat="46.17232" lon="7.19198"><ele></ele><time>2016-8-31T4:51:51Z</time></trkpt>
<trkpt lat="46.17236" lon="7.19198"><ele></ele><time>2016-8-31T4:51:54Z</time></trkpt>
<trkpt lat="46.17239" lon="7.19193"><ele></ele><time>2016-8-31T4:51:57Z</time></trkpt>
<trkpt lat="46.17246" lon="7.19183"><ele></ele><time>2016-8-31T4:52:0Z</time></trkpt>
<trkpt lat="46.17253" lon="7.19172"><ele></ele><time>2016-8-31T4:52:3Z</time></trkpt>
<trkpt lat="46.17259" lon="7.19161"><ele></ele><time>2016-8-31T4:52:6Z</time></trkpt>
<trkpt lat="46.17266" lon="7.1915"><ele></ele><time>2016-8-31T4:52:9Z</time></trkpt>
<trkpt lat="46.17272" lon="7.19139"><ele></ele><time>2016-8-31T4:52:12Z</time></trkpt>
<trkpt lat="46.17278" lon="7.19128"><ele></ele><time>2016-8-31T4:52:15Z</time></trkpt>
<trkpt lat="46.17285" lon="7.19116"><ele></ele><time>2016-8-31T4:52:18Z</time></trkpt>
<trkpt lat="46.17291" lon="7.19105"><ele></ele><time>2016-8-31T4:52:21Z</time></trkpt>
<trkpt lat="46.17294" lon="7.191"><ele></ele><time>2016-8-31T4:52:24Z</time></trkpt>
<trkpt lat="46.17297" lon="7.19094"><ele></ele><time>2016-8-31T4:52:27Z</time></trkpt>
<trkpt lat="46.17302" lon="7.19082"><ele></ele><time>2016-8-31T4:52:30Z</time></trkpt>
<trkpt lat="46.17305" lon="7.19076"><ele></ele><time>2016-8-31T4:52:33Z</time></trkpt>
<trkpt lat="46.17304" lon="7.1907"><ele></ele><time>2016-8-31T4:52:36Z</time></trkpt>
<trkpt lat="46.17302" lon="7.19064"><ele></ele><time>2016-8-31T4:52:39Z</time></trkpt>
<trkpt lat="46.17298" lon="7.19059"><ele></ele><time>2016-8-31T4:52:42Z</time></trkpt>
<trkpt lat="46.17289" lon="7.19049"><ele></ele><time>2016-8-31T4:52:45Z</time></trkpt>
<trkpt lat="46.17279" lon="7.1904"><ele></ele><time>2016-8-31T4:52:48Z</time></trkpt>
<trkpt lat="46.17269" lon="7.1903"><ele></ele><time>2016-8-31T4:52:51Z</time></trkpt>
<trkpt lat="46.17265" lon="7.19025"><ele></ele><time>2016-8-31T4:52:54Z</time></trkpt>
<trkpt lat="46.1726" lon="7.1902"><ele></ele><time>2016-8-31T4:52:57Z</time></trkpt>
<trkpt lat="46.17252" lon="7.19011"><ele></ele><time>2016-8-31T4:53:0Z</time></trkpt>
<trkpt lat="46.17243" lon="7.19001"><ele></ele><time>2016-8-31T4:53:3Z</time></trkpt>
<trkpt lat="46.17234" lon="7.18991"><ele></ele><time>2016-8-31T4:53:6Z</time></trkpt>
<trkpt lat="46.17225" lon="7.18982"><ele></ele><time>2016-8-31T4:53:9Z</time></trkpt>
<trkpt lat="46.17218" lon="7.18975"><ele></ele><time>2016-8-31T4:53:12Z</time></trkpt>
<trkpt lat="46.17211" lon="7.18968"><ele></ele><time>2016-8-31T4:53:15Z</time></trkpt>
<trkpt lat="46.17205" lon="7.18962"><ele></ele><time>2016-8-31T4:53:18Z</time></trkpt>
<trkpt lat="46.17197" lon="7.18967"><ele></ele><time>2016-8-31T4:53:21Z</time></trkpt>
<trkpt lat="46.17193" lon="7.1897"><ele></ele><time>2016-8-31T4:53:24Z</time></trkpt>
<trkpt lat="46.1719" lon="7.18975"><ele></ele><time>2016-8-31T4:53:27Z</time></trkpt>
<trkpt lat="46.17185" lon="7.18985"><ele></ele><time>2016-8-31T4:53:30Z</time></trkpt>
<trkpt lat="46.1718" lon="7.18996"><ele></ele><time>2016-8-31T4:53:33Z</time></trkpt>
<trkpt lat="46.17174" lon="7.19007"><ele></ele><time>2016-8-31T4:53:36Z</time></trkpt>
<trkpt lat="46.17169" lon="7.19017"><ele></ele><time>2016-8-31T4:53:39Z</time></trkpt>
<trkpt lat="46.17166" lon="7.19022"><ele></ele><time>2016-8-31T4:53:42Z</time></trkpt>
<trkpt lat="46.17163" lon="7.19027"><ele></ele><time>2016-8-31T4:53:45Z</time></trkpt>
<trkpt lat="46.17157" lon="7.19037"><ele></ele><time>2016-8-31T4:53:48Z</time></trkpt>
<trkpt lat="46.17152" lon="7.19047"><ele></ele><time>2016-8-31T4:53:51Z</time></trkpt>
<trkpt lat="46.17146" lon="7.19057"><ele></ele><time>2016-8-31T4:53:54Z</time></trkpt>
<trkpt lat="46.1714" lon="7.19067"><ele></ele><time>2016-8-31T4:53:57Z</time></trkpt>
<trkpt lat="46.17135" lon="7.19077"><ele></ele><time>2016-8-31T4:54:0Z</time></trkpt>
<trkpt lat="46.1713" lon="7.19086"><ele></ele><time>2016-8-31T4:54:3Z</time></trkpt>
<trkpt lat="46.17125" lon="7.19095"><ele></ele><time>2016-8-31T4:54:6Z</time></trkpt>
<trkpt lat="46.17121" lon="7.19104"><ele></ele><time>2016-8-31T4:54:9Z</time></trkpt>
<trkpt lat="46.17116" lon="7.19113"><ele></ele><time>2016-8-31T4:54:12Z</time></trkpt>
<trkpt lat="46.17111" lon="7.19122"><ele></ele><time>2016-8-31T4:54:15Z</time></trkpt>
<trkpt lat="46.17107" lon="7.19131"><ele></ele><time>2016-8-31T4:54:18Z</time></trkpt>
<trkpt lat="46.17102" lon="7.1914"><ele></ele><time>2016-8-31T4:54:21Z</time></trkpt>
<trkpt lat="46.17098" lon="7.19149"><ele></ele><time>2016-8-31T4:54:24Z</time></trkpt>
<trkpt lat="46.17093" lon="7.19159"><ele></ele><time>2016-8-31T4:54:27Z</time></trkpt>
<trkpt lat="46.17089" lon="7.19168"><ele></ele><time>2016-8-31T4:54:30Z</time></trkpt>
<trkpt lat="46.17084" lon="7.19178"><ele></ele><time>2016-8-31T4:54:33Z</time></trkpt>
<trkpt lat="46.1708" lon="7.19187"><ele></ele><time>2016-8-31T4:54:36Z</time></trkpt>
<trkpt lat="46.17076" lon="7.19194"><ele></ele><time>2016-8-31T4:54:39Z</time></trkpt>
<trkpt lat="46.17071" lon="7.19202"><ele></ele><time>2016-8-31T4:54:42Z</time></trkpt>
<trkpt lat="46.17067" lon="7.19209"><ele></ele><time>2016-8-31T4:54:45Z</time></trkpt>
<trkpt lat="46.17062" lon="7.19217"><ele></ele><time>2016-8-31T4:54:48Z</time></trkpt>
<trkpt lat="46.17058" lon="7.19224"><ele></ele><time>2016-8-31T4:54:51Z</time></trkpt>
<trkpt lat="46.17054" lon="7.19232"><ele></ele><time>2016-8-31T4:54:54Z</time></trkpt>
<trkpt lat="46.17051" lon="7.19229"><ele></ele><time>2016-8-31T4:54:57Z</time></trkpt>
<trkpt lat="46.17047" lon="7.19226"><ele></ele><time>2016-8-31T4:55:0Z</time></trkpt>
<trkpt lat="46.17046" lon="7.19224"><ele></ele><time>2016-8-31T4:55:3Z</time></trkpt>
<trkpt lat="46.17044" lon="7.19222"><ele></ele><time>2016-8-31T4:55:6Z</time></trkpt>
</trkseg></trk></gpx>